<?xml version="1.0" encoding="UTF-8" standalone="no" ?>
<gpx xmlns="http://www.topografix.com/GPX/1/1" xmlns:xsi="http://www.w3.org/2001/XMLSchema-instance" xsi:schemaLocation="http://www.topografix.com/GPX/1/1 http://www.topografix.com/GPX/1/1/gpx.xsd" version="1.1" creator="VisuGPX - https://www.visugpx.com">
  <metadata>
    <name>SO-NE-St Léger St Pazanne Machecoul St Philbert La Chevrolière Pont St Martin St Aignan</name>
    <desc><![CDATA[SO-NE-St Léger St Pazanne Machecoul St Philbert La Chevrolière Pont St Martin St Aignan]]></desc>
  </metadata>
  <trk>
    <name><![CDATA[2022-10-22 13:17 GMT+2]]></name>
    <trkseg>
      <trkpt lat="47.16777" lon="-1.62661">
        <ele>79</ele>
        <time>2022-10-22T11:17:51Z</time>
      </trkpt>
      <trkpt lat="47.16769" lon="-1.62673">
        <ele>79</ele>
        <time>2022-10-22T11:18:53Z</time>
      </trkpt>
      <trkpt lat="47.1676" lon="-1.62679">
        <ele>80</ele>
        <time>2022-10-22T11:18:56Z</time>
      </trkpt>
      <trkpt lat="47.1675" lon="-1.62672">
        <ele>80</ele>
        <time>2022-10-22T11:18:59Z</time>
      </trkpt>
      <trkpt lat="47.16741" lon="-1.62675">
        <ele>81</ele>
        <time>2022-10-22T11:19:01Z</time>
      </trkpt>
      <trkpt lat="47.16729" lon="-1.62684">
        <ele>80</ele>
        <time>2022-10-22T11:19:04Z</time>
      </trkpt>
      <trkpt lat="47.1672" lon="-1.6269">
        <ele>80</ele>
        <time>2022-10-22T11:19:06Z</time>
      </trkpt>
      <trkpt lat="47.16715" lon="-1.62706">
        <ele>81</ele>
        <time>2022-10-22T11:19:09Z</time>
      </trkpt>
      <trkpt lat="47.16721" lon="-1.62717">
        <ele>79</ele>
        <time>2022-10-22T11:19:11Z</time>
      </trkpt>
      <trkpt lat="47.16727" lon="-1.62727">
        <ele>78</ele>
        <time>2022-10-22T11:19:13Z</time>
      </trkpt>
      <trkpt lat="47.16735" lon="-1.62742">
        <ele>78</ele>
        <time>2022-10-22T11:19:16Z</time>
      </trkpt>
      <trkpt lat="47.16745" lon="-1.62755">
        <ele>77</ele>
        <time>2022-10-22T11:19:19Z</time>
      </trkpt>
      <trkpt lat="47.16752" lon="-1.62764">
        <ele>77</ele>
        <time>2022-10-22T11:19:21Z</time>
      </trkpt>
      <trkpt lat="47.16759" lon="-1.62772">
        <ele>77</ele>
        <time>2022-10-22T11:19:23Z</time>
      </trkpt>
      <trkpt lat="47.16767" lon="-1.62779">
        <ele>78</ele>
        <time>2022-10-22T11:19:25Z</time>
      </trkpt>
      <trkpt lat="47.16775" lon="-1.62786">
        <ele>78</ele>
        <time>2022-10-22T11:19:27Z</time>
      </trkpt>
      <trkpt lat="47.16783" lon="-1.62793">
        <ele>78</ele>
        <time>2022-10-22T11:19:29Z</time>
      </trkpt>
      <trkpt lat="47.16791" lon="-1.62801">
        <ele>78</ele>
        <time>2022-10-22T11:19:31Z</time>
      </trkpt>
      <trkpt lat="47.16799" lon="-1.62809">
        <ele>79</ele>
        <time>2022-10-22T11:19:33Z</time>
      </trkpt>
      <trkpt lat="47.16807" lon="-1.62816">
        <ele>79</ele>
        <time>2022-10-22T11:19:35Z</time>
      </trkpt>
      <trkpt lat="47.16815" lon="-1.62823">
        <ele>78</ele>
        <time>2022-10-22T11:19:37Z</time>
      </trkpt>
      <trkpt lat="47.16823" lon="-1.62831">
        <ele>78</ele>
        <time>2022-10-22T11:19:39Z</time>
      </trkpt>
      <trkpt lat="47.16831" lon="-1.62839">
        <ele>78</ele>
        <time>2022-10-22T11:19:41Z</time>
      </trkpt>
      <trkpt lat="47.16842" lon="-1.62849">
        <ele>78</ele>
        <time>2022-10-22T11:19:44Z</time>
      </trkpt>
      <trkpt lat="47.1685" lon="-1.62857">
        <ele>78</ele>
        <time>2022-10-22T11:19:46Z</time>
      </trkpt>
      <trkpt lat="47.16858" lon="-1.62865">
        <ele>77</ele>
        <time>2022-10-22T11:19:48Z</time>
      </trkpt>
      <trkpt lat="47.16866" lon="-1.62875">
        <ele>77</ele>
        <time>2022-10-22T11:19:50Z</time>
      </trkpt>
      <trkpt lat="47.16874" lon="-1.62885">
        <ele>77</ele>
        <time>2022-10-22T11:19:52Z</time>
      </trkpt>
      <trkpt lat="47.16879" lon="-1.62898">
        <ele>78</ele>
        <time>2022-10-22T11:19:54Z</time>
      </trkpt>
      <trkpt lat="47.16884" lon="-1.62912">
        <ele>77</ele>
        <time>2022-10-22T11:19:56Z</time>
      </trkpt>
      <trkpt lat="47.16887" lon="-1.62928">
        <ele>77</ele>
        <time>2022-10-22T11:19:58Z</time>
      </trkpt>
      <trkpt lat="47.16889" lon="-1.62944">
        <ele>77</ele>
        <time>2022-10-22T11:20:00Z</time>
      </trkpt>
      <trkpt lat="47.16889" lon="-1.62961">
        <ele>77</ele>
        <time>2022-10-22T11:20:02Z</time>
      </trkpt>
      <trkpt lat="47.16889" lon="-1.6298">
        <ele>77</ele>
        <time>2022-10-22T11:20:04Z</time>
      </trkpt>
      <trkpt lat="47.16887" lon="-1.62997">
        <ele>77</ele>
        <time>2022-10-22T11:20:06Z</time>
      </trkpt>
      <trkpt lat="47.16886" lon="-1.63014">
        <ele>76</ele>
        <time>2022-10-22T11:20:08Z</time>
      </trkpt>
      <trkpt lat="47.16886" lon="-1.63032">
        <ele>77</ele>
        <time>2022-10-22T11:20:10Z</time>
      </trkpt>
      <trkpt lat="47.16886" lon="-1.63051">
        <ele>76</ele>
        <time>2022-10-22T11:20:12Z</time>
      </trkpt>
      <trkpt lat="47.16888" lon="-1.63069">
        <ele>76</ele>
        <time>2022-10-22T11:20:14Z</time>
      </trkpt>
      <trkpt lat="47.1689" lon="-1.63087">
        <ele>76</ele>
        <time>2022-10-22T11:20:16Z</time>
      </trkpt>
      <trkpt lat="47.16894" lon="-1.63106">
        <ele>76</ele>
        <time>2022-10-22T11:20:18Z</time>
      </trkpt>
      <trkpt lat="47.16897" lon="-1.63122">
        <ele>77</ele>
        <time>2022-10-22T11:20:20Z</time>
      </trkpt>
      <trkpt lat="47.16902" lon="-1.63139">
        <ele>77</ele>
        <time>2022-10-22T11:20:22Z</time>
      </trkpt>
      <trkpt lat="47.16908" lon="-1.63155">
        <ele>78</ele>
        <time>2022-10-22T11:20:24Z</time>
      </trkpt>
      <trkpt lat="47.16915" lon="-1.6317">
        <ele>78</ele>
        <time>2022-10-22T11:20:26Z</time>
      </trkpt>
      <trkpt lat="47.16921" lon="-1.63184">
        <ele>78</ele>
        <time>2022-10-22T11:20:28Z</time>
      </trkpt>
      <trkpt lat="47.16929" lon="-1.63198">
        <ele>78</ele>
        <time>2022-10-22T11:20:30Z</time>
      </trkpt>
      <trkpt lat="47.16937" lon="-1.63212">
        <ele>78</ele>
        <time>2022-10-22T11:20:32Z</time>
      </trkpt>
      <trkpt lat="47.16946" lon="-1.63224">
        <ele>78</ele>
        <time>2022-10-22T11:20:34Z</time>
      </trkpt>
      <trkpt lat="47.16955" lon="-1.63235">
        <ele>79</ele>
        <time>2022-10-22T11:20:36Z</time>
      </trkpt>
      <trkpt lat="47.16962" lon="-1.63244">
        <ele>80</ele>
        <time>2022-10-22T11:20:38Z</time>
      </trkpt>
      <trkpt lat="47.16961" lon="-1.63262">
        <ele>79</ele>
        <time>2022-10-22T11:20:42Z</time>
      </trkpt>
      <trkpt lat="47.16953" lon="-1.63277">
        <ele>79</ele>
        <time>2022-10-22T11:20:44Z</time>
      </trkpt>
      <trkpt lat="47.16944" lon="-1.63291">
        <ele>79</ele>
        <time>2022-10-22T11:20:46Z</time>
      </trkpt>
      <trkpt lat="47.16936" lon="-1.63306">
        <ele>79</ele>
        <time>2022-10-22T11:20:48Z</time>
      </trkpt>
      <trkpt lat="47.16926" lon="-1.63321">
        <ele>78</ele>
        <time>2022-10-22T11:20:50Z</time>
      </trkpt>
      <trkpt lat="47.16918" lon="-1.63334">
        <ele>78</ele>
        <time>2022-10-22T11:20:52Z</time>
      </trkpt>
      <trkpt lat="47.16909" lon="-1.63347">
        <ele>78</ele>
        <time>2022-10-22T11:20:54Z</time>
      </trkpt>
      <trkpt lat="47.169" lon="-1.63361">
        <ele>78</ele>
        <time>2022-10-22T11:20:56Z</time>
      </trkpt>
      <trkpt lat="47.16891" lon="-1.63374">
        <ele>78</ele>
        <time>2022-10-22T11:20:58Z</time>
      </trkpt>
      <trkpt lat="47.16883" lon="-1.63388">
        <ele>79</ele>
        <time>2022-10-22T11:21:00Z</time>
      </trkpt>
      <trkpt lat="47.16874" lon="-1.63403">
        <ele>79</ele>
        <time>2022-10-22T11:21:02Z</time>
      </trkpt>
      <trkpt lat="47.16866" lon="-1.63417">
        <ele>79</ele>
        <time>2022-10-22T11:21:04Z</time>
      </trkpt>
      <trkpt lat="47.16858" lon="-1.63431">
        <ele>80</ele>
        <time>2022-10-22T11:21:06Z</time>
      </trkpt>
      <trkpt lat="47.1685" lon="-1.63444">
        <ele>80</ele>
        <time>2022-10-22T11:21:08Z</time>
      </trkpt>
      <trkpt lat="47.16841" lon="-1.63458">
        <ele>80</ele>
        <time>2022-10-22T11:21:10Z</time>
      </trkpt>
      <trkpt lat="47.16833" lon="-1.63473">
        <ele>80</ele>
        <time>2022-10-22T11:21:12Z</time>
      </trkpt>
      <trkpt lat="47.16824" lon="-1.63487">
        <ele>80</ele>
        <time>2022-10-22T11:21:14Z</time>
      </trkpt>
      <trkpt lat="47.16816" lon="-1.63501">
        <ele>80</ele>
        <time>2022-10-22T11:21:16Z</time>
      </trkpt>
      <trkpt lat="47.16808" lon="-1.63515">
        <ele>80</ele>
        <time>2022-10-22T11:21:18Z</time>
      </trkpt>
      <trkpt lat="47.168" lon="-1.6353">
        <ele>80</ele>
        <time>2022-10-22T11:21:20Z</time>
      </trkpt>
      <trkpt lat="47.16791" lon="-1.63544">
        <ele>80</ele>
        <time>2022-10-22T11:21:22Z</time>
      </trkpt>
      <trkpt lat="47.16783" lon="-1.63559">
        <ele>80</ele>
        <time>2022-10-22T11:21:24Z</time>
      </trkpt>
      <trkpt lat="47.16774" lon="-1.63575">
        <ele>80</ele>
        <time>2022-10-22T11:21:26Z</time>
      </trkpt>
      <trkpt lat="47.16766" lon="-1.63589">
        <ele>79</ele>
        <time>2022-10-22T11:21:28Z</time>
      </trkpt>
      <trkpt lat="47.16757" lon="-1.63603">
        <ele>79</ele>
        <time>2022-10-22T11:21:30Z</time>
      </trkpt>
      <trkpt lat="47.16749" lon="-1.63618">
        <ele>79</ele>
        <time>2022-10-22T11:21:32Z</time>
      </trkpt>
      <trkpt lat="47.16742" lon="-1.63632">
        <ele>79</ele>
        <time>2022-10-22T11:21:34Z</time>
      </trkpt>
      <trkpt lat="47.16749" lon="-1.63647">
        <ele>79</ele>
        <time>2022-10-22T11:21:36Z</time>
      </trkpt>
      <trkpt lat="47.16761" lon="-1.6365">
        <ele>79</ele>
        <time>2022-10-22T11:21:38Z</time>
      </trkpt>
      <trkpt lat="47.16774" lon="-1.63654">
        <ele>79</ele>
        <time>2022-10-22T11:21:40Z</time>
      </trkpt>
      <trkpt lat="47.16787" lon="-1.63658">
        <ele>79</ele>
        <time>2022-10-22T11:21:42Z</time>
      </trkpt>
      <trkpt lat="47.16799" lon="-1.63663">
        <ele>79</ele>
        <time>2022-10-22T11:21:44Z</time>
      </trkpt>
      <trkpt lat="47.16812" lon="-1.63668">
        <ele>79</ele>
        <time>2022-10-22T11:21:46Z</time>
      </trkpt>
      <trkpt lat="47.16825" lon="-1.63672">
        <ele>79</ele>
        <time>2022-10-22T11:21:48Z</time>
      </trkpt>
      <trkpt lat="47.16838" lon="-1.63677">
        <ele>79</ele>
        <time>2022-10-22T11:21:50Z</time>
      </trkpt>
      <trkpt lat="47.16852" lon="-1.63682">
        <ele>79</ele>
        <time>2022-10-22T11:21:52Z</time>
      </trkpt>
      <trkpt lat="47.16865" lon="-1.63687">
        <ele>79</ele>
        <time>2022-10-22T11:21:54Z</time>
      </trkpt>
      <trkpt lat="47.16879" lon="-1.63693">
        <ele>79</ele>
        <time>2022-10-22T11:21:56Z</time>
      </trkpt>
      <trkpt lat="47.16892" lon="-1.63698">
        <ele>80</ele>
        <time>2022-10-22T11:21:58Z</time>
      </trkpt>
      <trkpt lat="47.16906" lon="-1.63704">
        <ele>80</ele>
        <time>2022-10-22T11:22:00Z</time>
      </trkpt>
      <trkpt lat="47.1692" lon="-1.6371">
        <ele>80</ele>
        <time>2022-10-22T11:22:02Z</time>
      </trkpt>
      <trkpt lat="47.16934" lon="-1.63715">
        <ele>81</ele>
        <time>2022-10-22T11:22:04Z</time>
      </trkpt>
      <trkpt lat="47.16948" lon="-1.6372">
        <ele>81</ele>
        <time>2022-10-22T11:22:06Z</time>
      </trkpt>
      <trkpt lat="47.16962" lon="-1.63725">
        <ele>81</ele>
        <time>2022-10-22T11:22:08Z</time>
      </trkpt>
      <trkpt lat="47.16976" lon="-1.6373">
        <ele>81</ele>
        <time>2022-10-22T11:22:10Z</time>
      </trkpt>
      <trkpt lat="47.16989" lon="-1.63735">
        <ele>82</ele>
        <time>2022-10-22T11:22:12Z</time>
      </trkpt>
      <trkpt lat="47.17003" lon="-1.6374">
        <ele>82</ele>
        <time>2022-10-22T11:22:14Z</time>
      </trkpt>
      <trkpt lat="47.17016" lon="-1.63745">
        <ele>82</ele>
        <time>2022-10-22T11:22:16Z</time>
      </trkpt>
      <trkpt lat="47.17028" lon="-1.63751">
        <ele>82</ele>
        <time>2022-10-22T11:22:18Z</time>
      </trkpt>
      <trkpt lat="47.17041" lon="-1.63758">
        <ele>82</ele>
        <time>2022-10-22T11:22:20Z</time>
      </trkpt>
      <trkpt lat="47.17053" lon="-1.63768">
        <ele>82</ele>
        <time>2022-10-22T11:22:22Z</time>
      </trkpt>
      <trkpt lat="47.17062" lon="-1.63783">
        <ele>82</ele>
        <time>2022-10-22T11:22:24Z</time>
      </trkpt>
      <trkpt lat="47.17069" lon="-1.63801">
        <ele>81</ele>
        <time>2022-10-22T11:22:26Z</time>
      </trkpt>
      <trkpt lat="47.17075" lon="-1.63819">
        <ele>81</ele>
        <time>2022-10-22T11:22:28Z</time>
      </trkpt>
      <trkpt lat="47.17081" lon="-1.63837">
        <ele>81</ele>
        <time>2022-10-22T11:22:30Z</time>
      </trkpt>
      <trkpt lat="47.17088" lon="-1.63855">
        <ele>81</ele>
        <time>2022-10-22T11:22:32Z</time>
      </trkpt>
      <trkpt lat="47.17094" lon="-1.63873">
        <ele>81</ele>
        <time>2022-10-22T11:22:34Z</time>
      </trkpt>
      <trkpt lat="47.171" lon="-1.6389">
        <ele>80</ele>
        <time>2022-10-22T11:22:36Z</time>
      </trkpt>
      <trkpt lat="47.17106" lon="-1.63907">
        <ele>80</ele>
        <time>2022-10-22T11:22:38Z</time>
      </trkpt>
      <trkpt lat="47.17112" lon="-1.63924">
        <ele>80</ele>
        <time>2022-10-22T11:22:40Z</time>
      </trkpt>
      <trkpt lat="47.17119" lon="-1.63937">
        <ele>79</ele>
        <time>2022-10-22T11:22:42Z</time>
      </trkpt>
      <trkpt lat="47.1713" lon="-1.63944">
        <ele>79</ele>
        <time>2022-10-22T11:22:45Z</time>
      </trkpt>
      <trkpt lat="47.17136" lon="-1.63958">
        <ele>79</ele>
        <time>2022-10-22T11:22:48Z</time>
      </trkpt>
      <trkpt lat="47.17136" lon="-1.63973">
        <ele>78</ele>
        <time>2022-10-22T11:22:50Z</time>
      </trkpt>
      <trkpt lat="47.17136" lon="-1.6399">
        <ele>78</ele>
        <time>2022-10-22T11:22:52Z</time>
      </trkpt>
      <trkpt lat="47.17134" lon="-1.64007">
        <ele>78</ele>
        <time>2022-10-22T11:22:54Z</time>
      </trkpt>
      <trkpt lat="47.17132" lon="-1.64025">
        <ele>78</ele>
        <time>2022-10-22T11:22:56Z</time>
      </trkpt>
      <trkpt lat="47.1713" lon="-1.64044">
        <ele>78</ele>
        <time>2022-10-22T11:22:58Z</time>
      </trkpt>
      <trkpt lat="47.17128" lon="-1.64062">
        <ele>78</ele>
        <time>2022-10-22T11:23:00Z</time>
      </trkpt>
      <trkpt lat="47.17127" lon="-1.64081">
        <ele>78</ele>
        <time>2022-10-22T11:23:02Z</time>
      </trkpt>
      <trkpt lat="47.17125" lon="-1.64101">
        <ele>78</ele>
        <time>2022-10-22T11:23:04Z</time>
      </trkpt>
      <trkpt lat="47.17123" lon="-1.6412">
        <ele>77</ele>
        <time>2022-10-22T11:23:06Z</time>
      </trkpt>
      <trkpt lat="47.1712" lon="-1.64139">
        <ele>77</ele>
        <time>2022-10-22T11:23:08Z</time>
      </trkpt>
      <trkpt lat="47.17119" lon="-1.64158">
        <ele>77</ele>
        <time>2022-10-22T11:23:10Z</time>
      </trkpt>
      <trkpt lat="47.17117" lon="-1.64178">
        <ele>77</ele>
        <time>2022-10-22T11:23:12Z</time>
      </trkpt>
      <trkpt lat="47.17115" lon="-1.64196">
        <ele>76</ele>
        <time>2022-10-22T11:23:14Z</time>
      </trkpt>
      <trkpt lat="47.17112" lon="-1.64215">
        <ele>76</ele>
        <time>2022-10-22T11:23:16Z</time>
      </trkpt>
      <trkpt lat="47.1711" lon="-1.64235">
        <ele>77</ele>
        <time>2022-10-22T11:23:18Z</time>
      </trkpt>
      <trkpt lat="47.17108" lon="-1.64253">
        <ele>77</ele>
        <time>2022-10-22T11:23:20Z</time>
      </trkpt>
      <trkpt lat="47.17106" lon="-1.64272">
        <ele>77</ele>
        <time>2022-10-22T11:23:22Z</time>
      </trkpt>
      <trkpt lat="47.17104" lon="-1.64292">
        <ele>77</ele>
        <time>2022-10-22T11:23:24Z</time>
      </trkpt>
      <trkpt lat="47.17102" lon="-1.64312">
        <ele>77</ele>
        <time>2022-10-22T11:23:26Z</time>
      </trkpt>
      <trkpt lat="47.171" lon="-1.64331">
        <ele>78</ele>
        <time>2022-10-22T11:23:28Z</time>
      </trkpt>
      <trkpt lat="47.17098" lon="-1.6435">
        <ele>78</ele>
        <time>2022-10-22T11:23:30Z</time>
      </trkpt>
      <trkpt lat="47.17097" lon="-1.6437">
        <ele>78</ele>
        <time>2022-10-22T11:23:32Z</time>
      </trkpt>
      <trkpt lat="47.17095" lon="-1.64389">
        <ele>78</ele>
        <time>2022-10-22T11:23:34Z</time>
      </trkpt>
      <trkpt lat="47.17093" lon="-1.64409">
        <ele>79</ele>
        <time>2022-10-22T11:23:36Z</time>
      </trkpt>
      <trkpt lat="47.17091" lon="-1.64429">
        <ele>79</ele>
        <time>2022-10-22T11:23:38Z</time>
      </trkpt>
      <trkpt lat="47.17089" lon="-1.64449">
        <ele>79</ele>
        <time>2022-10-22T11:23:40Z</time>
      </trkpt>
      <trkpt lat="47.17088" lon="-1.64469">
        <ele>79</ele>
        <time>2022-10-22T11:23:42Z</time>
      </trkpt>
      <trkpt lat="47.17088" lon="-1.64489">
        <ele>79</ele>
        <time>2022-10-22T11:23:44Z</time>
      </trkpt>
      <trkpt lat="47.17087" lon="-1.6451">
        <ele>78</ele>
        <time>2022-10-22T11:23:46Z</time>
      </trkpt>
      <trkpt lat="47.17086" lon="-1.6453">
        <ele>78</ele>
        <time>2022-10-22T11:23:48Z</time>
      </trkpt>
      <trkpt lat="47.17086" lon="-1.64551">
        <ele>78</ele>
        <time>2022-10-22T11:23:50Z</time>
      </trkpt>
      <trkpt lat="47.17086" lon="-1.64572">
        <ele>77</ele>
        <time>2022-10-22T11:23:52Z</time>
      </trkpt>
      <trkpt lat="47.17085" lon="-1.64593">
        <ele>77</ele>
        <time>2022-10-22T11:23:54Z</time>
      </trkpt>
      <trkpt lat="47.17085" lon="-1.64614">
        <ele>77</ele>
        <time>2022-10-22T11:23:56Z</time>
      </trkpt>
      <trkpt lat="47.17085" lon="-1.64634">
        <ele>77</ele>
        <time>2022-10-22T11:23:58Z</time>
      </trkpt>
      <trkpt lat="47.17085" lon="-1.64654">
        <ele>76</ele>
        <time>2022-10-22T11:24:00Z</time>
      </trkpt>
      <trkpt lat="47.17085" lon="-1.64674">
        <ele>76</ele>
        <time>2022-10-22T11:24:02Z</time>
      </trkpt>
      <trkpt lat="47.17086" lon="-1.64694">
        <ele>76</ele>
        <time>2022-10-22T11:24:04Z</time>
      </trkpt>
      <trkpt lat="47.17086" lon="-1.64714">
        <ele>77</ele>
        <time>2022-10-22T11:24:06Z</time>
      </trkpt>
      <trkpt lat="47.17086" lon="-1.64734">
        <ele>77</ele>
        <time>2022-10-22T11:24:08Z</time>
      </trkpt>
      <trkpt lat="47.17086" lon="-1.64754">
        <ele>77</ele>
        <time>2022-10-22T11:24:10Z</time>
      </trkpt>
      <trkpt lat="47.17087" lon="-1.64774">
        <ele>77</ele>
        <time>2022-10-22T11:24:12Z</time>
      </trkpt>
      <trkpt lat="47.17089" lon="-1.64794">
        <ele>77</ele>
        <time>2022-10-22T11:24:14Z</time>
      </trkpt>
      <trkpt lat="47.17091" lon="-1.64814">
        <ele>77</ele>
        <time>2022-10-22T11:24:16Z</time>
      </trkpt>
      <trkpt lat="47.17092" lon="-1.64834">
        <ele>77</ele>
        <time>2022-10-22T11:24:18Z</time>
      </trkpt>
      <trkpt lat="47.17094" lon="-1.64854">
        <ele>76</ele>
        <time>2022-10-22T11:24:20Z</time>
      </trkpt>
      <trkpt lat="47.17096" lon="-1.64875">
        <ele>75</ele>
        <time>2022-10-22T11:24:22Z</time>
      </trkpt>
      <trkpt lat="47.17098" lon="-1.64896">
        <ele>75</ele>
        <time>2022-10-22T11:24:24Z</time>
      </trkpt>
      <trkpt lat="47.17099" lon="-1.64917">
        <ele>76</ele>
        <time>2022-10-22T11:24:26Z</time>
      </trkpt>
      <trkpt lat="47.17101" lon="-1.64937">
        <ele>76</ele>
        <time>2022-10-22T11:24:28Z</time>
      </trkpt>
      <trkpt lat="47.17103" lon="-1.64957">
        <ele>76</ele>
        <time>2022-10-22T11:24:30Z</time>
      </trkpt>
      <trkpt lat="47.17104" lon="-1.64977">
        <ele>76</ele>
        <time>2022-10-22T11:24:32Z</time>
      </trkpt>
      <trkpt lat="47.17106" lon="-1.64997">
        <ele>76</ele>
        <time>2022-10-22T11:24:34Z</time>
      </trkpt>
      <trkpt lat="47.17107" lon="-1.65017">
        <ele>76</ele>
        <time>2022-10-22T11:24:36Z</time>
      </trkpt>
      <trkpt lat="47.17108" lon="-1.65035">
        <ele>76</ele>
        <time>2022-10-22T11:24:38Z</time>
      </trkpt>
      <trkpt lat="47.17109" lon="-1.65055">
        <ele>76</ele>
        <time>2022-10-22T11:24:40Z</time>
      </trkpt>
      <trkpt lat="47.17111" lon="-1.65075">
        <ele>76</ele>
        <time>2022-10-22T11:24:42Z</time>
      </trkpt>
      <trkpt lat="47.17112" lon="-1.65094">
        <ele>76</ele>
        <time>2022-10-22T11:24:44Z</time>
      </trkpt>
      <trkpt lat="47.17114" lon="-1.65115">
        <ele>76</ele>
        <time>2022-10-22T11:24:46Z</time>
      </trkpt>
      <trkpt lat="47.17115" lon="-1.65134">
        <ele>76</ele>
        <time>2022-10-22T11:24:48Z</time>
      </trkpt>
      <trkpt lat="47.17116" lon="-1.65154">
        <ele>76</ele>
        <time>2022-10-22T11:24:50Z</time>
      </trkpt>
      <trkpt lat="47.17118" lon="-1.65173">
        <ele>76</ele>
        <time>2022-10-22T11:24:52Z</time>
      </trkpt>
      <trkpt lat="47.1712" lon="-1.65192">
        <ele>76</ele>
        <time>2022-10-22T11:24:54Z</time>
      </trkpt>
      <trkpt lat="47.17121" lon="-1.6521">
        <ele>76</ele>
        <time>2022-10-22T11:24:56Z</time>
      </trkpt>
      <trkpt lat="47.17123" lon="-1.65227">
        <ele>77</ele>
        <time>2022-10-22T11:24:58Z</time>
      </trkpt>
      <trkpt lat="47.17123" lon="-1.65244">
        <ele>76</ele>
        <time>2022-10-22T11:25:00Z</time>
      </trkpt>
      <trkpt lat="47.17125" lon="-1.65261">
        <ele>76</ele>
        <time>2022-10-22T11:25:02Z</time>
      </trkpt>
      <trkpt lat="47.1713" lon="-1.65276">
        <ele>76</ele>
        <time>2022-10-22T11:25:04Z</time>
      </trkpt>
      <trkpt lat="47.17135" lon="-1.65293">
        <ele>76</ele>
        <time>2022-10-22T11:25:06Z</time>
      </trkpt>
      <trkpt lat="47.17134" lon="-1.65318">
        <ele>77</ele>
        <time>2022-10-22T11:25:09Z</time>
      </trkpt>
      <trkpt lat="47.17127" lon="-1.65334">
        <ele>77</ele>
        <time>2022-10-22T11:25:11Z</time>
      </trkpt>
      <trkpt lat="47.17115" lon="-1.65356">
        <ele>77</ele>
        <time>2022-10-22T11:25:14Z</time>
      </trkpt>
      <trkpt lat="47.17117" lon="-1.65375">
        <ele>77</ele>
        <time>2022-10-22T11:25:16Z</time>
      </trkpt>
      <trkpt lat="47.17117" lon="-1.65394">
        <ele>78</ele>
        <time>2022-10-22T11:25:18Z</time>
      </trkpt>
      <trkpt lat="47.17117" lon="-1.65412">
        <ele>79</ele>
        <time>2022-10-22T11:25:20Z</time>
      </trkpt>
      <trkpt lat="47.17118" lon="-1.65438">
        <ele>79</ele>
        <time>2022-10-22T11:25:23Z</time>
      </trkpt>
      <trkpt lat="47.17117" lon="-1.65462">
        <ele>80</ele>
        <time>2022-10-22T11:25:26Z</time>
      </trkpt>
      <trkpt lat="47.17114" lon="-1.65478">
        <ele>81</ele>
        <time>2022-10-22T11:25:28Z</time>
      </trkpt>
      <trkpt lat="47.17112" lon="-1.65493">
        <ele>82</ele>
        <time>2022-10-22T11:25:30Z</time>
      </trkpt>
      <trkpt lat="47.17108" lon="-1.65508">
        <ele>82</ele>
        <time>2022-10-22T11:25:32Z</time>
      </trkpt>
      <trkpt lat="47.17103" lon="-1.65522">
        <ele>82</ele>
        <time>2022-10-22T11:25:34Z</time>
      </trkpt>
      <trkpt lat="47.17097" lon="-1.65536">
        <ele>83</ele>
        <time>2022-10-22T11:25:36Z</time>
      </trkpt>
      <trkpt lat="47.1709" lon="-1.65549">
        <ele>83</ele>
        <time>2022-10-22T11:25:38Z</time>
      </trkpt>
      <trkpt lat="47.17082" lon="-1.65563">
        <ele>84</ele>
        <time>2022-10-22T11:25:40Z</time>
      </trkpt>
      <trkpt lat="47.17075" lon="-1.65576">
        <ele>84</ele>
        <time>2022-10-22T11:25:42Z</time>
      </trkpt>
      <trkpt lat="47.17068" lon="-1.6559">
        <ele>84</ele>
        <time>2022-10-22T11:25:44Z</time>
      </trkpt>
      <trkpt lat="47.1706" lon="-1.65604">
        <ele>83</ele>
        <time>2022-10-22T11:25:46Z</time>
      </trkpt>
      <trkpt lat="47.17053" lon="-1.65617">
        <ele>84</ele>
        <time>2022-10-22T11:25:48Z</time>
      </trkpt>
      <trkpt lat="47.17045" lon="-1.65632">
        <ele>84</ele>
        <time>2022-10-22T11:25:50Z</time>
      </trkpt>
      <trkpt lat="47.17036" lon="-1.65648">
        <ele>83</ele>
        <time>2022-10-22T11:25:52Z</time>
      </trkpt>
      <trkpt lat="47.17027" lon="-1.65666">
        <ele>83</ele>
        <time>2022-10-22T11:25:54Z</time>
      </trkpt>
      <trkpt lat="47.17018" lon="-1.65682">
        <ele>82</ele>
        <time>2022-10-22T11:25:56Z</time>
      </trkpt>
      <trkpt lat="47.17011" lon="-1.657">
        <ele>82</ele>
        <time>2022-10-22T11:25:58Z</time>
      </trkpt>
      <trkpt lat="47.17005" lon="-1.65718">
        <ele>82</ele>
        <time>2022-10-22T11:26:00Z</time>
      </trkpt>
      <trkpt lat="47.17002" lon="-1.65737">
        <ele>82</ele>
        <time>2022-10-22T11:26:02Z</time>
      </trkpt>
      <trkpt lat="47.16996" lon="-1.65756">
        <ele>81</ele>
        <time>2022-10-22T11:26:04Z</time>
      </trkpt>
      <trkpt lat="47.16986" lon="-1.65768">
        <ele>81</ele>
        <time>2022-10-22T11:26:06Z</time>
      </trkpt>
      <trkpt lat="47.16972" lon="-1.65776">
        <ele>81</ele>
        <time>2022-10-22T11:26:08Z</time>
      </trkpt>
      <trkpt lat="47.1696" lon="-1.65786">
        <ele>80</ele>
        <time>2022-10-22T11:26:10Z</time>
      </trkpt>
      <trkpt lat="47.1695" lon="-1.65802">
        <ele>80</ele>
        <time>2022-10-22T11:26:12Z</time>
      </trkpt>
      <trkpt lat="47.16942" lon="-1.65819">
        <ele>80</ele>
        <time>2022-10-22T11:26:14Z</time>
      </trkpt>
      <trkpt lat="47.16934" lon="-1.65837">
        <ele>80</ele>
        <time>2022-10-22T11:26:16Z</time>
      </trkpt>
      <trkpt lat="47.16926" lon="-1.65853">
        <ele>80</ele>
        <time>2022-10-22T11:26:18Z</time>
      </trkpt>
      <trkpt lat="47.16917" lon="-1.65871">
        <ele>80</ele>
        <time>2022-10-22T11:26:20Z</time>
      </trkpt>
      <trkpt lat="47.16909" lon="-1.65888">
        <ele>80</ele>
        <time>2022-10-22T11:26:22Z</time>
      </trkpt>
      <trkpt lat="47.169" lon="-1.65905">
        <ele>80</ele>
        <time>2022-10-22T11:26:24Z</time>
      </trkpt>
      <trkpt lat="47.16892" lon="-1.65922">
        <ele>79</ele>
        <time>2022-10-22T11:26:26Z</time>
      </trkpt>
      <trkpt lat="47.16884" lon="-1.6594">
        <ele>79</ele>
        <time>2022-10-22T11:26:28Z</time>
      </trkpt>
      <trkpt lat="47.16876" lon="-1.65958">
        <ele>79</ele>
        <time>2022-10-22T11:26:30Z</time>
      </trkpt>
      <trkpt lat="47.1687" lon="-1.65977">
        <ele>79</ele>
        <time>2022-10-22T11:26:32Z</time>
      </trkpt>
      <trkpt lat="47.16863" lon="-1.65996">
        <ele>78</ele>
        <time>2022-10-22T11:26:34Z</time>
      </trkpt>
      <trkpt lat="47.16858" lon="-1.66016">
        <ele>78</ele>
        <time>2022-10-22T11:26:36Z</time>
      </trkpt>
      <trkpt lat="47.16853" lon="-1.66035">
        <ele>78</ele>
        <time>2022-10-22T11:26:38Z</time>
      </trkpt>
      <trkpt lat="47.1685" lon="-1.66055">
        <ele>78</ele>
        <time>2022-10-22T11:26:40Z</time>
      </trkpt>
      <trkpt lat="47.16847" lon="-1.66074">
        <ele>78</ele>
        <time>2022-10-22T11:26:42Z</time>
      </trkpt>
      <trkpt lat="47.16845" lon="-1.66094">
        <ele>79</ele>
        <time>2022-10-22T11:26:44Z</time>
      </trkpt>
      <trkpt lat="47.16844" lon="-1.66115">
        <ele>79</ele>
        <time>2022-10-22T11:26:46Z</time>
      </trkpt>
      <trkpt lat="47.16844" lon="-1.66135">
        <ele>79</ele>
        <time>2022-10-22T11:26:48Z</time>
      </trkpt>
      <trkpt lat="47.16844" lon="-1.66155">
        <ele>79</ele>
        <time>2022-10-22T11:26:50Z</time>
      </trkpt>
      <trkpt lat="47.16845" lon="-1.66175">
        <ele>79</ele>
        <time>2022-10-22T11:26:52Z</time>
      </trkpt>
      <trkpt lat="47.16846" lon="-1.66196">
        <ele>78</ele>
        <time>2022-10-22T11:26:54Z</time>
      </trkpt>
      <trkpt lat="47.16847" lon="-1.66216">
        <ele>78</ele>
        <time>2022-10-22T11:26:56Z</time>
      </trkpt>
      <trkpt lat="47.16848" lon="-1.66235">
        <ele>78</ele>
        <time>2022-10-22T11:26:58Z</time>
      </trkpt>
      <trkpt lat="47.16849" lon="-1.66254">
        <ele>78</ele>
        <time>2022-10-22T11:27:00Z</time>
      </trkpt>
      <trkpt lat="47.1685" lon="-1.66273">
        <ele>79</ele>
        <time>2022-10-22T11:27:02Z</time>
      </trkpt>
      <trkpt lat="47.16851" lon="-1.66292">
        <ele>79</ele>
        <time>2022-10-22T11:27:04Z</time>
      </trkpt>
      <trkpt lat="47.16853" lon="-1.66311">
        <ele>79</ele>
        <time>2022-10-22T11:27:06Z</time>
      </trkpt>
      <trkpt lat="47.16855" lon="-1.66331">
        <ele>80</ele>
        <time>2022-10-22T11:27:08Z</time>
      </trkpt>
      <trkpt lat="47.16857" lon="-1.66349">
        <ele>80</ele>
        <time>2022-10-22T11:27:10Z</time>
      </trkpt>
      <trkpt lat="47.16859" lon="-1.66368">
        <ele>80</ele>
        <time>2022-10-22T11:27:12Z</time>
      </trkpt>
      <trkpt lat="47.16861" lon="-1.66388">
        <ele>80</ele>
        <time>2022-10-22T11:27:14Z</time>
      </trkpt>
      <trkpt lat="47.16864" lon="-1.66408">
        <ele>79</ele>
        <time>2022-10-22T11:27:16Z</time>
      </trkpt>
      <trkpt lat="47.16866" lon="-1.66427">
        <ele>79</ele>
        <time>2022-10-22T11:27:18Z</time>
      </trkpt>
      <trkpt lat="47.16867" lon="-1.66446">
        <ele>79</ele>
        <time>2022-10-22T11:27:20Z</time>
      </trkpt>
      <trkpt lat="47.16869" lon="-1.66465">
        <ele>79</ele>
        <time>2022-10-22T11:27:22Z</time>
      </trkpt>
      <trkpt lat="47.16872" lon="-1.66484">
        <ele>79</ele>
        <time>2022-10-22T11:27:24Z</time>
      </trkpt>
      <trkpt lat="47.16873" lon="-1.66502">
        <ele>79</ele>
        <time>2022-10-22T11:27:26Z</time>
      </trkpt>
      <trkpt lat="47.16874" lon="-1.66521">
        <ele>79</ele>
        <time>2022-10-22T11:27:28Z</time>
      </trkpt>
      <trkpt lat="47.16877" lon="-1.66542">
        <ele>79</ele>
        <time>2022-10-22T11:27:30Z</time>
      </trkpt>
      <trkpt lat="47.1688" lon="-1.66562">
        <ele>80</ele>
        <time>2022-10-22T11:27:32Z</time>
      </trkpt>
      <trkpt lat="47.16882" lon="-1.66582">
        <ele>80</ele>
        <time>2022-10-22T11:27:34Z</time>
      </trkpt>
      <trkpt lat="47.16884" lon="-1.66601">
        <ele>80</ele>
        <time>2022-10-22T11:27:36Z</time>
      </trkpt>
      <trkpt lat="47.16886" lon="-1.66621">
        <ele>81</ele>
        <time>2022-10-22T11:27:38Z</time>
      </trkpt>
      <trkpt lat="47.16888" lon="-1.66641">
        <ele>81</ele>
        <time>2022-10-22T11:27:40Z</time>
      </trkpt>
      <trkpt lat="47.16889" lon="-1.6666">
        <ele>81</ele>
        <time>2022-10-22T11:27:42Z</time>
      </trkpt>
      <trkpt lat="47.16888" lon="-1.6668">
        <ele>81</ele>
        <time>2022-10-22T11:27:44Z</time>
      </trkpt>
      <trkpt lat="47.16885" lon="-1.66699">
        <ele>81</ele>
        <time>2022-10-22T11:27:46Z</time>
      </trkpt>
      <trkpt lat="47.1688" lon="-1.66718">
        <ele>81</ele>
        <time>2022-10-22T11:27:48Z</time>
      </trkpt>
      <trkpt lat="47.16875" lon="-1.66736">
        <ele>80</ele>
        <time>2022-10-22T11:27:50Z</time>
      </trkpt>
      <trkpt lat="47.16866" lon="-1.66752">
        <ele>80</ele>
        <time>2022-10-22T11:27:52Z</time>
      </trkpt>
      <trkpt lat="47.16858" lon="-1.66768">
        <ele>80</ele>
        <time>2022-10-22T11:27:54Z</time>
      </trkpt>
      <trkpt lat="47.1685" lon="-1.66785">
        <ele>80</ele>
        <time>2022-10-22T11:27:56Z</time>
      </trkpt>
      <trkpt lat="47.16841" lon="-1.668">
        <ele>80</ele>
        <time>2022-10-22T11:27:58Z</time>
      </trkpt>
      <trkpt lat="47.16833" lon="-1.66818">
        <ele>80</ele>
        <time>2022-10-22T11:28:00Z</time>
      </trkpt>
      <trkpt lat="47.16825" lon="-1.66834">
        <ele>80</ele>
        <time>2022-10-22T11:28:02Z</time>
      </trkpt>
      <trkpt lat="47.16817" lon="-1.6685">
        <ele>80</ele>
        <time>2022-10-22T11:28:04Z</time>
      </trkpt>
      <trkpt lat="47.16808" lon="-1.66866">
        <ele>80</ele>
        <time>2022-10-22T11:28:06Z</time>
      </trkpt>
      <trkpt lat="47.16798" lon="-1.6688">
        <ele>80</ele>
        <time>2022-10-22T11:28:08Z</time>
      </trkpt>
      <trkpt lat="47.16788" lon="-1.66892">
        <ele>80</ele>
        <time>2022-10-22T11:28:10Z</time>
      </trkpt>
      <trkpt lat="47.16777" lon="-1.66899">
        <ele>81</ele>
        <time>2022-10-22T11:28:12Z</time>
      </trkpt>
      <trkpt lat="47.16765" lon="-1.66906">
        <ele>81</ele>
        <time>2022-10-22T11:28:14Z</time>
      </trkpt>
      <trkpt lat="47.16753" lon="-1.66911">
        <ele>81</ele>
        <time>2022-10-22T11:28:16Z</time>
      </trkpt>
      <trkpt lat="47.16742" lon="-1.66914">
        <ele>82</ele>
        <time>2022-10-22T11:28:18Z</time>
      </trkpt>
      <trkpt lat="47.16732" lon="-1.66919">
        <ele>81</ele>
        <time>2022-10-22T11:28:20Z</time>
      </trkpt>
      <trkpt lat="47.16719" lon="-1.66922">
        <ele>82</ele>
        <time>2022-10-22T11:28:22Z</time>
      </trkpt>
      <trkpt lat="47.16705" lon="-1.66925">
        <ele>82</ele>
        <time>2022-10-22T11:28:24Z</time>
      </trkpt>
      <trkpt lat="47.16691" lon="-1.66931">
        <ele>81</ele>
        <time>2022-10-22T11:28:26Z</time>
      </trkpt>
      <trkpt lat="47.16678" lon="-1.66942">
        <ele>81</ele>
        <time>2022-10-22T11:28:28Z</time>
      </trkpt>
      <trkpt lat="47.16667" lon="-1.66956">
        <ele>80</ele>
        <time>2022-10-22T11:28:30Z</time>
      </trkpt>
      <trkpt lat="47.16659" lon="-1.66974">
        <ele>81</ele>
        <time>2022-10-22T11:28:32Z</time>
      </trkpt>
      <trkpt lat="47.16655" lon="-1.66994">
        <ele>82</ele>
        <time>2022-10-22T11:28:34Z</time>
      </trkpt>
      <trkpt lat="47.16652" lon="-1.67014">
        <ele>82</ele>
        <time>2022-10-22T11:28:36Z</time>
      </trkpt>
      <trkpt lat="47.16649" lon="-1.67034">
        <ele>81</ele>
        <time>2022-10-22T11:28:38Z</time>
      </trkpt>
      <trkpt lat="47.16645" lon="-1.67054">
        <ele>80</ele>
        <time>2022-10-22T11:28:40Z</time>
      </trkpt>
      <trkpt lat="47.16642" lon="-1.67074">
        <ele>80</ele>
        <time>2022-10-22T11:28:42Z</time>
      </trkpt>
      <trkpt lat="47.16639" lon="-1.67094">
        <ele>80</ele>
        <time>2022-10-22T11:28:44Z</time>
      </trkpt>
      <trkpt lat="47.16636" lon="-1.67113">
        <ele>80</ele>
        <time>2022-10-22T11:28:46Z</time>
      </trkpt>
      <trkpt lat="47.16632" lon="-1.67133">
        <ele>79</ele>
        <time>2022-10-22T11:28:48Z</time>
      </trkpt>
      <trkpt lat="47.16628" lon="-1.67151">
        <ele>79</ele>
        <time>2022-10-22T11:28:50Z</time>
      </trkpt>
      <trkpt lat="47.16625" lon="-1.67169">
        <ele>79</ele>
        <time>2022-10-22T11:28:52Z</time>
      </trkpt>
      <trkpt lat="47.16621" lon="-1.67188">
        <ele>78</ele>
        <time>2022-10-22T11:28:54Z</time>
      </trkpt>
      <trkpt lat="47.16618" lon="-1.67206">
        <ele>78</ele>
        <time>2022-10-22T11:28:56Z</time>
      </trkpt>
      <trkpt lat="47.16614" lon="-1.67223">
        <ele>78</ele>
        <time>2022-10-22T11:28:58Z</time>
      </trkpt>
      <trkpt lat="47.16611" lon="-1.6724">
        <ele>78</ele>
        <time>2022-10-22T11:29:00Z</time>
      </trkpt>
      <trkpt lat="47.16609" lon="-1.67253">
        <ele>78</ele>
        <time>2022-10-22T11:29:02Z</time>
      </trkpt>
      <trkpt lat="47.16602" lon="-1.67273">
        <ele>79</ele>
        <time>2022-10-22T11:29:05Z</time>
      </trkpt>
      <trkpt lat="47.16596" lon="-1.67288">
        <ele>79</ele>
        <time>2022-10-22T11:29:07Z</time>
      </trkpt>
      <trkpt lat="47.16589" lon="-1.67304">
        <ele>79</ele>
        <time>2022-10-22T11:29:09Z</time>
      </trkpt>
      <trkpt lat="47.16582" lon="-1.6732">
        <ele>79</ele>
        <time>2022-10-22T11:29:11Z</time>
      </trkpt>
      <trkpt lat="47.16575" lon="-1.67335">
        <ele>79</ele>
        <time>2022-10-22T11:29:13Z</time>
      </trkpt>
      <trkpt lat="47.16567" lon="-1.67352">
        <ele>79</ele>
        <time>2022-10-22T11:29:15Z</time>
      </trkpt>
      <trkpt lat="47.16558" lon="-1.67368">
        <ele>79</ele>
        <time>2022-10-22T11:29:17Z</time>
      </trkpt>
      <trkpt lat="47.16548" lon="-1.67382">
        <ele>79</ele>
        <time>2022-10-22T11:29:19Z</time>
      </trkpt>
      <trkpt lat="47.16539" lon="-1.67396">
        <ele>79</ele>
        <time>2022-10-22T11:29:21Z</time>
      </trkpt>
      <trkpt lat="47.16529" lon="-1.67409">
        <ele>79</ele>
        <time>2022-10-22T11:29:23Z</time>
      </trkpt>
      <trkpt lat="47.16521" lon="-1.67423">
        <ele>79</ele>
        <time>2022-10-22T11:29:25Z</time>
      </trkpt>
      <trkpt lat="47.16512" lon="-1.67436">
        <ele>79</ele>
        <time>2022-10-22T11:29:27Z</time>
      </trkpt>
      <trkpt lat="47.16504" lon="-1.67451">
        <ele>79</ele>
        <time>2022-10-22T11:29:29Z</time>
      </trkpt>
      <trkpt lat="47.16496" lon="-1.67466">
        <ele>78</ele>
        <time>2022-10-22T11:29:31Z</time>
      </trkpt>
      <trkpt lat="47.16487" lon="-1.6748">
        <ele>78</ele>
        <time>2022-10-22T11:29:33Z</time>
      </trkpt>
      <trkpt lat="47.16478" lon="-1.67496">
        <ele>78</ele>
        <time>2022-10-22T11:29:35Z</time>
      </trkpt>
      <trkpt lat="47.1647" lon="-1.67511">
        <ele>79</ele>
        <time>2022-10-22T11:29:37Z</time>
      </trkpt>
      <trkpt lat="47.16462" lon="-1.67525">
        <ele>79</ele>
        <time>2022-10-22T11:29:39Z</time>
      </trkpt>
      <trkpt lat="47.16454" lon="-1.6754">
        <ele>79</ele>
        <time>2022-10-22T11:29:41Z</time>
      </trkpt>
      <trkpt lat="47.16446" lon="-1.67554">
        <ele>79</ele>
        <time>2022-10-22T11:29:43Z</time>
      </trkpt>
      <trkpt lat="47.16438" lon="-1.67568">
        <ele>80</ele>
        <time>2022-10-22T11:29:45Z</time>
      </trkpt>
      <trkpt lat="47.16431" lon="-1.67583">
        <ele>79</ele>
        <time>2022-10-22T11:29:47Z</time>
      </trkpt>
      <trkpt lat="47.16423" lon="-1.67599">
        <ele>80</ele>
        <time>2022-10-22T11:29:49Z</time>
      </trkpt>
      <trkpt lat="47.16416" lon="-1.67615">
        <ele>80</ele>
        <time>2022-10-22T11:29:51Z</time>
      </trkpt>
      <trkpt lat="47.16408" lon="-1.67631">
        <ele>80</ele>
        <time>2022-10-22T11:29:53Z</time>
      </trkpt>
      <trkpt lat="47.16401" lon="-1.67647">
        <ele>80</ele>
        <time>2022-10-22T11:29:55Z</time>
      </trkpt>
      <trkpt lat="47.16392" lon="-1.67664">
        <ele>79</ele>
        <time>2022-10-22T11:29:57Z</time>
      </trkpt>
      <trkpt lat="47.16385" lon="-1.6768">
        <ele>79</ele>
        <time>2022-10-22T11:29:59Z</time>
      </trkpt>
      <trkpt lat="47.16377" lon="-1.67695">
        <ele>79</ele>
        <time>2022-10-22T11:30:01Z</time>
      </trkpt>
      <trkpt lat="47.16368" lon="-1.6771">
        <ele>79</ele>
        <time>2022-10-22T11:30:03Z</time>
      </trkpt>
      <trkpt lat="47.16359" lon="-1.67726">
        <ele>79</ele>
        <time>2022-10-22T11:30:05Z</time>
      </trkpt>
      <trkpt lat="47.16351" lon="-1.67741">
        <ele>78</ele>
        <time>2022-10-22T11:30:07Z</time>
      </trkpt>
      <trkpt lat="47.16343" lon="-1.67755">
        <ele>78</ele>
        <time>2022-10-22T11:30:09Z</time>
      </trkpt>
      <trkpt lat="47.16334" lon="-1.6777">
        <ele>78</ele>
        <time>2022-10-22T11:30:11Z</time>
      </trkpt>
      <trkpt lat="47.16326" lon="-1.67785">
        <ele>78</ele>
        <time>2022-10-22T11:30:13Z</time>
      </trkpt>
      <trkpt lat="47.16318" lon="-1.678">
        <ele>78</ele>
        <time>2022-10-22T11:30:15Z</time>
      </trkpt>
      <trkpt lat="47.1631" lon="-1.67814">
        <ele>78</ele>
        <time>2022-10-22T11:30:17Z</time>
      </trkpt>
      <trkpt lat="47.16301" lon="-1.67829">
        <ele>79</ele>
        <time>2022-10-22T11:30:19Z</time>
      </trkpt>
      <trkpt lat="47.16294" lon="-1.67843">
        <ele>79</ele>
        <time>2022-10-22T11:30:21Z</time>
      </trkpt>
      <trkpt lat="47.16285" lon="-1.67858">
        <ele>78</ele>
        <time>2022-10-22T11:30:23Z</time>
      </trkpt>
      <trkpt lat="47.16277" lon="-1.67873">
        <ele>78</ele>
        <time>2022-10-22T11:30:25Z</time>
      </trkpt>
      <trkpt lat="47.16269" lon="-1.67886">
        <ele>78</ele>
        <time>2022-10-22T11:30:27Z</time>
      </trkpt>
      <trkpt lat="47.16261" lon="-1.679">
        <ele>78</ele>
        <time>2022-10-22T11:30:29Z</time>
      </trkpt>
      <trkpt lat="47.16253" lon="-1.67913">
        <ele>78</ele>
        <time>2022-10-22T11:30:31Z</time>
      </trkpt>
      <trkpt lat="47.16245" lon="-1.67927">
        <ele>78</ele>
        <time>2022-10-22T11:30:33Z</time>
      </trkpt>
      <trkpt lat="47.16236" lon="-1.6794">
        <ele>79</ele>
        <time>2022-10-22T11:30:35Z</time>
      </trkpt>
      <trkpt lat="47.16228" lon="-1.67953">
        <ele>79</ele>
        <time>2022-10-22T11:30:37Z</time>
      </trkpt>
      <trkpt lat="47.16222" lon="-1.67969">
        <ele>78</ele>
        <time>2022-10-22T11:30:39Z</time>
      </trkpt>
      <trkpt lat="47.16217" lon="-1.67986">
        <ele>78</ele>
        <time>2022-10-22T11:30:41Z</time>
      </trkpt>
      <trkpt lat="47.16207" lon="-1.67997">
        <ele>78</ele>
        <time>2022-10-22T11:30:43Z</time>
      </trkpt>
      <trkpt lat="47.16195" lon="-1.68003">
        <ele>77</ele>
        <time>2022-10-22T11:30:45Z</time>
      </trkpt>
      <trkpt lat="47.16186" lon="-1.68017">
        <ele>77</ele>
        <time>2022-10-22T11:30:47Z</time>
      </trkpt>
      <trkpt lat="47.16177" lon="-1.6803">
        <ele>77</ele>
        <time>2022-10-22T11:30:49Z</time>
      </trkpt>
      <trkpt lat="47.16168" lon="-1.68042">
        <ele>77</ele>
        <time>2022-10-22T11:30:51Z</time>
      </trkpt>
      <trkpt lat="47.1616" lon="-1.68053">
        <ele>77</ele>
        <time>2022-10-22T11:30:53Z</time>
      </trkpt>
      <trkpt lat="47.16152" lon="-1.68066">
        <ele>77</ele>
        <time>2022-10-22T11:30:55Z</time>
      </trkpt>
      <trkpt lat="47.16146" lon="-1.6808">
        <ele>77</ele>
        <time>2022-10-22T11:30:57Z</time>
      </trkpt>
      <trkpt lat="47.16141" lon="-1.68097">
        <ele>78</ele>
        <time>2022-10-22T11:30:59Z</time>
      </trkpt>
      <trkpt lat="47.16137" lon="-1.68114">
        <ele>78</ele>
        <time>2022-10-22T11:31:01Z</time>
      </trkpt>
      <trkpt lat="47.16133" lon="-1.68132">
        <ele>78</ele>
        <time>2022-10-22T11:31:03Z</time>
      </trkpt>
      <trkpt lat="47.16129" lon="-1.68149">
        <ele>77</ele>
        <time>2022-10-22T11:31:05Z</time>
      </trkpt>
      <trkpt lat="47.16126" lon="-1.68166">
        <ele>77</ele>
        <time>2022-10-22T11:31:07Z</time>
      </trkpt>
      <trkpt lat="47.16122" lon="-1.68184">
        <ele>77</ele>
        <time>2022-10-22T11:31:09Z</time>
      </trkpt>
      <trkpt lat="47.16118" lon="-1.68202">
        <ele>77</ele>
        <time>2022-10-22T11:31:11Z</time>
      </trkpt>
      <trkpt lat="47.16114" lon="-1.6822">
        <ele>76</ele>
        <time>2022-10-22T11:31:13Z</time>
      </trkpt>
      <trkpt lat="47.1611" lon="-1.68239">
        <ele>76</ele>
        <time>2022-10-22T11:31:15Z</time>
      </trkpt>
      <trkpt lat="47.16105" lon="-1.68258">
        <ele>75</ele>
        <time>2022-10-22T11:31:17Z</time>
      </trkpt>
      <trkpt lat="47.161" lon="-1.68278">
        <ele>75</ele>
        <time>2022-10-22T11:31:19Z</time>
      </trkpt>
      <trkpt lat="47.16097" lon="-1.68299">
        <ele>74</ele>
        <time>2022-10-22T11:31:21Z</time>
      </trkpt>
      <trkpt lat="47.16093" lon="-1.68321">
        <ele>74</ele>
        <time>2022-10-22T11:31:23Z</time>
      </trkpt>
      <trkpt lat="47.16089" lon="-1.68341">
        <ele>74</ele>
        <time>2022-10-22T11:31:25Z</time>
      </trkpt>
      <trkpt lat="47.16085" lon="-1.6836">
        <ele>74</ele>
        <time>2022-10-22T11:31:27Z</time>
      </trkpt>
      <trkpt lat="47.16081" lon="-1.68378">
        <ele>75</ele>
        <time>2022-10-22T11:31:29Z</time>
      </trkpt>
      <trkpt lat="47.16077" lon="-1.68397">
        <ele>75</ele>
        <time>2022-10-22T11:31:31Z</time>
      </trkpt>
      <trkpt lat="47.16073" lon="-1.68416">
        <ele>75</ele>
        <time>2022-10-22T11:31:33Z</time>
      </trkpt>
      <trkpt lat="47.16069" lon="-1.68435">
        <ele>75</ele>
        <time>2022-10-22T11:31:35Z</time>
      </trkpt>
      <trkpt lat="47.16066" lon="-1.68453">
        <ele>75</ele>
        <time>2022-10-22T11:31:37Z</time>
      </trkpt>
      <trkpt lat="47.16063" lon="-1.68473">
        <ele>75</ele>
        <time>2022-10-22T11:31:39Z</time>
      </trkpt>
      <trkpt lat="47.1606" lon="-1.68492">
        <ele>75</ele>
        <time>2022-10-22T11:31:41Z</time>
      </trkpt>
      <trkpt lat="47.16058" lon="-1.6851">
        <ele>75</ele>
        <time>2022-10-22T11:31:43Z</time>
      </trkpt>
      <trkpt lat="47.16055" lon="-1.6853">
        <ele>75</ele>
        <time>2022-10-22T11:31:45Z</time>
      </trkpt>
      <trkpt lat="47.16052" lon="-1.68549">
        <ele>75</ele>
        <time>2022-10-22T11:31:47Z</time>
      </trkpt>
      <trkpt lat="47.16049" lon="-1.68568">
        <ele>75</ele>
        <time>2022-10-22T11:31:49Z</time>
      </trkpt>
      <trkpt lat="47.16047" lon="-1.68586">
        <ele>75</ele>
        <time>2022-10-22T11:31:51Z</time>
      </trkpt>
      <trkpt lat="47.16045" lon="-1.68604">
        <ele>75</ele>
        <time>2022-10-22T11:31:53Z</time>
      </trkpt>
      <trkpt lat="47.16043" lon="-1.68623">
        <ele>75</ele>
        <time>2022-10-22T11:31:55Z</time>
      </trkpt>
      <trkpt lat="47.16042" lon="-1.68642">
        <ele>75</ele>
        <time>2022-10-22T11:31:57Z</time>
      </trkpt>
      <trkpt lat="47.16042" lon="-1.6866">
        <ele>76</ele>
        <time>2022-10-22T11:31:59Z</time>
      </trkpt>
      <trkpt lat="47.16042" lon="-1.68679">
        <ele>76</ele>
        <time>2022-10-22T11:32:01Z</time>
      </trkpt>
      <trkpt lat="47.16043" lon="-1.68697">
        <ele>75</ele>
        <time>2022-10-22T11:32:03Z</time>
      </trkpt>
      <trkpt lat="47.16045" lon="-1.68715">
        <ele>76</ele>
        <time>2022-10-22T11:32:05Z</time>
      </trkpt>
      <trkpt lat="47.16047" lon="-1.68732">
        <ele>76</ele>
        <time>2022-10-22T11:32:07Z</time>
      </trkpt>
      <trkpt lat="47.1605" lon="-1.68749">
        <ele>77</ele>
        <time>2022-10-22T11:32:09Z</time>
      </trkpt>
      <trkpt lat="47.16054" lon="-1.68766">
        <ele>77</ele>
        <time>2022-10-22T11:32:11Z</time>
      </trkpt>
      <trkpt lat="47.16058" lon="-1.68782">
        <ele>78</ele>
        <time>2022-10-22T11:32:13Z</time>
      </trkpt>
      <trkpt lat="47.16063" lon="-1.68798">
        <ele>78</ele>
        <time>2022-10-22T11:32:15Z</time>
      </trkpt>
      <trkpt lat="47.16067" lon="-1.68814">
        <ele>78</ele>
        <time>2022-10-22T11:32:17Z</time>
      </trkpt>
      <trkpt lat="47.16072" lon="-1.6883">
        <ele>78</ele>
        <time>2022-10-22T11:32:19Z</time>
      </trkpt>
      <trkpt lat="47.16077" lon="-1.68847">
        <ele>78</ele>
        <time>2022-10-22T11:32:21Z</time>
      </trkpt>
      <trkpt lat="47.16082" lon="-1.68863">
        <ele>78</ele>
        <time>2022-10-22T11:32:23Z</time>
      </trkpt>
      <trkpt lat="47.16086" lon="-1.6888">
        <ele>78</ele>
        <time>2022-10-22T11:32:25Z</time>
      </trkpt>
      <trkpt lat="47.16091" lon="-1.68897">
        <ele>78</ele>
        <time>2022-10-22T11:32:27Z</time>
      </trkpt>
      <trkpt lat="47.16096" lon="-1.68915">
        <ele>78</ele>
        <time>2022-10-22T11:32:29Z</time>
      </trkpt>
      <trkpt lat="47.16102" lon="-1.68934">
        <ele>78</ele>
        <time>2022-10-22T11:32:31Z</time>
      </trkpt>
      <trkpt lat="47.16108" lon="-1.68953">
        <ele>77</ele>
        <time>2022-10-22T11:32:33Z</time>
      </trkpt>
      <trkpt lat="47.16114" lon="-1.68972">
        <ele>77</ele>
        <time>2022-10-22T11:32:35Z</time>
      </trkpt>
      <trkpt lat="47.1612" lon="-1.68992">
        <ele>77</ele>
        <time>2022-10-22T11:32:37Z</time>
      </trkpt>
      <trkpt lat="47.16126" lon="-1.69014">
        <ele>76</ele>
        <time>2022-10-22T11:32:39Z</time>
      </trkpt>
      <trkpt lat="47.16131" lon="-1.69037">
        <ele>76</ele>
        <time>2022-10-22T11:32:41Z</time>
      </trkpt>
      <trkpt lat="47.16135" lon="-1.6906">
        <ele>76</ele>
        <time>2022-10-22T11:32:43Z</time>
      </trkpt>
      <trkpt lat="47.16138" lon="-1.69083">
        <ele>76</ele>
        <time>2022-10-22T11:32:45Z</time>
      </trkpt>
      <trkpt lat="47.1614" lon="-1.69105">
        <ele>75</ele>
        <time>2022-10-22T11:32:47Z</time>
      </trkpt>
      <trkpt lat="47.16141" lon="-1.69128">
        <ele>75</ele>
        <time>2022-10-22T11:32:49Z</time>
      </trkpt>
      <trkpt lat="47.16142" lon="-1.69149">
        <ele>75</ele>
        <time>2022-10-22T11:32:51Z</time>
      </trkpt>
      <trkpt lat="47.16141" lon="-1.69171">
        <ele>75</ele>
        <time>2022-10-22T11:32:53Z</time>
      </trkpt>
      <trkpt lat="47.16141" lon="-1.69194">
        <ele>74</ele>
        <time>2022-10-22T11:32:55Z</time>
      </trkpt>
      <trkpt lat="47.1614" lon="-1.69216">
        <ele>74</ele>
        <time>2022-10-22T11:32:57Z</time>
      </trkpt>
      <trkpt lat="47.16138" lon="-1.69239">
        <ele>74</ele>
        <time>2022-10-22T11:32:59Z</time>
      </trkpt>
      <trkpt lat="47.16136" lon="-1.6926">
        <ele>74</ele>
        <time>2022-10-22T11:33:01Z</time>
      </trkpt>
      <trkpt lat="47.16134" lon="-1.69281">
        <ele>74</ele>
        <time>2022-10-22T11:33:03Z</time>
      </trkpt>
      <trkpt lat="47.16131" lon="-1.69302">
        <ele>73</ele>
        <time>2022-10-22T11:33:05Z</time>
      </trkpt>
      <trkpt lat="47.16127" lon="-1.69322">
        <ele>73</ele>
        <time>2022-10-22T11:33:07Z</time>
      </trkpt>
      <trkpt lat="47.16125" lon="-1.69342">
        <ele>73</ele>
        <time>2022-10-22T11:33:09Z</time>
      </trkpt>
      <trkpt lat="47.16122" lon="-1.69362">
        <ele>73</ele>
        <time>2022-10-22T11:33:11Z</time>
      </trkpt>
      <trkpt lat="47.16119" lon="-1.69381">
        <ele>73</ele>
        <time>2022-10-22T11:33:13Z</time>
      </trkpt>
      <trkpt lat="47.16117" lon="-1.694">
        <ele>73</ele>
        <time>2022-10-22T11:33:15Z</time>
      </trkpt>
      <trkpt lat="47.16116" lon="-1.69419">
        <ele>73</ele>
        <time>2022-10-22T11:33:17Z</time>
      </trkpt>
      <trkpt lat="47.16115" lon="-1.69438">
        <ele>73</ele>
        <time>2022-10-22T11:33:19Z</time>
      </trkpt>
      <trkpt lat="47.16113" lon="-1.69457">
        <ele>73</ele>
        <time>2022-10-22T11:33:21Z</time>
      </trkpt>
      <trkpt lat="47.16112" lon="-1.69475">
        <ele>74</ele>
        <time>2022-10-22T11:33:23Z</time>
      </trkpt>
      <trkpt lat="47.16111" lon="-1.69493">
        <ele>74</ele>
        <time>2022-10-22T11:33:25Z</time>
      </trkpt>
      <trkpt lat="47.16109" lon="-1.69511">
        <ele>74</ele>
        <time>2022-10-22T11:33:27Z</time>
      </trkpt>
      <trkpt lat="47.16108" lon="-1.69529">
        <ele>75</ele>
        <time>2022-10-22T11:33:29Z</time>
      </trkpt>
      <trkpt lat="47.16106" lon="-1.69547">
        <ele>75</ele>
        <time>2022-10-22T11:33:31Z</time>
      </trkpt>
      <trkpt lat="47.16105" lon="-1.69566">
        <ele>74</ele>
        <time>2022-10-22T11:33:33Z</time>
      </trkpt>
      <trkpt lat="47.16104" lon="-1.69584">
        <ele>74</ele>
        <time>2022-10-22T11:33:35Z</time>
      </trkpt>
      <trkpt lat="47.16102" lon="-1.69602">
        <ele>74</ele>
        <time>2022-10-22T11:33:37Z</time>
      </trkpt>
      <trkpt lat="47.16101" lon="-1.69619">
        <ele>75</ele>
        <time>2022-10-22T11:33:39Z</time>
      </trkpt>
      <trkpt lat="47.16099" lon="-1.69637">
        <ele>75</ele>
        <time>2022-10-22T11:33:41Z</time>
      </trkpt>
      <trkpt lat="47.16098" lon="-1.69655">
        <ele>75</ele>
        <time>2022-10-22T11:33:43Z</time>
      </trkpt>
      <trkpt lat="47.16097" lon="-1.69674">
        <ele>75</ele>
        <time>2022-10-22T11:33:45Z</time>
      </trkpt>
      <trkpt lat="47.16095" lon="-1.69691">
        <ele>75</ele>
        <time>2022-10-22T11:33:47Z</time>
      </trkpt>
      <trkpt lat="47.16093" lon="-1.6971">
        <ele>76</ele>
        <time>2022-10-22T11:33:49Z</time>
      </trkpt>
      <trkpt lat="47.16093" lon="-1.69728">
        <ele>76</ele>
        <time>2022-10-22T11:33:51Z</time>
      </trkpt>
      <trkpt lat="47.16091" lon="-1.69745">
        <ele>77</ele>
        <time>2022-10-22T11:33:53Z</time>
      </trkpt>
      <trkpt lat="47.1609" lon="-1.69764">
        <ele>77</ele>
        <time>2022-10-22T11:33:55Z</time>
      </trkpt>
      <trkpt lat="47.16089" lon="-1.69782">
        <ele>77</ele>
        <time>2022-10-22T11:33:57Z</time>
      </trkpt>
      <trkpt lat="47.16088" lon="-1.698">
        <ele>77</ele>
        <time>2022-10-22T11:33:59Z</time>
      </trkpt>
      <trkpt lat="47.16087" lon="-1.69818">
        <ele>77</ele>
        <time>2022-10-22T11:34:01Z</time>
      </trkpt>
      <trkpt lat="47.16085" lon="-1.69836">
        <ele>78</ele>
        <time>2022-10-22T11:34:03Z</time>
      </trkpt>
      <trkpt lat="47.16083" lon="-1.69854">
        <ele>79</ele>
        <time>2022-10-22T11:34:05Z</time>
      </trkpt>
      <trkpt lat="47.16081" lon="-1.69871">
        <ele>78</ele>
        <time>2022-10-22T11:34:07Z</time>
      </trkpt>
      <trkpt lat="47.1608" lon="-1.69891">
        <ele>78</ele>
        <time>2022-10-22T11:34:09Z</time>
      </trkpt>
      <trkpt lat="47.16079" lon="-1.6991">
        <ele>79</ele>
        <time>2022-10-22T11:34:11Z</time>
      </trkpt>
      <trkpt lat="47.16077" lon="-1.6993">
        <ele>79</ele>
        <time>2022-10-22T11:34:13Z</time>
      </trkpt>
      <trkpt lat="47.16076" lon="-1.69949">
        <ele>79</ele>
        <time>2022-10-22T11:34:15Z</time>
      </trkpt>
      <trkpt lat="47.16074" lon="-1.69968">
        <ele>78</ele>
        <time>2022-10-22T11:34:17Z</time>
      </trkpt>
      <trkpt lat="47.16073" lon="-1.69988">
        <ele>78</ele>
        <time>2022-10-22T11:34:19Z</time>
      </trkpt>
      <trkpt lat="47.16072" lon="-1.70008">
        <ele>78</ele>
        <time>2022-10-22T11:34:21Z</time>
      </trkpt>
      <trkpt lat="47.16071" lon="-1.70028">
        <ele>78</ele>
        <time>2022-10-22T11:34:23Z</time>
      </trkpt>
      <trkpt lat="47.16069" lon="-1.70047">
        <ele>78</ele>
        <time>2022-10-22T11:34:25Z</time>
      </trkpt>
      <trkpt lat="47.16068" lon="-1.70066">
        <ele>79</ele>
        <time>2022-10-22T11:34:27Z</time>
      </trkpt>
      <trkpt lat="47.16067" lon="-1.70086">
        <ele>78</ele>
        <time>2022-10-22T11:34:29Z</time>
      </trkpt>
      <trkpt lat="47.16065" lon="-1.70105">
        <ele>78</ele>
        <time>2022-10-22T11:34:31Z</time>
      </trkpt>
      <trkpt lat="47.16061" lon="-1.70122">
        <ele>78</ele>
        <time>2022-10-22T11:34:33Z</time>
      </trkpt>
      <trkpt lat="47.16056" lon="-1.70139">
        <ele>78</ele>
        <time>2022-10-22T11:34:35Z</time>
      </trkpt>
      <trkpt lat="47.1605" lon="-1.70156">
        <ele>78</ele>
        <time>2022-10-22T11:34:37Z</time>
      </trkpt>
      <trkpt lat="47.16044" lon="-1.70172">
        <ele>78</ele>
        <time>2022-10-22T11:34:39Z</time>
      </trkpt>
      <trkpt lat="47.16037" lon="-1.70188">
        <ele>78</ele>
        <time>2022-10-22T11:34:41Z</time>
      </trkpt>
      <trkpt lat="47.16029" lon="-1.70205">
        <ele>78</ele>
        <time>2022-10-22T11:34:43Z</time>
      </trkpt>
      <trkpt lat="47.16022" lon="-1.70221">
        <ele>77</ele>
        <time>2022-10-22T11:34:45Z</time>
      </trkpt>
      <trkpt lat="47.16015" lon="-1.70237">
        <ele>77</ele>
        <time>2022-10-22T11:34:47Z</time>
      </trkpt>
      <trkpt lat="47.16008" lon="-1.70253">
        <ele>77</ele>
        <time>2022-10-22T11:34:49Z</time>
      </trkpt>
      <trkpt lat="47.16001" lon="-1.7027">
        <ele>77</ele>
        <time>2022-10-22T11:34:51Z</time>
      </trkpt>
      <trkpt lat="47.15993" lon="-1.70285">
        <ele>77</ele>
        <time>2022-10-22T11:34:53Z</time>
      </trkpt>
      <trkpt lat="47.15986" lon="-1.70302">
        <ele>76</ele>
        <time>2022-10-22T11:34:55Z</time>
      </trkpt>
      <trkpt lat="47.15979" lon="-1.70319">
        <ele>76</ele>
        <time>2022-10-22T11:34:57Z</time>
      </trkpt>
      <trkpt lat="47.15972" lon="-1.70335">
        <ele>76</ele>
        <time>2022-10-22T11:34:59Z</time>
      </trkpt>
      <trkpt lat="47.15965" lon="-1.70352">
        <ele>75</ele>
        <time>2022-10-22T11:35:01Z</time>
      </trkpt>
      <trkpt lat="47.15957" lon="-1.70368">
        <ele>75</ele>
        <time>2022-10-22T11:35:03Z</time>
      </trkpt>
      <trkpt lat="47.1595" lon="-1.70385">
        <ele>75</ele>
        <time>2022-10-22T11:35:05Z</time>
      </trkpt>
      <trkpt lat="47.15943" lon="-1.704">
        <ele>75</ele>
        <time>2022-10-22T11:35:07Z</time>
      </trkpt>
      <trkpt lat="47.15936" lon="-1.70416">
        <ele>75</ele>
        <time>2022-10-22T11:35:09Z</time>
      </trkpt>
      <trkpt lat="47.15928" lon="-1.70432">
        <ele>75</ele>
        <time>2022-10-22T11:35:11Z</time>
      </trkpt>
      <trkpt lat="47.15921" lon="-1.70447">
        <ele>76</ele>
        <time>2022-10-22T11:35:13Z</time>
      </trkpt>
      <trkpt lat="47.15914" lon="-1.70463">
        <ele>75</ele>
        <time>2022-10-22T11:35:15Z</time>
      </trkpt>
      <trkpt lat="47.15906" lon="-1.70478">
        <ele>75</ele>
        <time>2022-10-22T11:35:17Z</time>
      </trkpt>
      <trkpt lat="47.15899" lon="-1.70495">
        <ele>75</ele>
        <time>2022-10-22T11:35:19Z</time>
      </trkpt>
      <trkpt lat="47.15893" lon="-1.70513">
        <ele>75</ele>
        <time>2022-10-22T11:35:21Z</time>
      </trkpt>
      <trkpt lat="47.15888" lon="-1.70531">
        <ele>75</ele>
        <time>2022-10-22T11:35:23Z</time>
      </trkpt>
      <trkpt lat="47.15883" lon="-1.70548">
        <ele>75</ele>
        <time>2022-10-22T11:35:25Z</time>
      </trkpt>
      <trkpt lat="47.15878" lon="-1.70565">
        <ele>75</ele>
        <time>2022-10-22T11:35:27Z</time>
      </trkpt>
      <trkpt lat="47.15874" lon="-1.70582">
        <ele>75</ele>
        <time>2022-10-22T11:35:29Z</time>
      </trkpt>
      <trkpt lat="47.15869" lon="-1.70598">
        <ele>75</ele>
        <time>2022-10-22T11:35:31Z</time>
      </trkpt>
      <trkpt lat="47.15864" lon="-1.70615">
        <ele>75</ele>
        <time>2022-10-22T11:35:33Z</time>
      </trkpt>
      <trkpt lat="47.15859" lon="-1.70631">
        <ele>75</ele>
        <time>2022-10-22T11:35:35Z</time>
      </trkpt>
      <trkpt lat="47.15854" lon="-1.70647">
        <ele>76</ele>
        <time>2022-10-22T11:35:37Z</time>
      </trkpt>
      <trkpt lat="47.15848" lon="-1.70662">
        <ele>76</ele>
        <time>2022-10-22T11:35:39Z</time>
      </trkpt>
      <trkpt lat="47.15842" lon="-1.70677">
        <ele>75</ele>
        <time>2022-10-22T11:35:41Z</time>
      </trkpt>
      <trkpt lat="47.15835" lon="-1.70692">
        <ele>76</ele>
        <time>2022-10-22T11:35:43Z</time>
      </trkpt>
      <trkpt lat="47.15829" lon="-1.70706">
        <ele>76</ele>
        <time>2022-10-22T11:35:45Z</time>
      </trkpt>
      <trkpt lat="47.15822" lon="-1.70721">
        <ele>76</ele>
        <time>2022-10-22T11:35:47Z</time>
      </trkpt>
      <trkpt lat="47.15815" lon="-1.70735">
        <ele>76</ele>
        <time>2022-10-22T11:35:49Z</time>
      </trkpt>
      <trkpt lat="47.15809" lon="-1.7075">
        <ele>76</ele>
        <time>2022-10-22T11:35:51Z</time>
      </trkpt>
      <trkpt lat="47.15801" lon="-1.70765">
        <ele>77</ele>
        <time>2022-10-22T11:35:53Z</time>
      </trkpt>
      <trkpt lat="47.15794" lon="-1.7078">
        <ele>77</ele>
        <time>2022-10-22T11:35:55Z</time>
      </trkpt>
      <trkpt lat="47.15787" lon="-1.70795">
        <ele>77</ele>
        <time>2022-10-22T11:35:57Z</time>
      </trkpt>
      <trkpt lat="47.1578" lon="-1.70809">
        <ele>77</ele>
        <time>2022-10-22T11:35:59Z</time>
      </trkpt>
      <trkpt lat="47.15773" lon="-1.70824">
        <ele>77</ele>
        <time>2022-10-22T11:36:01Z</time>
      </trkpt>
      <trkpt lat="47.15765" lon="-1.70838">
        <ele>77</ele>
        <time>2022-10-22T11:36:03Z</time>
      </trkpt>
      <trkpt lat="47.15758" lon="-1.70852">
        <ele>76</ele>
        <time>2022-10-22T11:36:05Z</time>
      </trkpt>
      <trkpt lat="47.1575" lon="-1.70867">
        <ele>76</ele>
        <time>2022-10-22T11:36:07Z</time>
      </trkpt>
      <trkpt lat="47.15742" lon="-1.7088">
        <ele>76</ele>
        <time>2022-10-22T11:36:09Z</time>
      </trkpt>
      <trkpt lat="47.15735" lon="-1.70893">
        <ele>76</ele>
        <time>2022-10-22T11:36:11Z</time>
      </trkpt>
      <trkpt lat="47.15727" lon="-1.70906">
        <ele>76</ele>
        <time>2022-10-22T11:36:13Z</time>
      </trkpt>
      <trkpt lat="47.1572" lon="-1.7092">
        <ele>76</ele>
        <time>2022-10-22T11:36:15Z</time>
      </trkpt>
      <trkpt lat="47.15713" lon="-1.70933">
        <ele>76</ele>
        <time>2022-10-22T11:36:17Z</time>
      </trkpt>
      <trkpt lat="47.15706" lon="-1.70947">
        <ele>76</ele>
        <time>2022-10-22T11:36:19Z</time>
      </trkpt>
      <trkpt lat="47.15699" lon="-1.70961">
        <ele>76</ele>
        <time>2022-10-22T11:36:21Z</time>
      </trkpt>
      <trkpt lat="47.15691" lon="-1.70975">
        <ele>76</ele>
        <time>2022-10-22T11:36:23Z</time>
      </trkpt>
      <trkpt lat="47.15685" lon="-1.7099">
        <ele>77</ele>
        <time>2022-10-22T11:36:25Z</time>
      </trkpt>
      <trkpt lat="47.15678" lon="-1.71005">
        <ele>76</ele>
        <time>2022-10-22T11:36:27Z</time>
      </trkpt>
      <trkpt lat="47.15671" lon="-1.71018">
        <ele>76</ele>
        <time>2022-10-22T11:36:29Z</time>
      </trkpt>
      <trkpt lat="47.15665" lon="-1.71032">
        <ele>76</ele>
        <time>2022-10-22T11:36:31Z</time>
      </trkpt>
      <trkpt lat="47.15659" lon="-1.71043">
        <ele>76</ele>
        <time>2022-10-22T11:36:33Z</time>
      </trkpt>
      <trkpt lat="47.15652" lon="-1.71057">
        <ele>76</ele>
        <time>2022-10-22T11:36:36Z</time>
      </trkpt>
      <trkpt lat="47.1564" lon="-1.71065">
        <ele>76</ele>
        <time>2022-10-22T11:36:39Z</time>
      </trkpt>
      <trkpt lat="47.15631" lon="-1.71074">
        <ele>76</ele>
        <time>2022-10-22T11:36:41Z</time>
      </trkpt>
      <trkpt lat="47.15623" lon="-1.71086">
        <ele>76</ele>
        <time>2022-10-22T11:36:43Z</time>
      </trkpt>
      <trkpt lat="47.15616" lon="-1.71099">
        <ele>76</ele>
        <time>2022-10-22T11:36:45Z</time>
      </trkpt>
      <trkpt lat="47.15609" lon="-1.71113">
        <ele>76</ele>
        <time>2022-10-22T11:36:47Z</time>
      </trkpt>
      <trkpt lat="47.15603" lon="-1.71126">
        <ele>76</ele>
        <time>2022-10-22T11:36:49Z</time>
      </trkpt>
      <trkpt lat="47.15596" lon="-1.71139">
        <ele>77</ele>
        <time>2022-10-22T11:36:51Z</time>
      </trkpt>
      <trkpt lat="47.15589" lon="-1.71151">
        <ele>77</ele>
        <time>2022-10-22T11:36:53Z</time>
      </trkpt>
      <trkpt lat="47.15582" lon="-1.71163">
        <ele>77</ele>
        <time>2022-10-22T11:36:55Z</time>
      </trkpt>
      <trkpt lat="47.15574" lon="-1.71175">
        <ele>77</ele>
        <time>2022-10-22T11:36:57Z</time>
      </trkpt>
      <trkpt lat="47.15567" lon="-1.71187">
        <ele>77</ele>
        <time>2022-10-22T11:36:59Z</time>
      </trkpt>
      <trkpt lat="47.1556" lon="-1.71199">
        <ele>77</ele>
        <time>2022-10-22T11:37:01Z</time>
      </trkpt>
      <trkpt lat="47.15553" lon="-1.71213">
        <ele>77</ele>
        <time>2022-10-22T11:37:03Z</time>
      </trkpt>
      <trkpt lat="47.15547" lon="-1.71227">
        <ele>77</ele>
        <time>2022-10-22T11:37:05Z</time>
      </trkpt>
      <trkpt lat="47.15541" lon="-1.71242">
        <ele>77</ele>
        <time>2022-10-22T11:37:07Z</time>
      </trkpt>
      <trkpt lat="47.15535" lon="-1.71257">
        <ele>77</ele>
        <time>2022-10-22T11:37:09Z</time>
      </trkpt>
      <trkpt lat="47.15529" lon="-1.71272">
        <ele>78</ele>
        <time>2022-10-22T11:37:11Z</time>
      </trkpt>
      <trkpt lat="47.15522" lon="-1.71287">
        <ele>77</ele>
        <time>2022-10-22T11:37:13Z</time>
      </trkpt>
      <trkpt lat="47.15514" lon="-1.71302">
        <ele>77</ele>
        <time>2022-10-22T11:37:15Z</time>
      </trkpt>
      <trkpt lat="47.15507" lon="-1.71316">
        <ele>78</ele>
        <time>2022-10-22T11:37:17Z</time>
      </trkpt>
      <trkpt lat="47.15499" lon="-1.7133">
        <ele>78</ele>
        <time>2022-10-22T11:37:19Z</time>
      </trkpt>
      <trkpt lat="47.1549" lon="-1.71344">
        <ele>78</ele>
        <time>2022-10-22T11:37:21Z</time>
      </trkpt>
      <trkpt lat="47.15481" lon="-1.71359">
        <ele>77</ele>
        <time>2022-10-22T11:37:23Z</time>
      </trkpt>
      <trkpt lat="47.15472" lon="-1.71372">
        <ele>77</ele>
        <time>2022-10-22T11:37:25Z</time>
      </trkpt>
      <trkpt lat="47.15462" lon="-1.71385">
        <ele>77</ele>
        <time>2022-10-22T11:37:27Z</time>
      </trkpt>
      <trkpt lat="47.15451" lon="-1.71396">
        <ele>77</ele>
        <time>2022-10-22T11:37:29Z</time>
      </trkpt>
      <trkpt lat="47.15441" lon="-1.71407">
        <ele>77</ele>
        <time>2022-10-22T11:37:31Z</time>
      </trkpt>
      <trkpt lat="47.1543" lon="-1.71417">
        <ele>77</ele>
        <time>2022-10-22T11:37:33Z</time>
      </trkpt>
      <trkpt lat="47.15419" lon="-1.71428">
        <ele>77</ele>
        <time>2022-10-22T11:37:35Z</time>
      </trkpt>
      <trkpt lat="47.15408" lon="-1.71438">
        <ele>77</ele>
        <time>2022-10-22T11:37:37Z</time>
      </trkpt>
      <trkpt lat="47.15397" lon="-1.71448">
        <ele>77</ele>
        <time>2022-10-22T11:37:39Z</time>
      </trkpt>
      <trkpt lat="47.15387" lon="-1.71458">
        <ele>77</ele>
        <time>2022-10-22T11:37:41Z</time>
      </trkpt>
      <trkpt lat="47.15376" lon="-1.71467">
        <ele>77</ele>
        <time>2022-10-22T11:37:43Z</time>
      </trkpt>
      <trkpt lat="47.15365" lon="-1.71477">
        <ele>76</ele>
        <time>2022-10-22T11:37:45Z</time>
      </trkpt>
      <trkpt lat="47.15354" lon="-1.71487">
        <ele>76</ele>
        <time>2022-10-22T11:37:47Z</time>
      </trkpt>
      <trkpt lat="47.15344" lon="-1.71498">
        <ele>76</ele>
        <time>2022-10-22T11:37:49Z</time>
      </trkpt>
      <trkpt lat="47.15334" lon="-1.71509">
        <ele>76</ele>
        <time>2022-10-22T11:37:51Z</time>
      </trkpt>
      <trkpt lat="47.15323" lon="-1.7152">
        <ele>76</ele>
        <time>2022-10-22T11:37:53Z</time>
      </trkpt>
      <trkpt lat="47.15313" lon="-1.71531">
        <ele>75</ele>
        <time>2022-10-22T11:37:55Z</time>
      </trkpt>
      <trkpt lat="47.15303" lon="-1.71543">
        <ele>75</ele>
        <time>2022-10-22T11:37:57Z</time>
      </trkpt>
      <trkpt lat="47.15292" lon="-1.71555">
        <ele>75</ele>
        <time>2022-10-22T11:37:59Z</time>
      </trkpt>
      <trkpt lat="47.15281" lon="-1.71566">
        <ele>75</ele>
        <time>2022-10-22T11:38:01Z</time>
      </trkpt>
      <trkpt lat="47.15271" lon="-1.71578">
        <ele>74</ele>
        <time>2022-10-22T11:38:03Z</time>
      </trkpt>
      <trkpt lat="47.15261" lon="-1.7159">
        <ele>74</ele>
        <time>2022-10-22T11:38:05Z</time>
      </trkpt>
      <trkpt lat="47.1525" lon="-1.71603">
        <ele>74</ele>
        <time>2022-10-22T11:38:07Z</time>
      </trkpt>
      <trkpt lat="47.15241" lon="-1.71618">
        <ele>74</ele>
        <time>2022-10-22T11:38:09Z</time>
      </trkpt>
      <trkpt lat="47.15229" lon="-1.71623">
        <ele>73</ele>
        <time>2022-10-22T11:38:11Z</time>
      </trkpt>
      <trkpt lat="47.15217" lon="-1.71615">
        <ele>73</ele>
        <time>2022-10-22T11:38:13Z</time>
      </trkpt>
      <trkpt lat="47.15206" lon="-1.71606">
        <ele>73</ele>
        <time>2022-10-22T11:38:15Z</time>
      </trkpt>
      <trkpt lat="47.15195" lon="-1.71598">
        <ele>73</ele>
        <time>2022-10-22T11:38:17Z</time>
      </trkpt>
      <trkpt lat="47.15183" lon="-1.71589">
        <ele>73</ele>
        <time>2022-10-22T11:38:19Z</time>
      </trkpt>
      <trkpt lat="47.15172" lon="-1.71581">
        <ele>73</ele>
        <time>2022-10-22T11:38:21Z</time>
      </trkpt>
      <trkpt lat="47.15161" lon="-1.71573">
        <ele>73</ele>
        <time>2022-10-22T11:38:23Z</time>
      </trkpt>
      <trkpt lat="47.1515" lon="-1.71564">
        <ele>74</ele>
        <time>2022-10-22T11:38:25Z</time>
      </trkpt>
      <trkpt lat="47.15139" lon="-1.71556">
        <ele>74</ele>
        <time>2022-10-22T11:38:27Z</time>
      </trkpt>
      <trkpt lat="47.15127" lon="-1.71546">
        <ele>74</ele>
        <time>2022-10-22T11:38:29Z</time>
      </trkpt>
      <trkpt lat="47.15117" lon="-1.71536">
        <ele>74</ele>
        <time>2022-10-22T11:38:31Z</time>
      </trkpt>
      <trkpt lat="47.15106" lon="-1.71526">
        <ele>75</ele>
        <time>2022-10-22T11:38:33Z</time>
      </trkpt>
      <trkpt lat="47.15096" lon="-1.71516">
        <ele>75</ele>
        <time>2022-10-22T11:38:35Z</time>
      </trkpt>
      <trkpt lat="47.15085" lon="-1.71506">
        <ele>76</ele>
        <time>2022-10-22T11:38:37Z</time>
      </trkpt>
      <trkpt lat="47.15075" lon="-1.71496">
        <ele>76</ele>
        <time>2022-10-22T11:38:39Z</time>
      </trkpt>
      <trkpt lat="47.15065" lon="-1.71486">
        <ele>75</ele>
        <time>2022-10-22T11:38:41Z</time>
      </trkpt>
      <trkpt lat="47.15055" lon="-1.71477">
        <ele>76</ele>
        <time>2022-10-22T11:38:43Z</time>
      </trkpt>
      <trkpt lat="47.15045" lon="-1.71467">
        <ele>76</ele>
        <time>2022-10-22T11:38:45Z</time>
      </trkpt>
      <trkpt lat="47.15035" lon="-1.71458">
        <ele>76</ele>
        <time>2022-10-22T11:38:47Z</time>
      </trkpt>
      <trkpt lat="47.15026" lon="-1.71449">
        <ele>76</ele>
        <time>2022-10-22T11:38:49Z</time>
      </trkpt>
      <trkpt lat="47.15017" lon="-1.7144">
        <ele>76</ele>
        <time>2022-10-22T11:38:51Z</time>
      </trkpt>
      <trkpt lat="47.15008" lon="-1.7143">
        <ele>77</ele>
        <time>2022-10-22T11:38:53Z</time>
      </trkpt>
      <trkpt lat="47.14999" lon="-1.71422">
        <ele>77</ele>
        <time>2022-10-22T11:38:55Z</time>
      </trkpt>
      <trkpt lat="47.14985" lon="-1.71408">
        <ele>77</ele>
        <time>2022-10-22T11:38:58Z</time>
      </trkpt>
      <trkpt lat="47.14976" lon="-1.714">
        <ele>77</ele>
        <time>2022-10-22T11:39:00Z</time>
      </trkpt>
      <trkpt lat="47.14967" lon="-1.71391">
        <ele>77</ele>
        <time>2022-10-22T11:39:02Z</time>
      </trkpt>
      <trkpt lat="47.14954" lon="-1.71377">
        <ele>78</ele>
        <time>2022-10-22T11:39:05Z</time>
      </trkpt>
      <trkpt lat="47.14945" lon="-1.71369">
        <ele>78</ele>
        <time>2022-10-22T11:39:07Z</time>
      </trkpt>
      <trkpt lat="47.14933" lon="-1.71354">
        <ele>78</ele>
        <time>2022-10-22T11:39:10Z</time>
      </trkpt>
      <trkpt lat="47.14925" lon="-1.71344">
        <ele>78</ele>
        <time>2022-10-22T11:39:12Z</time>
      </trkpt>
      <trkpt lat="47.14917" lon="-1.71333">
        <ele>78</ele>
        <time>2022-10-22T11:39:14Z</time>
      </trkpt>
      <trkpt lat="47.14909" lon="-1.71323">
        <ele>78</ele>
        <time>2022-10-22T11:39:16Z</time>
      </trkpt>
      <trkpt lat="47.14901" lon="-1.71313">
        <ele>79</ele>
        <time>2022-10-22T11:39:18Z</time>
      </trkpt>
      <trkpt lat="47.14893" lon="-1.71303">
        <ele>79</ele>
        <time>2022-10-22T11:39:20Z</time>
      </trkpt>
      <trkpt lat="47.14885" lon="-1.71294">
        <ele>79</ele>
        <time>2022-10-22T11:39:22Z</time>
      </trkpt>
      <trkpt lat="47.14871" lon="-1.71281">
        <ele>79</ele>
        <time>2022-10-22T11:39:25Z</time>
      </trkpt>
      <trkpt lat="47.14862" lon="-1.71273">
        <ele>79</ele>
        <time>2022-10-22T11:39:27Z</time>
      </trkpt>
      <trkpt lat="47.14855" lon="-1.71263">
        <ele>80</ele>
        <time>2022-10-22T11:39:29Z</time>
      </trkpt>
      <trkpt lat="47.14848" lon="-1.71251">
        <ele>80</ele>
        <time>2022-10-22T11:39:31Z</time>
      </trkpt>
      <trkpt lat="47.14843" lon="-1.71237">
        <ele>80</ele>
        <time>2022-10-22T11:39:33Z</time>
      </trkpt>
      <trkpt lat="47.14838" lon="-1.71224">
        <ele>80</ele>
        <time>2022-10-22T11:39:35Z</time>
      </trkpt>
      <trkpt lat="47.14833" lon="-1.7121">
        <ele>80</ele>
        <time>2022-10-22T11:39:37Z</time>
      </trkpt>
      <trkpt lat="47.14828" lon="-1.71197">
        <ele>79</ele>
        <time>2022-10-22T11:39:39Z</time>
      </trkpt>
      <trkpt lat="47.14823" lon="-1.71184">
        <ele>79</ele>
        <time>2022-10-22T11:39:41Z</time>
      </trkpt>
      <trkpt lat="47.14818" lon="-1.71169">
        <ele>79</ele>
        <time>2022-10-22T11:39:43Z</time>
      </trkpt>
      <trkpt lat="47.14812" lon="-1.71154">
        <ele>79</ele>
        <time>2022-10-22T11:39:45Z</time>
      </trkpt>
      <trkpt lat="47.14807" lon="-1.71139">
        <ele>79</ele>
        <time>2022-10-22T11:39:47Z</time>
      </trkpt>
      <trkpt lat="47.148" lon="-1.71125">
        <ele>79</ele>
        <time>2022-10-22T11:39:49Z</time>
      </trkpt>
      <trkpt lat="47.14793" lon="-1.71111">
        <ele>80</ele>
        <time>2022-10-22T11:39:51Z</time>
      </trkpt>
      <trkpt lat="47.14787" lon="-1.71096">
        <ele>80</ele>
        <time>2022-10-22T11:39:53Z</time>
      </trkpt>
      <trkpt lat="47.1478" lon="-1.7108">
        <ele>79</ele>
        <time>2022-10-22T11:39:55Z</time>
      </trkpt>
      <trkpt lat="47.14774" lon="-1.71064">
        <ele>79</ele>
        <time>2022-10-22T11:39:57Z</time>
      </trkpt>
      <trkpt lat="47.14768" lon="-1.71047">
        <ele>79</ele>
        <time>2022-10-22T11:39:59Z</time>
      </trkpt>
      <trkpt lat="47.14762" lon="-1.71031">
        <ele>79</ele>
        <time>2022-10-22T11:40:01Z</time>
      </trkpt>
      <trkpt lat="47.14757" lon="-1.71014">
        <ele>79</ele>
        <time>2022-10-22T11:40:03Z</time>
      </trkpt>
      <trkpt lat="47.14752" lon="-1.70997">
        <ele>79</ele>
        <time>2022-10-22T11:40:05Z</time>
      </trkpt>
      <trkpt lat="47.14746" lon="-1.70981">
        <ele>78</ele>
        <time>2022-10-22T11:40:07Z</time>
      </trkpt>
      <trkpt lat="47.14734" lon="-1.70981">
        <ele>78</ele>
        <time>2022-10-22T11:40:09Z</time>
      </trkpt>
      <trkpt lat="47.14725" lon="-1.70991">
        <ele>78</ele>
        <time>2022-10-22T11:40:11Z</time>
      </trkpt>
      <trkpt lat="47.14717" lon="-1.71005">
        <ele>77</ele>
        <time>2022-10-22T11:40:13Z</time>
      </trkpt>
      <trkpt lat="47.14712" lon="-1.71021">
        <ele>77</ele>
        <time>2022-10-22T11:40:15Z</time>
      </trkpt>
      <trkpt lat="47.1471" lon="-1.71039">
        <ele>76</ele>
        <time>2022-10-22T11:40:17Z</time>
      </trkpt>
      <trkpt lat="47.14711" lon="-1.71058">
        <ele>76</ele>
        <time>2022-10-22T11:40:19Z</time>
      </trkpt>
      <trkpt lat="47.14713" lon="-1.71075">
        <ele>76</ele>
        <time>2022-10-22T11:40:21Z</time>
      </trkpt>
      <trkpt lat="47.14716" lon="-1.71093">
        <ele>76</ele>
        <time>2022-10-22T11:40:23Z</time>
      </trkpt>
      <trkpt lat="47.14718" lon="-1.7111">
        <ele>77</ele>
        <time>2022-10-22T11:40:25Z</time>
      </trkpt>
      <trkpt lat="47.14721" lon="-1.71127">
        <ele>77</ele>
        <time>2022-10-22T11:40:27Z</time>
      </trkpt>
      <trkpt lat="47.14724" lon="-1.71145">
        <ele>77</ele>
        <time>2022-10-22T11:40:29Z</time>
      </trkpt>
      <trkpt lat="47.14727" lon="-1.71163">
        <ele>77</ele>
        <time>2022-10-22T11:40:31Z</time>
      </trkpt>
      <trkpt lat="47.14731" lon="-1.7118">
        <ele>78</ele>
        <time>2022-10-22T11:40:33Z</time>
      </trkpt>
      <trkpt lat="47.14735" lon="-1.71198">
        <ele>77</ele>
        <time>2022-10-22T11:40:35Z</time>
      </trkpt>
      <trkpt lat="47.14739" lon="-1.71216">
        <ele>78</ele>
        <time>2022-10-22T11:40:37Z</time>
      </trkpt>
      <trkpt lat="47.14743" lon="-1.71231">
        <ele>78</ele>
        <time>2022-10-22T11:40:39Z</time>
      </trkpt>
      <trkpt lat="47.14747" lon="-1.71246">
        <ele>79</ele>
        <time>2022-10-22T11:40:41Z</time>
      </trkpt>
      <trkpt lat="47.14751" lon="-1.71262">
        <ele>79</ele>
        <time>2022-10-22T11:40:43Z</time>
      </trkpt>
      <trkpt lat="47.14755" lon="-1.71279">
        <ele>79</ele>
        <time>2022-10-22T11:40:45Z</time>
      </trkpt>
      <trkpt lat="47.14758" lon="-1.71295">
        <ele>79</ele>
        <time>2022-10-22T11:40:47Z</time>
      </trkpt>
      <trkpt lat="47.1476" lon="-1.71311">
        <ele>79</ele>
        <time>2022-10-22T11:40:49Z</time>
      </trkpt>
      <trkpt lat="47.14763" lon="-1.71327">
        <ele>79</ele>
        <time>2022-10-22T11:40:51Z</time>
      </trkpt>
      <trkpt lat="47.14765" lon="-1.71344">
        <ele>79</ele>
        <time>2022-10-22T11:40:53Z</time>
      </trkpt>
      <trkpt lat="47.14768" lon="-1.71362">
        <ele>78</ele>
        <time>2022-10-22T11:40:55Z</time>
      </trkpt>
      <trkpt lat="47.14772" lon="-1.7138">
        <ele>79</ele>
        <time>2022-10-22T11:40:57Z</time>
      </trkpt>
      <trkpt lat="47.14774" lon="-1.71398">
        <ele>79</ele>
        <time>2022-10-22T11:40:59Z</time>
      </trkpt>
      <trkpt lat="47.14777" lon="-1.71416">
        <ele>79</ele>
        <time>2022-10-22T11:41:01Z</time>
      </trkpt>
      <trkpt lat="47.1478" lon="-1.71434">
        <ele>79</ele>
        <time>2022-10-22T11:41:03Z</time>
      </trkpt>
      <trkpt lat="47.14783" lon="-1.71452">
        <ele>79</ele>
        <time>2022-10-22T11:41:05Z</time>
      </trkpt>
      <trkpt lat="47.14786" lon="-1.7147">
        <ele>78</ele>
        <time>2022-10-22T11:41:07Z</time>
      </trkpt>
      <trkpt lat="47.14788" lon="-1.71488">
        <ele>78</ele>
        <time>2022-10-22T11:41:09Z</time>
      </trkpt>
      <trkpt lat="47.1479" lon="-1.71506">
        <ele>78</ele>
        <time>2022-10-22T11:41:11Z</time>
      </trkpt>
      <trkpt lat="47.14792" lon="-1.71525">
        <ele>78</ele>
        <time>2022-10-22T11:41:13Z</time>
      </trkpt>
      <trkpt lat="47.14792" lon="-1.71543">
        <ele>79</ele>
        <time>2022-10-22T11:41:15Z</time>
      </trkpt>
      <trkpt lat="47.14791" lon="-1.71561">
        <ele>79</ele>
        <time>2022-10-22T11:41:17Z</time>
      </trkpt>
      <trkpt lat="47.14789" lon="-1.71579">
        <ele>78</ele>
        <time>2022-10-22T11:41:19Z</time>
      </trkpt>
      <trkpt lat="47.14786" lon="-1.71598">
        <ele>78</ele>
        <time>2022-10-22T11:41:21Z</time>
      </trkpt>
      <trkpt lat="47.14784" lon="-1.71616">
        <ele>78</ele>
        <time>2022-10-22T11:41:23Z</time>
      </trkpt>
      <trkpt lat="47.14782" lon="-1.71634">
        <ele>78</ele>
        <time>2022-10-22T11:41:25Z</time>
      </trkpt>
      <trkpt lat="47.14779" lon="-1.7165">
        <ele>78</ele>
        <time>2022-10-22T11:41:27Z</time>
      </trkpt>
      <trkpt lat="47.14776" lon="-1.71667">
        <ele>79</ele>
        <time>2022-10-22T11:41:29Z</time>
      </trkpt>
      <trkpt lat="47.14773" lon="-1.71684">
        <ele>79</ele>
        <time>2022-10-22T11:41:31Z</time>
      </trkpt>
      <trkpt lat="47.14771" lon="-1.71701">
        <ele>79</ele>
        <time>2022-10-22T11:41:33Z</time>
      </trkpt>
      <trkpt lat="47.14768" lon="-1.71716">
        <ele>79</ele>
        <time>2022-10-22T11:41:35Z</time>
      </trkpt>
      <trkpt lat="47.14765" lon="-1.71732">
        <ele>79</ele>
        <time>2022-10-22T11:41:37Z</time>
      </trkpt>
      <trkpt lat="47.14763" lon="-1.71747">
        <ele>79</ele>
        <time>2022-10-22T11:41:39Z</time>
      </trkpt>
      <trkpt lat="47.14759" lon="-1.71762">
        <ele>79</ele>
        <time>2022-10-22T11:41:41Z</time>
      </trkpt>
      <trkpt lat="47.14755" lon="-1.71777">
        <ele>79</ele>
        <time>2022-10-22T11:41:43Z</time>
      </trkpt>
      <trkpt lat="47.14748" lon="-1.71789">
        <ele>80</ele>
        <time>2022-10-22T11:41:45Z</time>
      </trkpt>
      <trkpt lat="47.14741" lon="-1.718">
        <ele>80</ele>
        <time>2022-10-22T11:41:47Z</time>
      </trkpt>
      <trkpt lat="47.14732" lon="-1.7181">
        <ele>79</ele>
        <time>2022-10-22T11:41:49Z</time>
      </trkpt>
      <trkpt lat="47.14721" lon="-1.71818">
        <ele>79</ele>
        <time>2022-10-22T11:41:51Z</time>
      </trkpt>
      <trkpt lat="47.1471" lon="-1.71824">
        <ele>79</ele>
        <time>2022-10-22T11:41:53Z</time>
      </trkpt>
      <trkpt lat="47.14699" lon="-1.7183">
        <ele>79</ele>
        <time>2022-10-22T11:41:55Z</time>
      </trkpt>
      <trkpt lat="47.14688" lon="-1.71835">
        <ele>79</ele>
        <time>2022-10-22T11:41:57Z</time>
      </trkpt>
      <trkpt lat="47.14676" lon="-1.71841">
        <ele>79</ele>
        <time>2022-10-22T11:41:59Z</time>
      </trkpt>
      <trkpt lat="47.14665" lon="-1.71846">
        <ele>79</ele>
        <time>2022-10-22T11:42:01Z</time>
      </trkpt>
      <trkpt lat="47.14654" lon="-1.7185">
        <ele>78</ele>
        <time>2022-10-22T11:42:03Z</time>
      </trkpt>
      <trkpt lat="47.14642" lon="-1.71853">
        <ele>78</ele>
        <time>2022-10-22T11:42:05Z</time>
      </trkpt>
      <trkpt lat="47.1463" lon="-1.71854">
        <ele>78</ele>
        <time>2022-10-22T11:42:07Z</time>
      </trkpt>
      <trkpt lat="47.14618" lon="-1.71853">
        <ele>78</ele>
        <time>2022-10-22T11:42:09Z</time>
      </trkpt>
      <trkpt lat="47.14607" lon="-1.71851">
        <ele>78</ele>
        <time>2022-10-22T11:42:11Z</time>
      </trkpt>
      <trkpt lat="47.14595" lon="-1.71847">
        <ele>78</ele>
        <time>2022-10-22T11:42:13Z</time>
      </trkpt>
      <trkpt lat="47.14583" lon="-1.71842">
        <ele>78</ele>
        <time>2022-10-22T11:42:15Z</time>
      </trkpt>
      <trkpt lat="47.14571" lon="-1.71837">
        <ele>78</ele>
        <time>2022-10-22T11:42:17Z</time>
      </trkpt>
      <trkpt lat="47.1456" lon="-1.71832">
        <ele>78</ele>
        <time>2022-10-22T11:42:19Z</time>
      </trkpt>
      <trkpt lat="47.14549" lon="-1.71826">
        <ele>78</ele>
        <time>2022-10-22T11:42:21Z</time>
      </trkpt>
      <trkpt lat="47.14538" lon="-1.71821">
        <ele>78</ele>
        <time>2022-10-22T11:42:23Z</time>
      </trkpt>
      <trkpt lat="47.14527" lon="-1.71816">
        <ele>77</ele>
        <time>2022-10-22T11:42:25Z</time>
      </trkpt>
      <trkpt lat="47.14515" lon="-1.71811">
        <ele>77</ele>
        <time>2022-10-22T11:42:27Z</time>
      </trkpt>
      <trkpt lat="47.14504" lon="-1.71805">
        <ele>77</ele>
        <time>2022-10-22T11:42:29Z</time>
      </trkpt>
      <trkpt lat="47.14493" lon="-1.718">
        <ele>77</ele>
        <time>2022-10-22T11:42:31Z</time>
      </trkpt>
      <trkpt lat="47.14482" lon="-1.71794">
        <ele>77</ele>
        <time>2022-10-22T11:42:33Z</time>
      </trkpt>
      <trkpt lat="47.14471" lon="-1.71789">
        <ele>77</ele>
        <time>2022-10-22T11:42:35Z</time>
      </trkpt>
      <trkpt lat="47.14459" lon="-1.71785">
        <ele>77</ele>
        <time>2022-10-22T11:42:37Z</time>
      </trkpt>
      <trkpt lat="47.14448" lon="-1.71781">
        <ele>77</ele>
        <time>2022-10-22T11:42:39Z</time>
      </trkpt>
      <trkpt lat="47.14436" lon="-1.71779">
        <ele>78</ele>
        <time>2022-10-22T11:42:41Z</time>
      </trkpt>
      <trkpt lat="47.14424" lon="-1.71778">
        <ele>78</ele>
        <time>2022-10-22T11:42:43Z</time>
      </trkpt>
      <trkpt lat="47.14411" lon="-1.71779">
        <ele>77</ele>
        <time>2022-10-22T11:42:45Z</time>
      </trkpt>
      <trkpt lat="47.14399" lon="-1.7178">
        <ele>77</ele>
        <time>2022-10-22T11:42:47Z</time>
      </trkpt>
      <trkpt lat="47.14387" lon="-1.71783">
        <ele>76</ele>
        <time>2022-10-22T11:42:49Z</time>
      </trkpt>
      <trkpt lat="47.14376" lon="-1.71786">
        <ele>76</ele>
        <time>2022-10-22T11:42:51Z</time>
      </trkpt>
      <trkpt lat="47.14364" lon="-1.7179">
        <ele>76</ele>
        <time>2022-10-22T11:42:53Z</time>
      </trkpt>
      <trkpt lat="47.14353" lon="-1.71794">
        <ele>75</ele>
        <time>2022-10-22T11:42:55Z</time>
      </trkpt>
      <trkpt lat="47.14341" lon="-1.71798">
        <ele>75</ele>
        <time>2022-10-22T11:42:57Z</time>
      </trkpt>
      <trkpt lat="47.14329" lon="-1.71802">
        <ele>75</ele>
        <time>2022-10-22T11:42:59Z</time>
      </trkpt>
      <trkpt lat="47.14318" lon="-1.71806">
        <ele>74</ele>
        <time>2022-10-22T11:43:01Z</time>
      </trkpt>
      <trkpt lat="47.14306" lon="-1.71809">
        <ele>74</ele>
        <time>2022-10-22T11:43:03Z</time>
      </trkpt>
      <trkpt lat="47.14295" lon="-1.71814">
        <ele>74</ele>
        <time>2022-10-22T11:43:05Z</time>
      </trkpt>
      <trkpt lat="47.14283" lon="-1.71817">
        <ele>75</ele>
        <time>2022-10-22T11:43:07Z</time>
      </trkpt>
      <trkpt lat="47.14272" lon="-1.71821">
        <ele>74</ele>
        <time>2022-10-22T11:43:09Z</time>
      </trkpt>
      <trkpt lat="47.1426" lon="-1.71824">
        <ele>74</ele>
        <time>2022-10-22T11:43:11Z</time>
      </trkpt>
      <trkpt lat="47.14249" lon="-1.71827">
        <ele>74</ele>
        <time>2022-10-22T11:43:13Z</time>
      </trkpt>
      <trkpt lat="47.14237" lon="-1.71832">
        <ele>74</ele>
        <time>2022-10-22T11:43:15Z</time>
      </trkpt>
      <trkpt lat="47.14225" lon="-1.71836">
        <ele>74</ele>
        <time>2022-10-22T11:43:17Z</time>
      </trkpt>
      <trkpt lat="47.14213" lon="-1.7184">
        <ele>74</ele>
        <time>2022-10-22T11:43:19Z</time>
      </trkpt>
      <trkpt lat="47.14201" lon="-1.71844">
        <ele>74</ele>
        <time>2022-10-22T11:43:21Z</time>
      </trkpt>
      <trkpt lat="47.14189" lon="-1.71848">
        <ele>73</ele>
        <time>2022-10-22T11:43:23Z</time>
      </trkpt>
      <trkpt lat="47.14177" lon="-1.71852">
        <ele>73</ele>
        <time>2022-10-22T11:43:25Z</time>
      </trkpt>
      <trkpt lat="47.14166" lon="-1.71856">
        <ele>72</ele>
        <time>2022-10-22T11:43:27Z</time>
      </trkpt>
      <trkpt lat="47.14154" lon="-1.7186">
        <ele>72</ele>
        <time>2022-10-22T11:43:29Z</time>
      </trkpt>
      <trkpt lat="47.1414" lon="-1.71864">
        <ele>72</ele>
        <time>2022-10-22T11:43:31Z</time>
      </trkpt>
      <trkpt lat="47.14127" lon="-1.71868">
        <ele>71</ele>
        <time>2022-10-22T11:43:33Z</time>
      </trkpt>
      <trkpt lat="47.14114" lon="-1.71873">
        <ele>70</ele>
        <time>2022-10-22T11:43:35Z</time>
      </trkpt>
      <trkpt lat="47.141" lon="-1.71878">
        <ele>69</ele>
        <time>2022-10-22T11:43:37Z</time>
      </trkpt>
      <trkpt lat="47.14086" lon="-1.71882">
        <ele>69</ele>
        <time>2022-10-22T11:43:39Z</time>
      </trkpt>
      <trkpt lat="47.14071" lon="-1.71887">
        <ele>68</ele>
        <time>2022-10-22T11:43:41Z</time>
      </trkpt>
      <trkpt lat="47.14058" lon="-1.71891">
        <ele>67</ele>
        <time>2022-10-22T11:43:43Z</time>
      </trkpt>
      <trkpt lat="47.14044" lon="-1.71896">
        <ele>67</ele>
        <time>2022-10-22T11:43:45Z</time>
      </trkpt>
      <trkpt lat="47.1403" lon="-1.719">
        <ele>66</ele>
        <time>2022-10-22T11:43:47Z</time>
      </trkpt>
      <trkpt lat="47.14016" lon="-1.71903">
        <ele>65</ele>
        <time>2022-10-22T11:43:49Z</time>
      </trkpt>
      <trkpt lat="47.14002" lon="-1.719">
        <ele>64</ele>
        <time>2022-10-22T11:43:51Z</time>
      </trkpt>
      <trkpt lat="47.13986" lon="-1.71895">
        <ele>64</ele>
        <time>2022-10-22T11:43:53Z</time>
      </trkpt>
      <trkpt lat="47.13971" lon="-1.71898">
        <ele>64</ele>
        <time>2022-10-22T11:43:55Z</time>
      </trkpt>
      <trkpt lat="47.13964" lon="-1.71917">
        <ele>63</ele>
        <time>2022-10-22T11:43:57Z</time>
      </trkpt>
      <trkpt lat="47.13964" lon="-1.71938">
        <ele>63</ele>
        <time>2022-10-22T11:43:59Z</time>
      </trkpt>
      <trkpt lat="47.1396" lon="-1.71956">
        <ele>62</ele>
        <time>2022-10-22T11:44:01Z</time>
      </trkpt>
      <trkpt lat="47.13952" lon="-1.71969">
        <ele>62</ele>
        <time>2022-10-22T11:44:03Z</time>
      </trkpt>
      <trkpt lat="47.13941" lon="-1.71977">
        <ele>62</ele>
        <time>2022-10-22T11:44:05Z</time>
      </trkpt>
      <trkpt lat="47.1393" lon="-1.71982">
        <ele>61</ele>
        <time>2022-10-22T11:44:07Z</time>
      </trkpt>
      <trkpt lat="47.13919" lon="-1.71988">
        <ele>61</ele>
        <time>2022-10-22T11:44:09Z</time>
      </trkpt>
      <trkpt lat="47.13908" lon="-1.71993">
        <ele>61</ele>
        <time>2022-10-22T11:44:11Z</time>
      </trkpt>
      <trkpt lat="47.13898" lon="-1.71998">
        <ele>61</ele>
        <time>2022-10-22T11:44:13Z</time>
      </trkpt>
      <trkpt lat="47.13888" lon="-1.72003">
        <ele>61</ele>
        <time>2022-10-22T11:44:15Z</time>
      </trkpt>
      <trkpt lat="47.13878" lon="-1.72011">
        <ele>61</ele>
        <time>2022-10-22T11:44:17Z</time>
      </trkpt>
      <trkpt lat="47.1387" lon="-1.72019">
        <ele>62</ele>
        <time>2022-10-22T11:44:19Z</time>
      </trkpt>
      <trkpt lat="47.13861" lon="-1.72029">
        <ele>62</ele>
        <time>2022-10-22T11:44:21Z</time>
      </trkpt>
      <trkpt lat="47.13854" lon="-1.7204">
        <ele>63</ele>
        <time>2022-10-22T11:44:23Z</time>
      </trkpt>
      <trkpt lat="47.13846" lon="-1.72051">
        <ele>63</ele>
        <time>2022-10-22T11:44:25Z</time>
      </trkpt>
      <trkpt lat="47.13839" lon="-1.72063">
        <ele>64</ele>
        <time>2022-10-22T11:44:27Z</time>
      </trkpt>
      <trkpt lat="47.13832" lon="-1.72074">
        <ele>64</ele>
        <time>2022-10-22T11:44:29Z</time>
      </trkpt>
      <trkpt lat="47.13825" lon="-1.72085">
        <ele>64</ele>
        <time>2022-10-22T11:44:31Z</time>
      </trkpt>
      <trkpt lat="47.13818" lon="-1.72096">
        <ele>65</ele>
        <time>2022-10-22T11:44:33Z</time>
      </trkpt>
      <trkpt lat="47.1381" lon="-1.72107">
        <ele>65</ele>
        <time>2022-10-22T11:44:35Z</time>
      </trkpt>
      <trkpt lat="47.13803" lon="-1.72117">
        <ele>66</ele>
        <time>2022-10-22T11:44:37Z</time>
      </trkpt>
      <trkpt lat="47.13796" lon="-1.72129">
        <ele>66</ele>
        <time>2022-10-22T11:44:39Z</time>
      </trkpt>
      <trkpt lat="47.13789" lon="-1.72142">
        <ele>67</ele>
        <time>2022-10-22T11:44:41Z</time>
      </trkpt>
      <trkpt lat="47.13782" lon="-1.72154">
        <ele>67</ele>
        <time>2022-10-22T11:44:43Z</time>
      </trkpt>
      <trkpt lat="47.13775" lon="-1.72166">
        <ele>68</ele>
        <time>2022-10-22T11:44:45Z</time>
      </trkpt>
      <trkpt lat="47.13768" lon="-1.72178">
        <ele>68</ele>
        <time>2022-10-22T11:44:47Z</time>
      </trkpt>
      <trkpt lat="47.13761" lon="-1.7219">
        <ele>68</ele>
        <time>2022-10-22T11:44:49Z</time>
      </trkpt>
      <trkpt lat="47.13755" lon="-1.72203">
        <ele>68</ele>
        <time>2022-10-22T11:44:51Z</time>
      </trkpt>
      <trkpt lat="47.13748" lon="-1.72214">
        <ele>69</ele>
        <time>2022-10-22T11:44:53Z</time>
      </trkpt>
      <trkpt lat="47.13742" lon="-1.72226">
        <ele>69</ele>
        <time>2022-10-22T11:44:55Z</time>
      </trkpt>
      <trkpt lat="47.13738" lon="-1.7224">
        <ele>69</ele>
        <time>2022-10-22T11:44:57Z</time>
      </trkpt>
      <trkpt lat="47.13735" lon="-1.72254">
        <ele>69</ele>
        <time>2022-10-22T11:44:59Z</time>
      </trkpt>
      <trkpt lat="47.13733" lon="-1.72269">
        <ele>69</ele>
        <time>2022-10-22T11:45:01Z</time>
      </trkpt>
      <trkpt lat="47.13732" lon="-1.72283">
        <ele>70</ele>
        <time>2022-10-22T11:45:03Z</time>
      </trkpt>
      <trkpt lat="47.1373" lon="-1.72299">
        <ele>70</ele>
        <time>2022-10-22T11:45:05Z</time>
      </trkpt>
      <trkpt lat="47.13729" lon="-1.72314">
        <ele>71</ele>
        <time>2022-10-22T11:45:07Z</time>
      </trkpt>
      <trkpt lat="47.13727" lon="-1.7233">
        <ele>71</ele>
        <time>2022-10-22T11:45:09Z</time>
      </trkpt>
      <trkpt lat="47.13725" lon="-1.72344">
        <ele>71</ele>
        <time>2022-10-22T11:45:11Z</time>
      </trkpt>
      <trkpt lat="47.13721" lon="-1.7236">
        <ele>72</ele>
        <time>2022-10-22T11:45:13Z</time>
      </trkpt>
      <trkpt lat="47.13717" lon="-1.72375">
        <ele>71</ele>
        <time>2022-10-22T11:45:15Z</time>
      </trkpt>
      <trkpt lat="47.13714" lon="-1.7239">
        <ele>72</ele>
        <time>2022-10-22T11:45:17Z</time>
      </trkpt>
      <trkpt lat="47.1371" lon="-1.72404">
        <ele>72</ele>
        <time>2022-10-22T11:45:19Z</time>
      </trkpt>
      <trkpt lat="47.13706" lon="-1.72418">
        <ele>72</ele>
        <time>2022-10-22T11:45:21Z</time>
      </trkpt>
      <trkpt lat="47.13703" lon="-1.72433">
        <ele>72</ele>
        <time>2022-10-22T11:45:23Z</time>
      </trkpt>
      <trkpt lat="47.13699" lon="-1.72447">
        <ele>73</ele>
        <time>2022-10-22T11:45:25Z</time>
      </trkpt>
      <trkpt lat="47.13695" lon="-1.72461">
        <ele>73</ele>
        <time>2022-10-22T11:45:27Z</time>
      </trkpt>
      <trkpt lat="47.13691" lon="-1.72475">
        <ele>73</ele>
        <time>2022-10-22T11:45:29Z</time>
      </trkpt>
      <trkpt lat="47.13687" lon="-1.72491">
        <ele>73</ele>
        <time>2022-10-22T11:45:31Z</time>
      </trkpt>
      <trkpt lat="47.13684" lon="-1.72507">
        <ele>73</ele>
        <time>2022-10-22T11:45:33Z</time>
      </trkpt>
      <trkpt lat="47.13681" lon="-1.72523">
        <ele>73</ele>
        <time>2022-10-22T11:45:35Z</time>
      </trkpt>
      <trkpt lat="47.13679" lon="-1.72542">
        <ele>73</ele>
        <time>2022-10-22T11:45:37Z</time>
      </trkpt>
      <trkpt lat="47.13678" lon="-1.7256">
        <ele>72</ele>
        <time>2022-10-22T11:45:39Z</time>
      </trkpt>
      <trkpt lat="47.13678" lon="-1.72577">
        <ele>73</ele>
        <time>2022-10-22T11:45:41Z</time>
      </trkpt>
      <trkpt lat="47.13677" lon="-1.72594">
        <ele>73</ele>
        <time>2022-10-22T11:45:43Z</time>
      </trkpt>
      <trkpt lat="47.13676" lon="-1.7261">
        <ele>73</ele>
        <time>2022-10-22T11:45:45Z</time>
      </trkpt>
      <trkpt lat="47.13674" lon="-1.72626">
        <ele>73</ele>
        <time>2022-10-22T11:45:47Z</time>
      </trkpt>
      <trkpt lat="47.13671" lon="-1.72642">
        <ele>73</ele>
        <time>2022-10-22T11:45:49Z</time>
      </trkpt>
      <trkpt lat="47.13668" lon="-1.72657">
        <ele>74</ele>
        <time>2022-10-22T11:45:51Z</time>
      </trkpt>
      <trkpt lat="47.13665" lon="-1.72673">
        <ele>74</ele>
        <time>2022-10-22T11:45:53Z</time>
      </trkpt>
      <trkpt lat="47.13663" lon="-1.72688">
        <ele>74</ele>
        <time>2022-10-22T11:45:55Z</time>
      </trkpt>
      <trkpt lat="47.13662" lon="-1.72705">
        <ele>74</ele>
        <time>2022-10-22T11:45:57Z</time>
      </trkpt>
      <trkpt lat="47.1366" lon="-1.72721">
        <ele>74</ele>
        <time>2022-10-22T11:45:59Z</time>
      </trkpt>
      <trkpt lat="47.13658" lon="-1.72737">
        <ele>74</ele>
        <time>2022-10-22T11:46:01Z</time>
      </trkpt>
      <trkpt lat="47.13657" lon="-1.72754">
        <ele>74</ele>
        <time>2022-10-22T11:46:03Z</time>
      </trkpt>
      <trkpt lat="47.13655" lon="-1.72771">
        <ele>75</ele>
        <time>2022-10-22T11:46:05Z</time>
      </trkpt>
      <trkpt lat="47.13654" lon="-1.72788">
        <ele>74</ele>
        <time>2022-10-22T11:46:07Z</time>
      </trkpt>
      <trkpt lat="47.13653" lon="-1.72805">
        <ele>74</ele>
        <time>2022-10-22T11:46:09Z</time>
      </trkpt>
      <trkpt lat="47.13653" lon="-1.72823">
        <ele>74</ele>
        <time>2022-10-22T11:46:11Z</time>
      </trkpt>
      <trkpt lat="47.13651" lon="-1.72841">
        <ele>73</ele>
        <time>2022-10-22T11:46:13Z</time>
      </trkpt>
      <trkpt lat="47.13649" lon="-1.7286">
        <ele>73</ele>
        <time>2022-10-22T11:46:15Z</time>
      </trkpt>
      <trkpt lat="47.13647" lon="-1.7288">
        <ele>73</ele>
        <time>2022-10-22T11:46:17Z</time>
      </trkpt>
      <trkpt lat="47.13644" lon="-1.72903">
        <ele>73</ele>
        <time>2022-10-22T11:46:19Z</time>
      </trkpt>
      <trkpt lat="47.13642" lon="-1.72927">
        <ele>72</ele>
        <time>2022-10-22T11:46:21Z</time>
      </trkpt>
      <trkpt lat="47.1364" lon="-1.72952">
        <ele>71</ele>
        <time>2022-10-22T11:46:23Z</time>
      </trkpt>
      <trkpt lat="47.1364" lon="-1.72978">
        <ele>69</ele>
        <time>2022-10-22T11:46:25Z</time>
      </trkpt>
      <trkpt lat="47.13638" lon="-1.73004">
        <ele>68</ele>
        <time>2022-10-22T11:46:27Z</time>
      </trkpt>
      <trkpt lat="47.13632" lon="-1.73029">
        <ele>67</ele>
        <time>2022-10-22T11:46:29Z</time>
      </trkpt>
      <trkpt lat="47.13627" lon="-1.7304">
        <ele>66</ele>
        <time>2022-10-22T11:46:30Z</time>
      </trkpt>
      <trkpt lat="47.13614" lon="-1.73054">
        <ele>64</ele>
        <time>2022-10-22T11:46:32Z</time>
      </trkpt>
      <trkpt lat="47.13599" lon="-1.73066">
        <ele>63</ele>
        <time>2022-10-22T11:46:34Z</time>
      </trkpt>
      <trkpt lat="47.13585" lon="-1.73077">
        <ele>63</ele>
        <time>2022-10-22T11:46:36Z</time>
      </trkpt>
      <trkpt lat="47.13571" lon="-1.73087">
        <ele>63</ele>
        <time>2022-10-22T11:46:38Z</time>
      </trkpt>
      <trkpt lat="47.13559" lon="-1.731">
        <ele>63</ele>
        <time>2022-10-22T11:46:40Z</time>
      </trkpt>
      <trkpt lat="47.13548" lon="-1.73113">
        <ele>62</ele>
        <time>2022-10-22T11:46:42Z</time>
      </trkpt>
      <trkpt lat="47.13535" lon="-1.73125">
        <ele>62</ele>
        <time>2022-10-22T11:46:44Z</time>
      </trkpt>
      <trkpt lat="47.13524" lon="-1.7314">
        <ele>61</ele>
        <time>2022-10-22T11:46:46Z</time>
      </trkpt>
      <trkpt lat="47.13514" lon="-1.73157">
        <ele>61</ele>
        <time>2022-10-22T11:46:48Z</time>
      </trkpt>
      <trkpt lat="47.1351" lon="-1.73178">
        <ele>61</ele>
        <time>2022-10-22T11:46:50Z</time>
      </trkpt>
      <trkpt lat="47.13507" lon="-1.73199">
        <ele>60</ele>
        <time>2022-10-22T11:46:52Z</time>
      </trkpt>
      <trkpt lat="47.13505" lon="-1.7322">
        <ele>60</ele>
        <time>2022-10-22T11:46:54Z</time>
      </trkpt>
      <trkpt lat="47.13502" lon="-1.73242">
        <ele>60</ele>
        <time>2022-10-22T11:46:56Z</time>
      </trkpt>
      <trkpt lat="47.135" lon="-1.73263">
        <ele>60</ele>
        <time>2022-10-22T11:46:58Z</time>
      </trkpt>
      <trkpt lat="47.13499" lon="-1.73285">
        <ele>60</ele>
        <time>2022-10-22T11:47:00Z</time>
      </trkpt>
      <trkpt lat="47.13503" lon="-1.73306">
        <ele>60</ele>
        <time>2022-10-22T11:47:02Z</time>
      </trkpt>
      <trkpt lat="47.13508" lon="-1.73326">
        <ele>60</ele>
        <time>2022-10-22T11:47:04Z</time>
      </trkpt>
      <trkpt lat="47.13513" lon="-1.73345">
        <ele>61</ele>
        <time>2022-10-22T11:47:06Z</time>
      </trkpt>
      <trkpt lat="47.13518" lon="-1.73361">
        <ele>61</ele>
        <time>2022-10-22T11:47:08Z</time>
      </trkpt>
      <trkpt lat="47.13524" lon="-1.73376">
        <ele>62</ele>
        <time>2022-10-22T11:47:10Z</time>
      </trkpt>
      <trkpt lat="47.1353" lon="-1.73391">
        <ele>62</ele>
        <time>2022-10-22T11:47:12Z</time>
      </trkpt>
      <trkpt lat="47.13534" lon="-1.73407">
        <ele>63</ele>
        <time>2022-10-22T11:47:14Z</time>
      </trkpt>
      <trkpt lat="47.13538" lon="-1.73422">
        <ele>63</ele>
        <time>2022-10-22T11:47:16Z</time>
      </trkpt>
      <trkpt lat="47.13543" lon="-1.73437">
        <ele>64</ele>
        <time>2022-10-22T11:47:18Z</time>
      </trkpt>
      <trkpt lat="47.13548" lon="-1.73453">
        <ele>64</ele>
        <time>2022-10-22T11:47:20Z</time>
      </trkpt>
      <trkpt lat="47.13552" lon="-1.73469">
        <ele>64</ele>
        <time>2022-10-22T11:47:22Z</time>
      </trkpt>
      <trkpt lat="47.13557" lon="-1.73485">
        <ele>65</ele>
        <time>2022-10-22T11:47:24Z</time>
      </trkpt>
      <trkpt lat="47.13561" lon="-1.73501">
        <ele>65</ele>
        <time>2022-10-22T11:47:26Z</time>
      </trkpt>
      <trkpt lat="47.13566" lon="-1.73518">
        <ele>65</ele>
        <time>2022-10-22T11:47:28Z</time>
      </trkpt>
      <trkpt lat="47.13571" lon="-1.73535">
        <ele>65</ele>
        <time>2022-10-22T11:47:30Z</time>
      </trkpt>
      <trkpt lat="47.13576" lon="-1.73552">
        <ele>65</ele>
        <time>2022-10-22T11:47:32Z</time>
      </trkpt>
      <trkpt lat="47.13582" lon="-1.73569">
        <ele>65</ele>
        <time>2022-10-22T11:47:34Z</time>
      </trkpt>
      <trkpt lat="47.13588" lon="-1.73586">
        <ele>65</ele>
        <time>2022-10-22T11:47:36Z</time>
      </trkpt>
      <trkpt lat="47.13595" lon="-1.73602">
        <ele>65</ele>
        <time>2022-10-22T11:47:38Z</time>
      </trkpt>
      <trkpt lat="47.13601" lon="-1.73619">
        <ele>65</ele>
        <time>2022-10-22T11:47:40Z</time>
      </trkpt>
      <trkpt lat="47.13607" lon="-1.73636">
        <ele>65</ele>
        <time>2022-10-22T11:47:42Z</time>
      </trkpt>
      <trkpt lat="47.13613" lon="-1.73654">
        <ele>65</ele>
        <time>2022-10-22T11:47:44Z</time>
      </trkpt>
      <trkpt lat="47.13619" lon="-1.73671">
        <ele>65</ele>
        <time>2022-10-22T11:47:46Z</time>
      </trkpt>
      <trkpt lat="47.13624" lon="-1.73689">
        <ele>65</ele>
        <time>2022-10-22T11:47:48Z</time>
      </trkpt>
      <trkpt lat="47.13628" lon="-1.73706">
        <ele>65</ele>
        <time>2022-10-22T11:47:50Z</time>
      </trkpt>
      <trkpt lat="47.1363" lon="-1.73723">
        <ele>65</ele>
        <time>2022-10-22T11:47:52Z</time>
      </trkpt>
      <trkpt lat="47.13631" lon="-1.73741">
        <ele>65</ele>
        <time>2022-10-22T11:47:54Z</time>
      </trkpt>
      <trkpt lat="47.13631" lon="-1.7376">
        <ele>64</ele>
        <time>2022-10-22T11:47:56Z</time>
      </trkpt>
      <trkpt lat="47.13632" lon="-1.7378">
        <ele>64</ele>
        <time>2022-10-22T11:47:58Z</time>
      </trkpt>
      <trkpt lat="47.13634" lon="-1.73803">
        <ele>64</ele>
        <time>2022-10-22T11:48:00Z</time>
      </trkpt>
      <trkpt lat="47.13635" lon="-1.73825">
        <ele>64</ele>
        <time>2022-10-22T11:48:02Z</time>
      </trkpt>
      <trkpt lat="47.13636" lon="-1.73846">
        <ele>64</ele>
        <time>2022-10-22T11:48:04Z</time>
      </trkpt>
      <trkpt lat="47.13638" lon="-1.73867">
        <ele>63</ele>
        <time>2022-10-22T11:48:06Z</time>
      </trkpt>
      <trkpt lat="47.1364" lon="-1.73887">
        <ele>62</ele>
        <time>2022-10-22T11:48:08Z</time>
      </trkpt>
      <trkpt lat="47.13642" lon="-1.73905">
        <ele>63</ele>
        <time>2022-10-22T11:48:10Z</time>
      </trkpt>
      <trkpt lat="47.13644" lon="-1.73921">
        <ele>63</ele>
        <time>2022-10-22T11:48:12Z</time>
      </trkpt>
      <trkpt lat="47.13645" lon="-1.73937">
        <ele>63</ele>
        <time>2022-10-22T11:48:14Z</time>
      </trkpt>
      <trkpt lat="47.13646" lon="-1.73951">
        <ele>63</ele>
        <time>2022-10-22T11:48:16Z</time>
      </trkpt>
      <trkpt lat="47.13646" lon="-1.73965">
        <ele>64</ele>
        <time>2022-10-22T11:48:18Z</time>
      </trkpt>
      <trkpt lat="47.13646" lon="-1.73978">
        <ele>64</ele>
        <time>2022-10-22T11:48:20Z</time>
      </trkpt>
      <trkpt lat="47.13645" lon="-1.73992">
        <ele>64</ele>
        <time>2022-10-22T11:48:22Z</time>
      </trkpt>
      <trkpt lat="47.13644" lon="-1.74005">
        <ele>64</ele>
        <time>2022-10-22T11:48:24Z</time>
      </trkpt>
      <trkpt lat="47.13643" lon="-1.74019">
        <ele>65</ele>
        <time>2022-10-22T11:48:26Z</time>
      </trkpt>
      <trkpt lat="47.13642" lon="-1.74033">
        <ele>65</ele>
        <time>2022-10-22T11:48:28Z</time>
      </trkpt>
      <trkpt lat="47.1364" lon="-1.74046">
        <ele>65</ele>
        <time>2022-10-22T11:48:30Z</time>
      </trkpt>
      <trkpt lat="47.1364" lon="-1.7406">
        <ele>66</ele>
        <time>2022-10-22T11:48:32Z</time>
      </trkpt>
      <trkpt lat="47.13639" lon="-1.74074">
        <ele>66</ele>
        <time>2022-10-22T11:48:34Z</time>
      </trkpt>
      <trkpt lat="47.13639" lon="-1.74089">
        <ele>66</ele>
        <time>2022-10-22T11:48:36Z</time>
      </trkpt>
      <trkpt lat="47.1364" lon="-1.74103">
        <ele>66</ele>
        <time>2022-10-22T11:48:38Z</time>
      </trkpt>
      <trkpt lat="47.13641" lon="-1.74117">
        <ele>66</ele>
        <time>2022-10-22T11:48:40Z</time>
      </trkpt>
      <trkpt lat="47.13643" lon="-1.74131">
        <ele>67</ele>
        <time>2022-10-22T11:48:42Z</time>
      </trkpt>
      <trkpt lat="47.13646" lon="-1.74147">
        <ele>67</ele>
        <time>2022-10-22T11:48:44Z</time>
      </trkpt>
      <trkpt lat="47.13649" lon="-1.74162">
        <ele>67</ele>
        <time>2022-10-22T11:48:46Z</time>
      </trkpt>
      <trkpt lat="47.13653" lon="-1.74178">
        <ele>67</ele>
        <time>2022-10-22T11:48:48Z</time>
      </trkpt>
      <trkpt lat="47.13656" lon="-1.74194">
        <ele>67</ele>
        <time>2022-10-22T11:48:50Z</time>
      </trkpt>
      <trkpt lat="47.1366" lon="-1.74211">
        <ele>68</ele>
        <time>2022-10-22T11:48:52Z</time>
      </trkpt>
      <trkpt lat="47.13664" lon="-1.74228">
        <ele>68</ele>
        <time>2022-10-22T11:48:54Z</time>
      </trkpt>
      <trkpt lat="47.13668" lon="-1.74245">
        <ele>68</ele>
        <time>2022-10-22T11:48:56Z</time>
      </trkpt>
      <trkpt lat="47.13673" lon="-1.74263">
        <ele>67</ele>
        <time>2022-10-22T11:48:58Z</time>
      </trkpt>
      <trkpt lat="47.13679" lon="-1.74281">
        <ele>67</ele>
        <time>2022-10-22T11:49:00Z</time>
      </trkpt>
      <trkpt lat="47.13686" lon="-1.74299">
        <ele>67</ele>
        <time>2022-10-22T11:49:02Z</time>
      </trkpt>
      <trkpt lat="47.13691" lon="-1.7432">
        <ele>66</ele>
        <time>2022-10-22T11:49:04Z</time>
      </trkpt>
      <trkpt lat="47.13692" lon="-1.74342">
        <ele>65</ele>
        <time>2022-10-22T11:49:06Z</time>
      </trkpt>
      <trkpt lat="47.13693" lon="-1.74366">
        <ele>64</ele>
        <time>2022-10-22T11:49:08Z</time>
      </trkpt>
      <trkpt lat="47.13693" lon="-1.74392">
        <ele>63</ele>
        <time>2022-10-22T11:49:10Z</time>
      </trkpt>
      <trkpt lat="47.13693" lon="-1.74418">
        <ele>62</ele>
        <time>2022-10-22T11:49:12Z</time>
      </trkpt>
      <trkpt lat="47.13693" lon="-1.74431">
        <ele>62</ele>
        <time>2022-10-22T11:49:13Z</time>
      </trkpt>
      <trkpt lat="47.13692" lon="-1.74445">
        <ele>62</ele>
        <time>2022-10-22T11:49:14Z</time>
      </trkpt>
      <trkpt lat="47.13681" lon="-1.74465">
        <ele>61</ele>
        <time>2022-10-22T11:49:16Z</time>
      </trkpt>
      <trkpt lat="47.13674" lon="-1.74473">
        <ele>60</ele>
        <time>2022-10-22T11:49:17Z</time>
      </trkpt>
      <trkpt lat="47.1366" lon="-1.74489">
        <ele>60</ele>
        <time>2022-10-22T11:49:19Z</time>
      </trkpt>
      <trkpt lat="47.13647" lon="-1.74501">
        <ele>59</ele>
        <time>2022-10-22T11:49:21Z</time>
      </trkpt>
      <trkpt lat="47.13636" lon="-1.74513">
        <ele>59</ele>
        <time>2022-10-22T11:49:23Z</time>
      </trkpt>
      <trkpt lat="47.13625" lon="-1.74524">
        <ele>59</ele>
        <time>2022-10-22T11:49:25Z</time>
      </trkpt>
      <trkpt lat="47.13615" lon="-1.74535">
        <ele>58</ele>
        <time>2022-10-22T11:49:27Z</time>
      </trkpt>
      <trkpt lat="47.13604" lon="-1.74546">
        <ele>58</ele>
        <time>2022-10-22T11:49:29Z</time>
      </trkpt>
      <trkpt lat="47.13593" lon="-1.74557">
        <ele>57</ele>
        <time>2022-10-22T11:49:31Z</time>
      </trkpt>
      <trkpt lat="47.1358" lon="-1.74568">
        <ele>57</ele>
        <time>2022-10-22T11:49:33Z</time>
      </trkpt>
      <trkpt lat="47.13567" lon="-1.7458">
        <ele>57</ele>
        <time>2022-10-22T11:49:35Z</time>
      </trkpt>
      <trkpt lat="47.13554" lon="-1.74594">
        <ele>57</ele>
        <time>2022-10-22T11:49:37Z</time>
      </trkpt>
      <trkpt lat="47.13542" lon="-1.74606">
        <ele>57</ele>
        <time>2022-10-22T11:49:39Z</time>
      </trkpt>
      <trkpt lat="47.1353" lon="-1.74618">
        <ele>57</ele>
        <time>2022-10-22T11:49:41Z</time>
      </trkpt>
      <trkpt lat="47.1352" lon="-1.74629">
        <ele>57</ele>
        <time>2022-10-22T11:49:43Z</time>
      </trkpt>
      <trkpt lat="47.13511" lon="-1.74638">
        <ele>58</ele>
        <time>2022-10-22T11:49:45Z</time>
      </trkpt>
      <trkpt lat="47.13503" lon="-1.74648">
        <ele>58</ele>
        <time>2022-10-22T11:49:47Z</time>
      </trkpt>
      <trkpt lat="47.13497" lon="-1.74658">
        <ele>59</ele>
        <time>2022-10-22T11:49:49Z</time>
      </trkpt>
      <trkpt lat="47.13489" lon="-1.74674">
        <ele>59</ele>
        <time>2022-10-22T11:49:52Z</time>
      </trkpt>
      <trkpt lat="47.13484" lon="-1.74693">
        <ele>59</ele>
        <time>2022-10-22T11:49:55Z</time>
      </trkpt>
      <trkpt lat="47.13477" lon="-1.74709">
        <ele>60</ele>
        <time>2022-10-22T11:49:58Z</time>
      </trkpt>
      <trkpt lat="47.13468" lon="-1.74724">
        <ele>60</ele>
        <time>2022-10-22T11:50:01Z</time>
      </trkpt>
      <trkpt lat="47.13458" lon="-1.74737">
        <ele>61</ele>
        <time>2022-10-22T11:50:04Z</time>
      </trkpt>
      <trkpt lat="47.13447" lon="-1.74747">
        <ele>61</ele>
        <time>2022-10-22T11:50:07Z</time>
      </trkpt>
      <trkpt lat="47.13436" lon="-1.74755">
        <ele>61</ele>
        <time>2022-10-22T11:50:10Z</time>
      </trkpt>
      <trkpt lat="47.13423" lon="-1.74761">
        <ele>61</ele>
        <time>2022-10-22T11:50:13Z</time>
      </trkpt>
      <trkpt lat="47.13412" lon="-1.74774">
        <ele>61</ele>
        <time>2022-10-22T11:50:16Z</time>
      </trkpt>
      <trkpt lat="47.13405" lon="-1.74784">
        <ele>61</ele>
        <time>2022-10-22T11:50:18Z</time>
      </trkpt>
      <trkpt lat="47.13394" lon="-1.74795">
        <ele>63</ele>
        <time>2022-10-22T11:50:21Z</time>
      </trkpt>
      <trkpt lat="47.13387" lon="-1.74805">
        <ele>64</ele>
        <time>2022-10-22T11:50:23Z</time>
      </trkpt>
      <trkpt lat="47.1338" lon="-1.74816">
        <ele>64</ele>
        <time>2022-10-22T11:50:25Z</time>
      </trkpt>
      <trkpt lat="47.13376" lon="-1.7483">
        <ele>64</ele>
        <time>2022-10-22T11:50:27Z</time>
      </trkpt>
      <trkpt lat="47.13372" lon="-1.74843">
        <ele>64</ele>
        <time>2022-10-22T11:50:29Z</time>
      </trkpt>
      <trkpt lat="47.13369" lon="-1.74857">
        <ele>65</ele>
        <time>2022-10-22T11:50:31Z</time>
      </trkpt>
      <trkpt lat="47.13366" lon="-1.7487">
        <ele>65</ele>
        <time>2022-10-22T11:50:33Z</time>
      </trkpt>
      <trkpt lat="47.13362" lon="-1.74883">
        <ele>65</ele>
        <time>2022-10-22T11:50:35Z</time>
      </trkpt>
      <trkpt lat="47.13358" lon="-1.74895">
        <ele>66</ele>
        <time>2022-10-22T11:50:37Z</time>
      </trkpt>
      <trkpt lat="47.13351" lon="-1.74912">
        <ele>67</ele>
        <time>2022-10-22T11:50:40Z</time>
      </trkpt>
      <trkpt lat="47.13346" lon="-1.74923">
        <ele>67</ele>
        <time>2022-10-22T11:50:42Z</time>
      </trkpt>
      <trkpt lat="47.13341" lon="-1.74936">
        <ele>67</ele>
        <time>2022-10-22T11:50:44Z</time>
      </trkpt>
      <trkpt lat="47.13336" lon="-1.74948">
        <ele>66</ele>
        <time>2022-10-22T11:50:46Z</time>
      </trkpt>
      <trkpt lat="47.13331" lon="-1.7496">
        <ele>66</ele>
        <time>2022-10-22T11:50:48Z</time>
      </trkpt>
      <trkpt lat="47.13323" lon="-1.74975">
        <ele>67</ele>
        <time>2022-10-22T11:50:51Z</time>
      </trkpt>
      <trkpt lat="47.13316" lon="-1.74985">
        <ele>67</ele>
        <time>2022-10-22T11:50:53Z</time>
      </trkpt>
      <trkpt lat="47.13308" lon="-1.74993">
        <ele>67</ele>
        <time>2022-10-22T11:50:55Z</time>
      </trkpt>
      <trkpt lat="47.133" lon="-1.75002">
        <ele>67</ele>
        <time>2022-10-22T11:50:57Z</time>
      </trkpt>
      <trkpt lat="47.13293" lon="-1.75011">
        <ele>67</ele>
        <time>2022-10-22T11:50:59Z</time>
      </trkpt>
      <trkpt lat="47.13285" lon="-1.75017">
        <ele>67</ele>
        <time>2022-10-22T11:51:01Z</time>
      </trkpt>
      <trkpt lat="47.13274" lon="-1.75026">
        <ele>68</ele>
        <time>2022-10-22T11:51:04Z</time>
      </trkpt>
      <trkpt lat="47.13263" lon="-1.75035">
        <ele>69</ele>
        <time>2022-10-22T11:51:07Z</time>
      </trkpt>
      <trkpt lat="47.13251" lon="-1.75044">
        <ele>69</ele>
        <time>2022-10-22T11:51:10Z</time>
      </trkpt>
      <trkpt lat="47.13243" lon="-1.75051">
        <ele>69</ele>
        <time>2022-10-22T11:51:12Z</time>
      </trkpt>
      <trkpt lat="47.13232" lon="-1.75062">
        <ele>69</ele>
        <time>2022-10-22T11:51:15Z</time>
      </trkpt>
      <trkpt lat="47.13224" lon="-1.75069">
        <ele>69</ele>
        <time>2022-10-22T11:51:17Z</time>
      </trkpt>
      <trkpt lat="47.13213" lon="-1.75081">
        <ele>69</ele>
        <time>2022-10-22T11:51:20Z</time>
      </trkpt>
      <trkpt lat="47.13204" lon="-1.75096">
        <ele>69</ele>
        <time>2022-10-22T11:51:23Z</time>
      </trkpt>
      <trkpt lat="47.13195" lon="-1.75111">
        <ele>70</ele>
        <time>2022-10-22T11:51:26Z</time>
      </trkpt>
      <trkpt lat="47.13189" lon="-1.75121">
        <ele>71</ele>
        <time>2022-10-22T11:51:28Z</time>
      </trkpt>
      <trkpt lat="47.13183" lon="-1.75133">
        <ele>71</ele>
        <time>2022-10-22T11:51:30Z</time>
      </trkpt>
      <trkpt lat="47.13178" lon="-1.75144">
        <ele>71</ele>
        <time>2022-10-22T11:51:32Z</time>
      </trkpt>
      <trkpt lat="47.13173" lon="-1.75156">
        <ele>72</ele>
        <time>2022-10-22T11:51:34Z</time>
      </trkpt>
      <trkpt lat="47.13169" lon="-1.75169">
        <ele>72</ele>
        <time>2022-10-22T11:51:36Z</time>
      </trkpt>
      <trkpt lat="47.13164" lon="-1.75182">
        <ele>72</ele>
        <time>2022-10-22T11:51:38Z</time>
      </trkpt>
      <trkpt lat="47.1316" lon="-1.75195">
        <ele>72</ele>
        <time>2022-10-22T11:51:40Z</time>
      </trkpt>
      <trkpt lat="47.13156" lon="-1.75209">
        <ele>72</ele>
        <time>2022-10-22T11:51:42Z</time>
      </trkpt>
      <trkpt lat="47.13153" lon="-1.75224">
        <ele>71</ele>
        <time>2022-10-22T11:51:44Z</time>
      </trkpt>
      <trkpt lat="47.13151" lon="-1.75237">
        <ele>72</ele>
        <time>2022-10-22T11:51:46Z</time>
      </trkpt>
      <trkpt lat="47.13149" lon="-1.75251">
        <ele>72</ele>
        <time>2022-10-22T11:51:48Z</time>
      </trkpt>
      <trkpt lat="47.13147" lon="-1.75264">
        <ele>72</ele>
        <time>2022-10-22T11:51:50Z</time>
      </trkpt>
      <trkpt lat="47.13146" lon="-1.75278">
        <ele>72</ele>
        <time>2022-10-22T11:51:52Z</time>
      </trkpt>
      <trkpt lat="47.13145" lon="-1.75292">
        <ele>72</ele>
        <time>2022-10-22T11:51:54Z</time>
      </trkpt>
      <trkpt lat="47.13141" lon="-1.75305">
        <ele>72</ele>
        <time>2022-10-22T11:51:56Z</time>
      </trkpt>
      <trkpt lat="47.13137" lon="-1.75318">
        <ele>72</ele>
        <time>2022-10-22T11:51:58Z</time>
      </trkpt>
      <trkpt lat="47.13133" lon="-1.7533">
        <ele>72</ele>
        <time>2022-10-22T11:52:00Z</time>
      </trkpt>
      <trkpt lat="47.1313" lon="-1.75343">
        <ele>73</ele>
        <time>2022-10-22T11:52:02Z</time>
      </trkpt>
      <trkpt lat="47.13128" lon="-1.75357">
        <ele>73</ele>
        <time>2022-10-22T11:52:04Z</time>
      </trkpt>
      <trkpt lat="47.13124" lon="-1.75376">
        <ele>74</ele>
        <time>2022-10-22T11:52:07Z</time>
      </trkpt>
      <trkpt lat="47.1312" lon="-1.75394">
        <ele>74</ele>
        <time>2022-10-22T11:52:10Z</time>
      </trkpt>
      <trkpt lat="47.13115" lon="-1.75411">
        <ele>75</ele>
        <time>2022-10-22T11:52:13Z</time>
      </trkpt>
      <trkpt lat="47.13113" lon="-1.7543">
        <ele>75</ele>
        <time>2022-10-22T11:52:16Z</time>
      </trkpt>
      <trkpt lat="47.13111" lon="-1.75442">
        <ele>76</ele>
        <time>2022-10-22T11:52:18Z</time>
      </trkpt>
      <trkpt lat="47.13108" lon="-1.75455">
        <ele>76</ele>
        <time>2022-10-22T11:52:20Z</time>
      </trkpt>
      <trkpt lat="47.13106" lon="-1.75469">
        <ele>76</ele>
        <time>2022-10-22T11:52:22Z</time>
      </trkpt>
      <trkpt lat="47.13105" lon="-1.75483">
        <ele>77</ele>
        <time>2022-10-22T11:52:24Z</time>
      </trkpt>
      <trkpt lat="47.13104" lon="-1.75497">
        <ele>77</ele>
        <time>2022-10-22T11:52:26Z</time>
      </trkpt>
      <trkpt lat="47.13102" lon="-1.75511">
        <ele>78</ele>
        <time>2022-10-22T11:52:28Z</time>
      </trkpt>
      <trkpt lat="47.131" lon="-1.75526">
        <ele>78</ele>
        <time>2022-10-22T11:52:30Z</time>
      </trkpt>
      <trkpt lat="47.13097" lon="-1.75538">
        <ele>78</ele>
        <time>2022-10-22T11:52:32Z</time>
      </trkpt>
      <trkpt lat="47.13095" lon="-1.75551">
        <ele>79</ele>
        <time>2022-10-22T11:52:34Z</time>
      </trkpt>
      <trkpt lat="47.13092" lon="-1.75565">
        <ele>79</ele>
        <time>2022-10-22T11:52:36Z</time>
      </trkpt>
      <trkpt lat="47.1309" lon="-1.75578">
        <ele>79</ele>
        <time>2022-10-22T11:52:38Z</time>
      </trkpt>
      <trkpt lat="47.13088" lon="-1.75591">
        <ele>79</ele>
        <time>2022-10-22T11:52:40Z</time>
      </trkpt>
      <trkpt lat="47.13085" lon="-1.75605">
        <ele>79</ele>
        <time>2022-10-22T11:52:42Z</time>
      </trkpt>
      <trkpt lat="47.13082" lon="-1.7562">
        <ele>79</ele>
        <time>2022-10-22T11:52:44Z</time>
      </trkpt>
      <trkpt lat="47.13079" lon="-1.75634">
        <ele>80</ele>
        <time>2022-10-22T11:52:46Z</time>
      </trkpt>
      <trkpt lat="47.13076" lon="-1.75651">
        <ele>80</ele>
        <time>2022-10-22T11:52:48Z</time>
      </trkpt>
      <trkpt lat="47.13074" lon="-1.75667">
        <ele>80</ele>
        <time>2022-10-22T11:52:50Z</time>
      </trkpt>
      <trkpt lat="47.13071" lon="-1.75684">
        <ele>80</ele>
        <time>2022-10-22T11:52:52Z</time>
      </trkpt>
      <trkpt lat="47.13067" lon="-1.757">
        <ele>80</ele>
        <time>2022-10-22T11:52:54Z</time>
      </trkpt>
      <trkpt lat="47.13063" lon="-1.75715">
        <ele>80</ele>
        <time>2022-10-22T11:52:56Z</time>
      </trkpt>
      <trkpt lat="47.13058" lon="-1.75728">
        <ele>80</ele>
        <time>2022-10-22T11:52:58Z</time>
      </trkpt>
      <trkpt lat="47.13052" lon="-1.75742">
        <ele>80</ele>
        <time>2022-10-22T11:53:00Z</time>
      </trkpt>
      <trkpt lat="47.13045" lon="-1.75753">
        <ele>81</ele>
        <time>2022-10-22T11:53:02Z</time>
      </trkpt>
      <trkpt lat="47.13036" lon="-1.75765">
        <ele>81</ele>
        <time>2022-10-22T11:53:04Z</time>
      </trkpt>
      <trkpt lat="47.13029" lon="-1.75776">
        <ele>81</ele>
        <time>2022-10-22T11:53:06Z</time>
      </trkpt>
      <trkpt lat="47.13022" lon="-1.75788">
        <ele>81</ele>
        <time>2022-10-22T11:53:08Z</time>
      </trkpt>
      <trkpt lat="47.13015" lon="-1.75801">
        <ele>81</ele>
        <time>2022-10-22T11:53:10Z</time>
      </trkpt>
      <trkpt lat="47.13008" lon="-1.75813">
        <ele>81</ele>
        <time>2022-10-22T11:53:12Z</time>
      </trkpt>
      <trkpt lat="47.13005" lon="-1.75829">
        <ele>81</ele>
        <time>2022-10-22T11:53:14Z</time>
      </trkpt>
      <trkpt lat="47.13006" lon="-1.75846">
        <ele>81</ele>
        <time>2022-10-22T11:53:16Z</time>
      </trkpt>
      <trkpt lat="47.13007" lon="-1.75863">
        <ele>81</ele>
        <time>2022-10-22T11:53:18Z</time>
      </trkpt>
      <trkpt lat="47.13007" lon="-1.7588">
        <ele>82</ele>
        <time>2022-10-22T11:53:20Z</time>
      </trkpt>
      <trkpt lat="47.13005" lon="-1.75896">
        <ele>82</ele>
        <time>2022-10-22T11:53:22Z</time>
      </trkpt>
      <trkpt lat="47.13002" lon="-1.75911">
        <ele>82</ele>
        <time>2022-10-22T11:53:24Z</time>
      </trkpt>
      <trkpt lat="47.12998" lon="-1.75927">
        <ele>83</ele>
        <time>2022-10-22T11:53:26Z</time>
      </trkpt>
      <trkpt lat="47.12995" lon="-1.75942">
        <ele>83</ele>
        <time>2022-10-22T11:53:28Z</time>
      </trkpt>
      <trkpt lat="47.12992" lon="-1.75958">
        <ele>84</ele>
        <time>2022-10-22T11:53:30Z</time>
      </trkpt>
      <trkpt lat="47.12989" lon="-1.75973">
        <ele>84</ele>
        <time>2022-10-22T11:53:32Z</time>
      </trkpt>
      <trkpt lat="47.12987" lon="-1.75988">
        <ele>84</ele>
        <time>2022-10-22T11:53:34Z</time>
      </trkpt>
      <trkpt lat="47.12985" lon="-1.76005">
        <ele>84</ele>
        <time>2022-10-22T11:53:36Z</time>
      </trkpt>
      <trkpt lat="47.12983" lon="-1.7602">
        <ele>84</ele>
        <time>2022-10-22T11:53:38Z</time>
      </trkpt>
      <trkpt lat="47.12982" lon="-1.76036">
        <ele>85</ele>
        <time>2022-10-22T11:53:40Z</time>
      </trkpt>
      <trkpt lat="47.12982" lon="-1.76052">
        <ele>85</ele>
        <time>2022-10-22T11:53:42Z</time>
      </trkpt>
      <trkpt lat="47.12982" lon="-1.76077">
        <ele>85</ele>
        <time>2022-10-22T11:53:45Z</time>
      </trkpt>
      <trkpt lat="47.12984" lon="-1.76101">
        <ele>86</ele>
        <time>2022-10-22T11:53:48Z</time>
      </trkpt>
      <trkpt lat="47.12986" lon="-1.76116">
        <ele>86</ele>
        <time>2022-10-22T11:53:50Z</time>
      </trkpt>
      <trkpt lat="47.12992" lon="-1.7614">
        <ele>86</ele>
        <time>2022-10-22T11:53:53Z</time>
      </trkpt>
      <trkpt lat="47.12996" lon="-1.76155">
        <ele>87</ele>
        <time>2022-10-22T11:53:55Z</time>
      </trkpt>
      <trkpt lat="47.13001" lon="-1.76171">
        <ele>87</ele>
        <time>2022-10-22T11:53:57Z</time>
      </trkpt>
      <trkpt lat="47.13005" lon="-1.76188">
        <ele>87</ele>
        <time>2022-10-22T11:53:59Z</time>
      </trkpt>
      <trkpt lat="47.13009" lon="-1.76204">
        <ele>87</ele>
        <time>2022-10-22T11:54:01Z</time>
      </trkpt>
      <trkpt lat="47.13016" lon="-1.7623">
        <ele>87</ele>
        <time>2022-10-22T11:54:04Z</time>
      </trkpt>
      <trkpt lat="47.1302" lon="-1.76247">
        <ele>88</ele>
        <time>2022-10-22T11:54:06Z</time>
      </trkpt>
      <trkpt lat="47.13024" lon="-1.76264">
        <ele>88</ele>
        <time>2022-10-22T11:54:08Z</time>
      </trkpt>
      <trkpt lat="47.13027" lon="-1.76281">
        <ele>87</ele>
        <time>2022-10-22T11:54:10Z</time>
      </trkpt>
      <trkpt lat="47.1303" lon="-1.76298">
        <ele>86</ele>
        <time>2022-10-22T11:54:12Z</time>
      </trkpt>
      <trkpt lat="47.13034" lon="-1.76316">
        <ele>86</ele>
        <time>2022-10-22T11:54:14Z</time>
      </trkpt>
      <trkpt lat="47.13037" lon="-1.76334">
        <ele>86</ele>
        <time>2022-10-22T11:54:16Z</time>
      </trkpt>
      <trkpt lat="47.13041" lon="-1.76352">
        <ele>86</ele>
        <time>2022-10-22T11:54:18Z</time>
      </trkpt>
      <trkpt lat="47.13045" lon="-1.76372">
        <ele>86</ele>
        <time>2022-10-22T11:54:20Z</time>
      </trkpt>
      <trkpt lat="47.13048" lon="-1.76391">
        <ele>86</ele>
        <time>2022-10-22T11:54:22Z</time>
      </trkpt>
      <trkpt lat="47.1305" lon="-1.7641">
        <ele>86</ele>
        <time>2022-10-22T11:54:24Z</time>
      </trkpt>
      <trkpt lat="47.13051" lon="-1.76429">
        <ele>85</ele>
        <time>2022-10-22T11:54:26Z</time>
      </trkpt>
      <trkpt lat="47.13053" lon="-1.76449">
        <ele>85</ele>
        <time>2022-10-22T11:54:28Z</time>
      </trkpt>
      <trkpt lat="47.13054" lon="-1.76469">
        <ele>85</ele>
        <time>2022-10-22T11:54:30Z</time>
      </trkpt>
      <trkpt lat="47.13055" lon="-1.76489">
        <ele>85</ele>
        <time>2022-10-22T11:54:32Z</time>
      </trkpt>
      <trkpt lat="47.13056" lon="-1.76508">
        <ele>85</ele>
        <time>2022-10-22T11:54:34Z</time>
      </trkpt>
      <trkpt lat="47.13057" lon="-1.76528">
        <ele>85</ele>
        <time>2022-10-22T11:54:36Z</time>
      </trkpt>
      <trkpt lat="47.13058" lon="-1.76547">
        <ele>85</ele>
        <time>2022-10-22T11:54:38Z</time>
      </trkpt>
      <trkpt lat="47.1306" lon="-1.76567">
        <ele>84</ele>
        <time>2022-10-22T11:54:40Z</time>
      </trkpt>
      <trkpt lat="47.13061" lon="-1.76585">
        <ele>84</ele>
        <time>2022-10-22T11:54:42Z</time>
      </trkpt>
      <trkpt lat="47.13062" lon="-1.76604">
        <ele>85</ele>
        <time>2022-10-22T11:54:44Z</time>
      </trkpt>
      <trkpt lat="47.13064" lon="-1.76622">
        <ele>85</ele>
        <time>2022-10-22T11:54:46Z</time>
      </trkpt>
      <trkpt lat="47.13066" lon="-1.7664">
        <ele>85</ele>
        <time>2022-10-22T11:54:48Z</time>
      </trkpt>
      <trkpt lat="47.13068" lon="-1.76658">
        <ele>85</ele>
        <time>2022-10-22T11:54:50Z</time>
      </trkpt>
      <trkpt lat="47.13069" lon="-1.76676">
        <ele>85</ele>
        <time>2022-10-22T11:54:52Z</time>
      </trkpt>
      <trkpt lat="47.13068" lon="-1.76695">
        <ele>85</ele>
        <time>2022-10-22T11:54:54Z</time>
      </trkpt>
      <trkpt lat="47.13066" lon="-1.76712">
        <ele>85</ele>
        <time>2022-10-22T11:54:56Z</time>
      </trkpt>
      <trkpt lat="47.13064" lon="-1.7673">
        <ele>85</ele>
        <time>2022-10-22T11:54:58Z</time>
      </trkpt>
      <trkpt lat="47.13062" lon="-1.76748">
        <ele>85</ele>
        <time>2022-10-22T11:55:00Z</time>
      </trkpt>
      <trkpt lat="47.13059" lon="-1.76766">
        <ele>85</ele>
        <time>2022-10-22T11:55:02Z</time>
      </trkpt>
      <trkpt lat="47.13057" lon="-1.76784">
        <ele>85</ele>
        <time>2022-10-22T11:55:04Z</time>
      </trkpt>
      <trkpt lat="47.13055" lon="-1.76802">
        <ele>86</ele>
        <time>2022-10-22T11:55:06Z</time>
      </trkpt>
      <trkpt lat="47.13053" lon="-1.76819">
        <ele>86</ele>
        <time>2022-10-22T11:55:08Z</time>
      </trkpt>
      <trkpt lat="47.13051" lon="-1.76836">
        <ele>86</ele>
        <time>2022-10-22T11:55:10Z</time>
      </trkpt>
      <trkpt lat="47.13049" lon="-1.76854">
        <ele>86</ele>
        <time>2022-10-22T11:55:12Z</time>
      </trkpt>
      <trkpt lat="47.13047" lon="-1.76871">
        <ele>85</ele>
        <time>2022-10-22T11:55:14Z</time>
      </trkpt>
      <trkpt lat="47.13045" lon="-1.76889">
        <ele>85</ele>
        <time>2022-10-22T11:55:16Z</time>
      </trkpt>
      <trkpt lat="47.13043" lon="-1.76907">
        <ele>86</ele>
        <time>2022-10-22T11:55:18Z</time>
      </trkpt>
      <trkpt lat="47.13042" lon="-1.76925">
        <ele>85</ele>
        <time>2022-10-22T11:55:20Z</time>
      </trkpt>
      <trkpt lat="47.13041" lon="-1.76943">
        <ele>85</ele>
        <time>2022-10-22T11:55:22Z</time>
      </trkpt>
      <trkpt lat="47.1304" lon="-1.76961">
        <ele>85</ele>
        <time>2022-10-22T11:55:24Z</time>
      </trkpt>
      <trkpt lat="47.13039" lon="-1.76979">
        <ele>86</ele>
        <time>2022-10-22T11:55:26Z</time>
      </trkpt>
      <trkpt lat="47.13038" lon="-1.76998">
        <ele>86</ele>
        <time>2022-10-22T11:55:28Z</time>
      </trkpt>
      <trkpt lat="47.13037" lon="-1.77016">
        <ele>86</ele>
        <time>2022-10-22T11:55:30Z</time>
      </trkpt>
      <trkpt lat="47.13036" lon="-1.77034">
        <ele>86</ele>
        <time>2022-10-22T11:55:32Z</time>
      </trkpt>
      <trkpt lat="47.13035" lon="-1.77051">
        <ele>86</ele>
        <time>2022-10-22T11:55:34Z</time>
      </trkpt>
      <trkpt lat="47.13033" lon="-1.77069">
        <ele>86</ele>
        <time>2022-10-22T11:55:36Z</time>
      </trkpt>
      <trkpt lat="47.13031" lon="-1.77086">
        <ele>86</ele>
        <time>2022-10-22T11:55:38Z</time>
      </trkpt>
      <trkpt lat="47.13029" lon="-1.77104">
        <ele>86</ele>
        <time>2022-10-22T11:55:40Z</time>
      </trkpt>
      <trkpt lat="47.13027" lon="-1.77122">
        <ele>87</ele>
        <time>2022-10-22T11:55:42Z</time>
      </trkpt>
      <trkpt lat="47.13025" lon="-1.77139">
        <ele>87</ele>
        <time>2022-10-22T11:55:44Z</time>
      </trkpt>
      <trkpt lat="47.13022" lon="-1.77157">
        <ele>87</ele>
        <time>2022-10-22T11:55:46Z</time>
      </trkpt>
      <trkpt lat="47.13018" lon="-1.77174">
        <ele>87</ele>
        <time>2022-10-22T11:55:48Z</time>
      </trkpt>
      <trkpt lat="47.13014" lon="-1.7719">
        <ele>88</ele>
        <time>2022-10-22T11:55:50Z</time>
      </trkpt>
      <trkpt lat="47.1301" lon="-1.77207">
        <ele>88</ele>
        <time>2022-10-22T11:55:52Z</time>
      </trkpt>
      <trkpt lat="47.13006" lon="-1.77223">
        <ele>88</ele>
        <time>2022-10-22T11:55:54Z</time>
      </trkpt>
      <trkpt lat="47.13001" lon="-1.77239">
        <ele>88</ele>
        <time>2022-10-22T11:55:56Z</time>
      </trkpt>
      <trkpt lat="47.12996" lon="-1.77254">
        <ele>88</ele>
        <time>2022-10-22T11:55:58Z</time>
      </trkpt>
      <trkpt lat="47.12991" lon="-1.77269">
        <ele>88</ele>
        <time>2022-10-22T11:56:00Z</time>
      </trkpt>
      <trkpt lat="47.12986" lon="-1.77285">
        <ele>88</ele>
        <time>2022-10-22T11:56:02Z</time>
      </trkpt>
      <trkpt lat="47.1298" lon="-1.77301">
        <ele>88</ele>
        <time>2022-10-22T11:56:04Z</time>
      </trkpt>
      <trkpt lat="47.12974" lon="-1.77316">
        <ele>88</ele>
        <time>2022-10-22T11:56:06Z</time>
      </trkpt>
      <trkpt lat="47.12968" lon="-1.77331">
        <ele>88</ele>
        <time>2022-10-22T11:56:08Z</time>
      </trkpt>
      <trkpt lat="47.12962" lon="-1.77345">
        <ele>88</ele>
        <time>2022-10-22T11:56:10Z</time>
      </trkpt>
      <trkpt lat="47.12955" lon="-1.7736">
        <ele>88</ele>
        <time>2022-10-22T11:56:12Z</time>
      </trkpt>
      <trkpt lat="47.12949" lon="-1.77375">
        <ele>88</ele>
        <time>2022-10-22T11:56:14Z</time>
      </trkpt>
      <trkpt lat="47.12943" lon="-1.7739">
        <ele>88</ele>
        <time>2022-10-22T11:56:16Z</time>
      </trkpt>
      <trkpt lat="47.12937" lon="-1.77405">
        <ele>88</ele>
        <time>2022-10-22T11:56:18Z</time>
      </trkpt>
      <trkpt lat="47.12931" lon="-1.77421">
        <ele>88</ele>
        <time>2022-10-22T11:56:20Z</time>
      </trkpt>
      <trkpt lat="47.12925" lon="-1.77437">
        <ele>88</ele>
        <time>2022-10-22T11:56:22Z</time>
      </trkpt>
      <trkpt lat="47.1292" lon="-1.77455">
        <ele>88</ele>
        <time>2022-10-22T11:56:24Z</time>
      </trkpt>
      <trkpt lat="47.12916" lon="-1.77472">
        <ele>88</ele>
        <time>2022-10-22T11:56:26Z</time>
      </trkpt>
      <trkpt lat="47.12911" lon="-1.77489">
        <ele>88</ele>
        <time>2022-10-22T11:56:28Z</time>
      </trkpt>
      <trkpt lat="47.12907" lon="-1.77506">
        <ele>88</ele>
        <time>2022-10-22T11:56:30Z</time>
      </trkpt>
      <trkpt lat="47.12903" lon="-1.77523">
        <ele>88</ele>
        <time>2022-10-22T11:56:32Z</time>
      </trkpt>
      <trkpt lat="47.12899" lon="-1.77538">
        <ele>88</ele>
        <time>2022-10-22T11:56:34Z</time>
      </trkpt>
      <trkpt lat="47.12895" lon="-1.77554">
        <ele>88</ele>
        <time>2022-10-22T11:56:36Z</time>
      </trkpt>
      <trkpt lat="47.1289" lon="-1.7757">
        <ele>88</ele>
        <time>2022-10-22T11:56:38Z</time>
      </trkpt>
      <trkpt lat="47.12885" lon="-1.77584">
        <ele>88</ele>
        <time>2022-10-22T11:56:40Z</time>
      </trkpt>
      <trkpt lat="47.1288" lon="-1.77598">
        <ele>88</ele>
        <time>2022-10-22T11:56:42Z</time>
      </trkpt>
      <trkpt lat="47.12875" lon="-1.77613">
        <ele>88</ele>
        <time>2022-10-22T11:56:44Z</time>
      </trkpt>
      <trkpt lat="47.1287" lon="-1.77628">
        <ele>88</ele>
        <time>2022-10-22T11:56:46Z</time>
      </trkpt>
      <trkpt lat="47.12866" lon="-1.77641">
        <ele>88</ele>
        <time>2022-10-22T11:56:48Z</time>
      </trkpt>
      <trkpt lat="47.12861" lon="-1.77656">
        <ele>88</ele>
        <time>2022-10-22T11:56:50Z</time>
      </trkpt>
      <trkpt lat="47.12856" lon="-1.77669">
        <ele>88</ele>
        <time>2022-10-22T11:56:52Z</time>
      </trkpt>
      <trkpt lat="47.12852" lon="-1.77684">
        <ele>87</ele>
        <time>2022-10-22T11:56:54Z</time>
      </trkpt>
      <trkpt lat="47.12847" lon="-1.77699">
        <ele>88</ele>
        <time>2022-10-22T11:56:56Z</time>
      </trkpt>
      <trkpt lat="47.12842" lon="-1.77717">
        <ele>89</ele>
        <time>2022-10-22T11:56:58Z</time>
      </trkpt>
      <trkpt lat="47.12837" lon="-1.77734">
        <ele>88</ele>
        <time>2022-10-22T11:57:00Z</time>
      </trkpt>
      <trkpt lat="47.12832" lon="-1.77752">
        <ele>88</ele>
        <time>2022-10-22T11:57:02Z</time>
      </trkpt>
      <trkpt lat="47.12827" lon="-1.7777">
        <ele>90</ele>
        <time>2022-10-22T11:57:04Z</time>
      </trkpt>
      <trkpt lat="47.12821" lon="-1.77789">
        <ele>90</ele>
        <time>2022-10-22T11:57:06Z</time>
      </trkpt>
      <trkpt lat="47.12816" lon="-1.77808">
        <ele>90</ele>
        <time>2022-10-22T11:57:08Z</time>
      </trkpt>
      <trkpt lat="47.1281" lon="-1.77827">
        <ele>90</ele>
        <time>2022-10-22T11:57:10Z</time>
      </trkpt>
      <trkpt lat="47.12805" lon="-1.77845">
        <ele>90</ele>
        <time>2022-10-22T11:57:12Z</time>
      </trkpt>
      <trkpt lat="47.128" lon="-1.77863">
        <ele>90</ele>
        <time>2022-10-22T11:57:14Z</time>
      </trkpt>
      <trkpt lat="47.12796" lon="-1.77881">
        <ele>89</ele>
        <time>2022-10-22T11:57:16Z</time>
      </trkpt>
      <trkpt lat="47.12791" lon="-1.77898">
        <ele>89</ele>
        <time>2022-10-22T11:57:18Z</time>
      </trkpt>
      <trkpt lat="47.12787" lon="-1.77914">
        <ele>89</ele>
        <time>2022-10-22T11:57:20Z</time>
      </trkpt>
      <trkpt lat="47.12782" lon="-1.77931">
        <ele>89</ele>
        <time>2022-10-22T11:57:22Z</time>
      </trkpt>
      <trkpt lat="47.12778" lon="-1.77949">
        <ele>88</ele>
        <time>2022-10-22T11:57:24Z</time>
      </trkpt>
      <trkpt lat="47.12773" lon="-1.77966">
        <ele>88</ele>
        <time>2022-10-22T11:57:26Z</time>
      </trkpt>
      <trkpt lat="47.12768" lon="-1.77985">
        <ele>88</ele>
        <time>2022-10-22T11:57:28Z</time>
      </trkpt>
      <trkpt lat="47.12763" lon="-1.78002">
        <ele>88</ele>
        <time>2022-10-22T11:57:30Z</time>
      </trkpt>
      <trkpt lat="47.12758" lon="-1.78019">
        <ele>88</ele>
        <time>2022-10-22T11:57:32Z</time>
      </trkpt>
      <trkpt lat="47.12752" lon="-1.78036">
        <ele>88</ele>
        <time>2022-10-22T11:57:34Z</time>
      </trkpt>
      <trkpt lat="47.12745" lon="-1.78051">
        <ele>88</ele>
        <time>2022-10-22T11:57:36Z</time>
      </trkpt>
      <trkpt lat="47.12737" lon="-1.78065">
        <ele>87</ele>
        <time>2022-10-22T11:57:38Z</time>
      </trkpt>
      <trkpt lat="47.12728" lon="-1.78078">
        <ele>87</ele>
        <time>2022-10-22T11:57:40Z</time>
      </trkpt>
      <trkpt lat="47.12719" lon="-1.7809">
        <ele>87</ele>
        <time>2022-10-22T11:57:42Z</time>
      </trkpt>
      <trkpt lat="47.12711" lon="-1.78102">
        <ele>87</ele>
        <time>2022-10-22T11:57:44Z</time>
      </trkpt>
      <trkpt lat="47.12702" lon="-1.78113">
        <ele>87</ele>
        <time>2022-10-22T11:57:46Z</time>
      </trkpt>
      <trkpt lat="47.12694" lon="-1.78125">
        <ele>87</ele>
        <time>2022-10-22T11:57:48Z</time>
      </trkpt>
      <trkpt lat="47.12685" lon="-1.78137">
        <ele>87</ele>
        <time>2022-10-22T11:57:50Z</time>
      </trkpt>
      <trkpt lat="47.12676" lon="-1.78149">
        <ele>87</ele>
        <time>2022-10-22T11:57:52Z</time>
      </trkpt>
      <trkpt lat="47.12666" lon="-1.78161">
        <ele>87</ele>
        <time>2022-10-22T11:57:54Z</time>
      </trkpt>
      <trkpt lat="47.12657" lon="-1.78174">
        <ele>87</ele>
        <time>2022-10-22T11:57:56Z</time>
      </trkpt>
      <trkpt lat="47.12649" lon="-1.78186">
        <ele>87</ele>
        <time>2022-10-22T11:57:58Z</time>
      </trkpt>
      <trkpt lat="47.1264" lon="-1.78199">
        <ele>87</ele>
        <time>2022-10-22T11:58:00Z</time>
      </trkpt>
      <trkpt lat="47.12632" lon="-1.78213">
        <ele>87</ele>
        <time>2022-10-22T11:58:02Z</time>
      </trkpt>
      <trkpt lat="47.12626" lon="-1.78228">
        <ele>87</ele>
        <time>2022-10-22T11:58:04Z</time>
      </trkpt>
      <trkpt lat="47.1262" lon="-1.78244">
        <ele>86</ele>
        <time>2022-10-22T11:58:06Z</time>
      </trkpt>
      <trkpt lat="47.12616" lon="-1.78261">
        <ele>86</ele>
        <time>2022-10-22T11:58:08Z</time>
      </trkpt>
      <trkpt lat="47.12612" lon="-1.78278">
        <ele>87</ele>
        <time>2022-10-22T11:58:10Z</time>
      </trkpt>
      <trkpt lat="47.12609" lon="-1.78296">
        <ele>87</ele>
        <time>2022-10-22T11:58:12Z</time>
      </trkpt>
      <trkpt lat="47.12604" lon="-1.78314">
        <ele>86</ele>
        <time>2022-10-22T11:58:14Z</time>
      </trkpt>
      <trkpt lat="47.126" lon="-1.78333">
        <ele>86</ele>
        <time>2022-10-22T11:58:16Z</time>
      </trkpt>
      <trkpt lat="47.12596" lon="-1.78351">
        <ele>86</ele>
        <time>2022-10-22T11:58:18Z</time>
      </trkpt>
      <trkpt lat="47.12593" lon="-1.78369">
        <ele>86</ele>
        <time>2022-10-22T11:58:20Z</time>
      </trkpt>
      <trkpt lat="47.12589" lon="-1.78387">
        <ele>85</ele>
        <time>2022-10-22T11:58:22Z</time>
      </trkpt>
      <trkpt lat="47.12584" lon="-1.78405">
        <ele>85</ele>
        <time>2022-10-22T11:58:24Z</time>
      </trkpt>
      <trkpt lat="47.1258" lon="-1.78423">
        <ele>85</ele>
        <time>2022-10-22T11:58:26Z</time>
      </trkpt>
      <trkpt lat="47.12576" lon="-1.78442">
        <ele>85</ele>
        <time>2022-10-22T11:58:28Z</time>
      </trkpt>
      <trkpt lat="47.12571" lon="-1.7846">
        <ele>85</ele>
        <time>2022-10-22T11:58:30Z</time>
      </trkpt>
      <trkpt lat="47.12567" lon="-1.78479">
        <ele>85</ele>
        <time>2022-10-22T11:58:32Z</time>
      </trkpt>
      <trkpt lat="47.12563" lon="-1.78498">
        <ele>85</ele>
        <time>2022-10-22T11:58:34Z</time>
      </trkpt>
      <trkpt lat="47.12558" lon="-1.78517">
        <ele>85</ele>
        <time>2022-10-22T11:58:36Z</time>
      </trkpt>
      <trkpt lat="47.12554" lon="-1.78535">
        <ele>84</ele>
        <time>2022-10-22T11:58:38Z</time>
      </trkpt>
      <trkpt lat="47.12549" lon="-1.78554">
        <ele>84</ele>
        <time>2022-10-22T11:58:40Z</time>
      </trkpt>
      <trkpt lat="47.12545" lon="-1.78572">
        <ele>84</ele>
        <time>2022-10-22T11:58:42Z</time>
      </trkpt>
      <trkpt lat="47.1254" lon="-1.7859">
        <ele>84</ele>
        <time>2022-10-22T11:58:44Z</time>
      </trkpt>
      <trkpt lat="47.12535" lon="-1.78609">
        <ele>84</ele>
        <time>2022-10-22T11:58:46Z</time>
      </trkpt>
      <trkpt lat="47.1253" lon="-1.78628">
        <ele>84</ele>
        <time>2022-10-22T11:58:48Z</time>
      </trkpt>
      <trkpt lat="47.12524" lon="-1.78645">
        <ele>84</ele>
        <time>2022-10-22T11:58:50Z</time>
      </trkpt>
      <trkpt lat="47.12518" lon="-1.78662">
        <ele>84</ele>
        <time>2022-10-22T11:58:52Z</time>
      </trkpt>
      <trkpt lat="47.12512" lon="-1.78678">
        <ele>84</ele>
        <time>2022-10-22T11:58:54Z</time>
      </trkpt>
      <trkpt lat="47.12506" lon="-1.78695">
        <ele>83</ele>
        <time>2022-10-22T11:58:56Z</time>
      </trkpt>
      <trkpt lat="47.125" lon="-1.78712">
        <ele>84</ele>
        <time>2022-10-22T11:58:58Z</time>
      </trkpt>
      <trkpt lat="47.12495" lon="-1.78729">
        <ele>84</ele>
        <time>2022-10-22T11:59:00Z</time>
      </trkpt>
      <trkpt lat="47.12491" lon="-1.78746">
        <ele>84</ele>
        <time>2022-10-22T11:59:02Z</time>
      </trkpt>
      <trkpt lat="47.12486" lon="-1.78765">
        <ele>84</ele>
        <time>2022-10-22T11:59:04Z</time>
      </trkpt>
      <trkpt lat="47.12482" lon="-1.78783">
        <ele>84</ele>
        <time>2022-10-22T11:59:06Z</time>
      </trkpt>
      <trkpt lat="47.12478" lon="-1.78802">
        <ele>83</ele>
        <time>2022-10-22T11:59:08Z</time>
      </trkpt>
      <trkpt lat="47.12474" lon="-1.7882">
        <ele>83</ele>
        <time>2022-10-22T11:59:10Z</time>
      </trkpt>
      <trkpt lat="47.12471" lon="-1.78839">
        <ele>83</ele>
        <time>2022-10-22T11:59:12Z</time>
      </trkpt>
      <trkpt lat="47.12469" lon="-1.78858">
        <ele>83</ele>
        <time>2022-10-22T11:59:14Z</time>
      </trkpt>
      <trkpt lat="47.12468" lon="-1.78878">
        <ele>82</ele>
        <time>2022-10-22T11:59:16Z</time>
      </trkpt>
      <trkpt lat="47.12466" lon="-1.78896">
        <ele>83</ele>
        <time>2022-10-22T11:59:18Z</time>
      </trkpt>
      <trkpt lat="47.12464" lon="-1.78914">
        <ele>83</ele>
        <time>2022-10-22T11:59:20Z</time>
      </trkpt>
      <trkpt lat="47.1246" lon="-1.78932">
        <ele>83</ele>
        <time>2022-10-22T11:59:22Z</time>
      </trkpt>
      <trkpt lat="47.12456" lon="-1.7895">
        <ele>83</ele>
        <time>2022-10-22T11:59:24Z</time>
      </trkpt>
      <trkpt lat="47.12452" lon="-1.78967">
        <ele>83</ele>
        <time>2022-10-22T11:59:26Z</time>
      </trkpt>
      <trkpt lat="47.12447" lon="-1.78984">
        <ele>83</ele>
        <time>2022-10-22T11:59:28Z</time>
      </trkpt>
      <trkpt lat="47.12443" lon="-1.79001">
        <ele>83</ele>
        <time>2022-10-22T11:59:30Z</time>
      </trkpt>
      <trkpt lat="47.12439" lon="-1.79018">
        <ele>83</ele>
        <time>2022-10-22T11:59:32Z</time>
      </trkpt>
      <trkpt lat="47.12435" lon="-1.79034">
        <ele>83</ele>
        <time>2022-10-22T11:59:34Z</time>
      </trkpt>
      <trkpt lat="47.12431" lon="-1.79052">
        <ele>83</ele>
        <time>2022-10-22T11:59:36Z</time>
      </trkpt>
      <trkpt lat="47.12427" lon="-1.7907">
        <ele>83</ele>
        <time>2022-10-22T11:59:38Z</time>
      </trkpt>
      <trkpt lat="47.12423" lon="-1.79087">
        <ele>83</ele>
        <time>2022-10-22T11:59:40Z</time>
      </trkpt>
      <trkpt lat="47.12421" lon="-1.79105">
        <ele>83</ele>
        <time>2022-10-22T11:59:42Z</time>
      </trkpt>
      <trkpt lat="47.12418" lon="-1.79123">
        <ele>83</ele>
        <time>2022-10-22T11:59:44Z</time>
      </trkpt>
      <trkpt lat="47.12417" lon="-1.79142">
        <ele>83</ele>
        <time>2022-10-22T11:59:46Z</time>
      </trkpt>
      <trkpt lat="47.12418" lon="-1.79162">
        <ele>83</ele>
        <time>2022-10-22T11:59:48Z</time>
      </trkpt>
      <trkpt lat="47.1242" lon="-1.79181">
        <ele>83</ele>
        <time>2022-10-22T11:59:50Z</time>
      </trkpt>
      <trkpt lat="47.12422" lon="-1.79201">
        <ele>83</ele>
        <time>2022-10-22T11:59:52Z</time>
      </trkpt>
      <trkpt lat="47.12424" lon="-1.79221">
        <ele>83</ele>
        <time>2022-10-22T11:59:54Z</time>
      </trkpt>
      <trkpt lat="47.12424" lon="-1.79242">
        <ele>83</ele>
        <time>2022-10-22T11:59:56Z</time>
      </trkpt>
      <trkpt lat="47.12422" lon="-1.7926">
        <ele>83</ele>
        <time>2022-10-22T11:59:58Z</time>
      </trkpt>
      <trkpt lat="47.12417" lon="-1.79278">
        <ele>83</ele>
        <time>2022-10-22T12:00:00Z</time>
      </trkpt>
      <trkpt lat="47.12411" lon="-1.79296">
        <ele>83</ele>
        <time>2022-10-22T12:00:02Z</time>
      </trkpt>
      <trkpt lat="47.12404" lon="-1.79312">
        <ele>82</ele>
        <time>2022-10-22T12:00:04Z</time>
      </trkpt>
      <trkpt lat="47.12396" lon="-1.79328">
        <ele>82</ele>
        <time>2022-10-22T12:00:06Z</time>
      </trkpt>
      <trkpt lat="47.1239" lon="-1.79344">
        <ele>81</ele>
        <time>2022-10-22T12:00:08Z</time>
      </trkpt>
      <trkpt lat="47.12382" lon="-1.79358">
        <ele>82</ele>
        <time>2022-10-22T12:00:10Z</time>
      </trkpt>
      <trkpt lat="47.12375" lon="-1.79372">
        <ele>82</ele>
        <time>2022-10-22T12:00:12Z</time>
      </trkpt>
      <trkpt lat="47.12368" lon="-1.79386">
        <ele>82</ele>
        <time>2022-10-22T12:00:14Z</time>
      </trkpt>
      <trkpt lat="47.12362" lon="-1.794">
        <ele>82</ele>
        <time>2022-10-22T12:00:16Z</time>
      </trkpt>
      <trkpt lat="47.12356" lon="-1.79414">
        <ele>83</ele>
        <time>2022-10-22T12:00:18Z</time>
      </trkpt>
      <trkpt lat="47.12351" lon="-1.7943">
        <ele>83</ele>
        <time>2022-10-22T12:00:20Z</time>
      </trkpt>
      <trkpt lat="47.12347" lon="-1.7945">
        <ele>83</ele>
        <time>2022-10-22T12:00:22Z</time>
      </trkpt>
      <trkpt lat="47.12344" lon="-1.79469">
        <ele>83</ele>
        <time>2022-10-22T12:00:24Z</time>
      </trkpt>
      <trkpt lat="47.12341" lon="-1.79488">
        <ele>82</ele>
        <time>2022-10-22T12:00:26Z</time>
      </trkpt>
      <trkpt lat="47.12338" lon="-1.79507">
        <ele>83</ele>
        <time>2022-10-22T12:00:28Z</time>
      </trkpt>
      <trkpt lat="47.12336" lon="-1.79527">
        <ele>82</ele>
        <time>2022-10-22T12:00:30Z</time>
      </trkpt>
      <trkpt lat="47.12335" lon="-1.79546">
        <ele>82</ele>
        <time>2022-10-22T12:00:32Z</time>
      </trkpt>
      <trkpt lat="47.12332" lon="-1.79564">
        <ele>82</ele>
        <time>2022-10-22T12:00:34Z</time>
      </trkpt>
      <trkpt lat="47.12327" lon="-1.7958">
        <ele>82</ele>
        <time>2022-10-22T12:00:36Z</time>
      </trkpt>
      <trkpt lat="47.12317" lon="-1.79591">
        <ele>82</ele>
        <time>2022-10-22T12:00:38Z</time>
      </trkpt>
      <trkpt lat="47.12305" lon="-1.79594">
        <ele>82</ele>
        <time>2022-10-22T12:00:40Z</time>
      </trkpt>
      <trkpt lat="47.12293" lon="-1.79594">
        <ele>81</ele>
        <time>2022-10-22T12:00:42Z</time>
      </trkpt>
      <trkpt lat="47.12282" lon="-1.79594">
        <ele>81</ele>
        <time>2022-10-22T12:00:44Z</time>
      </trkpt>
      <trkpt lat="47.1227" lon="-1.79594">
        <ele>81</ele>
        <time>2022-10-22T12:00:46Z</time>
      </trkpt>
      <trkpt lat="47.12259" lon="-1.79594">
        <ele>81</ele>
        <time>2022-10-22T12:00:48Z</time>
      </trkpt>
      <trkpt lat="47.12247" lon="-1.79594">
        <ele>81</ele>
        <time>2022-10-22T12:00:50Z</time>
      </trkpt>
      <trkpt lat="47.12236" lon="-1.79594">
        <ele>81</ele>
        <time>2022-10-22T12:00:52Z</time>
      </trkpt>
      <trkpt lat="47.12224" lon="-1.79593">
        <ele>81</ele>
        <time>2022-10-22T12:00:54Z</time>
      </trkpt>
      <trkpt lat="47.12213" lon="-1.79594">
        <ele>81</ele>
        <time>2022-10-22T12:00:56Z</time>
      </trkpt>
      <trkpt lat="47.12201" lon="-1.79594">
        <ele>81</ele>
        <time>2022-10-22T12:00:58Z</time>
      </trkpt>
      <trkpt lat="47.1219" lon="-1.79593">
        <ele>81</ele>
        <time>2022-10-22T12:01:00Z</time>
      </trkpt>
      <trkpt lat="47.12178" lon="-1.79593">
        <ele>81</ele>
        <time>2022-10-22T12:01:02Z</time>
      </trkpt>
      <trkpt lat="47.12167" lon="-1.79593">
        <ele>80</ele>
        <time>2022-10-22T12:01:04Z</time>
      </trkpt>
      <trkpt lat="47.12155" lon="-1.79593">
        <ele>80</ele>
        <time>2022-10-22T12:01:06Z</time>
      </trkpt>
      <trkpt lat="47.12144" lon="-1.79594">
        <ele>80</ele>
        <time>2022-10-22T12:01:08Z</time>
      </trkpt>
      <trkpt lat="47.12132" lon="-1.79595">
        <ele>80</ele>
        <time>2022-10-22T12:01:10Z</time>
      </trkpt>
      <trkpt lat="47.1212" lon="-1.79596">
        <ele>79</ele>
        <time>2022-10-22T12:01:12Z</time>
      </trkpt>
      <trkpt lat="47.12108" lon="-1.79597">
        <ele>79</ele>
        <time>2022-10-22T12:01:14Z</time>
      </trkpt>
      <trkpt lat="47.12095" lon="-1.796">
        <ele>79</ele>
        <time>2022-10-22T12:01:16Z</time>
      </trkpt>
      <trkpt lat="47.12084" lon="-1.79607">
        <ele>79</ele>
        <time>2022-10-22T12:01:18Z</time>
      </trkpt>
      <trkpt lat="47.12073" lon="-1.79618">
        <ele>78</ele>
        <time>2022-10-22T12:01:20Z</time>
      </trkpt>
      <trkpt lat="47.12063" lon="-1.79629">
        <ele>78</ele>
        <time>2022-10-22T12:01:22Z</time>
      </trkpt>
      <trkpt lat="47.12052" lon="-1.79639">
        <ele>78</ele>
        <time>2022-10-22T12:01:24Z</time>
      </trkpt>
      <trkpt lat="47.12041" lon="-1.7965">
        <ele>78</ele>
        <time>2022-10-22T12:01:26Z</time>
      </trkpt>
      <trkpt lat="47.12031" lon="-1.7966">
        <ele>77</ele>
        <time>2022-10-22T12:01:28Z</time>
      </trkpt>
      <trkpt lat="47.1202" lon="-1.79671">
        <ele>77</ele>
        <time>2022-10-22T12:01:30Z</time>
      </trkpt>
      <trkpt lat="47.12009" lon="-1.79683">
        <ele>77</ele>
        <time>2022-10-22T12:01:32Z</time>
      </trkpt>
      <trkpt lat="47.11998" lon="-1.79693">
        <ele>77</ele>
        <time>2022-10-22T12:01:34Z</time>
      </trkpt>
      <trkpt lat="47.11987" lon="-1.79704">
        <ele>77</ele>
        <time>2022-10-22T12:01:36Z</time>
      </trkpt>
      <trkpt lat="47.11976" lon="-1.79715">
        <ele>77</ele>
        <time>2022-10-22T12:01:38Z</time>
      </trkpt>
      <trkpt lat="47.11965" lon="-1.79727">
        <ele>77</ele>
        <time>2022-10-22T12:01:40Z</time>
      </trkpt>
      <trkpt lat="47.11955" lon="-1.7974">
        <ele>77</ele>
        <time>2022-10-22T12:01:42Z</time>
      </trkpt>
      <trkpt lat="47.11945" lon="-1.79752">
        <ele>77</ele>
        <time>2022-10-22T12:01:44Z</time>
      </trkpt>
      <trkpt lat="47.11935" lon="-1.79764">
        <ele>77</ele>
        <time>2022-10-22T12:01:46Z</time>
      </trkpt>
      <trkpt lat="47.11925" lon="-1.79777">
        <ele>77</ele>
        <time>2022-10-22T12:01:48Z</time>
      </trkpt>
      <trkpt lat="47.11915" lon="-1.7979">
        <ele>77</ele>
        <time>2022-10-22T12:01:50Z</time>
      </trkpt>
      <trkpt lat="47.11905" lon="-1.79802">
        <ele>76</ele>
        <time>2022-10-22T12:01:52Z</time>
      </trkpt>
      <trkpt lat="47.11895" lon="-1.79815">
        <ele>76</ele>
        <time>2022-10-22T12:01:54Z</time>
      </trkpt>
      <trkpt lat="47.11885" lon="-1.79827">
        <ele>76</ele>
        <time>2022-10-22T12:01:56Z</time>
      </trkpt>
      <trkpt lat="47.11874" lon="-1.79839">
        <ele>76</ele>
        <time>2022-10-22T12:01:58Z</time>
      </trkpt>
      <trkpt lat="47.11864" lon="-1.79851">
        <ele>76</ele>
        <time>2022-10-22T12:02:00Z</time>
      </trkpt>
      <trkpt lat="47.11853" lon="-1.79862">
        <ele>76</ele>
        <time>2022-10-22T12:02:02Z</time>
      </trkpt>
      <trkpt lat="47.11843" lon="-1.79873">
        <ele>76</ele>
        <time>2022-10-22T12:02:04Z</time>
      </trkpt>
      <trkpt lat="47.11833" lon="-1.79885">
        <ele>76</ele>
        <time>2022-10-22T12:02:06Z</time>
      </trkpt>
      <trkpt lat="47.11823" lon="-1.79896">
        <ele>77</ele>
        <time>2022-10-22T12:02:08Z</time>
      </trkpt>
      <trkpt lat="47.11813" lon="-1.79907">
        <ele>76</ele>
        <time>2022-10-22T12:02:10Z</time>
      </trkpt>
      <trkpt lat="47.11802" lon="-1.79918">
        <ele>76</ele>
        <time>2022-10-22T12:02:12Z</time>
      </trkpt>
      <trkpt lat="47.11792" lon="-1.7993">
        <ele>76</ele>
        <time>2022-10-22T12:02:14Z</time>
      </trkpt>
      <trkpt lat="47.11782" lon="-1.7994">
        <ele>76</ele>
        <time>2022-10-22T12:02:16Z</time>
      </trkpt>
      <trkpt lat="47.11773" lon="-1.79951">
        <ele>76</ele>
        <time>2022-10-22T12:02:18Z</time>
      </trkpt>
      <trkpt lat="47.11765" lon="-1.79961">
        <ele>76</ele>
        <time>2022-10-22T12:02:20Z</time>
      </trkpt>
      <trkpt lat="47.11759" lon="-1.79971">
        <ele>76</ele>
        <time>2022-10-22T12:02:22Z</time>
      </trkpt>
      <trkpt lat="47.11749" lon="-1.79974">
        <ele>77</ele>
        <time>2022-10-22T12:02:24Z</time>
      </trkpt>
      <trkpt lat="47.11737" lon="-1.79973">
        <ele>77</ele>
        <time>2022-10-22T12:02:26Z</time>
      </trkpt>
      <trkpt lat="47.11725" lon="-1.79972">
        <ele>77</ele>
        <time>2022-10-22T12:02:28Z</time>
      </trkpt>
      <trkpt lat="47.11714" lon="-1.7997">
        <ele>76</ele>
        <time>2022-10-22T12:02:30Z</time>
      </trkpt>
      <trkpt lat="47.11702" lon="-1.79969">
        <ele>76</ele>
        <time>2022-10-22T12:02:32Z</time>
      </trkpt>
      <trkpt lat="47.11689" lon="-1.79968">
        <ele>76</ele>
        <time>2022-10-22T12:02:34Z</time>
      </trkpt>
      <trkpt lat="47.11677" lon="-1.79966">
        <ele>76</ele>
        <time>2022-10-22T12:02:36Z</time>
      </trkpt>
      <trkpt lat="47.11665" lon="-1.79965">
        <ele>76</ele>
        <time>2022-10-22T12:02:38Z</time>
      </trkpt>
      <trkpt lat="47.11652" lon="-1.79963">
        <ele>76</ele>
        <time>2022-10-22T12:02:40Z</time>
      </trkpt>
      <trkpt lat="47.1164" lon="-1.79961">
        <ele>75</ele>
        <time>2022-10-22T12:02:42Z</time>
      </trkpt>
      <trkpt lat="47.11628" lon="-1.79958">
        <ele>75</ele>
        <time>2022-10-22T12:02:44Z</time>
      </trkpt>
      <trkpt lat="47.11617" lon="-1.79956">
        <ele>76</ele>
        <time>2022-10-22T12:02:46Z</time>
      </trkpt>
      <trkpt lat="47.11606" lon="-1.79954">
        <ele>75</ele>
        <time>2022-10-22T12:02:48Z</time>
      </trkpt>
      <trkpt lat="47.11594" lon="-1.79953">
        <ele>75</ele>
        <time>2022-10-22T12:02:50Z</time>
      </trkpt>
      <trkpt lat="47.11583" lon="-1.79952">
        <ele>75</ele>
        <time>2022-10-22T12:02:52Z</time>
      </trkpt>
      <trkpt lat="47.11571" lon="-1.79952">
        <ele>75</ele>
        <time>2022-10-22T12:02:54Z</time>
      </trkpt>
      <trkpt lat="47.11559" lon="-1.79955">
        <ele>75</ele>
        <time>2022-10-22T12:02:56Z</time>
      </trkpt>
      <trkpt lat="47.11548" lon="-1.7996">
        <ele>74</ele>
        <time>2022-10-22T12:02:58Z</time>
      </trkpt>
      <trkpt lat="47.11537" lon="-1.79967">
        <ele>74</ele>
        <time>2022-10-22T12:03:00Z</time>
      </trkpt>
      <trkpt lat="47.11526" lon="-1.79976">
        <ele>74</ele>
        <time>2022-10-22T12:03:02Z</time>
      </trkpt>
      <trkpt lat="47.11516" lon="-1.79986">
        <ele>74</ele>
        <time>2022-10-22T12:03:04Z</time>
      </trkpt>
      <trkpt lat="47.11507" lon="-1.79998">
        <ele>73</ele>
        <time>2022-10-22T12:03:06Z</time>
      </trkpt>
      <trkpt lat="47.11498" lon="-1.8001">
        <ele>73</ele>
        <time>2022-10-22T12:03:08Z</time>
      </trkpt>
      <trkpt lat="47.11489" lon="-1.80022">
        <ele>73</ele>
        <time>2022-10-22T12:03:10Z</time>
      </trkpt>
      <trkpt lat="47.1148" lon="-1.80034">
        <ele>73</ele>
        <time>2022-10-22T12:03:12Z</time>
      </trkpt>
      <trkpt lat="47.11471" lon="-1.80046">
        <ele>73</ele>
        <time>2022-10-22T12:03:14Z</time>
      </trkpt>
      <trkpt lat="47.11462" lon="-1.80059">
        <ele>73</ele>
        <time>2022-10-22T12:03:16Z</time>
      </trkpt>
      <trkpt lat="47.11453" lon="-1.8007">
        <ele>73</ele>
        <time>2022-10-22T12:03:18Z</time>
      </trkpt>
      <trkpt lat="47.11444" lon="-1.80083">
        <ele>73</ele>
        <time>2022-10-22T12:03:20Z</time>
      </trkpt>
      <trkpt lat="47.11434" lon="-1.80096">
        <ele>73</ele>
        <time>2022-10-22T12:03:22Z</time>
      </trkpt>
      <trkpt lat="47.11424" lon="-1.80109">
        <ele>73</ele>
        <time>2022-10-22T12:03:24Z</time>
      </trkpt>
      <trkpt lat="47.11414" lon="-1.80122">
        <ele>73</ele>
        <time>2022-10-22T12:03:26Z</time>
      </trkpt>
      <trkpt lat="47.11404" lon="-1.80135">
        <ele>73</ele>
        <time>2022-10-22T12:03:28Z</time>
      </trkpt>
      <trkpt lat="47.11395" lon="-1.80148">
        <ele>73</ele>
        <time>2022-10-22T12:03:30Z</time>
      </trkpt>
      <trkpt lat="47.11385" lon="-1.8016">
        <ele>73</ele>
        <time>2022-10-22T12:03:32Z</time>
      </trkpt>
      <trkpt lat="47.11375" lon="-1.80173">
        <ele>73</ele>
        <time>2022-10-22T12:03:34Z</time>
      </trkpt>
      <trkpt lat="47.11365" lon="-1.80186">
        <ele>72</ele>
        <time>2022-10-22T12:03:36Z</time>
      </trkpt>
      <trkpt lat="47.11355" lon="-1.80198">
        <ele>73</ele>
        <time>2022-10-22T12:03:38Z</time>
      </trkpt>
      <trkpt lat="47.11347" lon="-1.80211">
        <ele>72</ele>
        <time>2022-10-22T12:03:40Z</time>
      </trkpt>
      <trkpt lat="47.11338" lon="-1.80224">
        <ele>72</ele>
        <time>2022-10-22T12:03:42Z</time>
      </trkpt>
      <trkpt lat="47.11328" lon="-1.80238">
        <ele>72</ele>
        <time>2022-10-22T12:03:44Z</time>
      </trkpt>
      <trkpt lat="47.11319" lon="-1.80252">
        <ele>72</ele>
        <time>2022-10-22T12:03:46Z</time>
      </trkpt>
      <trkpt lat="47.1131" lon="-1.80263">
        <ele>72</ele>
        <time>2022-10-22T12:03:48Z</time>
      </trkpt>
      <trkpt lat="47.11301" lon="-1.80276">
        <ele>72</ele>
        <time>2022-10-22T12:03:50Z</time>
      </trkpt>
      <trkpt lat="47.11291" lon="-1.80289">
        <ele>72</ele>
        <time>2022-10-22T12:03:52Z</time>
      </trkpt>
      <trkpt lat="47.11282" lon="-1.80302">
        <ele>71</ele>
        <time>2022-10-22T12:03:54Z</time>
      </trkpt>
      <trkpt lat="47.11272" lon="-1.80316">
        <ele>71</ele>
        <time>2022-10-22T12:03:56Z</time>
      </trkpt>
      <trkpt lat="47.11263" lon="-1.80329">
        <ele>71</ele>
        <time>2022-10-22T12:03:58Z</time>
      </trkpt>
      <trkpt lat="47.11253" lon="-1.80342">
        <ele>70</ele>
        <time>2022-10-22T12:04:00Z</time>
      </trkpt>
      <trkpt lat="47.11244" lon="-1.80354">
        <ele>70</ele>
        <time>2022-10-22T12:04:02Z</time>
      </trkpt>
      <trkpt lat="47.11235" lon="-1.80366">
        <ele>70</ele>
        <time>2022-10-22T12:04:04Z</time>
      </trkpt>
      <trkpt lat="47.11225" lon="-1.80377">
        <ele>70</ele>
        <time>2022-10-22T12:04:06Z</time>
      </trkpt>
      <trkpt lat="47.11215" lon="-1.80389">
        <ele>70</ele>
        <time>2022-10-22T12:04:08Z</time>
      </trkpt>
      <trkpt lat="47.11206" lon="-1.80401">
        <ele>70</ele>
        <time>2022-10-22T12:04:10Z</time>
      </trkpt>
      <trkpt lat="47.11196" lon="-1.8041">
        <ele>70</ele>
        <time>2022-10-22T12:04:12Z</time>
      </trkpt>
      <trkpt lat="47.11186" lon="-1.8042">
        <ele>70</ele>
        <time>2022-10-22T12:04:14Z</time>
      </trkpt>
      <trkpt lat="47.11175" lon="-1.8043">
        <ele>69</ele>
        <time>2022-10-22T12:04:16Z</time>
      </trkpt>
      <trkpt lat="47.11164" lon="-1.80437">
        <ele>69</ele>
        <time>2022-10-22T12:04:18Z</time>
      </trkpt>
      <trkpt lat="47.11154" lon="-1.80445">
        <ele>69</ele>
        <time>2022-10-22T12:04:20Z</time>
      </trkpt>
      <trkpt lat="47.11143" lon="-1.80452">
        <ele>69</ele>
        <time>2022-10-22T12:04:22Z</time>
      </trkpt>
      <trkpt lat="47.11131" lon="-1.80459">
        <ele>69</ele>
        <time>2022-10-22T12:04:24Z</time>
      </trkpt>
      <trkpt lat="47.11121" lon="-1.80466">
        <ele>69</ele>
        <time>2022-10-22T12:04:26Z</time>
      </trkpt>
      <trkpt lat="47.1111" lon="-1.80473">
        <ele>69</ele>
        <time>2022-10-22T12:04:28Z</time>
      </trkpt>
      <trkpt lat="47.111" lon="-1.80481">
        <ele>69</ele>
        <time>2022-10-22T12:04:30Z</time>
      </trkpt>
      <trkpt lat="47.11089" lon="-1.80487">
        <ele>69</ele>
        <time>2022-10-22T12:04:32Z</time>
      </trkpt>
      <trkpt lat="47.11079" lon="-1.80494">
        <ele>69</ele>
        <time>2022-10-22T12:04:34Z</time>
      </trkpt>
      <trkpt lat="47.11068" lon="-1.805">
        <ele>70</ele>
        <time>2022-10-22T12:04:36Z</time>
      </trkpt>
      <trkpt lat="47.11057" lon="-1.80506">
        <ele>70</ele>
        <time>2022-10-22T12:04:38Z</time>
      </trkpt>
      <trkpt lat="47.11047" lon="-1.80513">
        <ele>71</ele>
        <time>2022-10-22T12:04:40Z</time>
      </trkpt>
      <trkpt lat="47.11036" lon="-1.8052">
        <ele>71</ele>
        <time>2022-10-22T12:04:42Z</time>
      </trkpt>
      <trkpt lat="47.11026" lon="-1.80528">
        <ele>71</ele>
        <time>2022-10-22T12:04:44Z</time>
      </trkpt>
      <trkpt lat="47.11015" lon="-1.80535">
        <ele>71</ele>
        <time>2022-10-22T12:04:46Z</time>
      </trkpt>
      <trkpt lat="47.11005" lon="-1.80542">
        <ele>70</ele>
        <time>2022-10-22T12:04:48Z</time>
      </trkpt>
      <trkpt lat="47.10997" lon="-1.80549">
        <ele>70</ele>
        <time>2022-10-22T12:04:50Z</time>
      </trkpt>
      <trkpt lat="47.1099" lon="-1.80558">
        <ele>70</ele>
        <time>2022-10-22T12:04:52Z</time>
      </trkpt>
      <trkpt lat="47.10979" lon="-1.80562">
        <ele>70</ele>
        <time>2022-10-22T12:04:54Z</time>
      </trkpt>
      <trkpt lat="47.10968" lon="-1.80568">
        <ele>69</ele>
        <time>2022-10-22T12:04:56Z</time>
      </trkpt>
      <trkpt lat="47.10957" lon="-1.80574">
        <ele>69</ele>
        <time>2022-10-22T12:04:58Z</time>
      </trkpt>
      <trkpt lat="47.10946" lon="-1.80582">
        <ele>69</ele>
        <time>2022-10-22T12:05:00Z</time>
      </trkpt>
      <trkpt lat="47.10936" lon="-1.80589">
        <ele>69</ele>
        <time>2022-10-22T12:05:02Z</time>
      </trkpt>
      <trkpt lat="47.10925" lon="-1.80595">
        <ele>69</ele>
        <time>2022-10-22T12:05:04Z</time>
      </trkpt>
      <trkpt lat="47.10914" lon="-1.80602">
        <ele>69</ele>
        <time>2022-10-22T12:05:06Z</time>
      </trkpt>
      <trkpt lat="47.10903" lon="-1.8061">
        <ele>69</ele>
        <time>2022-10-22T12:05:08Z</time>
      </trkpt>
      <trkpt lat="47.10893" lon="-1.80618">
        <ele>69</ele>
        <time>2022-10-22T12:05:10Z</time>
      </trkpt>
      <trkpt lat="47.10881" lon="-1.80625">
        <ele>69</ele>
        <time>2022-10-22T12:05:12Z</time>
      </trkpt>
      <trkpt lat="47.1087" lon="-1.80631">
        <ele>69</ele>
        <time>2022-10-22T12:05:14Z</time>
      </trkpt>
      <trkpt lat="47.10859" lon="-1.80636">
        <ele>69</ele>
        <time>2022-10-22T12:05:16Z</time>
      </trkpt>
      <trkpt lat="47.10848" lon="-1.8064">
        <ele>70</ele>
        <time>2022-10-22T12:05:18Z</time>
      </trkpt>
      <trkpt lat="47.10837" lon="-1.80645">
        <ele>69</ele>
        <time>2022-10-22T12:05:20Z</time>
      </trkpt>
      <trkpt lat="47.10826" lon="-1.80648">
        <ele>69</ele>
        <time>2022-10-22T12:05:22Z</time>
      </trkpt>
      <trkpt lat="47.10813" lon="-1.80653">
        <ele>69</ele>
        <time>2022-10-22T12:05:24Z</time>
      </trkpt>
      <trkpt lat="47.10801" lon="-1.80658">
        <ele>69</ele>
        <time>2022-10-22T12:05:26Z</time>
      </trkpt>
      <trkpt lat="47.10789" lon="-1.80663">
        <ele>68</ele>
        <time>2022-10-22T12:05:28Z</time>
      </trkpt>
      <trkpt lat="47.10777" lon="-1.80667">
        <ele>68</ele>
        <time>2022-10-22T12:05:30Z</time>
      </trkpt>
      <trkpt lat="47.10766" lon="-1.80671">
        <ele>68</ele>
        <time>2022-10-22T12:05:32Z</time>
      </trkpt>
      <trkpt lat="47.10754" lon="-1.80675">
        <ele>67</ele>
        <time>2022-10-22T12:05:34Z</time>
      </trkpt>
      <trkpt lat="47.10743" lon="-1.80678">
        <ele>67</ele>
        <time>2022-10-22T12:05:36Z</time>
      </trkpt>
      <trkpt lat="47.10731" lon="-1.8068">
        <ele>68</ele>
        <time>2022-10-22T12:05:38Z</time>
      </trkpt>
      <trkpt lat="47.10719" lon="-1.80682">
        <ele>68</ele>
        <time>2022-10-22T12:05:40Z</time>
      </trkpt>
      <trkpt lat="47.10708" lon="-1.80683">
        <ele>68</ele>
        <time>2022-10-22T12:05:42Z</time>
      </trkpt>
      <trkpt lat="47.10696" lon="-1.80684">
        <ele>68</ele>
        <time>2022-10-22T12:05:44Z</time>
      </trkpt>
      <trkpt lat="47.10684" lon="-1.80685">
        <ele>68</ele>
        <time>2022-10-22T12:05:46Z</time>
      </trkpt>
      <trkpt lat="47.10672" lon="-1.80685">
        <ele>68</ele>
        <time>2022-10-22T12:05:48Z</time>
      </trkpt>
      <trkpt lat="47.10661" lon="-1.80685">
        <ele>68</ele>
        <time>2022-10-22T12:05:50Z</time>
      </trkpt>
      <trkpt lat="47.10649" lon="-1.80688">
        <ele>68</ele>
        <time>2022-10-22T12:05:52Z</time>
      </trkpt>
      <trkpt lat="47.10637" lon="-1.8069">
        <ele>68</ele>
        <time>2022-10-22T12:05:54Z</time>
      </trkpt>
      <trkpt lat="47.1062" lon="-1.80693">
        <ele>67</ele>
        <time>2022-10-22T12:05:57Z</time>
      </trkpt>
      <trkpt lat="47.10608" lon="-1.80697">
        <ele>68</ele>
        <time>2022-10-22T12:05:59Z</time>
      </trkpt>
      <trkpt lat="47.10597" lon="-1.80703">
        <ele>68</ele>
        <time>2022-10-22T12:06:01Z</time>
      </trkpt>
      <trkpt lat="47.10585" lon="-1.80711">
        <ele>67</ele>
        <time>2022-10-22T12:06:03Z</time>
      </trkpt>
      <trkpt lat="47.10574" lon="-1.80721">
        <ele>67</ele>
        <time>2022-10-22T12:06:05Z</time>
      </trkpt>
      <trkpt lat="47.10564" lon="-1.80731">
        <ele>67</ele>
        <time>2022-10-22T12:06:07Z</time>
      </trkpt>
      <trkpt lat="47.10554" lon="-1.80741">
        <ele>67</ele>
        <time>2022-10-22T12:06:09Z</time>
      </trkpt>
      <trkpt lat="47.10545" lon="-1.80753">
        <ele>67</ele>
        <time>2022-10-22T12:06:11Z</time>
      </trkpt>
      <trkpt lat="47.10535" lon="-1.80764">
        <ele>68</ele>
        <time>2022-10-22T12:06:13Z</time>
      </trkpt>
      <trkpt lat="47.10524" lon="-1.80777">
        <ele>67</ele>
        <time>2022-10-22T12:06:15Z</time>
      </trkpt>
      <trkpt lat="47.10515" lon="-1.80791">
        <ele>66</ele>
        <time>2022-10-22T12:06:17Z</time>
      </trkpt>
      <trkpt lat="47.10506" lon="-1.80804">
        <ele>66</ele>
        <time>2022-10-22T12:06:19Z</time>
      </trkpt>
      <trkpt lat="47.10495" lon="-1.80812">
        <ele>66</ele>
        <time>2022-10-22T12:06:21Z</time>
      </trkpt>
      <trkpt lat="47.10483" lon="-1.80822">
        <ele>65</ele>
        <time>2022-10-22T12:06:23Z</time>
      </trkpt>
      <trkpt lat="47.10473" lon="-1.80834">
        <ele>65</ele>
        <time>2022-10-22T12:06:25Z</time>
      </trkpt>
      <trkpt lat="47.10465" lon="-1.80849">
        <ele>65</ele>
        <time>2022-10-22T12:06:27Z</time>
      </trkpt>
      <trkpt lat="47.10456" lon="-1.80862">
        <ele>66</ele>
        <time>2022-10-22T12:06:29Z</time>
      </trkpt>
      <trkpt lat="47.10448" lon="-1.80877">
        <ele>66</ele>
        <time>2022-10-22T12:06:31Z</time>
      </trkpt>
      <trkpt lat="47.1044" lon="-1.8089">
        <ele>66</ele>
        <time>2022-10-22T12:06:33Z</time>
      </trkpt>
      <trkpt lat="47.10433" lon="-1.80902">
        <ele>66</ele>
        <time>2022-10-22T12:06:35Z</time>
      </trkpt>
      <trkpt lat="47.10425" lon="-1.80914">
        <ele>67</ele>
        <time>2022-10-22T12:06:37Z</time>
      </trkpt>
      <trkpt lat="47.10417" lon="-1.80924">
        <ele>67</ele>
        <time>2022-10-22T12:06:39Z</time>
      </trkpt>
      <trkpt lat="47.1041" lon="-1.80935">
        <ele>68</ele>
        <time>2022-10-22T12:06:41Z</time>
      </trkpt>
      <trkpt lat="47.10404" lon="-1.80946">
        <ele>68</ele>
        <time>2022-10-22T12:06:43Z</time>
      </trkpt>
      <trkpt lat="47.10396" lon="-1.80958">
        <ele>68</ele>
        <time>2022-10-22T12:06:45Z</time>
      </trkpt>
      <trkpt lat="47.1039" lon="-1.80969">
        <ele>69</ele>
        <time>2022-10-22T12:06:47Z</time>
      </trkpt>
      <trkpt lat="47.10383" lon="-1.80978">
        <ele>69</ele>
        <time>2022-10-22T12:06:49Z</time>
      </trkpt>
      <trkpt lat="47.10373" lon="-1.80992">
        <ele>68</ele>
        <time>2022-10-22T12:06:52Z</time>
      </trkpt>
      <trkpt lat="47.1037" lon="-1.81005">
        <ele>69</ele>
        <time>2022-10-22T12:06:54Z</time>
      </trkpt>
      <trkpt lat="47.10367" lon="-1.81017">
        <ele>69</ele>
        <time>2022-10-22T12:06:56Z</time>
      </trkpt>
      <trkpt lat="47.10362" lon="-1.8103">
        <ele>69</ele>
        <time>2022-10-22T12:06:58Z</time>
      </trkpt>
      <trkpt lat="47.10355" lon="-1.81038">
        <ele>69</ele>
        <time>2022-10-22T12:07:00Z</time>
      </trkpt>
      <trkpt lat="47.10346" lon="-1.81033">
        <ele>68</ele>
        <time>2022-10-22T12:07:02Z</time>
      </trkpt>
      <trkpt lat="47.10339" lon="-1.81021">
        <ele>67</ele>
        <time>2022-10-22T12:07:04Z</time>
      </trkpt>
      <trkpt lat="47.10329" lon="-1.81013">
        <ele>66</ele>
        <time>2022-10-22T12:07:06Z</time>
      </trkpt>
      <trkpt lat="47.10317" lon="-1.81009">
        <ele>66</ele>
        <time>2022-10-22T12:07:08Z</time>
      </trkpt>
      <trkpt lat="47.10307" lon="-1.81006">
        <ele>65</ele>
        <time>2022-10-22T12:07:10Z</time>
      </trkpt>
      <trkpt lat="47.10293" lon="-1.81004">
        <ele>65</ele>
        <time>2022-10-22T12:07:12Z</time>
      </trkpt>
      <trkpt lat="47.1028" lon="-1.81003">
        <ele>64</ele>
        <time>2022-10-22T12:07:14Z</time>
      </trkpt>
      <trkpt lat="47.10267" lon="-1.81003">
        <ele>64</ele>
        <time>2022-10-22T12:07:16Z</time>
      </trkpt>
      <trkpt lat="47.10254" lon="-1.81004">
        <ele>65</ele>
        <time>2022-10-22T12:07:18Z</time>
      </trkpt>
      <trkpt lat="47.10241" lon="-1.81006">
        <ele>64</ele>
        <time>2022-10-22T12:07:20Z</time>
      </trkpt>
      <trkpt lat="47.10227" lon="-1.81006">
        <ele>64</ele>
        <time>2022-10-22T12:07:22Z</time>
      </trkpt>
      <trkpt lat="47.10214" lon="-1.81002">
        <ele>64</ele>
        <time>2022-10-22T12:07:24Z</time>
      </trkpt>
      <trkpt lat="47.10202" lon="-1.80996">
        <ele>64</ele>
        <time>2022-10-22T12:07:26Z</time>
      </trkpt>
      <trkpt lat="47.1019" lon="-1.80989">
        <ele>65</ele>
        <time>2022-10-22T12:07:28Z</time>
      </trkpt>
      <trkpt lat="47.10178" lon="-1.80985">
        <ele>65</ele>
        <time>2022-10-22T12:07:30Z</time>
      </trkpt>
      <trkpt lat="47.10166" lon="-1.8098">
        <ele>65</ele>
        <time>2022-10-22T12:07:32Z</time>
      </trkpt>
      <trkpt lat="47.10155" lon="-1.80974">
        <ele>65</ele>
        <time>2022-10-22T12:07:34Z</time>
      </trkpt>
      <trkpt lat="47.10145" lon="-1.80968">
        <ele>66</ele>
        <time>2022-10-22T12:07:36Z</time>
      </trkpt>
      <trkpt lat="47.10134" lon="-1.80967">
        <ele>66</ele>
        <time>2022-10-22T12:07:38Z</time>
      </trkpt>
      <trkpt lat="47.10123" lon="-1.80968">
        <ele>65</ele>
        <time>2022-10-22T12:07:40Z</time>
      </trkpt>
      <trkpt lat="47.10111" lon="-1.80969">
        <ele>65</ele>
        <time>2022-10-22T12:07:42Z</time>
      </trkpt>
      <trkpt lat="47.10099" lon="-1.80969">
        <ele>64</ele>
        <time>2022-10-22T12:07:44Z</time>
      </trkpt>
      <trkpt lat="47.10089" lon="-1.8097">
        <ele>64</ele>
        <time>2022-10-22T12:07:46Z</time>
      </trkpt>
      <trkpt lat="47.10078" lon="-1.8097">
        <ele>64</ele>
        <time>2022-10-22T12:07:48Z</time>
      </trkpt>
      <trkpt lat="47.10067" lon="-1.80969">
        <ele>64</ele>
        <time>2022-10-22T12:07:50Z</time>
      </trkpt>
      <trkpt lat="47.10057" lon="-1.80969">
        <ele>65</ele>
        <time>2022-10-22T12:07:52Z</time>
      </trkpt>
      <trkpt lat="47.10047" lon="-1.80969">
        <ele>65</ele>
        <time>2022-10-22T12:07:54Z</time>
      </trkpt>
      <trkpt lat="47.10037" lon="-1.8097">
        <ele>65</ele>
        <time>2022-10-22T12:07:56Z</time>
      </trkpt>
      <trkpt lat="47.10026" lon="-1.80972">
        <ele>65</ele>
        <time>2022-10-22T12:07:58Z</time>
      </trkpt>
      <trkpt lat="47.10016" lon="-1.80973">
        <ele>65</ele>
        <time>2022-10-22T12:08:00Z</time>
      </trkpt>
      <trkpt lat="47.10006" lon="-1.80974">
        <ele>65</ele>
        <time>2022-10-22T12:08:02Z</time>
      </trkpt>
      <trkpt lat="47.09995" lon="-1.80974">
        <ele>65</ele>
        <time>2022-10-22T12:08:04Z</time>
      </trkpt>
      <trkpt lat="47.09985" lon="-1.80975">
        <ele>65</ele>
        <time>2022-10-22T12:08:06Z</time>
      </trkpt>
      <trkpt lat="47.09975" lon="-1.80975">
        <ele>65</ele>
        <time>2022-10-22T12:08:08Z</time>
      </trkpt>
      <trkpt lat="47.09965" lon="-1.80975">
        <ele>65</ele>
        <time>2022-10-22T12:08:10Z</time>
      </trkpt>
      <trkpt lat="47.09954" lon="-1.80975">
        <ele>66</ele>
        <time>2022-10-22T12:08:12Z</time>
      </trkpt>
      <trkpt lat="47.09944" lon="-1.80977">
        <ele>65</ele>
        <time>2022-10-22T12:08:14Z</time>
      </trkpt>
      <trkpt lat="47.09934" lon="-1.80979">
        <ele>65</ele>
        <time>2022-10-22T12:08:16Z</time>
      </trkpt>
      <trkpt lat="47.09923" lon="-1.8098">
        <ele>65</ele>
        <time>2022-10-22T12:08:18Z</time>
      </trkpt>
      <trkpt lat="47.09913" lon="-1.80981">
        <ele>65</ele>
        <time>2022-10-22T12:08:20Z</time>
      </trkpt>
      <trkpt lat="47.09903" lon="-1.80981">
        <ele>65</ele>
        <time>2022-10-22T12:08:22Z</time>
      </trkpt>
      <trkpt lat="47.09893" lon="-1.80982">
        <ele>65</ele>
        <time>2022-10-22T12:08:24Z</time>
      </trkpt>
      <trkpt lat="47.09883" lon="-1.80983">
        <ele>66</ele>
        <time>2022-10-22T12:08:26Z</time>
      </trkpt>
      <trkpt lat="47.09873" lon="-1.80983">
        <ele>66</ele>
        <time>2022-10-22T12:08:28Z</time>
      </trkpt>
      <trkpt lat="47.09863" lon="-1.80984">
        <ele>66</ele>
        <time>2022-10-22T12:08:30Z</time>
      </trkpt>
      <trkpt lat="47.09853" lon="-1.80983">
        <ele>66</ele>
        <time>2022-10-22T12:08:32Z</time>
      </trkpt>
      <trkpt lat="47.09843" lon="-1.80985">
        <ele>67</ele>
        <time>2022-10-22T12:08:34Z</time>
      </trkpt>
      <trkpt lat="47.09833" lon="-1.80986">
        <ele>67</ele>
        <time>2022-10-22T12:08:36Z</time>
      </trkpt>
      <trkpt lat="47.09824" lon="-1.80986">
        <ele>67</ele>
        <time>2022-10-22T12:08:38Z</time>
      </trkpt>
      <trkpt lat="47.09811" lon="-1.80988">
        <ele>68</ele>
        <time>2022-10-22T12:08:41Z</time>
      </trkpt>
      <trkpt lat="47.09802" lon="-1.80988">
        <ele>68</ele>
        <time>2022-10-22T12:08:43Z</time>
      </trkpt>
      <trkpt lat="47.09792" lon="-1.80986">
        <ele>68</ele>
        <time>2022-10-22T12:08:45Z</time>
      </trkpt>
      <trkpt lat="47.09781" lon="-1.80985">
        <ele>68</ele>
        <time>2022-10-22T12:08:47Z</time>
      </trkpt>
      <trkpt lat="47.09771" lon="-1.80984">
        <ele>67</ele>
        <time>2022-10-22T12:08:49Z</time>
      </trkpt>
      <trkpt lat="47.09759" lon="-1.80981">
        <ele>68</ele>
        <time>2022-10-22T12:08:51Z</time>
      </trkpt>
      <trkpt lat="47.09748" lon="-1.80978">
        <ele>67</ele>
        <time>2022-10-22T12:08:53Z</time>
      </trkpt>
      <trkpt lat="47.09737" lon="-1.80976">
        <ele>67</ele>
        <time>2022-10-22T12:08:55Z</time>
      </trkpt>
      <trkpt lat="47.09726" lon="-1.80974">
        <ele>67</ele>
        <time>2022-10-22T12:08:57Z</time>
      </trkpt>
      <trkpt lat="47.09715" lon="-1.80972">
        <ele>67</ele>
        <time>2022-10-22T12:08:59Z</time>
      </trkpt>
      <trkpt lat="47.09703" lon="-1.8097">
        <ele>67</ele>
        <time>2022-10-22T12:09:01Z</time>
      </trkpt>
      <trkpt lat="47.09692" lon="-1.80968">
        <ele>67</ele>
        <time>2022-10-22T12:09:03Z</time>
      </trkpt>
      <trkpt lat="47.0968" lon="-1.80965">
        <ele>66</ele>
        <time>2022-10-22T12:09:05Z</time>
      </trkpt>
      <trkpt lat="47.09669" lon="-1.80963">
        <ele>66</ele>
        <time>2022-10-22T12:09:07Z</time>
      </trkpt>
      <trkpt lat="47.09658" lon="-1.8096">
        <ele>66</ele>
        <time>2022-10-22T12:09:09Z</time>
      </trkpt>
      <trkpt lat="47.09647" lon="-1.80957">
        <ele>66</ele>
        <time>2022-10-22T12:09:11Z</time>
      </trkpt>
      <trkpt lat="47.09635" lon="-1.80955">
        <ele>66</ele>
        <time>2022-10-22T12:09:13Z</time>
      </trkpt>
      <trkpt lat="47.09624" lon="-1.80952">
        <ele>65</ele>
        <time>2022-10-22T12:09:15Z</time>
      </trkpt>
      <trkpt lat="47.09613" lon="-1.80949">
        <ele>65</ele>
        <time>2022-10-22T12:09:17Z</time>
      </trkpt>
      <trkpt lat="47.096" lon="-1.80948">
        <ele>64</ele>
        <time>2022-10-22T12:09:19Z</time>
      </trkpt>
      <trkpt lat="47.09589" lon="-1.80944">
        <ele>64</ele>
        <time>2022-10-22T12:09:21Z</time>
      </trkpt>
      <trkpt lat="47.09578" lon="-1.8094">
        <ele>64</ele>
        <time>2022-10-22T12:09:23Z</time>
      </trkpt>
      <trkpt lat="47.09566" lon="-1.80938">
        <ele>64</ele>
        <time>2022-10-22T12:09:25Z</time>
      </trkpt>
      <trkpt lat="47.09554" lon="-1.80934">
        <ele>64</ele>
        <time>2022-10-22T12:09:27Z</time>
      </trkpt>
      <trkpt lat="47.09542" lon="-1.80931">
        <ele>65</ele>
        <time>2022-10-22T12:09:29Z</time>
      </trkpt>
      <trkpt lat="47.09531" lon="-1.80928">
        <ele>65</ele>
        <time>2022-10-22T12:09:31Z</time>
      </trkpt>
      <trkpt lat="47.09519" lon="-1.80925">
        <ele>65</ele>
        <time>2022-10-22T12:09:33Z</time>
      </trkpt>
      <trkpt lat="47.09507" lon="-1.80924">
        <ele>66</ele>
        <time>2022-10-22T12:09:35Z</time>
      </trkpt>
      <trkpt lat="47.09495" lon="-1.80923">
        <ele>65</ele>
        <time>2022-10-22T12:09:37Z</time>
      </trkpt>
      <trkpt lat="47.09483" lon="-1.80925">
        <ele>66</ele>
        <time>2022-10-22T12:09:39Z</time>
      </trkpt>
      <trkpt lat="47.09472" lon="-1.80928">
        <ele>65</ele>
        <time>2022-10-22T12:09:41Z</time>
      </trkpt>
      <trkpt lat="47.0946" lon="-1.80934">
        <ele>65</ele>
        <time>2022-10-22T12:09:43Z</time>
      </trkpt>
      <trkpt lat="47.0945" lon="-1.8094">
        <ele>65</ele>
        <time>2022-10-22T12:09:45Z</time>
      </trkpt>
      <trkpt lat="47.0944" lon="-1.80947">
        <ele>65</ele>
        <time>2022-10-22T12:09:47Z</time>
      </trkpt>
      <trkpt lat="47.09429" lon="-1.80953">
        <ele>65</ele>
        <time>2022-10-22T12:09:49Z</time>
      </trkpt>
      <trkpt lat="47.09418" lon="-1.8096">
        <ele>64</ele>
        <time>2022-10-22T12:09:51Z</time>
      </trkpt>
      <trkpt lat="47.09407" lon="-1.80966">
        <ele>63</ele>
        <time>2022-10-22T12:09:53Z</time>
      </trkpt>
      <trkpt lat="47.09395" lon="-1.80972">
        <ele>64</ele>
        <time>2022-10-22T12:09:55Z</time>
      </trkpt>
      <trkpt lat="47.09383" lon="-1.8098">
        <ele>64</ele>
        <time>2022-10-22T12:09:57Z</time>
      </trkpt>
      <trkpt lat="47.09371" lon="-1.80987">
        <ele>63</ele>
        <time>2022-10-22T12:09:59Z</time>
      </trkpt>
      <trkpt lat="47.09358" lon="-1.80995">
        <ele>62</ele>
        <time>2022-10-22T12:10:01Z</time>
      </trkpt>
      <trkpt lat="47.09345" lon="-1.81003">
        <ele>61</ele>
        <time>2022-10-22T12:10:03Z</time>
      </trkpt>
      <trkpt lat="47.09332" lon="-1.8101">
        <ele>61</ele>
        <time>2022-10-22T12:10:05Z</time>
      </trkpt>
      <trkpt lat="47.09319" lon="-1.81017">
        <ele>60</ele>
        <time>2022-10-22T12:10:07Z</time>
      </trkpt>
      <trkpt lat="47.09307" lon="-1.81025">
        <ele>60</ele>
        <time>2022-10-22T12:10:09Z</time>
      </trkpt>
      <trkpt lat="47.09295" lon="-1.81032">
        <ele>60</ele>
        <time>2022-10-22T12:10:11Z</time>
      </trkpt>
      <trkpt lat="47.09282" lon="-1.8104">
        <ele>59</ele>
        <time>2022-10-22T12:10:13Z</time>
      </trkpt>
      <trkpt lat="47.09269" lon="-1.81048">
        <ele>59</ele>
        <time>2022-10-22T12:10:15Z</time>
      </trkpt>
      <trkpt lat="47.09256" lon="-1.81056">
        <ele>59</ele>
        <time>2022-10-22T12:10:17Z</time>
      </trkpt>
      <trkpt lat="47.09244" lon="-1.81063">
        <ele>59</ele>
        <time>2022-10-22T12:10:19Z</time>
      </trkpt>
      <trkpt lat="47.09234" lon="-1.81073">
        <ele>58</ele>
        <time>2022-10-22T12:10:21Z</time>
      </trkpt>
      <trkpt lat="47.09228" lon="-1.81082">
        <ele>58</ele>
        <time>2022-10-22T12:10:23Z</time>
      </trkpt>
      <trkpt lat="47.09215" lon="-1.81085">
        <ele>58</ele>
        <time>2022-10-22T12:10:27Z</time>
      </trkpt>
      <trkpt lat="47.09206" lon="-1.81078">
        <ele>58</ele>
        <time>2022-10-22T12:10:29Z</time>
      </trkpt>
      <trkpt lat="47.09197" lon="-1.8107">
        <ele>59</ele>
        <time>2022-10-22T12:10:31Z</time>
      </trkpt>
      <trkpt lat="47.09188" lon="-1.81063">
        <ele>59</ele>
        <time>2022-10-22T12:10:33Z</time>
      </trkpt>
      <trkpt lat="47.0918" lon="-1.81055">
        <ele>59</ele>
        <time>2022-10-22T12:10:35Z</time>
      </trkpt>
      <trkpt lat="47.09171" lon="-1.81051">
        <ele>60</ele>
        <time>2022-10-22T12:10:37Z</time>
      </trkpt>
      <trkpt lat="47.09161" lon="-1.81061">
        <ele>59</ele>
        <time>2022-10-22T12:10:39Z</time>
      </trkpt>
      <trkpt lat="47.09154" lon="-1.81075">
        <ele>59</ele>
        <time>2022-10-22T12:10:41Z</time>
      </trkpt>
      <trkpt lat="47.09145" lon="-1.81087">
        <ele>59</ele>
        <time>2022-10-22T12:10:43Z</time>
      </trkpt>
      <trkpt lat="47.09135" lon="-1.81097">
        <ele>59</ele>
        <time>2022-10-22T12:10:45Z</time>
      </trkpt>
      <trkpt lat="47.09125" lon="-1.81105">
        <ele>60</ele>
        <time>2022-10-22T12:10:47Z</time>
      </trkpt>
      <trkpt lat="47.09114" lon="-1.81109">
        <ele>60</ele>
        <time>2022-10-22T12:10:49Z</time>
      </trkpt>
      <trkpt lat="47.09103" lon="-1.81111">
        <ele>60</ele>
        <time>2022-10-22T12:10:51Z</time>
      </trkpt>
      <trkpt lat="47.0909" lon="-1.81114">
        <ele>60</ele>
        <time>2022-10-22T12:10:53Z</time>
      </trkpt>
      <trkpt lat="47.09077" lon="-1.81119">
        <ele>60</ele>
        <time>2022-10-22T12:10:55Z</time>
      </trkpt>
      <trkpt lat="47.09065" lon="-1.81128">
        <ele>60</ele>
        <time>2022-10-22T12:10:57Z</time>
      </trkpt>
      <trkpt lat="47.09055" lon="-1.8114">
        <ele>59</ele>
        <time>2022-10-22T12:10:59Z</time>
      </trkpt>
      <trkpt lat="47.09048" lon="-1.81154">
        <ele>59</ele>
        <time>2022-10-22T12:11:01Z</time>
      </trkpt>
      <trkpt lat="47.09043" lon="-1.81169">
        <ele>60</ele>
        <time>2022-10-22T12:11:03Z</time>
      </trkpt>
      <trkpt lat="47.09039" lon="-1.81183">
        <ele>60</ele>
        <time>2022-10-22T12:11:05Z</time>
      </trkpt>
      <trkpt lat="47.09035" lon="-1.81198">
        <ele>60</ele>
        <time>2022-10-22T12:11:07Z</time>
      </trkpt>
      <trkpt lat="47.0903" lon="-1.81212">
        <ele>60</ele>
        <time>2022-10-22T12:11:09Z</time>
      </trkpt>
      <trkpt lat="47.09025" lon="-1.81225">
        <ele>61</ele>
        <time>2022-10-22T12:11:11Z</time>
      </trkpt>
      <trkpt lat="47.0902" lon="-1.81238">
        <ele>62</ele>
        <time>2022-10-22T12:11:13Z</time>
      </trkpt>
      <trkpt lat="47.09014" lon="-1.8125">
        <ele>62</ele>
        <time>2022-10-22T12:11:15Z</time>
      </trkpt>
      <trkpt lat="47.09007" lon="-1.81262">
        <ele>62</ele>
        <time>2022-10-22T12:11:17Z</time>
      </trkpt>
      <trkpt lat="47.08999" lon="-1.81273">
        <ele>62</ele>
        <time>2022-10-22T12:11:19Z</time>
      </trkpt>
      <trkpt lat="47.08992" lon="-1.81283">
        <ele>62</ele>
        <time>2022-10-22T12:11:21Z</time>
      </trkpt>
      <trkpt lat="47.08985" lon="-1.81294">
        <ele>62</ele>
        <time>2022-10-22T12:11:23Z</time>
      </trkpt>
      <trkpt lat="47.08977" lon="-1.81303">
        <ele>63</ele>
        <time>2022-10-22T12:11:25Z</time>
      </trkpt>
      <trkpt lat="47.08968" lon="-1.81313">
        <ele>63</ele>
        <time>2022-10-22T12:11:27Z</time>
      </trkpt>
      <trkpt lat="47.0896" lon="-1.81325">
        <ele>64</ele>
        <time>2022-10-22T12:11:29Z</time>
      </trkpt>
      <trkpt lat="47.08952" lon="-1.81335">
        <ele>64</ele>
        <time>2022-10-22T12:11:31Z</time>
      </trkpt>
      <trkpt lat="47.08944" lon="-1.81346">
        <ele>64</ele>
        <time>2022-10-22T12:11:33Z</time>
      </trkpt>
      <trkpt lat="47.08936" lon="-1.81356">
        <ele>64</ele>
        <time>2022-10-22T12:11:35Z</time>
      </trkpt>
      <trkpt lat="47.08927" lon="-1.81365">
        <ele>64</ele>
        <time>2022-10-22T12:11:37Z</time>
      </trkpt>
      <trkpt lat="47.08917" lon="-1.81374">
        <ele>64</ele>
        <time>2022-10-22T12:11:39Z</time>
      </trkpt>
      <trkpt lat="47.08908" lon="-1.81383">
        <ele>65</ele>
        <time>2022-10-22T12:11:41Z</time>
      </trkpt>
      <trkpt lat="47.08899" lon="-1.81392">
        <ele>65</ele>
        <time>2022-10-22T12:11:43Z</time>
      </trkpt>
      <trkpt lat="47.08891" lon="-1.81401">
        <ele>66</ele>
        <time>2022-10-22T12:11:45Z</time>
      </trkpt>
      <trkpt lat="47.08883" lon="-1.81411">
        <ele>65</ele>
        <time>2022-10-22T12:11:47Z</time>
      </trkpt>
      <trkpt lat="47.08876" lon="-1.81422">
        <ele>65</ele>
        <time>2022-10-22T12:11:49Z</time>
      </trkpt>
      <trkpt lat="47.08868" lon="-1.81432">
        <ele>66</ele>
        <time>2022-10-22T12:11:51Z</time>
      </trkpt>
      <trkpt lat="47.08861" lon="-1.81441">
        <ele>66</ele>
        <time>2022-10-22T12:11:53Z</time>
      </trkpt>
      <trkpt lat="47.08853" lon="-1.8145">
        <ele>65</ele>
        <time>2022-10-22T12:11:55Z</time>
      </trkpt>
      <trkpt lat="47.08844" lon="-1.81458">
        <ele>66</ele>
        <time>2022-10-22T12:11:57Z</time>
      </trkpt>
      <trkpt lat="47.08835" lon="-1.81467">
        <ele>66</ele>
        <time>2022-10-22T12:11:59Z</time>
      </trkpt>
      <trkpt lat="47.08826" lon="-1.81474">
        <ele>66</ele>
        <time>2022-10-22T12:12:01Z</time>
      </trkpt>
      <trkpt lat="47.08815" lon="-1.81483">
        <ele>67</ele>
        <time>2022-10-22T12:12:04Z</time>
      </trkpt>
      <trkpt lat="47.08804" lon="-1.81491">
        <ele>69</ele>
        <time>2022-10-22T12:12:07Z</time>
      </trkpt>
      <trkpt lat="47.08793" lon="-1.815">
        <ele>70</ele>
        <time>2022-10-22T12:12:10Z</time>
      </trkpt>
      <trkpt lat="47.08785" lon="-1.81507">
        <ele>71</ele>
        <time>2022-10-22T12:12:12Z</time>
      </trkpt>
      <trkpt lat="47.08777" lon="-1.81514">
        <ele>70</ele>
        <time>2022-10-22T12:12:14Z</time>
      </trkpt>
      <trkpt lat="47.08768" lon="-1.81522">
        <ele>70</ele>
        <time>2022-10-22T12:12:16Z</time>
      </trkpt>
      <trkpt lat="47.0876" lon="-1.81529">
        <ele>70</ele>
        <time>2022-10-22T12:12:18Z</time>
      </trkpt>
      <trkpt lat="47.08752" lon="-1.81536">
        <ele>70</ele>
        <time>2022-10-22T12:12:20Z</time>
      </trkpt>
      <trkpt lat="47.08741" lon="-1.81548">
        <ele>70</ele>
        <time>2022-10-22T12:12:23Z</time>
      </trkpt>
      <trkpt lat="47.08734" lon="-1.81558">
        <ele>70</ele>
        <time>2022-10-22T12:12:25Z</time>
      </trkpt>
      <trkpt lat="47.08728" lon="-1.81569">
        <ele>71</ele>
        <time>2022-10-22T12:12:27Z</time>
      </trkpt>
      <trkpt lat="47.08723" lon="-1.81581">
        <ele>72</ele>
        <time>2022-10-22T12:12:29Z</time>
      </trkpt>
      <trkpt lat="47.08718" lon="-1.81593">
        <ele>72</ele>
        <time>2022-10-22T12:12:31Z</time>
      </trkpt>
      <trkpt lat="47.08713" lon="-1.81605">
        <ele>73</ele>
        <time>2022-10-22T12:12:33Z</time>
      </trkpt>
      <trkpt lat="47.08709" lon="-1.81618">
        <ele>73</ele>
        <time>2022-10-22T12:12:35Z</time>
      </trkpt>
      <trkpt lat="47.08705" lon="-1.81631">
        <ele>73</ele>
        <time>2022-10-22T12:12:37Z</time>
      </trkpt>
      <trkpt lat="47.08701" lon="-1.81644">
        <ele>72</ele>
        <time>2022-10-22T12:12:39Z</time>
      </trkpt>
      <trkpt lat="47.08696" lon="-1.81657">
        <ele>72</ele>
        <time>2022-10-22T12:12:41Z</time>
      </trkpt>
      <trkpt lat="47.0869" lon="-1.81669">
        <ele>73</ele>
        <time>2022-10-22T12:12:43Z</time>
      </trkpt>
      <trkpt lat="47.08682" lon="-1.81679">
        <ele>72</ele>
        <time>2022-10-22T12:12:45Z</time>
      </trkpt>
      <trkpt lat="47.08673" lon="-1.81684">
        <ele>72</ele>
        <time>2022-10-22T12:12:47Z</time>
      </trkpt>
      <trkpt lat="47.08664" lon="-1.8169">
        <ele>71</ele>
        <time>2022-10-22T12:12:49Z</time>
      </trkpt>
      <trkpt lat="47.08655" lon="-1.81693">
        <ele>71</ele>
        <time>2022-10-22T12:12:51Z</time>
      </trkpt>
      <trkpt lat="47.08642" lon="-1.81691">
        <ele>72</ele>
        <time>2022-10-22T12:12:54Z</time>
      </trkpt>
      <trkpt lat="47.08633" lon="-1.81688">
        <ele>72</ele>
        <time>2022-10-22T12:12:56Z</time>
      </trkpt>
      <trkpt lat="47.08624" lon="-1.81685">
        <ele>73</ele>
        <time>2022-10-22T12:12:58Z</time>
      </trkpt>
      <trkpt lat="47.08615" lon="-1.81683">
        <ele>73</ele>
        <time>2022-10-22T12:13:00Z</time>
      </trkpt>
      <trkpt lat="47.08605" lon="-1.81681">
        <ele>74</ele>
        <time>2022-10-22T12:13:02Z</time>
      </trkpt>
      <trkpt lat="47.08596" lon="-1.81678">
        <ele>74</ele>
        <time>2022-10-22T12:13:04Z</time>
      </trkpt>
      <trkpt lat="47.08586" lon="-1.81676">
        <ele>75</ele>
        <time>2022-10-22T12:13:06Z</time>
      </trkpt>
      <trkpt lat="47.08577" lon="-1.81674">
        <ele>76</ele>
        <time>2022-10-22T12:13:08Z</time>
      </trkpt>
      <trkpt lat="47.08567" lon="-1.81671">
        <ele>76</ele>
        <time>2022-10-22T12:13:10Z</time>
      </trkpt>
      <trkpt lat="47.08557" lon="-1.81668">
        <ele>76</ele>
        <time>2022-10-22T12:13:12Z</time>
      </trkpt>
      <trkpt lat="47.08547" lon="-1.81666">
        <ele>76</ele>
        <time>2022-10-22T12:13:14Z</time>
      </trkpt>
      <trkpt lat="47.08537" lon="-1.81664">
        <ele>76</ele>
        <time>2022-10-22T12:13:16Z</time>
      </trkpt>
      <trkpt lat="47.08526" lon="-1.81661">
        <ele>76</ele>
        <time>2022-10-22T12:13:18Z</time>
      </trkpt>
      <trkpt lat="47.08516" lon="-1.8166">
        <ele>76</ele>
        <time>2022-10-22T12:13:20Z</time>
      </trkpt>
      <trkpt lat="47.08506" lon="-1.81659">
        <ele>76</ele>
        <time>2022-10-22T12:13:22Z</time>
      </trkpt>
      <trkpt lat="47.08495" lon="-1.81657">
        <ele>76</ele>
        <time>2022-10-22T12:13:24Z</time>
      </trkpt>
      <trkpt lat="47.08484" lon="-1.81655">
        <ele>76</ele>
        <time>2022-10-22T12:13:26Z</time>
      </trkpt>
      <trkpt lat="47.08474" lon="-1.81653">
        <ele>76</ele>
        <time>2022-10-22T12:13:28Z</time>
      </trkpt>
      <trkpt lat="47.08463" lon="-1.81652">
        <ele>76</ele>
        <time>2022-10-22T12:13:30Z</time>
      </trkpt>
      <trkpt lat="47.08453" lon="-1.81651">
        <ele>75</ele>
        <time>2022-10-22T12:13:32Z</time>
      </trkpt>
      <trkpt lat="47.08441" lon="-1.81649">
        <ele>76</ele>
        <time>2022-10-22T12:13:34Z</time>
      </trkpt>
      <trkpt lat="47.0843" lon="-1.81646">
        <ele>76</ele>
        <time>2022-10-22T12:13:36Z</time>
      </trkpt>
      <trkpt lat="47.08419" lon="-1.81645">
        <ele>76</ele>
        <time>2022-10-22T12:13:38Z</time>
      </trkpt>
      <trkpt lat="47.08408" lon="-1.81644">
        <ele>76</ele>
        <time>2022-10-22T12:13:40Z</time>
      </trkpt>
      <trkpt lat="47.08397" lon="-1.81643">
        <ele>76</ele>
        <time>2022-10-22T12:13:42Z</time>
      </trkpt>
      <trkpt lat="47.08386" lon="-1.81642">
        <ele>76</ele>
        <time>2022-10-22T12:13:44Z</time>
      </trkpt>
      <trkpt lat="47.08375" lon="-1.8164">
        <ele>76</ele>
        <time>2022-10-22T12:13:46Z</time>
      </trkpt>
      <trkpt lat="47.08365" lon="-1.8164">
        <ele>76</ele>
        <time>2022-10-22T12:13:48Z</time>
      </trkpt>
      <trkpt lat="47.08354" lon="-1.81639">
        <ele>75</ele>
        <time>2022-10-22T12:13:50Z</time>
      </trkpt>
      <trkpt lat="47.08344" lon="-1.81637">
        <ele>75</ele>
        <time>2022-10-22T12:13:52Z</time>
      </trkpt>
      <trkpt lat="47.08333" lon="-1.81636">
        <ele>75</ele>
        <time>2022-10-22T12:13:54Z</time>
      </trkpt>
      <trkpt lat="47.08322" lon="-1.81634">
        <ele>75</ele>
        <time>2022-10-22T12:13:56Z</time>
      </trkpt>
      <trkpt lat="47.08312" lon="-1.81633">
        <ele>75</ele>
        <time>2022-10-22T12:13:58Z</time>
      </trkpt>
      <trkpt lat="47.08302" lon="-1.81633">
        <ele>75</ele>
        <time>2022-10-22T12:14:00Z</time>
      </trkpt>
      <trkpt lat="47.08291" lon="-1.81633">
        <ele>75</ele>
        <time>2022-10-22T12:14:02Z</time>
      </trkpt>
      <trkpt lat="47.0828" lon="-1.81633">
        <ele>75</ele>
        <time>2022-10-22T12:14:04Z</time>
      </trkpt>
      <trkpt lat="47.08269" lon="-1.81632">
        <ele>75</ele>
        <time>2022-10-22T12:14:06Z</time>
      </trkpt>
      <trkpt lat="47.08258" lon="-1.81631">
        <ele>75</ele>
        <time>2022-10-22T12:14:08Z</time>
      </trkpt>
      <trkpt lat="47.08248" lon="-1.81631">
        <ele>75</ele>
        <time>2022-10-22T12:14:10Z</time>
      </trkpt>
      <trkpt lat="47.08237" lon="-1.81629">
        <ele>75</ele>
        <time>2022-10-22T12:14:12Z</time>
      </trkpt>
      <trkpt lat="47.08227" lon="-1.81629">
        <ele>75</ele>
        <time>2022-10-22T12:14:14Z</time>
      </trkpt>
      <trkpt lat="47.08217" lon="-1.81629">
        <ele>74</ele>
        <time>2022-10-22T12:14:16Z</time>
      </trkpt>
      <trkpt lat="47.08207" lon="-1.81629">
        <ele>74</ele>
        <time>2022-10-22T12:14:18Z</time>
      </trkpt>
      <trkpt lat="47.08196" lon="-1.81628">
        <ele>74</ele>
        <time>2022-10-22T12:14:20Z</time>
      </trkpt>
      <trkpt lat="47.08186" lon="-1.81628">
        <ele>74</ele>
        <time>2022-10-22T12:14:22Z</time>
      </trkpt>
      <trkpt lat="47.08176" lon="-1.81626">
        <ele>74</ele>
        <time>2022-10-22T12:14:24Z</time>
      </trkpt>
      <trkpt lat="47.08166" lon="-1.81626">
        <ele>74</ele>
        <time>2022-10-22T12:14:26Z</time>
      </trkpt>
      <trkpt lat="47.08155" lon="-1.81626">
        <ele>74</ele>
        <time>2022-10-22T12:14:28Z</time>
      </trkpt>
      <trkpt lat="47.08146" lon="-1.81625">
        <ele>74</ele>
        <time>2022-10-22T12:14:30Z</time>
      </trkpt>
      <trkpt lat="47.08135" lon="-1.81625">
        <ele>74</ele>
        <time>2022-10-22T12:14:32Z</time>
      </trkpt>
      <trkpt lat="47.08125" lon="-1.81624">
        <ele>74</ele>
        <time>2022-10-22T12:14:34Z</time>
      </trkpt>
      <trkpt lat="47.08115" lon="-1.81622">
        <ele>74</ele>
        <time>2022-10-22T12:14:36Z</time>
      </trkpt>
      <trkpt lat="47.08105" lon="-1.8162">
        <ele>74</ele>
        <time>2022-10-22T12:14:38Z</time>
      </trkpt>
      <trkpt lat="47.08094" lon="-1.81617">
        <ele>74</ele>
        <time>2022-10-22T12:14:40Z</time>
      </trkpt>
      <trkpt lat="47.08084" lon="-1.81613">
        <ele>74</ele>
        <time>2022-10-22T12:14:42Z</time>
      </trkpt>
      <trkpt lat="47.08074" lon="-1.81608">
        <ele>74</ele>
        <time>2022-10-22T12:14:44Z</time>
      </trkpt>
      <trkpt lat="47.08065" lon="-1.81604">
        <ele>74</ele>
        <time>2022-10-22T12:14:46Z</time>
      </trkpt>
      <trkpt lat="47.08055" lon="-1.81598">
        <ele>74</ele>
        <time>2022-10-22T12:14:48Z</time>
      </trkpt>
      <trkpt lat="47.08045" lon="-1.81593">
        <ele>74</ele>
        <time>2022-10-22T12:14:50Z</time>
      </trkpt>
      <trkpt lat="47.08035" lon="-1.81587">
        <ele>74</ele>
        <time>2022-10-22T12:14:52Z</time>
      </trkpt>
      <trkpt lat="47.08027" lon="-1.81582">
        <ele>74</ele>
        <time>2022-10-22T12:14:54Z</time>
      </trkpt>
      <trkpt lat="47.08018" lon="-1.81576">
        <ele>74</ele>
        <time>2022-10-22T12:14:56Z</time>
      </trkpt>
      <trkpt lat="47.08009" lon="-1.81572">
        <ele>74</ele>
        <time>2022-10-22T12:14:58Z</time>
      </trkpt>
      <trkpt lat="47.07999" lon="-1.81567">
        <ele>74</ele>
        <time>2022-10-22T12:15:00Z</time>
      </trkpt>
      <trkpt lat="47.07989" lon="-1.81564">
        <ele>74</ele>
        <time>2022-10-22T12:15:02Z</time>
      </trkpt>
      <trkpt lat="47.07979" lon="-1.81561">
        <ele>74</ele>
        <time>2022-10-22T12:15:04Z</time>
      </trkpt>
      <trkpt lat="47.07969" lon="-1.81559">
        <ele>73</ele>
        <time>2022-10-22T12:15:06Z</time>
      </trkpt>
      <trkpt lat="47.07958" lon="-1.81556">
        <ele>73</ele>
        <time>2022-10-22T12:15:08Z</time>
      </trkpt>
      <trkpt lat="47.07948" lon="-1.81556">
        <ele>74</ele>
        <time>2022-10-22T12:15:10Z</time>
      </trkpt>
      <trkpt lat="47.07937" lon="-1.81557">
        <ele>73</ele>
        <time>2022-10-22T12:15:12Z</time>
      </trkpt>
      <trkpt lat="47.07926" lon="-1.81558">
        <ele>73</ele>
        <time>2022-10-22T12:15:14Z</time>
      </trkpt>
      <trkpt lat="47.07914" lon="-1.8156">
        <ele>73</ele>
        <time>2022-10-22T12:15:16Z</time>
      </trkpt>
      <trkpt lat="47.07903" lon="-1.8156">
        <ele>73</ele>
        <time>2022-10-22T12:15:18Z</time>
      </trkpt>
      <trkpt lat="47.07892" lon="-1.81561">
        <ele>73</ele>
        <time>2022-10-22T12:15:20Z</time>
      </trkpt>
      <trkpt lat="47.07881" lon="-1.81562">
        <ele>73</ele>
        <time>2022-10-22T12:15:22Z</time>
      </trkpt>
      <trkpt lat="47.0787" lon="-1.81562">
        <ele>73</ele>
        <time>2022-10-22T12:15:24Z</time>
      </trkpt>
      <trkpt lat="47.0786" lon="-1.81562">
        <ele>74</ele>
        <time>2022-10-22T12:15:26Z</time>
      </trkpt>
      <trkpt lat="47.0785" lon="-1.81561">
        <ele>74</ele>
        <time>2022-10-22T12:15:28Z</time>
      </trkpt>
      <trkpt lat="47.07839" lon="-1.8156">
        <ele>74</ele>
        <time>2022-10-22T12:15:30Z</time>
      </trkpt>
      <trkpt lat="47.07829" lon="-1.81558">
        <ele>74</ele>
        <time>2022-10-22T12:15:32Z</time>
      </trkpt>
      <trkpt lat="47.07819" lon="-1.81556">
        <ele>74</ele>
        <time>2022-10-22T12:15:34Z</time>
      </trkpt>
      <trkpt lat="47.07808" lon="-1.81554">
        <ele>74</ele>
        <time>2022-10-22T12:15:36Z</time>
      </trkpt>
      <trkpt lat="47.07798" lon="-1.81552">
        <ele>74</ele>
        <time>2022-10-22T12:15:38Z</time>
      </trkpt>
      <trkpt lat="47.07788" lon="-1.8155">
        <ele>74</ele>
        <time>2022-10-22T12:15:40Z</time>
      </trkpt>
      <trkpt lat="47.07778" lon="-1.81549">
        <ele>74</ele>
        <time>2022-10-22T12:15:42Z</time>
      </trkpt>
      <trkpt lat="47.07768" lon="-1.81549">
        <ele>74</ele>
        <time>2022-10-22T12:15:44Z</time>
      </trkpt>
      <trkpt lat="47.07758" lon="-1.81549">
        <ele>74</ele>
        <time>2022-10-22T12:15:46Z</time>
      </trkpt>
      <trkpt lat="47.07748" lon="-1.81548">
        <ele>74</ele>
        <time>2022-10-22T12:15:48Z</time>
      </trkpt>
      <trkpt lat="47.07737" lon="-1.81547">
        <ele>75</ele>
        <time>2022-10-22T12:15:50Z</time>
      </trkpt>
      <trkpt lat="47.07727" lon="-1.81547">
        <ele>75</ele>
        <time>2022-10-22T12:15:52Z</time>
      </trkpt>
      <trkpt lat="47.07717" lon="-1.81546">
        <ele>75</ele>
        <time>2022-10-22T12:15:54Z</time>
      </trkpt>
      <trkpt lat="47.07706" lon="-1.81545">
        <ele>74</ele>
        <time>2022-10-22T12:15:56Z</time>
      </trkpt>
      <trkpt lat="47.07696" lon="-1.81544">
        <ele>74</ele>
        <time>2022-10-22T12:15:58Z</time>
      </trkpt>
      <trkpt lat="47.07686" lon="-1.81544">
        <ele>74</ele>
        <time>2022-10-22T12:16:00Z</time>
      </trkpt>
      <trkpt lat="47.07676" lon="-1.81543">
        <ele>74</ele>
        <time>2022-10-22T12:16:02Z</time>
      </trkpt>
      <trkpt lat="47.07665" lon="-1.81542">
        <ele>74</ele>
        <time>2022-10-22T12:16:04Z</time>
      </trkpt>
      <trkpt lat="47.07655" lon="-1.8154">
        <ele>75</ele>
        <time>2022-10-22T12:16:06Z</time>
      </trkpt>
      <trkpt lat="47.07645" lon="-1.81537">
        <ele>75</ele>
        <time>2022-10-22T12:16:08Z</time>
      </trkpt>
      <trkpt lat="47.07635" lon="-1.81533">
        <ele>76</ele>
        <time>2022-10-22T12:16:10Z</time>
      </trkpt>
      <trkpt lat="47.07625" lon="-1.81527">
        <ele>76</ele>
        <time>2022-10-22T12:16:12Z</time>
      </trkpt>
      <trkpt lat="47.07616" lon="-1.8152">
        <ele>76</ele>
        <time>2022-10-22T12:16:14Z</time>
      </trkpt>
      <trkpt lat="47.07608" lon="-1.81511">
        <ele>76</ele>
        <time>2022-10-22T12:16:16Z</time>
      </trkpt>
      <trkpt lat="47.07599" lon="-1.81502">
        <ele>76</ele>
        <time>2022-10-22T12:16:18Z</time>
      </trkpt>
      <trkpt lat="47.07591" lon="-1.81493">
        <ele>76</ele>
        <time>2022-10-22T12:16:20Z</time>
      </trkpt>
      <trkpt lat="47.07582" lon="-1.81485">
        <ele>76</ele>
        <time>2022-10-22T12:16:22Z</time>
      </trkpt>
      <trkpt lat="47.07574" lon="-1.81476">
        <ele>76</ele>
        <time>2022-10-22T12:16:24Z</time>
      </trkpt>
      <trkpt lat="47.07565" lon="-1.81467">
        <ele>76</ele>
        <time>2022-10-22T12:16:26Z</time>
      </trkpt>
      <trkpt lat="47.07556" lon="-1.81458">
        <ele>76</ele>
        <time>2022-10-22T12:16:28Z</time>
      </trkpt>
      <trkpt lat="47.07548" lon="-1.8145">
        <ele>76</ele>
        <time>2022-10-22T12:16:30Z</time>
      </trkpt>
      <trkpt lat="47.07538" lon="-1.81444">
        <ele>76</ele>
        <time>2022-10-22T12:16:32Z</time>
      </trkpt>
      <trkpt lat="47.07527" lon="-1.81441">
        <ele>77</ele>
        <time>2022-10-22T12:16:34Z</time>
      </trkpt>
      <trkpt lat="47.07516" lon="-1.81443">
        <ele>77</ele>
        <time>2022-10-22T12:16:36Z</time>
      </trkpt>
      <trkpt lat="47.07506" lon="-1.81448">
        <ele>77</ele>
        <time>2022-10-22T12:16:38Z</time>
      </trkpt>
      <trkpt lat="47.07496" lon="-1.81453">
        <ele>77</ele>
        <time>2022-10-22T12:16:40Z</time>
      </trkpt>
      <trkpt lat="47.07487" lon="-1.81459">
        <ele>77</ele>
        <time>2022-10-22T12:16:42Z</time>
      </trkpt>
      <trkpt lat="47.07477" lon="-1.81465">
        <ele>77</ele>
        <time>2022-10-22T12:16:44Z</time>
      </trkpt>
      <trkpt lat="47.07466" lon="-1.8147">
        <ele>77</ele>
        <time>2022-10-22T12:16:46Z</time>
      </trkpt>
      <trkpt lat="47.07455" lon="-1.81473">
        <ele>77</ele>
        <time>2022-10-22T12:16:48Z</time>
      </trkpt>
      <trkpt lat="47.07444" lon="-1.81476">
        <ele>77</ele>
        <time>2022-10-22T12:16:50Z</time>
      </trkpt>
      <trkpt lat="47.07434" lon="-1.81478">
        <ele>78</ele>
        <time>2022-10-22T12:16:52Z</time>
      </trkpt>
      <trkpt lat="47.07424" lon="-1.81478">
        <ele>77</ele>
        <time>2022-10-22T12:16:54Z</time>
      </trkpt>
      <trkpt lat="47.07412" lon="-1.81478">
        <ele>77</ele>
        <time>2022-10-22T12:16:56Z</time>
      </trkpt>
      <trkpt lat="47.07401" lon="-1.81478">
        <ele>77</ele>
        <time>2022-10-22T12:16:58Z</time>
      </trkpt>
      <trkpt lat="47.0739" lon="-1.8148">
        <ele>78</ele>
        <time>2022-10-22T12:17:00Z</time>
      </trkpt>
      <trkpt lat="47.07379" lon="-1.8148">
        <ele>78</ele>
        <time>2022-10-22T12:17:02Z</time>
      </trkpt>
      <trkpt lat="47.07369" lon="-1.81478">
        <ele>78</ele>
        <time>2022-10-22T12:17:04Z</time>
      </trkpt>
      <trkpt lat="47.07358" lon="-1.81476">
        <ele>78</ele>
        <time>2022-10-22T12:17:06Z</time>
      </trkpt>
      <trkpt lat="47.07347" lon="-1.81472">
        <ele>78</ele>
        <time>2022-10-22T12:17:08Z</time>
      </trkpt>
      <trkpt lat="47.07336" lon="-1.81468">
        <ele>79</ele>
        <time>2022-10-22T12:17:10Z</time>
      </trkpt>
      <trkpt lat="47.07325" lon="-1.81464">
        <ele>78</ele>
        <time>2022-10-22T12:17:12Z</time>
      </trkpt>
      <trkpt lat="47.07315" lon="-1.81459">
        <ele>78</ele>
        <time>2022-10-22T12:17:14Z</time>
      </trkpt>
      <trkpt lat="47.07305" lon="-1.81454">
        <ele>77</ele>
        <time>2022-10-22T12:17:16Z</time>
      </trkpt>
      <trkpt lat="47.07296" lon="-1.81446">
        <ele>77</ele>
        <time>2022-10-22T12:17:18Z</time>
      </trkpt>
      <trkpt lat="47.07286" lon="-1.81439">
        <ele>77</ele>
        <time>2022-10-22T12:17:20Z</time>
      </trkpt>
      <trkpt lat="47.07278" lon="-1.81429">
        <ele>77</ele>
        <time>2022-10-22T12:17:22Z</time>
      </trkpt>
      <trkpt lat="47.07269" lon="-1.8142">
        <ele>77</ele>
        <time>2022-10-22T12:17:24Z</time>
      </trkpt>
      <trkpt lat="47.0726" lon="-1.81412">
        <ele>78</ele>
        <time>2022-10-22T12:17:26Z</time>
      </trkpt>
      <trkpt lat="47.07251" lon="-1.81402">
        <ele>78</ele>
        <time>2022-10-22T12:17:28Z</time>
      </trkpt>
      <trkpt lat="47.07242" lon="-1.81394">
        <ele>78</ele>
        <time>2022-10-22T12:17:30Z</time>
      </trkpt>
      <trkpt lat="47.07233" lon="-1.81386">
        <ele>78</ele>
        <time>2022-10-22T12:17:32Z</time>
      </trkpt>
      <trkpt lat="47.07223" lon="-1.81377">
        <ele>79</ele>
        <time>2022-10-22T12:17:34Z</time>
      </trkpt>
      <trkpt lat="47.07214" lon="-1.81368">
        <ele>79</ele>
        <time>2022-10-22T12:17:36Z</time>
      </trkpt>
      <trkpt lat="47.07205" lon="-1.8136">
        <ele>79</ele>
        <time>2022-10-22T12:17:38Z</time>
      </trkpt>
      <trkpt lat="47.07196" lon="-1.81353">
        <ele>78</ele>
        <time>2022-10-22T12:17:40Z</time>
      </trkpt>
      <trkpt lat="47.07186" lon="-1.81346">
        <ele>78</ele>
        <time>2022-10-22T12:17:42Z</time>
      </trkpt>
      <trkpt lat="47.07176" lon="-1.81343">
        <ele>79</ele>
        <time>2022-10-22T12:17:44Z</time>
      </trkpt>
      <trkpt lat="47.07165" lon="-1.81345">
        <ele>78</ele>
        <time>2022-10-22T12:17:46Z</time>
      </trkpt>
      <trkpt lat="47.07156" lon="-1.81354">
        <ele>78</ele>
        <time>2022-10-22T12:17:48Z</time>
      </trkpt>
      <trkpt lat="47.07147" lon="-1.81363">
        <ele>78</ele>
        <time>2022-10-22T12:17:50Z</time>
      </trkpt>
      <trkpt lat="47.07139" lon="-1.81372">
        <ele>78</ele>
        <time>2022-10-22T12:17:52Z</time>
      </trkpt>
      <trkpt lat="47.0713" lon="-1.81381">
        <ele>79</ele>
        <time>2022-10-22T12:17:54Z</time>
      </trkpt>
      <trkpt lat="47.07122" lon="-1.81391">
        <ele>79</ele>
        <time>2022-10-22T12:17:56Z</time>
      </trkpt>
      <trkpt lat="47.07113" lon="-1.814">
        <ele>79</ele>
        <time>2022-10-22T12:17:58Z</time>
      </trkpt>
      <trkpt lat="47.07106" lon="-1.8141">
        <ele>80</ele>
        <time>2022-10-22T12:18:00Z</time>
      </trkpt>
      <trkpt lat="47.07098" lon="-1.81421">
        <ele>80</ele>
        <time>2022-10-22T12:18:02Z</time>
      </trkpt>
      <trkpt lat="47.0709" lon="-1.81432">
        <ele>81</ele>
        <time>2022-10-22T12:18:04Z</time>
      </trkpt>
      <trkpt lat="47.07083" lon="-1.81443">
        <ele>81</ele>
        <time>2022-10-22T12:18:06Z</time>
      </trkpt>
      <trkpt lat="47.07075" lon="-1.81453">
        <ele>81</ele>
        <time>2022-10-22T12:18:08Z</time>
      </trkpt>
      <trkpt lat="47.07068" lon="-1.81464">
        <ele>81</ele>
        <time>2022-10-22T12:18:10Z</time>
      </trkpt>
      <trkpt lat="47.07062" lon="-1.81475">
        <ele>82</ele>
        <time>2022-10-22T12:18:12Z</time>
      </trkpt>
      <trkpt lat="47.07055" lon="-1.81488">
        <ele>82</ele>
        <time>2022-10-22T12:18:14Z</time>
      </trkpt>
      <trkpt lat="47.07049" lon="-1.81501">
        <ele>82</ele>
        <time>2022-10-22T12:18:16Z</time>
      </trkpt>
      <trkpt lat="47.07044" lon="-1.81515">
        <ele>82</ele>
        <time>2022-10-22T12:18:18Z</time>
      </trkpt>
      <trkpt lat="47.07038" lon="-1.81529">
        <ele>82</ele>
        <time>2022-10-22T12:18:20Z</time>
      </trkpt>
      <trkpt lat="47.07032" lon="-1.81541">
        <ele>82</ele>
        <time>2022-10-22T12:18:22Z</time>
      </trkpt>
      <trkpt lat="47.07026" lon="-1.81555">
        <ele>82</ele>
        <time>2022-10-22T12:18:24Z</time>
      </trkpt>
      <trkpt lat="47.07023" lon="-1.81569">
        <ele>82</ele>
        <time>2022-10-22T12:18:26Z</time>
      </trkpt>
      <trkpt lat="47.07019" lon="-1.81583">
        <ele>82</ele>
        <time>2022-10-22T12:18:28Z</time>
      </trkpt>
      <trkpt lat="47.07014" lon="-1.81597">
        <ele>81</ele>
        <time>2022-10-22T12:18:30Z</time>
      </trkpt>
      <trkpt lat="47.0701" lon="-1.8161">
        <ele>82</ele>
        <time>2022-10-22T12:18:32Z</time>
      </trkpt>
      <trkpt lat="47.07007" lon="-1.81624">
        <ele>82</ele>
        <time>2022-10-22T12:18:34Z</time>
      </trkpt>
      <trkpt lat="47.07003" lon="-1.81637">
        <ele>82</ele>
        <time>2022-10-22T12:18:36Z</time>
      </trkpt>
      <trkpt lat="47.06999" lon="-1.81651">
        <ele>83</ele>
        <time>2022-10-22T12:18:38Z</time>
      </trkpt>
      <trkpt lat="47.06995" lon="-1.81664">
        <ele>84</ele>
        <time>2022-10-22T12:18:40Z</time>
      </trkpt>
      <trkpt lat="47.0699" lon="-1.81677">
        <ele>84</ele>
        <time>2022-10-22T12:18:42Z</time>
      </trkpt>
      <trkpt lat="47.06986" lon="-1.81691">
        <ele>84</ele>
        <time>2022-10-22T12:18:44Z</time>
      </trkpt>
      <trkpt lat="47.06982" lon="-1.81706">
        <ele>84</ele>
        <time>2022-10-22T12:18:46Z</time>
      </trkpt>
      <trkpt lat="47.06977" lon="-1.8172">
        <ele>84</ele>
        <time>2022-10-22T12:18:48Z</time>
      </trkpt>
      <trkpt lat="47.06972" lon="-1.81733">
        <ele>84</ele>
        <time>2022-10-22T12:18:50Z</time>
      </trkpt>
      <trkpt lat="47.06967" lon="-1.81746">
        <ele>84</ele>
        <time>2022-10-22T12:18:52Z</time>
      </trkpt>
      <trkpt lat="47.06962" lon="-1.81758">
        <ele>84</ele>
        <time>2022-10-22T12:18:54Z</time>
      </trkpt>
      <trkpt lat="47.06957" lon="-1.8177">
        <ele>84</ele>
        <time>2022-10-22T12:18:56Z</time>
      </trkpt>
      <trkpt lat="47.06951" lon="-1.81782">
        <ele>84</ele>
        <time>2022-10-22T12:18:58Z</time>
      </trkpt>
      <trkpt lat="47.06946" lon="-1.81796">
        <ele>84</ele>
        <time>2022-10-22T12:19:00Z</time>
      </trkpt>
      <trkpt lat="47.0694" lon="-1.8181">
        <ele>84</ele>
        <time>2022-10-22T12:19:02Z</time>
      </trkpt>
      <trkpt lat="47.06935" lon="-1.81824">
        <ele>84</ele>
        <time>2022-10-22T12:19:04Z</time>
      </trkpt>
      <trkpt lat="47.06929" lon="-1.81837">
        <ele>84</ele>
        <time>2022-10-22T12:19:06Z</time>
      </trkpt>
      <trkpt lat="47.06924" lon="-1.81851">
        <ele>85</ele>
        <time>2022-10-22T12:19:08Z</time>
      </trkpt>
      <trkpt lat="47.06918" lon="-1.81863">
        <ele>85</ele>
        <time>2022-10-22T12:19:10Z</time>
      </trkpt>
      <trkpt lat="47.06912" lon="-1.81877">
        <ele>86</ele>
        <time>2022-10-22T12:19:12Z</time>
      </trkpt>
      <trkpt lat="47.06907" lon="-1.8189">
        <ele>86</ele>
        <time>2022-10-22T12:19:14Z</time>
      </trkpt>
      <trkpt lat="47.06902" lon="-1.81903">
        <ele>86</ele>
        <time>2022-10-22T12:19:16Z</time>
      </trkpt>
      <trkpt lat="47.06896" lon="-1.81918">
        <ele>86</ele>
        <time>2022-10-22T12:19:18Z</time>
      </trkpt>
      <trkpt lat="47.06892" lon="-1.81932">
        <ele>86</ele>
        <time>2022-10-22T12:19:20Z</time>
      </trkpt>
      <trkpt lat="47.06891" lon="-1.81947">
        <ele>86</ele>
        <time>2022-10-22T12:19:22Z</time>
      </trkpt>
      <trkpt lat="47.0689" lon="-1.81963">
        <ele>87</ele>
        <time>2022-10-22T12:19:24Z</time>
      </trkpt>
      <trkpt lat="47.06891" lon="-1.81979">
        <ele>87</ele>
        <time>2022-10-22T12:19:26Z</time>
      </trkpt>
      <trkpt lat="47.06892" lon="-1.81994">
        <ele>88</ele>
        <time>2022-10-22T12:19:28Z</time>
      </trkpt>
      <trkpt lat="47.06893" lon="-1.82009">
        <ele>88</ele>
        <time>2022-10-22T12:19:30Z</time>
      </trkpt>
      <trkpt lat="47.06894" lon="-1.82023">
        <ele>88</ele>
        <time>2022-10-22T12:19:32Z</time>
      </trkpt>
      <trkpt lat="47.06895" lon="-1.82038">
        <ele>88</ele>
        <time>2022-10-22T12:19:34Z</time>
      </trkpt>
      <trkpt lat="47.06896" lon="-1.82054">
        <ele>88</ele>
        <time>2022-10-22T12:19:36Z</time>
      </trkpt>
      <trkpt lat="47.06896" lon="-1.82068">
        <ele>89</ele>
        <time>2022-10-22T12:19:38Z</time>
      </trkpt>
      <trkpt lat="47.06896" lon="-1.82082">
        <ele>89</ele>
        <time>2022-10-22T12:19:40Z</time>
      </trkpt>
      <trkpt lat="47.06897" lon="-1.82097">
        <ele>90</ele>
        <time>2022-10-22T12:19:42Z</time>
      </trkpt>
      <trkpt lat="47.06898" lon="-1.82111">
        <ele>90</ele>
        <time>2022-10-22T12:19:44Z</time>
      </trkpt>
      <trkpt lat="47.06899" lon="-1.82125">
        <ele>91</ele>
        <time>2022-10-22T12:19:46Z</time>
      </trkpt>
      <trkpt lat="47.069" lon="-1.82141">
        <ele>91</ele>
        <time>2022-10-22T12:19:48Z</time>
      </trkpt>
      <trkpt lat="47.069" lon="-1.82158">
        <ele>91</ele>
        <time>2022-10-22T12:19:50Z</time>
      </trkpt>
      <trkpt lat="47.069" lon="-1.82175">
        <ele>91</ele>
        <time>2022-10-22T12:19:52Z</time>
      </trkpt>
      <trkpt lat="47.069" lon="-1.82191">
        <ele>90</ele>
        <time>2022-10-22T12:19:54Z</time>
      </trkpt>
      <trkpt lat="47.069" lon="-1.82207">
        <ele>90</ele>
        <time>2022-10-22T12:19:56Z</time>
      </trkpt>
      <trkpt lat="47.06899" lon="-1.82223">
        <ele>90</ele>
        <time>2022-10-22T12:19:58Z</time>
      </trkpt>
      <trkpt lat="47.06899" lon="-1.82238">
        <ele>90</ele>
        <time>2022-10-22T12:20:00Z</time>
      </trkpt>
      <trkpt lat="47.06898" lon="-1.82254">
        <ele>90</ele>
        <time>2022-10-22T12:20:02Z</time>
      </trkpt>
      <trkpt lat="47.06898" lon="-1.82271">
        <ele>90</ele>
        <time>2022-10-22T12:20:04Z</time>
      </trkpt>
      <trkpt lat="47.06896" lon="-1.82287">
        <ele>90</ele>
        <time>2022-10-22T12:20:06Z</time>
      </trkpt>
      <trkpt lat="47.06895" lon="-1.82304">
        <ele>91</ele>
        <time>2022-10-22T12:20:08Z</time>
      </trkpt>
      <trkpt lat="47.06894" lon="-1.8232">
        <ele>91</ele>
        <time>2022-10-22T12:20:10Z</time>
      </trkpt>
      <trkpt lat="47.06892" lon="-1.82335">
        <ele>91</ele>
        <time>2022-10-22T12:20:12Z</time>
      </trkpt>
      <trkpt lat="47.0689" lon="-1.8235">
        <ele>91</ele>
        <time>2022-10-22T12:20:14Z</time>
      </trkpt>
      <trkpt lat="47.06887" lon="-1.82366">
        <ele>91</ele>
        <time>2022-10-22T12:20:16Z</time>
      </trkpt>
      <trkpt lat="47.06885" lon="-1.82382">
        <ele>92</ele>
        <time>2022-10-22T12:20:18Z</time>
      </trkpt>
      <trkpt lat="47.06883" lon="-1.82396">
        <ele>92</ele>
        <time>2022-10-22T12:20:20Z</time>
      </trkpt>
      <trkpt lat="47.06879" lon="-1.8241">
        <ele>92</ele>
        <time>2022-10-22T12:20:22Z</time>
      </trkpt>
      <trkpt lat="47.06877" lon="-1.82425">
        <ele>91</ele>
        <time>2022-10-22T12:20:24Z</time>
      </trkpt>
      <trkpt lat="47.06875" lon="-1.82442">
        <ele>91</ele>
        <time>2022-10-22T12:20:26Z</time>
      </trkpt>
      <trkpt lat="47.06875" lon="-1.8246">
        <ele>91</ele>
        <time>2022-10-22T12:20:28Z</time>
      </trkpt>
      <trkpt lat="47.06875" lon="-1.82477">
        <ele>91</ele>
        <time>2022-10-22T12:20:30Z</time>
      </trkpt>
      <trkpt lat="47.06875" lon="-1.82495">
        <ele>91</ele>
        <time>2022-10-22T12:20:32Z</time>
      </trkpt>
      <trkpt lat="47.06877" lon="-1.82513">
        <ele>91</ele>
        <time>2022-10-22T12:20:34Z</time>
      </trkpt>
      <trkpt lat="47.06879" lon="-1.82529">
        <ele>92</ele>
        <time>2022-10-22T12:20:36Z</time>
      </trkpt>
      <trkpt lat="47.0688" lon="-1.82547">
        <ele>93</ele>
        <time>2022-10-22T12:20:38Z</time>
      </trkpt>
      <trkpt lat="47.06882" lon="-1.82564">
        <ele>93</ele>
        <time>2022-10-22T12:20:40Z</time>
      </trkpt>
      <trkpt lat="47.06884" lon="-1.82581">
        <ele>93</ele>
        <time>2022-10-22T12:20:42Z</time>
      </trkpt>
      <trkpt lat="47.06886" lon="-1.826">
        <ele>92</ele>
        <time>2022-10-22T12:20:44Z</time>
      </trkpt>
      <trkpt lat="47.06888" lon="-1.82617">
        <ele>92</ele>
        <time>2022-10-22T12:20:46Z</time>
      </trkpt>
      <trkpt lat="47.06889" lon="-1.82634">
        <ele>92</ele>
        <time>2022-10-22T12:20:48Z</time>
      </trkpt>
      <trkpt lat="47.0689" lon="-1.82652">
        <ele>92</ele>
        <time>2022-10-22T12:20:50Z</time>
      </trkpt>
      <trkpt lat="47.0689" lon="-1.82669">
        <ele>92</ele>
        <time>2022-10-22T12:20:52Z</time>
      </trkpt>
      <trkpt lat="47.06891" lon="-1.82687">
        <ele>92</ele>
        <time>2022-10-22T12:20:54Z</time>
      </trkpt>
      <trkpt lat="47.0689" lon="-1.82704">
        <ele>92</ele>
        <time>2022-10-22T12:20:56Z</time>
      </trkpt>
      <trkpt lat="47.0689" lon="-1.82722">
        <ele>92</ele>
        <time>2022-10-22T12:20:58Z</time>
      </trkpt>
      <trkpt lat="47.0689" lon="-1.82739">
        <ele>92</ele>
        <time>2022-10-22T12:21:00Z</time>
      </trkpt>
      <trkpt lat="47.0689" lon="-1.82757">
        <ele>92</ele>
        <time>2022-10-22T12:21:02Z</time>
      </trkpt>
      <trkpt lat="47.06891" lon="-1.82774">
        <ele>93</ele>
        <time>2022-10-22T12:21:04Z</time>
      </trkpt>
      <trkpt lat="47.06892" lon="-1.82793">
        <ele>92</ele>
        <time>2022-10-22T12:21:06Z</time>
      </trkpt>
      <trkpt lat="47.06893" lon="-1.8281">
        <ele>93</ele>
        <time>2022-10-22T12:21:08Z</time>
      </trkpt>
      <trkpt lat="47.06894" lon="-1.82827">
        <ele>93</ele>
        <time>2022-10-22T12:21:10Z</time>
      </trkpt>
      <trkpt lat="47.06895" lon="-1.82845">
        <ele>93</ele>
        <time>2022-10-22T12:21:12Z</time>
      </trkpt>
      <trkpt lat="47.06896" lon="-1.82862">
        <ele>93</ele>
        <time>2022-10-22T12:21:14Z</time>
      </trkpt>
      <trkpt lat="47.06897" lon="-1.82879">
        <ele>93</ele>
        <time>2022-10-22T12:21:16Z</time>
      </trkpt>
      <trkpt lat="47.06898" lon="-1.82897">
        <ele>93</ele>
        <time>2022-10-22T12:21:18Z</time>
      </trkpt>
      <trkpt lat="47.06899" lon="-1.82914">
        <ele>93</ele>
        <time>2022-10-22T12:21:20Z</time>
      </trkpt>
      <trkpt lat="47.069" lon="-1.82931">
        <ele>93</ele>
        <time>2022-10-22T12:21:22Z</time>
      </trkpt>
      <trkpt lat="47.06901" lon="-1.82949">
        <ele>93</ele>
        <time>2022-10-22T12:21:24Z</time>
      </trkpt>
      <trkpt lat="47.06902" lon="-1.82966">
        <ele>93</ele>
        <time>2022-10-22T12:21:26Z</time>
      </trkpt>
      <trkpt lat="47.06903" lon="-1.82984">
        <ele>93</ele>
        <time>2022-10-22T12:21:28Z</time>
      </trkpt>
      <trkpt lat="47.06905" lon="-1.83001">
        <ele>92</ele>
        <time>2022-10-22T12:21:30Z</time>
      </trkpt>
      <trkpt lat="47.0691" lon="-1.83016">
        <ele>92</ele>
        <time>2022-10-22T12:21:32Z</time>
      </trkpt>
      <trkpt lat="47.06912" lon="-1.8303">
        <ele>92</ele>
        <time>2022-10-22T12:21:34Z</time>
      </trkpt>
      <trkpt lat="47.06904" lon="-1.83039">
        <ele>92</ele>
        <time>2022-10-22T12:21:36Z</time>
      </trkpt>
      <trkpt lat="47.06894" lon="-1.83039">
        <ele>91</ele>
        <time>2022-10-22T12:21:38Z</time>
      </trkpt>
      <trkpt lat="47.06882" lon="-1.83038">
        <ele>91</ele>
        <time>2022-10-22T12:21:40Z</time>
      </trkpt>
      <trkpt lat="47.06864" lon="-1.83037">
        <ele>90</ele>
        <time>2022-10-22T12:21:43Z</time>
      </trkpt>
      <trkpt lat="47.06852" lon="-1.83035">
        <ele>90</ele>
        <time>2022-10-22T12:21:45Z</time>
      </trkpt>
      <trkpt lat="47.0684" lon="-1.83033">
        <ele>90</ele>
        <time>2022-10-22T12:21:47Z</time>
      </trkpt>
      <trkpt lat="47.06828" lon="-1.83032">
        <ele>89</ele>
        <time>2022-10-22T12:21:49Z</time>
      </trkpt>
      <trkpt lat="47.06816" lon="-1.83032">
        <ele>89</ele>
        <time>2022-10-22T12:21:51Z</time>
      </trkpt>
      <trkpt lat="47.06804" lon="-1.83034">
        <ele>89</ele>
        <time>2022-10-22T12:21:53Z</time>
      </trkpt>
      <trkpt lat="47.06792" lon="-1.83036">
        <ele>89</ele>
        <time>2022-10-22T12:21:55Z</time>
      </trkpt>
      <trkpt lat="47.0678" lon="-1.83038">
        <ele>89</ele>
        <time>2022-10-22T12:21:57Z</time>
      </trkpt>
      <trkpt lat="47.06767" lon="-1.8304">
        <ele>88</ele>
        <time>2022-10-22T12:21:59Z</time>
      </trkpt>
      <trkpt lat="47.06755" lon="-1.83041">
        <ele>88</ele>
        <time>2022-10-22T12:22:01Z</time>
      </trkpt>
      <trkpt lat="47.06743" lon="-1.83043">
        <ele>88</ele>
        <time>2022-10-22T12:22:03Z</time>
      </trkpt>
      <trkpt lat="47.06731" lon="-1.83045">
        <ele>88</ele>
        <time>2022-10-22T12:22:05Z</time>
      </trkpt>
      <trkpt lat="47.06718" lon="-1.83047">
        <ele>88</ele>
        <time>2022-10-22T12:22:07Z</time>
      </trkpt>
      <trkpt lat="47.06706" lon="-1.83049">
        <ele>88</ele>
        <time>2022-10-22T12:22:09Z</time>
      </trkpt>
      <trkpt lat="47.06694" lon="-1.83051">
        <ele>88</ele>
        <time>2022-10-22T12:22:11Z</time>
      </trkpt>
      <trkpt lat="47.06682" lon="-1.83053">
        <ele>88</ele>
        <time>2022-10-22T12:22:13Z</time>
      </trkpt>
      <trkpt lat="47.0667" lon="-1.83056">
        <ele>88</ele>
        <time>2022-10-22T12:22:15Z</time>
      </trkpt>
      <trkpt lat="47.06658" lon="-1.83059">
        <ele>88</ele>
        <time>2022-10-22T12:22:17Z</time>
      </trkpt>
      <trkpt lat="47.06646" lon="-1.83062">
        <ele>88</ele>
        <time>2022-10-22T12:22:19Z</time>
      </trkpt>
      <trkpt lat="47.06634" lon="-1.83066">
        <ele>88</ele>
        <time>2022-10-22T12:22:21Z</time>
      </trkpt>
      <trkpt lat="47.06616" lon="-1.83069">
        <ele>87</ele>
        <time>2022-10-22T12:22:24Z</time>
      </trkpt>
      <trkpt lat="47.06598" lon="-1.83073">
        <ele>88</ele>
        <time>2022-10-22T12:22:27Z</time>
      </trkpt>
      <trkpt lat="47.06586" lon="-1.83077">
        <ele>88</ele>
        <time>2022-10-22T12:22:29Z</time>
      </trkpt>
      <trkpt lat="47.06574" lon="-1.83079">
        <ele>88</ele>
        <time>2022-10-22T12:22:31Z</time>
      </trkpt>
      <trkpt lat="47.06563" lon="-1.83084">
        <ele>87</ele>
        <time>2022-10-22T12:22:33Z</time>
      </trkpt>
      <trkpt lat="47.06551" lon="-1.83088">
        <ele>87</ele>
        <time>2022-10-22T12:22:35Z</time>
      </trkpt>
      <trkpt lat="47.06539" lon="-1.83093">
        <ele>87</ele>
        <time>2022-10-22T12:22:37Z</time>
      </trkpt>
      <trkpt lat="47.06528" lon="-1.83097">
        <ele>87</ele>
        <time>2022-10-22T12:22:39Z</time>
      </trkpt>
      <trkpt lat="47.06516" lon="-1.83103">
        <ele>87</ele>
        <time>2022-10-22T12:22:41Z</time>
      </trkpt>
      <trkpt lat="47.06505" lon="-1.83108">
        <ele>87</ele>
        <time>2022-10-22T12:22:43Z</time>
      </trkpt>
      <trkpt lat="47.06493" lon="-1.83112">
        <ele>87</ele>
        <time>2022-10-22T12:22:45Z</time>
      </trkpt>
      <trkpt lat="47.06482" lon="-1.83118">
        <ele>87</ele>
        <time>2022-10-22T12:22:47Z</time>
      </trkpt>
      <trkpt lat="47.06471" lon="-1.83122">
        <ele>87</ele>
        <time>2022-10-22T12:22:49Z</time>
      </trkpt>
      <trkpt lat="47.0646" lon="-1.83127">
        <ele>87</ele>
        <time>2022-10-22T12:22:51Z</time>
      </trkpt>
      <trkpt lat="47.06449" lon="-1.83132">
        <ele>87</ele>
        <time>2022-10-22T12:22:53Z</time>
      </trkpt>
      <trkpt lat="47.06437" lon="-1.83136">
        <ele>87</ele>
        <time>2022-10-22T12:22:55Z</time>
      </trkpt>
      <trkpt lat="47.06426" lon="-1.83142">
        <ele>87</ele>
        <time>2022-10-22T12:22:57Z</time>
      </trkpt>
      <trkpt lat="47.06414" lon="-1.83146">
        <ele>87</ele>
        <time>2022-10-22T12:22:59Z</time>
      </trkpt>
      <trkpt lat="47.06403" lon="-1.83152">
        <ele>87</ele>
        <time>2022-10-22T12:23:01Z</time>
      </trkpt>
      <trkpt lat="47.06392" lon="-1.83157">
        <ele>87</ele>
        <time>2022-10-22T12:23:03Z</time>
      </trkpt>
      <trkpt lat="47.0638" lon="-1.83161">
        <ele>87</ele>
        <time>2022-10-22T12:23:05Z</time>
      </trkpt>
      <trkpt lat="47.0637" lon="-1.83165">
        <ele>87</ele>
        <time>2022-10-22T12:23:07Z</time>
      </trkpt>
      <trkpt lat="47.06359" lon="-1.8317">
        <ele>88</ele>
        <time>2022-10-22T12:23:09Z</time>
      </trkpt>
      <trkpt lat="47.06348" lon="-1.83175">
        <ele>88</ele>
        <time>2022-10-22T12:23:11Z</time>
      </trkpt>
      <trkpt lat="47.06337" lon="-1.83181">
        <ele>88</ele>
        <time>2022-10-22T12:23:13Z</time>
      </trkpt>
      <trkpt lat="47.06326" lon="-1.83184">
        <ele>88</ele>
        <time>2022-10-22T12:23:15Z</time>
      </trkpt>
      <trkpt lat="47.06315" lon="-1.83189">
        <ele>88</ele>
        <time>2022-10-22T12:23:17Z</time>
      </trkpt>
      <trkpt lat="47.06304" lon="-1.83193">
        <ele>88</ele>
        <time>2022-10-22T12:23:19Z</time>
      </trkpt>
      <trkpt lat="47.06293" lon="-1.83195">
        <ele>89</ele>
        <time>2022-10-22T12:23:21Z</time>
      </trkpt>
      <trkpt lat="47.06283" lon="-1.83198">
        <ele>89</ele>
        <time>2022-10-22T12:23:23Z</time>
      </trkpt>
      <trkpt lat="47.06272" lon="-1.83199">
        <ele>89</ele>
        <time>2022-10-22T12:23:25Z</time>
      </trkpt>
      <trkpt lat="47.06261" lon="-1.832">
        <ele>89</ele>
        <time>2022-10-22T12:23:27Z</time>
      </trkpt>
      <trkpt lat="47.0625" lon="-1.83201">
        <ele>89</ele>
        <time>2022-10-22T12:23:29Z</time>
      </trkpt>
      <trkpt lat="47.06239" lon="-1.83202">
        <ele>90</ele>
        <time>2022-10-22T12:23:31Z</time>
      </trkpt>
      <trkpt lat="47.06227" lon="-1.83203">
        <ele>90</ele>
        <time>2022-10-22T12:23:33Z</time>
      </trkpt>
      <trkpt lat="47.06216" lon="-1.83204">
        <ele>90</ele>
        <time>2022-10-22T12:23:35Z</time>
      </trkpt>
      <trkpt lat="47.06205" lon="-1.83204">
        <ele>90</ele>
        <time>2022-10-22T12:23:37Z</time>
      </trkpt>
      <trkpt lat="47.06194" lon="-1.83204">
        <ele>90</ele>
        <time>2022-10-22T12:23:39Z</time>
      </trkpt>
      <trkpt lat="47.06182" lon="-1.83205">
        <ele>90</ele>
        <time>2022-10-22T12:23:41Z</time>
      </trkpt>
      <trkpt lat="47.0617" lon="-1.83206">
        <ele>90</ele>
        <time>2022-10-22T12:23:43Z</time>
      </trkpt>
      <trkpt lat="47.06158" lon="-1.83206">
        <ele>90</ele>
        <time>2022-10-22T12:23:45Z</time>
      </trkpt>
      <trkpt lat="47.06147" lon="-1.83207">
        <ele>90</ele>
        <time>2022-10-22T12:23:47Z</time>
      </trkpt>
      <trkpt lat="47.06135" lon="-1.83207">
        <ele>90</ele>
        <time>2022-10-22T12:23:49Z</time>
      </trkpt>
      <trkpt lat="47.06124" lon="-1.83208">
        <ele>90</ele>
        <time>2022-10-22T12:23:51Z</time>
      </trkpt>
      <trkpt lat="47.06113" lon="-1.83209">
        <ele>90</ele>
        <time>2022-10-22T12:23:53Z</time>
      </trkpt>
      <trkpt lat="47.06102" lon="-1.83208">
        <ele>90</ele>
        <time>2022-10-22T12:23:55Z</time>
      </trkpt>
      <trkpt lat="47.06091" lon="-1.83209">
        <ele>90</ele>
        <time>2022-10-22T12:23:57Z</time>
      </trkpt>
      <trkpt lat="47.0608" lon="-1.8321">
        <ele>90</ele>
        <time>2022-10-22T12:23:59Z</time>
      </trkpt>
      <trkpt lat="47.06069" lon="-1.8321">
        <ele>90</ele>
        <time>2022-10-22T12:24:01Z</time>
      </trkpt>
      <trkpt lat="47.06057" lon="-1.83211">
        <ele>90</ele>
        <time>2022-10-22T12:24:03Z</time>
      </trkpt>
      <trkpt lat="47.06046" lon="-1.83211">
        <ele>90</ele>
        <time>2022-10-22T12:24:05Z</time>
      </trkpt>
      <trkpt lat="47.06036" lon="-1.83212">
        <ele>90</ele>
        <time>2022-10-22T12:24:07Z</time>
      </trkpt>
      <trkpt lat="47.06025" lon="-1.83213">
        <ele>90</ele>
        <time>2022-10-22T12:24:09Z</time>
      </trkpt>
      <trkpt lat="47.06013" lon="-1.83213">
        <ele>90</ele>
        <time>2022-10-22T12:24:11Z</time>
      </trkpt>
      <trkpt lat="47.06002" lon="-1.83214">
        <ele>90</ele>
        <time>2022-10-22T12:24:13Z</time>
      </trkpt>
      <trkpt lat="47.05991" lon="-1.83215">
        <ele>90</ele>
        <time>2022-10-22T12:24:15Z</time>
      </trkpt>
      <trkpt lat="47.0598" lon="-1.83217">
        <ele>90</ele>
        <time>2022-10-22T12:24:17Z</time>
      </trkpt>
      <trkpt lat="47.0597" lon="-1.83223">
        <ele>90</ele>
        <time>2022-10-22T12:24:19Z</time>
      </trkpt>
      <trkpt lat="47.05962" lon="-1.83233">
        <ele>90</ele>
        <time>2022-10-22T12:24:21Z</time>
      </trkpt>
      <trkpt lat="47.05954" lon="-1.83244">
        <ele>90</ele>
        <time>2022-10-22T12:24:23Z</time>
      </trkpt>
      <trkpt lat="47.05946" lon="-1.83256">
        <ele>90</ele>
        <time>2022-10-22T12:24:25Z</time>
      </trkpt>
      <trkpt lat="47.05938" lon="-1.83267">
        <ele>90</ele>
        <time>2022-10-22T12:24:27Z</time>
      </trkpt>
      <trkpt lat="47.05931" lon="-1.83279">
        <ele>90</ele>
        <time>2022-10-22T12:24:29Z</time>
      </trkpt>
      <trkpt lat="47.05923" lon="-1.83291">
        <ele>90</ele>
        <time>2022-10-22T12:24:31Z</time>
      </trkpt>
      <trkpt lat="47.05915" lon="-1.83302">
        <ele>90</ele>
        <time>2022-10-22T12:24:33Z</time>
      </trkpt>
      <trkpt lat="47.05907" lon="-1.83313">
        <ele>90</ele>
        <time>2022-10-22T12:24:35Z</time>
      </trkpt>
      <trkpt lat="47.059" lon="-1.83325">
        <ele>90</ele>
        <time>2022-10-22T12:24:37Z</time>
      </trkpt>
      <trkpt lat="47.05892" lon="-1.83336">
        <ele>90</ele>
        <time>2022-10-22T12:24:39Z</time>
      </trkpt>
      <trkpt lat="47.05884" lon="-1.83348">
        <ele>90</ele>
        <time>2022-10-22T12:24:41Z</time>
      </trkpt>
      <trkpt lat="47.05876" lon="-1.8336">
        <ele>90</ele>
        <time>2022-10-22T12:24:43Z</time>
      </trkpt>
      <trkpt lat="47.05869" lon="-1.83372">
        <ele>90</ele>
        <time>2022-10-22T12:24:45Z</time>
      </trkpt>
      <trkpt lat="47.05861" lon="-1.83383">
        <ele>89</ele>
        <time>2022-10-22T12:24:47Z</time>
      </trkpt>
      <trkpt lat="47.05853" lon="-1.83395">
        <ele>90</ele>
        <time>2022-10-22T12:24:49Z</time>
      </trkpt>
      <trkpt lat="47.05846" lon="-1.83406">
        <ele>90</ele>
        <time>2022-10-22T12:24:51Z</time>
      </trkpt>
      <trkpt lat="47.05838" lon="-1.83418">
        <ele>90</ele>
        <time>2022-10-22T12:24:53Z</time>
      </trkpt>
      <trkpt lat="47.0583" lon="-1.83429">
        <ele>90</ele>
        <time>2022-10-22T12:24:55Z</time>
      </trkpt>
      <trkpt lat="47.05822" lon="-1.83441">
        <ele>90</ele>
        <time>2022-10-22T12:24:57Z</time>
      </trkpt>
      <trkpt lat="47.05814" lon="-1.83452">
        <ele>90</ele>
        <time>2022-10-22T12:24:59Z</time>
      </trkpt>
      <trkpt lat="47.05807" lon="-1.83464">
        <ele>90</ele>
        <time>2022-10-22T12:25:01Z</time>
      </trkpt>
      <trkpt lat="47.05799" lon="-1.83474">
        <ele>91</ele>
        <time>2022-10-22T12:25:03Z</time>
      </trkpt>
      <trkpt lat="47.05791" lon="-1.83484">
        <ele>91</ele>
        <time>2022-10-22T12:25:05Z</time>
      </trkpt>
      <trkpt lat="47.05782" lon="-1.83495">
        <ele>91</ele>
        <time>2022-10-22T12:25:07Z</time>
      </trkpt>
      <trkpt lat="47.05774" lon="-1.83505">
        <ele>90</ele>
        <time>2022-10-22T12:25:09Z</time>
      </trkpt>
      <trkpt lat="47.05765" lon="-1.83516">
        <ele>91</ele>
        <time>2022-10-22T12:25:11Z</time>
      </trkpt>
      <trkpt lat="47.05756" lon="-1.83526">
        <ele>91</ele>
        <time>2022-10-22T12:25:13Z</time>
      </trkpt>
      <trkpt lat="47.05747" lon="-1.83536">
        <ele>91</ele>
        <time>2022-10-22T12:25:15Z</time>
      </trkpt>
      <trkpt lat="47.05738" lon="-1.83546">
        <ele>91</ele>
        <time>2022-10-22T12:25:17Z</time>
      </trkpt>
      <trkpt lat="47.0573" lon="-1.83558">
        <ele>91</ele>
        <time>2022-10-22T12:25:19Z</time>
      </trkpt>
      <trkpt lat="47.05722" lon="-1.8357">
        <ele>92</ele>
        <time>2022-10-22T12:25:21Z</time>
      </trkpt>
      <trkpt lat="47.05715" lon="-1.83583">
        <ele>92</ele>
        <time>2022-10-22T12:25:23Z</time>
      </trkpt>
      <trkpt lat="47.05708" lon="-1.83596">
        <ele>92</ele>
        <time>2022-10-22T12:25:25Z</time>
      </trkpt>
      <trkpt lat="47.057" lon="-1.83608">
        <ele>92</ele>
        <time>2022-10-22T12:25:27Z</time>
      </trkpt>
      <trkpt lat="47.05692" lon="-1.83621">
        <ele>93</ele>
        <time>2022-10-22T12:25:29Z</time>
      </trkpt>
      <trkpt lat="47.05684" lon="-1.83633">
        <ele>93</ele>
        <time>2022-10-22T12:25:31Z</time>
      </trkpt>
      <trkpt lat="47.05676" lon="-1.83646">
        <ele>94</ele>
        <time>2022-10-22T12:25:33Z</time>
      </trkpt>
      <trkpt lat="47.05668" lon="-1.8366">
        <ele>94</ele>
        <time>2022-10-22T12:25:35Z</time>
      </trkpt>
      <trkpt lat="47.0566" lon="-1.83675">
        <ele>94</ele>
        <time>2022-10-22T12:25:37Z</time>
      </trkpt>
      <trkpt lat="47.05652" lon="-1.83689">
        <ele>95</ele>
        <time>2022-10-22T12:25:39Z</time>
      </trkpt>
      <trkpt lat="47.05645" lon="-1.83704">
        <ele>94</ele>
        <time>2022-10-22T12:25:41Z</time>
      </trkpt>
      <trkpt lat="47.05638" lon="-1.83718">
        <ele>95</ele>
        <time>2022-10-22T12:25:43Z</time>
      </trkpt>
      <trkpt lat="47.0563" lon="-1.83732">
        <ele>95</ele>
        <time>2022-10-22T12:25:45Z</time>
      </trkpt>
      <trkpt lat="47.05622" lon="-1.83746">
        <ele>94</ele>
        <time>2022-10-22T12:25:47Z</time>
      </trkpt>
      <trkpt lat="47.05614" lon="-1.83761">
        <ele>94</ele>
        <time>2022-10-22T12:25:49Z</time>
      </trkpt>
      <trkpt lat="47.05606" lon="-1.83775">
        <ele>94</ele>
        <time>2022-10-22T12:25:51Z</time>
      </trkpt>
      <trkpt lat="47.05599" lon="-1.83788">
        <ele>93</ele>
        <time>2022-10-22T12:25:53Z</time>
      </trkpt>
      <trkpt lat="47.05591" lon="-1.83801">
        <ele>93</ele>
        <time>2022-10-22T12:25:55Z</time>
      </trkpt>
      <trkpt lat="47.05584" lon="-1.83815">
        <ele>93</ele>
        <time>2022-10-22T12:25:57Z</time>
      </trkpt>
      <trkpt lat="47.05576" lon="-1.83829">
        <ele>93</ele>
        <time>2022-10-22T12:25:59Z</time>
      </trkpt>
      <trkpt lat="47.05568" lon="-1.83843">
        <ele>93</ele>
        <time>2022-10-22T12:26:01Z</time>
      </trkpt>
      <trkpt lat="47.05561" lon="-1.83857">
        <ele>92</ele>
        <time>2022-10-22T12:26:03Z</time>
      </trkpt>
      <trkpt lat="47.05553" lon="-1.83871">
        <ele>92</ele>
        <time>2022-10-22T12:26:05Z</time>
      </trkpt>
      <trkpt lat="47.05545" lon="-1.83885">
        <ele>92</ele>
        <time>2022-10-22T12:26:07Z</time>
      </trkpt>
      <trkpt lat="47.05537" lon="-1.83899">
        <ele>92</ele>
        <time>2022-10-22T12:26:09Z</time>
      </trkpt>
      <trkpt lat="47.0553" lon="-1.83913">
        <ele>92</ele>
        <time>2022-10-22T12:26:11Z</time>
      </trkpt>
      <trkpt lat="47.05522" lon="-1.83927">
        <ele>92</ele>
        <time>2022-10-22T12:26:13Z</time>
      </trkpt>
      <trkpt lat="47.05514" lon="-1.83941">
        <ele>92</ele>
        <time>2022-10-22T12:26:15Z</time>
      </trkpt>
      <trkpt lat="47.05506" lon="-1.83955">
        <ele>92</ele>
        <time>2022-10-22T12:26:17Z</time>
      </trkpt>
      <trkpt lat="47.05499" lon="-1.83968">
        <ele>92</ele>
        <time>2022-10-22T12:26:19Z</time>
      </trkpt>
      <trkpt lat="47.05492" lon="-1.83982">
        <ele>92</ele>
        <time>2022-10-22T12:26:21Z</time>
      </trkpt>
      <trkpt lat="47.05485" lon="-1.83996">
        <ele>92</ele>
        <time>2022-10-22T12:26:23Z</time>
      </trkpt>
      <trkpt lat="47.05478" lon="-1.8401">
        <ele>92</ele>
        <time>2022-10-22T12:26:25Z</time>
      </trkpt>
      <trkpt lat="47.05471" lon="-1.84024">
        <ele>92</ele>
        <time>2022-10-22T12:26:27Z</time>
      </trkpt>
      <trkpt lat="47.05464" lon="-1.84038">
        <ele>92</ele>
        <time>2022-10-22T12:26:29Z</time>
      </trkpt>
      <trkpt lat="47.05456" lon="-1.84053">
        <ele>92</ele>
        <time>2022-10-22T12:26:31Z</time>
      </trkpt>
      <trkpt lat="47.05449" lon="-1.84067">
        <ele>92</ele>
        <time>2022-10-22T12:26:33Z</time>
      </trkpt>
      <trkpt lat="47.05442" lon="-1.84082">
        <ele>92</ele>
        <time>2022-10-22T12:26:35Z</time>
      </trkpt>
      <trkpt lat="47.05435" lon="-1.84096">
        <ele>92</ele>
        <time>2022-10-22T12:26:37Z</time>
      </trkpt>
      <trkpt lat="47.05428" lon="-1.8411">
        <ele>92</ele>
        <time>2022-10-22T12:26:39Z</time>
      </trkpt>
      <trkpt lat="47.05421" lon="-1.84124">
        <ele>92</ele>
        <time>2022-10-22T12:26:41Z</time>
      </trkpt>
      <trkpt lat="47.05413" lon="-1.84138">
        <ele>92</ele>
        <time>2022-10-22T12:26:43Z</time>
      </trkpt>
      <trkpt lat="47.05406" lon="-1.84153">
        <ele>92</ele>
        <time>2022-10-22T12:26:45Z</time>
      </trkpt>
      <trkpt lat="47.05399" lon="-1.84167">
        <ele>92</ele>
        <time>2022-10-22T12:26:47Z</time>
      </trkpt>
      <trkpt lat="47.05392" lon="-1.84181">
        <ele>92</ele>
        <time>2022-10-22T12:26:49Z</time>
      </trkpt>
      <trkpt lat="47.05385" lon="-1.84195">
        <ele>93</ele>
        <time>2022-10-22T12:26:51Z</time>
      </trkpt>
      <trkpt lat="47.05378" lon="-1.84209">
        <ele>92</ele>
        <time>2022-10-22T12:26:53Z</time>
      </trkpt>
      <trkpt lat="47.0537" lon="-1.84223">
        <ele>92</ele>
        <time>2022-10-22T12:26:55Z</time>
      </trkpt>
      <trkpt lat="47.05363" lon="-1.84237">
        <ele>92</ele>
        <time>2022-10-22T12:26:57Z</time>
      </trkpt>
      <trkpt lat="47.05356" lon="-1.84251">
        <ele>92</ele>
        <time>2022-10-22T12:26:59Z</time>
      </trkpt>
      <trkpt lat="47.05349" lon="-1.84265">
        <ele>92</ele>
        <time>2022-10-22T12:27:01Z</time>
      </trkpt>
      <trkpt lat="47.05342" lon="-1.84279">
        <ele>92</ele>
        <time>2022-10-22T12:27:03Z</time>
      </trkpt>
      <trkpt lat="47.05335" lon="-1.84293">
        <ele>92</ele>
        <time>2022-10-22T12:27:05Z</time>
      </trkpt>
      <trkpt lat="47.05328" lon="-1.84307">
        <ele>92</ele>
        <time>2022-10-22T12:27:07Z</time>
      </trkpt>
      <trkpt lat="47.05321" lon="-1.84321">
        <ele>92</ele>
        <time>2022-10-22T12:27:09Z</time>
      </trkpt>
      <trkpt lat="47.05314" lon="-1.84335">
        <ele>92</ele>
        <time>2022-10-22T12:27:11Z</time>
      </trkpt>
      <trkpt lat="47.05307" lon="-1.84349">
        <ele>92</ele>
        <time>2022-10-22T12:27:13Z</time>
      </trkpt>
      <trkpt lat="47.053" lon="-1.84364">
        <ele>92</ele>
        <time>2022-10-22T12:27:15Z</time>
      </trkpt>
      <trkpt lat="47.05293" lon="-1.84378">
        <ele>92</ele>
        <time>2022-10-22T12:27:17Z</time>
      </trkpt>
      <trkpt lat="47.05285" lon="-1.84392">
        <ele>92</ele>
        <time>2022-10-22T12:27:19Z</time>
      </trkpt>
      <trkpt lat="47.05279" lon="-1.84406">
        <ele>92</ele>
        <time>2022-10-22T12:27:21Z</time>
      </trkpt>
      <trkpt lat="47.05272" lon="-1.8442">
        <ele>93</ele>
        <time>2022-10-22T12:27:23Z</time>
      </trkpt>
      <trkpt lat="47.05265" lon="-1.84434">
        <ele>93</ele>
        <time>2022-10-22T12:27:25Z</time>
      </trkpt>
      <trkpt lat="47.05258" lon="-1.84448">
        <ele>93</ele>
        <time>2022-10-22T12:27:27Z</time>
      </trkpt>
      <trkpt lat="47.05251" lon="-1.84462">
        <ele>93</ele>
        <time>2022-10-22T12:27:29Z</time>
      </trkpt>
      <trkpt lat="47.05245" lon="-1.84475">
        <ele>93</ele>
        <time>2022-10-22T12:27:31Z</time>
      </trkpt>
      <trkpt lat="47.05238" lon="-1.84489">
        <ele>93</ele>
        <time>2022-10-22T12:27:33Z</time>
      </trkpt>
      <trkpt lat="47.05231" lon="-1.84502">
        <ele>93</ele>
        <time>2022-10-22T12:27:35Z</time>
      </trkpt>
      <trkpt lat="47.05224" lon="-1.84515">
        <ele>93</ele>
        <time>2022-10-22T12:27:37Z</time>
      </trkpt>
      <trkpt lat="47.05218" lon="-1.84527">
        <ele>93</ele>
        <time>2022-10-22T12:27:39Z</time>
      </trkpt>
      <trkpt lat="47.05211" lon="-1.84537">
        <ele>93</ele>
        <time>2022-10-22T12:27:41Z</time>
      </trkpt>
      <trkpt lat="47.052" lon="-1.8454">
        <ele>94</ele>
        <time>2022-10-22T12:27:44Z</time>
      </trkpt>
      <trkpt lat="47.05192" lon="-1.84532">
        <ele>94</ele>
        <time>2022-10-22T12:27:46Z</time>
      </trkpt>
      <trkpt lat="47.05185" lon="-1.84521">
        <ele>94</ele>
        <time>2022-10-22T12:27:48Z</time>
      </trkpt>
      <trkpt lat="47.05177" lon="-1.8451">
        <ele>94</ele>
        <time>2022-10-22T12:27:50Z</time>
      </trkpt>
      <trkpt lat="47.05169" lon="-1.84498">
        <ele>95</ele>
        <time>2022-10-22T12:27:52Z</time>
      </trkpt>
      <trkpt lat="47.05161" lon="-1.84486">
        <ele>95</ele>
        <time>2022-10-22T12:27:54Z</time>
      </trkpt>
      <trkpt lat="47.05152" lon="-1.84474">
        <ele>95</ele>
        <time>2022-10-22T12:27:56Z</time>
      </trkpt>
      <trkpt lat="47.05144" lon="-1.84463">
        <ele>95</ele>
        <time>2022-10-22T12:27:58Z</time>
      </trkpt>
      <trkpt lat="47.05136" lon="-1.84451">
        <ele>95</ele>
        <time>2022-10-22T12:28:00Z</time>
      </trkpt>
      <trkpt lat="47.05128" lon="-1.84438">
        <ele>95</ele>
        <time>2022-10-22T12:28:02Z</time>
      </trkpt>
      <trkpt lat="47.0512" lon="-1.84426">
        <ele>96</ele>
        <time>2022-10-22T12:28:04Z</time>
      </trkpt>
      <trkpt lat="47.05112" lon="-1.84413">
        <ele>96</ele>
        <time>2022-10-22T12:28:06Z</time>
      </trkpt>
      <trkpt lat="47.05102" lon="-1.84402">
        <ele>96</ele>
        <time>2022-10-22T12:28:08Z</time>
      </trkpt>
      <trkpt lat="47.05093" lon="-1.84391">
        <ele>96</ele>
        <time>2022-10-22T12:28:10Z</time>
      </trkpt>
      <trkpt lat="47.05083" lon="-1.8438">
        <ele>96</ele>
        <time>2022-10-22T12:28:12Z</time>
      </trkpt>
      <trkpt lat="47.05073" lon="-1.84368">
        <ele>96</ele>
        <time>2022-10-22T12:28:14Z</time>
      </trkpt>
      <trkpt lat="47.05064" lon="-1.84358">
        <ele>96</ele>
        <time>2022-10-22T12:28:16Z</time>
      </trkpt>
      <trkpt lat="47.05055" lon="-1.84347">
        <ele>96</ele>
        <time>2022-10-22T12:28:18Z</time>
      </trkpt>
      <trkpt lat="47.05045" lon="-1.84337">
        <ele>97</ele>
        <time>2022-10-22T12:28:20Z</time>
      </trkpt>
      <trkpt lat="47.05035" lon="-1.84326">
        <ele>97</ele>
        <time>2022-10-22T12:28:22Z</time>
      </trkpt>
      <trkpt lat="47.05024" lon="-1.84316">
        <ele>96</ele>
        <time>2022-10-22T12:28:24Z</time>
      </trkpt>
      <trkpt lat="47.05014" lon="-1.84308">
        <ele>97</ele>
        <time>2022-10-22T12:28:26Z</time>
      </trkpt>
      <trkpt lat="47.05003" lon="-1.843">
        <ele>96</ele>
        <time>2022-10-22T12:28:28Z</time>
      </trkpt>
      <trkpt lat="47.04993" lon="-1.84292">
        <ele>96</ele>
        <time>2022-10-22T12:28:30Z</time>
      </trkpt>
      <trkpt lat="47.04983" lon="-1.84284">
        <ele>96</ele>
        <time>2022-10-22T12:28:32Z</time>
      </trkpt>
      <trkpt lat="47.04973" lon="-1.84275">
        <ele>95</ele>
        <time>2022-10-22T12:28:34Z</time>
      </trkpt>
      <trkpt lat="47.04963" lon="-1.84266">
        <ele>95</ele>
        <time>2022-10-22T12:28:36Z</time>
      </trkpt>
      <trkpt lat="47.04953" lon="-1.84257">
        <ele>95</ele>
        <time>2022-10-22T12:28:38Z</time>
      </trkpt>
      <trkpt lat="47.04943" lon="-1.84248">
        <ele>94</ele>
        <time>2022-10-22T12:28:40Z</time>
      </trkpt>
      <trkpt lat="47.04933" lon="-1.84238">
        <ele>94</ele>
        <time>2022-10-22T12:28:42Z</time>
      </trkpt>
      <trkpt lat="47.04924" lon="-1.84229">
        <ele>94</ele>
        <time>2022-10-22T12:28:44Z</time>
      </trkpt>
      <trkpt lat="47.04914" lon="-1.84219">
        <ele>94</ele>
        <time>2022-10-22T12:28:46Z</time>
      </trkpt>
      <trkpt lat="47.04905" lon="-1.8421">
        <ele>94</ele>
        <time>2022-10-22T12:28:48Z</time>
      </trkpt>
      <trkpt lat="47.04896" lon="-1.842">
        <ele>94</ele>
        <time>2022-10-22T12:28:50Z</time>
      </trkpt>
      <trkpt lat="47.04887" lon="-1.84191">
        <ele>94</ele>
        <time>2022-10-22T12:28:52Z</time>
      </trkpt>
      <trkpt lat="47.04878" lon="-1.84182">
        <ele>94</ele>
        <time>2022-10-22T12:28:54Z</time>
      </trkpt>
      <trkpt lat="47.04869" lon="-1.84174">
        <ele>94</ele>
        <time>2022-10-22T12:28:56Z</time>
      </trkpt>
      <trkpt lat="47.0486" lon="-1.84164">
        <ele>94</ele>
        <time>2022-10-22T12:28:58Z</time>
      </trkpt>
      <trkpt lat="47.04851" lon="-1.84154">
        <ele>94</ele>
        <time>2022-10-22T12:29:00Z</time>
      </trkpt>
      <trkpt lat="47.04842" lon="-1.84144">
        <ele>95</ele>
        <time>2022-10-22T12:29:02Z</time>
      </trkpt>
      <trkpt lat="47.04833" lon="-1.84133">
        <ele>94</ele>
        <time>2022-10-22T12:29:04Z</time>
      </trkpt>
      <trkpt lat="47.04824" lon="-1.84122">
        <ele>94</ele>
        <time>2022-10-22T12:29:06Z</time>
      </trkpt>
      <trkpt lat="47.04815" lon="-1.84111">
        <ele>94</ele>
        <time>2022-10-22T12:29:08Z</time>
      </trkpt>
      <trkpt lat="47.04806" lon="-1.841">
        <ele>94</ele>
        <time>2022-10-22T12:29:10Z</time>
      </trkpt>
      <trkpt lat="47.04797" lon="-1.84088">
        <ele>94</ele>
        <time>2022-10-22T12:29:12Z</time>
      </trkpt>
      <trkpt lat="47.04788" lon="-1.84076">
        <ele>93</ele>
        <time>2022-10-22T12:29:14Z</time>
      </trkpt>
      <trkpt lat="47.04779" lon="-1.84064">
        <ele>93</ele>
        <time>2022-10-22T12:29:16Z</time>
      </trkpt>
      <trkpt lat="47.0477" lon="-1.84052">
        <ele>93</ele>
        <time>2022-10-22T12:29:18Z</time>
      </trkpt>
      <trkpt lat="47.04761" lon="-1.8404">
        <ele>93</ele>
        <time>2022-10-22T12:29:20Z</time>
      </trkpt>
      <trkpt lat="47.04752" lon="-1.84029">
        <ele>93</ele>
        <time>2022-10-22T12:29:22Z</time>
      </trkpt>
      <trkpt lat="47.04743" lon="-1.84017">
        <ele>93</ele>
        <time>2022-10-22T12:29:24Z</time>
      </trkpt>
      <trkpt lat="47.04733" lon="-1.84006">
        <ele>93</ele>
        <time>2022-10-22T12:29:26Z</time>
      </trkpt>
      <trkpt lat="47.04724" lon="-1.83994">
        <ele>93</ele>
        <time>2022-10-22T12:29:28Z</time>
      </trkpt>
      <trkpt lat="47.04714" lon="-1.83983">
        <ele>92</ele>
        <time>2022-10-22T12:29:30Z</time>
      </trkpt>
      <trkpt lat="47.04704" lon="-1.83972">
        <ele>92</ele>
        <time>2022-10-22T12:29:32Z</time>
      </trkpt>
      <trkpt lat="47.04694" lon="-1.83961">
        <ele>92</ele>
        <time>2022-10-22T12:29:34Z</time>
      </trkpt>
      <trkpt lat="47.04685" lon="-1.8395">
        <ele>91</ele>
        <time>2022-10-22T12:29:36Z</time>
      </trkpt>
      <trkpt lat="47.04675" lon="-1.83938">
        <ele>91</ele>
        <time>2022-10-22T12:29:38Z</time>
      </trkpt>
      <trkpt lat="47.04665" lon="-1.83927">
        <ele>91</ele>
        <time>2022-10-22T12:29:40Z</time>
      </trkpt>
      <trkpt lat="47.04656" lon="-1.83914">
        <ele>91</ele>
        <time>2022-10-22T12:29:42Z</time>
      </trkpt>
      <trkpt lat="47.04647" lon="-1.83901">
        <ele>91</ele>
        <time>2022-10-22T12:29:44Z</time>
      </trkpt>
      <trkpt lat="47.04638" lon="-1.83889">
        <ele>91</ele>
        <time>2022-10-22T12:29:46Z</time>
      </trkpt>
      <trkpt lat="47.04629" lon="-1.83875">
        <ele>90</ele>
        <time>2022-10-22T12:29:48Z</time>
      </trkpt>
      <trkpt lat="47.0462" lon="-1.83861">
        <ele>91</ele>
        <time>2022-10-22T12:29:50Z</time>
      </trkpt>
      <trkpt lat="47.04611" lon="-1.83849">
        <ele>91</ele>
        <time>2022-10-22T12:29:52Z</time>
      </trkpt>
      <trkpt lat="47.04601" lon="-1.83838">
        <ele>91</ele>
        <time>2022-10-22T12:29:54Z</time>
      </trkpt>
      <trkpt lat="47.04591" lon="-1.83829">
        <ele>91</ele>
        <time>2022-10-22T12:29:56Z</time>
      </trkpt>
      <trkpt lat="47.04579" lon="-1.8382">
        <ele>91</ele>
        <time>2022-10-22T12:29:58Z</time>
      </trkpt>
      <trkpt lat="47.04567" lon="-1.83812">
        <ele>91</ele>
        <time>2022-10-22T12:30:00Z</time>
      </trkpt>
      <trkpt lat="47.04555" lon="-1.83804">
        <ele>91</ele>
        <time>2022-10-22T12:30:02Z</time>
      </trkpt>
      <trkpt lat="47.04543" lon="-1.83795">
        <ele>91</ele>
        <time>2022-10-22T12:30:04Z</time>
      </trkpt>
      <trkpt lat="47.04532" lon="-1.83787">
        <ele>91</ele>
        <time>2022-10-22T12:30:06Z</time>
      </trkpt>
      <trkpt lat="47.04521" lon="-1.83779">
        <ele>91</ele>
        <time>2022-10-22T12:30:08Z</time>
      </trkpt>
      <trkpt lat="47.0451" lon="-1.83771">
        <ele>91</ele>
        <time>2022-10-22T12:30:10Z</time>
      </trkpt>
      <trkpt lat="47.04499" lon="-1.83761">
        <ele>92</ele>
        <time>2022-10-22T12:30:12Z</time>
      </trkpt>
      <trkpt lat="47.04487" lon="-1.83753">
        <ele>92</ele>
        <time>2022-10-22T12:30:14Z</time>
      </trkpt>
      <trkpt lat="47.04476" lon="-1.83745">
        <ele>92</ele>
        <time>2022-10-22T12:30:16Z</time>
      </trkpt>
      <trkpt lat="47.04466" lon="-1.83736">
        <ele>92</ele>
        <time>2022-10-22T12:30:18Z</time>
      </trkpt>
      <trkpt lat="47.04455" lon="-1.83727">
        <ele>92</ele>
        <time>2022-10-22T12:30:20Z</time>
      </trkpt>
      <trkpt lat="47.04444" lon="-1.83717">
        <ele>92</ele>
        <time>2022-10-22T12:30:22Z</time>
      </trkpt>
      <trkpt lat="47.04433" lon="-1.83708">
        <ele>92</ele>
        <time>2022-10-22T12:30:24Z</time>
      </trkpt>
      <trkpt lat="47.04422" lon="-1.83699">
        <ele>92</ele>
        <time>2022-10-22T12:30:26Z</time>
      </trkpt>
      <trkpt lat="47.04411" lon="-1.83692">
        <ele>92</ele>
        <time>2022-10-22T12:30:28Z</time>
      </trkpt>
      <trkpt lat="47.044" lon="-1.83684">
        <ele>92</ele>
        <time>2022-10-22T12:30:30Z</time>
      </trkpt>
      <trkpt lat="47.04389" lon="-1.83677">
        <ele>92</ele>
        <time>2022-10-22T12:30:32Z</time>
      </trkpt>
      <trkpt lat="47.04377" lon="-1.8367">
        <ele>91</ele>
        <time>2022-10-22T12:30:34Z</time>
      </trkpt>
      <trkpt lat="47.04365" lon="-1.83666">
        <ele>91</ele>
        <time>2022-10-22T12:30:36Z</time>
      </trkpt>
      <trkpt lat="47.04352" lon="-1.83663">
        <ele>91</ele>
        <time>2022-10-22T12:30:38Z</time>
      </trkpt>
      <trkpt lat="47.04339" lon="-1.83659">
        <ele>91</ele>
        <time>2022-10-22T12:30:40Z</time>
      </trkpt>
      <trkpt lat="47.04326" lon="-1.83656">
        <ele>92</ele>
        <time>2022-10-22T12:30:42Z</time>
      </trkpt>
      <trkpt lat="47.04314" lon="-1.83653">
        <ele>92</ele>
        <time>2022-10-22T12:30:44Z</time>
      </trkpt>
      <trkpt lat="47.04302" lon="-1.8365">
        <ele>92</ele>
        <time>2022-10-22T12:30:46Z</time>
      </trkpt>
      <trkpt lat="47.04289" lon="-1.83647">
        <ele>92</ele>
        <time>2022-10-22T12:30:48Z</time>
      </trkpt>
      <trkpt lat="47.04276" lon="-1.83644">
        <ele>91</ele>
        <time>2022-10-22T12:30:50Z</time>
      </trkpt>
      <trkpt lat="47.04262" lon="-1.83641">
        <ele>91</ele>
        <time>2022-10-22T12:30:52Z</time>
      </trkpt>
      <trkpt lat="47.04249" lon="-1.83638">
        <ele>90</ele>
        <time>2022-10-22T12:30:54Z</time>
      </trkpt>
      <trkpt lat="47.04236" lon="-1.83634">
        <ele>90</ele>
        <time>2022-10-22T12:30:56Z</time>
      </trkpt>
      <trkpt lat="47.04224" lon="-1.83628">
        <ele>89</ele>
        <time>2022-10-22T12:30:58Z</time>
      </trkpt>
      <trkpt lat="47.04214" lon="-1.83618">
        <ele>88</ele>
        <time>2022-10-22T12:31:00Z</time>
      </trkpt>
      <trkpt lat="47.04202" lon="-1.83614">
        <ele>89</ele>
        <time>2022-10-22T12:31:02Z</time>
      </trkpt>
      <trkpt lat="47.04189" lon="-1.83615">
        <ele>89</ele>
        <time>2022-10-22T12:31:04Z</time>
      </trkpt>
      <trkpt lat="47.04176" lon="-1.83613">
        <ele>89</ele>
        <time>2022-10-22T12:31:06Z</time>
      </trkpt>
      <trkpt lat="47.04164" lon="-1.83607">
        <ele>89</ele>
        <time>2022-10-22T12:31:08Z</time>
      </trkpt>
      <trkpt lat="47.04152" lon="-1.83602">
        <ele>89</ele>
        <time>2022-10-22T12:31:10Z</time>
      </trkpt>
      <trkpt lat="47.04141" lon="-1.83595">
        <ele>89</ele>
        <time>2022-10-22T12:31:12Z</time>
      </trkpt>
      <trkpt lat="47.04129" lon="-1.83589">
        <ele>89</ele>
        <time>2022-10-22T12:31:14Z</time>
      </trkpt>
      <trkpt lat="47.04118" lon="-1.83582">
        <ele>90</ele>
        <time>2022-10-22T12:31:16Z</time>
      </trkpt>
      <trkpt lat="47.04105" lon="-1.83578">
        <ele>90</ele>
        <time>2022-10-22T12:31:18Z</time>
      </trkpt>
      <trkpt lat="47.04093" lon="-1.83574">
        <ele>90</ele>
        <time>2022-10-22T12:31:20Z</time>
      </trkpt>
      <trkpt lat="47.04081" lon="-1.83572">
        <ele>90</ele>
        <time>2022-10-22T12:31:22Z</time>
      </trkpt>
      <trkpt lat="47.04069" lon="-1.83569">
        <ele>90</ele>
        <time>2022-10-22T12:31:24Z</time>
      </trkpt>
      <trkpt lat="47.04056" lon="-1.83567">
        <ele>90</ele>
        <time>2022-10-22T12:31:26Z</time>
      </trkpt>
      <trkpt lat="47.04043" lon="-1.83565">
        <ele>90</ele>
        <time>2022-10-22T12:31:28Z</time>
      </trkpt>
      <trkpt lat="47.04031" lon="-1.83563">
        <ele>90</ele>
        <time>2022-10-22T12:31:30Z</time>
      </trkpt>
      <trkpt lat="47.04019" lon="-1.83561">
        <ele>90</ele>
        <time>2022-10-22T12:31:32Z</time>
      </trkpt>
      <trkpt lat="47.04006" lon="-1.8356">
        <ele>90</ele>
        <time>2022-10-22T12:31:34Z</time>
      </trkpt>
      <trkpt lat="47.03994" lon="-1.83559">
        <ele>90</ele>
        <time>2022-10-22T12:31:36Z</time>
      </trkpt>
      <trkpt lat="47.03982" lon="-1.83557">
        <ele>90</ele>
        <time>2022-10-22T12:31:38Z</time>
      </trkpt>
      <trkpt lat="47.03969" lon="-1.83555">
        <ele>90</ele>
        <time>2022-10-22T12:31:40Z</time>
      </trkpt>
      <trkpt lat="47.03957" lon="-1.83553">
        <ele>90</ele>
        <time>2022-10-22T12:31:42Z</time>
      </trkpt>
      <trkpt lat="47.03945" lon="-1.83551">
        <ele>90</ele>
        <time>2022-10-22T12:31:44Z</time>
      </trkpt>
      <trkpt lat="47.03932" lon="-1.83549">
        <ele>90</ele>
        <time>2022-10-22T12:31:46Z</time>
      </trkpt>
      <trkpt lat="47.0392" lon="-1.83548">
        <ele>90</ele>
        <time>2022-10-22T12:31:48Z</time>
      </trkpt>
      <trkpt lat="47.03907" lon="-1.83547">
        <ele>90</ele>
        <time>2022-10-22T12:31:50Z</time>
      </trkpt>
      <trkpt lat="47.03894" lon="-1.83545">
        <ele>90</ele>
        <time>2022-10-22T12:31:52Z</time>
      </trkpt>
      <trkpt lat="47.03881" lon="-1.83543">
        <ele>90</ele>
        <time>2022-10-22T12:31:54Z</time>
      </trkpt>
      <trkpt lat="47.03868" lon="-1.83541">
        <ele>90</ele>
        <time>2022-10-22T12:31:56Z</time>
      </trkpt>
      <trkpt lat="47.03856" lon="-1.8354">
        <ele>90</ele>
        <time>2022-10-22T12:31:58Z</time>
      </trkpt>
      <trkpt lat="47.03844" lon="-1.83537">
        <ele>90</ele>
        <time>2022-10-22T12:32:00Z</time>
      </trkpt>
      <trkpt lat="47.03832" lon="-1.83536">
        <ele>90</ele>
        <time>2022-10-22T12:32:02Z</time>
      </trkpt>
      <trkpt lat="47.0382" lon="-1.83535">
        <ele>90</ele>
        <time>2022-10-22T12:32:04Z</time>
      </trkpt>
      <trkpt lat="47.03808" lon="-1.83533">
        <ele>90</ele>
        <time>2022-10-22T12:32:06Z</time>
      </trkpt>
      <trkpt lat="47.03796" lon="-1.83532">
        <ele>90</ele>
        <time>2022-10-22T12:32:08Z</time>
      </trkpt>
      <trkpt lat="47.03784" lon="-1.83532">
        <ele>90</ele>
        <time>2022-10-22T12:32:10Z</time>
      </trkpt>
      <trkpt lat="47.03771" lon="-1.83533">
        <ele>89</ele>
        <time>2022-10-22T12:32:12Z</time>
      </trkpt>
      <trkpt lat="47.03759" lon="-1.83533">
        <ele>89</ele>
        <time>2022-10-22T12:32:14Z</time>
      </trkpt>
      <trkpt lat="47.03746" lon="-1.83533">
        <ele>89</ele>
        <time>2022-10-22T12:32:16Z</time>
      </trkpt>
      <trkpt lat="47.03734" lon="-1.83533">
        <ele>89</ele>
        <time>2022-10-22T12:32:18Z</time>
      </trkpt>
      <trkpt lat="47.03721" lon="-1.83533">
        <ele>89</ele>
        <time>2022-10-22T12:32:20Z</time>
      </trkpt>
      <trkpt lat="47.03708" lon="-1.83533">
        <ele>89</ele>
        <time>2022-10-22T12:32:22Z</time>
      </trkpt>
      <trkpt lat="47.03696" lon="-1.83533">
        <ele>89</ele>
        <time>2022-10-22T12:32:24Z</time>
      </trkpt>
      <trkpt lat="47.03684" lon="-1.83534">
        <ele>89</ele>
        <time>2022-10-22T12:32:26Z</time>
      </trkpt>
      <trkpt lat="47.03671" lon="-1.83534">
        <ele>89</ele>
        <time>2022-10-22T12:32:28Z</time>
      </trkpt>
      <trkpt lat="47.03658" lon="-1.83534">
        <ele>89</ele>
        <time>2022-10-22T12:32:30Z</time>
      </trkpt>
      <trkpt lat="47.03645" lon="-1.83535">
        <ele>89</ele>
        <time>2022-10-22T12:32:32Z</time>
      </trkpt>
      <trkpt lat="47.03632" lon="-1.83534">
        <ele>89</ele>
        <time>2022-10-22T12:32:34Z</time>
      </trkpt>
      <trkpt lat="47.0362" lon="-1.83535">
        <ele>89</ele>
        <time>2022-10-22T12:32:36Z</time>
      </trkpt>
      <trkpt lat="47.03607" lon="-1.83536">
        <ele>89</ele>
        <time>2022-10-22T12:32:38Z</time>
      </trkpt>
      <trkpt lat="47.03595" lon="-1.83536">
        <ele>89</ele>
        <time>2022-10-22T12:32:40Z</time>
      </trkpt>
      <trkpt lat="47.03583" lon="-1.83536">
        <ele>89</ele>
        <time>2022-10-22T12:32:42Z</time>
      </trkpt>
      <trkpt lat="47.03571" lon="-1.83536">
        <ele>89</ele>
        <time>2022-10-22T12:32:44Z</time>
      </trkpt>
      <trkpt lat="47.03559" lon="-1.83537">
        <ele>88</ele>
        <time>2022-10-22T12:32:46Z</time>
      </trkpt>
      <trkpt lat="47.03547" lon="-1.83537">
        <ele>88</ele>
        <time>2022-10-22T12:32:48Z</time>
      </trkpt>
      <trkpt lat="47.03535" lon="-1.83537">
        <ele>88</ele>
        <time>2022-10-22T12:32:50Z</time>
      </trkpt>
      <trkpt lat="47.03523" lon="-1.83536">
        <ele>88</ele>
        <time>2022-10-22T12:32:52Z</time>
      </trkpt>
      <trkpt lat="47.03511" lon="-1.83535">
        <ele>88</ele>
        <time>2022-10-22T12:32:54Z</time>
      </trkpt>
      <trkpt lat="47.035" lon="-1.83533">
        <ele>88</ele>
        <time>2022-10-22T12:32:56Z</time>
      </trkpt>
      <trkpt lat="47.03488" lon="-1.83531">
        <ele>88</ele>
        <time>2022-10-22T12:32:58Z</time>
      </trkpt>
      <trkpt lat="47.03476" lon="-1.83529">
        <ele>87</ele>
        <time>2022-10-22T12:33:00Z</time>
      </trkpt>
      <trkpt lat="47.03464" lon="-1.83526">
        <ele>87</ele>
        <time>2022-10-22T12:33:02Z</time>
      </trkpt>
      <trkpt lat="47.03452" lon="-1.83523">
        <ele>87</ele>
        <time>2022-10-22T12:33:04Z</time>
      </trkpt>
      <trkpt lat="47.0344" lon="-1.8352">
        <ele>87</ele>
        <time>2022-10-22T12:33:06Z</time>
      </trkpt>
      <trkpt lat="47.03428" lon="-1.83517">
        <ele>86</ele>
        <time>2022-10-22T12:33:08Z</time>
      </trkpt>
      <trkpt lat="47.03415" lon="-1.83513">
        <ele>86</ele>
        <time>2022-10-22T12:33:10Z</time>
      </trkpt>
      <trkpt lat="47.03403" lon="-1.8351">
        <ele>85</ele>
        <time>2022-10-22T12:33:12Z</time>
      </trkpt>
      <trkpt lat="47.0339" lon="-1.83506">
        <ele>85</ele>
        <time>2022-10-22T12:33:14Z</time>
      </trkpt>
      <trkpt lat="47.03378" lon="-1.83503">
        <ele>85</ele>
        <time>2022-10-22T12:33:16Z</time>
      </trkpt>
      <trkpt lat="47.03365" lon="-1.83499">
        <ele>85</ele>
        <time>2022-10-22T12:33:18Z</time>
      </trkpt>
      <trkpt lat="47.03353" lon="-1.83496">
        <ele>85</ele>
        <time>2022-10-22T12:33:20Z</time>
      </trkpt>
      <trkpt lat="47.03341" lon="-1.83493">
        <ele>85</ele>
        <time>2022-10-22T12:33:22Z</time>
      </trkpt>
      <trkpt lat="47.03329" lon="-1.83489">
        <ele>85</ele>
        <time>2022-10-22T12:33:24Z</time>
      </trkpt>
      <trkpt lat="47.03318" lon="-1.83486">
        <ele>85</ele>
        <time>2022-10-22T12:33:26Z</time>
      </trkpt>
      <trkpt lat="47.03306" lon="-1.83483">
        <ele>85</ele>
        <time>2022-10-22T12:33:28Z</time>
      </trkpt>
      <trkpt lat="47.03294" lon="-1.8348">
        <ele>85</ele>
        <time>2022-10-22T12:33:30Z</time>
      </trkpt>
      <trkpt lat="47.03283" lon="-1.83476">
        <ele>86</ele>
        <time>2022-10-22T12:33:32Z</time>
      </trkpt>
      <trkpt lat="47.03271" lon="-1.83473">
        <ele>85</ele>
        <time>2022-10-22T12:33:34Z</time>
      </trkpt>
      <trkpt lat="47.03259" lon="-1.83469">
        <ele>85</ele>
        <time>2022-10-22T12:33:36Z</time>
      </trkpt>
      <trkpt lat="47.03247" lon="-1.83466">
        <ele>85</ele>
        <time>2022-10-22T12:33:38Z</time>
      </trkpt>
      <trkpt lat="47.03236" lon="-1.83463">
        <ele>85</ele>
        <time>2022-10-22T12:33:40Z</time>
      </trkpt>
      <trkpt lat="47.03224" lon="-1.83459">
        <ele>85</ele>
        <time>2022-10-22T12:33:42Z</time>
      </trkpt>
      <trkpt lat="47.03212" lon="-1.83455">
        <ele>85</ele>
        <time>2022-10-22T12:33:44Z</time>
      </trkpt>
      <trkpt lat="47.03201" lon="-1.83452">
        <ele>85</ele>
        <time>2022-10-22T12:33:46Z</time>
      </trkpt>
      <trkpt lat="47.0319" lon="-1.8345">
        <ele>85</ele>
        <time>2022-10-22T12:33:48Z</time>
      </trkpt>
      <trkpt lat="47.0318" lon="-1.83448">
        <ele>85</ele>
        <time>2022-10-22T12:33:50Z</time>
      </trkpt>
      <trkpt lat="47.03171" lon="-1.83449">
        <ele>86</ele>
        <time>2022-10-22T12:33:52Z</time>
      </trkpt>
      <trkpt lat="47.03164" lon="-1.83459">
        <ele>86</ele>
        <time>2022-10-22T12:33:54Z</time>
      </trkpt>
      <trkpt lat="47.03162" lon="-1.83474">
        <ele>87</ele>
        <time>2022-10-22T12:33:56Z</time>
      </trkpt>
      <trkpt lat="47.03157" lon="-1.83487">
        <ele>87</ele>
        <time>2022-10-22T12:33:58Z</time>
      </trkpt>
      <trkpt lat="47.03146" lon="-1.83488">
        <ele>86</ele>
        <time>2022-10-22T12:34:00Z</time>
      </trkpt>
      <trkpt lat="47.03135" lon="-1.83488">
        <ele>87</ele>
        <time>2022-10-22T12:34:02Z</time>
      </trkpt>
      <trkpt lat="47.03124" lon="-1.83489">
        <ele>87</ele>
        <time>2022-10-22T12:34:04Z</time>
      </trkpt>
      <trkpt lat="47.03113" lon="-1.8349">
        <ele>86</ele>
        <time>2022-10-22T12:34:06Z</time>
      </trkpt>
      <trkpt lat="47.03102" lon="-1.83492">
        <ele>85</ele>
        <time>2022-10-22T12:34:08Z</time>
      </trkpt>
      <trkpt lat="47.03091" lon="-1.83493">
        <ele>85</ele>
        <time>2022-10-22T12:34:10Z</time>
      </trkpt>
      <trkpt lat="47.0308" lon="-1.83495">
        <ele>85</ele>
        <time>2022-10-22T12:34:12Z</time>
      </trkpt>
      <trkpt lat="47.03068" lon="-1.83495">
        <ele>85</ele>
        <time>2022-10-22T12:34:14Z</time>
      </trkpt>
      <trkpt lat="47.03057" lon="-1.83496">
        <ele>85</ele>
        <time>2022-10-22T12:34:16Z</time>
      </trkpt>
      <trkpt lat="47.03046" lon="-1.83497">
        <ele>84</ele>
        <time>2022-10-22T12:34:18Z</time>
      </trkpt>
      <trkpt lat="47.03033" lon="-1.83499">
        <ele>84</ele>
        <time>2022-10-22T12:34:20Z</time>
      </trkpt>
      <trkpt lat="47.03021" lon="-1.835">
        <ele>84</ele>
        <time>2022-10-22T12:34:22Z</time>
      </trkpt>
      <trkpt lat="47.0301" lon="-1.83501">
        <ele>83</ele>
        <time>2022-10-22T12:34:24Z</time>
      </trkpt>
      <trkpt lat="47.02997" lon="-1.83503">
        <ele>83</ele>
        <time>2022-10-22T12:34:26Z</time>
      </trkpt>
      <trkpt lat="47.02985" lon="-1.83504">
        <ele>83</ele>
        <time>2022-10-22T12:34:28Z</time>
      </trkpt>
      <trkpt lat="47.02972" lon="-1.83505">
        <ele>82</ele>
        <time>2022-10-22T12:34:30Z</time>
      </trkpt>
      <trkpt lat="47.0296" lon="-1.83507">
        <ele>83</ele>
        <time>2022-10-22T12:34:32Z</time>
      </trkpt>
      <trkpt lat="47.02948" lon="-1.83508">
        <ele>82</ele>
        <time>2022-10-22T12:34:34Z</time>
      </trkpt>
      <trkpt lat="47.02936" lon="-1.8351">
        <ele>82</ele>
        <time>2022-10-22T12:34:36Z</time>
      </trkpt>
      <trkpt lat="47.02923" lon="-1.83513">
        <ele>82</ele>
        <time>2022-10-22T12:34:38Z</time>
      </trkpt>
      <trkpt lat="47.02911" lon="-1.83515">
        <ele>83</ele>
        <time>2022-10-22T12:34:40Z</time>
      </trkpt>
      <trkpt lat="47.02899" lon="-1.83517">
        <ele>83</ele>
        <time>2022-10-22T12:34:42Z</time>
      </trkpt>
      <trkpt lat="47.02888" lon="-1.83521">
        <ele>82</ele>
        <time>2022-10-22T12:34:44Z</time>
      </trkpt>
      <trkpt lat="47.02877" lon="-1.83524">
        <ele>82</ele>
        <time>2022-10-22T12:34:46Z</time>
      </trkpt>
      <trkpt lat="47.02865" lon="-1.83528">
        <ele>82</ele>
        <time>2022-10-22T12:34:48Z</time>
      </trkpt>
      <trkpt lat="47.02854" lon="-1.83533">
        <ele>82</ele>
        <time>2022-10-22T12:34:50Z</time>
      </trkpt>
      <trkpt lat="47.02843" lon="-1.83539">
        <ele>82</ele>
        <time>2022-10-22T12:34:52Z</time>
      </trkpt>
      <trkpt lat="47.02834" lon="-1.83546">
        <ele>82</ele>
        <time>2022-10-22T12:34:54Z</time>
      </trkpt>
      <trkpt lat="47.02825" lon="-1.83554">
        <ele>82</ele>
        <time>2022-10-22T12:34:56Z</time>
      </trkpt>
      <trkpt lat="47.02816" lon="-1.83561">
        <ele>83</ele>
        <time>2022-10-22T12:34:58Z</time>
      </trkpt>
      <trkpt lat="47.02809" lon="-1.83569">
        <ele>83</ele>
        <time>2022-10-22T12:35:00Z</time>
      </trkpt>
      <trkpt lat="47.028" lon="-1.83578">
        <ele>83</ele>
        <time>2022-10-22T12:35:02Z</time>
      </trkpt>
      <trkpt lat="47.02791" lon="-1.83586">
        <ele>83</ele>
        <time>2022-10-22T12:35:04Z</time>
      </trkpt>
      <trkpt lat="47.02781" lon="-1.83594">
        <ele>83</ele>
        <time>2022-10-22T12:35:06Z</time>
      </trkpt>
      <trkpt lat="47.02772" lon="-1.836">
        <ele>83</ele>
        <time>2022-10-22T12:35:08Z</time>
      </trkpt>
      <trkpt lat="47.02762" lon="-1.83605">
        <ele>83</ele>
        <time>2022-10-22T12:35:10Z</time>
      </trkpt>
      <trkpt lat="47.0275" lon="-1.8361">
        <ele>83</ele>
        <time>2022-10-22T12:35:12Z</time>
      </trkpt>
      <trkpt lat="47.02738" lon="-1.83613">
        <ele>82</ele>
        <time>2022-10-22T12:35:14Z</time>
      </trkpt>
      <trkpt lat="47.02727" lon="-1.83614">
        <ele>82</ele>
        <time>2022-10-22T12:35:16Z</time>
      </trkpt>
      <trkpt lat="47.02715" lon="-1.83616">
        <ele>82</ele>
        <time>2022-10-22T12:35:18Z</time>
      </trkpt>
      <trkpt lat="47.02703" lon="-1.83617">
        <ele>82</ele>
        <time>2022-10-22T12:35:20Z</time>
      </trkpt>
      <trkpt lat="47.0269" lon="-1.83617">
        <ele>81</ele>
        <time>2022-10-22T12:35:22Z</time>
      </trkpt>
      <trkpt lat="47.02678" lon="-1.83618">
        <ele>81</ele>
        <time>2022-10-22T12:35:24Z</time>
      </trkpt>
      <trkpt lat="47.02666" lon="-1.83618">
        <ele>81</ele>
        <time>2022-10-22T12:35:26Z</time>
      </trkpt>
      <trkpt lat="47.02653" lon="-1.83619">
        <ele>81</ele>
        <time>2022-10-22T12:35:28Z</time>
      </trkpt>
      <trkpt lat="47.0264" lon="-1.83619">
        <ele>81</ele>
        <time>2022-10-22T12:35:30Z</time>
      </trkpt>
      <trkpt lat="47.02628" lon="-1.83619">
        <ele>81</ele>
        <time>2022-10-22T12:35:32Z</time>
      </trkpt>
      <trkpt lat="47.02615" lon="-1.83619">
        <ele>81</ele>
        <time>2022-10-22T12:35:34Z</time>
      </trkpt>
      <trkpt lat="47.02602" lon="-1.83621">
        <ele>81</ele>
        <time>2022-10-22T12:35:36Z</time>
      </trkpt>
      <trkpt lat="47.0259" lon="-1.83622">
        <ele>81</ele>
        <time>2022-10-22T12:35:38Z</time>
      </trkpt>
      <trkpt lat="47.02577" lon="-1.83622">
        <ele>81</ele>
        <time>2022-10-22T12:35:40Z</time>
      </trkpt>
      <trkpt lat="47.02564" lon="-1.83624">
        <ele>81</ele>
        <time>2022-10-22T12:35:42Z</time>
      </trkpt>
      <trkpt lat="47.02551" lon="-1.83625">
        <ele>80</ele>
        <time>2022-10-22T12:35:44Z</time>
      </trkpt>
      <trkpt lat="47.02539" lon="-1.83627">
        <ele>80</ele>
        <time>2022-10-22T12:35:46Z</time>
      </trkpt>
      <trkpt lat="47.02526" lon="-1.83629">
        <ele>79</ele>
        <time>2022-10-22T12:35:48Z</time>
      </trkpt>
      <trkpt lat="47.02514" lon="-1.83631">
        <ele>80</ele>
        <time>2022-10-22T12:35:50Z</time>
      </trkpt>
      <trkpt lat="47.02501" lon="-1.83634">
        <ele>80</ele>
        <time>2022-10-22T12:35:52Z</time>
      </trkpt>
      <trkpt lat="47.02489" lon="-1.83636">
        <ele>80</ele>
        <time>2022-10-22T12:35:54Z</time>
      </trkpt>
      <trkpt lat="47.02477" lon="-1.83638">
        <ele>80</ele>
        <time>2022-10-22T12:35:56Z</time>
      </trkpt>
      <trkpt lat="47.02464" lon="-1.8364">
        <ele>81</ele>
        <time>2022-10-22T12:35:58Z</time>
      </trkpt>
      <trkpt lat="47.02452" lon="-1.83643">
        <ele>81</ele>
        <time>2022-10-22T12:36:00Z</time>
      </trkpt>
      <trkpt lat="47.0244" lon="-1.83647">
        <ele>81</ele>
        <time>2022-10-22T12:36:02Z</time>
      </trkpt>
      <trkpt lat="47.02428" lon="-1.8365">
        <ele>81</ele>
        <time>2022-10-22T12:36:04Z</time>
      </trkpt>
      <trkpt lat="47.02415" lon="-1.83652">
        <ele>81</ele>
        <time>2022-10-22T12:36:06Z</time>
      </trkpt>
      <trkpt lat="47.02403" lon="-1.83654">
        <ele>81</ele>
        <time>2022-10-22T12:36:08Z</time>
      </trkpt>
      <trkpt lat="47.02391" lon="-1.83656">
        <ele>80</ele>
        <time>2022-10-22T12:36:10Z</time>
      </trkpt>
      <trkpt lat="47.02378" lon="-1.83656">
        <ele>81</ele>
        <time>2022-10-22T12:36:12Z</time>
      </trkpt>
      <trkpt lat="47.02366" lon="-1.83656">
        <ele>80</ele>
        <time>2022-10-22T12:36:14Z</time>
      </trkpt>
      <trkpt lat="47.02354" lon="-1.83655">
        <ele>80</ele>
        <time>2022-10-22T12:36:16Z</time>
      </trkpt>
      <trkpt lat="47.02342" lon="-1.83655">
        <ele>79</ele>
        <time>2022-10-22T12:36:18Z</time>
      </trkpt>
      <trkpt lat="47.02329" lon="-1.83654">
        <ele>79</ele>
        <time>2022-10-22T12:36:20Z</time>
      </trkpt>
      <trkpt lat="47.02317" lon="-1.83653">
        <ele>79</ele>
        <time>2022-10-22T12:36:22Z</time>
      </trkpt>
      <trkpt lat="47.02305" lon="-1.83653">
        <ele>79</ele>
        <time>2022-10-22T12:36:24Z</time>
      </trkpt>
      <trkpt lat="47.02292" lon="-1.83652">
        <ele>79</ele>
        <time>2022-10-22T12:36:26Z</time>
      </trkpt>
      <trkpt lat="47.0228" lon="-1.8365">
        <ele>79</ele>
        <time>2022-10-22T12:36:28Z</time>
      </trkpt>
      <trkpt lat="47.02267" lon="-1.83649">
        <ele>79</ele>
        <time>2022-10-22T12:36:30Z</time>
      </trkpt>
      <trkpt lat="47.02255" lon="-1.83648">
        <ele>79</ele>
        <time>2022-10-22T12:36:32Z</time>
      </trkpt>
      <trkpt lat="47.02242" lon="-1.83646">
        <ele>79</ele>
        <time>2022-10-22T12:36:34Z</time>
      </trkpt>
      <trkpt lat="47.0223" lon="-1.83645">
        <ele>78</ele>
        <time>2022-10-22T12:36:36Z</time>
      </trkpt>
      <trkpt lat="47.02218" lon="-1.83645">
        <ele>78</ele>
        <time>2022-10-22T12:36:38Z</time>
      </trkpt>
      <trkpt lat="47.02206" lon="-1.83644">
        <ele>77</ele>
        <time>2022-10-22T12:36:40Z</time>
      </trkpt>
      <trkpt lat="47.02195" lon="-1.8364">
        <ele>77</ele>
        <time>2022-10-22T12:36:42Z</time>
      </trkpt>
      <trkpt lat="47.02183" lon="-1.83635">
        <ele>77</ele>
        <time>2022-10-22T12:36:44Z</time>
      </trkpt>
      <trkpt lat="47.02172" lon="-1.83629">
        <ele>77</ele>
        <time>2022-10-22T12:36:46Z</time>
      </trkpt>
      <trkpt lat="47.02161" lon="-1.83622">
        <ele>77</ele>
        <time>2022-10-22T12:36:48Z</time>
      </trkpt>
      <trkpt lat="47.0215" lon="-1.83616">
        <ele>76</ele>
        <time>2022-10-22T12:36:50Z</time>
      </trkpt>
      <trkpt lat="47.02139" lon="-1.8361">
        <ele>76</ele>
        <time>2022-10-22T12:36:52Z</time>
      </trkpt>
      <trkpt lat="47.02128" lon="-1.83603">
        <ele>76</ele>
        <time>2022-10-22T12:36:54Z</time>
      </trkpt>
      <trkpt lat="47.02117" lon="-1.83597">
        <ele>76</ele>
        <time>2022-10-22T12:36:56Z</time>
      </trkpt>
      <trkpt lat="47.02106" lon="-1.83591">
        <ele>76</ele>
        <time>2022-10-22T12:36:58Z</time>
      </trkpt>
      <trkpt lat="47.02095" lon="-1.83585">
        <ele>76</ele>
        <time>2022-10-22T12:37:00Z</time>
      </trkpt>
      <trkpt lat="47.02085" lon="-1.83578">
        <ele>76</ele>
        <time>2022-10-22T12:37:02Z</time>
      </trkpt>
      <trkpt lat="47.02074" lon="-1.83572">
        <ele>76</ele>
        <time>2022-10-22T12:37:04Z</time>
      </trkpt>
      <trkpt lat="47.02062" lon="-1.83565">
        <ele>75</ele>
        <time>2022-10-22T12:37:06Z</time>
      </trkpt>
      <trkpt lat="47.02051" lon="-1.83559">
        <ele>75</ele>
        <time>2022-10-22T12:37:08Z</time>
      </trkpt>
      <trkpt lat="47.0204" lon="-1.83552">
        <ele>75</ele>
        <time>2022-10-22T12:37:10Z</time>
      </trkpt>
      <trkpt lat="47.02029" lon="-1.83545">
        <ele>75</ele>
        <time>2022-10-22T12:37:12Z</time>
      </trkpt>
      <trkpt lat="47.02019" lon="-1.83538">
        <ele>75</ele>
        <time>2022-10-22T12:37:14Z</time>
      </trkpt>
      <trkpt lat="47.02008" lon="-1.83532">
        <ele>75</ele>
        <time>2022-10-22T12:37:16Z</time>
      </trkpt>
      <trkpt lat="47.01997" lon="-1.83526">
        <ele>75</ele>
        <time>2022-10-22T12:37:18Z</time>
      </trkpt>
      <trkpt lat="47.01985" lon="-1.83519">
        <ele>75</ele>
        <time>2022-10-22T12:37:20Z</time>
      </trkpt>
      <trkpt lat="47.01974" lon="-1.83512">
        <ele>75</ele>
        <time>2022-10-22T12:37:22Z</time>
      </trkpt>
      <trkpt lat="47.01962" lon="-1.83506">
        <ele>75</ele>
        <time>2022-10-22T12:37:24Z</time>
      </trkpt>
      <trkpt lat="47.0195" lon="-1.835">
        <ele>74</ele>
        <time>2022-10-22T12:37:26Z</time>
      </trkpt>
      <trkpt lat="47.01938" lon="-1.83497">
        <ele>74</ele>
        <time>2022-10-22T12:37:28Z</time>
      </trkpt>
      <trkpt lat="47.01926" lon="-1.83497">
        <ele>74</ele>
        <time>2022-10-22T12:37:30Z</time>
      </trkpt>
      <trkpt lat="47.01912" lon="-1.83498">
        <ele>73</ele>
        <time>2022-10-22T12:37:32Z</time>
      </trkpt>
      <trkpt lat="47.01898" lon="-1.83501">
        <ele>73</ele>
        <time>2022-10-22T12:37:34Z</time>
      </trkpt>
      <trkpt lat="47.01883" lon="-1.83505">
        <ele>72</ele>
        <time>2022-10-22T12:37:36Z</time>
      </trkpt>
      <trkpt lat="47.01868" lon="-1.83508">
        <ele>71</ele>
        <time>2022-10-22T12:37:38Z</time>
      </trkpt>
      <trkpt lat="47.01853" lon="-1.83512">
        <ele>71</ele>
        <time>2022-10-22T12:37:40Z</time>
      </trkpt>
      <trkpt lat="47.01838" lon="-1.83515">
        <ele>71</ele>
        <time>2022-10-22T12:37:42Z</time>
      </trkpt>
      <trkpt lat="47.01824" lon="-1.83518">
        <ele>70</ele>
        <time>2022-10-22T12:37:44Z</time>
      </trkpt>
      <trkpt lat="47.01809" lon="-1.83521">
        <ele>69</ele>
        <time>2022-10-22T12:37:46Z</time>
      </trkpt>
      <trkpt lat="47.01786" lon="-1.83527">
        <ele>68</ele>
        <time>2022-10-22T12:37:49Z</time>
      </trkpt>
      <trkpt lat="47.01771" lon="-1.83531">
        <ele>67</ele>
        <time>2022-10-22T12:37:51Z</time>
      </trkpt>
      <trkpt lat="47.01757" lon="-1.83538">
        <ele>67</ele>
        <time>2022-10-22T12:37:53Z</time>
      </trkpt>
      <trkpt lat="47.01744" lon="-1.83549">
        <ele>67</ele>
        <time>2022-10-22T12:37:55Z</time>
      </trkpt>
      <trkpt lat="47.01734" lon="-1.83563">
        <ele>67</ele>
        <time>2022-10-22T12:37:57Z</time>
      </trkpt>
      <trkpt lat="47.01726" lon="-1.83579">
        <ele>68</ele>
        <time>2022-10-22T12:37:59Z</time>
      </trkpt>
      <trkpt lat="47.01719" lon="-1.83595">
        <ele>68</ele>
        <time>2022-10-22T12:38:01Z</time>
      </trkpt>
      <trkpt lat="47.01711" lon="-1.83611">
        <ele>68</ele>
        <time>2022-10-22T12:38:03Z</time>
      </trkpt>
      <trkpt lat="47.01704" lon="-1.83626">
        <ele>68</ele>
        <time>2022-10-22T12:38:05Z</time>
      </trkpt>
      <trkpt lat="47.01696" lon="-1.8364">
        <ele>68</ele>
        <time>2022-10-22T12:38:07Z</time>
      </trkpt>
      <trkpt lat="47.01687" lon="-1.83654">
        <ele>68</ele>
        <time>2022-10-22T12:38:09Z</time>
      </trkpt>
      <trkpt lat="47.01678" lon="-1.83666">
        <ele>69</ele>
        <time>2022-10-22T12:38:11Z</time>
      </trkpt>
      <trkpt lat="47.01669" lon="-1.83679">
        <ele>69</ele>
        <time>2022-10-22T12:38:13Z</time>
      </trkpt>
      <trkpt lat="47.01655" lon="-1.83696">
        <ele>69</ele>
        <time>2022-10-22T12:38:16Z</time>
      </trkpt>
      <trkpt lat="47.01645" lon="-1.83708">
        <ele>69</ele>
        <time>2022-10-22T12:38:18Z</time>
      </trkpt>
      <trkpt lat="47.01635" lon="-1.83721">
        <ele>68</ele>
        <time>2022-10-22T12:38:20Z</time>
      </trkpt>
      <trkpt lat="47.01626" lon="-1.83732">
        <ele>68</ele>
        <time>2022-10-22T12:38:22Z</time>
      </trkpt>
      <trkpt lat="47.01616" lon="-1.83743">
        <ele>68</ele>
        <time>2022-10-22T12:38:24Z</time>
      </trkpt>
      <trkpt lat="47.01607" lon="-1.83754">
        <ele>68</ele>
        <time>2022-10-22T12:38:26Z</time>
      </trkpt>
      <trkpt lat="47.01598" lon="-1.83765">
        <ele>68</ele>
        <time>2022-10-22T12:38:28Z</time>
      </trkpt>
      <trkpt lat="47.01583" lon="-1.83783">
        <ele>67</ele>
        <time>2022-10-22T12:38:31Z</time>
      </trkpt>
      <trkpt lat="47.01574" lon="-1.83794">
        <ele>67</ele>
        <time>2022-10-22T12:38:33Z</time>
      </trkpt>
      <trkpt lat="47.01564" lon="-1.83806">
        <ele>67</ele>
        <time>2022-10-22T12:38:35Z</time>
      </trkpt>
      <trkpt lat="47.01555" lon="-1.83818">
        <ele>66</ele>
        <time>2022-10-22T12:38:37Z</time>
      </trkpt>
      <trkpt lat="47.01546" lon="-1.8383">
        <ele>66</ele>
        <time>2022-10-22T12:38:39Z</time>
      </trkpt>
      <trkpt lat="47.01537" lon="-1.83842">
        <ele>66</ele>
        <time>2022-10-22T12:38:41Z</time>
      </trkpt>
      <trkpt lat="47.01528" lon="-1.83854">
        <ele>66</ele>
        <time>2022-10-22T12:38:43Z</time>
      </trkpt>
      <trkpt lat="47.01518" lon="-1.83868">
        <ele>66</ele>
        <time>2022-10-22T12:38:45Z</time>
      </trkpt>
      <trkpt lat="47.01509" lon="-1.83882">
        <ele>66</ele>
        <time>2022-10-22T12:38:47Z</time>
      </trkpt>
      <trkpt lat="47.01499" lon="-1.83895">
        <ele>66</ele>
        <time>2022-10-22T12:38:49Z</time>
      </trkpt>
      <trkpt lat="47.01489" lon="-1.83909">
        <ele>67</ele>
        <time>2022-10-22T12:38:51Z</time>
      </trkpt>
      <trkpt lat="47.01479" lon="-1.83923">
        <ele>67</ele>
        <time>2022-10-22T12:38:53Z</time>
      </trkpt>
      <trkpt lat="47.01468" lon="-1.83937">
        <ele>66</ele>
        <time>2022-10-22T12:38:55Z</time>
      </trkpt>
      <trkpt lat="47.01458" lon="-1.83951">
        <ele>66</ele>
        <time>2022-10-22T12:38:57Z</time>
      </trkpt>
      <trkpt lat="47.01449" lon="-1.83966">
        <ele>66</ele>
        <time>2022-10-22T12:38:59Z</time>
      </trkpt>
      <trkpt lat="47.0144" lon="-1.83984">
        <ele>65</ele>
        <time>2022-10-22T12:39:01Z</time>
      </trkpt>
      <trkpt lat="47.01431" lon="-1.84001">
        <ele>64</ele>
        <time>2022-10-22T12:39:03Z</time>
      </trkpt>
      <trkpt lat="47.01421" lon="-1.84016">
        <ele>64</ele>
        <time>2022-10-22T12:39:05Z</time>
      </trkpt>
      <trkpt lat="47.01411" lon="-1.84031">
        <ele>63</ele>
        <time>2022-10-22T12:39:07Z</time>
      </trkpt>
      <trkpt lat="47.01402" lon="-1.84045">
        <ele>63</ele>
        <time>2022-10-22T12:39:09Z</time>
      </trkpt>
      <trkpt lat="47.01393" lon="-1.8406">
        <ele>63</ele>
        <time>2022-10-22T12:39:11Z</time>
      </trkpt>
      <trkpt lat="47.01383" lon="-1.84073">
        <ele>62</ele>
        <time>2022-10-22T12:39:13Z</time>
      </trkpt>
      <trkpt lat="47.01373" lon="-1.84086">
        <ele>62</ele>
        <time>2022-10-22T12:39:15Z</time>
      </trkpt>
      <trkpt lat="47.01363" lon="-1.84098">
        <ele>62</ele>
        <time>2022-10-22T12:39:17Z</time>
      </trkpt>
      <trkpt lat="47.01353" lon="-1.8411">
        <ele>61</ele>
        <time>2022-10-22T12:39:19Z</time>
      </trkpt>
      <trkpt lat="47.01342" lon="-1.84121">
        <ele>61</ele>
        <time>2022-10-22T12:39:21Z</time>
      </trkpt>
      <trkpt lat="47.01332" lon="-1.84132">
        <ele>61</ele>
        <time>2022-10-22T12:39:23Z</time>
      </trkpt>
      <trkpt lat="47.01322" lon="-1.84142">
        <ele>61</ele>
        <time>2022-10-22T12:39:25Z</time>
      </trkpt>
      <trkpt lat="47.01311" lon="-1.84153">
        <ele>61</ele>
        <time>2022-10-22T12:39:27Z</time>
      </trkpt>
      <trkpt lat="47.01302" lon="-1.84164">
        <ele>61</ele>
        <time>2022-10-22T12:39:29Z</time>
      </trkpt>
      <trkpt lat="47.01292" lon="-1.84175">
        <ele>61</ele>
        <time>2022-10-22T12:39:31Z</time>
      </trkpt>
      <trkpt lat="47.01282" lon="-1.84185">
        <ele>62</ele>
        <time>2022-10-22T12:39:33Z</time>
      </trkpt>
      <trkpt lat="47.01272" lon="-1.84196">
        <ele>61</ele>
        <time>2022-10-22T12:39:35Z</time>
      </trkpt>
      <trkpt lat="47.01262" lon="-1.84206">
        <ele>62</ele>
        <time>2022-10-22T12:39:37Z</time>
      </trkpt>
      <trkpt lat="47.01251" lon="-1.84219">
        <ele>62</ele>
        <time>2022-10-22T12:39:39Z</time>
      </trkpt>
      <trkpt lat="47.01241" lon="-1.84231">
        <ele>62</ele>
        <time>2022-10-22T12:39:41Z</time>
      </trkpt>
      <trkpt lat="47.0123" lon="-1.84243">
        <ele>61</ele>
        <time>2022-10-22T12:39:43Z</time>
      </trkpt>
      <trkpt lat="47.0122" lon="-1.84254">
        <ele>62</ele>
        <time>2022-10-22T12:39:45Z</time>
      </trkpt>
      <trkpt lat="47.0121" lon="-1.84264">
        <ele>62</ele>
        <time>2022-10-22T12:39:47Z</time>
      </trkpt>
      <trkpt lat="47.012" lon="-1.84276">
        <ele>63</ele>
        <time>2022-10-22T12:39:49Z</time>
      </trkpt>
      <trkpt lat="47.01191" lon="-1.8429">
        <ele>62</ele>
        <time>2022-10-22T12:39:51Z</time>
      </trkpt>
      <trkpt lat="47.01183" lon="-1.84305">
        <ele>62</ele>
        <time>2022-10-22T12:39:53Z</time>
      </trkpt>
      <trkpt lat="47.01177" lon="-1.84322">
        <ele>62</ele>
        <time>2022-10-22T12:39:55Z</time>
      </trkpt>
      <trkpt lat="47.01173" lon="-1.84338">
        <ele>62</ele>
        <time>2022-10-22T12:39:57Z</time>
      </trkpt>
      <trkpt lat="47.01168" lon="-1.84355">
        <ele>62</ele>
        <time>2022-10-22T12:39:59Z</time>
      </trkpt>
      <trkpt lat="47.01164" lon="-1.8437">
        <ele>62</ele>
        <time>2022-10-22T12:40:01Z</time>
      </trkpt>
      <trkpt lat="47.01159" lon="-1.84386">
        <ele>62</ele>
        <time>2022-10-22T12:40:03Z</time>
      </trkpt>
      <trkpt lat="47.01155" lon="-1.84402">
        <ele>62</ele>
        <time>2022-10-22T12:40:05Z</time>
      </trkpt>
      <trkpt lat="47.01151" lon="-1.84418">
        <ele>62</ele>
        <time>2022-10-22T12:40:07Z</time>
      </trkpt>
      <trkpt lat="47.01147" lon="-1.84434">
        <ele>62</ele>
        <time>2022-10-22T12:40:09Z</time>
      </trkpt>
      <trkpt lat="47.01143" lon="-1.84451">
        <ele>62</ele>
        <time>2022-10-22T12:40:11Z</time>
      </trkpt>
      <trkpt lat="47.01138" lon="-1.84468">
        <ele>62</ele>
        <time>2022-10-22T12:40:13Z</time>
      </trkpt>
      <trkpt lat="47.01134" lon="-1.84485">
        <ele>62</ele>
        <time>2022-10-22T12:40:15Z</time>
      </trkpt>
      <trkpt lat="47.0113" lon="-1.84503">
        <ele>62</ele>
        <time>2022-10-22T12:40:17Z</time>
      </trkpt>
      <trkpt lat="47.01124" lon="-1.8452">
        <ele>62</ele>
        <time>2022-10-22T12:40:19Z</time>
      </trkpt>
      <trkpt lat="47.01118" lon="-1.84536">
        <ele>62</ele>
        <time>2022-10-22T12:40:21Z</time>
      </trkpt>
      <trkpt lat="47.0111" lon="-1.8455">
        <ele>62</ele>
        <time>2022-10-22T12:40:23Z</time>
      </trkpt>
      <trkpt lat="47.01101" lon="-1.84564">
        <ele>62</ele>
        <time>2022-10-22T12:40:25Z</time>
      </trkpt>
      <trkpt lat="47.01091" lon="-1.84575">
        <ele>61</ele>
        <time>2022-10-22T12:40:27Z</time>
      </trkpt>
      <trkpt lat="47.01081" lon="-1.84587">
        <ele>61</ele>
        <time>2022-10-22T12:40:29Z</time>
      </trkpt>
      <trkpt lat="47.01072" lon="-1.84598">
        <ele>61</ele>
        <time>2022-10-22T12:40:31Z</time>
      </trkpt>
      <trkpt lat="47.01063" lon="-1.84609">
        <ele>61</ele>
        <time>2022-10-22T12:40:33Z</time>
      </trkpt>
      <trkpt lat="47.01053" lon="-1.84618">
        <ele>61</ele>
        <time>2022-10-22T12:40:35Z</time>
      </trkpt>
      <trkpt lat="47.01044" lon="-1.84629">
        <ele>61</ele>
        <time>2022-10-22T12:40:37Z</time>
      </trkpt>
      <trkpt lat="47.01035" lon="-1.8464">
        <ele>60</ele>
        <time>2022-10-22T12:40:39Z</time>
      </trkpt>
      <trkpt lat="47.01026" lon="-1.8465">
        <ele>61</ele>
        <time>2022-10-22T12:40:41Z</time>
      </trkpt>
      <trkpt lat="47.01016" lon="-1.84659">
        <ele>60</ele>
        <time>2022-10-22T12:40:43Z</time>
      </trkpt>
      <trkpt lat="47.01005" lon="-1.84666">
        <ele>61</ele>
        <time>2022-10-22T12:40:45Z</time>
      </trkpt>
      <trkpt lat="47.00994" lon="-1.84672">
        <ele>60</ele>
        <time>2022-10-22T12:40:47Z</time>
      </trkpt>
      <trkpt lat="47.00982" lon="-1.84679">
        <ele>60</ele>
        <time>2022-10-22T12:40:49Z</time>
      </trkpt>
      <trkpt lat="47.00971" lon="-1.84684">
        <ele>60</ele>
        <time>2022-10-22T12:40:51Z</time>
      </trkpt>
      <trkpt lat="47.0096" lon="-1.84692">
        <ele>60</ele>
        <time>2022-10-22T12:40:53Z</time>
      </trkpt>
      <trkpt lat="47.00948" lon="-1.84699">
        <ele>60</ele>
        <time>2022-10-22T12:40:55Z</time>
      </trkpt>
      <trkpt lat="47.00937" lon="-1.84705">
        <ele>60</ele>
        <time>2022-10-22T12:40:57Z</time>
      </trkpt>
      <trkpt lat="47.00925" lon="-1.84711">
        <ele>60</ele>
        <time>2022-10-22T12:40:59Z</time>
      </trkpt>
      <trkpt lat="47.00915" lon="-1.84716">
        <ele>60</ele>
        <time>2022-10-22T12:41:01Z</time>
      </trkpt>
      <trkpt lat="47.00905" lon="-1.84722">
        <ele>60</ele>
        <time>2022-10-22T12:41:03Z</time>
      </trkpt>
      <trkpt lat="47.00894" lon="-1.84729">
        <ele>60</ele>
        <time>2022-10-22T12:41:06Z</time>
      </trkpt>
      <trkpt lat="47.00886" lon="-1.84739">
        <ele>61</ele>
        <time>2022-10-22T12:41:10Z</time>
      </trkpt>
      <trkpt lat="47.00878" lon="-1.84746">
        <ele>61</ele>
        <time>2022-10-22T12:41:12Z</time>
      </trkpt>
      <trkpt lat="47.00868" lon="-1.84753">
        <ele>61</ele>
        <time>2022-10-22T12:41:14Z</time>
      </trkpt>
      <trkpt lat="47.00858" lon="-1.8476">
        <ele>61</ele>
        <time>2022-10-22T12:41:16Z</time>
      </trkpt>
      <trkpt lat="47.00848" lon="-1.84768">
        <ele>61</ele>
        <time>2022-10-22T12:41:18Z</time>
      </trkpt>
      <trkpt lat="47.00838" lon="-1.84775">
        <ele>61</ele>
        <time>2022-10-22T12:41:20Z</time>
      </trkpt>
      <trkpt lat="47.00827" lon="-1.84781">
        <ele>61</ele>
        <time>2022-10-22T12:41:22Z</time>
      </trkpt>
      <trkpt lat="47.00817" lon="-1.84787">
        <ele>61</ele>
        <time>2022-10-22T12:41:24Z</time>
      </trkpt>
      <trkpt lat="47.00806" lon="-1.84793">
        <ele>61</ele>
        <time>2022-10-22T12:41:26Z</time>
      </trkpt>
      <trkpt lat="47.00796" lon="-1.84798">
        <ele>61</ele>
        <time>2022-10-22T12:41:28Z</time>
      </trkpt>
      <trkpt lat="47.00785" lon="-1.84804">
        <ele>61</ele>
        <time>2022-10-22T12:41:30Z</time>
      </trkpt>
      <trkpt lat="47.00775" lon="-1.8481">
        <ele>61</ele>
        <time>2022-10-22T12:41:32Z</time>
      </trkpt>
      <trkpt lat="47.00765" lon="-1.84815">
        <ele>61</ele>
        <time>2022-10-22T12:41:34Z</time>
      </trkpt>
      <trkpt lat="47.00755" lon="-1.84821">
        <ele>62</ele>
        <time>2022-10-22T12:41:36Z</time>
      </trkpt>
      <trkpt lat="47.00745" lon="-1.84825">
        <ele>61</ele>
        <time>2022-10-22T12:41:38Z</time>
      </trkpt>
      <trkpt lat="47.00735" lon="-1.84831">
        <ele>62</ele>
        <time>2022-10-22T12:41:40Z</time>
      </trkpt>
      <trkpt lat="47.00725" lon="-1.84836">
        <ele>61</ele>
        <time>2022-10-22T12:41:42Z</time>
      </trkpt>
      <trkpt lat="47.00715" lon="-1.84841">
        <ele>61</ele>
        <time>2022-10-22T12:41:44Z</time>
      </trkpt>
      <trkpt lat="47.00704" lon="-1.84847">
        <ele>61</ele>
        <time>2022-10-22T12:41:46Z</time>
      </trkpt>
      <trkpt lat="47.00694" lon="-1.84852">
        <ele>61</ele>
        <time>2022-10-22T12:41:48Z</time>
      </trkpt>
      <trkpt lat="47.00683" lon="-1.84858">
        <ele>61</ele>
        <time>2022-10-22T12:41:50Z</time>
      </trkpt>
      <trkpt lat="47.00672" lon="-1.84863">
        <ele>61</ele>
        <time>2022-10-22T12:41:52Z</time>
      </trkpt>
      <trkpt lat="47.00662" lon="-1.84869">
        <ele>61</ele>
        <time>2022-10-22T12:41:54Z</time>
      </trkpt>
      <trkpt lat="47.00652" lon="-1.84874">
        <ele>61</ele>
        <time>2022-10-22T12:41:56Z</time>
      </trkpt>
      <trkpt lat="47.00642" lon="-1.8488">
        <ele>60</ele>
        <time>2022-10-22T12:41:58Z</time>
      </trkpt>
      <trkpt lat="47.00632" lon="-1.84886">
        <ele>60</ele>
        <time>2022-10-22T12:42:00Z</time>
      </trkpt>
      <trkpt lat="47.00623" lon="-1.84893">
        <ele>60</ele>
        <time>2022-10-22T12:42:02Z</time>
      </trkpt>
      <trkpt lat="47.00614" lon="-1.84901">
        <ele>60</ele>
        <time>2022-10-22T12:42:04Z</time>
      </trkpt>
      <trkpt lat="47.00605" lon="-1.8491">
        <ele>60</ele>
        <time>2022-10-22T12:42:06Z</time>
      </trkpt>
      <trkpt lat="47.00596" lon="-1.8492">
        <ele>60</ele>
        <time>2022-10-22T12:42:08Z</time>
      </trkpt>
      <trkpt lat="47.00588" lon="-1.84929">
        <ele>61</ele>
        <time>2022-10-22T12:42:10Z</time>
      </trkpt>
      <trkpt lat="47.0058" lon="-1.84939">
        <ele>61</ele>
        <time>2022-10-22T12:42:12Z</time>
      </trkpt>
      <trkpt lat="47.00572" lon="-1.8495">
        <ele>61</ele>
        <time>2022-10-22T12:42:14Z</time>
      </trkpt>
      <trkpt lat="47.00563" lon="-1.84961">
        <ele>61</ele>
        <time>2022-10-22T12:42:16Z</time>
      </trkpt>
      <trkpt lat="47.00555" lon="-1.84973">
        <ele>61</ele>
        <time>2022-10-22T12:42:18Z</time>
      </trkpt>
      <trkpt lat="47.00546" lon="-1.84985">
        <ele>61</ele>
        <time>2022-10-22T12:42:20Z</time>
      </trkpt>
      <trkpt lat="47.00538" lon="-1.84996">
        <ele>60</ele>
        <time>2022-10-22T12:42:22Z</time>
      </trkpt>
      <trkpt lat="47.00529" lon="-1.85007">
        <ele>60</ele>
        <time>2022-10-22T12:42:24Z</time>
      </trkpt>
      <trkpt lat="47.0052" lon="-1.85017">
        <ele>60</ele>
        <time>2022-10-22T12:42:26Z</time>
      </trkpt>
      <trkpt lat="47.00511" lon="-1.85027">
        <ele>60</ele>
        <time>2022-10-22T12:42:28Z</time>
      </trkpt>
      <trkpt lat="47.00502" lon="-1.85037">
        <ele>60</ele>
        <time>2022-10-22T12:42:30Z</time>
      </trkpt>
      <trkpt lat="47.00494" lon="-1.85048">
        <ele>60</ele>
        <time>2022-10-22T12:42:32Z</time>
      </trkpt>
      <trkpt lat="47.00485" lon="-1.85057">
        <ele>60</ele>
        <time>2022-10-22T12:42:34Z</time>
      </trkpt>
      <trkpt lat="47.00476" lon="-1.85066">
        <ele>60</ele>
        <time>2022-10-22T12:42:36Z</time>
      </trkpt>
      <trkpt lat="47.00468" lon="-1.85073">
        <ele>60</ele>
        <time>2022-10-22T12:42:38Z</time>
      </trkpt>
      <trkpt lat="47.00459" lon="-1.85081">
        <ele>60</ele>
        <time>2022-10-22T12:42:40Z</time>
      </trkpt>
      <trkpt lat="47.0045" lon="-1.85088">
        <ele>60</ele>
        <time>2022-10-22T12:42:42Z</time>
      </trkpt>
      <trkpt lat="47.00442" lon="-1.85096">
        <ele>60</ele>
        <time>2022-10-22T12:42:44Z</time>
      </trkpt>
      <trkpt lat="47.00433" lon="-1.85103">
        <ele>60</ele>
        <time>2022-10-22T12:42:46Z</time>
      </trkpt>
      <trkpt lat="47.00424" lon="-1.8511">
        <ele>60</ele>
        <time>2022-10-22T12:42:48Z</time>
      </trkpt>
      <trkpt lat="47.00416" lon="-1.85118">
        <ele>60</ele>
        <time>2022-10-22T12:42:50Z</time>
      </trkpt>
      <trkpt lat="47.00407" lon="-1.85125">
        <ele>60</ele>
        <time>2022-10-22T12:42:52Z</time>
      </trkpt>
      <trkpt lat="47.00398" lon="-1.85133">
        <ele>61</ele>
        <time>2022-10-22T12:42:54Z</time>
      </trkpt>
      <trkpt lat="47.0039" lon="-1.85139">
        <ele>61</ele>
        <time>2022-10-22T12:42:56Z</time>
      </trkpt>
      <trkpt lat="47.00382" lon="-1.85147">
        <ele>61</ele>
        <time>2022-10-22T12:42:58Z</time>
      </trkpt>
      <trkpt lat="47.00373" lon="-1.85154">
        <ele>61</ele>
        <time>2022-10-22T12:43:00Z</time>
      </trkpt>
      <trkpt lat="47.00365" lon="-1.85161">
        <ele>61</ele>
        <time>2022-10-22T12:43:02Z</time>
      </trkpt>
      <trkpt lat="47.00357" lon="-1.85168">
        <ele>61</ele>
        <time>2022-10-22T12:43:04Z</time>
      </trkpt>
      <trkpt lat="47.00348" lon="-1.85175">
        <ele>61</ele>
        <time>2022-10-22T12:43:06Z</time>
      </trkpt>
      <trkpt lat="47.0034" lon="-1.85182">
        <ele>61</ele>
        <time>2022-10-22T12:43:08Z</time>
      </trkpt>
      <trkpt lat="47.00331" lon="-1.8519">
        <ele>61</ele>
        <time>2022-10-22T12:43:10Z</time>
      </trkpt>
      <trkpt lat="47.00322" lon="-1.85197">
        <ele>61</ele>
        <time>2022-10-22T12:43:12Z</time>
      </trkpt>
      <trkpt lat="47.00314" lon="-1.85204">
        <ele>61</ele>
        <time>2022-10-22T12:43:14Z</time>
      </trkpt>
      <trkpt lat="47.00305" lon="-1.85211">
        <ele>61</ele>
        <time>2022-10-22T12:43:16Z</time>
      </trkpt>
      <trkpt lat="47.00297" lon="-1.85218">
        <ele>61</ele>
        <time>2022-10-22T12:43:18Z</time>
      </trkpt>
      <trkpt lat="47.00289" lon="-1.85225">
        <ele>61</ele>
        <time>2022-10-22T12:43:20Z</time>
      </trkpt>
      <trkpt lat="47.0028" lon="-1.85232">
        <ele>60</ele>
        <time>2022-10-22T12:43:22Z</time>
      </trkpt>
      <trkpt lat="47.00272" lon="-1.8524">
        <ele>60</ele>
        <time>2022-10-22T12:43:24Z</time>
      </trkpt>
      <trkpt lat="47.00263" lon="-1.85247">
        <ele>60</ele>
        <time>2022-10-22T12:43:26Z</time>
      </trkpt>
      <trkpt lat="47.00254" lon="-1.85255">
        <ele>60</ele>
        <time>2022-10-22T12:43:28Z</time>
      </trkpt>
      <trkpt lat="47.00246" lon="-1.85262">
        <ele>60</ele>
        <time>2022-10-22T12:43:30Z</time>
      </trkpt>
      <trkpt lat="47.00237" lon="-1.85271">
        <ele>60</ele>
        <time>2022-10-22T12:43:32Z</time>
      </trkpt>
      <trkpt lat="47.00228" lon="-1.85279">
        <ele>60</ele>
        <time>2022-10-22T12:43:34Z</time>
      </trkpt>
      <trkpt lat="47.00221" lon="-1.85289">
        <ele>60</ele>
        <time>2022-10-22T12:43:36Z</time>
      </trkpt>
      <trkpt lat="47.00214" lon="-1.853">
        <ele>60</ele>
        <time>2022-10-22T12:43:38Z</time>
      </trkpt>
      <trkpt lat="47.00207" lon="-1.85312">
        <ele>60</ele>
        <time>2022-10-22T12:43:40Z</time>
      </trkpt>
      <trkpt lat="47.002" lon="-1.85325">
        <ele>60</ele>
        <time>2022-10-22T12:43:42Z</time>
      </trkpt>
      <trkpt lat="47.00194" lon="-1.85338">
        <ele>60</ele>
        <time>2022-10-22T12:43:44Z</time>
      </trkpt>
      <trkpt lat="47.00188" lon="-1.85351">
        <ele>60</ele>
        <time>2022-10-22T12:43:46Z</time>
      </trkpt>
      <trkpt lat="47.00182" lon="-1.85364">
        <ele>60</ele>
        <time>2022-10-22T12:43:48Z</time>
      </trkpt>
      <trkpt lat="47.00175" lon="-1.85378">
        <ele>60</ele>
        <time>2022-10-22T12:43:50Z</time>
      </trkpt>
      <trkpt lat="47.00169" lon="-1.85391">
        <ele>60</ele>
        <time>2022-10-22T12:43:52Z</time>
      </trkpt>
      <trkpt lat="47.00162" lon="-1.85404">
        <ele>60</ele>
        <time>2022-10-22T12:43:54Z</time>
      </trkpt>
      <trkpt lat="47.00155" lon="-1.85416">
        <ele>60</ele>
        <time>2022-10-22T12:43:56Z</time>
      </trkpt>
      <trkpt lat="47.00147" lon="-1.85427">
        <ele>60</ele>
        <time>2022-10-22T12:43:58Z</time>
      </trkpt>
      <trkpt lat="47.00138" lon="-1.85436">
        <ele>60</ele>
        <time>2022-10-22T12:44:00Z</time>
      </trkpt>
      <trkpt lat="47.00128" lon="-1.85445">
        <ele>60</ele>
        <time>2022-10-22T12:44:02Z</time>
      </trkpt>
      <trkpt lat="47.00117" lon="-1.8545">
        <ele>60</ele>
        <time>2022-10-22T12:44:04Z</time>
      </trkpt>
      <trkpt lat="47.00106" lon="-1.8545">
        <ele>60</ele>
        <time>2022-10-22T12:44:06Z</time>
      </trkpt>
      <trkpt lat="47.00097" lon="-1.85445">
        <ele>59</ele>
        <time>2022-10-22T12:44:08Z</time>
      </trkpt>
      <trkpt lat="47.00088" lon="-1.85436">
        <ele>60</ele>
        <time>2022-10-22T12:44:10Z</time>
      </trkpt>
      <trkpt lat="47.0008" lon="-1.85426">
        <ele>59</ele>
        <time>2022-10-22T12:44:12Z</time>
      </trkpt>
      <trkpt lat="47.00073" lon="-1.85416">
        <ele>59</ele>
        <time>2022-10-22T12:44:14Z</time>
      </trkpt>
      <trkpt lat="47.00065" lon="-1.85406">
        <ele>59</ele>
        <time>2022-10-22T12:44:16Z</time>
      </trkpt>
      <trkpt lat="47.00057" lon="-1.85395">
        <ele>60</ele>
        <time>2022-10-22T12:44:18Z</time>
      </trkpt>
      <trkpt lat="47.00049" lon="-1.85385">
        <ele>60</ele>
        <time>2022-10-22T12:44:20Z</time>
      </trkpt>
      <trkpt lat="47.0004" lon="-1.85377">
        <ele>59</ele>
        <time>2022-10-22T12:44:22Z</time>
      </trkpt>
      <trkpt lat="47.00029" lon="-1.8537">
        <ele>59</ele>
        <time>2022-10-22T12:44:24Z</time>
      </trkpt>
      <trkpt lat="47.00018" lon="-1.85367">
        <ele>59</ele>
        <time>2022-10-22T12:44:26Z</time>
      </trkpt>
      <trkpt lat="47.00007" lon="-1.85366">
        <ele>59</ele>
        <time>2022-10-22T12:44:28Z</time>
      </trkpt>
      <trkpt lat="46.99996" lon="-1.85365">
        <ele>59</ele>
        <time>2022-10-22T12:44:30Z</time>
      </trkpt>
      <trkpt lat="46.99985" lon="-1.85359">
        <ele>59</ele>
        <time>2022-10-22T12:44:32Z</time>
      </trkpt>
      <trkpt lat="46.99977" lon="-1.85347">
        <ele>59</ele>
        <time>2022-10-22T12:44:34Z</time>
      </trkpt>
      <trkpt lat="46.99971" lon="-1.85334">
        <ele>59</ele>
        <time>2022-10-22T12:44:36Z</time>
      </trkpt>
      <trkpt lat="46.99965" lon="-1.8532">
        <ele>60</ele>
        <time>2022-10-22T12:44:38Z</time>
      </trkpt>
      <trkpt lat="46.99958" lon="-1.85307">
        <ele>60</ele>
        <time>2022-10-22T12:44:40Z</time>
      </trkpt>
      <trkpt lat="46.99951" lon="-1.85295">
        <ele>60</ele>
        <time>2022-10-22T12:44:42Z</time>
      </trkpt>
      <trkpt lat="46.99945" lon="-1.85283">
        <ele>60</ele>
        <time>2022-10-22T12:44:44Z</time>
      </trkpt>
      <trkpt lat="46.99939" lon="-1.85271">
        <ele>60</ele>
        <time>2022-10-22T12:44:46Z</time>
      </trkpt>
      <trkpt lat="46.99933" lon="-1.85259">
        <ele>61</ele>
        <time>2022-10-22T12:44:48Z</time>
      </trkpt>
      <trkpt lat="46.99926" lon="-1.85246">
        <ele>61</ele>
        <time>2022-10-22T12:44:50Z</time>
      </trkpt>
      <trkpt lat="46.99921" lon="-1.85231">
        <ele>61</ele>
        <time>2022-10-22T12:44:52Z</time>
      </trkpt>
      <trkpt lat="46.99918" lon="-1.85215">
        <ele>60</ele>
        <time>2022-10-22T12:44:54Z</time>
      </trkpt>
      <trkpt lat="46.99915" lon="-1.852">
        <ele>60</ele>
        <time>2022-10-22T12:44:56Z</time>
      </trkpt>
      <trkpt lat="46.99913" lon="-1.85185">
        <ele>60</ele>
        <time>2022-10-22T12:44:58Z</time>
      </trkpt>
      <trkpt lat="46.99911" lon="-1.85171">
        <ele>60</ele>
        <time>2022-10-22T12:45:00Z</time>
      </trkpt>
      <trkpt lat="46.99909" lon="-1.85156">
        <ele>60</ele>
        <time>2022-10-22T12:45:02Z</time>
      </trkpt>
      <trkpt lat="46.99907" lon="-1.85142">
        <ele>60</ele>
        <time>2022-10-22T12:45:04Z</time>
      </trkpt>
      <trkpt lat="46.99905" lon="-1.85128">
        <ele>60</ele>
        <time>2022-10-22T12:45:06Z</time>
      </trkpt>
      <trkpt lat="46.99903" lon="-1.85113">
        <ele>60</ele>
        <time>2022-10-22T12:45:08Z</time>
      </trkpt>
      <trkpt lat="46.99901" lon="-1.85098">
        <ele>60</ele>
        <time>2022-10-22T12:45:10Z</time>
      </trkpt>
      <trkpt lat="46.999" lon="-1.85083">
        <ele>59</ele>
        <time>2022-10-22T12:45:12Z</time>
      </trkpt>
      <trkpt lat="46.99899" lon="-1.85069">
        <ele>59</ele>
        <time>2022-10-22T12:45:14Z</time>
      </trkpt>
      <trkpt lat="46.99898" lon="-1.85054">
        <ele>59</ele>
        <time>2022-10-22T12:45:16Z</time>
      </trkpt>
      <trkpt lat="46.99898" lon="-1.8504">
        <ele>59</ele>
        <time>2022-10-22T12:45:18Z</time>
      </trkpt>
      <trkpt lat="46.99897" lon="-1.85026">
        <ele>59</ele>
        <time>2022-10-22T12:45:20Z</time>
      </trkpt>
      <trkpt lat="46.99897" lon="-1.85013">
        <ele>59</ele>
        <time>2022-10-22T12:45:22Z</time>
      </trkpt>
      <trkpt lat="46.99896" lon="-1.84998">
        <ele>59</ele>
        <time>2022-10-22T12:45:24Z</time>
      </trkpt>
      <trkpt lat="46.99895" lon="-1.84984">
        <ele>59</ele>
        <time>2022-10-22T12:45:26Z</time>
      </trkpt>
      <trkpt lat="46.99894" lon="-1.84969">
        <ele>60</ele>
        <time>2022-10-22T12:45:28Z</time>
      </trkpt>
      <trkpt lat="46.99893" lon="-1.84955">
        <ele>60</ele>
        <time>2022-10-22T12:45:30Z</time>
      </trkpt>
      <trkpt lat="46.99891" lon="-1.84935">
        <ele>61</ele>
        <time>2022-10-22T12:45:33Z</time>
      </trkpt>
      <trkpt lat="46.99891" lon="-1.84922">
        <ele>60</ele>
        <time>2022-10-22T12:45:35Z</time>
      </trkpt>
      <trkpt lat="46.9989" lon="-1.84908">
        <ele>61</ele>
        <time>2022-10-22T12:45:37Z</time>
      </trkpt>
      <trkpt lat="46.9989" lon="-1.84894">
        <ele>61</ele>
        <time>2022-10-22T12:45:39Z</time>
      </trkpt>
      <trkpt lat="46.99889" lon="-1.84879">
        <ele>61</ele>
        <time>2022-10-22T12:45:41Z</time>
      </trkpt>
      <trkpt lat="46.99887" lon="-1.84863">
        <ele>61</ele>
        <time>2022-10-22T12:45:43Z</time>
      </trkpt>
      <trkpt lat="46.99885" lon="-1.84849">
        <ele>61</ele>
        <time>2022-10-22T12:45:45Z</time>
      </trkpt>
      <trkpt lat="46.99882" lon="-1.84834">
        <ele>61</ele>
        <time>2022-10-22T12:45:47Z</time>
      </trkpt>
      <trkpt lat="46.99879" lon="-1.84819">
        <ele>61</ele>
        <time>2022-10-22T12:45:49Z</time>
      </trkpt>
      <trkpt lat="46.99875" lon="-1.84805">
        <ele>61</ele>
        <time>2022-10-22T12:45:51Z</time>
      </trkpt>
      <trkpt lat="46.99872" lon="-1.8479">
        <ele>61</ele>
        <time>2022-10-22T12:45:53Z</time>
      </trkpt>
      <trkpt lat="46.99867" lon="-1.84775">
        <ele>62</ele>
        <time>2022-10-22T12:45:55Z</time>
      </trkpt>
      <trkpt lat="46.99862" lon="-1.84761">
        <ele>62</ele>
        <time>2022-10-22T12:45:57Z</time>
      </trkpt>
      <trkpt lat="46.99856" lon="-1.84747">
        <ele>62</ele>
        <time>2022-10-22T12:45:59Z</time>
      </trkpt>
      <trkpt lat="46.9985" lon="-1.84732">
        <ele>62</ele>
        <time>2022-10-22T12:46:01Z</time>
      </trkpt>
      <trkpt lat="46.99844" lon="-1.84717">
        <ele>62</ele>
        <time>2022-10-22T12:46:03Z</time>
      </trkpt>
      <trkpt lat="46.99838" lon="-1.84702">
        <ele>61</ele>
        <time>2022-10-22T12:46:05Z</time>
      </trkpt>
      <trkpt lat="46.99833" lon="-1.84688">
        <ele>61</ele>
        <time>2022-10-22T12:46:07Z</time>
      </trkpt>
      <trkpt lat="46.99828" lon="-1.84673">
        <ele>60</ele>
        <time>2022-10-22T12:46:09Z</time>
      </trkpt>
      <trkpt lat="46.99823" lon="-1.84659">
        <ele>61</ele>
        <time>2022-10-22T12:46:11Z</time>
      </trkpt>
      <trkpt lat="46.99818" lon="-1.84646">
        <ele>61</ele>
        <time>2022-10-22T12:46:13Z</time>
      </trkpt>
      <trkpt lat="46.99815" lon="-1.84633">
        <ele>61</ele>
        <time>2022-10-22T12:46:15Z</time>
      </trkpt>
      <trkpt lat="46.9981" lon="-1.84619">
        <ele>61</ele>
        <time>2022-10-22T12:46:17Z</time>
      </trkpt>
      <trkpt lat="46.99807" lon="-1.84606">
        <ele>61</ele>
        <time>2022-10-22T12:46:19Z</time>
      </trkpt>
      <trkpt lat="46.99804" lon="-1.84593">
        <ele>61</ele>
        <time>2022-10-22T12:46:21Z</time>
      </trkpt>
      <trkpt lat="46.99801" lon="-1.84579">
        <ele>61</ele>
        <time>2022-10-22T12:46:23Z</time>
      </trkpt>
      <trkpt lat="46.99798" lon="-1.84566">
        <ele>61</ele>
        <time>2022-10-22T12:46:25Z</time>
      </trkpt>
      <trkpt lat="46.99795" lon="-1.84552">
        <ele>61</ele>
        <time>2022-10-22T12:46:27Z</time>
      </trkpt>
      <trkpt lat="46.99792" lon="-1.84538">
        <ele>61</ele>
        <time>2022-10-22T12:46:29Z</time>
      </trkpt>
      <trkpt lat="46.9979" lon="-1.84524">
        <ele>61</ele>
        <time>2022-10-22T12:46:31Z</time>
      </trkpt>
      <trkpt lat="46.99787" lon="-1.8451">
        <ele>61</ele>
        <time>2022-10-22T12:46:33Z</time>
      </trkpt>
      <trkpt lat="46.99784" lon="-1.84496">
        <ele>62</ele>
        <time>2022-10-22T12:46:35Z</time>
      </trkpt>
      <trkpt lat="46.99782" lon="-1.84482">
        <ele>62</ele>
        <time>2022-10-22T12:46:37Z</time>
      </trkpt>
      <trkpt lat="46.9978" lon="-1.84467">
        <ele>62</ele>
        <time>2022-10-22T12:46:39Z</time>
      </trkpt>
      <trkpt lat="46.99776" lon="-1.84452">
        <ele>62</ele>
        <time>2022-10-22T12:46:41Z</time>
      </trkpt>
      <trkpt lat="46.99774" lon="-1.84438">
        <ele>62</ele>
        <time>2022-10-22T12:46:43Z</time>
      </trkpt>
      <trkpt lat="46.99772" lon="-1.84423">
        <ele>61</ele>
        <time>2022-10-22T12:46:45Z</time>
      </trkpt>
      <trkpt lat="46.99769" lon="-1.84409">
        <ele>61</ele>
        <time>2022-10-22T12:46:47Z</time>
      </trkpt>
      <trkpt lat="46.99766" lon="-1.84395">
        <ele>61</ele>
        <time>2022-10-22T12:46:49Z</time>
      </trkpt>
      <trkpt lat="46.99764" lon="-1.84381">
        <ele>61</ele>
        <time>2022-10-22T12:46:51Z</time>
      </trkpt>
      <trkpt lat="46.99762" lon="-1.84367">
        <ele>60</ele>
        <time>2022-10-22T12:46:53Z</time>
      </trkpt>
      <trkpt lat="46.99759" lon="-1.84352">
        <ele>60</ele>
        <time>2022-10-22T12:46:55Z</time>
      </trkpt>
      <trkpt lat="46.99757" lon="-1.84337">
        <ele>60</ele>
        <time>2022-10-22T12:46:57Z</time>
      </trkpt>
      <trkpt lat="46.99755" lon="-1.84323">
        <ele>61</ele>
        <time>2022-10-22T12:46:59Z</time>
      </trkpt>
      <trkpt lat="46.99752" lon="-1.84307">
        <ele>61</ele>
        <time>2022-10-22T12:47:01Z</time>
      </trkpt>
      <trkpt lat="46.99751" lon="-1.84291">
        <ele>61</ele>
        <time>2022-10-22T12:47:03Z</time>
      </trkpt>
      <trkpt lat="46.99749" lon="-1.84277">
        <ele>61</ele>
        <time>2022-10-22T12:47:05Z</time>
      </trkpt>
      <trkpt lat="46.99748" lon="-1.84262">
        <ele>61</ele>
        <time>2022-10-22T12:47:07Z</time>
      </trkpt>
      <trkpt lat="46.99747" lon="-1.84247">
        <ele>61</ele>
        <time>2022-10-22T12:47:09Z</time>
      </trkpt>
      <trkpt lat="46.99745" lon="-1.84233">
        <ele>61</ele>
        <time>2022-10-22T12:47:11Z</time>
      </trkpt>
      <trkpt lat="46.99743" lon="-1.84219">
        <ele>61</ele>
        <time>2022-10-22T12:47:13Z</time>
      </trkpt>
      <trkpt lat="46.9974" lon="-1.84205">
        <ele>61</ele>
        <time>2022-10-22T12:47:15Z</time>
      </trkpt>
      <trkpt lat="46.99735" lon="-1.84193">
        <ele>61</ele>
        <time>2022-10-22T12:47:17Z</time>
      </trkpt>
      <trkpt lat="46.99728" lon="-1.84185">
        <ele>62</ele>
        <time>2022-10-22T12:47:19Z</time>
      </trkpt>
      <trkpt lat="46.9972" lon="-1.84178">
        <ele>62</ele>
        <time>2022-10-22T12:47:21Z</time>
      </trkpt>
      <trkpt lat="46.99709" lon="-1.84173">
        <ele>62</ele>
        <time>2022-10-22T12:47:23Z</time>
      </trkpt>
      <trkpt lat="46.99699" lon="-1.84168">
        <ele>62</ele>
        <time>2022-10-22T12:47:25Z</time>
      </trkpt>
      <trkpt lat="46.99689" lon="-1.84161">
        <ele>61</ele>
        <time>2022-10-22T12:47:27Z</time>
      </trkpt>
      <trkpt lat="46.9968" lon="-1.84154">
        <ele>61</ele>
        <time>2022-10-22T12:47:29Z</time>
      </trkpt>
      <trkpt lat="46.99671" lon="-1.84146">
        <ele>61</ele>
        <time>2022-10-22T12:47:31Z</time>
      </trkpt>
      <trkpt lat="46.99662" lon="-1.84136">
        <ele>61</ele>
        <time>2022-10-22T12:47:33Z</time>
      </trkpt>
      <trkpt lat="46.99655" lon="-1.84126">
        <ele>61</ele>
        <time>2022-10-22T12:47:35Z</time>
      </trkpt>
      <trkpt lat="46.99648" lon="-1.84115">
        <ele>61</ele>
        <time>2022-10-22T12:47:37Z</time>
      </trkpt>
      <trkpt lat="46.99641" lon="-1.84104">
        <ele>61</ele>
        <time>2022-10-22T12:47:39Z</time>
      </trkpt>
      <trkpt lat="46.99635" lon="-1.84092">
        <ele>61</ele>
        <time>2022-10-22T12:47:41Z</time>
      </trkpt>
      <trkpt lat="46.9963" lon="-1.84081">
        <ele>61</ele>
        <time>2022-10-22T12:47:43Z</time>
      </trkpt>
      <trkpt lat="46.99625" lon="-1.84068">
        <ele>61</ele>
        <time>2022-10-22T12:47:45Z</time>
      </trkpt>
      <trkpt lat="46.99621" lon="-1.84055">
        <ele>61</ele>
        <time>2022-10-22T12:47:47Z</time>
      </trkpt>
      <trkpt lat="46.99617" lon="-1.84041">
        <ele>61</ele>
        <time>2022-10-22T12:47:49Z</time>
      </trkpt>
      <trkpt lat="46.99614" lon="-1.84027">
        <ele>61</ele>
        <time>2022-10-22T12:47:51Z</time>
      </trkpt>
      <trkpt lat="46.99611" lon="-1.84013">
        <ele>61</ele>
        <time>2022-10-22T12:47:53Z</time>
      </trkpt>
      <trkpt lat="46.99609" lon="-1.83998">
        <ele>61</ele>
        <time>2022-10-22T12:47:55Z</time>
      </trkpt>
      <trkpt lat="46.99606" lon="-1.83983">
        <ele>61</ele>
        <time>2022-10-22T12:47:57Z</time>
      </trkpt>
      <trkpt lat="46.99603" lon="-1.83969">
        <ele>61</ele>
        <time>2022-10-22T12:47:59Z</time>
      </trkpt>
      <trkpt lat="46.996" lon="-1.83954">
        <ele>61</ele>
        <time>2022-10-22T12:48:01Z</time>
      </trkpt>
      <trkpt lat="46.99594" lon="-1.8394">
        <ele>60</ele>
        <time>2022-10-22T12:48:03Z</time>
      </trkpt>
      <trkpt lat="46.99586" lon="-1.83929">
        <ele>61</ele>
        <time>2022-10-22T12:48:05Z</time>
      </trkpt>
      <trkpt lat="46.99578" lon="-1.83921">
        <ele>61</ele>
        <time>2022-10-22T12:48:07Z</time>
      </trkpt>
      <trkpt lat="46.99569" lon="-1.83914">
        <ele>61</ele>
        <time>2022-10-22T12:48:09Z</time>
      </trkpt>
      <trkpt lat="46.99559" lon="-1.83908">
        <ele>61</ele>
        <time>2022-10-22T12:48:11Z</time>
      </trkpt>
      <trkpt lat="46.9955" lon="-1.83903">
        <ele>61</ele>
        <time>2022-10-22T12:48:13Z</time>
      </trkpt>
      <trkpt lat="46.9954" lon="-1.83897">
        <ele>61</ele>
        <time>2022-10-22T12:48:15Z</time>
      </trkpt>
      <trkpt lat="46.9953" lon="-1.83892">
        <ele>61</ele>
        <time>2022-10-22T12:48:17Z</time>
      </trkpt>
      <trkpt lat="46.9952" lon="-1.83887">
        <ele>61</ele>
        <time>2022-10-22T12:48:19Z</time>
      </trkpt>
      <trkpt lat="46.99511" lon="-1.83881">
        <ele>61</ele>
        <time>2022-10-22T12:48:21Z</time>
      </trkpt>
      <trkpt lat="46.99502" lon="-1.83874">
        <ele>61</ele>
        <time>2022-10-22T12:48:23Z</time>
      </trkpt>
      <trkpt lat="46.99492" lon="-1.83867">
        <ele>61</ele>
        <time>2022-10-22T12:48:25Z</time>
      </trkpt>
      <trkpt lat="46.99484" lon="-1.8386">
        <ele>61</ele>
        <time>2022-10-22T12:48:27Z</time>
      </trkpt>
      <trkpt lat="46.99477" lon="-1.8385">
        <ele>62</ele>
        <time>2022-10-22T12:48:29Z</time>
      </trkpt>
      <trkpt lat="46.9947" lon="-1.83838">
        <ele>62</ele>
        <time>2022-10-22T12:48:31Z</time>
      </trkpt>
      <trkpt lat="46.99465" lon="-1.83825">
        <ele>62</ele>
        <time>2022-10-22T12:48:33Z</time>
      </trkpt>
      <trkpt lat="46.99459" lon="-1.83813">
        <ele>62</ele>
        <time>2022-10-22T12:48:35Z</time>
      </trkpt>
      <trkpt lat="46.99453" lon="-1.838">
        <ele>62</ele>
        <time>2022-10-22T12:48:37Z</time>
      </trkpt>
      <trkpt lat="46.99447" lon="-1.83786">
        <ele>62</ele>
        <time>2022-10-22T12:48:39Z</time>
      </trkpt>
      <trkpt lat="46.99439" lon="-1.83775">
        <ele>62</ele>
        <time>2022-10-22T12:48:41Z</time>
      </trkpt>
      <trkpt lat="46.99431" lon="-1.83768">
        <ele>62</ele>
        <time>2022-10-22T12:48:43Z</time>
      </trkpt>
      <trkpt lat="46.99421" lon="-1.83762">
        <ele>62</ele>
        <time>2022-10-22T12:48:45Z</time>
      </trkpt>
      <trkpt lat="46.99412" lon="-1.83756">
        <ele>62</ele>
        <time>2022-10-22T12:48:47Z</time>
      </trkpt>
      <trkpt lat="46.99403" lon="-1.83751">
        <ele>62</ele>
        <time>2022-10-22T12:48:49Z</time>
      </trkpt>
      <trkpt lat="46.99393" lon="-1.83746">
        <ele>62</ele>
        <time>2022-10-22T12:48:51Z</time>
      </trkpt>
      <trkpt lat="46.99384" lon="-1.83741">
        <ele>62</ele>
        <time>2022-10-22T12:48:53Z</time>
      </trkpt>
      <trkpt lat="46.99375" lon="-1.83735">
        <ele>62</ele>
        <time>2022-10-22T12:48:55Z</time>
      </trkpt>
      <trkpt lat="46.99366" lon="-1.8373">
        <ele>61</ele>
        <time>2022-10-22T12:48:57Z</time>
      </trkpt>
      <trkpt lat="46.99357" lon="-1.83724">
        <ele>61</ele>
        <time>2022-10-22T12:48:59Z</time>
      </trkpt>
      <trkpt lat="46.99348" lon="-1.83719">
        <ele>61</ele>
        <time>2022-10-22T12:49:01Z</time>
      </trkpt>
      <trkpt lat="46.99338" lon="-1.83714">
        <ele>61</ele>
        <time>2022-10-22T12:49:03Z</time>
      </trkpt>
      <trkpt lat="46.9933" lon="-1.83709">
        <ele>61</ele>
        <time>2022-10-22T12:49:05Z</time>
      </trkpt>
      <trkpt lat="46.99321" lon="-1.83703">
        <ele>61</ele>
        <time>2022-10-22T12:49:07Z</time>
      </trkpt>
      <trkpt lat="46.99312" lon="-1.83697">
        <ele>61</ele>
        <time>2022-10-22T12:49:09Z</time>
      </trkpt>
      <trkpt lat="46.99303" lon="-1.8369">
        <ele>61</ele>
        <time>2022-10-22T12:49:11Z</time>
      </trkpt>
      <trkpt lat="46.99295" lon="-1.83683">
        <ele>61</ele>
        <time>2022-10-22T12:49:13Z</time>
      </trkpt>
      <trkpt lat="46.99287" lon="-1.83675">
        <ele>61</ele>
        <time>2022-10-22T12:49:15Z</time>
      </trkpt>
      <trkpt lat="46.9928" lon="-1.83667">
        <ele>62</ele>
        <time>2022-10-22T12:49:17Z</time>
      </trkpt>
      <trkpt lat="46.99272" lon="-1.83659">
        <ele>62</ele>
        <time>2022-10-22T12:49:19Z</time>
      </trkpt>
      <trkpt lat="46.99262" lon="-1.83647">
        <ele>62</ele>
        <time>2022-10-22T12:49:22Z</time>
      </trkpt>
      <trkpt lat="46.99255" lon="-1.83638">
        <ele>62</ele>
        <time>2022-10-22T12:49:24Z</time>
      </trkpt>
      <trkpt lat="46.99247" lon="-1.83629">
        <ele>61</ele>
        <time>2022-10-22T12:49:26Z</time>
      </trkpt>
      <trkpt lat="46.9924" lon="-1.8362">
        <ele>61</ele>
        <time>2022-10-22T12:49:28Z</time>
      </trkpt>
      <trkpt lat="46.99232" lon="-1.8361">
        <ele>61</ele>
        <time>2022-10-22T12:49:30Z</time>
      </trkpt>
      <trkpt lat="46.99225" lon="-1.83601">
        <ele>62</ele>
        <time>2022-10-22T12:49:32Z</time>
      </trkpt>
      <trkpt lat="46.99217" lon="-1.83591">
        <ele>62</ele>
        <time>2022-10-22T12:49:34Z</time>
      </trkpt>
      <trkpt lat="46.99209" lon="-1.83582">
        <ele>61</ele>
        <time>2022-10-22T12:49:36Z</time>
      </trkpt>
      <trkpt lat="46.99201" lon="-1.83572">
        <ele>61</ele>
        <time>2022-10-22T12:49:38Z</time>
      </trkpt>
      <trkpt lat="46.99193" lon="-1.83562">
        <ele>61</ele>
        <time>2022-10-22T12:49:40Z</time>
      </trkpt>
      <trkpt lat="46.99186" lon="-1.83553">
        <ele>60</ele>
        <time>2022-10-22T12:49:42Z</time>
      </trkpt>
      <trkpt lat="46.99178" lon="-1.83544">
        <ele>60</ele>
        <time>2022-10-22T12:49:44Z</time>
      </trkpt>
      <trkpt lat="46.9917" lon="-1.83535">
        <ele>60</ele>
        <time>2022-10-22T12:49:46Z</time>
      </trkpt>
      <trkpt lat="46.99164" lon="-1.83526">
        <ele>59</ele>
        <time>2022-10-22T12:49:48Z</time>
      </trkpt>
      <trkpt lat="46.99152" lon="-1.83518">
        <ele>59</ele>
        <time>2022-10-22T12:49:51Z</time>
      </trkpt>
      <trkpt lat="46.99143" lon="-1.83505">
        <ele>59</ele>
        <time>2022-10-22T12:49:54Z</time>
      </trkpt>
      <trkpt lat="46.99146" lon="-1.83491">
        <ele>59</ele>
        <time>2022-10-22T12:49:56Z</time>
      </trkpt>
      <trkpt lat="46.99152" lon="-1.8348">
        <ele>59</ele>
        <time>2022-10-22T12:49:58Z</time>
      </trkpt>
      <trkpt lat="46.99156" lon="-1.83465">
        <ele>60</ele>
        <time>2022-10-22T12:50:00Z</time>
      </trkpt>
      <trkpt lat="46.9916" lon="-1.8345">
        <ele>60</ele>
        <time>2022-10-22T12:50:02Z</time>
      </trkpt>
      <trkpt lat="46.99163" lon="-1.83435">
        <ele>60</ele>
        <time>2022-10-22T12:50:04Z</time>
      </trkpt>
      <trkpt lat="46.99166" lon="-1.8342">
        <ele>60</ele>
        <time>2022-10-22T12:50:06Z</time>
      </trkpt>
      <trkpt lat="46.9917" lon="-1.83405">
        <ele>60</ele>
        <time>2022-10-22T12:50:08Z</time>
      </trkpt>
      <trkpt lat="46.99173" lon="-1.83388">
        <ele>61</ele>
        <time>2022-10-22T12:50:10Z</time>
      </trkpt>
      <trkpt lat="46.99176" lon="-1.83373">
        <ele>61</ele>
        <time>2022-10-22T12:50:12Z</time>
      </trkpt>
      <trkpt lat="46.9918" lon="-1.83357">
        <ele>61</ele>
        <time>2022-10-22T12:50:14Z</time>
      </trkpt>
      <trkpt lat="46.99183" lon="-1.83341">
        <ele>61</ele>
        <time>2022-10-22T12:50:16Z</time>
      </trkpt>
      <trkpt lat="46.99186" lon="-1.83326">
        <ele>61</ele>
        <time>2022-10-22T12:50:18Z</time>
      </trkpt>
      <trkpt lat="46.99189" lon="-1.83311">
        <ele>61</ele>
        <time>2022-10-22T12:50:20Z</time>
      </trkpt>
      <trkpt lat="46.99193" lon="-1.83295">
        <ele>61</ele>
        <time>2022-10-22T12:50:22Z</time>
      </trkpt>
      <trkpt lat="46.99196" lon="-1.83279">
        <ele>61</ele>
        <time>2022-10-22T12:50:24Z</time>
      </trkpt>
      <trkpt lat="46.992" lon="-1.83264">
        <ele>61</ele>
        <time>2022-10-22T12:50:26Z</time>
      </trkpt>
      <trkpt lat="46.99203" lon="-1.83249">
        <ele>61</ele>
        <time>2022-10-22T12:50:28Z</time>
      </trkpt>
      <trkpt lat="46.99207" lon="-1.83234">
        <ele>61</ele>
        <time>2022-10-22T12:50:30Z</time>
      </trkpt>
      <trkpt lat="46.99211" lon="-1.83219">
        <ele>62</ele>
        <time>2022-10-22T12:50:32Z</time>
      </trkpt>
      <trkpt lat="46.99213" lon="-1.83203">
        <ele>62</ele>
        <time>2022-10-22T12:50:34Z</time>
      </trkpt>
      <trkpt lat="46.99217" lon="-1.83189">
        <ele>61</ele>
        <time>2022-10-22T12:50:36Z</time>
      </trkpt>
      <trkpt lat="46.9922" lon="-1.83174">
        <ele>62</ele>
        <time>2022-10-22T12:50:38Z</time>
      </trkpt>
      <trkpt lat="46.99224" lon="-1.83159">
        <ele>62</ele>
        <time>2022-10-22T12:50:40Z</time>
      </trkpt>
      <trkpt lat="46.99227" lon="-1.83144">
        <ele>61</ele>
        <time>2022-10-22T12:50:42Z</time>
      </trkpt>
      <trkpt lat="46.9923" lon="-1.83129">
        <ele>61</ele>
        <time>2022-10-22T12:50:44Z</time>
      </trkpt>
      <trkpt lat="46.99233" lon="-1.83114">
        <ele>61</ele>
        <time>2022-10-22T12:50:46Z</time>
      </trkpt>
      <trkpt lat="46.99236" lon="-1.83099">
        <ele>61</ele>
        <time>2022-10-22T12:50:48Z</time>
      </trkpt>
      <trkpt lat="46.99239" lon="-1.83084">
        <ele>61</ele>
        <time>2022-10-22T12:50:50Z</time>
      </trkpt>
      <trkpt lat="46.99243" lon="-1.83069">
        <ele>61</ele>
        <time>2022-10-22T12:50:52Z</time>
      </trkpt>
      <trkpt lat="46.99246" lon="-1.83054">
        <ele>61</ele>
        <time>2022-10-22T12:50:54Z</time>
      </trkpt>
      <trkpt lat="46.9925" lon="-1.83039">
        <ele>61</ele>
        <time>2022-10-22T12:50:56Z</time>
      </trkpt>
      <trkpt lat="46.99253" lon="-1.83024">
        <ele>61</ele>
        <time>2022-10-22T12:50:58Z</time>
      </trkpt>
      <trkpt lat="46.99257" lon="-1.83009">
        <ele>61</ele>
        <time>2022-10-22T12:51:00Z</time>
      </trkpt>
      <trkpt lat="46.9926" lon="-1.82994">
        <ele>62</ele>
        <time>2022-10-22T12:51:02Z</time>
      </trkpt>
      <trkpt lat="46.99264" lon="-1.82979">
        <ele>62</ele>
        <time>2022-10-22T12:51:04Z</time>
      </trkpt>
      <trkpt lat="46.99268" lon="-1.82963">
        <ele>62</ele>
        <time>2022-10-22T12:51:06Z</time>
      </trkpt>
      <trkpt lat="46.99271" lon="-1.82948">
        <ele>62</ele>
        <time>2022-10-22T12:51:08Z</time>
      </trkpt>
      <trkpt lat="46.99274" lon="-1.82933">
        <ele>63</ele>
        <time>2022-10-22T12:51:10Z</time>
      </trkpt>
      <trkpt lat="46.99278" lon="-1.82917">
        <ele>63</ele>
        <time>2022-10-22T12:51:12Z</time>
      </trkpt>
      <trkpt lat="46.99281" lon="-1.82902">
        <ele>63</ele>
        <time>2022-10-22T12:51:14Z</time>
      </trkpt>
      <trkpt lat="46.99285" lon="-1.82887">
        <ele>63</ele>
        <time>2022-10-22T12:51:16Z</time>
      </trkpt>
      <trkpt lat="46.99288" lon="-1.82871">
        <ele>63</ele>
        <time>2022-10-22T12:51:18Z</time>
      </trkpt>
      <trkpt lat="46.99292" lon="-1.82856">
        <ele>63</ele>
        <time>2022-10-22T12:51:20Z</time>
      </trkpt>
      <trkpt lat="46.99295" lon="-1.8284">
        <ele>63</ele>
        <time>2022-10-22T12:51:22Z</time>
      </trkpt>
      <trkpt lat="46.99298" lon="-1.82823">
        <ele>63</ele>
        <time>2022-10-22T12:51:24Z</time>
      </trkpt>
      <trkpt lat="46.99301" lon="-1.82807">
        <ele>62</ele>
        <time>2022-10-22T12:51:26Z</time>
      </trkpt>
      <trkpt lat="46.99305" lon="-1.82791">
        <ele>62</ele>
        <time>2022-10-22T12:51:28Z</time>
      </trkpt>
      <trkpt lat="46.99308" lon="-1.82775">
        <ele>62</ele>
        <time>2022-10-22T12:51:30Z</time>
      </trkpt>
      <trkpt lat="46.99312" lon="-1.8276">
        <ele>62</ele>
        <time>2022-10-22T12:51:32Z</time>
      </trkpt>
      <trkpt lat="46.99316" lon="-1.82743">
        <ele>62</ele>
        <time>2022-10-22T12:51:34Z</time>
      </trkpt>
      <trkpt lat="46.9932" lon="-1.82727">
        <ele>62</ele>
        <time>2022-10-22T12:51:36Z</time>
      </trkpt>
      <trkpt lat="46.99323" lon="-1.82711">
        <ele>62</ele>
        <time>2022-10-22T12:51:38Z</time>
      </trkpt>
      <trkpt lat="46.99327" lon="-1.82695">
        <ele>61</ele>
        <time>2022-10-22T12:51:40Z</time>
      </trkpt>
      <trkpt lat="46.99331" lon="-1.82679">
        <ele>61</ele>
        <time>2022-10-22T12:51:42Z</time>
      </trkpt>
      <trkpt lat="46.99334" lon="-1.82665">
        <ele>62</ele>
        <time>2022-10-22T12:51:44Z</time>
      </trkpt>
      <trkpt lat="46.99337" lon="-1.8265">
        <ele>62</ele>
        <time>2022-10-22T12:51:46Z</time>
      </trkpt>
      <trkpt lat="46.99341" lon="-1.82635">
        <ele>62</ele>
        <time>2022-10-22T12:51:48Z</time>
      </trkpt>
      <trkpt lat="46.99346" lon="-1.82621">
        <ele>62</ele>
        <time>2022-10-22T12:51:50Z</time>
      </trkpt>
      <trkpt lat="46.99352" lon="-1.82609">
        <ele>62</ele>
        <time>2022-10-22T12:51:52Z</time>
      </trkpt>
      <trkpt lat="46.99357" lon="-1.82597">
        <ele>62</ele>
        <time>2022-10-22T12:51:54Z</time>
      </trkpt>
      <trkpt lat="46.9936" lon="-1.82584">
        <ele>61</ele>
        <time>2022-10-22T12:51:56Z</time>
      </trkpt>
      <trkpt lat="46.99363" lon="-1.8257">
        <ele>61</ele>
        <time>2022-10-22T12:51:58Z</time>
      </trkpt>
      <trkpt lat="46.99363" lon="-1.82555">
        <ele>62</ele>
        <time>2022-10-22T12:52:00Z</time>
      </trkpt>
      <trkpt lat="46.99361" lon="-1.82541">
        <ele>62</ele>
        <time>2022-10-22T12:52:02Z</time>
      </trkpt>
      <trkpt lat="46.99357" lon="-1.82527">
        <ele>62</ele>
        <time>2022-10-22T12:52:04Z</time>
      </trkpt>
      <trkpt lat="46.99354" lon="-1.82513">
        <ele>62</ele>
        <time>2022-10-22T12:52:06Z</time>
      </trkpt>
      <trkpt lat="46.99349" lon="-1.82495">
        <ele>62</ele>
        <time>2022-10-22T12:52:09Z</time>
      </trkpt>
      <trkpt lat="46.99345" lon="-1.82483">
        <ele>62</ele>
        <time>2022-10-22T12:52:11Z</time>
      </trkpt>
      <trkpt lat="46.99342" lon="-1.82469">
        <ele>62</ele>
        <time>2022-10-22T12:52:13Z</time>
      </trkpt>
      <trkpt lat="46.99339" lon="-1.82454">
        <ele>63</ele>
        <time>2022-10-22T12:52:15Z</time>
      </trkpt>
      <trkpt lat="46.99336" lon="-1.82439">
        <ele>63</ele>
        <time>2022-10-22T12:52:17Z</time>
      </trkpt>
      <trkpt lat="46.99333" lon="-1.82425">
        <ele>63</ele>
        <time>2022-10-22T12:52:19Z</time>
      </trkpt>
      <trkpt lat="46.99329" lon="-1.8241">
        <ele>63</ele>
        <time>2022-10-22T12:52:21Z</time>
      </trkpt>
      <trkpt lat="46.99327" lon="-1.82395">
        <ele>63</ele>
        <time>2022-10-22T12:52:23Z</time>
      </trkpt>
      <trkpt lat="46.99325" lon="-1.8238">
        <ele>63</ele>
        <time>2022-10-22T12:52:25Z</time>
      </trkpt>
      <trkpt lat="46.99323" lon="-1.82364">
        <ele>63</ele>
        <time>2022-10-22T12:52:27Z</time>
      </trkpt>
      <trkpt lat="46.99321" lon="-1.82348">
        <ele>62</ele>
        <time>2022-10-22T12:52:29Z</time>
      </trkpt>
      <trkpt lat="46.99319" lon="-1.82333">
        <ele>62</ele>
        <time>2022-10-22T12:52:31Z</time>
      </trkpt>
      <trkpt lat="46.99316" lon="-1.82317">
        <ele>62</ele>
        <time>2022-10-22T12:52:33Z</time>
      </trkpt>
      <trkpt lat="46.99313" lon="-1.82301">
        <ele>62</ele>
        <time>2022-10-22T12:52:35Z</time>
      </trkpt>
      <trkpt lat="46.9931" lon="-1.82287">
        <ele>63</ele>
        <time>2022-10-22T12:52:37Z</time>
      </trkpt>
      <trkpt lat="46.99307" lon="-1.82272">
        <ele>63</ele>
        <time>2022-10-22T12:52:39Z</time>
      </trkpt>
      <trkpt lat="46.99302" lon="-1.82258">
        <ele>63</ele>
        <time>2022-10-22T12:52:41Z</time>
      </trkpt>
      <trkpt lat="46.99298" lon="-1.82242">
        <ele>62</ele>
        <time>2022-10-22T12:52:43Z</time>
      </trkpt>
      <trkpt lat="46.99293" lon="-1.82228">
        <ele>62</ele>
        <time>2022-10-22T12:52:45Z</time>
      </trkpt>
      <trkpt lat="46.99288" lon="-1.82216">
        <ele>62</ele>
        <time>2022-10-22T12:52:47Z</time>
      </trkpt>
      <trkpt lat="46.99278" lon="-1.82216">
        <ele>61</ele>
        <time>2022-10-22T12:52:49Z</time>
      </trkpt>
      <trkpt lat="46.99267" lon="-1.82216">
        <ele>61</ele>
        <time>2022-10-22T12:52:51Z</time>
      </trkpt>
      <trkpt lat="46.99256" lon="-1.82217">
        <ele>61</ele>
        <time>2022-10-22T12:52:53Z</time>
      </trkpt>
      <trkpt lat="46.99245" lon="-1.82217">
        <ele>60</ele>
        <time>2022-10-22T12:52:55Z</time>
      </trkpt>
      <trkpt lat="46.99235" lon="-1.82216">
        <ele>60</ele>
        <time>2022-10-22T12:52:57Z</time>
      </trkpt>
      <trkpt lat="46.99225" lon="-1.82215">
        <ele>60</ele>
        <time>2022-10-22T12:52:59Z</time>
      </trkpt>
      <trkpt lat="46.99215" lon="-1.82212">
        <ele>59</ele>
        <time>2022-10-22T12:53:01Z</time>
      </trkpt>
      <trkpt lat="46.99205" lon="-1.82207">
        <ele>59</ele>
        <time>2022-10-22T12:53:03Z</time>
      </trkpt>
      <trkpt lat="46.99196" lon="-1.82203">
        <ele>59</ele>
        <time>2022-10-22T12:53:05Z</time>
      </trkpt>
      <trkpt lat="46.99185" lon="-1.82199">
        <ele>59</ele>
        <time>2022-10-22T12:53:07Z</time>
      </trkpt>
      <trkpt lat="46.99176" lon="-1.82194">
        <ele>59</ele>
        <time>2022-10-22T12:53:09Z</time>
      </trkpt>
      <trkpt lat="46.99166" lon="-1.82188">
        <ele>59</ele>
        <time>2022-10-22T12:53:11Z</time>
      </trkpt>
      <trkpt lat="46.99156" lon="-1.82183">
        <ele>59</ele>
        <time>2022-10-22T12:53:13Z</time>
      </trkpt>
      <trkpt lat="46.99144" lon="-1.82179">
        <ele>59</ele>
        <time>2022-10-22T12:53:15Z</time>
      </trkpt>
      <trkpt lat="46.99133" lon="-1.82177">
        <ele>59</ele>
        <time>2022-10-22T12:53:17Z</time>
      </trkpt>
      <trkpt lat="46.99123" lon="-1.82176">
        <ele>60</ele>
        <time>2022-10-22T12:53:19Z</time>
      </trkpt>
      <trkpt lat="46.99114" lon="-1.8218">
        <ele>61</ele>
        <time>2022-10-22T12:53:21Z</time>
      </trkpt>
      <trkpt lat="46.99104" lon="-1.82183">
        <ele>60</ele>
        <time>2022-10-22T12:53:23Z</time>
      </trkpt>
      <trkpt lat="46.99095" lon="-1.82184">
        <ele>60</ele>
        <time>2022-10-22T12:53:25Z</time>
      </trkpt>
      <trkpt lat="46.99088" lon="-1.82175">
        <ele>59</ele>
        <time>2022-10-22T12:53:27Z</time>
      </trkpt>
      <trkpt lat="46.99088" lon="-1.82156">
        <ele>59</ele>
        <time>2022-10-22T12:53:30Z</time>
      </trkpt>
      <trkpt lat="46.99086" lon="-1.82143">
        <ele>59</ele>
        <time>2022-10-22T12:53:32Z</time>
      </trkpt>
      <trkpt lat="46.99084" lon="-1.82129">
        <ele>60</ele>
        <time>2022-10-22T12:53:34Z</time>
      </trkpt>
      <trkpt lat="46.99083" lon="-1.82114">
        <ele>60</ele>
        <time>2022-10-22T12:53:36Z</time>
      </trkpt>
      <trkpt lat="46.99081" lon="-1.82098">
        <ele>60</ele>
        <time>2022-10-22T12:53:38Z</time>
      </trkpt>
      <trkpt lat="46.9908" lon="-1.82082">
        <ele>59</ele>
        <time>2022-10-22T12:53:40Z</time>
      </trkpt>
      <trkpt lat="46.9908" lon="-1.82067">
        <ele>59</ele>
        <time>2022-10-22T12:53:42Z</time>
      </trkpt>
      <trkpt lat="46.99081" lon="-1.82051">
        <ele>60</ele>
        <time>2022-10-22T12:53:44Z</time>
      </trkpt>
      <trkpt lat="46.99081" lon="-1.82035">
        <ele>59</ele>
        <time>2022-10-22T12:53:46Z</time>
      </trkpt>
      <trkpt lat="46.99082" lon="-1.82019">
        <ele>59</ele>
        <time>2022-10-22T12:53:48Z</time>
      </trkpt>
      <trkpt lat="46.99083" lon="-1.81995">
        <ele>59</ele>
        <time>2022-10-22T12:53:51Z</time>
      </trkpt>
      <trkpt lat="46.99084" lon="-1.81979">
        <ele>59</ele>
        <time>2022-10-22T12:53:53Z</time>
      </trkpt>
      <trkpt lat="46.99085" lon="-1.81963">
        <ele>59</ele>
        <time>2022-10-22T12:53:55Z</time>
      </trkpt>
      <trkpt lat="46.99087" lon="-1.81947">
        <ele>59</ele>
        <time>2022-10-22T12:53:57Z</time>
      </trkpt>
      <trkpt lat="46.99089" lon="-1.81924">
        <ele>59</ele>
        <time>2022-10-22T12:54:00Z</time>
      </trkpt>
      <trkpt lat="46.99091" lon="-1.81909">
        <ele>59</ele>
        <time>2022-10-22T12:54:02Z</time>
      </trkpt>
      <trkpt lat="46.99092" lon="-1.81894">
        <ele>59</ele>
        <time>2022-10-22T12:54:04Z</time>
      </trkpt>
      <trkpt lat="46.99095" lon="-1.81879">
        <ele>59</ele>
        <time>2022-10-22T12:54:06Z</time>
      </trkpt>
      <trkpt lat="46.99098" lon="-1.81864">
        <ele>59</ele>
        <time>2022-10-22T12:54:08Z</time>
      </trkpt>
      <trkpt lat="46.99102" lon="-1.81849">
        <ele>59</ele>
        <time>2022-10-22T12:54:10Z</time>
      </trkpt>
      <trkpt lat="46.99105" lon="-1.81835">
        <ele>59</ele>
        <time>2022-10-22T12:54:12Z</time>
      </trkpt>
      <trkpt lat="46.9911" lon="-1.81821">
        <ele>59</ele>
        <time>2022-10-22T12:54:14Z</time>
      </trkpt>
      <trkpt lat="46.99117" lon="-1.81808">
        <ele>59</ele>
        <time>2022-10-22T12:54:16Z</time>
      </trkpt>
      <trkpt lat="46.99125" lon="-1.81798">
        <ele>59</ele>
        <time>2022-10-22T12:54:18Z</time>
      </trkpt>
      <trkpt lat="46.99133" lon="-1.81787">
        <ele>59</ele>
        <time>2022-10-22T12:54:20Z</time>
      </trkpt>
      <trkpt lat="46.99142" lon="-1.81778">
        <ele>59</ele>
        <time>2022-10-22T12:54:22Z</time>
      </trkpt>
      <trkpt lat="46.9915" lon="-1.81767">
        <ele>58</ele>
        <time>2022-10-22T12:54:24Z</time>
      </trkpt>
      <trkpt lat="46.99157" lon="-1.81757">
        <ele>58</ele>
        <time>2022-10-22T12:54:26Z</time>
      </trkpt>
      <trkpt lat="46.99165" lon="-1.81747">
        <ele>58</ele>
        <time>2022-10-22T12:54:28Z</time>
      </trkpt>
      <trkpt lat="46.99173" lon="-1.81738">
        <ele>58</ele>
        <time>2022-10-22T12:54:30Z</time>
      </trkpt>
      <trkpt lat="46.99181" lon="-1.81728">
        <ele>58</ele>
        <time>2022-10-22T12:54:32Z</time>
      </trkpt>
      <trkpt lat="46.99187" lon="-1.81718">
        <ele>59</ele>
        <time>2022-10-22T12:54:34Z</time>
      </trkpt>
      <trkpt lat="46.99185" lon="-1.81703">
        <ele>59</ele>
        <time>2022-10-22T12:54:37Z</time>
      </trkpt>
      <trkpt lat="46.99178" lon="-1.81694">
        <ele>60</ele>
        <time>2022-10-22T12:54:39Z</time>
      </trkpt>
      <trkpt lat="46.9917" lon="-1.81685">
        <ele>61</ele>
        <time>2022-10-22T12:54:41Z</time>
      </trkpt>
      <trkpt lat="46.99162" lon="-1.81677">
        <ele>62</ele>
        <time>2022-10-22T12:54:43Z</time>
      </trkpt>
      <trkpt lat="46.99154" lon="-1.81668">
        <ele>62</ele>
        <time>2022-10-22T12:54:45Z</time>
      </trkpt>
      <trkpt lat="46.99146" lon="-1.81658">
        <ele>62</ele>
        <time>2022-10-22T12:54:47Z</time>
      </trkpt>
      <trkpt lat="46.99137" lon="-1.8165">
        <ele>62</ele>
        <time>2022-10-22T12:54:49Z</time>
      </trkpt>
      <trkpt lat="46.99128" lon="-1.81642">
        <ele>62</ele>
        <time>2022-10-22T12:54:51Z</time>
      </trkpt>
      <trkpt lat="46.9912" lon="-1.81633">
        <ele>61</ele>
        <time>2022-10-22T12:54:53Z</time>
      </trkpt>
      <trkpt lat="46.99112" lon="-1.81625">
        <ele>61</ele>
        <time>2022-10-22T12:54:55Z</time>
      </trkpt>
      <trkpt lat="46.99104" lon="-1.81616">
        <ele>60</ele>
        <time>2022-10-22T12:54:57Z</time>
      </trkpt>
      <trkpt lat="46.991" lon="-1.81597">
        <ele>60</ele>
        <time>2022-10-22T12:55:00Z</time>
      </trkpt>
      <trkpt lat="46.99109" lon="-1.81588">
        <ele>60</ele>
        <time>2022-10-22T12:55:02Z</time>
      </trkpt>
      <trkpt lat="46.99119" lon="-1.81586">
        <ele>59</ele>
        <time>2022-10-22T12:55:04Z</time>
      </trkpt>
      <trkpt lat="46.9913" lon="-1.81588">
        <ele>59</ele>
        <time>2022-10-22T12:55:06Z</time>
      </trkpt>
      <trkpt lat="46.99141" lon="-1.81589">
        <ele>59</ele>
        <time>2022-10-22T12:55:08Z</time>
      </trkpt>
      <trkpt lat="46.99151" lon="-1.8159">
        <ele>59</ele>
        <time>2022-10-22T12:55:10Z</time>
      </trkpt>
      <trkpt lat="46.99161" lon="-1.81592">
        <ele>59</ele>
        <time>2022-10-22T12:55:12Z</time>
      </trkpt>
      <trkpt lat="46.99171" lon="-1.81594">
        <ele>60</ele>
        <time>2022-10-22T12:55:14Z</time>
      </trkpt>
      <trkpt lat="46.99182" lon="-1.81597">
        <ele>59</ele>
        <time>2022-10-22T12:55:16Z</time>
      </trkpt>
      <trkpt lat="46.99193" lon="-1.81599">
        <ele>59</ele>
        <time>2022-10-22T12:55:18Z</time>
      </trkpt>
      <trkpt lat="46.99204" lon="-1.816">
        <ele>59</ele>
        <time>2022-10-22T12:55:20Z</time>
      </trkpt>
      <trkpt lat="46.99216" lon="-1.81601">
        <ele>60</ele>
        <time>2022-10-22T12:55:22Z</time>
      </trkpt>
      <trkpt lat="46.99227" lon="-1.81603">
        <ele>60</ele>
        <time>2022-10-22T12:55:24Z</time>
      </trkpt>
      <trkpt lat="46.99237" lon="-1.81604">
        <ele>60</ele>
        <time>2022-10-22T12:55:26Z</time>
      </trkpt>
      <trkpt lat="46.99247" lon="-1.81599">
        <ele>60</ele>
        <time>2022-10-22T12:55:28Z</time>
      </trkpt>
      <trkpt lat="46.99252" lon="-1.81586">
        <ele>60</ele>
        <time>2022-10-22T12:55:30Z</time>
      </trkpt>
      <trkpt lat="46.99251" lon="-1.81571">
        <ele>61</ele>
        <time>2022-10-22T12:55:32Z</time>
      </trkpt>
      <trkpt lat="46.9925" lon="-1.81556">
        <ele>63</ele>
        <time>2022-10-22T12:55:34Z</time>
      </trkpt>
      <trkpt lat="46.99248" lon="-1.81539">
        <ele>63</ele>
        <time>2022-10-22T12:55:36Z</time>
      </trkpt>
      <trkpt lat="46.99246" lon="-1.81522">
        <ele>62</ele>
        <time>2022-10-22T12:55:38Z</time>
      </trkpt>
      <trkpt lat="46.99245" lon="-1.81507">
        <ele>62</ele>
        <time>2022-10-22T12:55:40Z</time>
      </trkpt>
      <trkpt lat="46.99243" lon="-1.81493">
        <ele>62</ele>
        <time>2022-10-22T12:55:42Z</time>
      </trkpt>
      <trkpt lat="46.9924" lon="-1.81476">
        <ele>62</ele>
        <time>2022-10-22T12:55:44Z</time>
      </trkpt>
      <trkpt lat="46.99238" lon="-1.81459">
        <ele>62</ele>
        <time>2022-10-22T12:55:46Z</time>
      </trkpt>
      <trkpt lat="46.99235" lon="-1.81441">
        <ele>63</ele>
        <time>2022-10-22T12:55:48Z</time>
      </trkpt>
      <trkpt lat="46.99233" lon="-1.81423">
        <ele>63</ele>
        <time>2022-10-22T12:55:50Z</time>
      </trkpt>
      <trkpt lat="46.9923" lon="-1.81404">
        <ele>62</ele>
        <time>2022-10-22T12:55:52Z</time>
      </trkpt>
      <trkpt lat="46.99227" lon="-1.81386">
        <ele>61</ele>
        <time>2022-10-22T12:55:54Z</time>
      </trkpt>
      <trkpt lat="46.99224" lon="-1.81368">
        <ele>61</ele>
        <time>2022-10-22T12:55:56Z</time>
      </trkpt>
      <trkpt lat="46.99222" lon="-1.8135">
        <ele>61</ele>
        <time>2022-10-22T12:55:58Z</time>
      </trkpt>
      <trkpt lat="46.99219" lon="-1.81332">
        <ele>61</ele>
        <time>2022-10-22T12:56:00Z</time>
      </trkpt>
      <trkpt lat="46.99217" lon="-1.81314">
        <ele>61</ele>
        <time>2022-10-22T12:56:02Z</time>
      </trkpt>
      <trkpt lat="46.99215" lon="-1.81296">
        <ele>61</ele>
        <time>2022-10-22T12:56:04Z</time>
      </trkpt>
      <trkpt lat="46.99212" lon="-1.81277">
        <ele>60</ele>
        <time>2022-10-22T12:56:06Z</time>
      </trkpt>
      <trkpt lat="46.99209" lon="-1.81258">
        <ele>60</ele>
        <time>2022-10-22T12:56:08Z</time>
      </trkpt>
      <trkpt lat="46.99208" lon="-1.8124">
        <ele>61</ele>
        <time>2022-10-22T12:56:10Z</time>
      </trkpt>
      <trkpt lat="46.99205" lon="-1.81223">
        <ele>60</ele>
        <time>2022-10-22T12:56:12Z</time>
      </trkpt>
      <trkpt lat="46.99203" lon="-1.81207">
        <ele>60</ele>
        <time>2022-10-22T12:56:14Z</time>
      </trkpt>
      <trkpt lat="46.99201" lon="-1.8119">
        <ele>61</ele>
        <time>2022-10-22T12:56:16Z</time>
      </trkpt>
      <trkpt lat="46.99199" lon="-1.81172">
        <ele>61</ele>
        <time>2022-10-22T12:56:18Z</time>
      </trkpt>
      <trkpt lat="46.99197" lon="-1.81153">
        <ele>61</ele>
        <time>2022-10-22T12:56:20Z</time>
      </trkpt>
      <trkpt lat="46.99194" lon="-1.81135">
        <ele>62</ele>
        <time>2022-10-22T12:56:22Z</time>
      </trkpt>
      <trkpt lat="46.99192" lon="-1.81118">
        <ele>61</ele>
        <time>2022-10-22T12:56:24Z</time>
      </trkpt>
      <trkpt lat="46.99189" lon="-1.81101">
        <ele>61</ele>
        <time>2022-10-22T12:56:26Z</time>
      </trkpt>
      <trkpt lat="46.99186" lon="-1.81084">
        <ele>60</ele>
        <time>2022-10-22T12:56:28Z</time>
      </trkpt>
      <trkpt lat="46.99183" lon="-1.81068">
        <ele>60</ele>
        <time>2022-10-22T12:56:30Z</time>
      </trkpt>
      <trkpt lat="46.99181" lon="-1.8105">
        <ele>60</ele>
        <time>2022-10-22T12:56:32Z</time>
      </trkpt>
      <trkpt lat="46.99179" lon="-1.81034">
        <ele>60</ele>
        <time>2022-10-22T12:56:34Z</time>
      </trkpt>
      <trkpt lat="46.99177" lon="-1.81017">
        <ele>60</ele>
        <time>2022-10-22T12:56:36Z</time>
      </trkpt>
      <trkpt lat="46.99174" lon="-1.81001">
        <ele>60</ele>
        <time>2022-10-22T12:56:38Z</time>
      </trkpt>
      <trkpt lat="46.99171" lon="-1.80984">
        <ele>59</ele>
        <time>2022-10-22T12:56:40Z</time>
      </trkpt>
      <trkpt lat="46.99169" lon="-1.80969">
        <ele>59</ele>
        <time>2022-10-22T12:56:42Z</time>
      </trkpt>
      <trkpt lat="46.99166" lon="-1.80953">
        <ele>59</ele>
        <time>2022-10-22T12:56:44Z</time>
      </trkpt>
      <trkpt lat="46.99164" lon="-1.80938">
        <ele>59</ele>
        <time>2022-10-22T12:56:46Z</time>
      </trkpt>
      <trkpt lat="46.99162" lon="-1.80922">
        <ele>59</ele>
        <time>2022-10-22T12:56:48Z</time>
      </trkpt>
      <trkpt lat="46.99161" lon="-1.80907">
        <ele>59</ele>
        <time>2022-10-22T12:56:50Z</time>
      </trkpt>
      <trkpt lat="46.99167" lon="-1.80895">
        <ele>59</ele>
        <time>2022-10-22T12:56:52Z</time>
      </trkpt>
      <trkpt lat="46.99177" lon="-1.80886">
        <ele>59</ele>
        <time>2022-10-22T12:56:54Z</time>
      </trkpt>
      <trkpt lat="46.99188" lon="-1.80878">
        <ele>58</ele>
        <time>2022-10-22T12:56:56Z</time>
      </trkpt>
      <trkpt lat="46.99199" lon="-1.80872">
        <ele>59</ele>
        <time>2022-10-22T12:56:58Z</time>
      </trkpt>
      <trkpt lat="46.9921" lon="-1.80865">
        <ele>59</ele>
        <time>2022-10-22T12:57:00Z</time>
      </trkpt>
      <trkpt lat="46.9922" lon="-1.80857">
        <ele>59</ele>
        <time>2022-10-22T12:57:02Z</time>
      </trkpt>
      <trkpt lat="46.99231" lon="-1.8085">
        <ele>58</ele>
        <time>2022-10-22T12:57:04Z</time>
      </trkpt>
      <trkpt lat="46.99241" lon="-1.80843">
        <ele>58</ele>
        <time>2022-10-22T12:57:06Z</time>
      </trkpt>
      <trkpt lat="46.99252" lon="-1.80836">
        <ele>58</ele>
        <time>2022-10-22T12:57:08Z</time>
      </trkpt>
      <trkpt lat="46.99262" lon="-1.8083">
        <ele>58</ele>
        <time>2022-10-22T12:57:10Z</time>
      </trkpt>
      <trkpt lat="46.99272" lon="-1.80824">
        <ele>58</ele>
        <time>2022-10-22T12:57:12Z</time>
      </trkpt>
      <trkpt lat="46.99282" lon="-1.80818">
        <ele>59</ele>
        <time>2022-10-22T12:57:14Z</time>
      </trkpt>
      <trkpt lat="46.99293" lon="-1.80812">
        <ele>59</ele>
        <time>2022-10-22T12:57:16Z</time>
      </trkpt>
      <trkpt lat="46.99303" lon="-1.80805">
        <ele>59</ele>
        <time>2022-10-22T12:57:18Z</time>
      </trkpt>
      <trkpt lat="46.99313" lon="-1.80798">
        <ele>59</ele>
        <time>2022-10-22T12:57:20Z</time>
      </trkpt>
      <trkpt lat="46.99324" lon="-1.80792">
        <ele>59</ele>
        <time>2022-10-22T12:57:22Z</time>
      </trkpt>
      <trkpt lat="46.99334" lon="-1.80784">
        <ele>59</ele>
        <time>2022-10-22T12:57:24Z</time>
      </trkpt>
      <trkpt lat="46.99345" lon="-1.80778">
        <ele>59</ele>
        <time>2022-10-22T12:57:26Z</time>
      </trkpt>
      <trkpt lat="46.99355" lon="-1.80771">
        <ele>59</ele>
        <time>2022-10-22T12:57:28Z</time>
      </trkpt>
      <trkpt lat="46.99366" lon="-1.80764">
        <ele>59</ele>
        <time>2022-10-22T12:57:30Z</time>
      </trkpt>
      <trkpt lat="46.99377" lon="-1.80757">
        <ele>59</ele>
        <time>2022-10-22T12:57:32Z</time>
      </trkpt>
      <trkpt lat="46.99387" lon="-1.8075">
        <ele>59</ele>
        <time>2022-10-22T12:57:34Z</time>
      </trkpt>
      <trkpt lat="46.99397" lon="-1.80743">
        <ele>59</ele>
        <time>2022-10-22T12:57:36Z</time>
      </trkpt>
      <trkpt lat="46.99408" lon="-1.80736">
        <ele>59</ele>
        <time>2022-10-22T12:57:38Z</time>
      </trkpt>
      <trkpt lat="46.99419" lon="-1.80729">
        <ele>58</ele>
        <time>2022-10-22T12:57:40Z</time>
      </trkpt>
      <trkpt lat="46.9943" lon="-1.80723">
        <ele>58</ele>
        <time>2022-10-22T12:57:42Z</time>
      </trkpt>
      <trkpt lat="46.9944" lon="-1.80717">
        <ele>58</ele>
        <time>2022-10-22T12:57:44Z</time>
      </trkpt>
      <trkpt lat="46.99451" lon="-1.80711">
        <ele>58</ele>
        <time>2022-10-22T12:57:46Z</time>
      </trkpt>
      <trkpt lat="46.99461" lon="-1.80703">
        <ele>58</ele>
        <time>2022-10-22T12:57:48Z</time>
      </trkpt>
      <trkpt lat="46.9947" lon="-1.80695">
        <ele>58</ele>
        <time>2022-10-22T12:57:50Z</time>
      </trkpt>
      <trkpt lat="46.99475" lon="-1.80684">
        <ele>58</ele>
        <time>2022-10-22T12:57:52Z</time>
      </trkpt>
      <trkpt lat="46.99478" lon="-1.80671">
        <ele>59</ele>
        <time>2022-10-22T12:57:54Z</time>
      </trkpt>
      <trkpt lat="46.99486" lon="-1.8066">
        <ele>59</ele>
        <time>2022-10-22T12:57:56Z</time>
      </trkpt>
      <trkpt lat="46.99497" lon="-1.80656">
        <ele>58</ele>
        <time>2022-10-22T12:57:58Z</time>
      </trkpt>
      <trkpt lat="46.99509" lon="-1.80652">
        <ele>58</ele>
        <time>2022-10-22T12:58:00Z</time>
      </trkpt>
      <trkpt lat="46.99519" lon="-1.80643">
        <ele>58</ele>
        <time>2022-10-22T12:58:02Z</time>
      </trkpt>
      <trkpt lat="46.99529" lon="-1.80633">
        <ele>58</ele>
        <time>2022-10-22T12:58:04Z</time>
      </trkpt>
      <trkpt lat="46.99539" lon="-1.80622">
        <ele>57</ele>
        <time>2022-10-22T12:58:06Z</time>
      </trkpt>
      <trkpt lat="46.99549" lon="-1.8061">
        <ele>58</ele>
        <time>2022-10-22T12:58:08Z</time>
      </trkpt>
      <trkpt lat="46.99558" lon="-1.80598">
        <ele>58</ele>
        <time>2022-10-22T12:58:10Z</time>
      </trkpt>
      <trkpt lat="46.99567" lon="-1.80586">
        <ele>58</ele>
        <time>2022-10-22T12:58:12Z</time>
      </trkpt>
      <trkpt lat="46.99576" lon="-1.80574">
        <ele>58</ele>
        <time>2022-10-22T12:58:14Z</time>
      </trkpt>
      <trkpt lat="46.99585" lon="-1.80562">
        <ele>58</ele>
        <time>2022-10-22T12:58:16Z</time>
      </trkpt>
      <trkpt lat="46.99595" lon="-1.8055">
        <ele>58</ele>
        <time>2022-10-22T12:58:18Z</time>
      </trkpt>
      <trkpt lat="46.99604" lon="-1.80538">
        <ele>58</ele>
        <time>2022-10-22T12:58:20Z</time>
      </trkpt>
      <trkpt lat="46.99613" lon="-1.80526">
        <ele>58</ele>
        <time>2022-10-22T12:58:22Z</time>
      </trkpt>
      <trkpt lat="46.99622" lon="-1.80514">
        <ele>58</ele>
        <time>2022-10-22T12:58:24Z</time>
      </trkpt>
      <trkpt lat="46.99632" lon="-1.80503">
        <ele>58</ele>
        <time>2022-10-22T12:58:26Z</time>
      </trkpt>
      <trkpt lat="46.99641" lon="-1.80491">
        <ele>58</ele>
        <time>2022-10-22T12:58:28Z</time>
      </trkpt>
      <trkpt lat="46.9965" lon="-1.8048">
        <ele>58</ele>
        <time>2022-10-22T12:58:30Z</time>
      </trkpt>
      <trkpt lat="46.99659" lon="-1.80467">
        <ele>58</ele>
        <time>2022-10-22T12:58:32Z</time>
      </trkpt>
      <trkpt lat="46.99669" lon="-1.80456">
        <ele>58</ele>
        <time>2022-10-22T12:58:34Z</time>
      </trkpt>
      <trkpt lat="46.99678" lon="-1.80443">
        <ele>58</ele>
        <time>2022-10-22T12:58:36Z</time>
      </trkpt>
      <trkpt lat="46.99687" lon="-1.80432">
        <ele>58</ele>
        <time>2022-10-22T12:58:38Z</time>
      </trkpt>
      <trkpt lat="46.99696" lon="-1.8042">
        <ele>58</ele>
        <time>2022-10-22T12:58:40Z</time>
      </trkpt>
      <trkpt lat="46.99705" lon="-1.80408">
        <ele>58</ele>
        <time>2022-10-22T12:58:42Z</time>
      </trkpt>
      <trkpt lat="46.99714" lon="-1.80396">
        <ele>58</ele>
        <time>2022-10-22T12:58:44Z</time>
      </trkpt>
      <trkpt lat="46.99723" lon="-1.80384">
        <ele>58</ele>
        <time>2022-10-22T12:58:46Z</time>
      </trkpt>
      <trkpt lat="46.99732" lon="-1.80373">
        <ele>58</ele>
        <time>2022-10-22T12:58:48Z</time>
      </trkpt>
      <trkpt lat="46.99741" lon="-1.80361">
        <ele>59</ele>
        <time>2022-10-22T12:58:50Z</time>
      </trkpt>
      <trkpt lat="46.9975" lon="-1.8035">
        <ele>59</ele>
        <time>2022-10-22T12:58:52Z</time>
      </trkpt>
      <trkpt lat="46.99759" lon="-1.80339">
        <ele>59</ele>
        <time>2022-10-22T12:58:54Z</time>
      </trkpt>
      <trkpt lat="46.99767" lon="-1.80327">
        <ele>59</ele>
        <time>2022-10-22T12:58:56Z</time>
      </trkpt>
      <trkpt lat="46.99776" lon="-1.80316">
        <ele>59</ele>
        <time>2022-10-22T12:58:58Z</time>
      </trkpt>
      <trkpt lat="46.99785" lon="-1.80305">
        <ele>59</ele>
        <time>2022-10-22T12:59:00Z</time>
      </trkpt>
      <trkpt lat="46.99793" lon="-1.80294">
        <ele>59</ele>
        <time>2022-10-22T12:59:02Z</time>
      </trkpt>
      <trkpt lat="46.99802" lon="-1.80282">
        <ele>59</ele>
        <time>2022-10-22T12:59:04Z</time>
      </trkpt>
      <trkpt lat="46.99811" lon="-1.80271">
        <ele>59</ele>
        <time>2022-10-22T12:59:06Z</time>
      </trkpt>
      <trkpt lat="46.99819" lon="-1.8026">
        <ele>59</ele>
        <time>2022-10-22T12:59:08Z</time>
      </trkpt>
      <trkpt lat="46.99828" lon="-1.80248">
        <ele>59</ele>
        <time>2022-10-22T12:59:10Z</time>
      </trkpt>
      <trkpt lat="46.99836" lon="-1.80236">
        <ele>59</ele>
        <time>2022-10-22T12:59:12Z</time>
      </trkpt>
      <trkpt lat="46.99844" lon="-1.80224">
        <ele>59</ele>
        <time>2022-10-22T12:59:14Z</time>
      </trkpt>
      <trkpt lat="46.99852" lon="-1.80211">
        <ele>60</ele>
        <time>2022-10-22T12:59:16Z</time>
      </trkpt>
      <trkpt lat="46.99859" lon="-1.80197">
        <ele>59</ele>
        <time>2022-10-22T12:59:18Z</time>
      </trkpt>
      <trkpt lat="46.99866" lon="-1.80184">
        <ele>59</ele>
        <time>2022-10-22T12:59:20Z</time>
      </trkpt>
      <trkpt lat="46.99873" lon="-1.8017">
        <ele>59</ele>
        <time>2022-10-22T12:59:22Z</time>
      </trkpt>
      <trkpt lat="46.9988" lon="-1.80156">
        <ele>59</ele>
        <time>2022-10-22T12:59:24Z</time>
      </trkpt>
      <trkpt lat="46.99886" lon="-1.80142">
        <ele>59</ele>
        <time>2022-10-22T12:59:26Z</time>
      </trkpt>
      <trkpt lat="46.99893" lon="-1.80128">
        <ele>59</ele>
        <time>2022-10-22T12:59:28Z</time>
      </trkpt>
      <trkpt lat="46.999" lon="-1.80114">
        <ele>59</ele>
        <time>2022-10-22T12:59:30Z</time>
      </trkpt>
      <trkpt lat="46.99906" lon="-1.80099">
        <ele>59</ele>
        <time>2022-10-22T12:59:32Z</time>
      </trkpt>
      <trkpt lat="46.99913" lon="-1.80084">
        <ele>59</ele>
        <time>2022-10-22T12:59:34Z</time>
      </trkpt>
      <trkpt lat="46.9992" lon="-1.80071">
        <ele>59</ele>
        <time>2022-10-22T12:59:36Z</time>
      </trkpt>
      <trkpt lat="46.99926" lon="-1.80057">
        <ele>60</ele>
        <time>2022-10-22T12:59:38Z</time>
      </trkpt>
      <trkpt lat="46.99933" lon="-1.80042">
        <ele>60</ele>
        <time>2022-10-22T12:59:40Z</time>
      </trkpt>
      <trkpt lat="46.9994" lon="-1.80029">
        <ele>60</ele>
        <time>2022-10-22T12:59:42Z</time>
      </trkpt>
      <trkpt lat="46.99948" lon="-1.80017">
        <ele>60</ele>
        <time>2022-10-22T12:59:44Z</time>
      </trkpt>
      <trkpt lat="46.99956" lon="-1.80006">
        <ele>60</ele>
        <time>2022-10-22T12:59:46Z</time>
      </trkpt>
      <trkpt lat="46.99965" lon="-1.79995">
        <ele>60</ele>
        <time>2022-10-22T12:59:48Z</time>
      </trkpt>
      <trkpt lat="46.99975" lon="-1.79987">
        <ele>61</ele>
        <time>2022-10-22T12:59:50Z</time>
      </trkpt>
      <trkpt lat="46.99984" lon="-1.79978">
        <ele>61</ele>
        <time>2022-10-22T12:59:52Z</time>
      </trkpt>
      <trkpt lat="46.99995" lon="-1.79971">
        <ele>61</ele>
        <time>2022-10-22T12:59:54Z</time>
      </trkpt>
      <trkpt lat="47.00005" lon="-1.79963">
        <ele>61</ele>
        <time>2022-10-22T12:59:56Z</time>
      </trkpt>
      <trkpt lat="47.00015" lon="-1.79956">
        <ele>61</ele>
        <time>2022-10-22T12:59:58Z</time>
      </trkpt>
      <trkpt lat="47.00026" lon="-1.79948">
        <ele>61</ele>
        <time>2022-10-22T13:00:00Z</time>
      </trkpt>
      <trkpt lat="47.00036" lon="-1.7994">
        <ele>61</ele>
        <time>2022-10-22T13:00:02Z</time>
      </trkpt>
      <trkpt lat="47.00047" lon="-1.79932">
        <ele>61</ele>
        <time>2022-10-22T13:00:04Z</time>
      </trkpt>
      <trkpt lat="47.00057" lon="-1.79924">
        <ele>60</ele>
        <time>2022-10-22T13:00:06Z</time>
      </trkpt>
      <trkpt lat="47.00068" lon="-1.79916">
        <ele>60</ele>
        <time>2022-10-22T13:00:08Z</time>
      </trkpt>
      <trkpt lat="47.00078" lon="-1.79909">
        <ele>60</ele>
        <time>2022-10-22T13:00:10Z</time>
      </trkpt>
      <trkpt lat="47.00088" lon="-1.799">
        <ele>60</ele>
        <time>2022-10-22T13:00:12Z</time>
      </trkpt>
      <trkpt lat="47.00098" lon="-1.79891">
        <ele>61</ele>
        <time>2022-10-22T13:00:14Z</time>
      </trkpt>
      <trkpt lat="47.00107" lon="-1.7988">
        <ele>60</ele>
        <time>2022-10-22T13:00:16Z</time>
      </trkpt>
      <trkpt lat="47.00116" lon="-1.79867">
        <ele>60</ele>
        <time>2022-10-22T13:00:18Z</time>
      </trkpt>
      <trkpt lat="47.00124" lon="-1.79855">
        <ele>60</ele>
        <time>2022-10-22T13:00:20Z</time>
      </trkpt>
      <trkpt lat="47.00131" lon="-1.79841">
        <ele>60</ele>
        <time>2022-10-22T13:00:22Z</time>
      </trkpt>
      <trkpt lat="47.00137" lon="-1.79827">
        <ele>60</ele>
        <time>2022-10-22T13:00:24Z</time>
      </trkpt>
      <trkpt lat="47.00142" lon="-1.79812">
        <ele>60</ele>
        <time>2022-10-22T13:00:26Z</time>
      </trkpt>
      <trkpt lat="47.00148" lon="-1.79797">
        <ele>60</ele>
        <time>2022-10-22T13:00:28Z</time>
      </trkpt>
      <trkpt lat="47.00153" lon="-1.79781">
        <ele>60</ele>
        <time>2022-10-22T13:00:30Z</time>
      </trkpt>
      <trkpt lat="47.00158" lon="-1.79765">
        <ele>60</ele>
        <time>2022-10-22T13:00:32Z</time>
      </trkpt>
      <trkpt lat="47.00163" lon="-1.79749">
        <ele>59</ele>
        <time>2022-10-22T13:00:34Z</time>
      </trkpt>
      <trkpt lat="47.00168" lon="-1.79735">
        <ele>59</ele>
        <time>2022-10-22T13:00:36Z</time>
      </trkpt>
      <trkpt lat="47.00173" lon="-1.7972">
        <ele>59</ele>
        <time>2022-10-22T13:00:38Z</time>
      </trkpt>
      <trkpt lat="47.00178" lon="-1.79705">
        <ele>59</ele>
        <time>2022-10-22T13:00:40Z</time>
      </trkpt>
      <trkpt lat="47.00182" lon="-1.79689">
        <ele>59</ele>
        <time>2022-10-22T13:00:42Z</time>
      </trkpt>
      <trkpt lat="47.00187" lon="-1.79673">
        <ele>59</ele>
        <time>2022-10-22T13:00:44Z</time>
      </trkpt>
      <trkpt lat="47.00192" lon="-1.79658">
        <ele>59</ele>
        <time>2022-10-22T13:00:46Z</time>
      </trkpt>
      <trkpt lat="47.00196" lon="-1.79641">
        <ele>59</ele>
        <time>2022-10-22T13:00:48Z</time>
      </trkpt>
      <trkpt lat="47.002" lon="-1.79625">
        <ele>60</ele>
        <time>2022-10-22T13:00:50Z</time>
      </trkpt>
      <trkpt lat="47.00205" lon="-1.79608">
        <ele>60</ele>
        <time>2022-10-22T13:00:52Z</time>
      </trkpt>
      <trkpt lat="47.00209" lon="-1.79592">
        <ele>59</ele>
        <time>2022-10-22T13:00:54Z</time>
      </trkpt>
      <trkpt lat="47.00214" lon="-1.79577">
        <ele>59</ele>
        <time>2022-10-22T13:00:56Z</time>
      </trkpt>
      <trkpt lat="47.00219" lon="-1.79562">
        <ele>59</ele>
        <time>2022-10-22T13:00:58Z</time>
      </trkpt>
      <trkpt lat="47.00223" lon="-1.79545">
        <ele>60</ele>
        <time>2022-10-22T13:01:00Z</time>
      </trkpt>
      <trkpt lat="47.00228" lon="-1.79527">
        <ele>60</ele>
        <time>2022-10-22T13:01:02Z</time>
      </trkpt>
      <trkpt lat="47.00233" lon="-1.79512">
        <ele>60</ele>
        <time>2022-10-22T13:01:04Z</time>
      </trkpt>
      <trkpt lat="47.00238" lon="-1.79496">
        <ele>60</ele>
        <time>2022-10-22T13:01:06Z</time>
      </trkpt>
      <trkpt lat="47.00242" lon="-1.7948">
        <ele>60</ele>
        <time>2022-10-22T13:01:08Z</time>
      </trkpt>
      <trkpt lat="47.00247" lon="-1.79464">
        <ele>60</ele>
        <time>2022-10-22T13:01:10Z</time>
      </trkpt>
      <trkpt lat="47.00252" lon="-1.79447">
        <ele>61</ele>
        <time>2022-10-22T13:01:12Z</time>
      </trkpt>
      <trkpt lat="47.00257" lon="-1.79431">
        <ele>61</ele>
        <time>2022-10-22T13:01:14Z</time>
      </trkpt>
      <trkpt lat="47.00261" lon="-1.79416">
        <ele>61</ele>
        <time>2022-10-22T13:01:16Z</time>
      </trkpt>
      <trkpt lat="47.00266" lon="-1.794">
        <ele>61</ele>
        <time>2022-10-22T13:01:18Z</time>
      </trkpt>
      <trkpt lat="47.00271" lon="-1.79385">
        <ele>61</ele>
        <time>2022-10-22T13:01:20Z</time>
      </trkpt>
      <trkpt lat="47.00275" lon="-1.79368">
        <ele>61</ele>
        <time>2022-10-22T13:01:22Z</time>
      </trkpt>
      <trkpt lat="47.00279" lon="-1.79352">
        <ele>61</ele>
        <time>2022-10-22T13:01:24Z</time>
      </trkpt>
      <trkpt lat="47.00282" lon="-1.79336">
        <ele>61</ele>
        <time>2022-10-22T13:01:26Z</time>
      </trkpt>
      <trkpt lat="47.00285" lon="-1.79319">
        <ele>61</ele>
        <time>2022-10-22T13:01:28Z</time>
      </trkpt>
      <trkpt lat="47.00288" lon="-1.79303">
        <ele>62</ele>
        <time>2022-10-22T13:01:30Z</time>
      </trkpt>
      <trkpt lat="47.00291" lon="-1.79287">
        <ele>62</ele>
        <time>2022-10-22T13:01:32Z</time>
      </trkpt>
      <trkpt lat="47.00293" lon="-1.7927">
        <ele>62</ele>
        <time>2022-10-22T13:01:34Z</time>
      </trkpt>
      <trkpt lat="47.00296" lon="-1.79254">
        <ele>62</ele>
        <time>2022-10-22T13:01:36Z</time>
      </trkpt>
      <trkpt lat="47.00299" lon="-1.79238">
        <ele>62</ele>
        <time>2022-10-22T13:01:38Z</time>
      </trkpt>
      <trkpt lat="47.00302" lon="-1.79222">
        <ele>62</ele>
        <time>2022-10-22T13:01:40Z</time>
      </trkpt>
      <trkpt lat="47.00304" lon="-1.79205">
        <ele>62</ele>
        <time>2022-10-22T13:01:42Z</time>
      </trkpt>
      <trkpt lat="47.00307" lon="-1.79189">
        <ele>61</ele>
        <time>2022-10-22T13:01:44Z</time>
      </trkpt>
      <trkpt lat="47.0031" lon="-1.79172">
        <ele>61</ele>
        <time>2022-10-22T13:01:46Z</time>
      </trkpt>
      <trkpt lat="47.00313" lon="-1.79156">
        <ele>61</ele>
        <time>2022-10-22T13:01:48Z</time>
      </trkpt>
      <trkpt lat="47.00317" lon="-1.7914">
        <ele>61</ele>
        <time>2022-10-22T13:01:50Z</time>
      </trkpt>
      <trkpt lat="47.00321" lon="-1.79125">
        <ele>61</ele>
        <time>2022-10-22T13:01:52Z</time>
      </trkpt>
      <trkpt lat="47.00324" lon="-1.79109">
        <ele>61</ele>
        <time>2022-10-22T13:01:54Z</time>
      </trkpt>
      <trkpt lat="47.00329" lon="-1.79094">
        <ele>61</ele>
        <time>2022-10-22T13:01:56Z</time>
      </trkpt>
      <trkpt lat="47.00333" lon="-1.79079">
        <ele>61</ele>
        <time>2022-10-22T13:01:58Z</time>
      </trkpt>
      <trkpt lat="47.00338" lon="-1.79064">
        <ele>61</ele>
        <time>2022-10-22T13:02:00Z</time>
      </trkpt>
      <trkpt lat="47.00342" lon="-1.79048">
        <ele>61</ele>
        <time>2022-10-22T13:02:02Z</time>
      </trkpt>
      <trkpt lat="47.00347" lon="-1.79032">
        <ele>61</ele>
        <time>2022-10-22T13:02:04Z</time>
      </trkpt>
      <trkpt lat="47.0035" lon="-1.79016">
        <ele>61</ele>
        <time>2022-10-22T13:02:06Z</time>
      </trkpt>
      <trkpt lat="47.00354" lon="-1.79001">
        <ele>61</ele>
        <time>2022-10-22T13:02:08Z</time>
      </trkpt>
      <trkpt lat="47.00358" lon="-1.78986">
        <ele>62</ele>
        <time>2022-10-22T13:02:10Z</time>
      </trkpt>
      <trkpt lat="47.00361" lon="-1.78971">
        <ele>62</ele>
        <time>2022-10-22T13:02:12Z</time>
      </trkpt>
      <trkpt lat="47.00365" lon="-1.78954">
        <ele>62</ele>
        <time>2022-10-22T13:02:14Z</time>
      </trkpt>
      <trkpt lat="47.00369" lon="-1.78938">
        <ele>62</ele>
        <time>2022-10-22T13:02:16Z</time>
      </trkpt>
      <trkpt lat="47.00372" lon="-1.78922">
        <ele>62</ele>
        <time>2022-10-22T13:02:18Z</time>
      </trkpt>
      <trkpt lat="47.00376" lon="-1.78906">
        <ele>62</ele>
        <time>2022-10-22T13:02:20Z</time>
      </trkpt>
      <trkpt lat="47.00379" lon="-1.78889">
        <ele>62</ele>
        <time>2022-10-22T13:02:22Z</time>
      </trkpt>
      <trkpt lat="47.00383" lon="-1.78873">
        <ele>62</ele>
        <time>2022-10-22T13:02:24Z</time>
      </trkpt>
      <trkpt lat="47.00386" lon="-1.78857">
        <ele>62</ele>
        <time>2022-10-22T13:02:26Z</time>
      </trkpt>
      <trkpt lat="47.0039" lon="-1.7884">
        <ele>62</ele>
        <time>2022-10-22T13:02:28Z</time>
      </trkpt>
      <trkpt lat="47.00393" lon="-1.78823">
        <ele>62</ele>
        <time>2022-10-22T13:02:30Z</time>
      </trkpt>
      <trkpt lat="47.00396" lon="-1.78806">
        <ele>62</ele>
        <time>2022-10-22T13:02:32Z</time>
      </trkpt>
      <trkpt lat="47.00399" lon="-1.78789">
        <ele>61</ele>
        <time>2022-10-22T13:02:34Z</time>
      </trkpt>
      <trkpt lat="47.00402" lon="-1.78772">
        <ele>61</ele>
        <time>2022-10-22T13:02:36Z</time>
      </trkpt>
      <trkpt lat="47.00404" lon="-1.78753">
        <ele>61</ele>
        <time>2022-10-22T13:02:38Z</time>
      </trkpt>
      <trkpt lat="47.00406" lon="-1.78736">
        <ele>61</ele>
        <time>2022-10-22T13:02:40Z</time>
      </trkpt>
      <trkpt lat="47.00409" lon="-1.78718">
        <ele>61</ele>
        <time>2022-10-22T13:02:42Z</time>
      </trkpt>
      <trkpt lat="47.00411" lon="-1.78701">
        <ele>61</ele>
        <time>2022-10-22T13:02:44Z</time>
      </trkpt>
      <trkpt lat="47.00414" lon="-1.78684">
        <ele>61</ele>
        <time>2022-10-22T13:02:46Z</time>
      </trkpt>
      <trkpt lat="47.00415" lon="-1.78667">
        <ele>61</ele>
        <time>2022-10-22T13:02:48Z</time>
      </trkpt>
      <trkpt lat="47.00418" lon="-1.78649">
        <ele>61</ele>
        <time>2022-10-22T13:02:50Z</time>
      </trkpt>
      <trkpt lat="47.00421" lon="-1.78632">
        <ele>61</ele>
        <time>2022-10-22T13:02:52Z</time>
      </trkpt>
      <trkpt lat="47.00423" lon="-1.78615">
        <ele>60</ele>
        <time>2022-10-22T13:02:54Z</time>
      </trkpt>
      <trkpt lat="47.00426" lon="-1.78598">
        <ele>60</ele>
        <time>2022-10-22T13:02:56Z</time>
      </trkpt>
      <trkpt lat="47.00428" lon="-1.78581">
        <ele>60</ele>
        <time>2022-10-22T13:02:58Z</time>
      </trkpt>
      <trkpt lat="47.00429" lon="-1.78564">
        <ele>60</ele>
        <time>2022-10-22T13:03:00Z</time>
      </trkpt>
      <trkpt lat="47.00432" lon="-1.78546">
        <ele>60</ele>
        <time>2022-10-22T13:03:02Z</time>
      </trkpt>
      <trkpt lat="47.00434" lon="-1.78529">
        <ele>60</ele>
        <time>2022-10-22T13:03:04Z</time>
      </trkpt>
      <trkpt lat="47.00436" lon="-1.78512">
        <ele>60</ele>
        <time>2022-10-22T13:03:06Z</time>
      </trkpt>
      <trkpt lat="47.00439" lon="-1.78495">
        <ele>60</ele>
        <time>2022-10-22T13:03:08Z</time>
      </trkpt>
      <trkpt lat="47.00442" lon="-1.78478">
        <ele>60</ele>
        <time>2022-10-22T13:03:10Z</time>
      </trkpt>
      <trkpt lat="47.00445" lon="-1.78461">
        <ele>60</ele>
        <time>2022-10-22T13:03:12Z</time>
      </trkpt>
      <trkpt lat="47.00448" lon="-1.78445">
        <ele>60</ele>
        <time>2022-10-22T13:03:14Z</time>
      </trkpt>
      <trkpt lat="47.00452" lon="-1.78428">
        <ele>60</ele>
        <time>2022-10-22T13:03:16Z</time>
      </trkpt>
      <trkpt lat="47.00456" lon="-1.78412">
        <ele>60</ele>
        <time>2022-10-22T13:03:18Z</time>
      </trkpt>
      <trkpt lat="47.0046" lon="-1.78395">
        <ele>60</ele>
        <time>2022-10-22T13:03:20Z</time>
      </trkpt>
      <trkpt lat="47.00464" lon="-1.78377">
        <ele>59</ele>
        <time>2022-10-22T13:03:22Z</time>
      </trkpt>
      <trkpt lat="47.00468" lon="-1.7836">
        <ele>59</ele>
        <time>2022-10-22T13:03:24Z</time>
      </trkpt>
      <trkpt lat="47.00472" lon="-1.78344">
        <ele>59</ele>
        <time>2022-10-22T13:03:26Z</time>
      </trkpt>
      <trkpt lat="47.00476" lon="-1.78327">
        <ele>59</ele>
        <time>2022-10-22T13:03:28Z</time>
      </trkpt>
      <trkpt lat="47.00481" lon="-1.78311">
        <ele>59</ele>
        <time>2022-10-22T13:03:30Z</time>
      </trkpt>
      <trkpt lat="47.00485" lon="-1.78294">
        <ele>59</ele>
        <time>2022-10-22T13:03:32Z</time>
      </trkpt>
      <trkpt lat="47.00489" lon="-1.78278">
        <ele>59</ele>
        <time>2022-10-22T13:03:34Z</time>
      </trkpt>
      <trkpt lat="47.00493" lon="-1.78262">
        <ele>60</ele>
        <time>2022-10-22T13:03:36Z</time>
      </trkpt>
      <trkpt lat="47.00498" lon="-1.78246">
        <ele>60</ele>
        <time>2022-10-22T13:03:38Z</time>
      </trkpt>
      <trkpt lat="47.00502" lon="-1.7823">
        <ele>61</ele>
        <time>2022-10-22T13:03:40Z</time>
      </trkpt>
      <trkpt lat="47.00505" lon="-1.78214">
        <ele>61</ele>
        <time>2022-10-22T13:03:42Z</time>
      </trkpt>
      <trkpt lat="47.0051" lon="-1.78199">
        <ele>61</ele>
        <time>2022-10-22T13:03:44Z</time>
      </trkpt>
      <trkpt lat="47.00513" lon="-1.78184">
        <ele>61</ele>
        <time>2022-10-22T13:03:46Z</time>
      </trkpt>
      <trkpt lat="47.00517" lon="-1.78169">
        <ele>61</ele>
        <time>2022-10-22T13:03:48Z</time>
      </trkpt>
      <trkpt lat="47.0052" lon="-1.78154">
        <ele>61</ele>
        <time>2022-10-22T13:03:50Z</time>
      </trkpt>
      <trkpt lat="47.00524" lon="-1.78138">
        <ele>60</ele>
        <time>2022-10-22T13:03:52Z</time>
      </trkpt>
      <trkpt lat="47.00527" lon="-1.78121">
        <ele>60</ele>
        <time>2022-10-22T13:03:54Z</time>
      </trkpt>
      <trkpt lat="47.00531" lon="-1.78104">
        <ele>60</ele>
        <time>2022-10-22T13:03:56Z</time>
      </trkpt>
      <trkpt lat="47.00535" lon="-1.78087">
        <ele>60</ele>
        <time>2022-10-22T13:03:58Z</time>
      </trkpt>
      <trkpt lat="47.0054" lon="-1.78071">
        <ele>60</ele>
        <time>2022-10-22T13:04:00Z</time>
      </trkpt>
      <trkpt lat="47.00544" lon="-1.78055">
        <ele>60</ele>
        <time>2022-10-22T13:04:02Z</time>
      </trkpt>
      <trkpt lat="47.00548" lon="-1.78038">
        <ele>60</ele>
        <time>2022-10-22T13:04:04Z</time>
      </trkpt>
      <trkpt lat="47.00552" lon="-1.78021">
        <ele>60</ele>
        <time>2022-10-22T13:04:06Z</time>
      </trkpt>
      <trkpt lat="47.00556" lon="-1.78005">
        <ele>60</ele>
        <time>2022-10-22T13:04:08Z</time>
      </trkpt>
      <trkpt lat="47.0056" lon="-1.77989">
        <ele>60</ele>
        <time>2022-10-22T13:04:10Z</time>
      </trkpt>
      <trkpt lat="47.00564" lon="-1.77973">
        <ele>60</ele>
        <time>2022-10-22T13:04:12Z</time>
      </trkpt>
      <trkpt lat="47.00568" lon="-1.77957">
        <ele>60</ele>
        <time>2022-10-22T13:04:14Z</time>
      </trkpt>
      <trkpt lat="47.00572" lon="-1.77941">
        <ele>60</ele>
        <time>2022-10-22T13:04:16Z</time>
      </trkpt>
      <trkpt lat="47.00576" lon="-1.77925">
        <ele>61</ele>
        <time>2022-10-22T13:04:18Z</time>
      </trkpt>
      <trkpt lat="47.0058" lon="-1.77909">
        <ele>60</ele>
        <time>2022-10-22T13:04:20Z</time>
      </trkpt>
      <trkpt lat="47.00584" lon="-1.77893">
        <ele>60</ele>
        <time>2022-10-22T13:04:22Z</time>
      </trkpt>
      <trkpt lat="47.00588" lon="-1.77877">
        <ele>60</ele>
        <time>2022-10-22T13:04:24Z</time>
      </trkpt>
      <trkpt lat="47.00592" lon="-1.7786">
        <ele>60</ele>
        <time>2022-10-22T13:04:26Z</time>
      </trkpt>
      <trkpt lat="47.00596" lon="-1.77843">
        <ele>60</ele>
        <time>2022-10-22T13:04:28Z</time>
      </trkpt>
      <trkpt lat="47.00599" lon="-1.77827">
        <ele>60</ele>
        <time>2022-10-22T13:04:30Z</time>
      </trkpt>
      <trkpt lat="47.00603" lon="-1.77812">
        <ele>60</ele>
        <time>2022-10-22T13:04:32Z</time>
      </trkpt>
      <trkpt lat="47.00607" lon="-1.77797">
        <ele>60</ele>
        <time>2022-10-22T13:04:34Z</time>
      </trkpt>
      <trkpt lat="47.00611" lon="-1.77781">
        <ele>60</ele>
        <time>2022-10-22T13:04:36Z</time>
      </trkpt>
      <trkpt lat="47.00615" lon="-1.77766">
        <ele>60</ele>
        <time>2022-10-22T13:04:38Z</time>
      </trkpt>
      <trkpt lat="47.00618" lon="-1.77751">
        <ele>60</ele>
        <time>2022-10-22T13:04:40Z</time>
      </trkpt>
      <trkpt lat="47.00622" lon="-1.77736">
        <ele>60</ele>
        <time>2022-10-22T13:04:42Z</time>
      </trkpt>
      <trkpt lat="47.00626" lon="-1.77719">
        <ele>60</ele>
        <time>2022-10-22T13:04:44Z</time>
      </trkpt>
      <trkpt lat="47.0063" lon="-1.77702">
        <ele>60</ele>
        <time>2022-10-22T13:04:46Z</time>
      </trkpt>
      <trkpt lat="47.00634" lon="-1.77686">
        <ele>60</ele>
        <time>2022-10-22T13:04:48Z</time>
      </trkpt>
      <trkpt lat="47.00638" lon="-1.7767">
        <ele>60</ele>
        <time>2022-10-22T13:04:50Z</time>
      </trkpt>
      <trkpt lat="47.00642" lon="-1.77655">
        <ele>61</ele>
        <time>2022-10-22T13:04:52Z</time>
      </trkpt>
      <trkpt lat="47.00646" lon="-1.77639">
        <ele>61</ele>
        <time>2022-10-22T13:04:54Z</time>
      </trkpt>
      <trkpt lat="47.0065" lon="-1.77625">
        <ele>61</ele>
        <time>2022-10-22T13:04:56Z</time>
      </trkpt>
      <trkpt lat="47.00654" lon="-1.7761">
        <ele>62</ele>
        <time>2022-10-22T13:04:58Z</time>
      </trkpt>
      <trkpt lat="47.00658" lon="-1.77596">
        <ele>62</ele>
        <time>2022-10-22T13:05:00Z</time>
      </trkpt>
      <trkpt lat="47.00661" lon="-1.77582">
        <ele>63</ele>
        <time>2022-10-22T13:05:02Z</time>
      </trkpt>
      <trkpt lat="47.00665" lon="-1.77567">
        <ele>63</ele>
        <time>2022-10-22T13:05:04Z</time>
      </trkpt>
      <trkpt lat="47.00668" lon="-1.77553">
        <ele>63</ele>
        <time>2022-10-22T13:05:06Z</time>
      </trkpt>
      <trkpt lat="47.00671" lon="-1.7754">
        <ele>63</ele>
        <time>2022-10-22T13:05:08Z</time>
      </trkpt>
      <trkpt lat="47.00675" lon="-1.77526">
        <ele>63</ele>
        <time>2022-10-22T13:05:10Z</time>
      </trkpt>
      <trkpt lat="47.00679" lon="-1.77513">
        <ele>63</ele>
        <time>2022-10-22T13:05:12Z</time>
      </trkpt>
      <trkpt lat="47.00683" lon="-1.775">
        <ele>63</ele>
        <time>2022-10-22T13:05:14Z</time>
      </trkpt>
      <trkpt lat="47.00688" lon="-1.77488">
        <ele>63</ele>
        <time>2022-10-22T13:05:16Z</time>
      </trkpt>
      <trkpt lat="47.00693" lon="-1.77475">
        <ele>64</ele>
        <time>2022-10-22T13:05:18Z</time>
      </trkpt>
      <trkpt lat="47.00697" lon="-1.77463">
        <ele>64</ele>
        <time>2022-10-22T13:05:20Z</time>
      </trkpt>
      <trkpt lat="47.00702" lon="-1.7745">
        <ele>65</ele>
        <time>2022-10-22T13:05:22Z</time>
      </trkpt>
      <trkpt lat="47.00707" lon="-1.77438">
        <ele>65</ele>
        <time>2022-10-22T13:05:24Z</time>
      </trkpt>
      <trkpt lat="47.00711" lon="-1.77425">
        <ele>65</ele>
        <time>2022-10-22T13:05:26Z</time>
      </trkpt>
      <trkpt lat="47.00716" lon="-1.77414">
        <ele>66</ele>
        <time>2022-10-22T13:05:28Z</time>
      </trkpt>
      <trkpt lat="47.0072" lon="-1.77403">
        <ele>67</ele>
        <time>2022-10-22T13:05:30Z</time>
      </trkpt>
      <trkpt lat="47.00724" lon="-1.7739">
        <ele>68</ele>
        <time>2022-10-22T13:05:32Z</time>
      </trkpt>
      <trkpt lat="47.0073" lon="-1.77374">
        <ele>70</ele>
        <time>2022-10-22T13:05:35Z</time>
      </trkpt>
      <trkpt lat="47.00736" lon="-1.77363">
        <ele>71</ele>
        <time>2022-10-22T13:05:37Z</time>
      </trkpt>
      <trkpt lat="47.00743" lon="-1.77353">
        <ele>71</ele>
        <time>2022-10-22T13:05:39Z</time>
      </trkpt>
      <trkpt lat="47.0075" lon="-1.77344">
        <ele>73</ele>
        <time>2022-10-22T13:05:41Z</time>
      </trkpt>
      <trkpt lat="47.0076" lon="-1.77331">
        <ele>75</ele>
        <time>2022-10-22T13:05:44Z</time>
      </trkpt>
      <trkpt lat="47.00768" lon="-1.77324">
        <ele>75</ele>
        <time>2022-10-22T13:05:46Z</time>
      </trkpt>
      <trkpt lat="47.00777" lon="-1.77316">
        <ele>75</ele>
        <time>2022-10-22T13:05:48Z</time>
      </trkpt>
      <trkpt lat="47.00786" lon="-1.77311">
        <ele>76</ele>
        <time>2022-10-22T13:05:50Z</time>
      </trkpt>
      <trkpt lat="47.00795" lon="-1.77305">
        <ele>74</ele>
        <time>2022-10-22T13:05:52Z</time>
      </trkpt>
      <trkpt lat="47.00804" lon="-1.77298">
        <ele>74</ele>
        <time>2022-10-22T13:05:54Z</time>
      </trkpt>
      <trkpt lat="47.00813" lon="-1.77293">
        <ele>75</ele>
        <time>2022-10-22T13:05:56Z</time>
      </trkpt>
      <trkpt lat="47.00823" lon="-1.77287">
        <ele>74</ele>
        <time>2022-10-22T13:05:58Z</time>
      </trkpt>
      <trkpt lat="47.00832" lon="-1.77281">
        <ele>74</ele>
        <time>2022-10-22T13:06:00Z</time>
      </trkpt>
      <trkpt lat="47.00842" lon="-1.77275">
        <ele>74</ele>
        <time>2022-10-22T13:06:02Z</time>
      </trkpt>
      <trkpt lat="47.00851" lon="-1.7727">
        <ele>74</ele>
        <time>2022-10-22T13:06:04Z</time>
      </trkpt>
      <trkpt lat="47.0086" lon="-1.77264">
        <ele>74</ele>
        <time>2022-10-22T13:06:06Z</time>
      </trkpt>
      <trkpt lat="47.0087" lon="-1.77256">
        <ele>73</ele>
        <time>2022-10-22T13:06:08Z</time>
      </trkpt>
      <trkpt lat="47.00878" lon="-1.77246">
        <ele>73</ele>
        <time>2022-10-22T13:06:10Z</time>
      </trkpt>
      <trkpt lat="47.00887" lon="-1.77238">
        <ele>73</ele>
        <time>2022-10-22T13:06:12Z</time>
      </trkpt>
      <trkpt lat="47.00896" lon="-1.77229">
        <ele>72</ele>
        <time>2022-10-22T13:06:14Z</time>
      </trkpt>
      <trkpt lat="47.00905" lon="-1.77219">
        <ele>71</ele>
        <time>2022-10-22T13:06:16Z</time>
      </trkpt>
      <trkpt lat="47.00914" lon="-1.77209">
        <ele>70</ele>
        <time>2022-10-22T13:06:18Z</time>
      </trkpt>
      <trkpt lat="47.00924" lon="-1.77199">
        <ele>70</ele>
        <time>2022-10-22T13:06:20Z</time>
      </trkpt>
      <trkpt lat="47.00932" lon="-1.77191">
        <ele>70</ele>
        <time>2022-10-22T13:06:22Z</time>
      </trkpt>
      <trkpt lat="47.00941" lon="-1.77182">
        <ele>69</ele>
        <time>2022-10-22T13:06:24Z</time>
      </trkpt>
      <trkpt lat="47.00948" lon="-1.77174">
        <ele>69</ele>
        <time>2022-10-22T13:06:26Z</time>
      </trkpt>
      <trkpt lat="47.00955" lon="-1.77165">
        <ele>68</ele>
        <time>2022-10-22T13:06:28Z</time>
      </trkpt>
      <trkpt lat="47.00964" lon="-1.77156">
        <ele>68</ele>
        <time>2022-10-22T13:06:31Z</time>
      </trkpt>
      <trkpt lat="47.00972" lon="-1.77148">
        <ele>68</ele>
        <time>2022-10-22T13:06:33Z</time>
      </trkpt>
      <trkpt lat="47.0098" lon="-1.77139">
        <ele>68</ele>
        <time>2022-10-22T13:06:35Z</time>
      </trkpt>
      <trkpt lat="47.00989" lon="-1.77131">
        <ele>68</ele>
        <time>2022-10-22T13:06:37Z</time>
      </trkpt>
      <trkpt lat="47.00997" lon="-1.77122">
        <ele>68</ele>
        <time>2022-10-22T13:06:39Z</time>
      </trkpt>
      <trkpt lat="47.01006" lon="-1.77113">
        <ele>68</ele>
        <time>2022-10-22T13:06:41Z</time>
      </trkpt>
      <trkpt lat="47.01015" lon="-1.77104">
        <ele>68</ele>
        <time>2022-10-22T13:06:43Z</time>
      </trkpt>
      <trkpt lat="47.01023" lon="-1.77095">
        <ele>68</ele>
        <time>2022-10-22T13:06:45Z</time>
      </trkpt>
      <trkpt lat="47.01031" lon="-1.77086">
        <ele>68</ele>
        <time>2022-10-22T13:06:47Z</time>
      </trkpt>
      <trkpt lat="47.01039" lon="-1.77077">
        <ele>69</ele>
        <time>2022-10-22T13:06:49Z</time>
      </trkpt>
      <trkpt lat="47.01048" lon="-1.77067">
        <ele>69</ele>
        <time>2022-10-22T13:06:51Z</time>
      </trkpt>
      <trkpt lat="47.01056" lon="-1.77057">
        <ele>69</ele>
        <time>2022-10-22T13:06:53Z</time>
      </trkpt>
      <trkpt lat="47.01065" lon="-1.77048">
        <ele>69</ele>
        <time>2022-10-22T13:06:55Z</time>
      </trkpt>
      <trkpt lat="47.01073" lon="-1.77038">
        <ele>68</ele>
        <time>2022-10-22T13:06:57Z</time>
      </trkpt>
      <trkpt lat="47.01081" lon="-1.77029">
        <ele>69</ele>
        <time>2022-10-22T13:06:59Z</time>
      </trkpt>
      <trkpt lat="47.01089" lon="-1.7702">
        <ele>69</ele>
        <time>2022-10-22T13:07:01Z</time>
      </trkpt>
      <trkpt lat="47.01097" lon="-1.77011">
        <ele>70</ele>
        <time>2022-10-22T13:07:03Z</time>
      </trkpt>
      <trkpt lat="47.01105" lon="-1.77002">
        <ele>70</ele>
        <time>2022-10-22T13:07:05Z</time>
      </trkpt>
      <trkpt lat="47.01113" lon="-1.76993">
        <ele>71</ele>
        <time>2022-10-22T13:07:07Z</time>
      </trkpt>
      <trkpt lat="47.01121" lon="-1.76984">
        <ele>71</ele>
        <time>2022-10-22T13:07:09Z</time>
      </trkpt>
      <trkpt lat="47.01128" lon="-1.76974">
        <ele>71</ele>
        <time>2022-10-22T13:07:11Z</time>
      </trkpt>
      <trkpt lat="47.01137" lon="-1.76965">
        <ele>71</ele>
        <time>2022-10-22T13:07:13Z</time>
      </trkpt>
      <trkpt lat="47.01145" lon="-1.76956">
        <ele>72</ele>
        <time>2022-10-22T13:07:15Z</time>
      </trkpt>
      <trkpt lat="47.01152" lon="-1.76946">
        <ele>72</ele>
        <time>2022-10-22T13:07:17Z</time>
      </trkpt>
      <trkpt lat="47.0116" lon="-1.76936">
        <ele>72</ele>
        <time>2022-10-22T13:07:19Z</time>
      </trkpt>
      <trkpt lat="47.01168" lon="-1.76927">
        <ele>72</ele>
        <time>2022-10-22T13:07:21Z</time>
      </trkpt>
      <trkpt lat="47.01176" lon="-1.76917">
        <ele>72</ele>
        <time>2022-10-22T13:07:23Z</time>
      </trkpt>
      <trkpt lat="47.01185" lon="-1.76907">
        <ele>72</ele>
        <time>2022-10-22T13:07:25Z</time>
      </trkpt>
      <trkpt lat="47.01193" lon="-1.76898">
        <ele>72</ele>
        <time>2022-10-22T13:07:27Z</time>
      </trkpt>
      <trkpt lat="47.01202" lon="-1.7689">
        <ele>72</ele>
        <time>2022-10-22T13:07:29Z</time>
      </trkpt>
      <trkpt lat="47.01211" lon="-1.76883">
        <ele>72</ele>
        <time>2022-10-22T13:07:31Z</time>
      </trkpt>
      <trkpt lat="47.01219" lon="-1.76875">
        <ele>73</ele>
        <time>2022-10-22T13:07:33Z</time>
      </trkpt>
      <trkpt lat="47.01229" lon="-1.76868">
        <ele>73</ele>
        <time>2022-10-22T13:07:35Z</time>
      </trkpt>
      <trkpt lat="47.01238" lon="-1.76861">
        <ele>73</ele>
        <time>2022-10-22T13:07:37Z</time>
      </trkpt>
      <trkpt lat="47.01247" lon="-1.76854">
        <ele>73</ele>
        <time>2022-10-22T13:07:39Z</time>
      </trkpt>
      <trkpt lat="47.01256" lon="-1.76846">
        <ele>73</ele>
        <time>2022-10-22T13:07:41Z</time>
      </trkpt>
      <trkpt lat="47.01265" lon="-1.76838">
        <ele>73</ele>
        <time>2022-10-22T13:07:43Z</time>
      </trkpt>
      <trkpt lat="47.01274" lon="-1.76829">
        <ele>73</ele>
        <time>2022-10-22T13:07:45Z</time>
      </trkpt>
      <trkpt lat="47.01283" lon="-1.76819">
        <ele>73</ele>
        <time>2022-10-22T13:07:47Z</time>
      </trkpt>
      <trkpt lat="47.01291" lon="-1.76808">
        <ele>73</ele>
        <time>2022-10-22T13:07:49Z</time>
      </trkpt>
      <trkpt lat="47.01298" lon="-1.76798">
        <ele>73</ele>
        <time>2022-10-22T13:07:51Z</time>
      </trkpt>
      <trkpt lat="47.01305" lon="-1.76789">
        <ele>73</ele>
        <time>2022-10-22T13:07:53Z</time>
      </trkpt>
      <trkpt lat="47.01312" lon="-1.76779">
        <ele>73</ele>
        <time>2022-10-22T13:07:55Z</time>
      </trkpt>
      <trkpt lat="47.01318" lon="-1.76768">
        <ele>74</ele>
        <time>2022-10-22T13:07:57Z</time>
      </trkpt>
      <trkpt lat="47.01324" lon="-1.76758">
        <ele>74</ele>
        <time>2022-10-22T13:07:59Z</time>
      </trkpt>
      <trkpt lat="47.0133" lon="-1.76746">
        <ele>74</ele>
        <time>2022-10-22T13:08:01Z</time>
      </trkpt>
      <trkpt lat="47.01337" lon="-1.76735">
        <ele>75</ele>
        <time>2022-10-22T13:08:03Z</time>
      </trkpt>
      <trkpt lat="47.01343" lon="-1.76724">
        <ele>75</ele>
        <time>2022-10-22T13:08:05Z</time>
      </trkpt>
      <trkpt lat="47.01349" lon="-1.76712">
        <ele>75</ele>
        <time>2022-10-22T13:08:07Z</time>
      </trkpt>
      <trkpt lat="47.01354" lon="-1.76699">
        <ele>75</ele>
        <time>2022-10-22T13:08:09Z</time>
      </trkpt>
      <trkpt lat="47.01358" lon="-1.76686">
        <ele>75</ele>
        <time>2022-10-22T13:08:11Z</time>
      </trkpt>
      <trkpt lat="47.01362" lon="-1.76671">
        <ele>74</ele>
        <time>2022-10-22T13:08:13Z</time>
      </trkpt>
      <trkpt lat="47.01366" lon="-1.76656">
        <ele>74</ele>
        <time>2022-10-22T13:08:15Z</time>
      </trkpt>
      <trkpt lat="47.01369" lon="-1.76641">
        <ele>74</ele>
        <time>2022-10-22T13:08:17Z</time>
      </trkpt>
      <trkpt lat="47.01372" lon="-1.76625">
        <ele>74</ele>
        <time>2022-10-22T13:08:19Z</time>
      </trkpt>
      <trkpt lat="47.01376" lon="-1.7661">
        <ele>75</ele>
        <time>2022-10-22T13:08:21Z</time>
      </trkpt>
      <trkpt lat="47.01379" lon="-1.76595">
        <ele>75</ele>
        <time>2022-10-22T13:08:23Z</time>
      </trkpt>
      <trkpt lat="47.01382" lon="-1.7658">
        <ele>75</ele>
        <time>2022-10-22T13:08:25Z</time>
      </trkpt>
      <trkpt lat="47.01385" lon="-1.76565">
        <ele>75</ele>
        <time>2022-10-22T13:08:27Z</time>
      </trkpt>
      <trkpt lat="47.01388" lon="-1.7655">
        <ele>75</ele>
        <time>2022-10-22T13:08:29Z</time>
      </trkpt>
      <trkpt lat="47.01391" lon="-1.76534">
        <ele>75</ele>
        <time>2022-10-22T13:08:31Z</time>
      </trkpt>
      <trkpt lat="47.01394" lon="-1.76519">
        <ele>75</ele>
        <time>2022-10-22T13:08:33Z</time>
      </trkpt>
      <trkpt lat="47.01399" lon="-1.76503">
        <ele>75</ele>
        <time>2022-10-22T13:08:35Z</time>
      </trkpt>
      <trkpt lat="47.01403" lon="-1.76488">
        <ele>74</ele>
        <time>2022-10-22T13:08:37Z</time>
      </trkpt>
      <trkpt lat="47.01408" lon="-1.76473">
        <ele>74</ele>
        <time>2022-10-22T13:08:39Z</time>
      </trkpt>
      <trkpt lat="47.01415" lon="-1.76459">
        <ele>74</ele>
        <time>2022-10-22T13:08:41Z</time>
      </trkpt>
      <trkpt lat="47.01421" lon="-1.76444">
        <ele>74</ele>
        <time>2022-10-22T13:08:43Z</time>
      </trkpt>
      <trkpt lat="47.01428" lon="-1.7643">
        <ele>73</ele>
        <time>2022-10-22T13:08:45Z</time>
      </trkpt>
      <trkpt lat="47.01435" lon="-1.76415">
        <ele>73</ele>
        <time>2022-10-22T13:08:47Z</time>
      </trkpt>
      <trkpt lat="47.01443" lon="-1.764">
        <ele>73</ele>
        <time>2022-10-22T13:08:49Z</time>
      </trkpt>
      <trkpt lat="47.0145" lon="-1.76385">
        <ele>73</ele>
        <time>2022-10-22T13:08:51Z</time>
      </trkpt>
      <trkpt lat="47.01457" lon="-1.76369">
        <ele>73</ele>
        <time>2022-10-22T13:08:53Z</time>
      </trkpt>
      <trkpt lat="47.01465" lon="-1.76354">
        <ele>73</ele>
        <time>2022-10-22T13:08:55Z</time>
      </trkpt>
      <trkpt lat="47.01472" lon="-1.76338">
        <ele>73</ele>
        <time>2022-10-22T13:08:57Z</time>
      </trkpt>
      <trkpt lat="47.0148" lon="-1.76322">
        <ele>73</ele>
        <time>2022-10-22T13:08:59Z</time>
      </trkpt>
      <trkpt lat="47.01487" lon="-1.76306">
        <ele>73</ele>
        <time>2022-10-22T13:09:01Z</time>
      </trkpt>
      <trkpt lat="47.01494" lon="-1.76291">
        <ele>73</ele>
        <time>2022-10-22T13:09:03Z</time>
      </trkpt>
      <trkpt lat="47.01501" lon="-1.76275">
        <ele>72</ele>
        <time>2022-10-22T13:09:05Z</time>
      </trkpt>
      <trkpt lat="47.01507" lon="-1.76259">
        <ele>72</ele>
        <time>2022-10-22T13:09:07Z</time>
      </trkpt>
      <trkpt lat="47.01513" lon="-1.76242">
        <ele>72</ele>
        <time>2022-10-22T13:09:09Z</time>
      </trkpt>
      <trkpt lat="47.0152" lon="-1.76225">
        <ele>72</ele>
        <time>2022-10-22T13:09:11Z</time>
      </trkpt>
      <trkpt lat="47.01529" lon="-1.76202">
        <ele>72</ele>
        <time>2022-10-22T13:09:14Z</time>
      </trkpt>
      <trkpt lat="47.01536" lon="-1.76186">
        <ele>72</ele>
        <time>2022-10-22T13:09:16Z</time>
      </trkpt>
      <trkpt lat="47.01544" lon="-1.76173">
        <ele>72</ele>
        <time>2022-10-22T13:09:18Z</time>
      </trkpt>
      <trkpt lat="47.01554" lon="-1.76161">
        <ele>72</ele>
        <time>2022-10-22T13:09:20Z</time>
      </trkpt>
      <trkpt lat="47.01564" lon="-1.7615">
        <ele>72</ele>
        <time>2022-10-22T13:09:22Z</time>
      </trkpt>
      <trkpt lat="47.01575" lon="-1.76141">
        <ele>72</ele>
        <time>2022-10-22T13:09:24Z</time>
      </trkpt>
      <trkpt lat="47.01585" lon="-1.76132">
        <ele>72</ele>
        <time>2022-10-22T13:09:26Z</time>
      </trkpt>
      <trkpt lat="47.016" lon="-1.76119">
        <ele>72</ele>
        <time>2022-10-22T13:09:29Z</time>
      </trkpt>
      <trkpt lat="47.0161" lon="-1.7611">
        <ele>72</ele>
        <time>2022-10-22T13:09:31Z</time>
      </trkpt>
      <trkpt lat="47.01626" lon="-1.76096">
        <ele>73</ele>
        <time>2022-10-22T13:09:34Z</time>
      </trkpt>
      <trkpt lat="47.01637" lon="-1.76086">
        <ele>73</ele>
        <time>2022-10-22T13:09:36Z</time>
      </trkpt>
      <trkpt lat="47.01647" lon="-1.76077">
        <ele>73</ele>
        <time>2022-10-22T13:09:38Z</time>
      </trkpt>
      <trkpt lat="47.01657" lon="-1.7607">
        <ele>73</ele>
        <time>2022-10-22T13:09:40Z</time>
      </trkpt>
      <trkpt lat="47.01667" lon="-1.76061">
        <ele>73</ele>
        <time>2022-10-22T13:09:42Z</time>
      </trkpt>
      <trkpt lat="47.01682" lon="-1.76049">
        <ele>73</ele>
        <time>2022-10-22T13:09:45Z</time>
      </trkpt>
      <trkpt lat="47.01692" lon="-1.7604">
        <ele>73</ele>
        <time>2022-10-22T13:09:47Z</time>
      </trkpt>
      <trkpt lat="47.01702" lon="-1.7603">
        <ele>74</ele>
        <time>2022-10-22T13:09:49Z</time>
      </trkpt>
      <trkpt lat="47.01711" lon="-1.76019">
        <ele>73</ele>
        <time>2022-10-22T13:09:51Z</time>
      </trkpt>
      <trkpt lat="47.01719" lon="-1.76006">
        <ele>74</ele>
        <time>2022-10-22T13:09:53Z</time>
      </trkpt>
      <trkpt lat="47.01726" lon="-1.75994">
        <ele>74</ele>
        <time>2022-10-22T13:09:55Z</time>
      </trkpt>
      <trkpt lat="47.01734" lon="-1.75981">
        <ele>74</ele>
        <time>2022-10-22T13:09:57Z</time>
      </trkpt>
      <trkpt lat="47.01741" lon="-1.75968">
        <ele>74</ele>
        <time>2022-10-22T13:09:59Z</time>
      </trkpt>
      <trkpt lat="47.01749" lon="-1.75956">
        <ele>74</ele>
        <time>2022-10-22T13:10:01Z</time>
      </trkpt>
      <trkpt lat="47.01756" lon="-1.75943">
        <ele>74</ele>
        <time>2022-10-22T13:10:03Z</time>
      </trkpt>
      <trkpt lat="47.01763" lon="-1.75931">
        <ele>74</ele>
        <time>2022-10-22T13:10:05Z</time>
      </trkpt>
      <trkpt lat="47.0177" lon="-1.75918">
        <ele>75</ele>
        <time>2022-10-22T13:10:07Z</time>
      </trkpt>
      <trkpt lat="47.01777" lon="-1.75906">
        <ele>75</ele>
        <time>2022-10-22T13:10:09Z</time>
      </trkpt>
      <trkpt lat="47.01784" lon="-1.75894">
        <ele>75</ele>
        <time>2022-10-22T13:10:11Z</time>
      </trkpt>
      <trkpt lat="47.01791" lon="-1.75882">
        <ele>76</ele>
        <time>2022-10-22T13:10:13Z</time>
      </trkpt>
      <trkpt lat="47.01798" lon="-1.75871">
        <ele>76</ele>
        <time>2022-10-22T13:10:15Z</time>
      </trkpt>
      <trkpt lat="47.01804" lon="-1.75859">
        <ele>76</ele>
        <time>2022-10-22T13:10:17Z</time>
      </trkpt>
      <trkpt lat="47.01811" lon="-1.75847">
        <ele>76</ele>
        <time>2022-10-22T13:10:19Z</time>
      </trkpt>
      <trkpt lat="47.01818" lon="-1.75836">
        <ele>76</ele>
        <time>2022-10-22T13:10:21Z</time>
      </trkpt>
      <trkpt lat="47.01825" lon="-1.75825">
        <ele>76</ele>
        <time>2022-10-22T13:10:23Z</time>
      </trkpt>
      <trkpt lat="47.01831" lon="-1.75814">
        <ele>76</ele>
        <time>2022-10-22T13:10:25Z</time>
      </trkpt>
      <trkpt lat="47.01837" lon="-1.75803">
        <ele>77</ele>
        <time>2022-10-22T13:10:27Z</time>
      </trkpt>
      <trkpt lat="47.01844" lon="-1.75792">
        <ele>77</ele>
        <time>2022-10-22T13:10:29Z</time>
      </trkpt>
      <trkpt lat="47.01851" lon="-1.7578">
        <ele>77</ele>
        <time>2022-10-22T13:10:31Z</time>
      </trkpt>
      <trkpt lat="47.01857" lon="-1.7577">
        <ele>78</ele>
        <time>2022-10-22T13:10:33Z</time>
      </trkpt>
      <trkpt lat="47.01863" lon="-1.75759">
        <ele>78</ele>
        <time>2022-10-22T13:10:35Z</time>
      </trkpt>
      <trkpt lat="47.0187" lon="-1.75748">
        <ele>78</ele>
        <time>2022-10-22T13:10:37Z</time>
      </trkpt>
      <trkpt lat="47.01876" lon="-1.75737">
        <ele>78</ele>
        <time>2022-10-22T13:10:39Z</time>
      </trkpt>
      <trkpt lat="47.01882" lon="-1.75726">
        <ele>78</ele>
        <time>2022-10-22T13:10:41Z</time>
      </trkpt>
      <trkpt lat="47.01888" lon="-1.75715">
        <ele>79</ele>
        <time>2022-10-22T13:10:43Z</time>
      </trkpt>
      <trkpt lat="47.01895" lon="-1.75703">
        <ele>79</ele>
        <time>2022-10-22T13:10:45Z</time>
      </trkpt>
      <trkpt lat="47.01902" lon="-1.75692">
        <ele>79</ele>
        <time>2022-10-22T13:10:47Z</time>
      </trkpt>
      <trkpt lat="47.01908" lon="-1.75681">
        <ele>79</ele>
        <time>2022-10-22T13:10:49Z</time>
      </trkpt>
      <trkpt lat="47.01915" lon="-1.75669">
        <ele>79</ele>
        <time>2022-10-22T13:10:51Z</time>
      </trkpt>
      <trkpt lat="47.01921" lon="-1.75658">
        <ele>79</ele>
        <time>2022-10-22T13:10:53Z</time>
      </trkpt>
      <trkpt lat="47.01929" lon="-1.75646">
        <ele>79</ele>
        <time>2022-10-22T13:10:55Z</time>
      </trkpt>
      <trkpt lat="47.01935" lon="-1.75634">
        <ele>79</ele>
        <time>2022-10-22T13:10:57Z</time>
      </trkpt>
      <trkpt lat="47.01942" lon="-1.75622">
        <ele>79</ele>
        <time>2022-10-22T13:10:59Z</time>
      </trkpt>
      <trkpt lat="47.01949" lon="-1.75609">
        <ele>79</ele>
        <time>2022-10-22T13:11:01Z</time>
      </trkpt>
      <trkpt lat="47.01956" lon="-1.75596">
        <ele>78</ele>
        <time>2022-10-22T13:11:03Z</time>
      </trkpt>
      <trkpt lat="47.01964" lon="-1.75583">
        <ele>78</ele>
        <time>2022-10-22T13:11:05Z</time>
      </trkpt>
      <trkpt lat="47.01972" lon="-1.7557">
        <ele>78</ele>
        <time>2022-10-22T13:11:07Z</time>
      </trkpt>
      <trkpt lat="47.0198" lon="-1.75557">
        <ele>77</ele>
        <time>2022-10-22T13:11:09Z</time>
      </trkpt>
      <trkpt lat="47.01987" lon="-1.75543">
        <ele>77</ele>
        <time>2022-10-22T13:11:11Z</time>
      </trkpt>
      <trkpt lat="47.01995" lon="-1.7553">
        <ele>77</ele>
        <time>2022-10-22T13:11:13Z</time>
      </trkpt>
      <trkpt lat="47.02003" lon="-1.75517">
        <ele>77</ele>
        <time>2022-10-22T13:11:15Z</time>
      </trkpt>
      <trkpt lat="47.02011" lon="-1.75503">
        <ele>77</ele>
        <time>2022-10-22T13:11:17Z</time>
      </trkpt>
      <trkpt lat="47.02019" lon="-1.7549">
        <ele>77</ele>
        <time>2022-10-22T13:11:19Z</time>
      </trkpt>
      <trkpt lat="47.02026" lon="-1.75476">
        <ele>77</ele>
        <time>2022-10-22T13:11:21Z</time>
      </trkpt>
      <trkpt lat="47.02034" lon="-1.75462">
        <ele>77</ele>
        <time>2022-10-22T13:11:23Z</time>
      </trkpt>
      <trkpt lat="47.02041" lon="-1.75447">
        <ele>77</ele>
        <time>2022-10-22T13:11:25Z</time>
      </trkpt>
      <trkpt lat="47.02048" lon="-1.75433">
        <ele>77</ele>
        <time>2022-10-22T13:11:27Z</time>
      </trkpt>
      <trkpt lat="47.02053" lon="-1.75417">
        <ele>77</ele>
        <time>2022-10-22T13:11:29Z</time>
      </trkpt>
      <trkpt lat="47.02058" lon="-1.75401">
        <ele>76</ele>
        <time>2022-10-22T13:11:31Z</time>
      </trkpt>
      <trkpt lat="47.02062" lon="-1.75385">
        <ele>77</ele>
        <time>2022-10-22T13:11:33Z</time>
      </trkpt>
      <trkpt lat="47.02066" lon="-1.75369">
        <ele>77</ele>
        <time>2022-10-22T13:11:35Z</time>
      </trkpt>
      <trkpt lat="47.02068" lon="-1.75353">
        <ele>76</ele>
        <time>2022-10-22T13:11:37Z</time>
      </trkpt>
      <trkpt lat="47.02071" lon="-1.75336">
        <ele>77</ele>
        <time>2022-10-22T13:11:39Z</time>
      </trkpt>
      <trkpt lat="47.02074" lon="-1.75319">
        <ele>77</ele>
        <time>2022-10-22T13:11:41Z</time>
      </trkpt>
      <trkpt lat="47.02077" lon="-1.75302">
        <ele>77</ele>
        <time>2022-10-22T13:11:43Z</time>
      </trkpt>
      <trkpt lat="47.0208" lon="-1.75285">
        <ele>77</ele>
        <time>2022-10-22T13:11:45Z</time>
      </trkpt>
      <trkpt lat="47.02084" lon="-1.75268">
        <ele>77</ele>
        <time>2022-10-22T13:11:47Z</time>
      </trkpt>
      <trkpt lat="47.02087" lon="-1.75251">
        <ele>77</ele>
        <time>2022-10-22T13:11:49Z</time>
      </trkpt>
      <trkpt lat="47.0209" lon="-1.75233">
        <ele>77</ele>
        <time>2022-10-22T13:11:51Z</time>
      </trkpt>
      <trkpt lat="47.02093" lon="-1.75217">
        <ele>77</ele>
        <time>2022-10-22T13:11:53Z</time>
      </trkpt>
      <trkpt lat="47.02096" lon="-1.75201">
        <ele>77</ele>
        <time>2022-10-22T13:11:55Z</time>
      </trkpt>
      <trkpt lat="47.02099" lon="-1.75186">
        <ele>77</ele>
        <time>2022-10-22T13:11:57Z</time>
      </trkpt>
      <trkpt lat="47.02102" lon="-1.7517">
        <ele>77</ele>
        <time>2022-10-22T13:11:59Z</time>
      </trkpt>
      <trkpt lat="47.02105" lon="-1.75154">
        <ele>78</ele>
        <time>2022-10-22T13:12:01Z</time>
      </trkpt>
      <trkpt lat="47.02108" lon="-1.75138">
        <ele>77</ele>
        <time>2022-10-22T13:12:03Z</time>
      </trkpt>
      <trkpt lat="47.02111" lon="-1.75122">
        <ele>77</ele>
        <time>2022-10-22T13:12:05Z</time>
      </trkpt>
      <trkpt lat="47.02114" lon="-1.75107">
        <ele>77</ele>
        <time>2022-10-22T13:12:07Z</time>
      </trkpt>
      <trkpt lat="47.02117" lon="-1.75091">
        <ele>77</ele>
        <time>2022-10-22T13:12:09Z</time>
      </trkpt>
      <trkpt lat="47.02119" lon="-1.75076">
        <ele>77</ele>
        <time>2022-10-22T13:12:11Z</time>
      </trkpt>
      <trkpt lat="47.02122" lon="-1.75061">
        <ele>77</ele>
        <time>2022-10-22T13:12:13Z</time>
      </trkpt>
      <trkpt lat="47.02125" lon="-1.75045">
        <ele>77</ele>
        <time>2022-10-22T13:12:15Z</time>
      </trkpt>
      <trkpt lat="47.02128" lon="-1.7503">
        <ele>77</ele>
        <time>2022-10-22T13:12:17Z</time>
      </trkpt>
      <trkpt lat="47.0213" lon="-1.75016">
        <ele>77</ele>
        <time>2022-10-22T13:12:19Z</time>
      </trkpt>
      <trkpt lat="47.02133" lon="-1.75001">
        <ele>77</ele>
        <time>2022-10-22T13:12:21Z</time>
      </trkpt>
      <trkpt lat="47.02135" lon="-1.74986">
        <ele>78</ele>
        <time>2022-10-22T13:12:23Z</time>
      </trkpt>
      <trkpt lat="47.02138" lon="-1.74971">
        <ele>77</ele>
        <time>2022-10-22T13:12:25Z</time>
      </trkpt>
      <trkpt lat="47.0214" lon="-1.74955">
        <ele>77</ele>
        <time>2022-10-22T13:12:27Z</time>
      </trkpt>
      <trkpt lat="47.02143" lon="-1.7494">
        <ele>77</ele>
        <time>2022-10-22T13:12:29Z</time>
      </trkpt>
      <trkpt lat="47.02146" lon="-1.74924">
        <ele>78</ele>
        <time>2022-10-22T13:12:31Z</time>
      </trkpt>
      <trkpt lat="47.02148" lon="-1.74908">
        <ele>78</ele>
        <time>2022-10-22T13:12:33Z</time>
      </trkpt>
      <trkpt lat="47.02151" lon="-1.74892">
        <ele>78</ele>
        <time>2022-10-22T13:12:35Z</time>
      </trkpt>
      <trkpt lat="47.02154" lon="-1.74877">
        <ele>78</ele>
        <time>2022-10-22T13:12:37Z</time>
      </trkpt>
      <trkpt lat="47.02157" lon="-1.74862">
        <ele>79</ele>
        <time>2022-10-22T13:12:39Z</time>
      </trkpt>
      <trkpt lat="47.02161" lon="-1.74846">
        <ele>79</ele>
        <time>2022-10-22T13:12:41Z</time>
      </trkpt>
      <trkpt lat="47.02165" lon="-1.74831">
        <ele>80</ele>
        <time>2022-10-22T13:12:43Z</time>
      </trkpt>
      <trkpt lat="47.02167" lon="-1.74817">
        <ele>80</ele>
        <time>2022-10-22T13:12:45Z</time>
      </trkpt>
      <trkpt lat="47.02171" lon="-1.74805">
        <ele>80</ele>
        <time>2022-10-22T13:12:47Z</time>
      </trkpt>
      <trkpt lat="47.02174" lon="-1.74791">
        <ele>80</ele>
        <time>2022-10-22T13:12:49Z</time>
      </trkpt>
      <trkpt lat="47.02178" lon="-1.74777">
        <ele>80</ele>
        <time>2022-10-22T13:12:51Z</time>
      </trkpt>
      <trkpt lat="47.02181" lon="-1.74762">
        <ele>81</ele>
        <time>2022-10-22T13:12:53Z</time>
      </trkpt>
      <trkpt lat="47.02185" lon="-1.74748">
        <ele>82</ele>
        <time>2022-10-22T13:12:55Z</time>
      </trkpt>
      <trkpt lat="47.02188" lon="-1.74732">
        <ele>84</ele>
        <time>2022-10-22T13:12:57Z</time>
      </trkpt>
      <trkpt lat="47.0219" lon="-1.74715">
        <ele>85</ele>
        <time>2022-10-22T13:12:59Z</time>
      </trkpt>
      <trkpt lat="47.02192" lon="-1.74698">
        <ele>87</ele>
        <time>2022-10-22T13:13:01Z</time>
      </trkpt>
      <trkpt lat="47.02194" lon="-1.74682">
        <ele>88</ele>
        <time>2022-10-22T13:13:03Z</time>
      </trkpt>
      <trkpt lat="47.02197" lon="-1.74666">
        <ele>88</ele>
        <time>2022-10-22T13:13:05Z</time>
      </trkpt>
      <trkpt lat="47.022" lon="-1.7465">
        <ele>89</ele>
        <time>2022-10-22T13:13:07Z</time>
      </trkpt>
      <trkpt lat="47.02203" lon="-1.74635">
        <ele>89</ele>
        <time>2022-10-22T13:13:09Z</time>
      </trkpt>
      <trkpt lat="47.02204" lon="-1.74619">
        <ele>90</ele>
        <time>2022-10-22T13:13:11Z</time>
      </trkpt>
      <trkpt lat="47.02207" lon="-1.74604">
        <ele>90</ele>
        <time>2022-10-22T13:13:13Z</time>
      </trkpt>
      <trkpt lat="47.02209" lon="-1.74587">
        <ele>90</ele>
        <time>2022-10-22T13:13:15Z</time>
      </trkpt>
      <trkpt lat="47.02211" lon="-1.7457">
        <ele>91</ele>
        <time>2022-10-22T13:13:17Z</time>
      </trkpt>
      <trkpt lat="47.02214" lon="-1.74555">
        <ele>92</ele>
        <time>2022-10-22T13:13:19Z</time>
      </trkpt>
      <trkpt lat="47.02216" lon="-1.74539">
        <ele>92</ele>
        <time>2022-10-22T13:13:21Z</time>
      </trkpt>
      <trkpt lat="47.02219" lon="-1.74521">
        <ele>93</ele>
        <time>2022-10-22T13:13:23Z</time>
      </trkpt>
      <trkpt lat="47.02222" lon="-1.74503">
        <ele>94</ele>
        <time>2022-10-22T13:13:25Z</time>
      </trkpt>
      <trkpt lat="47.02225" lon="-1.74485">
        <ele>95</ele>
        <time>2022-10-22T13:13:27Z</time>
      </trkpt>
      <trkpt lat="47.02228" lon="-1.74469">
        <ele>95</ele>
        <time>2022-10-22T13:13:29Z</time>
      </trkpt>
      <trkpt lat="47.0223" lon="-1.74453">
        <ele>95</ele>
        <time>2022-10-22T13:13:31Z</time>
      </trkpt>
      <trkpt lat="47.02232" lon="-1.74435">
        <ele>96</ele>
        <time>2022-10-22T13:13:33Z</time>
      </trkpt>
      <trkpt lat="47.02235" lon="-1.74417">
        <ele>97</ele>
        <time>2022-10-22T13:13:35Z</time>
      </trkpt>
      <trkpt lat="47.02238" lon="-1.74398">
        <ele>97</ele>
        <time>2022-10-22T13:13:37Z</time>
      </trkpt>
      <trkpt lat="47.02241" lon="-1.7438">
        <ele>97</ele>
        <time>2022-10-22T13:13:39Z</time>
      </trkpt>
      <trkpt lat="47.02244" lon="-1.74362">
        <ele>98</ele>
        <time>2022-10-22T13:13:41Z</time>
      </trkpt>
      <trkpt lat="47.02247" lon="-1.74344">
        <ele>98</ele>
        <time>2022-10-22T13:13:43Z</time>
      </trkpt>
      <trkpt lat="47.0225" lon="-1.74325">
        <ele>97</ele>
        <time>2022-10-22T13:13:45Z</time>
      </trkpt>
      <trkpt lat="47.02252" lon="-1.74307">
        <ele>97</ele>
        <time>2022-10-22T13:13:47Z</time>
      </trkpt>
      <trkpt lat="47.02255" lon="-1.74288">
        <ele>97</ele>
        <time>2022-10-22T13:13:49Z</time>
      </trkpt>
      <trkpt lat="47.02258" lon="-1.74269">
        <ele>96</ele>
        <time>2022-10-22T13:13:51Z</time>
      </trkpt>
      <trkpt lat="47.02262" lon="-1.74252">
        <ele>95</ele>
        <time>2022-10-22T13:13:53Z</time>
      </trkpt>
      <trkpt lat="47.02264" lon="-1.74234">
        <ele>95</ele>
        <time>2022-10-22T13:13:55Z</time>
      </trkpt>
      <trkpt lat="47.02266" lon="-1.74217">
        <ele>94</ele>
        <time>2022-10-22T13:13:57Z</time>
      </trkpt>
      <trkpt lat="47.02268" lon="-1.74201">
        <ele>93</ele>
        <time>2022-10-22T13:13:59Z</time>
      </trkpt>
      <trkpt lat="47.0227" lon="-1.74185">
        <ele>92</ele>
        <time>2022-10-22T13:14:01Z</time>
      </trkpt>
      <trkpt lat="47.02272" lon="-1.74167">
        <ele>92</ele>
        <time>2022-10-22T13:14:03Z</time>
      </trkpt>
      <trkpt lat="47.02275" lon="-1.7415">
        <ele>91</ele>
        <time>2022-10-22T13:14:05Z</time>
      </trkpt>
      <trkpt lat="47.02277" lon="-1.74133">
        <ele>90</ele>
        <time>2022-10-22T13:14:07Z</time>
      </trkpt>
      <trkpt lat="47.0228" lon="-1.74115">
        <ele>89</ele>
        <time>2022-10-22T13:14:09Z</time>
      </trkpt>
      <trkpt lat="47.02282" lon="-1.74098">
        <ele>88</ele>
        <time>2022-10-22T13:14:11Z</time>
      </trkpt>
      <trkpt lat="47.02284" lon="-1.74081">
        <ele>88</ele>
        <time>2022-10-22T13:14:13Z</time>
      </trkpt>
      <trkpt lat="47.02286" lon="-1.74063">
        <ele>87</ele>
        <time>2022-10-22T13:14:15Z</time>
      </trkpt>
      <trkpt lat="47.02287" lon="-1.74046">
        <ele>87</ele>
        <time>2022-10-22T13:14:17Z</time>
      </trkpt>
      <trkpt lat="47.02286" lon="-1.74029">
        <ele>87</ele>
        <time>2022-10-22T13:14:19Z</time>
      </trkpt>
      <trkpt lat="47.02286" lon="-1.74014">
        <ele>87</ele>
        <time>2022-10-22T13:14:21Z</time>
      </trkpt>
      <trkpt lat="47.02285" lon="-1.73997">
        <ele>88</ele>
        <time>2022-10-22T13:14:23Z</time>
      </trkpt>
      <trkpt lat="47.02284" lon="-1.73981">
        <ele>88</ele>
        <time>2022-10-22T13:14:25Z</time>
      </trkpt>
      <trkpt lat="47.02283" lon="-1.73964">
        <ele>88</ele>
        <time>2022-10-22T13:14:27Z</time>
      </trkpt>
      <trkpt lat="47.02282" lon="-1.73947">
        <ele>88</ele>
        <time>2022-10-22T13:14:29Z</time>
      </trkpt>
      <trkpt lat="47.02282" lon="-1.73929">
        <ele>88</ele>
        <time>2022-10-22T13:14:31Z</time>
      </trkpt>
      <trkpt lat="47.02281" lon="-1.73911">
        <ele>87</ele>
        <time>2022-10-22T13:14:33Z</time>
      </trkpt>
      <trkpt lat="47.02278" lon="-1.73893">
        <ele>86</ele>
        <time>2022-10-22T13:14:35Z</time>
      </trkpt>
      <trkpt lat="47.02276" lon="-1.73875">
        <ele>85</ele>
        <time>2022-10-22T13:14:37Z</time>
      </trkpt>
      <trkpt lat="47.02275" lon="-1.73858">
        <ele>85</ele>
        <time>2022-10-22T13:14:39Z</time>
      </trkpt>
      <trkpt lat="47.02275" lon="-1.7384">
        <ele>84</ele>
        <time>2022-10-22T13:14:41Z</time>
      </trkpt>
      <trkpt lat="47.02274" lon="-1.73823">
        <ele>84</ele>
        <time>2022-10-22T13:14:43Z</time>
      </trkpt>
      <trkpt lat="47.02274" lon="-1.73807">
        <ele>83</ele>
        <time>2022-10-22T13:14:45Z</time>
      </trkpt>
      <trkpt lat="47.02273" lon="-1.73792">
        <ele>82</ele>
        <time>2022-10-22T13:14:47Z</time>
      </trkpt>
      <trkpt lat="47.02273" lon="-1.73776">
        <ele>82</ele>
        <time>2022-10-22T13:14:49Z</time>
      </trkpt>
      <trkpt lat="47.02273" lon="-1.73759">
        <ele>81</ele>
        <time>2022-10-22T13:14:52Z</time>
      </trkpt>
      <trkpt lat="47.02277" lon="-1.73747">
        <ele>81</ele>
        <time>2022-10-22T13:14:55Z</time>
      </trkpt>
      <trkpt lat="47.02286" lon="-1.73745">
        <ele>80</ele>
        <time>2022-10-22T13:14:57Z</time>
      </trkpt>
      <trkpt lat="47.02296" lon="-1.73744">
        <ele>79</ele>
        <time>2022-10-22T13:14:59Z</time>
      </trkpt>
      <trkpt lat="47.02305" lon="-1.73743">
        <ele>79</ele>
        <time>2022-10-22T13:15:01Z</time>
      </trkpt>
      <trkpt lat="47.02315" lon="-1.73743">
        <ele>80</ele>
        <time>2022-10-22T13:15:03Z</time>
      </trkpt>
      <trkpt lat="47.02325" lon="-1.73741">
        <ele>80</ele>
        <time>2022-10-22T13:15:05Z</time>
      </trkpt>
      <trkpt lat="47.02335" lon="-1.7374">
        <ele>80</ele>
        <time>2022-10-22T13:15:07Z</time>
      </trkpt>
      <trkpt lat="47.02345" lon="-1.73738">
        <ele>80</ele>
        <time>2022-10-22T13:15:09Z</time>
      </trkpt>
      <trkpt lat="47.02356" lon="-1.73736">
        <ele>80</ele>
        <time>2022-10-22T13:15:11Z</time>
      </trkpt>
      <trkpt lat="47.02367" lon="-1.73735">
        <ele>80</ele>
        <time>2022-10-22T13:15:13Z</time>
      </trkpt>
      <trkpt lat="47.02378" lon="-1.73732">
        <ele>81</ele>
        <time>2022-10-22T13:15:15Z</time>
      </trkpt>
      <trkpt lat="47.02389" lon="-1.73729">
        <ele>81</ele>
        <time>2022-10-22T13:15:17Z</time>
      </trkpt>
      <trkpt lat="47.02399" lon="-1.73727">
        <ele>81</ele>
        <time>2022-10-22T13:15:19Z</time>
      </trkpt>
      <trkpt lat="47.0241" lon="-1.73725">
        <ele>81</ele>
        <time>2022-10-22T13:15:21Z</time>
      </trkpt>
      <trkpt lat="47.02421" lon="-1.73723">
        <ele>81</ele>
        <time>2022-10-22T13:15:23Z</time>
      </trkpt>
      <trkpt lat="47.02431" lon="-1.73722">
        <ele>81</ele>
        <time>2022-10-22T13:15:25Z</time>
      </trkpt>
      <trkpt lat="47.02442" lon="-1.7372">
        <ele>81</ele>
        <time>2022-10-22T13:15:27Z</time>
      </trkpt>
      <trkpt lat="47.02452" lon="-1.73718">
        <ele>81</ele>
        <time>2022-10-22T13:15:29Z</time>
      </trkpt>
      <trkpt lat="47.02463" lon="-1.73716">
        <ele>82</ele>
        <time>2022-10-22T13:15:31Z</time>
      </trkpt>
      <trkpt lat="47.02474" lon="-1.73715">
        <ele>82</ele>
        <time>2022-10-22T13:15:33Z</time>
      </trkpt>
      <trkpt lat="47.02484" lon="-1.73712">
        <ele>83</ele>
        <time>2022-10-22T13:15:35Z</time>
      </trkpt>
      <trkpt lat="47.02494" lon="-1.7371">
        <ele>83</ele>
        <time>2022-10-22T13:15:37Z</time>
      </trkpt>
      <trkpt lat="47.02505" lon="-1.73708">
        <ele>84</ele>
        <time>2022-10-22T13:15:39Z</time>
      </trkpt>
      <trkpt lat="47.02516" lon="-1.73707">
        <ele>84</ele>
        <time>2022-10-22T13:15:41Z</time>
      </trkpt>
      <trkpt lat="47.02527" lon="-1.73705">
        <ele>84</ele>
        <time>2022-10-22T13:15:43Z</time>
      </trkpt>
      <trkpt lat="47.02537" lon="-1.73702">
        <ele>84</ele>
        <time>2022-10-22T13:15:45Z</time>
      </trkpt>
      <trkpt lat="47.02548" lon="-1.73699">
        <ele>84</ele>
        <time>2022-10-22T13:15:47Z</time>
      </trkpt>
      <trkpt lat="47.02559" lon="-1.73697">
        <ele>85</ele>
        <time>2022-10-22T13:15:49Z</time>
      </trkpt>
      <trkpt lat="47.0257" lon="-1.73694">
        <ele>85</ele>
        <time>2022-10-22T13:15:51Z</time>
      </trkpt>
      <trkpt lat="47.02581" lon="-1.73692">
        <ele>86</ele>
        <time>2022-10-22T13:15:53Z</time>
      </trkpt>
      <trkpt lat="47.02592" lon="-1.7369">
        <ele>86</ele>
        <time>2022-10-22T13:15:55Z</time>
      </trkpt>
      <trkpt lat="47.02603" lon="-1.73688">
        <ele>86</ele>
        <time>2022-10-22T13:15:57Z</time>
      </trkpt>
      <trkpt lat="47.02613" lon="-1.73685">
        <ele>85</ele>
        <time>2022-10-22T13:15:59Z</time>
      </trkpt>
      <trkpt lat="47.02624" lon="-1.73683">
        <ele>85</ele>
        <time>2022-10-22T13:16:01Z</time>
      </trkpt>
      <trkpt lat="47.02635" lon="-1.7368">
        <ele>85</ele>
        <time>2022-10-22T13:16:03Z</time>
      </trkpt>
      <trkpt lat="47.02645" lon="-1.73678">
        <ele>85</ele>
        <time>2022-10-22T13:16:05Z</time>
      </trkpt>
      <trkpt lat="47.02655" lon="-1.73677">
        <ele>85</ele>
        <time>2022-10-22T13:16:07Z</time>
      </trkpt>
      <trkpt lat="47.02665" lon="-1.73675">
        <ele>85</ele>
        <time>2022-10-22T13:16:09Z</time>
      </trkpt>
      <trkpt lat="47.02675" lon="-1.73673">
        <ele>86</ele>
        <time>2022-10-22T13:16:11Z</time>
      </trkpt>
      <trkpt lat="47.02686" lon="-1.73671">
        <ele>86</ele>
        <time>2022-10-22T13:16:13Z</time>
      </trkpt>
      <trkpt lat="47.02696" lon="-1.73669">
        <ele>86</ele>
        <time>2022-10-22T13:16:15Z</time>
      </trkpt>
      <trkpt lat="47.02706" lon="-1.73667">
        <ele>86</ele>
        <time>2022-10-22T13:16:17Z</time>
      </trkpt>
      <trkpt lat="47.02716" lon="-1.73665">
        <ele>87</ele>
        <time>2022-10-22T13:16:19Z</time>
      </trkpt>
      <trkpt lat="47.02725" lon="-1.73664">
        <ele>87</ele>
        <time>2022-10-22T13:16:21Z</time>
      </trkpt>
      <trkpt lat="47.02735" lon="-1.73663">
        <ele>88</ele>
        <time>2022-10-22T13:16:23Z</time>
      </trkpt>
      <trkpt lat="47.02745" lon="-1.7366">
        <ele>89</ele>
        <time>2022-10-22T13:16:25Z</time>
      </trkpt>
      <trkpt lat="47.02754" lon="-1.73659">
        <ele>89</ele>
        <time>2022-10-22T13:16:27Z</time>
      </trkpt>
      <trkpt lat="47.02765" lon="-1.73657">
        <ele>89</ele>
        <time>2022-10-22T13:16:29Z</time>
      </trkpt>
      <trkpt lat="47.02776" lon="-1.73655">
        <ele>88</ele>
        <time>2022-10-22T13:16:31Z</time>
      </trkpt>
      <trkpt lat="47.02788" lon="-1.73654">
        <ele>88</ele>
        <time>2022-10-22T13:16:33Z</time>
      </trkpt>
      <trkpt lat="47.02799" lon="-1.73651">
        <ele>88</ele>
        <time>2022-10-22T13:16:35Z</time>
      </trkpt>
      <trkpt lat="47.0281" lon="-1.73648">
        <ele>88</ele>
        <time>2022-10-22T13:16:37Z</time>
      </trkpt>
      <trkpt lat="47.02821" lon="-1.73645">
        <ele>87</ele>
        <time>2022-10-22T13:16:39Z</time>
      </trkpt>
      <trkpt lat="47.02832" lon="-1.73643">
        <ele>87</ele>
        <time>2022-10-22T13:16:41Z</time>
      </trkpt>
      <trkpt lat="47.02842" lon="-1.7364">
        <ele>87</ele>
        <time>2022-10-22T13:16:43Z</time>
      </trkpt>
      <trkpt lat="47.02852" lon="-1.73638">
        <ele>86</ele>
        <time>2022-10-22T13:16:45Z</time>
      </trkpt>
      <trkpt lat="47.02862" lon="-1.73637">
        <ele>86</ele>
        <time>2022-10-22T13:16:47Z</time>
      </trkpt>
      <trkpt lat="47.02872" lon="-1.73635">
        <ele>86</ele>
        <time>2022-10-22T13:16:49Z</time>
      </trkpt>
      <trkpt lat="47.02883" lon="-1.73632">
        <ele>87</ele>
        <time>2022-10-22T13:16:51Z</time>
      </trkpt>
      <trkpt lat="47.02893" lon="-1.73629">
        <ele>87</ele>
        <time>2022-10-22T13:16:53Z</time>
      </trkpt>
      <trkpt lat="47.02904" lon="-1.73627">
        <ele>87</ele>
        <time>2022-10-22T13:16:55Z</time>
      </trkpt>
      <trkpt lat="47.02915" lon="-1.73624">
        <ele>87</ele>
        <time>2022-10-22T13:16:57Z</time>
      </trkpt>
      <trkpt lat="47.02925" lon="-1.73622">
        <ele>87</ele>
        <time>2022-10-22T13:16:59Z</time>
      </trkpt>
      <trkpt lat="47.02936" lon="-1.7362">
        <ele>87</ele>
        <time>2022-10-22T13:17:01Z</time>
      </trkpt>
      <trkpt lat="47.02946" lon="-1.73618">
        <ele>87</ele>
        <time>2022-10-22T13:17:03Z</time>
      </trkpt>
      <trkpt lat="47.02956" lon="-1.73616">
        <ele>87</ele>
        <time>2022-10-22T13:17:05Z</time>
      </trkpt>
      <trkpt lat="47.02967" lon="-1.73614">
        <ele>87</ele>
        <time>2022-10-22T13:17:07Z</time>
      </trkpt>
      <trkpt lat="47.02978" lon="-1.73612">
        <ele>87</ele>
        <time>2022-10-22T13:17:09Z</time>
      </trkpt>
      <trkpt lat="47.02988" lon="-1.7361">
        <ele>88</ele>
        <time>2022-10-22T13:17:11Z</time>
      </trkpt>
      <trkpt lat="47.02998" lon="-1.73609">
        <ele>88</ele>
        <time>2022-10-22T13:17:13Z</time>
      </trkpt>
      <trkpt lat="47.03008" lon="-1.73607">
        <ele>88</ele>
        <time>2022-10-22T13:17:15Z</time>
      </trkpt>
      <trkpt lat="47.03019" lon="-1.73605">
        <ele>88</ele>
        <time>2022-10-22T13:17:17Z</time>
      </trkpt>
      <trkpt lat="47.03029" lon="-1.73602">
        <ele>87</ele>
        <time>2022-10-22T13:17:19Z</time>
      </trkpt>
      <trkpt lat="47.0304" lon="-1.73599">
        <ele>87</ele>
        <time>2022-10-22T13:17:21Z</time>
      </trkpt>
      <trkpt lat="47.0305" lon="-1.73597">
        <ele>87</ele>
        <time>2022-10-22T13:17:23Z</time>
      </trkpt>
      <trkpt lat="47.03061" lon="-1.73595">
        <ele>87</ele>
        <time>2022-10-22T13:17:25Z</time>
      </trkpt>
      <trkpt lat="47.0307" lon="-1.7359">
        <ele>87</ele>
        <time>2022-10-22T13:17:27Z</time>
      </trkpt>
      <trkpt lat="47.03077" lon="-1.73578">
        <ele>87</ele>
        <time>2022-10-22T13:17:29Z</time>
      </trkpt>
      <trkpt lat="47.03082" lon="-1.73565">
        <ele>87</ele>
        <time>2022-10-22T13:17:31Z</time>
      </trkpt>
      <trkpt lat="47.03086" lon="-1.73552">
        <ele>88</ele>
        <time>2022-10-22T13:17:33Z</time>
      </trkpt>
      <trkpt lat="47.03091" lon="-1.73538">
        <ele>88</ele>
        <time>2022-10-22T13:17:35Z</time>
      </trkpt>
      <trkpt lat="47.03097" lon="-1.73524">
        <ele>88</ele>
        <time>2022-10-22T13:17:37Z</time>
      </trkpt>
      <trkpt lat="47.03102" lon="-1.7351">
        <ele>89</ele>
        <time>2022-10-22T13:17:39Z</time>
      </trkpt>
      <trkpt lat="47.03107" lon="-1.73496">
        <ele>89</ele>
        <time>2022-10-22T13:17:41Z</time>
      </trkpt>
      <trkpt lat="47.03112" lon="-1.73481">
        <ele>90</ele>
        <time>2022-10-22T13:17:43Z</time>
      </trkpt>
      <trkpt lat="47.03119" lon="-1.73468">
        <ele>90</ele>
        <time>2022-10-22T13:17:45Z</time>
      </trkpt>
      <trkpt lat="47.03126" lon="-1.73456">
        <ele>90</ele>
        <time>2022-10-22T13:17:47Z</time>
      </trkpt>
      <trkpt lat="47.03131" lon="-1.73443">
        <ele>90</ele>
        <time>2022-10-22T13:17:49Z</time>
      </trkpt>
      <trkpt lat="47.03137" lon="-1.73429">
        <ele>91</ele>
        <time>2022-10-22T13:17:51Z</time>
      </trkpt>
      <trkpt lat="47.03142" lon="-1.73415">
        <ele>91</ele>
        <time>2022-10-22T13:17:53Z</time>
      </trkpt>
      <trkpt lat="47.03146" lon="-1.734">
        <ele>91</ele>
        <time>2022-10-22T13:17:55Z</time>
      </trkpt>
      <trkpt lat="47.03151" lon="-1.73386">
        <ele>91</ele>
        <time>2022-10-22T13:17:57Z</time>
      </trkpt>
      <trkpt lat="47.03155" lon="-1.73372">
        <ele>92</ele>
        <time>2022-10-22T13:17:59Z</time>
      </trkpt>
      <trkpt lat="47.0316" lon="-1.73357">
        <ele>92</ele>
        <time>2022-10-22T13:18:01Z</time>
      </trkpt>
      <trkpt lat="47.03164" lon="-1.73342">
        <ele>92</ele>
        <time>2022-10-22T13:18:03Z</time>
      </trkpt>
      <trkpt lat="47.03169" lon="-1.73328">
        <ele>91</ele>
        <time>2022-10-22T13:18:05Z</time>
      </trkpt>
      <trkpt lat="47.03175" lon="-1.73314">
        <ele>91</ele>
        <time>2022-10-22T13:18:07Z</time>
      </trkpt>
      <trkpt lat="47.0318" lon="-1.73301">
        <ele>91</ele>
        <time>2022-10-22T13:18:09Z</time>
      </trkpt>
      <trkpt lat="47.03187" lon="-1.73287">
        <ele>91</ele>
        <time>2022-10-22T13:18:11Z</time>
      </trkpt>
      <trkpt lat="47.03193" lon="-1.73273">
        <ele>91</ele>
        <time>2022-10-22T13:18:13Z</time>
      </trkpt>
      <trkpt lat="47.03198" lon="-1.73258">
        <ele>91</ele>
        <time>2022-10-22T13:18:15Z</time>
      </trkpt>
      <trkpt lat="47.03204" lon="-1.73244">
        <ele>91</ele>
        <time>2022-10-22T13:18:17Z</time>
      </trkpt>
      <trkpt lat="47.0321" lon="-1.73229">
        <ele>91</ele>
        <time>2022-10-22T13:18:19Z</time>
      </trkpt>
      <trkpt lat="47.03216" lon="-1.73214">
        <ele>91</ele>
        <time>2022-10-22T13:18:21Z</time>
      </trkpt>
      <trkpt lat="47.03221" lon="-1.732">
        <ele>91</ele>
        <time>2022-10-22T13:18:23Z</time>
      </trkpt>
      <trkpt lat="47.03227" lon="-1.73186">
        <ele>91</ele>
        <time>2022-10-22T13:18:25Z</time>
      </trkpt>
      <trkpt lat="47.03232" lon="-1.73171">
        <ele>91</ele>
        <time>2022-10-22T13:18:27Z</time>
      </trkpt>
      <trkpt lat="47.03238" lon="-1.73157">
        <ele>91</ele>
        <time>2022-10-22T13:18:29Z</time>
      </trkpt>
      <trkpt lat="47.03242" lon="-1.73141">
        <ele>91</ele>
        <time>2022-10-22T13:18:31Z</time>
      </trkpt>
      <trkpt lat="47.03244" lon="-1.73124">
        <ele>91</ele>
        <time>2022-10-22T13:18:33Z</time>
      </trkpt>
      <trkpt lat="47.03245" lon="-1.73107">
        <ele>90</ele>
        <time>2022-10-22T13:18:35Z</time>
      </trkpt>
      <trkpt lat="47.03244" lon="-1.7309">
        <ele>90</ele>
        <time>2022-10-22T13:18:37Z</time>
      </trkpt>
      <trkpt lat="47.03244" lon="-1.73074">
        <ele>91</ele>
        <time>2022-10-22T13:18:39Z</time>
      </trkpt>
      <trkpt lat="47.03242" lon="-1.73058">
        <ele>91</ele>
        <time>2022-10-22T13:18:41Z</time>
      </trkpt>
      <trkpt lat="47.0324" lon="-1.73041">
        <ele>91</ele>
        <time>2022-10-22T13:18:43Z</time>
      </trkpt>
      <trkpt lat="47.03239" lon="-1.73024">
        <ele>91</ele>
        <time>2022-10-22T13:18:45Z</time>
      </trkpt>
      <trkpt lat="47.03238" lon="-1.73006">
        <ele>91</ele>
        <time>2022-10-22T13:18:47Z</time>
      </trkpt>
      <trkpt lat="47.03237" lon="-1.72989">
        <ele>90</ele>
        <time>2022-10-22T13:18:49Z</time>
      </trkpt>
      <trkpt lat="47.03237" lon="-1.72972">
        <ele>90</ele>
        <time>2022-10-22T13:18:51Z</time>
      </trkpt>
      <trkpt lat="47.03238" lon="-1.72956">
        <ele>90</ele>
        <time>2022-10-22T13:18:53Z</time>
      </trkpt>
      <trkpt lat="47.03242" lon="-1.72941">
        <ele>91</ele>
        <time>2022-10-22T13:18:55Z</time>
      </trkpt>
      <trkpt lat="47.03245" lon="-1.72925">
        <ele>91</ele>
        <time>2022-10-22T13:18:57Z</time>
      </trkpt>
      <trkpt lat="47.03246" lon="-1.72909">
        <ele>91</ele>
        <time>2022-10-22T13:18:59Z</time>
      </trkpt>
      <trkpt lat="47.03246" lon="-1.72893">
        <ele>91</ele>
        <time>2022-10-22T13:19:01Z</time>
      </trkpt>
      <trkpt lat="47.03245" lon="-1.72878">
        <ele>91</ele>
        <time>2022-10-22T13:19:03Z</time>
      </trkpt>
      <trkpt lat="47.03245" lon="-1.72862">
        <ele>91</ele>
        <time>2022-10-22T13:19:05Z</time>
      </trkpt>
      <trkpt lat="47.03246" lon="-1.72845">
        <ele>90</ele>
        <time>2022-10-22T13:19:07Z</time>
      </trkpt>
      <trkpt lat="47.03246" lon="-1.72828">
        <ele>90</ele>
        <time>2022-10-22T13:19:09Z</time>
      </trkpt>
      <trkpt lat="47.03246" lon="-1.72812">
        <ele>89</ele>
        <time>2022-10-22T13:19:11Z</time>
      </trkpt>
      <trkpt lat="47.03246" lon="-1.72796">
        <ele>89</ele>
        <time>2022-10-22T13:19:13Z</time>
      </trkpt>
      <trkpt lat="47.03246" lon="-1.7278">
        <ele>89</ele>
        <time>2022-10-22T13:19:15Z</time>
      </trkpt>
      <trkpt lat="47.03246" lon="-1.72763">
        <ele>89</ele>
        <time>2022-10-22T13:19:17Z</time>
      </trkpt>
      <trkpt lat="47.03246" lon="-1.72747">
        <ele>89</ele>
        <time>2022-10-22T13:19:19Z</time>
      </trkpt>
      <trkpt lat="47.03247" lon="-1.72731">
        <ele>89</ele>
        <time>2022-10-22T13:19:21Z</time>
      </trkpt>
      <trkpt lat="47.03248" lon="-1.72715">
        <ele>89</ele>
        <time>2022-10-22T13:19:23Z</time>
      </trkpt>
      <trkpt lat="47.03254" lon="-1.72701">
        <ele>89</ele>
        <time>2022-10-22T13:19:25Z</time>
      </trkpt>
      <trkpt lat="47.03263" lon="-1.72691">
        <ele>89</ele>
        <time>2022-10-22T13:19:27Z</time>
      </trkpt>
      <trkpt lat="47.03272" lon="-1.72683">
        <ele>90</ele>
        <time>2022-10-22T13:19:29Z</time>
      </trkpt>
      <trkpt lat="47.03281" lon="-1.72672">
        <ele>90</ele>
        <time>2022-10-22T13:19:31Z</time>
      </trkpt>
      <trkpt lat="47.03291" lon="-1.72661">
        <ele>89</ele>
        <time>2022-10-22T13:19:33Z</time>
      </trkpt>
      <trkpt lat="47.033" lon="-1.7265">
        <ele>90</ele>
        <time>2022-10-22T13:19:35Z</time>
      </trkpt>
      <trkpt lat="47.0331" lon="-1.72639">
        <ele>90</ele>
        <time>2022-10-22T13:19:37Z</time>
      </trkpt>
      <trkpt lat="47.03319" lon="-1.72628">
        <ele>90</ele>
        <time>2022-10-22T13:19:39Z</time>
      </trkpt>
      <trkpt lat="47.03329" lon="-1.72617">
        <ele>90</ele>
        <time>2022-10-22T13:19:41Z</time>
      </trkpt>
      <trkpt lat="47.03339" lon="-1.72605">
        <ele>90</ele>
        <time>2022-10-22T13:19:43Z</time>
      </trkpt>
      <trkpt lat="47.03348" lon="-1.72593">
        <ele>91</ele>
        <time>2022-10-22T13:19:45Z</time>
      </trkpt>
      <trkpt lat="47.03357" lon="-1.72581">
        <ele>91</ele>
        <time>2022-10-22T13:19:47Z</time>
      </trkpt>
      <trkpt lat="47.03366" lon="-1.72569">
        <ele>90</ele>
        <time>2022-10-22T13:19:49Z</time>
      </trkpt>
      <trkpt lat="47.03376" lon="-1.72556">
        <ele>91</ele>
        <time>2022-10-22T13:19:51Z</time>
      </trkpt>
      <trkpt lat="47.03385" lon="-1.72544">
        <ele>91</ele>
        <time>2022-10-22T13:19:53Z</time>
      </trkpt>
      <trkpt lat="47.03395" lon="-1.72531">
        <ele>91</ele>
        <time>2022-10-22T13:19:55Z</time>
      </trkpt>
      <trkpt lat="47.03404" lon="-1.72518">
        <ele>90</ele>
        <time>2022-10-22T13:19:57Z</time>
      </trkpt>
      <trkpt lat="47.03414" lon="-1.72506">
        <ele>90</ele>
        <time>2022-10-22T13:19:59Z</time>
      </trkpt>
      <trkpt lat="47.03424" lon="-1.72493">
        <ele>90</ele>
        <time>2022-10-22T13:20:01Z</time>
      </trkpt>
      <trkpt lat="47.03434" lon="-1.72481">
        <ele>90</ele>
        <time>2022-10-22T13:20:03Z</time>
      </trkpt>
      <trkpt lat="47.03444" lon="-1.72469">
        <ele>90</ele>
        <time>2022-10-22T13:20:05Z</time>
      </trkpt>
      <trkpt lat="47.03454" lon="-1.72456">
        <ele>90</ele>
        <time>2022-10-22T13:20:07Z</time>
      </trkpt>
      <trkpt lat="47.03462" lon="-1.72444">
        <ele>90</ele>
        <time>2022-10-22T13:20:09Z</time>
      </trkpt>
      <trkpt lat="47.03471" lon="-1.72432">
        <ele>89</ele>
        <time>2022-10-22T13:20:11Z</time>
      </trkpt>
      <trkpt lat="47.0348" lon="-1.72421">
        <ele>89</ele>
        <time>2022-10-22T13:20:13Z</time>
      </trkpt>
      <trkpt lat="47.03489" lon="-1.72409">
        <ele>90</ele>
        <time>2022-10-22T13:20:15Z</time>
      </trkpt>
      <trkpt lat="47.03498" lon="-1.72396">
        <ele>91</ele>
        <time>2022-10-22T13:20:17Z</time>
      </trkpt>
      <trkpt lat="47.03507" lon="-1.72384">
        <ele>91</ele>
        <time>2022-10-22T13:20:19Z</time>
      </trkpt>
      <trkpt lat="47.03517" lon="-1.72373">
        <ele>91</ele>
        <time>2022-10-22T13:20:21Z</time>
      </trkpt>
      <trkpt lat="47.03527" lon="-1.72362">
        <ele>90</ele>
        <time>2022-10-22T13:20:23Z</time>
      </trkpt>
      <trkpt lat="47.03537" lon="-1.72353">
        <ele>90</ele>
        <time>2022-10-22T13:20:25Z</time>
      </trkpt>
      <trkpt lat="47.03547" lon="-1.72343">
        <ele>91</ele>
        <time>2022-10-22T13:20:27Z</time>
      </trkpt>
      <trkpt lat="47.03557" lon="-1.72335">
        <ele>91</ele>
        <time>2022-10-22T13:20:29Z</time>
      </trkpt>
      <trkpt lat="47.03567" lon="-1.72326">
        <ele>91</ele>
        <time>2022-10-22T13:20:31Z</time>
      </trkpt>
      <trkpt lat="47.03577" lon="-1.72317">
        <ele>90</ele>
        <time>2022-10-22T13:20:33Z</time>
      </trkpt>
      <trkpt lat="47.03587" lon="-1.72308">
        <ele>90</ele>
        <time>2022-10-22T13:20:35Z</time>
      </trkpt>
      <trkpt lat="47.03597" lon="-1.72298">
        <ele>90</ele>
        <time>2022-10-22T13:20:37Z</time>
      </trkpt>
      <trkpt lat="47.03607" lon="-1.72289">
        <ele>90</ele>
        <time>2022-10-22T13:20:39Z</time>
      </trkpt>
      <trkpt lat="47.03616" lon="-1.7228">
        <ele>90</ele>
        <time>2022-10-22T13:20:41Z</time>
      </trkpt>
      <trkpt lat="47.03626" lon="-1.72271">
        <ele>90</ele>
        <time>2022-10-22T13:20:43Z</time>
      </trkpt>
      <trkpt lat="47.03636" lon="-1.72262">
        <ele>91</ele>
        <time>2022-10-22T13:20:45Z</time>
      </trkpt>
      <trkpt lat="47.03646" lon="-1.72254">
        <ele>91</ele>
        <time>2022-10-22T13:20:47Z</time>
      </trkpt>
      <trkpt lat="47.03655" lon="-1.72246">
        <ele>91</ele>
        <time>2022-10-22T13:20:49Z</time>
      </trkpt>
      <trkpt lat="47.03665" lon="-1.72238">
        <ele>91</ele>
        <time>2022-10-22T13:20:51Z</time>
      </trkpt>
      <trkpt lat="47.03674" lon="-1.72229">
        <ele>91</ele>
        <time>2022-10-22T13:20:53Z</time>
      </trkpt>
      <trkpt lat="47.03684" lon="-1.7222">
        <ele>91</ele>
        <time>2022-10-22T13:20:55Z</time>
      </trkpt>
      <trkpt lat="47.03694" lon="-1.72211">
        <ele>91</ele>
        <time>2022-10-22T13:20:57Z</time>
      </trkpt>
      <trkpt lat="47.03704" lon="-1.72202">
        <ele>90</ele>
        <time>2022-10-22T13:20:59Z</time>
      </trkpt>
      <trkpt lat="47.03715" lon="-1.72193">
        <ele>90</ele>
        <time>2022-10-22T13:21:01Z</time>
      </trkpt>
      <trkpt lat="47.03725" lon="-1.72184">
        <ele>90</ele>
        <time>2022-10-22T13:21:03Z</time>
      </trkpt>
      <trkpt lat="47.03737" lon="-1.72177">
        <ele>90</ele>
        <time>2022-10-22T13:21:05Z</time>
      </trkpt>
      <trkpt lat="47.03749" lon="-1.72172">
        <ele>90</ele>
        <time>2022-10-22T13:21:07Z</time>
      </trkpt>
      <trkpt lat="47.03763" lon="-1.72172">
        <ele>90</ele>
        <time>2022-10-22T13:21:09Z</time>
      </trkpt>
      <trkpt lat="47.03776" lon="-1.72179">
        <ele>90</ele>
        <time>2022-10-22T13:21:11Z</time>
      </trkpt>
      <trkpt lat="47.03785" lon="-1.72195">
        <ele>89</ele>
        <time>2022-10-22T13:21:13Z</time>
      </trkpt>
      <trkpt lat="47.03793" lon="-1.7221">
        <ele>89</ele>
        <time>2022-10-22T13:21:15Z</time>
      </trkpt>
      <trkpt lat="47.03804" lon="-1.72221">
        <ele>89</ele>
        <time>2022-10-22T13:21:17Z</time>
      </trkpt>
      <trkpt lat="47.03816" lon="-1.72225">
        <ele>89</ele>
        <time>2022-10-22T13:21:19Z</time>
      </trkpt>
      <trkpt lat="47.03829" lon="-1.72223">
        <ele>90</ele>
        <time>2022-10-22T13:21:21Z</time>
      </trkpt>
      <trkpt lat="47.0384" lon="-1.72218">
        <ele>90</ele>
        <time>2022-10-22T13:21:23Z</time>
      </trkpt>
      <trkpt lat="47.03852" lon="-1.72214">
        <ele>90</ele>
        <time>2022-10-22T13:21:25Z</time>
      </trkpt>
      <trkpt lat="47.03864" lon="-1.72209">
        <ele>90</ele>
        <time>2022-10-22T13:21:27Z</time>
      </trkpt>
      <trkpt lat="47.03876" lon="-1.72205">
        <ele>91</ele>
        <time>2022-10-22T13:21:29Z</time>
      </trkpt>
      <trkpt lat="47.03887" lon="-1.722">
        <ele>91</ele>
        <time>2022-10-22T13:21:31Z</time>
      </trkpt>
      <trkpt lat="47.03899" lon="-1.72198">
        <ele>91</ele>
        <time>2022-10-22T13:21:33Z</time>
      </trkpt>
      <trkpt lat="47.03911" lon="-1.72195">
        <ele>91</ele>
        <time>2022-10-22T13:21:35Z</time>
      </trkpt>
      <trkpt lat="47.03923" lon="-1.72193">
        <ele>91</ele>
        <time>2022-10-22T13:21:37Z</time>
      </trkpt>
      <trkpt lat="47.03935" lon="-1.72192">
        <ele>90</ele>
        <time>2022-10-22T13:21:39Z</time>
      </trkpt>
      <trkpt lat="47.03946" lon="-1.72192">
        <ele>90</ele>
        <time>2022-10-22T13:21:41Z</time>
      </trkpt>
      <trkpt lat="47.03957" lon="-1.72192">
        <ele>91</ele>
        <time>2022-10-22T13:21:43Z</time>
      </trkpt>
      <trkpt lat="47.03967" lon="-1.72191">
        <ele>91</ele>
        <time>2022-10-22T13:21:45Z</time>
      </trkpt>
      <trkpt lat="47.03979" lon="-1.7219">
        <ele>90</ele>
        <time>2022-10-22T13:21:48Z</time>
      </trkpt>
      <trkpt lat="47.03986" lon="-1.72178">
        <ele>90</ele>
        <time>2022-10-22T13:21:51Z</time>
      </trkpt>
      <trkpt lat="47.03986" lon="-1.72159">
        <ele>91</ele>
        <time>2022-10-22T13:21:54Z</time>
      </trkpt>
      <trkpt lat="47.03988" lon="-1.72145">
        <ele>90</ele>
        <time>2022-10-22T13:21:56Z</time>
      </trkpt>
      <trkpt lat="47.03994" lon="-1.72128">
        <ele>91</ele>
        <time>2022-10-22T13:21:59Z</time>
      </trkpt>
      <trkpt lat="47.04001" lon="-1.72119">
        <ele>91</ele>
        <time>2022-10-22T13:22:01Z</time>
      </trkpt>
      <trkpt lat="47.04009" lon="-1.72112">
        <ele>91</ele>
        <time>2022-10-22T13:22:03Z</time>
      </trkpt>
      <trkpt lat="47.04017" lon="-1.72106">
        <ele>92</ele>
        <time>2022-10-22T13:22:05Z</time>
      </trkpt>
      <trkpt lat="47.04026" lon="-1.721">
        <ele>92</ele>
        <time>2022-10-22T13:22:07Z</time>
      </trkpt>
      <trkpt lat="47.04034" lon="-1.72094">
        <ele>91</ele>
        <time>2022-10-22T13:22:09Z</time>
      </trkpt>
      <trkpt lat="47.04043" lon="-1.72088">
        <ele>92</ele>
        <time>2022-10-22T13:22:11Z</time>
      </trkpt>
      <trkpt lat="47.04051" lon="-1.72081">
        <ele>92</ele>
        <time>2022-10-22T13:22:13Z</time>
      </trkpt>
      <trkpt lat="47.0406" lon="-1.72075">
        <ele>92</ele>
        <time>2022-10-22T13:22:15Z</time>
      </trkpt>
      <trkpt lat="47.04068" lon="-1.72069">
        <ele>93</ele>
        <time>2022-10-22T13:22:17Z</time>
      </trkpt>
      <trkpt lat="47.04076" lon="-1.72062">
        <ele>93</ele>
        <time>2022-10-22T13:22:19Z</time>
      </trkpt>
      <trkpt lat="47.04084" lon="-1.72056">
        <ele>93</ele>
        <time>2022-10-22T13:22:21Z</time>
      </trkpt>
      <trkpt lat="47.04096" lon="-1.72047">
        <ele>94</ele>
        <time>2022-10-22T13:22:24Z</time>
      </trkpt>
      <trkpt lat="47.04104" lon="-1.72041">
        <ele>94</ele>
        <time>2022-10-22T13:22:26Z</time>
      </trkpt>
      <trkpt lat="47.04113" lon="-1.72035">
        <ele>94</ele>
        <time>2022-10-22T13:22:28Z</time>
      </trkpt>
      <trkpt lat="47.04121" lon="-1.72028">
        <ele>94</ele>
        <time>2022-10-22T13:22:30Z</time>
      </trkpt>
      <trkpt lat="47.04129" lon="-1.72022">
        <ele>94</ele>
        <time>2022-10-22T13:22:32Z</time>
      </trkpt>
      <trkpt lat="47.04138" lon="-1.72015">
        <ele>95</ele>
        <time>2022-10-22T13:22:34Z</time>
      </trkpt>
      <trkpt lat="47.04147" lon="-1.72009">
        <ele>95</ele>
        <time>2022-10-22T13:22:36Z</time>
      </trkpt>
      <trkpt lat="47.04156" lon="-1.72002">
        <ele>95</ele>
        <time>2022-10-22T13:22:38Z</time>
      </trkpt>
      <trkpt lat="47.04164" lon="-1.71996">
        <ele>95</ele>
        <time>2022-10-22T13:22:40Z</time>
      </trkpt>
      <trkpt lat="47.04173" lon="-1.7199">
        <ele>95</ele>
        <time>2022-10-22T13:22:42Z</time>
      </trkpt>
      <trkpt lat="47.04182" lon="-1.71982">
        <ele>95</ele>
        <time>2022-10-22T13:22:44Z</time>
      </trkpt>
      <trkpt lat="47.04191" lon="-1.71976">
        <ele>96</ele>
        <time>2022-10-22T13:22:46Z</time>
      </trkpt>
      <trkpt lat="47.042" lon="-1.71969">
        <ele>96</ele>
        <time>2022-10-22T13:22:48Z</time>
      </trkpt>
      <trkpt lat="47.04209" lon="-1.71962">
        <ele>96</ele>
        <time>2022-10-22T13:22:50Z</time>
      </trkpt>
      <trkpt lat="47.04218" lon="-1.71956">
        <ele>96</ele>
        <time>2022-10-22T13:22:52Z</time>
      </trkpt>
      <trkpt lat="47.04226" lon="-1.7195">
        <ele>96</ele>
        <time>2022-10-22T13:22:54Z</time>
      </trkpt>
      <trkpt lat="47.04235" lon="-1.71944">
        <ele>96</ele>
        <time>2022-10-22T13:22:56Z</time>
      </trkpt>
      <trkpt lat="47.04245" lon="-1.71938">
        <ele>95</ele>
        <time>2022-10-22T13:22:58Z</time>
      </trkpt>
      <trkpt lat="47.04254" lon="-1.71934">
        <ele>95</ele>
        <time>2022-10-22T13:23:00Z</time>
      </trkpt>
      <trkpt lat="47.04265" lon="-1.71929">
        <ele>95</ele>
        <time>2022-10-22T13:23:02Z</time>
      </trkpt>
      <trkpt lat="47.04276" lon="-1.71925">
        <ele>95</ele>
        <time>2022-10-22T13:23:04Z</time>
      </trkpt>
      <trkpt lat="47.04286" lon="-1.71922">
        <ele>95</ele>
        <time>2022-10-22T13:23:06Z</time>
      </trkpt>
      <trkpt lat="47.04297" lon="-1.71918">
        <ele>95</ele>
        <time>2022-10-22T13:23:08Z</time>
      </trkpt>
      <trkpt lat="47.04309" lon="-1.71914">
        <ele>95</ele>
        <time>2022-10-22T13:23:10Z</time>
      </trkpt>
      <trkpt lat="47.0432" lon="-1.71911">
        <ele>95</ele>
        <time>2022-10-22T13:23:12Z</time>
      </trkpt>
      <trkpt lat="47.04331" lon="-1.71907">
        <ele>95</ele>
        <time>2022-10-22T13:23:14Z</time>
      </trkpt>
      <trkpt lat="47.04342" lon="-1.71904">
        <ele>94</ele>
        <time>2022-10-22T13:23:16Z</time>
      </trkpt>
      <trkpt lat="47.04353" lon="-1.719">
        <ele>94</ele>
        <time>2022-10-22T13:23:18Z</time>
      </trkpt>
      <trkpt lat="47.04364" lon="-1.71895">
        <ele>94</ele>
        <time>2022-10-22T13:23:20Z</time>
      </trkpt>
      <trkpt lat="47.04375" lon="-1.71887">
        <ele>94</ele>
        <time>2022-10-22T13:23:22Z</time>
      </trkpt>
      <trkpt lat="47.04385" lon="-1.71878">
        <ele>93</ele>
        <time>2022-10-22T13:23:24Z</time>
      </trkpt>
      <trkpt lat="47.04395" lon="-1.71867">
        <ele>93</ele>
        <time>2022-10-22T13:23:26Z</time>
      </trkpt>
      <trkpt lat="47.04404" lon="-1.71855">
        <ele>93</ele>
        <time>2022-10-22T13:23:28Z</time>
      </trkpt>
      <trkpt lat="47.04414" lon="-1.71843">
        <ele>93</ele>
        <time>2022-10-22T13:23:30Z</time>
      </trkpt>
      <trkpt lat="47.04423" lon="-1.71831">
        <ele>92</ele>
        <time>2022-10-22T13:23:32Z</time>
      </trkpt>
      <trkpt lat="47.04433" lon="-1.71819">
        <ele>92</ele>
        <time>2022-10-22T13:23:34Z</time>
      </trkpt>
      <trkpt lat="47.04441" lon="-1.71809">
        <ele>91</ele>
        <time>2022-10-22T13:23:36Z</time>
      </trkpt>
      <trkpt lat="47.04448" lon="-1.71799">
        <ele>92</ele>
        <time>2022-10-22T13:23:38Z</time>
      </trkpt>
      <trkpt lat="47.04456" lon="-1.71786">
        <ele>92</ele>
        <time>2022-10-22T13:23:41Z</time>
      </trkpt>
      <trkpt lat="47.0446" lon="-1.71768">
        <ele>91</ele>
        <time>2022-10-22T13:23:44Z</time>
      </trkpt>
      <trkpt lat="47.04466" lon="-1.71755">
        <ele>91</ele>
        <time>2022-10-22T13:23:46Z</time>
      </trkpt>
      <trkpt lat="47.04476" lon="-1.71743">
        <ele>89</ele>
        <time>2022-10-22T13:23:48Z</time>
      </trkpt>
      <trkpt lat="47.04486" lon="-1.71731">
        <ele>88</ele>
        <time>2022-10-22T13:23:50Z</time>
      </trkpt>
      <trkpt lat="47.04498" lon="-1.71717">
        <ele>88</ele>
        <time>2022-10-22T13:23:52Z</time>
      </trkpt>
      <trkpt lat="47.0451" lon="-1.71704">
        <ele>87</ele>
        <time>2022-10-22T13:23:54Z</time>
      </trkpt>
      <trkpt lat="47.04522" lon="-1.7169">
        <ele>86</ele>
        <time>2022-10-22T13:23:56Z</time>
      </trkpt>
      <trkpt lat="47.04535" lon="-1.71675">
        <ele>86</ele>
        <time>2022-10-22T13:23:58Z</time>
      </trkpt>
      <trkpt lat="47.04548" lon="-1.7166">
        <ele>86</ele>
        <time>2022-10-22T13:24:00Z</time>
      </trkpt>
      <trkpt lat="47.04562" lon="-1.71644">
        <ele>86</ele>
        <time>2022-10-22T13:24:02Z</time>
      </trkpt>
      <trkpt lat="47.04575" lon="-1.71629">
        <ele>85</ele>
        <time>2022-10-22T13:24:04Z</time>
      </trkpt>
      <trkpt lat="47.04589" lon="-1.71612">
        <ele>84</ele>
        <time>2022-10-22T13:24:06Z</time>
      </trkpt>
      <trkpt lat="47.04602" lon="-1.71596">
        <ele>83</ele>
        <time>2022-10-22T13:24:08Z</time>
      </trkpt>
      <trkpt lat="47.04616" lon="-1.7158">
        <ele>82</ele>
        <time>2022-10-22T13:24:10Z</time>
      </trkpt>
      <trkpt lat="47.04628" lon="-1.71565">
        <ele>82</ele>
        <time>2022-10-22T13:24:12Z</time>
      </trkpt>
      <trkpt lat="47.0464" lon="-1.7155">
        <ele>82</ele>
        <time>2022-10-22T13:24:14Z</time>
      </trkpt>
      <trkpt lat="47.04651" lon="-1.71533">
        <ele>82</ele>
        <time>2022-10-22T13:24:16Z</time>
      </trkpt>
      <trkpt lat="47.04661" lon="-1.71515">
        <ele>81</ele>
        <time>2022-10-22T13:24:18Z</time>
      </trkpt>
      <trkpt lat="47.04676" lon="-1.71488">
        <ele>80</ele>
        <time>2022-10-22T13:24:21Z</time>
      </trkpt>
      <trkpt lat="47.04686" lon="-1.71471">
        <ele>80</ele>
        <time>2022-10-22T13:24:23Z</time>
      </trkpt>
      <trkpt lat="47.04695" lon="-1.71453">
        <ele>80</ele>
        <time>2022-10-22T13:24:25Z</time>
      </trkpt>
      <trkpt lat="47.0471" lon="-1.71428">
        <ele>79</ele>
        <time>2022-10-22T13:24:28Z</time>
      </trkpt>
      <trkpt lat="47.04721" lon="-1.71413">
        <ele>78</ele>
        <time>2022-10-22T13:24:30Z</time>
      </trkpt>
      <trkpt lat="47.04737" lon="-1.71387">
        <ele>78</ele>
        <time>2022-10-22T13:24:33Z</time>
      </trkpt>
      <trkpt lat="47.04747" lon="-1.71369">
        <ele>78</ele>
        <time>2022-10-22T13:24:35Z</time>
      </trkpt>
      <trkpt lat="47.04757" lon="-1.7135">
        <ele>77</ele>
        <time>2022-10-22T13:24:37Z</time>
      </trkpt>
      <trkpt lat="47.04766" lon="-1.71331">
        <ele>77</ele>
        <time>2022-10-22T13:24:39Z</time>
      </trkpt>
      <trkpt lat="47.04775" lon="-1.71311">
        <ele>77</ele>
        <time>2022-10-22T13:24:41Z</time>
      </trkpt>
      <trkpt lat="47.04784" lon="-1.71291">
        <ele>76</ele>
        <time>2022-10-22T13:24:43Z</time>
      </trkpt>
      <trkpt lat="47.04792" lon="-1.71271">
        <ele>76</ele>
        <time>2022-10-22T13:24:45Z</time>
      </trkpt>
      <trkpt lat="47.04801" lon="-1.7125">
        <ele>75</ele>
        <time>2022-10-22T13:24:47Z</time>
      </trkpt>
      <trkpt lat="47.0481" lon="-1.71229">
        <ele>74</ele>
        <time>2022-10-22T13:24:49Z</time>
      </trkpt>
      <trkpt lat="47.04818" lon="-1.71209">
        <ele>73</ele>
        <time>2022-10-22T13:24:51Z</time>
      </trkpt>
      <trkpt lat="47.04826" lon="-1.71188">
        <ele>73</ele>
        <time>2022-10-22T13:24:53Z</time>
      </trkpt>
      <trkpt lat="47.04835" lon="-1.71168">
        <ele>72</ele>
        <time>2022-10-22T13:24:55Z</time>
      </trkpt>
      <trkpt lat="47.04843" lon="-1.71148">
        <ele>72</ele>
        <time>2022-10-22T13:24:57Z</time>
      </trkpt>
      <trkpt lat="47.0485" lon="-1.71128">
        <ele>72</ele>
        <time>2022-10-22T13:24:59Z</time>
      </trkpt>
      <trkpt lat="47.04856" lon="-1.71107">
        <ele>72</ele>
        <time>2022-10-22T13:25:01Z</time>
      </trkpt>
      <trkpt lat="47.04862" lon="-1.71086">
        <ele>72</ele>
        <time>2022-10-22T13:25:03Z</time>
      </trkpt>
      <trkpt lat="47.04867" lon="-1.71064">
        <ele>71</ele>
        <time>2022-10-22T13:25:05Z</time>
      </trkpt>
      <trkpt lat="47.04872" lon="-1.71042">
        <ele>71</ele>
        <time>2022-10-22T13:25:07Z</time>
      </trkpt>
      <trkpt lat="47.04878" lon="-1.71019">
        <ele>70</ele>
        <time>2022-10-22T13:25:09Z</time>
      </trkpt>
      <trkpt lat="47.04884" lon="-1.70997">
        <ele>70</ele>
        <time>2022-10-22T13:25:11Z</time>
      </trkpt>
      <trkpt lat="47.04889" lon="-1.70976">
        <ele>69</ele>
        <time>2022-10-22T13:25:13Z</time>
      </trkpt>
      <trkpt lat="47.04894" lon="-1.70955">
        <ele>69</ele>
        <time>2022-10-22T13:25:15Z</time>
      </trkpt>
      <trkpt lat="47.049" lon="-1.70933">
        <ele>69</ele>
        <time>2022-10-22T13:25:17Z</time>
      </trkpt>
      <trkpt lat="47.04905" lon="-1.70912">
        <ele>69</ele>
        <time>2022-10-22T13:25:19Z</time>
      </trkpt>
      <trkpt lat="47.0491" lon="-1.70892">
        <ele>68</ele>
        <time>2022-10-22T13:25:21Z</time>
      </trkpt>
      <trkpt lat="47.04915" lon="-1.70872">
        <ele>68</ele>
        <time>2022-10-22T13:25:23Z</time>
      </trkpt>
      <trkpt lat="47.0492" lon="-1.70851">
        <ele>68</ele>
        <time>2022-10-22T13:25:25Z</time>
      </trkpt>
      <trkpt lat="47.04925" lon="-1.70831">
        <ele>68</ele>
        <time>2022-10-22T13:25:27Z</time>
      </trkpt>
      <trkpt lat="47.04931" lon="-1.70811">
        <ele>67</ele>
        <time>2022-10-22T13:25:29Z</time>
      </trkpt>
      <trkpt lat="47.04936" lon="-1.70791">
        <ele>67</ele>
        <time>2022-10-22T13:25:31Z</time>
      </trkpt>
      <trkpt lat="47.04941" lon="-1.70772">
        <ele>67</ele>
        <time>2022-10-22T13:25:33Z</time>
      </trkpt>
      <trkpt lat="47.04945" lon="-1.70753">
        <ele>67</ele>
        <time>2022-10-22T13:25:35Z</time>
      </trkpt>
      <trkpt lat="47.04949" lon="-1.70734">
        <ele>67</ele>
        <time>2022-10-22T13:25:37Z</time>
      </trkpt>
      <trkpt lat="47.04953" lon="-1.70715">
        <ele>67</ele>
        <time>2022-10-22T13:25:39Z</time>
      </trkpt>
      <trkpt lat="47.04956" lon="-1.70696">
        <ele>68</ele>
        <time>2022-10-22T13:25:41Z</time>
      </trkpt>
      <trkpt lat="47.04958" lon="-1.70676">
        <ele>67</ele>
        <time>2022-10-22T13:25:43Z</time>
      </trkpt>
      <trkpt lat="47.0496" lon="-1.70656">
        <ele>68</ele>
        <time>2022-10-22T13:25:45Z</time>
      </trkpt>
      <trkpt lat="47.04962" lon="-1.70637">
        <ele>68</ele>
        <time>2022-10-22T13:25:47Z</time>
      </trkpt>
      <trkpt lat="47.04966" lon="-1.70618">
        <ele>68</ele>
        <time>2022-10-22T13:25:49Z</time>
      </trkpt>
      <trkpt lat="47.04972" lon="-1.706">
        <ele>68</ele>
        <time>2022-10-22T13:25:51Z</time>
      </trkpt>
      <trkpt lat="47.04978" lon="-1.70581">
        <ele>67</ele>
        <time>2022-10-22T13:25:53Z</time>
      </trkpt>
      <trkpt lat="47.04986" lon="-1.70565">
        <ele>66</ele>
        <time>2022-10-22T13:25:55Z</time>
      </trkpt>
      <trkpt lat="47.04993" lon="-1.70547">
        <ele>66</ele>
        <time>2022-10-22T13:25:57Z</time>
      </trkpt>
      <trkpt lat="47.05" lon="-1.7053">
        <ele>66</ele>
        <time>2022-10-22T13:25:59Z</time>
      </trkpt>
      <trkpt lat="47.05007" lon="-1.70513">
        <ele>66</ele>
        <time>2022-10-22T13:26:01Z</time>
      </trkpt>
      <trkpt lat="47.05014" lon="-1.70496">
        <ele>66</ele>
        <time>2022-10-22T13:26:03Z</time>
      </trkpt>
      <trkpt lat="47.05021" lon="-1.70479">
        <ele>66</ele>
        <time>2022-10-22T13:26:05Z</time>
      </trkpt>
      <trkpt lat="47.05029" lon="-1.70463">
        <ele>66</ele>
        <time>2022-10-22T13:26:07Z</time>
      </trkpt>
      <trkpt lat="47.05036" lon="-1.70447">
        <ele>65</ele>
        <time>2022-10-22T13:26:09Z</time>
      </trkpt>
      <trkpt lat="47.05044" lon="-1.70431">
        <ele>65</ele>
        <time>2022-10-22T13:26:11Z</time>
      </trkpt>
      <trkpt lat="47.05051" lon="-1.70415">
        <ele>65</ele>
        <time>2022-10-22T13:26:13Z</time>
      </trkpt>
      <trkpt lat="47.05059" lon="-1.70399">
        <ele>65</ele>
        <time>2022-10-22T13:26:15Z</time>
      </trkpt>
      <trkpt lat="47.05066" lon="-1.70384">
        <ele>65</ele>
        <time>2022-10-22T13:26:17Z</time>
      </trkpt>
      <trkpt lat="47.05074" lon="-1.70369">
        <ele>66</ele>
        <time>2022-10-22T13:26:19Z</time>
      </trkpt>
      <trkpt lat="47.05082" lon="-1.70355">
        <ele>66</ele>
        <time>2022-10-22T13:26:21Z</time>
      </trkpt>
      <trkpt lat="47.0509" lon="-1.70343">
        <ele>67</ele>
        <time>2022-10-22T13:26:23Z</time>
      </trkpt>
      <trkpt lat="47.05099" lon="-1.7033">
        <ele>67</ele>
        <time>2022-10-22T13:26:25Z</time>
      </trkpt>
      <trkpt lat="47.05108" lon="-1.70317">
        <ele>66</ele>
        <time>2022-10-22T13:26:27Z</time>
      </trkpt>
      <trkpt lat="47.05118" lon="-1.70302">
        <ele>66</ele>
        <time>2022-10-22T13:26:29Z</time>
      </trkpt>
      <trkpt lat="47.05128" lon="-1.7029">
        <ele>65</ele>
        <time>2022-10-22T13:26:31Z</time>
      </trkpt>
      <trkpt lat="47.05138" lon="-1.70278">
        <ele>66</ele>
        <time>2022-10-22T13:26:33Z</time>
      </trkpt>
      <trkpt lat="47.05148" lon="-1.70267">
        <ele>66</ele>
        <time>2022-10-22T13:26:35Z</time>
      </trkpt>
      <trkpt lat="47.05158" lon="-1.70254">
        <ele>66</ele>
        <time>2022-10-22T13:26:37Z</time>
      </trkpt>
      <trkpt lat="47.05167" lon="-1.70242">
        <ele>66</ele>
        <time>2022-10-22T13:26:39Z</time>
      </trkpt>
      <trkpt lat="47.05177" lon="-1.70229">
        <ele>65</ele>
        <time>2022-10-22T13:26:41Z</time>
      </trkpt>
      <trkpt lat="47.05187" lon="-1.70218">
        <ele>65</ele>
        <time>2022-10-22T13:26:43Z</time>
      </trkpt>
      <trkpt lat="47.05196" lon="-1.70206">
        <ele>65</ele>
        <time>2022-10-22T13:26:45Z</time>
      </trkpt>
      <trkpt lat="47.05205" lon="-1.70195">
        <ele>65</ele>
        <time>2022-10-22T13:26:47Z</time>
      </trkpt>
      <trkpt lat="47.05214" lon="-1.70184">
        <ele>65</ele>
        <time>2022-10-22T13:26:49Z</time>
      </trkpt>
      <trkpt lat="47.05223" lon="-1.70173">
        <ele>65</ele>
        <time>2022-10-22T13:26:51Z</time>
      </trkpt>
      <trkpt lat="47.05231" lon="-1.70164">
        <ele>65</ele>
        <time>2022-10-22T13:26:53Z</time>
      </trkpt>
      <trkpt lat="47.05237" lon="-1.70154">
        <ele>64</ele>
        <time>2022-10-22T13:26:55Z</time>
      </trkpt>
      <trkpt lat="47.05238" lon="-1.70139">
        <ele>64</ele>
        <time>2022-10-22T13:26:57Z</time>
      </trkpt>
      <trkpt lat="47.05234" lon="-1.70125">
        <ele>63</ele>
        <time>2022-10-22T13:26:59Z</time>
      </trkpt>
      <trkpt lat="47.05229" lon="-1.7011">
        <ele>63</ele>
        <time>2022-10-22T13:27:01Z</time>
      </trkpt>
      <trkpt lat="47.05223" lon="-1.70095">
        <ele>62</ele>
        <time>2022-10-22T13:27:03Z</time>
      </trkpt>
      <trkpt lat="47.05217" lon="-1.7008">
        <ele>62</ele>
        <time>2022-10-22T13:27:05Z</time>
      </trkpt>
      <trkpt lat="47.05211" lon="-1.70065">
        <ele>62</ele>
        <time>2022-10-22T13:27:07Z</time>
      </trkpt>
      <trkpt lat="47.05206" lon="-1.70048">
        <ele>61</ele>
        <time>2022-10-22T13:27:09Z</time>
      </trkpt>
      <trkpt lat="47.052" lon="-1.70033">
        <ele>61</ele>
        <time>2022-10-22T13:27:11Z</time>
      </trkpt>
      <trkpt lat="47.05194" lon="-1.70017">
        <ele>61</ele>
        <time>2022-10-22T13:27:13Z</time>
      </trkpt>
      <trkpt lat="47.05188" lon="-1.7">
        <ele>61</ele>
        <time>2022-10-22T13:27:15Z</time>
      </trkpt>
      <trkpt lat="47.05182" lon="-1.69984">
        <ele>61</ele>
        <time>2022-10-22T13:27:17Z</time>
      </trkpt>
      <trkpt lat="47.05176" lon="-1.69969">
        <ele>61</ele>
        <time>2022-10-22T13:27:19Z</time>
      </trkpt>
      <trkpt lat="47.05171" lon="-1.69954">
        <ele>61</ele>
        <time>2022-10-22T13:27:21Z</time>
      </trkpt>
      <trkpt lat="47.05165" lon="-1.69939">
        <ele>62</ele>
        <time>2022-10-22T13:27:23Z</time>
      </trkpt>
      <trkpt lat="47.0516" lon="-1.69925">
        <ele>62</ele>
        <time>2022-10-22T13:27:25Z</time>
      </trkpt>
      <trkpt lat="47.05156" lon="-1.69909">
        <ele>61</ele>
        <time>2022-10-22T13:27:27Z</time>
      </trkpt>
      <trkpt lat="47.05154" lon="-1.69893">
        <ele>61</ele>
        <time>2022-10-22T13:27:29Z</time>
      </trkpt>
      <trkpt lat="47.05153" lon="-1.69875">
        <ele>60</ele>
        <time>2022-10-22T13:27:31Z</time>
      </trkpt>
      <trkpt lat="47.0515" lon="-1.69857">
        <ele>60</ele>
        <time>2022-10-22T13:27:33Z</time>
      </trkpt>
      <trkpt lat="47.05145" lon="-1.69842">
        <ele>60</ele>
        <time>2022-10-22T13:27:35Z</time>
      </trkpt>
      <trkpt lat="47.0514" lon="-1.69828">
        <ele>61</ele>
        <time>2022-10-22T13:27:37Z</time>
      </trkpt>
      <trkpt lat="47.05133" lon="-1.69815">
        <ele>61</ele>
        <time>2022-10-22T13:27:39Z</time>
      </trkpt>
      <trkpt lat="47.05127" lon="-1.69803">
        <ele>61</ele>
        <time>2022-10-22T13:27:41Z</time>
      </trkpt>
      <trkpt lat="47.0512" lon="-1.69792">
        <ele>60</ele>
        <time>2022-10-22T13:27:43Z</time>
      </trkpt>
      <trkpt lat="47.05112" lon="-1.69782">
        <ele>61</ele>
        <time>2022-10-22T13:27:45Z</time>
      </trkpt>
      <trkpt lat="47.05104" lon="-1.69773">
        <ele>61</ele>
        <time>2022-10-22T13:27:47Z</time>
      </trkpt>
      <trkpt lat="47.05096" lon="-1.69763">
        <ele>61</ele>
        <time>2022-10-22T13:27:49Z</time>
      </trkpt>
      <trkpt lat="47.05088" lon="-1.69754">
        <ele>61</ele>
        <time>2022-10-22T13:27:51Z</time>
      </trkpt>
      <trkpt lat="47.05081" lon="-1.69744">
        <ele>61</ele>
        <time>2022-10-22T13:27:53Z</time>
      </trkpt>
      <trkpt lat="47.05073" lon="-1.69734">
        <ele>61</ele>
        <time>2022-10-22T13:27:55Z</time>
      </trkpt>
      <trkpt lat="47.05065" lon="-1.69724">
        <ele>61</ele>
        <time>2022-10-22T13:27:57Z</time>
      </trkpt>
      <trkpt lat="47.05057" lon="-1.69715">
        <ele>61</ele>
        <time>2022-10-22T13:27:59Z</time>
      </trkpt>
      <trkpt lat="47.0505" lon="-1.69706">
        <ele>62</ele>
        <time>2022-10-22T13:28:01Z</time>
      </trkpt>
      <trkpt lat="47.05042" lon="-1.69696">
        <ele>62</ele>
        <time>2022-10-22T13:28:03Z</time>
      </trkpt>
      <trkpt lat="47.05035" lon="-1.69687">
        <ele>62</ele>
        <time>2022-10-22T13:28:05Z</time>
      </trkpt>
      <trkpt lat="47.05028" lon="-1.69678">
        <ele>63</ele>
        <time>2022-10-22T13:28:07Z</time>
      </trkpt>
      <trkpt lat="47.0502" lon="-1.69669">
        <ele>63</ele>
        <time>2022-10-22T13:28:09Z</time>
      </trkpt>
      <trkpt lat="47.05013" lon="-1.69659">
        <ele>63</ele>
        <time>2022-10-22T13:28:11Z</time>
      </trkpt>
      <trkpt lat="47.05006" lon="-1.69648">
        <ele>63</ele>
        <time>2022-10-22T13:28:13Z</time>
      </trkpt>
      <trkpt lat="47.05001" lon="-1.69636">
        <ele>64</ele>
        <time>2022-10-22T13:28:15Z</time>
      </trkpt>
      <trkpt lat="47.04995" lon="-1.69622">
        <ele>64</ele>
        <time>2022-10-22T13:28:17Z</time>
      </trkpt>
      <trkpt lat="47.04991" lon="-1.69608">
        <ele>64</ele>
        <time>2022-10-22T13:28:19Z</time>
      </trkpt>
      <trkpt lat="47.04987" lon="-1.69593">
        <ele>63</ele>
        <time>2022-10-22T13:28:21Z</time>
      </trkpt>
      <trkpt lat="47.04983" lon="-1.69577">
        <ele>63</ele>
        <time>2022-10-22T13:28:23Z</time>
      </trkpt>
      <trkpt lat="47.04978" lon="-1.69562">
        <ele>63</ele>
        <time>2022-10-22T13:28:25Z</time>
      </trkpt>
      <trkpt lat="47.04973" lon="-1.69547">
        <ele>63</ele>
        <time>2022-10-22T13:28:27Z</time>
      </trkpt>
      <trkpt lat="47.0497" lon="-1.69531">
        <ele>62</ele>
        <time>2022-10-22T13:28:29Z</time>
      </trkpt>
      <trkpt lat="47.04965" lon="-1.69515">
        <ele>62</ele>
        <time>2022-10-22T13:28:31Z</time>
      </trkpt>
      <trkpt lat="47.04961" lon="-1.695">
        <ele>62</ele>
        <time>2022-10-22T13:28:33Z</time>
      </trkpt>
      <trkpt lat="47.04957" lon="-1.69484">
        <ele>62</ele>
        <time>2022-10-22T13:28:35Z</time>
      </trkpt>
      <trkpt lat="47.04953" lon="-1.69468">
        <ele>62</ele>
        <time>2022-10-22T13:28:37Z</time>
      </trkpt>
      <trkpt lat="47.04949" lon="-1.69453">
        <ele>62</ele>
        <time>2022-10-22T13:28:39Z</time>
      </trkpt>
      <trkpt lat="47.04945" lon="-1.69438">
        <ele>62</ele>
        <time>2022-10-22T13:28:41Z</time>
      </trkpt>
      <trkpt lat="47.04941" lon="-1.69423">
        <ele>63</ele>
        <time>2022-10-22T13:28:43Z</time>
      </trkpt>
      <trkpt lat="47.04937" lon="-1.69407">
        <ele>63</ele>
        <time>2022-10-22T13:28:45Z</time>
      </trkpt>
      <trkpt lat="47.04933" lon="-1.69392">
        <ele>63</ele>
        <time>2022-10-22T13:28:47Z</time>
      </trkpt>
      <trkpt lat="47.04929" lon="-1.69377">
        <ele>63</ele>
        <time>2022-10-22T13:28:49Z</time>
      </trkpt>
      <trkpt lat="47.04925" lon="-1.69362">
        <ele>63</ele>
        <time>2022-10-22T13:28:51Z</time>
      </trkpt>
      <trkpt lat="47.04922" lon="-1.69347">
        <ele>63</ele>
        <time>2022-10-22T13:28:53Z</time>
      </trkpt>
      <trkpt lat="47.04917" lon="-1.69332">
        <ele>64</ele>
        <time>2022-10-22T13:28:55Z</time>
      </trkpt>
      <trkpt lat="47.04912" lon="-1.69316">
        <ele>63</ele>
        <time>2022-10-22T13:28:57Z</time>
      </trkpt>
      <trkpt lat="47.04908" lon="-1.69301">
        <ele>64</ele>
        <time>2022-10-22T13:28:59Z</time>
      </trkpt>
      <trkpt lat="47.04904" lon="-1.69286">
        <ele>64</ele>
        <time>2022-10-22T13:29:01Z</time>
      </trkpt>
      <trkpt lat="47.04901" lon="-1.69271">
        <ele>64</ele>
        <time>2022-10-22T13:29:03Z</time>
      </trkpt>
      <trkpt lat="47.04897" lon="-1.69256">
        <ele>63</ele>
        <time>2022-10-22T13:29:05Z</time>
      </trkpt>
      <trkpt lat="47.04892" lon="-1.69242">
        <ele>63</ele>
        <time>2022-10-22T13:29:07Z</time>
      </trkpt>
      <trkpt lat="47.04888" lon="-1.69227">
        <ele>63</ele>
        <time>2022-10-22T13:29:09Z</time>
      </trkpt>
      <trkpt lat="47.04885" lon="-1.69213">
        <ele>63</ele>
        <time>2022-10-22T13:29:11Z</time>
      </trkpt>
      <trkpt lat="47.0488" lon="-1.69198">
        <ele>64</ele>
        <time>2022-10-22T13:29:13Z</time>
      </trkpt>
      <trkpt lat="47.04876" lon="-1.69183">
        <ele>63</ele>
        <time>2022-10-22T13:29:15Z</time>
      </trkpt>
      <trkpt lat="47.04872" lon="-1.69169">
        <ele>64</ele>
        <time>2022-10-22T13:29:17Z</time>
      </trkpt>
      <trkpt lat="47.04868" lon="-1.69154">
        <ele>64</ele>
        <time>2022-10-22T13:29:19Z</time>
      </trkpt>
      <trkpt lat="47.04865" lon="-1.6914">
        <ele>64</ele>
        <time>2022-10-22T13:29:21Z</time>
      </trkpt>
      <trkpt lat="47.04861" lon="-1.69127">
        <ele>64</ele>
        <time>2022-10-22T13:29:23Z</time>
      </trkpt>
      <trkpt lat="47.04857" lon="-1.69113">
        <ele>64</ele>
        <time>2022-10-22T13:29:25Z</time>
      </trkpt>
      <trkpt lat="47.04854" lon="-1.69099">
        <ele>64</ele>
        <time>2022-10-22T13:29:27Z</time>
      </trkpt>
      <trkpt lat="47.04851" lon="-1.69086">
        <ele>64</ele>
        <time>2022-10-22T13:29:29Z</time>
      </trkpt>
      <trkpt lat="47.04847" lon="-1.69072">
        <ele>64</ele>
        <time>2022-10-22T13:29:31Z</time>
      </trkpt>
      <trkpt lat="47.04844" lon="-1.6906">
        <ele>64</ele>
        <time>2022-10-22T13:29:33Z</time>
      </trkpt>
      <trkpt lat="47.04841" lon="-1.69046">
        <ele>65</ele>
        <time>2022-10-22T13:29:35Z</time>
      </trkpt>
      <trkpt lat="47.04837" lon="-1.69033">
        <ele>65</ele>
        <time>2022-10-22T13:29:37Z</time>
      </trkpt>
      <trkpt lat="47.04833" lon="-1.6902">
        <ele>65</ele>
        <time>2022-10-22T13:29:39Z</time>
      </trkpt>
      <trkpt lat="47.0483" lon="-1.69006">
        <ele>65</ele>
        <time>2022-10-22T13:29:41Z</time>
      </trkpt>
      <trkpt lat="47.04826" lon="-1.68993">
        <ele>65</ele>
        <time>2022-10-22T13:29:43Z</time>
      </trkpt>
      <trkpt lat="47.04823" lon="-1.6898">
        <ele>65</ele>
        <time>2022-10-22T13:29:45Z</time>
      </trkpt>
      <trkpt lat="47.04819" lon="-1.68966">
        <ele>65</ele>
        <time>2022-10-22T13:29:47Z</time>
      </trkpt>
      <trkpt lat="47.04815" lon="-1.68954">
        <ele>65</ele>
        <time>2022-10-22T13:29:49Z</time>
      </trkpt>
      <trkpt lat="47.04812" lon="-1.68941">
        <ele>66</ele>
        <time>2022-10-22T13:29:51Z</time>
      </trkpt>
      <trkpt lat="47.04808" lon="-1.68927">
        <ele>66</ele>
        <time>2022-10-22T13:29:53Z</time>
      </trkpt>
      <trkpt lat="47.04805" lon="-1.68913">
        <ele>66</ele>
        <time>2022-10-22T13:29:55Z</time>
      </trkpt>
      <trkpt lat="47.04801" lon="-1.68899">
        <ele>66</ele>
        <time>2022-10-22T13:29:57Z</time>
      </trkpt>
      <trkpt lat="47.04797" lon="-1.68886">
        <ele>66</ele>
        <time>2022-10-22T13:29:59Z</time>
      </trkpt>
      <trkpt lat="47.04794" lon="-1.68872">
        <ele>65</ele>
        <time>2022-10-22T13:30:01Z</time>
      </trkpt>
      <trkpt lat="47.0479" lon="-1.68857">
        <ele>65</ele>
        <time>2022-10-22T13:30:03Z</time>
      </trkpt>
      <trkpt lat="47.04786" lon="-1.68843">
        <ele>65</ele>
        <time>2022-10-22T13:30:05Z</time>
      </trkpt>
      <trkpt lat="47.04783" lon="-1.68829">
        <ele>65</ele>
        <time>2022-10-22T13:30:07Z</time>
      </trkpt>
      <trkpt lat="47.04779" lon="-1.68814">
        <ele>65</ele>
        <time>2022-10-22T13:30:09Z</time>
      </trkpt>
      <trkpt lat="47.04776" lon="-1.688">
        <ele>65</ele>
        <time>2022-10-22T13:30:11Z</time>
      </trkpt>
      <trkpt lat="47.04772" lon="-1.68786">
        <ele>65</ele>
        <time>2022-10-22T13:30:13Z</time>
      </trkpt>
      <trkpt lat="47.04769" lon="-1.68773">
        <ele>65</ele>
        <time>2022-10-22T13:30:15Z</time>
      </trkpt>
      <trkpt lat="47.04765" lon="-1.68759">
        <ele>66</ele>
        <time>2022-10-22T13:30:17Z</time>
      </trkpt>
      <trkpt lat="47.04762" lon="-1.68746">
        <ele>66</ele>
        <time>2022-10-22T13:30:19Z</time>
      </trkpt>
      <trkpt lat="47.04759" lon="-1.68733">
        <ele>66</ele>
        <time>2022-10-22T13:30:21Z</time>
      </trkpt>
      <trkpt lat="47.04756" lon="-1.6872">
        <ele>66</ele>
        <time>2022-10-22T13:30:23Z</time>
      </trkpt>
      <trkpt lat="47.04752" lon="-1.68707">
        <ele>66</ele>
        <time>2022-10-22T13:30:25Z</time>
      </trkpt>
      <trkpt lat="47.04749" lon="-1.68693">
        <ele>66</ele>
        <time>2022-10-22T13:30:27Z</time>
      </trkpt>
      <trkpt lat="47.04745" lon="-1.6868">
        <ele>66</ele>
        <time>2022-10-22T13:30:29Z</time>
      </trkpt>
      <trkpt lat="47.04742" lon="-1.68666">
        <ele>66</ele>
        <time>2022-10-22T13:30:31Z</time>
      </trkpt>
      <trkpt lat="47.04738" lon="-1.68653">
        <ele>66</ele>
        <time>2022-10-22T13:30:33Z</time>
      </trkpt>
      <trkpt lat="47.04734" lon="-1.6864">
        <ele>66</ele>
        <time>2022-10-22T13:30:35Z</time>
      </trkpt>
      <trkpt lat="47.04731" lon="-1.68626">
        <ele>66</ele>
        <time>2022-10-22T13:30:37Z</time>
      </trkpt>
      <trkpt lat="47.04727" lon="-1.68613">
        <ele>66</ele>
        <time>2022-10-22T13:30:39Z</time>
      </trkpt>
      <trkpt lat="47.04724" lon="-1.68599">
        <ele>66</ele>
        <time>2022-10-22T13:30:41Z</time>
      </trkpt>
      <trkpt lat="47.04721" lon="-1.68585">
        <ele>66</ele>
        <time>2022-10-22T13:30:43Z</time>
      </trkpt>
      <trkpt lat="47.04717" lon="-1.68572">
        <ele>66</ele>
        <time>2022-10-22T13:30:45Z</time>
      </trkpt>
      <trkpt lat="47.04713" lon="-1.68558">
        <ele>66</ele>
        <time>2022-10-22T13:30:47Z</time>
      </trkpt>
      <trkpt lat="47.0471" lon="-1.68545">
        <ele>66</ele>
        <time>2022-10-22T13:30:49Z</time>
      </trkpt>
      <trkpt lat="47.04706" lon="-1.68532">
        <ele>66</ele>
        <time>2022-10-22T13:30:51Z</time>
      </trkpt>
      <trkpt lat="47.04703" lon="-1.68519">
        <ele>66</ele>
        <time>2022-10-22T13:30:53Z</time>
      </trkpt>
      <trkpt lat="47.04699" lon="-1.68506">
        <ele>67</ele>
        <time>2022-10-22T13:30:55Z</time>
      </trkpt>
      <trkpt lat="47.04696" lon="-1.68493">
        <ele>67</ele>
        <time>2022-10-22T13:30:57Z</time>
      </trkpt>
      <trkpt lat="47.04693" lon="-1.6848">
        <ele>67</ele>
        <time>2022-10-22T13:30:59Z</time>
      </trkpt>
      <trkpt lat="47.04689" lon="-1.68466">
        <ele>67</ele>
        <time>2022-10-22T13:31:01Z</time>
      </trkpt>
      <trkpt lat="47.04686" lon="-1.68453">
        <ele>66</ele>
        <time>2022-10-22T13:31:03Z</time>
      </trkpt>
      <trkpt lat="47.04683" lon="-1.68439">
        <ele>66</ele>
        <time>2022-10-22T13:31:05Z</time>
      </trkpt>
      <trkpt lat="47.04679" lon="-1.68423">
        <ele>66</ele>
        <time>2022-10-22T13:31:07Z</time>
      </trkpt>
      <trkpt lat="47.04675" lon="-1.68408">
        <ele>66</ele>
        <time>2022-10-22T13:31:09Z</time>
      </trkpt>
      <trkpt lat="47.04671" lon="-1.68393">
        <ele>66</ele>
        <time>2022-10-22T13:31:11Z</time>
      </trkpt>
      <trkpt lat="47.04666" lon="-1.68377">
        <ele>66</ele>
        <time>2022-10-22T13:31:13Z</time>
      </trkpt>
      <trkpt lat="47.04662" lon="-1.68362">
        <ele>66</ele>
        <time>2022-10-22T13:31:15Z</time>
      </trkpt>
      <trkpt lat="47.04659" lon="-1.68347">
        <ele>66</ele>
        <time>2022-10-22T13:31:17Z</time>
      </trkpt>
      <trkpt lat="47.04655" lon="-1.68332">
        <ele>66</ele>
        <time>2022-10-22T13:31:19Z</time>
      </trkpt>
      <trkpt lat="47.04651" lon="-1.68316">
        <ele>65</ele>
        <time>2022-10-22T13:31:21Z</time>
      </trkpt>
      <trkpt lat="47.04646" lon="-1.68301">
        <ele>65</ele>
        <time>2022-10-22T13:31:23Z</time>
      </trkpt>
      <trkpt lat="47.04642" lon="-1.68286">
        <ele>65</ele>
        <time>2022-10-22T13:31:25Z</time>
      </trkpt>
      <trkpt lat="47.04638" lon="-1.6827">
        <ele>65</ele>
        <time>2022-10-22T13:31:27Z</time>
      </trkpt>
      <trkpt lat="47.04635" lon="-1.68255">
        <ele>65</ele>
        <time>2022-10-22T13:31:29Z</time>
      </trkpt>
      <trkpt lat="47.04631" lon="-1.68241">
        <ele>64</ele>
        <time>2022-10-22T13:31:31Z</time>
      </trkpt>
      <trkpt lat="47.04627" lon="-1.68226">
        <ele>64</ele>
        <time>2022-10-22T13:31:33Z</time>
      </trkpt>
      <trkpt lat="47.04624" lon="-1.68211">
        <ele>64</ele>
        <time>2022-10-22T13:31:35Z</time>
      </trkpt>
      <trkpt lat="47.04619" lon="-1.68196">
        <ele>64</ele>
        <time>2022-10-22T13:31:37Z</time>
      </trkpt>
      <trkpt lat="47.04616" lon="-1.68182">
        <ele>64</ele>
        <time>2022-10-22T13:31:39Z</time>
      </trkpt>
      <trkpt lat="47.04612" lon="-1.68167">
        <ele>64</ele>
        <time>2022-10-22T13:31:41Z</time>
      </trkpt>
      <trkpt lat="47.04608" lon="-1.68152">
        <ele>64</ele>
        <time>2022-10-22T13:31:43Z</time>
      </trkpt>
      <trkpt lat="47.04604" lon="-1.68137">
        <ele>64</ele>
        <time>2022-10-22T13:31:45Z</time>
      </trkpt>
      <trkpt lat="47.046" lon="-1.68121">
        <ele>64</ele>
        <time>2022-10-22T13:31:47Z</time>
      </trkpt>
      <trkpt lat="47.04597" lon="-1.68106">
        <ele>65</ele>
        <time>2022-10-22T13:31:49Z</time>
      </trkpt>
      <trkpt lat="47.04593" lon="-1.68092">
        <ele>65</ele>
        <time>2022-10-22T13:31:51Z</time>
      </trkpt>
      <trkpt lat="47.04589" lon="-1.68078">
        <ele>65</ele>
        <time>2022-10-22T13:31:53Z</time>
      </trkpt>
      <trkpt lat="47.04586" lon="-1.68064">
        <ele>65</ele>
        <time>2022-10-22T13:31:55Z</time>
      </trkpt>
      <trkpt lat="47.04582" lon="-1.6805">
        <ele>66</ele>
        <time>2022-10-22T13:31:57Z</time>
      </trkpt>
      <trkpt lat="47.04578" lon="-1.68036">
        <ele>66</ele>
        <time>2022-10-22T13:31:59Z</time>
      </trkpt>
      <trkpt lat="47.04575" lon="-1.68023">
        <ele>66</ele>
        <time>2022-10-22T13:32:01Z</time>
      </trkpt>
      <trkpt lat="47.04572" lon="-1.68011">
        <ele>66</ele>
        <time>2022-10-22T13:32:03Z</time>
      </trkpt>
      <trkpt lat="47.04569" lon="-1.67997">
        <ele>66</ele>
        <time>2022-10-22T13:32:05Z</time>
      </trkpt>
      <trkpt lat="47.04565" lon="-1.67984">
        <ele>67</ele>
        <time>2022-10-22T13:32:07Z</time>
      </trkpt>
      <trkpt lat="47.04561" lon="-1.6797">
        <ele>66</ele>
        <time>2022-10-22T13:32:09Z</time>
      </trkpt>
      <trkpt lat="47.04558" lon="-1.67957">
        <ele>66</ele>
        <time>2022-10-22T13:32:11Z</time>
      </trkpt>
      <trkpt lat="47.04555" lon="-1.67944">
        <ele>66</ele>
        <time>2022-10-22T13:32:13Z</time>
      </trkpt>
      <trkpt lat="47.04551" lon="-1.6793">
        <ele>66</ele>
        <time>2022-10-22T13:32:15Z</time>
      </trkpt>
      <trkpt lat="47.04548" lon="-1.67918">
        <ele>66</ele>
        <time>2022-10-22T13:32:17Z</time>
      </trkpt>
      <trkpt lat="47.04545" lon="-1.67905">
        <ele>66</ele>
        <time>2022-10-22T13:32:19Z</time>
      </trkpt>
      <trkpt lat="47.04542" lon="-1.67892">
        <ele>66</ele>
        <time>2022-10-22T13:32:21Z</time>
      </trkpt>
      <trkpt lat="47.04539" lon="-1.67879">
        <ele>66</ele>
        <time>2022-10-22T13:32:23Z</time>
      </trkpt>
      <trkpt lat="47.04535" lon="-1.67867">
        <ele>66</ele>
        <time>2022-10-22T13:32:25Z</time>
      </trkpt>
      <trkpt lat="47.0453" lon="-1.67848">
        <ele>67</ele>
        <time>2022-10-22T13:32:28Z</time>
      </trkpt>
      <trkpt lat="47.04527" lon="-1.67835">
        <ele>67</ele>
        <time>2022-10-22T13:32:30Z</time>
      </trkpt>
      <trkpt lat="47.04523" lon="-1.67822">
        <ele>67</ele>
        <time>2022-10-22T13:32:32Z</time>
      </trkpt>
      <trkpt lat="47.04519" lon="-1.67808">
        <ele>67</ele>
        <time>2022-10-22T13:32:34Z</time>
      </trkpt>
      <trkpt lat="47.04516" lon="-1.67795">
        <ele>67</ele>
        <time>2022-10-22T13:32:36Z</time>
      </trkpt>
      <trkpt lat="47.04512" lon="-1.67781">
        <ele>67</ele>
        <time>2022-10-22T13:32:38Z</time>
      </trkpt>
      <trkpt lat="47.04509" lon="-1.67768">
        <ele>67</ele>
        <time>2022-10-22T13:32:40Z</time>
      </trkpt>
      <trkpt lat="47.04505" lon="-1.67754">
        <ele>67</ele>
        <time>2022-10-22T13:32:42Z</time>
      </trkpt>
      <trkpt lat="47.04502" lon="-1.67739">
        <ele>67</ele>
        <time>2022-10-22T13:32:44Z</time>
      </trkpt>
      <trkpt lat="47.04497" lon="-1.67724">
        <ele>67</ele>
        <time>2022-10-22T13:32:46Z</time>
      </trkpt>
      <trkpt lat="47.04494" lon="-1.6771">
        <ele>67</ele>
        <time>2022-10-22T13:32:48Z</time>
      </trkpt>
      <trkpt lat="47.0449" lon="-1.67694">
        <ele>66</ele>
        <time>2022-10-22T13:32:50Z</time>
      </trkpt>
      <trkpt lat="47.04486" lon="-1.67679">
        <ele>66</ele>
        <time>2022-10-22T13:32:52Z</time>
      </trkpt>
      <trkpt lat="47.04482" lon="-1.67664">
        <ele>66</ele>
        <time>2022-10-22T13:32:54Z</time>
      </trkpt>
      <trkpt lat="47.04479" lon="-1.6765">
        <ele>66</ele>
        <time>2022-10-22T13:32:56Z</time>
      </trkpt>
      <trkpt lat="47.04475" lon="-1.67636">
        <ele>66</ele>
        <time>2022-10-22T13:32:58Z</time>
      </trkpt>
      <trkpt lat="47.04471" lon="-1.67622">
        <ele>66</ele>
        <time>2022-10-22T13:33:00Z</time>
      </trkpt>
      <trkpt lat="47.04467" lon="-1.67607">
        <ele>65</ele>
        <time>2022-10-22T13:33:02Z</time>
      </trkpt>
      <trkpt lat="47.04464" lon="-1.67593">
        <ele>65</ele>
        <time>2022-10-22T13:33:04Z</time>
      </trkpt>
      <trkpt lat="47.0446" lon="-1.67577">
        <ele>65</ele>
        <time>2022-10-22T13:33:06Z</time>
      </trkpt>
      <trkpt lat="47.04456" lon="-1.67561">
        <ele>64</ele>
        <time>2022-10-22T13:33:08Z</time>
      </trkpt>
      <trkpt lat="47.04452" lon="-1.67545">
        <ele>64</ele>
        <time>2022-10-22T13:33:10Z</time>
      </trkpt>
      <trkpt lat="47.04447" lon="-1.67528">
        <ele>64</ele>
        <time>2022-10-22T13:33:12Z</time>
      </trkpt>
      <trkpt lat="47.04443" lon="-1.6751">
        <ele>63</ele>
        <time>2022-10-22T13:33:14Z</time>
      </trkpt>
      <trkpt lat="47.04438" lon="-1.67493">
        <ele>63</ele>
        <time>2022-10-22T13:33:16Z</time>
      </trkpt>
      <trkpt lat="47.04434" lon="-1.67475">
        <ele>63</ele>
        <time>2022-10-22T13:33:18Z</time>
      </trkpt>
      <trkpt lat="47.04429" lon="-1.67459">
        <ele>63</ele>
        <time>2022-10-22T13:33:20Z</time>
      </trkpt>
      <trkpt lat="47.04425" lon="-1.67442">
        <ele>63</ele>
        <time>2022-10-22T13:33:22Z</time>
      </trkpt>
      <trkpt lat="47.04421" lon="-1.67425">
        <ele>63</ele>
        <time>2022-10-22T13:33:24Z</time>
      </trkpt>
      <trkpt lat="47.04416" lon="-1.67408">
        <ele>63</ele>
        <time>2022-10-22T13:33:26Z</time>
      </trkpt>
      <trkpt lat="47.04411" lon="-1.67391">
        <ele>64</ele>
        <time>2022-10-22T13:33:28Z</time>
      </trkpt>
      <trkpt lat="47.04408" lon="-1.67374">
        <ele>64</ele>
        <time>2022-10-22T13:33:30Z</time>
      </trkpt>
      <trkpt lat="47.04403" lon="-1.67357">
        <ele>64</ele>
        <time>2022-10-22T13:33:32Z</time>
      </trkpt>
      <trkpt lat="47.04398" lon="-1.67341">
        <ele>64</ele>
        <time>2022-10-22T13:33:34Z</time>
      </trkpt>
      <trkpt lat="47.04394" lon="-1.67325">
        <ele>64</ele>
        <time>2022-10-22T13:33:36Z</time>
      </trkpt>
      <trkpt lat="47.0439" lon="-1.6731">
        <ele>64</ele>
        <time>2022-10-22T13:33:38Z</time>
      </trkpt>
      <trkpt lat="47.04386" lon="-1.67294">
        <ele>64</ele>
        <time>2022-10-22T13:33:40Z</time>
      </trkpt>
      <trkpt lat="47.04382" lon="-1.67279">
        <ele>63</ele>
        <time>2022-10-22T13:33:42Z</time>
      </trkpt>
      <trkpt lat="47.04379" lon="-1.67263">
        <ele>63</ele>
        <time>2022-10-22T13:33:44Z</time>
      </trkpt>
      <trkpt lat="47.04375" lon="-1.67248">
        <ele>63</ele>
        <time>2022-10-22T13:33:46Z</time>
      </trkpt>
      <trkpt lat="47.04371" lon="-1.67234">
        <ele>63</ele>
        <time>2022-10-22T13:33:48Z</time>
      </trkpt>
      <trkpt lat="47.04367" lon="-1.6722">
        <ele>63</ele>
        <time>2022-10-22T13:33:50Z</time>
      </trkpt>
      <trkpt lat="47.04363" lon="-1.67206">
        <ele>64</ele>
        <time>2022-10-22T13:33:52Z</time>
      </trkpt>
      <trkpt lat="47.0436" lon="-1.67192">
        <ele>64</ele>
        <time>2022-10-22T13:33:54Z</time>
      </trkpt>
      <trkpt lat="47.04356" lon="-1.67177">
        <ele>64</ele>
        <time>2022-10-22T13:33:56Z</time>
      </trkpt>
      <trkpt lat="47.04352" lon="-1.67162">
        <ele>64</ele>
        <time>2022-10-22T13:33:58Z</time>
      </trkpt>
      <trkpt lat="47.04348" lon="-1.67146">
        <ele>64</ele>
        <time>2022-10-22T13:34:00Z</time>
      </trkpt>
      <trkpt lat="47.04344" lon="-1.6713">
        <ele>63</ele>
        <time>2022-10-22T13:34:02Z</time>
      </trkpt>
      <trkpt lat="47.04341" lon="-1.67115">
        <ele>63</ele>
        <time>2022-10-22T13:34:04Z</time>
      </trkpt>
      <trkpt lat="47.04337" lon="-1.67099">
        <ele>63</ele>
        <time>2022-10-22T13:34:06Z</time>
      </trkpt>
      <trkpt lat="47.04332" lon="-1.67083">
        <ele>62</ele>
        <time>2022-10-22T13:34:08Z</time>
      </trkpt>
      <trkpt lat="47.04328" lon="-1.67067">
        <ele>62</ele>
        <time>2022-10-22T13:34:10Z</time>
      </trkpt>
      <trkpt lat="47.04324" lon="-1.67051">
        <ele>63</ele>
        <time>2022-10-22T13:34:12Z</time>
      </trkpt>
      <trkpt lat="47.04319" lon="-1.67035">
        <ele>62</ele>
        <time>2022-10-22T13:34:14Z</time>
      </trkpt>
      <trkpt lat="47.04315" lon="-1.67018">
        <ele>62</ele>
        <time>2022-10-22T13:34:16Z</time>
      </trkpt>
      <trkpt lat="47.04311" lon="-1.67002">
        <ele>62</ele>
        <time>2022-10-22T13:34:18Z</time>
      </trkpt>
      <trkpt lat="47.04308" lon="-1.66986">
        <ele>61</ele>
        <time>2022-10-22T13:34:20Z</time>
      </trkpt>
      <trkpt lat="47.04304" lon="-1.6697">
        <ele>61</ele>
        <time>2022-10-22T13:34:22Z</time>
      </trkpt>
      <trkpt lat="47.04299" lon="-1.66955">
        <ele>62</ele>
        <time>2022-10-22T13:34:24Z</time>
      </trkpt>
      <trkpt lat="47.04296" lon="-1.66939">
        <ele>62</ele>
        <time>2022-10-22T13:34:26Z</time>
      </trkpt>
      <trkpt lat="47.04292" lon="-1.66924">
        <ele>61</ele>
        <time>2022-10-22T13:34:28Z</time>
      </trkpt>
      <trkpt lat="47.04288" lon="-1.66909">
        <ele>61</ele>
        <time>2022-10-22T13:34:30Z</time>
      </trkpt>
      <trkpt lat="47.04284" lon="-1.66894">
        <ele>61</ele>
        <time>2022-10-22T13:34:32Z</time>
      </trkpt>
      <trkpt lat="47.0428" lon="-1.66879">
        <ele>61</ele>
        <time>2022-10-22T13:34:34Z</time>
      </trkpt>
      <trkpt lat="47.04276" lon="-1.66864">
        <ele>61</ele>
        <time>2022-10-22T13:34:36Z</time>
      </trkpt>
      <trkpt lat="47.04272" lon="-1.66849">
        <ele>61</ele>
        <time>2022-10-22T13:34:38Z</time>
      </trkpt>
      <trkpt lat="47.04268" lon="-1.66833">
        <ele>61</ele>
        <time>2022-10-22T13:34:40Z</time>
      </trkpt>
      <trkpt lat="47.04263" lon="-1.66817">
        <ele>61</ele>
        <time>2022-10-22T13:34:42Z</time>
      </trkpt>
      <trkpt lat="47.04259" lon="-1.66802">
        <ele>62</ele>
        <time>2022-10-22T13:34:44Z</time>
      </trkpt>
      <trkpt lat="47.04255" lon="-1.66788">
        <ele>62</ele>
        <time>2022-10-22T13:34:46Z</time>
      </trkpt>
      <trkpt lat="47.04252" lon="-1.66772">
        <ele>63</ele>
        <time>2022-10-22T13:34:48Z</time>
      </trkpt>
      <trkpt lat="47.04248" lon="-1.66757">
        <ele>63</ele>
        <time>2022-10-22T13:34:50Z</time>
      </trkpt>
      <trkpt lat="47.04244" lon="-1.66742">
        <ele>63</ele>
        <time>2022-10-22T13:34:52Z</time>
      </trkpt>
      <trkpt lat="47.0424" lon="-1.66726">
        <ele>64</ele>
        <time>2022-10-22T13:34:54Z</time>
      </trkpt>
      <trkpt lat="47.04236" lon="-1.66711">
        <ele>64</ele>
        <time>2022-10-22T13:34:56Z</time>
      </trkpt>
      <trkpt lat="47.04232" lon="-1.66697">
        <ele>63</ele>
        <time>2022-10-22T13:34:58Z</time>
      </trkpt>
      <trkpt lat="47.04228" lon="-1.66682">
        <ele>63</ele>
        <time>2022-10-22T13:35:00Z</time>
      </trkpt>
      <trkpt lat="47.04225" lon="-1.66668">
        <ele>63</ele>
        <time>2022-10-22T13:35:02Z</time>
      </trkpt>
      <trkpt lat="47.04221" lon="-1.66653">
        <ele>63</ele>
        <time>2022-10-22T13:35:04Z</time>
      </trkpt>
      <trkpt lat="47.04218" lon="-1.66639">
        <ele>63</ele>
        <time>2022-10-22T13:35:06Z</time>
      </trkpt>
      <trkpt lat="47.04214" lon="-1.66624">
        <ele>62</ele>
        <time>2022-10-22T13:35:08Z</time>
      </trkpt>
      <trkpt lat="47.0421" lon="-1.6661">
        <ele>62</ele>
        <time>2022-10-22T13:35:10Z</time>
      </trkpt>
      <trkpt lat="47.04206" lon="-1.66595">
        <ele>62</ele>
        <time>2022-10-22T13:35:12Z</time>
      </trkpt>
      <trkpt lat="47.04202" lon="-1.66581">
        <ele>62</ele>
        <time>2022-10-22T13:35:14Z</time>
      </trkpt>
      <trkpt lat="47.04199" lon="-1.66566">
        <ele>62</ele>
        <time>2022-10-22T13:35:16Z</time>
      </trkpt>
      <trkpt lat="47.04195" lon="-1.66551">
        <ele>62</ele>
        <time>2022-10-22T13:35:18Z</time>
      </trkpt>
      <trkpt lat="47.04191" lon="-1.66537">
        <ele>62</ele>
        <time>2022-10-22T13:35:20Z</time>
      </trkpt>
      <trkpt lat="47.04187" lon="-1.66523">
        <ele>63</ele>
        <time>2022-10-22T13:35:22Z</time>
      </trkpt>
      <trkpt lat="47.04184" lon="-1.66508">
        <ele>63</ele>
        <time>2022-10-22T13:35:24Z</time>
      </trkpt>
      <trkpt lat="47.0418" lon="-1.66494">
        <ele>63</ele>
        <time>2022-10-22T13:35:26Z</time>
      </trkpt>
      <trkpt lat="47.04176" lon="-1.66479">
        <ele>63</ele>
        <time>2022-10-22T13:35:28Z</time>
      </trkpt>
      <trkpt lat="47.04173" lon="-1.66465">
        <ele>63</ele>
        <time>2022-10-22T13:35:30Z</time>
      </trkpt>
      <trkpt lat="47.04169" lon="-1.66451">
        <ele>63</ele>
        <time>2022-10-22T13:35:32Z</time>
      </trkpt>
      <trkpt lat="47.04165" lon="-1.66436">
        <ele>62</ele>
        <time>2022-10-22T13:35:34Z</time>
      </trkpt>
      <trkpt lat="47.04162" lon="-1.66421">
        <ele>63</ele>
        <time>2022-10-22T13:35:36Z</time>
      </trkpt>
      <trkpt lat="47.04159" lon="-1.66408">
        <ele>63</ele>
        <time>2022-10-22T13:35:38Z</time>
      </trkpt>
      <trkpt lat="47.04155" lon="-1.66393">
        <ele>64</ele>
        <time>2022-10-22T13:35:40Z</time>
      </trkpt>
      <trkpt lat="47.04151" lon="-1.6638">
        <ele>63</ele>
        <time>2022-10-22T13:35:42Z</time>
      </trkpt>
      <trkpt lat="47.04148" lon="-1.66365">
        <ele>63</ele>
        <time>2022-10-22T13:35:44Z</time>
      </trkpt>
      <trkpt lat="47.04144" lon="-1.6635">
        <ele>63</ele>
        <time>2022-10-22T13:35:46Z</time>
      </trkpt>
      <trkpt lat="47.0414" lon="-1.66335">
        <ele>63</ele>
        <time>2022-10-22T13:35:48Z</time>
      </trkpt>
      <trkpt lat="47.04136" lon="-1.66321">
        <ele>64</ele>
        <time>2022-10-22T13:35:50Z</time>
      </trkpt>
      <trkpt lat="47.04132" lon="-1.66307">
        <ele>64</ele>
        <time>2022-10-22T13:35:52Z</time>
      </trkpt>
      <trkpt lat="47.04128" lon="-1.66292">
        <ele>64</ele>
        <time>2022-10-22T13:35:54Z</time>
      </trkpt>
      <trkpt lat="47.04125" lon="-1.66279">
        <ele>64</ele>
        <time>2022-10-22T13:35:56Z</time>
      </trkpt>
      <trkpt lat="47.04121" lon="-1.66265">
        <ele>64</ele>
        <time>2022-10-22T13:35:58Z</time>
      </trkpt>
      <trkpt lat="47.04117" lon="-1.6625">
        <ele>63</ele>
        <time>2022-10-22T13:36:00Z</time>
      </trkpt>
      <trkpt lat="47.04114" lon="-1.66235">
        <ele>63</ele>
        <time>2022-10-22T13:36:02Z</time>
      </trkpt>
      <trkpt lat="47.0411" lon="-1.6622">
        <ele>63</ele>
        <time>2022-10-22T13:36:04Z</time>
      </trkpt>
      <trkpt lat="47.04107" lon="-1.66206">
        <ele>63</ele>
        <time>2022-10-22T13:36:06Z</time>
      </trkpt>
      <trkpt lat="47.04103" lon="-1.66192">
        <ele>64</ele>
        <time>2022-10-22T13:36:08Z</time>
      </trkpt>
      <trkpt lat="47.04099" lon="-1.66178">
        <ele>65</ele>
        <time>2022-10-22T13:36:10Z</time>
      </trkpt>
      <trkpt lat="47.04096" lon="-1.66163">
        <ele>65</ele>
        <time>2022-10-22T13:36:12Z</time>
      </trkpt>
      <trkpt lat="47.04092" lon="-1.6615">
        <ele>66</ele>
        <time>2022-10-22T13:36:14Z</time>
      </trkpt>
      <trkpt lat="47.04088" lon="-1.66135">
        <ele>66</ele>
        <time>2022-10-22T13:36:16Z</time>
      </trkpt>
      <trkpt lat="47.04084" lon="-1.66121">
        <ele>66</ele>
        <time>2022-10-22T13:36:18Z</time>
      </trkpt>
      <trkpt lat="47.0408" lon="-1.66106">
        <ele>66</ele>
        <time>2022-10-22T13:36:20Z</time>
      </trkpt>
      <trkpt lat="47.04077" lon="-1.66092">
        <ele>67</ele>
        <time>2022-10-22T13:36:22Z</time>
      </trkpt>
      <trkpt lat="47.04073" lon="-1.66078">
        <ele>67</ele>
        <time>2022-10-22T13:36:24Z</time>
      </trkpt>
      <trkpt lat="47.0407" lon="-1.66063">
        <ele>67</ele>
        <time>2022-10-22T13:36:26Z</time>
      </trkpt>
      <trkpt lat="47.04066" lon="-1.66048">
        <ele>67</ele>
        <time>2022-10-22T13:36:28Z</time>
      </trkpt>
      <trkpt lat="47.04062" lon="-1.66033">
        <ele>67</ele>
        <time>2022-10-22T13:36:30Z</time>
      </trkpt>
      <trkpt lat="47.04058" lon="-1.66019">
        <ele>67</ele>
        <time>2022-10-22T13:36:32Z</time>
      </trkpt>
      <trkpt lat="47.04054" lon="-1.66004">
        <ele>67</ele>
        <time>2022-10-22T13:36:34Z</time>
      </trkpt>
      <trkpt lat="47.0405" lon="-1.65989">
        <ele>68</ele>
        <time>2022-10-22T13:36:36Z</time>
      </trkpt>
      <trkpt lat="47.04046" lon="-1.65974">
        <ele>67</ele>
        <time>2022-10-22T13:36:38Z</time>
      </trkpt>
      <trkpt lat="47.04042" lon="-1.65959">
        <ele>67</ele>
        <time>2022-10-22T13:36:40Z</time>
      </trkpt>
      <trkpt lat="47.04037" lon="-1.65944">
        <ele>67</ele>
        <time>2022-10-22T13:36:42Z</time>
      </trkpt>
      <trkpt lat="47.04033" lon="-1.65928">
        <ele>67</ele>
        <time>2022-10-22T13:36:44Z</time>
      </trkpt>
      <trkpt lat="47.04028" lon="-1.65913">
        <ele>67</ele>
        <time>2022-10-22T13:36:46Z</time>
      </trkpt>
      <trkpt lat="47.04023" lon="-1.65897">
        <ele>66</ele>
        <time>2022-10-22T13:36:48Z</time>
      </trkpt>
      <trkpt lat="47.04018" lon="-1.65881">
        <ele>67</ele>
        <time>2022-10-22T13:36:50Z</time>
      </trkpt>
      <trkpt lat="47.04013" lon="-1.65864">
        <ele>67</ele>
        <time>2022-10-22T13:36:52Z</time>
      </trkpt>
      <trkpt lat="47.04009" lon="-1.65847">
        <ele>67</ele>
        <time>2022-10-22T13:36:54Z</time>
      </trkpt>
      <trkpt lat="47.04005" lon="-1.65829">
        <ele>66</ele>
        <time>2022-10-22T13:36:56Z</time>
      </trkpt>
      <trkpt lat="47.04" lon="-1.65812">
        <ele>67</ele>
        <time>2022-10-22T13:36:58Z</time>
      </trkpt>
      <trkpt lat="47.03996" lon="-1.65795">
        <ele>66</ele>
        <time>2022-10-22T13:37:00Z</time>
      </trkpt>
      <trkpt lat="47.03992" lon="-1.65778">
        <ele>66</ele>
        <time>2022-10-22T13:37:02Z</time>
      </trkpt>
      <trkpt lat="47.03987" lon="-1.65762">
        <ele>66</ele>
        <time>2022-10-22T13:37:04Z</time>
      </trkpt>
      <trkpt lat="47.03982" lon="-1.65747">
        <ele>66</ele>
        <time>2022-10-22T13:37:06Z</time>
      </trkpt>
      <trkpt lat="47.03977" lon="-1.65732">
        <ele>65</ele>
        <time>2022-10-22T13:37:08Z</time>
      </trkpt>
      <trkpt lat="47.03973" lon="-1.65716">
        <ele>65</ele>
        <time>2022-10-22T13:37:10Z</time>
      </trkpt>
      <trkpt lat="47.03969" lon="-1.65701">
        <ele>65</ele>
        <time>2022-10-22T13:37:12Z</time>
      </trkpt>
      <trkpt lat="47.03964" lon="-1.65684">
        <ele>65</ele>
        <time>2022-10-22T13:37:14Z</time>
      </trkpt>
      <trkpt lat="47.03959" lon="-1.65668">
        <ele>64</ele>
        <time>2022-10-22T13:37:16Z</time>
      </trkpt>
      <trkpt lat="47.03955" lon="-1.65652">
        <ele>64</ele>
        <time>2022-10-22T13:37:18Z</time>
      </trkpt>
      <trkpt lat="47.0395" lon="-1.65636">
        <ele>64</ele>
        <time>2022-10-22T13:37:20Z</time>
      </trkpt>
      <trkpt lat="47.03945" lon="-1.6562">
        <ele>64</ele>
        <time>2022-10-22T13:37:22Z</time>
      </trkpt>
      <trkpt lat="47.03941" lon="-1.65604">
        <ele>64</ele>
        <time>2022-10-22T13:37:24Z</time>
      </trkpt>
      <trkpt lat="47.03937" lon="-1.65589">
        <ele>64</ele>
        <time>2022-10-22T13:37:26Z</time>
      </trkpt>
      <trkpt lat="47.03932" lon="-1.65574">
        <ele>64</ele>
        <time>2022-10-22T13:37:28Z</time>
      </trkpt>
      <trkpt lat="47.03928" lon="-1.65558">
        <ele>64</ele>
        <time>2022-10-22T13:37:30Z</time>
      </trkpt>
      <trkpt lat="47.03924" lon="-1.65543">
        <ele>64</ele>
        <time>2022-10-22T13:37:32Z</time>
      </trkpt>
      <trkpt lat="47.0392" lon="-1.65527">
        <ele>64</ele>
        <time>2022-10-22T13:37:34Z</time>
      </trkpt>
      <trkpt lat="47.03916" lon="-1.65513">
        <ele>64</ele>
        <time>2022-10-22T13:37:36Z</time>
      </trkpt>
      <trkpt lat="47.03911" lon="-1.65497">
        <ele>64</ele>
        <time>2022-10-22T13:37:38Z</time>
      </trkpt>
      <trkpt lat="47.03907" lon="-1.65482">
        <ele>64</ele>
        <time>2022-10-22T13:37:40Z</time>
      </trkpt>
      <trkpt lat="47.03903" lon="-1.65467">
        <ele>64</ele>
        <time>2022-10-22T13:37:42Z</time>
      </trkpt>
      <trkpt lat="47.03899" lon="-1.65452">
        <ele>64</ele>
        <time>2022-10-22T13:37:44Z</time>
      </trkpt>
      <trkpt lat="47.03895" lon="-1.65436">
        <ele>64</ele>
        <time>2022-10-22T13:37:46Z</time>
      </trkpt>
      <trkpt lat="47.03891" lon="-1.65421">
        <ele>64</ele>
        <time>2022-10-22T13:37:48Z</time>
      </trkpt>
      <trkpt lat="47.03886" lon="-1.65405">
        <ele>64</ele>
        <time>2022-10-22T13:37:50Z</time>
      </trkpt>
      <trkpt lat="47.03881" lon="-1.6539">
        <ele>63</ele>
        <time>2022-10-22T13:37:52Z</time>
      </trkpt>
      <trkpt lat="47.03877" lon="-1.65375">
        <ele>63</ele>
        <time>2022-10-22T13:37:54Z</time>
      </trkpt>
      <trkpt lat="47.03871" lon="-1.6536">
        <ele>63</ele>
        <time>2022-10-22T13:37:56Z</time>
      </trkpt>
      <trkpt lat="47.03865" lon="-1.65346">
        <ele>63</ele>
        <time>2022-10-22T13:37:58Z</time>
      </trkpt>
      <trkpt lat="47.03857" lon="-1.65335">
        <ele>63</ele>
        <time>2022-10-22T13:38:00Z</time>
      </trkpt>
      <trkpt lat="47.03852" lon="-1.65323">
        <ele>64</ele>
        <time>2022-10-22T13:38:02Z</time>
      </trkpt>
      <trkpt lat="47.03854" lon="-1.65308">
        <ele>64</ele>
        <time>2022-10-22T13:38:04Z</time>
      </trkpt>
      <trkpt lat="47.03862" lon="-1.65296">
        <ele>64</ele>
        <time>2022-10-22T13:38:06Z</time>
      </trkpt>
      <trkpt lat="47.03871" lon="-1.65285">
        <ele>63</ele>
        <time>2022-10-22T13:38:08Z</time>
      </trkpt>
      <trkpt lat="47.03881" lon="-1.65277">
        <ele>63</ele>
        <time>2022-10-22T13:38:10Z</time>
      </trkpt>
      <trkpt lat="47.03893" lon="-1.65269">
        <ele>62</ele>
        <time>2022-10-22T13:38:12Z</time>
      </trkpt>
      <trkpt lat="47.03903" lon="-1.65261">
        <ele>62</ele>
        <time>2022-10-22T13:38:14Z</time>
      </trkpt>
      <trkpt lat="47.03914" lon="-1.65254">
        <ele>62</ele>
        <time>2022-10-22T13:38:16Z</time>
      </trkpt>
      <trkpt lat="47.03925" lon="-1.65247">
        <ele>62</ele>
        <time>2022-10-22T13:38:18Z</time>
      </trkpt>
      <trkpt lat="47.03937" lon="-1.6524">
        <ele>62</ele>
        <time>2022-10-22T13:38:20Z</time>
      </trkpt>
      <trkpt lat="47.03949" lon="-1.65232">
        <ele>62</ele>
        <time>2022-10-22T13:38:22Z</time>
      </trkpt>
      <trkpt lat="47.0396" lon="-1.65224">
        <ele>61</ele>
        <time>2022-10-22T13:38:24Z</time>
      </trkpt>
      <trkpt lat="47.03972" lon="-1.65216">
        <ele>61</ele>
        <time>2022-10-22T13:38:26Z</time>
      </trkpt>
      <trkpt lat="47.03983" lon="-1.65208">
        <ele>61</ele>
        <time>2022-10-22T13:38:28Z</time>
      </trkpt>
      <trkpt lat="47.03994" lon="-1.652">
        <ele>62</ele>
        <time>2022-10-22T13:38:30Z</time>
      </trkpt>
      <trkpt lat="47.04006" lon="-1.65191">
        <ele>62</ele>
        <time>2022-10-22T13:38:32Z</time>
      </trkpt>
      <trkpt lat="47.04018" lon="-1.65183">
        <ele>62</ele>
        <time>2022-10-22T13:38:34Z</time>
      </trkpt>
      <trkpt lat="47.04029" lon="-1.65175">
        <ele>62</ele>
        <time>2022-10-22T13:38:36Z</time>
      </trkpt>
      <trkpt lat="47.04041" lon="-1.65167">
        <ele>62</ele>
        <time>2022-10-22T13:38:38Z</time>
      </trkpt>
      <trkpt lat="47.04052" lon="-1.6516">
        <ele>62</ele>
        <time>2022-10-22T13:38:40Z</time>
      </trkpt>
      <trkpt lat="47.04063" lon="-1.65152">
        <ele>62</ele>
        <time>2022-10-22T13:38:42Z</time>
      </trkpt>
      <trkpt lat="47.04075" lon="-1.65144">
        <ele>61</ele>
        <time>2022-10-22T13:38:44Z</time>
      </trkpt>
      <trkpt lat="47.04087" lon="-1.65136">
        <ele>61</ele>
        <time>2022-10-22T13:38:46Z</time>
      </trkpt>
      <trkpt lat="47.04099" lon="-1.65128">
        <ele>61</ele>
        <time>2022-10-22T13:38:48Z</time>
      </trkpt>
      <trkpt lat="47.0411" lon="-1.65121">
        <ele>61</ele>
        <time>2022-10-22T13:38:50Z</time>
      </trkpt>
      <trkpt lat="47.04121" lon="-1.65112">
        <ele>61</ele>
        <time>2022-10-22T13:38:52Z</time>
      </trkpt>
      <trkpt lat="47.04133" lon="-1.65104">
        <ele>61</ele>
        <time>2022-10-22T13:38:54Z</time>
      </trkpt>
      <trkpt lat="47.04144" lon="-1.65097">
        <ele>60</ele>
        <time>2022-10-22T13:38:56Z</time>
      </trkpt>
      <trkpt lat="47.04155" lon="-1.65089">
        <ele>60</ele>
        <time>2022-10-22T13:38:58Z</time>
      </trkpt>
      <trkpt lat="47.04167" lon="-1.65082">
        <ele>60</ele>
        <time>2022-10-22T13:39:00Z</time>
      </trkpt>
      <trkpt lat="47.04179" lon="-1.65074">
        <ele>60</ele>
        <time>2022-10-22T13:39:02Z</time>
      </trkpt>
      <trkpt lat="47.0419" lon="-1.65066">
        <ele>60</ele>
        <time>2022-10-22T13:39:04Z</time>
      </trkpt>
      <trkpt lat="47.04201" lon="-1.65058">
        <ele>60</ele>
        <time>2022-10-22T13:39:06Z</time>
      </trkpt>
      <trkpt lat="47.04212" lon="-1.6505">
        <ele>60</ele>
        <time>2022-10-22T13:39:08Z</time>
      </trkpt>
      <trkpt lat="47.04224" lon="-1.65043">
        <ele>60</ele>
        <time>2022-10-22T13:39:10Z</time>
      </trkpt>
      <trkpt lat="47.04235" lon="-1.65035">
        <ele>60</ele>
        <time>2022-10-22T13:39:12Z</time>
      </trkpt>
      <trkpt lat="47.04246" lon="-1.65027">
        <ele>60</ele>
        <time>2022-10-22T13:39:14Z</time>
      </trkpt>
      <trkpt lat="47.04258" lon="-1.6502">
        <ele>60</ele>
        <time>2022-10-22T13:39:16Z</time>
      </trkpt>
      <trkpt lat="47.04269" lon="-1.65012">
        <ele>59</ele>
        <time>2022-10-22T13:39:18Z</time>
      </trkpt>
      <trkpt lat="47.0428" lon="-1.65003">
        <ele>59</ele>
        <time>2022-10-22T13:39:20Z</time>
      </trkpt>
      <trkpt lat="47.04291" lon="-1.64995">
        <ele>59</ele>
        <time>2022-10-22T13:39:22Z</time>
      </trkpt>
      <trkpt lat="47.04302" lon="-1.64986">
        <ele>58</ele>
        <time>2022-10-22T13:39:24Z</time>
      </trkpt>
      <trkpt lat="47.04312" lon="-1.64978">
        <ele>58</ele>
        <time>2022-10-22T13:39:26Z</time>
      </trkpt>
      <trkpt lat="47.04322" lon="-1.64969">
        <ele>58</ele>
        <time>2022-10-22T13:39:28Z</time>
      </trkpt>
      <trkpt lat="47.04333" lon="-1.64961">
        <ele>59</ele>
        <time>2022-10-22T13:39:30Z</time>
      </trkpt>
      <trkpt lat="47.04343" lon="-1.64953">
        <ele>58</ele>
        <time>2022-10-22T13:39:32Z</time>
      </trkpt>
      <trkpt lat="47.04353" lon="-1.64944">
        <ele>58</ele>
        <time>2022-10-22T13:39:34Z</time>
      </trkpt>
      <trkpt lat="47.04361" lon="-1.64935">
        <ele>59</ele>
        <time>2022-10-22T13:39:36Z</time>
      </trkpt>
      <trkpt lat="47.0437" lon="-1.64927">
        <ele>59</ele>
        <time>2022-10-22T13:39:38Z</time>
      </trkpt>
      <trkpt lat="47.04379" lon="-1.6492">
        <ele>59</ele>
        <time>2022-10-22T13:39:40Z</time>
      </trkpt>
      <trkpt lat="47.04387" lon="-1.64913">
        <ele>59</ele>
        <time>2022-10-22T13:39:42Z</time>
      </trkpt>
      <trkpt lat="47.04396" lon="-1.64905">
        <ele>59</ele>
        <time>2022-10-22T13:39:44Z</time>
      </trkpt>
      <trkpt lat="47.04405" lon="-1.64898">
        <ele>59</ele>
        <time>2022-10-22T13:39:46Z</time>
      </trkpt>
      <trkpt lat="47.04415" lon="-1.64893">
        <ele>60</ele>
        <time>2022-10-22T13:39:48Z</time>
      </trkpt>
      <trkpt lat="47.04425" lon="-1.64892">
        <ele>60</ele>
        <time>2022-10-22T13:39:50Z</time>
      </trkpt>
      <trkpt lat="47.04435" lon="-1.64895">
        <ele>59</ele>
        <time>2022-10-22T13:39:52Z</time>
      </trkpt>
      <trkpt lat="47.04451" lon="-1.64903">
        <ele>59</ele>
        <time>2022-10-22T13:39:55Z</time>
      </trkpt>
      <trkpt lat="47.0446" lon="-1.64909">
        <ele>58</ele>
        <time>2022-10-22T13:39:57Z</time>
      </trkpt>
      <trkpt lat="47.0447" lon="-1.64905">
        <ele>59</ele>
        <time>2022-10-22T13:40:00Z</time>
      </trkpt>
      <trkpt lat="47.04472" lon="-1.6489">
        <ele>59</ele>
        <time>2022-10-22T13:40:03Z</time>
      </trkpt>
      <trkpt lat="47.04463" lon="-1.64879">
        <ele>60</ele>
        <time>2022-10-22T13:40:07Z</time>
      </trkpt>
      <trkpt lat="47.04456" lon="-1.64869">
        <ele>60</ele>
        <time>2022-10-22T13:40:10Z</time>
      </trkpt>
      <trkpt lat="47.0446" lon="-1.64855">
        <ele>61</ele>
        <time>2022-10-22T13:40:14Z</time>
      </trkpt>
      <trkpt lat="47.04468" lon="-1.64845">
        <ele>62</ele>
        <time>2022-10-22T13:40:17Z</time>
      </trkpt>
      <trkpt lat="47.04475" lon="-1.64836">
        <ele>63</ele>
        <time>2022-10-22T13:40:19Z</time>
      </trkpt>
      <trkpt lat="47.04486" lon="-1.64822">
        <ele>62</ele>
        <time>2022-10-22T13:40:22Z</time>
      </trkpt>
      <trkpt lat="47.04493" lon="-1.64812">
        <ele>62</ele>
        <time>2022-10-22T13:40:24Z</time>
      </trkpt>
      <trkpt lat="47.04499" lon="-1.64802">
        <ele>62</ele>
        <time>2022-10-22T13:40:26Z</time>
      </trkpt>
      <trkpt lat="47.04506" lon="-1.64786">
        <ele>62</ele>
        <time>2022-10-22T13:40:29Z</time>
      </trkpt>
      <trkpt lat="47.04511" lon="-1.64771">
        <ele>63</ele>
        <time>2022-10-22T13:40:32Z</time>
      </trkpt>
      <trkpt lat="47.04516" lon="-1.64756">
        <ele>63</ele>
        <time>2022-10-22T13:40:35Z</time>
      </trkpt>
      <trkpt lat="47.04522" lon="-1.64746">
        <ele>63</ele>
        <time>2022-10-22T13:40:37Z</time>
      </trkpt>
      <trkpt lat="47.0453" lon="-1.64737">
        <ele>63</ele>
        <time>2022-10-22T13:40:39Z</time>
      </trkpt>
      <trkpt lat="47.04536" lon="-1.64727">
        <ele>63</ele>
        <time>2022-10-22T13:40:41Z</time>
      </trkpt>
      <trkpt lat="47.04543" lon="-1.64716">
        <ele>63</ele>
        <time>2022-10-22T13:40:43Z</time>
      </trkpt>
      <trkpt lat="47.0455" lon="-1.64706">
        <ele>63</ele>
        <time>2022-10-22T13:40:45Z</time>
      </trkpt>
      <trkpt lat="47.04559" lon="-1.64699">
        <ele>63</ele>
        <time>2022-10-22T13:40:47Z</time>
      </trkpt>
      <trkpt lat="47.04569" lon="-1.64694">
        <ele>63</ele>
        <time>2022-10-22T13:40:49Z</time>
      </trkpt>
      <trkpt lat="47.04576" lon="-1.64683">
        <ele>63</ele>
        <time>2022-10-22T13:40:51Z</time>
      </trkpt>
      <trkpt lat="47.04582" lon="-1.6467">
        <ele>62</ele>
        <time>2022-10-22T13:40:53Z</time>
      </trkpt>
      <trkpt lat="47.04589" lon="-1.64658">
        <ele>62</ele>
        <time>2022-10-22T13:40:55Z</time>
      </trkpt>
      <trkpt lat="47.04595" lon="-1.64645">
        <ele>62</ele>
        <time>2022-10-22T13:40:57Z</time>
      </trkpt>
      <trkpt lat="47.04601" lon="-1.64633">
        <ele>62</ele>
        <time>2022-10-22T13:40:59Z</time>
      </trkpt>
      <trkpt lat="47.04608" lon="-1.64621">
        <ele>62</ele>
        <time>2022-10-22T13:41:01Z</time>
      </trkpt>
      <trkpt lat="47.04613" lon="-1.6461">
        <ele>62</ele>
        <time>2022-10-22T13:41:03Z</time>
      </trkpt>
      <trkpt lat="47.0462" lon="-1.64597">
        <ele>62</ele>
        <time>2022-10-22T13:41:05Z</time>
      </trkpt>
      <trkpt lat="47.04626" lon="-1.64584">
        <ele>62</ele>
        <time>2022-10-22T13:41:07Z</time>
      </trkpt>
      <trkpt lat="47.04631" lon="-1.64571">
        <ele>62</ele>
        <time>2022-10-22T13:41:09Z</time>
      </trkpt>
      <trkpt lat="47.04637" lon="-1.64558">
        <ele>62</ele>
        <time>2022-10-22T13:41:11Z</time>
      </trkpt>
      <trkpt lat="47.04644" lon="-1.64546">
        <ele>62</ele>
        <time>2022-10-22T13:41:13Z</time>
      </trkpt>
      <trkpt lat="47.04649" lon="-1.64532">
        <ele>63</ele>
        <time>2022-10-22T13:41:15Z</time>
      </trkpt>
      <trkpt lat="47.04655" lon="-1.64518">
        <ele>62</ele>
        <time>2022-10-22T13:41:17Z</time>
      </trkpt>
      <trkpt lat="47.0466" lon="-1.64505">
        <ele>62</ele>
        <time>2022-10-22T13:41:19Z</time>
      </trkpt>
      <trkpt lat="47.04667" lon="-1.64492">
        <ele>62</ele>
        <time>2022-10-22T13:41:21Z</time>
      </trkpt>
      <trkpt lat="47.04672" lon="-1.64478">
        <ele>62</ele>
        <time>2022-10-22T13:41:23Z</time>
      </trkpt>
      <trkpt lat="47.04678" lon="-1.64466">
        <ele>62</ele>
        <time>2022-10-22T13:41:25Z</time>
      </trkpt>
      <trkpt lat="47.04683" lon="-1.64455">
        <ele>62</ele>
        <time>2022-10-22T13:41:27Z</time>
      </trkpt>
      <trkpt lat="47.0469" lon="-1.64444">
        <ele>62</ele>
        <time>2022-10-22T13:41:29Z</time>
      </trkpt>
      <trkpt lat="47.04696" lon="-1.64434">
        <ele>62</ele>
        <time>2022-10-22T13:41:31Z</time>
      </trkpt>
      <trkpt lat="47.04703" lon="-1.64424">
        <ele>62</ele>
        <time>2022-10-22T13:41:33Z</time>
      </trkpt>
      <trkpt lat="47.04709" lon="-1.64413">
        <ele>62</ele>
        <time>2022-10-22T13:41:35Z</time>
      </trkpt>
      <trkpt lat="47.04715" lon="-1.64401">
        <ele>62</ele>
        <time>2022-10-22T13:41:37Z</time>
      </trkpt>
      <trkpt lat="47.04721" lon="-1.64388">
        <ele>62</ele>
        <time>2022-10-22T13:41:39Z</time>
      </trkpt>
      <trkpt lat="47.04726" lon="-1.64375">
        <ele>62</ele>
        <time>2022-10-22T13:41:41Z</time>
      </trkpt>
      <trkpt lat="47.0473" lon="-1.64362">
        <ele>63</ele>
        <time>2022-10-22T13:41:43Z</time>
      </trkpt>
      <trkpt lat="47.04731" lon="-1.64348">
        <ele>63</ele>
        <time>2022-10-22T13:41:45Z</time>
      </trkpt>
      <trkpt lat="47.04728" lon="-1.64335">
        <ele>62</ele>
        <time>2022-10-22T13:41:47Z</time>
      </trkpt>
      <trkpt lat="47.04729" lon="-1.64317">
        <ele>61</ele>
        <time>2022-10-22T13:41:50Z</time>
      </trkpt>
      <trkpt lat="47.04739" lon="-1.64324">
        <ele>59</ele>
        <time>2022-10-22T13:41:57Z</time>
      </trkpt>
      <trkpt lat="47.04747" lon="-1.64335">
        <ele>59</ele>
        <time>2022-10-22T13:42:02Z</time>
      </trkpt>
      <trkpt lat="47.04753" lon="-1.64346">
        <ele>58</ele>
        <time>2022-10-22T13:42:07Z</time>
      </trkpt>
      <trkpt lat="47.0475" lon="-1.64359">
        <ele>57</ele>
        <time>2022-10-22T13:42:28Z</time>
      </trkpt>
      <trkpt lat="47.04756" lon="-1.64348">
        <ele>55</ele>
        <time>2022-10-22T13:43:40Z</time>
      </trkpt>
      <trkpt lat="47.0475" lon="-1.64336">
        <ele>56</ele>
        <time>2022-10-22T13:43:45Z</time>
      </trkpt>
      <trkpt lat="47.04742" lon="-1.64326">
        <ele>56</ele>
        <time>2022-10-22T13:43:49Z</time>
      </trkpt>
      <trkpt lat="47.04736" lon="-1.64316">
        <ele>56</ele>
        <time>2022-10-22T13:43:52Z</time>
      </trkpt>
      <trkpt lat="47.04734" lon="-1.64301">
        <ele>57</ele>
        <time>2022-10-22T13:43:55Z</time>
      </trkpt>
      <trkpt lat="47.04736" lon="-1.64283">
        <ele>58</ele>
        <time>2022-10-22T13:43:58Z</time>
      </trkpt>
      <trkpt lat="47.04741" lon="-1.64264">
        <ele>58</ele>
        <time>2022-10-22T13:44:01Z</time>
      </trkpt>
      <trkpt lat="47.04745" lon="-1.64246">
        <ele>58</ele>
        <time>2022-10-22T13:44:04Z</time>
      </trkpt>
      <trkpt lat="47.04748" lon="-1.64233">
        <ele>59</ele>
        <time>2022-10-22T13:44:06Z</time>
      </trkpt>
      <trkpt lat="47.04752" lon="-1.6422">
        <ele>59</ele>
        <time>2022-10-22T13:44:08Z</time>
      </trkpt>
      <trkpt lat="47.04755" lon="-1.64207">
        <ele>60</ele>
        <time>2022-10-22T13:44:10Z</time>
      </trkpt>
      <trkpt lat="47.04758" lon="-1.64193">
        <ele>60</ele>
        <time>2022-10-22T13:44:12Z</time>
      </trkpt>
      <trkpt lat="47.04762" lon="-1.64179">
        <ele>59</ele>
        <time>2022-10-22T13:44:14Z</time>
      </trkpt>
      <trkpt lat="47.04765" lon="-1.64165">
        <ele>59</ele>
        <time>2022-10-22T13:44:16Z</time>
      </trkpt>
      <trkpt lat="47.04769" lon="-1.64151">
        <ele>60</ele>
        <time>2022-10-22T13:44:18Z</time>
      </trkpt>
      <trkpt lat="47.04772" lon="-1.64135">
        <ele>60</ele>
        <time>2022-10-22T13:44:20Z</time>
      </trkpt>
      <trkpt lat="47.04776" lon="-1.64121">
        <ele>60</ele>
        <time>2022-10-22T13:44:22Z</time>
      </trkpt>
      <trkpt lat="47.0478" lon="-1.64106">
        <ele>59</ele>
        <time>2022-10-22T13:44:24Z</time>
      </trkpt>
      <trkpt lat="47.04784" lon="-1.6409">
        <ele>59</ele>
        <time>2022-10-22T13:44:26Z</time>
      </trkpt>
      <trkpt lat="47.04787" lon="-1.64075">
        <ele>59</ele>
        <time>2022-10-22T13:44:28Z</time>
      </trkpt>
      <trkpt lat="47.04791" lon="-1.6406">
        <ele>60</ele>
        <time>2022-10-22T13:44:30Z</time>
      </trkpt>
      <trkpt lat="47.04795" lon="-1.64045">
        <ele>60</ele>
        <time>2022-10-22T13:44:32Z</time>
      </trkpt>
      <trkpt lat="47.04799" lon="-1.6403">
        <ele>60</ele>
        <time>2022-10-22T13:44:34Z</time>
      </trkpt>
      <trkpt lat="47.04803" lon="-1.64016">
        <ele>60</ele>
        <time>2022-10-22T13:44:36Z</time>
      </trkpt>
      <trkpt lat="47.04808" lon="-1.64001">
        <ele>60</ele>
        <time>2022-10-22T13:44:38Z</time>
      </trkpt>
      <trkpt lat="47.04814" lon="-1.63987">
        <ele>60</ele>
        <time>2022-10-22T13:44:40Z</time>
      </trkpt>
      <trkpt lat="47.04821" lon="-1.63976">
        <ele>60</ele>
        <time>2022-10-22T13:44:42Z</time>
      </trkpt>
      <trkpt lat="47.04829" lon="-1.63965">
        <ele>59</ele>
        <time>2022-10-22T13:44:44Z</time>
      </trkpt>
      <trkpt lat="47.04838" lon="-1.63956">
        <ele>59</ele>
        <time>2022-10-22T13:44:46Z</time>
      </trkpt>
      <trkpt lat="47.04847" lon="-1.63947">
        <ele>59</ele>
        <time>2022-10-22T13:44:48Z</time>
      </trkpt>
      <trkpt lat="47.04857" lon="-1.63939">
        <ele>59</ele>
        <time>2022-10-22T13:44:50Z</time>
      </trkpt>
      <trkpt lat="47.04866" lon="-1.63931">
        <ele>59</ele>
        <time>2022-10-22T13:44:52Z</time>
      </trkpt>
      <trkpt lat="47.04876" lon="-1.63923">
        <ele>59</ele>
        <time>2022-10-22T13:44:54Z</time>
      </trkpt>
      <trkpt lat="47.04885" lon="-1.63914">
        <ele>59</ele>
        <time>2022-10-22T13:44:56Z</time>
      </trkpt>
      <trkpt lat="47.04894" lon="-1.63906">
        <ele>59</ele>
        <time>2022-10-22T13:44:58Z</time>
      </trkpt>
      <trkpt lat="47.04904" lon="-1.63898">
        <ele>59</ele>
        <time>2022-10-22T13:45:00Z</time>
      </trkpt>
      <trkpt lat="47.04913" lon="-1.6389">
        <ele>59</ele>
        <time>2022-10-22T13:45:02Z</time>
      </trkpt>
      <trkpt lat="47.04923" lon="-1.63882">
        <ele>59</ele>
        <time>2022-10-22T13:45:04Z</time>
      </trkpt>
      <trkpt lat="47.04932" lon="-1.63873">
        <ele>59</ele>
        <time>2022-10-22T13:45:06Z</time>
      </trkpt>
      <trkpt lat="47.04941" lon="-1.63865">
        <ele>60</ele>
        <time>2022-10-22T13:45:08Z</time>
      </trkpt>
      <trkpt lat="47.04951" lon="-1.63856">
        <ele>60</ele>
        <time>2022-10-22T13:45:10Z</time>
      </trkpt>
      <trkpt lat="47.0496" lon="-1.63847">
        <ele>60</ele>
        <time>2022-10-22T13:45:12Z</time>
      </trkpt>
      <trkpt lat="47.04968" lon="-1.63838">
        <ele>60</ele>
        <time>2022-10-22T13:45:14Z</time>
      </trkpt>
      <trkpt lat="47.04977" lon="-1.6383">
        <ele>60</ele>
        <time>2022-10-22T13:45:16Z</time>
      </trkpt>
      <trkpt lat="47.04985" lon="-1.63822">
        <ele>61</ele>
        <time>2022-10-22T13:45:18Z</time>
      </trkpt>
      <trkpt lat="47.04994" lon="-1.63814">
        <ele>61</ele>
        <time>2022-10-22T13:45:20Z</time>
      </trkpt>
      <trkpt lat="47.05" lon="-1.63803">
        <ele>61</ele>
        <time>2022-10-22T13:45:22Z</time>
      </trkpt>
      <trkpt lat="47.05003" lon="-1.6379">
        <ele>62</ele>
        <time>2022-10-22T13:45:24Z</time>
      </trkpt>
      <trkpt lat="47.05003" lon="-1.63777">
        <ele>63</ele>
        <time>2022-10-22T13:45:26Z</time>
      </trkpt>
      <trkpt lat="47.05001" lon="-1.63762">
        <ele>63</ele>
        <time>2022-10-22T13:45:29Z</time>
      </trkpt>
      <trkpt lat="47.05007" lon="-1.63746">
        <ele>63</ele>
        <time>2022-10-22T13:45:32Z</time>
      </trkpt>
      <trkpt lat="47.05005" lon="-1.63726">
        <ele>63</ele>
        <time>2022-10-22T13:45:34Z</time>
      </trkpt>
      <trkpt lat="47.05001" lon="-1.63708">
        <ele>62</ele>
        <time>2022-10-22T13:45:36Z</time>
      </trkpt>
      <trkpt lat="47.04997" lon="-1.63691">
        <ele>62</ele>
        <time>2022-10-22T13:45:38Z</time>
      </trkpt>
      <trkpt lat="47.04992" lon="-1.63676">
        <ele>61</ele>
        <time>2022-10-22T13:45:40Z</time>
      </trkpt>
      <trkpt lat="47.04989" lon="-1.6366">
        <ele>61</ele>
        <time>2022-10-22T13:45:42Z</time>
      </trkpt>
      <trkpt lat="47.04985" lon="-1.63646">
        <ele>61</ele>
        <time>2022-10-22T13:45:44Z</time>
      </trkpt>
      <trkpt lat="47.04982" lon="-1.63632">
        <ele>61</ele>
        <time>2022-10-22T13:45:46Z</time>
      </trkpt>
      <trkpt lat="47.0498" lon="-1.63619">
        <ele>61</ele>
        <time>2022-10-22T13:45:48Z</time>
      </trkpt>
      <trkpt lat="47.04977" lon="-1.63606">
        <ele>61</ele>
        <time>2022-10-22T13:45:50Z</time>
      </trkpt>
      <trkpt lat="47.04983" lon="-1.63591">
        <ele>60</ele>
        <time>2022-10-22T13:45:53Z</time>
      </trkpt>
      <trkpt lat="47.0499" lon="-1.63582">
        <ele>60</ele>
        <time>2022-10-22T13:45:55Z</time>
      </trkpt>
      <trkpt lat="47.04999" lon="-1.63573">
        <ele>60</ele>
        <time>2022-10-22T13:45:57Z</time>
      </trkpt>
      <trkpt lat="47.05007" lon="-1.63566">
        <ele>60</ele>
        <time>2022-10-22T13:45:59Z</time>
      </trkpt>
      <trkpt lat="47.05017" lon="-1.63558">
        <ele>60</ele>
        <time>2022-10-22T13:46:01Z</time>
      </trkpt>
      <trkpt lat="47.05027" lon="-1.63553">
        <ele>60</ele>
        <time>2022-10-22T13:46:03Z</time>
      </trkpt>
      <trkpt lat="47.05036" lon="-1.6355">
        <ele>60</ele>
        <time>2022-10-22T13:46:05Z</time>
      </trkpt>
      <trkpt lat="47.05047" lon="-1.63546">
        <ele>60</ele>
        <time>2022-10-22T13:46:08Z</time>
      </trkpt>
      <trkpt lat="47.05059" lon="-1.63542">
        <ele>60</ele>
        <time>2022-10-22T13:46:11Z</time>
      </trkpt>
      <trkpt lat="47.05067" lon="-1.63538">
        <ele>60</ele>
        <time>2022-10-22T13:46:14Z</time>
      </trkpt>
      <trkpt lat="47.05077" lon="-1.63526">
        <ele>61</ele>
        <time>2022-10-22T13:46:17Z</time>
      </trkpt>
      <trkpt lat="47.05086" lon="-1.63518">
        <ele>60</ele>
        <time>2022-10-22T13:46:19Z</time>
      </trkpt>
      <trkpt lat="47.05097" lon="-1.63513">
        <ele>60</ele>
        <time>2022-10-22T13:46:21Z</time>
      </trkpt>
      <trkpt lat="47.05108" lon="-1.63509">
        <ele>60</ele>
        <time>2022-10-22T13:46:23Z</time>
      </trkpt>
      <trkpt lat="47.0512" lon="-1.63504">
        <ele>60</ele>
        <time>2022-10-22T13:46:25Z</time>
      </trkpt>
      <trkpt lat="47.05132" lon="-1.63499">
        <ele>60</ele>
        <time>2022-10-22T13:46:27Z</time>
      </trkpt>
      <trkpt lat="47.05143" lon="-1.63495">
        <ele>60</ele>
        <time>2022-10-22T13:46:29Z</time>
      </trkpt>
      <trkpt lat="47.05155" lon="-1.6349">
        <ele>60</ele>
        <time>2022-10-22T13:46:31Z</time>
      </trkpt>
      <trkpt lat="47.05166" lon="-1.63486">
        <ele>60</ele>
        <time>2022-10-22T13:46:33Z</time>
      </trkpt>
      <trkpt lat="47.05178" lon="-1.63481">
        <ele>60</ele>
        <time>2022-10-22T13:46:35Z</time>
      </trkpt>
      <trkpt lat="47.0519" lon="-1.63477">
        <ele>60</ele>
        <time>2022-10-22T13:46:37Z</time>
      </trkpt>
      <trkpt lat="47.05202" lon="-1.63472">
        <ele>60</ele>
        <time>2022-10-22T13:46:39Z</time>
      </trkpt>
      <trkpt lat="47.05213" lon="-1.63468">
        <ele>60</ele>
        <time>2022-10-22T13:46:41Z</time>
      </trkpt>
      <trkpt lat="47.05225" lon="-1.63464">
        <ele>60</ele>
        <time>2022-10-22T13:46:43Z</time>
      </trkpt>
      <trkpt lat="47.05237" lon="-1.6346">
        <ele>60</ele>
        <time>2022-10-22T13:46:45Z</time>
      </trkpt>
      <trkpt lat="47.05249" lon="-1.63457">
        <ele>60</ele>
        <time>2022-10-22T13:46:47Z</time>
      </trkpt>
      <trkpt lat="47.05261" lon="-1.63454">
        <ele>60</ele>
        <time>2022-10-22T13:46:49Z</time>
      </trkpt>
      <trkpt lat="47.05273" lon="-1.63451">
        <ele>60</ele>
        <time>2022-10-22T13:46:51Z</time>
      </trkpt>
      <trkpt lat="47.05285" lon="-1.63449">
        <ele>60</ele>
        <time>2022-10-22T13:46:53Z</time>
      </trkpt>
      <trkpt lat="47.05297" lon="-1.63447">
        <ele>60</ele>
        <time>2022-10-22T13:46:55Z</time>
      </trkpt>
      <trkpt lat="47.05309" lon="-1.63446">
        <ele>60</ele>
        <time>2022-10-22T13:46:57Z</time>
      </trkpt>
      <trkpt lat="47.05321" lon="-1.63445">
        <ele>60</ele>
        <time>2022-10-22T13:46:59Z</time>
      </trkpt>
      <trkpt lat="47.05333" lon="-1.63444">
        <ele>60</ele>
        <time>2022-10-22T13:47:01Z</time>
      </trkpt>
      <trkpt lat="47.05345" lon="-1.63442">
        <ele>60</ele>
        <time>2022-10-22T13:47:03Z</time>
      </trkpt>
      <trkpt lat="47.05357" lon="-1.63438">
        <ele>60</ele>
        <time>2022-10-22T13:47:05Z</time>
      </trkpt>
      <trkpt lat="47.05368" lon="-1.63433">
        <ele>60</ele>
        <time>2022-10-22T13:47:07Z</time>
      </trkpt>
      <trkpt lat="47.0538" lon="-1.6343">
        <ele>60</ele>
        <time>2022-10-22T13:47:09Z</time>
      </trkpt>
      <trkpt lat="47.05392" lon="-1.63432">
        <ele>60</ele>
        <time>2022-10-22T13:47:11Z</time>
      </trkpt>
      <trkpt lat="47.05405" lon="-1.63432">
        <ele>60</ele>
        <time>2022-10-22T13:47:13Z</time>
      </trkpt>
      <trkpt lat="47.05417" lon="-1.63429">
        <ele>59</ele>
        <time>2022-10-22T13:47:15Z</time>
      </trkpt>
      <trkpt lat="47.0543" lon="-1.63427">
        <ele>60</ele>
        <time>2022-10-22T13:47:17Z</time>
      </trkpt>
      <trkpt lat="47.05442" lon="-1.63424">
        <ele>60</ele>
        <time>2022-10-22T13:47:19Z</time>
      </trkpt>
      <trkpt lat="47.05454" lon="-1.63422">
        <ele>60</ele>
        <time>2022-10-22T13:47:21Z</time>
      </trkpt>
      <trkpt lat="47.05466" lon="-1.6342">
        <ele>59</ele>
        <time>2022-10-22T13:47:23Z</time>
      </trkpt>
      <trkpt lat="47.05479" lon="-1.63419">
        <ele>59</ele>
        <time>2022-10-22T13:47:25Z</time>
      </trkpt>
      <trkpt lat="47.05491" lon="-1.63417">
        <ele>59</ele>
        <time>2022-10-22T13:47:27Z</time>
      </trkpt>
      <trkpt lat="47.05504" lon="-1.63414">
        <ele>59</ele>
        <time>2022-10-22T13:47:29Z</time>
      </trkpt>
      <trkpt lat="47.05517" lon="-1.63411">
        <ele>59</ele>
        <time>2022-10-22T13:47:31Z</time>
      </trkpt>
      <trkpt lat="47.0553" lon="-1.63409">
        <ele>59</ele>
        <time>2022-10-22T13:47:33Z</time>
      </trkpt>
      <trkpt lat="47.05542" lon="-1.63405">
        <ele>59</ele>
        <time>2022-10-22T13:47:35Z</time>
      </trkpt>
      <trkpt lat="47.05554" lon="-1.634">
        <ele>59</ele>
        <time>2022-10-22T13:47:37Z</time>
      </trkpt>
      <trkpt lat="47.05566" lon="-1.63396">
        <ele>59</ele>
        <time>2022-10-22T13:47:39Z</time>
      </trkpt>
      <trkpt lat="47.05579" lon="-1.6339">
        <ele>60</ele>
        <time>2022-10-22T13:47:41Z</time>
      </trkpt>
      <trkpt lat="47.05591" lon="-1.63385">
        <ele>60</ele>
        <time>2022-10-22T13:47:43Z</time>
      </trkpt>
      <trkpt lat="47.05602" lon="-1.63379">
        <ele>60</ele>
        <time>2022-10-22T13:47:45Z</time>
      </trkpt>
      <trkpt lat="47.05614" lon="-1.63374">
        <ele>60</ele>
        <time>2022-10-22T13:47:47Z</time>
      </trkpt>
      <trkpt lat="47.05626" lon="-1.63368">
        <ele>60</ele>
        <time>2022-10-22T13:47:49Z</time>
      </trkpt>
      <trkpt lat="47.05638" lon="-1.63363">
        <ele>60</ele>
        <time>2022-10-22T13:47:51Z</time>
      </trkpt>
      <trkpt lat="47.0565" lon="-1.63358">
        <ele>60</ele>
        <time>2022-10-22T13:47:53Z</time>
      </trkpt>
      <trkpt lat="47.05662" lon="-1.63352">
        <ele>60</ele>
        <time>2022-10-22T13:47:55Z</time>
      </trkpt>
      <trkpt lat="47.05673" lon="-1.63347">
        <ele>60</ele>
        <time>2022-10-22T13:47:57Z</time>
      </trkpt>
      <trkpt lat="47.05685" lon="-1.63341">
        <ele>60</ele>
        <time>2022-10-22T13:47:59Z</time>
      </trkpt>
      <trkpt lat="47.05697" lon="-1.63335">
        <ele>60</ele>
        <time>2022-10-22T13:48:01Z</time>
      </trkpt>
      <trkpt lat="47.05709" lon="-1.6333">
        <ele>59</ele>
        <time>2022-10-22T13:48:03Z</time>
      </trkpt>
      <trkpt lat="47.05721" lon="-1.63324">
        <ele>59</ele>
        <time>2022-10-22T13:48:05Z</time>
      </trkpt>
      <trkpt lat="47.05732" lon="-1.63319">
        <ele>59</ele>
        <time>2022-10-22T13:48:07Z</time>
      </trkpt>
      <trkpt lat="47.05744" lon="-1.63313">
        <ele>60</ele>
        <time>2022-10-22T13:48:09Z</time>
      </trkpt>
      <trkpt lat="47.05756" lon="-1.63308">
        <ele>60</ele>
        <time>2022-10-22T13:48:11Z</time>
      </trkpt>
      <trkpt lat="47.05767" lon="-1.63303">
        <ele>61</ele>
        <time>2022-10-22T13:48:13Z</time>
      </trkpt>
      <trkpt lat="47.05778" lon="-1.63298">
        <ele>60</ele>
        <time>2022-10-22T13:48:15Z</time>
      </trkpt>
      <trkpt lat="47.0579" lon="-1.63292">
        <ele>60</ele>
        <time>2022-10-22T13:48:17Z</time>
      </trkpt>
      <trkpt lat="47.05801" lon="-1.63287">
        <ele>60</ele>
        <time>2022-10-22T13:48:19Z</time>
      </trkpt>
      <trkpt lat="47.05813" lon="-1.63281">
        <ele>61</ele>
        <time>2022-10-22T13:48:21Z</time>
      </trkpt>
      <trkpt lat="47.05824" lon="-1.63276">
        <ele>61</ele>
        <time>2022-10-22T13:48:23Z</time>
      </trkpt>
      <trkpt lat="47.05835" lon="-1.63271">
        <ele>61</ele>
        <time>2022-10-22T13:48:25Z</time>
      </trkpt>
      <trkpt lat="47.05847" lon="-1.63266">
        <ele>61</ele>
        <time>2022-10-22T13:48:27Z</time>
      </trkpt>
      <trkpt lat="47.05858" lon="-1.6326">
        <ele>61</ele>
        <time>2022-10-22T13:48:29Z</time>
      </trkpt>
      <trkpt lat="47.05869" lon="-1.63255">
        <ele>61</ele>
        <time>2022-10-22T13:48:31Z</time>
      </trkpt>
      <trkpt lat="47.05881" lon="-1.63249">
        <ele>61</ele>
        <time>2022-10-22T13:48:33Z</time>
      </trkpt>
      <trkpt lat="47.05893" lon="-1.63244">
        <ele>61</ele>
        <time>2022-10-22T13:48:35Z</time>
      </trkpt>
      <trkpt lat="47.05904" lon="-1.63239">
        <ele>61</ele>
        <time>2022-10-22T13:48:37Z</time>
      </trkpt>
      <trkpt lat="47.05916" lon="-1.63233">
        <ele>61</ele>
        <time>2022-10-22T13:48:39Z</time>
      </trkpt>
      <trkpt lat="47.05927" lon="-1.63227">
        <ele>61</ele>
        <time>2022-10-22T13:48:41Z</time>
      </trkpt>
      <trkpt lat="47.05939" lon="-1.63222">
        <ele>61</ele>
        <time>2022-10-22T13:48:43Z</time>
      </trkpt>
      <trkpt lat="47.0595" lon="-1.63218">
        <ele>61</ele>
        <time>2022-10-22T13:48:45Z</time>
      </trkpt>
      <trkpt lat="47.05962" lon="-1.63212">
        <ele>61</ele>
        <time>2022-10-22T13:48:47Z</time>
      </trkpt>
      <trkpt lat="47.05973" lon="-1.63208">
        <ele>61</ele>
        <time>2022-10-22T13:48:49Z</time>
      </trkpt>
      <trkpt lat="47.05985" lon="-1.63202">
        <ele>61</ele>
        <time>2022-10-22T13:48:51Z</time>
      </trkpt>
      <trkpt lat="47.05997" lon="-1.63196">
        <ele>61</ele>
        <time>2022-10-22T13:48:53Z</time>
      </trkpt>
      <trkpt lat="47.06008" lon="-1.6319">
        <ele>61</ele>
        <time>2022-10-22T13:48:55Z</time>
      </trkpt>
      <trkpt lat="47.06019" lon="-1.63184">
        <ele>62</ele>
        <time>2022-10-22T13:48:57Z</time>
      </trkpt>
      <trkpt lat="47.0603" lon="-1.63179">
        <ele>61</ele>
        <time>2022-10-22T13:48:59Z</time>
      </trkpt>
      <trkpt lat="47.06042" lon="-1.63174">
        <ele>61</ele>
        <time>2022-10-22T13:49:01Z</time>
      </trkpt>
      <trkpt lat="47.06053" lon="-1.63168">
        <ele>61</ele>
        <time>2022-10-22T13:49:03Z</time>
      </trkpt>
      <trkpt lat="47.06065" lon="-1.63162">
        <ele>61</ele>
        <time>2022-10-22T13:49:05Z</time>
      </trkpt>
      <trkpt lat="47.06077" lon="-1.63157">
        <ele>61</ele>
        <time>2022-10-22T13:49:07Z</time>
      </trkpt>
      <trkpt lat="47.06089" lon="-1.63151">
        <ele>61</ele>
        <time>2022-10-22T13:49:09Z</time>
      </trkpt>
      <trkpt lat="47.06101" lon="-1.63146">
        <ele>61</ele>
        <time>2022-10-22T13:49:11Z</time>
      </trkpt>
      <trkpt lat="47.06112" lon="-1.6314">
        <ele>61</ele>
        <time>2022-10-22T13:49:13Z</time>
      </trkpt>
      <trkpt lat="47.06125" lon="-1.63135">
        <ele>61</ele>
        <time>2022-10-22T13:49:15Z</time>
      </trkpt>
      <trkpt lat="47.06136" lon="-1.63129">
        <ele>61</ele>
        <time>2022-10-22T13:49:17Z</time>
      </trkpt>
      <trkpt lat="47.06147" lon="-1.63123">
        <ele>61</ele>
        <time>2022-10-22T13:49:19Z</time>
      </trkpt>
      <trkpt lat="47.06159" lon="-1.63118">
        <ele>60</ele>
        <time>2022-10-22T13:49:21Z</time>
      </trkpt>
      <trkpt lat="47.0617" lon="-1.63113">
        <ele>61</ele>
        <time>2022-10-22T13:49:23Z</time>
      </trkpt>
      <trkpt lat="47.06182" lon="-1.63107">
        <ele>60</ele>
        <time>2022-10-22T13:49:25Z</time>
      </trkpt>
      <trkpt lat="47.06193" lon="-1.63102">
        <ele>61</ele>
        <time>2022-10-22T13:49:27Z</time>
      </trkpt>
      <trkpt lat="47.06205" lon="-1.63097">
        <ele>61</ele>
        <time>2022-10-22T13:49:29Z</time>
      </trkpt>
      <trkpt lat="47.06217" lon="-1.63091">
        <ele>61</ele>
        <time>2022-10-22T13:49:31Z</time>
      </trkpt>
      <trkpt lat="47.06229" lon="-1.63085">
        <ele>61</ele>
        <time>2022-10-22T13:49:33Z</time>
      </trkpt>
      <trkpt lat="47.06241" lon="-1.63079">
        <ele>61</ele>
        <time>2022-10-22T13:49:35Z</time>
      </trkpt>
      <trkpt lat="47.06253" lon="-1.63073">
        <ele>61</ele>
        <time>2022-10-22T13:49:37Z</time>
      </trkpt>
      <trkpt lat="47.06265" lon="-1.63067">
        <ele>61</ele>
        <time>2022-10-22T13:49:39Z</time>
      </trkpt>
      <trkpt lat="47.06277" lon="-1.63062">
        <ele>61</ele>
        <time>2022-10-22T13:49:41Z</time>
      </trkpt>
      <trkpt lat="47.06289" lon="-1.63056">
        <ele>61</ele>
        <time>2022-10-22T13:49:43Z</time>
      </trkpt>
      <trkpt lat="47.06302" lon="-1.6305">
        <ele>61</ele>
        <time>2022-10-22T13:49:45Z</time>
      </trkpt>
      <trkpt lat="47.06314" lon="-1.63045">
        <ele>61</ele>
        <time>2022-10-22T13:49:47Z</time>
      </trkpt>
      <trkpt lat="47.06326" lon="-1.63039">
        <ele>60</ele>
        <time>2022-10-22T13:49:49Z</time>
      </trkpt>
      <trkpt lat="47.06337" lon="-1.63033">
        <ele>60</ele>
        <time>2022-10-22T13:49:51Z</time>
      </trkpt>
      <trkpt lat="47.06349" lon="-1.63027">
        <ele>60</ele>
        <time>2022-10-22T13:49:53Z</time>
      </trkpt>
      <trkpt lat="47.06361" lon="-1.63022">
        <ele>60</ele>
        <time>2022-10-22T13:49:55Z</time>
      </trkpt>
      <trkpt lat="47.06373" lon="-1.63017">
        <ele>60</ele>
        <time>2022-10-22T13:49:57Z</time>
      </trkpt>
      <trkpt lat="47.06384" lon="-1.63011">
        <ele>60</ele>
        <time>2022-10-22T13:49:59Z</time>
      </trkpt>
      <trkpt lat="47.06395" lon="-1.63005">
        <ele>60</ele>
        <time>2022-10-22T13:50:01Z</time>
      </trkpt>
      <trkpt lat="47.06407" lon="-1.63">
        <ele>60</ele>
        <time>2022-10-22T13:50:03Z</time>
      </trkpt>
      <trkpt lat="47.06419" lon="-1.62995">
        <ele>60</ele>
        <time>2022-10-22T13:50:05Z</time>
      </trkpt>
      <trkpt lat="47.0643" lon="-1.62989">
        <ele>60</ele>
        <time>2022-10-22T13:50:07Z</time>
      </trkpt>
      <trkpt lat="47.06442" lon="-1.62984">
        <ele>61</ele>
        <time>2022-10-22T13:50:09Z</time>
      </trkpt>
      <trkpt lat="47.06453" lon="-1.62978">
        <ele>61</ele>
        <time>2022-10-22T13:50:11Z</time>
      </trkpt>
      <trkpt lat="47.06465" lon="-1.62973">
        <ele>61</ele>
        <time>2022-10-22T13:50:13Z</time>
      </trkpt>
      <trkpt lat="47.06476" lon="-1.62967">
        <ele>61</ele>
        <time>2022-10-22T13:50:15Z</time>
      </trkpt>
      <trkpt lat="47.06487" lon="-1.6296">
        <ele>61</ele>
        <time>2022-10-22T13:50:17Z</time>
      </trkpt>
      <trkpt lat="47.06498" lon="-1.62951">
        <ele>61</ele>
        <time>2022-10-22T13:50:19Z</time>
      </trkpt>
      <trkpt lat="47.06509" lon="-1.62941">
        <ele>61</ele>
        <time>2022-10-22T13:50:21Z</time>
      </trkpt>
      <trkpt lat="47.06518" lon="-1.62931">
        <ele>62</ele>
        <time>2022-10-22T13:50:23Z</time>
      </trkpt>
      <trkpt lat="47.06527" lon="-1.62919">
        <ele>62</ele>
        <time>2022-10-22T13:50:25Z</time>
      </trkpt>
      <trkpt lat="47.06536" lon="-1.62907">
        <ele>62</ele>
        <time>2022-10-22T13:50:27Z</time>
      </trkpt>
      <trkpt lat="47.06545" lon="-1.62895">
        <ele>62</ele>
        <time>2022-10-22T13:50:29Z</time>
      </trkpt>
      <trkpt lat="47.06553" lon="-1.62882">
        <ele>62</ele>
        <time>2022-10-22T13:50:31Z</time>
      </trkpt>
      <trkpt lat="47.06562" lon="-1.62869">
        <ele>63</ele>
        <time>2022-10-22T13:50:33Z</time>
      </trkpt>
      <trkpt lat="47.0657" lon="-1.62857">
        <ele>63</ele>
        <time>2022-10-22T13:50:35Z</time>
      </trkpt>
      <trkpt lat="47.06578" lon="-1.62844">
        <ele>63</ele>
        <time>2022-10-22T13:50:37Z</time>
      </trkpt>
      <trkpt lat="47.06587" lon="-1.62832">
        <ele>63</ele>
        <time>2022-10-22T13:50:39Z</time>
      </trkpt>
      <trkpt lat="47.06595" lon="-1.62819">
        <ele>63</ele>
        <time>2022-10-22T13:50:41Z</time>
      </trkpt>
      <trkpt lat="47.06603" lon="-1.62807">
        <ele>63</ele>
        <time>2022-10-22T13:50:43Z</time>
      </trkpt>
      <trkpt lat="47.06611" lon="-1.62794">
        <ele>63</ele>
        <time>2022-10-22T13:50:45Z</time>
      </trkpt>
      <trkpt lat="47.06619" lon="-1.62781">
        <ele>63</ele>
        <time>2022-10-22T13:50:47Z</time>
      </trkpt>
      <trkpt lat="47.06628" lon="-1.62768">
        <ele>63</ele>
        <time>2022-10-22T13:50:49Z</time>
      </trkpt>
      <trkpt lat="47.06636" lon="-1.62755">
        <ele>64</ele>
        <time>2022-10-22T13:50:51Z</time>
      </trkpt>
      <trkpt lat="47.06644" lon="-1.62743">
        <ele>64</ele>
        <time>2022-10-22T13:50:53Z</time>
      </trkpt>
      <trkpt lat="47.06652" lon="-1.62731">
        <ele>64</ele>
        <time>2022-10-22T13:50:55Z</time>
      </trkpt>
      <trkpt lat="47.06661" lon="-1.62718">
        <ele>64</ele>
        <time>2022-10-22T13:50:57Z</time>
      </trkpt>
      <trkpt lat="47.06669" lon="-1.62705">
        <ele>64</ele>
        <time>2022-10-22T13:50:59Z</time>
      </trkpt>
      <trkpt lat="47.06678" lon="-1.62693">
        <ele>64</ele>
        <time>2022-10-22T13:51:01Z</time>
      </trkpt>
      <trkpt lat="47.06686" lon="-1.6268">
        <ele>64</ele>
        <time>2022-10-22T13:51:03Z</time>
      </trkpt>
      <trkpt lat="47.06694" lon="-1.62667">
        <ele>64</ele>
        <time>2022-10-22T13:51:05Z</time>
      </trkpt>
      <trkpt lat="47.06702" lon="-1.62655">
        <ele>64</ele>
        <time>2022-10-22T13:51:07Z</time>
      </trkpt>
      <trkpt lat="47.06711" lon="-1.62644">
        <ele>64</ele>
        <time>2022-10-22T13:51:09Z</time>
      </trkpt>
      <trkpt lat="47.0672" lon="-1.62634">
        <ele>64</ele>
        <time>2022-10-22T13:51:11Z</time>
      </trkpt>
      <trkpt lat="47.06729" lon="-1.62624">
        <ele>63</ele>
        <time>2022-10-22T13:51:13Z</time>
      </trkpt>
      <trkpt lat="47.06739" lon="-1.62614">
        <ele>63</ele>
        <time>2022-10-22T13:51:15Z</time>
      </trkpt>
      <trkpt lat="47.0675" lon="-1.62604">
        <ele>63</ele>
        <time>2022-10-22T13:51:17Z</time>
      </trkpt>
      <trkpt lat="47.0676" lon="-1.62594">
        <ele>63</ele>
        <time>2022-10-22T13:51:19Z</time>
      </trkpt>
      <trkpt lat="47.0677" lon="-1.62585">
        <ele>63</ele>
        <time>2022-10-22T13:51:21Z</time>
      </trkpt>
      <trkpt lat="47.0678" lon="-1.62575">
        <ele>63</ele>
        <time>2022-10-22T13:51:23Z</time>
      </trkpt>
      <trkpt lat="47.0679" lon="-1.62567">
        <ele>63</ele>
        <time>2022-10-22T13:51:25Z</time>
      </trkpt>
      <trkpt lat="47.068" lon="-1.62558">
        <ele>62</ele>
        <time>2022-10-22T13:51:27Z</time>
      </trkpt>
      <trkpt lat="47.0681" lon="-1.62549">
        <ele>63</ele>
        <time>2022-10-22T13:51:29Z</time>
      </trkpt>
      <trkpt lat="47.06821" lon="-1.62539">
        <ele>62</ele>
        <time>2022-10-22T13:51:31Z</time>
      </trkpt>
      <trkpt lat="47.06831" lon="-1.6253">
        <ele>62</ele>
        <time>2022-10-22T13:51:33Z</time>
      </trkpt>
      <trkpt lat="47.06842" lon="-1.62523">
        <ele>62</ele>
        <time>2022-10-22T13:51:35Z</time>
      </trkpt>
      <trkpt lat="47.06853" lon="-1.62515">
        <ele>62</ele>
        <time>2022-10-22T13:51:37Z</time>
      </trkpt>
      <trkpt lat="47.06864" lon="-1.62507">
        <ele>62</ele>
        <time>2022-10-22T13:51:39Z</time>
      </trkpt>
      <trkpt lat="47.06876" lon="-1.62501">
        <ele>62</ele>
        <time>2022-10-22T13:51:41Z</time>
      </trkpt>
      <trkpt lat="47.06888" lon="-1.62495">
        <ele>62</ele>
        <time>2022-10-22T13:51:43Z</time>
      </trkpt>
      <trkpt lat="47.069" lon="-1.62489">
        <ele>63</ele>
        <time>2022-10-22T13:51:45Z</time>
      </trkpt>
      <trkpt lat="47.06912" lon="-1.62484">
        <ele>63</ele>
        <time>2022-10-22T13:51:47Z</time>
      </trkpt>
      <trkpt lat="47.06923" lon="-1.6248">
        <ele>64</ele>
        <time>2022-10-22T13:51:49Z</time>
      </trkpt>
      <trkpt lat="47.06935" lon="-1.62475">
        <ele>64</ele>
        <time>2022-10-22T13:51:51Z</time>
      </trkpt>
      <trkpt lat="47.06948" lon="-1.6247">
        <ele>64</ele>
        <time>2022-10-22T13:51:53Z</time>
      </trkpt>
      <trkpt lat="47.06959" lon="-1.62465">
        <ele>64</ele>
        <time>2022-10-22T13:51:55Z</time>
      </trkpt>
      <trkpt lat="47.06972" lon="-1.6246">
        <ele>64</ele>
        <time>2022-10-22T13:51:57Z</time>
      </trkpt>
      <trkpt lat="47.06983" lon="-1.62454">
        <ele>64</ele>
        <time>2022-10-22T13:51:59Z</time>
      </trkpt>
      <trkpt lat="47.06995" lon="-1.62449">
        <ele>64</ele>
        <time>2022-10-22T13:52:01Z</time>
      </trkpt>
      <trkpt lat="47.07007" lon="-1.62444">
        <ele>64</ele>
        <time>2022-10-22T13:52:03Z</time>
      </trkpt>
      <trkpt lat="47.07019" lon="-1.62439">
        <ele>64</ele>
        <time>2022-10-22T13:52:05Z</time>
      </trkpt>
      <trkpt lat="47.0703" lon="-1.62435">
        <ele>65</ele>
        <time>2022-10-22T13:52:07Z</time>
      </trkpt>
      <trkpt lat="47.07041" lon="-1.62429">
        <ele>65</ele>
        <time>2022-10-22T13:52:09Z</time>
      </trkpt>
      <trkpt lat="47.07051" lon="-1.62424">
        <ele>66</ele>
        <time>2022-10-22T13:52:11Z</time>
      </trkpt>
      <trkpt lat="47.07062" lon="-1.62417">
        <ele>68</ele>
        <time>2022-10-22T13:52:13Z</time>
      </trkpt>
      <trkpt lat="47.07073" lon="-1.62409">
        <ele>68</ele>
        <time>2022-10-22T13:52:15Z</time>
      </trkpt>
      <trkpt lat="47.07085" lon="-1.62401">
        <ele>67</ele>
        <time>2022-10-22T13:52:17Z</time>
      </trkpt>
      <trkpt lat="47.07095" lon="-1.62392">
        <ele>67</ele>
        <time>2022-10-22T13:52:19Z</time>
      </trkpt>
      <trkpt lat="47.07107" lon="-1.62384">
        <ele>66</ele>
        <time>2022-10-22T13:52:21Z</time>
      </trkpt>
      <trkpt lat="47.07118" lon="-1.62375">
        <ele>66</ele>
        <time>2022-10-22T13:52:23Z</time>
      </trkpt>
      <trkpt lat="47.0713" lon="-1.62368">
        <ele>65</ele>
        <time>2022-10-22T13:52:25Z</time>
      </trkpt>
      <trkpt lat="47.07141" lon="-1.6236">
        <ele>65</ele>
        <time>2022-10-22T13:52:27Z</time>
      </trkpt>
      <trkpt lat="47.07152" lon="-1.62352">
        <ele>65</ele>
        <time>2022-10-22T13:52:29Z</time>
      </trkpt>
      <trkpt lat="47.07164" lon="-1.62343">
        <ele>64</ele>
        <time>2022-10-22T13:52:31Z</time>
      </trkpt>
      <trkpt lat="47.07174" lon="-1.62335">
        <ele>63</ele>
        <time>2022-10-22T13:52:33Z</time>
      </trkpt>
      <trkpt lat="47.07185" lon="-1.62327">
        <ele>62</ele>
        <time>2022-10-22T13:52:35Z</time>
      </trkpt>
      <trkpt lat="47.07197" lon="-1.6232">
        <ele>62</ele>
        <time>2022-10-22T13:52:37Z</time>
      </trkpt>
      <trkpt lat="47.07208" lon="-1.62312">
        <ele>61</ele>
        <time>2022-10-22T13:52:39Z</time>
      </trkpt>
      <trkpt lat="47.07219" lon="-1.62304">
        <ele>61</ele>
        <time>2022-10-22T13:52:41Z</time>
      </trkpt>
      <trkpt lat="47.07229" lon="-1.62297">
        <ele>61</ele>
        <time>2022-10-22T13:52:43Z</time>
      </trkpt>
      <trkpt lat="47.0724" lon="-1.62289">
        <ele>61</ele>
        <time>2022-10-22T13:52:45Z</time>
      </trkpt>
      <trkpt lat="47.07251" lon="-1.62281">
        <ele>61</ele>
        <time>2022-10-22T13:52:47Z</time>
      </trkpt>
      <trkpt lat="47.07261" lon="-1.62274">
        <ele>61</ele>
        <time>2022-10-22T13:52:49Z</time>
      </trkpt>
      <trkpt lat="47.0727" lon="-1.62264">
        <ele>61</ele>
        <time>2022-10-22T13:52:51Z</time>
      </trkpt>
      <trkpt lat="47.0728" lon="-1.62255">
        <ele>61</ele>
        <time>2022-10-22T13:52:53Z</time>
      </trkpt>
      <trkpt lat="47.07289" lon="-1.62245">
        <ele>62</ele>
        <time>2022-10-22T13:52:55Z</time>
      </trkpt>
      <trkpt lat="47.07298" lon="-1.62234">
        <ele>61</ele>
        <time>2022-10-22T13:52:57Z</time>
      </trkpt>
      <trkpt lat="47.07307" lon="-1.62223">
        <ele>61</ele>
        <time>2022-10-22T13:52:59Z</time>
      </trkpt>
      <trkpt lat="47.07315" lon="-1.6221">
        <ele>61</ele>
        <time>2022-10-22T13:53:01Z</time>
      </trkpt>
      <trkpt lat="47.07324" lon="-1.62198">
        <ele>61</ele>
        <time>2022-10-22T13:53:03Z</time>
      </trkpt>
      <trkpt lat="47.07332" lon="-1.62186">
        <ele>61</ele>
        <time>2022-10-22T13:53:05Z</time>
      </trkpt>
      <trkpt lat="47.0734" lon="-1.62174">
        <ele>61</ele>
        <time>2022-10-22T13:53:07Z</time>
      </trkpt>
      <trkpt lat="47.07348" lon="-1.62162">
        <ele>61</ele>
        <time>2022-10-22T13:53:09Z</time>
      </trkpt>
      <trkpt lat="47.07355" lon="-1.62149">
        <ele>61</ele>
        <time>2022-10-22T13:53:11Z</time>
      </trkpt>
      <trkpt lat="47.07363" lon="-1.62136">
        <ele>61</ele>
        <time>2022-10-22T13:53:13Z</time>
      </trkpt>
      <trkpt lat="47.07371" lon="-1.62123">
        <ele>61</ele>
        <time>2022-10-22T13:53:15Z</time>
      </trkpt>
      <trkpt lat="47.07379" lon="-1.62111">
        <ele>62</ele>
        <time>2022-10-22T13:53:17Z</time>
      </trkpt>
      <trkpt lat="47.07386" lon="-1.62099">
        <ele>62</ele>
        <time>2022-10-22T13:53:19Z</time>
      </trkpt>
      <trkpt lat="47.07394" lon="-1.62086">
        <ele>62</ele>
        <time>2022-10-22T13:53:21Z</time>
      </trkpt>
      <trkpt lat="47.07401" lon="-1.62074">
        <ele>62</ele>
        <time>2022-10-22T13:53:23Z</time>
      </trkpt>
      <trkpt lat="47.07409" lon="-1.62062">
        <ele>61</ele>
        <time>2022-10-22T13:53:25Z</time>
      </trkpt>
      <trkpt lat="47.07416" lon="-1.6205">
        <ele>62</ele>
        <time>2022-10-22T13:53:27Z</time>
      </trkpt>
      <trkpt lat="47.07423" lon="-1.62037">
        <ele>62</ele>
        <time>2022-10-22T13:53:29Z</time>
      </trkpt>
      <trkpt lat="47.07431" lon="-1.62024">
        <ele>62</ele>
        <time>2022-10-22T13:53:31Z</time>
      </trkpt>
      <trkpt lat="47.07439" lon="-1.62012">
        <ele>62</ele>
        <time>2022-10-22T13:53:33Z</time>
      </trkpt>
      <trkpt lat="47.07447" lon="-1.62001">
        <ele>62</ele>
        <time>2022-10-22T13:53:35Z</time>
      </trkpt>
      <trkpt lat="47.07456" lon="-1.6199">
        <ele>62</ele>
        <time>2022-10-22T13:53:37Z</time>
      </trkpt>
      <trkpt lat="47.07465" lon="-1.61979">
        <ele>62</ele>
        <time>2022-10-22T13:53:39Z</time>
      </trkpt>
      <trkpt lat="47.07474" lon="-1.61968">
        <ele>62</ele>
        <time>2022-10-22T13:53:41Z</time>
      </trkpt>
      <trkpt lat="47.07483" lon="-1.61958">
        <ele>62</ele>
        <time>2022-10-22T13:53:43Z</time>
      </trkpt>
      <trkpt lat="47.07492" lon="-1.61948">
        <ele>63</ele>
        <time>2022-10-22T13:53:45Z</time>
      </trkpt>
      <trkpt lat="47.07501" lon="-1.61938">
        <ele>63</ele>
        <time>2022-10-22T13:53:47Z</time>
      </trkpt>
      <trkpt lat="47.0751" lon="-1.61929">
        <ele>64</ele>
        <time>2022-10-22T13:53:49Z</time>
      </trkpt>
      <trkpt lat="47.07519" lon="-1.61918">
        <ele>64</ele>
        <time>2022-10-22T13:53:51Z</time>
      </trkpt>
      <trkpt lat="47.07527" lon="-1.61906">
        <ele>64</ele>
        <time>2022-10-22T13:53:53Z</time>
      </trkpt>
      <trkpt lat="47.07536" lon="-1.61896">
        <ele>64</ele>
        <time>2022-10-22T13:53:55Z</time>
      </trkpt>
      <trkpt lat="47.07546" lon="-1.61886">
        <ele>64</ele>
        <time>2022-10-22T13:53:57Z</time>
      </trkpt>
      <trkpt lat="47.07555" lon="-1.61875">
        <ele>64</ele>
        <time>2022-10-22T13:53:59Z</time>
      </trkpt>
      <trkpt lat="47.07564" lon="-1.61865">
        <ele>64</ele>
        <time>2022-10-22T13:54:01Z</time>
      </trkpt>
      <trkpt lat="47.07573" lon="-1.61854">
        <ele>63</ele>
        <time>2022-10-22T13:54:03Z</time>
      </trkpt>
      <trkpt lat="47.07583" lon="-1.61843">
        <ele>63</ele>
        <time>2022-10-22T13:54:05Z</time>
      </trkpt>
      <trkpt lat="47.07593" lon="-1.61832">
        <ele>63</ele>
        <time>2022-10-22T13:54:07Z</time>
      </trkpt>
      <trkpt lat="47.07602" lon="-1.61821">
        <ele>64</ele>
        <time>2022-10-22T13:54:09Z</time>
      </trkpt>
      <trkpt lat="47.07612" lon="-1.6181">
        <ele>64</ele>
        <time>2022-10-22T13:54:11Z</time>
      </trkpt>
      <trkpt lat="47.07621" lon="-1.61799">
        <ele>64</ele>
        <time>2022-10-22T13:54:13Z</time>
      </trkpt>
      <trkpt lat="47.07631" lon="-1.61789">
        <ele>65</ele>
        <time>2022-10-22T13:54:15Z</time>
      </trkpt>
      <trkpt lat="47.0764" lon="-1.61777">
        <ele>65</ele>
        <time>2022-10-22T13:54:17Z</time>
      </trkpt>
      <trkpt lat="47.0765" lon="-1.61766">
        <ele>64</ele>
        <time>2022-10-22T13:54:19Z</time>
      </trkpt>
      <trkpt lat="47.07661" lon="-1.61754">
        <ele>64</ele>
        <time>2022-10-22T13:54:21Z</time>
      </trkpt>
      <trkpt lat="47.07671" lon="-1.61743">
        <ele>65</ele>
        <time>2022-10-22T13:54:23Z</time>
      </trkpt>
      <trkpt lat="47.07681" lon="-1.61731">
        <ele>64</ele>
        <time>2022-10-22T13:54:25Z</time>
      </trkpt>
      <trkpt lat="47.0769" lon="-1.61719">
        <ele>64</ele>
        <time>2022-10-22T13:54:27Z</time>
      </trkpt>
      <trkpt lat="47.077" lon="-1.61708">
        <ele>63</ele>
        <time>2022-10-22T13:54:29Z</time>
      </trkpt>
      <trkpt lat="47.0771" lon="-1.61696">
        <ele>62</ele>
        <time>2022-10-22T13:54:31Z</time>
      </trkpt>
      <trkpt lat="47.07722" lon="-1.61684">
        <ele>62</ele>
        <time>2022-10-22T13:54:33Z</time>
      </trkpt>
      <trkpt lat="47.07732" lon="-1.61672">
        <ele>62</ele>
        <time>2022-10-22T13:54:35Z</time>
      </trkpt>
      <trkpt lat="47.07742" lon="-1.61661">
        <ele>62</ele>
        <time>2022-10-22T13:54:37Z</time>
      </trkpt>
      <trkpt lat="47.07752" lon="-1.6165">
        <ele>62</ele>
        <time>2022-10-22T13:54:39Z</time>
      </trkpt>
      <trkpt lat="47.07762" lon="-1.61639">
        <ele>62</ele>
        <time>2022-10-22T13:54:41Z</time>
      </trkpt>
      <trkpt lat="47.07772" lon="-1.61628">
        <ele>62</ele>
        <time>2022-10-22T13:54:43Z</time>
      </trkpt>
      <trkpt lat="47.07782" lon="-1.61618">
        <ele>63</ele>
        <time>2022-10-22T13:54:45Z</time>
      </trkpt>
      <trkpt lat="47.07793" lon="-1.61607">
        <ele>63</ele>
        <time>2022-10-22T13:54:47Z</time>
      </trkpt>
      <trkpt lat="47.07801" lon="-1.61598">
        <ele>64</ele>
        <time>2022-10-22T13:54:49Z</time>
      </trkpt>
      <trkpt lat="47.07813" lon="-1.6159">
        <ele>65</ele>
        <time>2022-10-22T13:54:51Z</time>
      </trkpt>
      <trkpt lat="47.07825" lon="-1.61582">
        <ele>65</ele>
        <time>2022-10-22T13:54:53Z</time>
      </trkpt>
      <trkpt lat="47.07836" lon="-1.61576">
        <ele>64</ele>
        <time>2022-10-22T13:54:55Z</time>
      </trkpt>
      <trkpt lat="47.07848" lon="-1.6157">
        <ele>63</ele>
        <time>2022-10-22T13:54:57Z</time>
      </trkpt>
      <trkpt lat="47.07859" lon="-1.61563">
        <ele>63</ele>
        <time>2022-10-22T13:54:59Z</time>
      </trkpt>
      <trkpt lat="47.07871" lon="-1.61557">
        <ele>62</ele>
        <time>2022-10-22T13:55:01Z</time>
      </trkpt>
      <trkpt lat="47.07883" lon="-1.61552">
        <ele>62</ele>
        <time>2022-10-22T13:55:03Z</time>
      </trkpt>
      <trkpt lat="47.07894" lon="-1.61547">
        <ele>63</ele>
        <time>2022-10-22T13:55:05Z</time>
      </trkpt>
      <trkpt lat="47.07905" lon="-1.61542">
        <ele>63</ele>
        <time>2022-10-22T13:55:07Z</time>
      </trkpt>
      <trkpt lat="47.07917" lon="-1.61537">
        <ele>63</ele>
        <time>2022-10-22T13:55:09Z</time>
      </trkpt>
      <trkpt lat="47.07928" lon="-1.61532">
        <ele>63</ele>
        <time>2022-10-22T13:55:11Z</time>
      </trkpt>
      <trkpt lat="47.0794" lon="-1.61528">
        <ele>63</ele>
        <time>2022-10-22T13:55:13Z</time>
      </trkpt>
      <trkpt lat="47.07951" lon="-1.61522">
        <ele>63</ele>
        <time>2022-10-22T13:55:15Z</time>
      </trkpt>
      <trkpt lat="47.07962" lon="-1.61517">
        <ele>62</ele>
        <time>2022-10-22T13:55:17Z</time>
      </trkpt>
      <trkpt lat="47.07974" lon="-1.61511">
        <ele>62</ele>
        <time>2022-10-22T13:55:19Z</time>
      </trkpt>
      <trkpt lat="47.07985" lon="-1.61506">
        <ele>62</ele>
        <time>2022-10-22T13:55:21Z</time>
      </trkpt>
      <trkpt lat="47.07997" lon="-1.615">
        <ele>61</ele>
        <time>2022-10-22T13:55:23Z</time>
      </trkpt>
      <trkpt lat="47.08008" lon="-1.61495">
        <ele>61</ele>
        <time>2022-10-22T13:55:25Z</time>
      </trkpt>
      <trkpt lat="47.0802" lon="-1.6149">
        <ele>61</ele>
        <time>2022-10-22T13:55:27Z</time>
      </trkpt>
      <trkpt lat="47.08031" lon="-1.61485">
        <ele>61</ele>
        <time>2022-10-22T13:55:29Z</time>
      </trkpt>
      <trkpt lat="47.08043" lon="-1.6148">
        <ele>61</ele>
        <time>2022-10-22T13:55:31Z</time>
      </trkpt>
      <trkpt lat="47.08054" lon="-1.61475">
        <ele>60</ele>
        <time>2022-10-22T13:55:33Z</time>
      </trkpt>
      <trkpt lat="47.08066" lon="-1.61471">
        <ele>60</ele>
        <time>2022-10-22T13:55:35Z</time>
      </trkpt>
      <trkpt lat="47.08077" lon="-1.61466">
        <ele>60</ele>
        <time>2022-10-22T13:55:37Z</time>
      </trkpt>
      <trkpt lat="47.08094" lon="-1.61459">
        <ele>60</ele>
        <time>2022-10-22T13:55:40Z</time>
      </trkpt>
      <trkpt lat="47.08106" lon="-1.61454">
        <ele>60</ele>
        <time>2022-10-22T13:55:42Z</time>
      </trkpt>
      <trkpt lat="47.08118" lon="-1.6145">
        <ele>60</ele>
        <time>2022-10-22T13:55:44Z</time>
      </trkpt>
      <trkpt lat="47.08135" lon="-1.61442">
        <ele>60</ele>
        <time>2022-10-22T13:55:47Z</time>
      </trkpt>
      <trkpt lat="47.08153" lon="-1.61434">
        <ele>60</ele>
        <time>2022-10-22T13:55:50Z</time>
      </trkpt>
      <trkpt lat="47.08164" lon="-1.61429">
        <ele>60</ele>
        <time>2022-10-22T13:55:52Z</time>
      </trkpt>
      <trkpt lat="47.08182" lon="-1.61421">
        <ele>60</ele>
        <time>2022-10-22T13:55:55Z</time>
      </trkpt>
      <trkpt lat="47.082" lon="-1.61413">
        <ele>60</ele>
        <time>2022-10-22T13:55:58Z</time>
      </trkpt>
      <trkpt lat="47.08217" lon="-1.61407">
        <ele>60</ele>
        <time>2022-10-22T13:56:01Z</time>
      </trkpt>
      <trkpt lat="47.08229" lon="-1.61402">
        <ele>60</ele>
        <time>2022-10-22T13:56:03Z</time>
      </trkpt>
      <trkpt lat="47.08246" lon="-1.61395">
        <ele>60</ele>
        <time>2022-10-22T13:56:06Z</time>
      </trkpt>
      <trkpt lat="47.08258" lon="-1.6139">
        <ele>61</ele>
        <time>2022-10-22T13:56:08Z</time>
      </trkpt>
      <trkpt lat="47.08269" lon="-1.61386">
        <ele>61</ele>
        <time>2022-10-22T13:56:10Z</time>
      </trkpt>
      <trkpt lat="47.08281" lon="-1.61381">
        <ele>61</ele>
        <time>2022-10-22T13:56:12Z</time>
      </trkpt>
      <trkpt lat="47.08292" lon="-1.61375">
        <ele>60</ele>
        <time>2022-10-22T13:56:14Z</time>
      </trkpt>
      <trkpt lat="47.08304" lon="-1.61369">
        <ele>60</ele>
        <time>2022-10-22T13:56:16Z</time>
      </trkpt>
      <trkpt lat="47.08315" lon="-1.61364">
        <ele>60</ele>
        <time>2022-10-22T13:56:18Z</time>
      </trkpt>
      <trkpt lat="47.08333" lon="-1.61356">
        <ele>60</ele>
        <time>2022-10-22T13:56:21Z</time>
      </trkpt>
      <trkpt lat="47.08345" lon="-1.61351">
        <ele>60</ele>
        <time>2022-10-22T13:56:23Z</time>
      </trkpt>
      <trkpt lat="47.08357" lon="-1.61346">
        <ele>60</ele>
        <time>2022-10-22T13:56:25Z</time>
      </trkpt>
      <trkpt lat="47.08368" lon="-1.61341">
        <ele>60</ele>
        <time>2022-10-22T13:56:27Z</time>
      </trkpt>
      <trkpt lat="47.0838" lon="-1.61337">
        <ele>60</ele>
        <time>2022-10-22T13:56:29Z</time>
      </trkpt>
      <trkpt lat="47.08391" lon="-1.61332">
        <ele>60</ele>
        <time>2022-10-22T13:56:31Z</time>
      </trkpt>
      <trkpt lat="47.08403" lon="-1.61326">
        <ele>59</ele>
        <time>2022-10-22T13:56:33Z</time>
      </trkpt>
      <trkpt lat="47.08415" lon="-1.61322">
        <ele>59</ele>
        <time>2022-10-22T13:56:35Z</time>
      </trkpt>
      <trkpt lat="47.08426" lon="-1.61316">
        <ele>59</ele>
        <time>2022-10-22T13:56:37Z</time>
      </trkpt>
      <trkpt lat="47.08438" lon="-1.61311">
        <ele>59</ele>
        <time>2022-10-22T13:56:39Z</time>
      </trkpt>
      <trkpt lat="47.08449" lon="-1.61306">
        <ele>59</ele>
        <time>2022-10-22T13:56:41Z</time>
      </trkpt>
      <trkpt lat="47.08461" lon="-1.61301">
        <ele>59</ele>
        <time>2022-10-22T13:56:43Z</time>
      </trkpt>
      <trkpt lat="47.08472" lon="-1.61296">
        <ele>59</ele>
        <time>2022-10-22T13:56:45Z</time>
      </trkpt>
      <trkpt lat="47.08483" lon="-1.61291">
        <ele>59</ele>
        <time>2022-10-22T13:56:47Z</time>
      </trkpt>
      <trkpt lat="47.08494" lon="-1.61284">
        <ele>59</ele>
        <time>2022-10-22T13:56:49Z</time>
      </trkpt>
      <trkpt lat="47.08505" lon="-1.6128">
        <ele>59</ele>
        <time>2022-10-22T13:56:51Z</time>
      </trkpt>
      <trkpt lat="47.08517" lon="-1.61277">
        <ele>59</ele>
        <time>2022-10-22T13:56:53Z</time>
      </trkpt>
      <trkpt lat="47.08528" lon="-1.61272">
        <ele>59</ele>
        <time>2022-10-22T13:56:55Z</time>
      </trkpt>
      <trkpt lat="47.0854" lon="-1.61267">
        <ele>59</ele>
        <time>2022-10-22T13:56:57Z</time>
      </trkpt>
      <trkpt lat="47.08551" lon="-1.61262">
        <ele>60</ele>
        <time>2022-10-22T13:56:59Z</time>
      </trkpt>
      <trkpt lat="47.08563" lon="-1.61258">
        <ele>60</ele>
        <time>2022-10-22T13:57:01Z</time>
      </trkpt>
      <trkpt lat="47.08574" lon="-1.61253">
        <ele>60</ele>
        <time>2022-10-22T13:57:03Z</time>
      </trkpt>
      <trkpt lat="47.08585" lon="-1.61248">
        <ele>60</ele>
        <time>2022-10-22T13:57:05Z</time>
      </trkpt>
      <trkpt lat="47.08597" lon="-1.61243">
        <ele>60</ele>
        <time>2022-10-22T13:57:07Z</time>
      </trkpt>
      <trkpt lat="47.08608" lon="-1.61238">
        <ele>60</ele>
        <time>2022-10-22T13:57:09Z</time>
      </trkpt>
      <trkpt lat="47.08619" lon="-1.61234">
        <ele>60</ele>
        <time>2022-10-22T13:57:11Z</time>
      </trkpt>
      <trkpt lat="47.0863" lon="-1.61229">
        <ele>60</ele>
        <time>2022-10-22T13:57:13Z</time>
      </trkpt>
      <trkpt lat="47.08641" lon="-1.61224">
        <ele>60</ele>
        <time>2022-10-22T13:57:15Z</time>
      </trkpt>
      <trkpt lat="47.08652" lon="-1.61219">
        <ele>61</ele>
        <time>2022-10-22T13:57:17Z</time>
      </trkpt>
      <trkpt lat="47.08662" lon="-1.61216">
        <ele>61</ele>
        <time>2022-10-22T13:57:19Z</time>
      </trkpt>
      <trkpt lat="47.08673" lon="-1.61211">
        <ele>61</ele>
        <time>2022-10-22T13:57:21Z</time>
      </trkpt>
      <trkpt lat="47.08684" lon="-1.61206">
        <ele>61</ele>
        <time>2022-10-22T13:57:23Z</time>
      </trkpt>
      <trkpt lat="47.08694" lon="-1.61201">
        <ele>61</ele>
        <time>2022-10-22T13:57:25Z</time>
      </trkpt>
      <trkpt lat="47.08705" lon="-1.61197">
        <ele>62</ele>
        <time>2022-10-22T13:57:27Z</time>
      </trkpt>
      <trkpt lat="47.08716" lon="-1.61191">
        <ele>61</ele>
        <time>2022-10-22T13:57:29Z</time>
      </trkpt>
      <trkpt lat="47.08727" lon="-1.61187">
        <ele>61</ele>
        <time>2022-10-22T13:57:31Z</time>
      </trkpt>
      <trkpt lat="47.08738" lon="-1.61183">
        <ele>62</ele>
        <time>2022-10-22T13:57:33Z</time>
      </trkpt>
      <trkpt lat="47.08749" lon="-1.61178">
        <ele>62</ele>
        <time>2022-10-22T13:57:35Z</time>
      </trkpt>
      <trkpt lat="47.0876" lon="-1.61173">
        <ele>62</ele>
        <time>2022-10-22T13:57:37Z</time>
      </trkpt>
      <trkpt lat="47.08771" lon="-1.61168">
        <ele>62</ele>
        <time>2022-10-22T13:57:39Z</time>
      </trkpt>
      <trkpt lat="47.08782" lon="-1.61164">
        <ele>62</ele>
        <time>2022-10-22T13:57:41Z</time>
      </trkpt>
      <trkpt lat="47.08793" lon="-1.61159">
        <ele>63</ele>
        <time>2022-10-22T13:57:43Z</time>
      </trkpt>
      <trkpt lat="47.08805" lon="-1.61154">
        <ele>63</ele>
        <time>2022-10-22T13:57:45Z</time>
      </trkpt>
      <trkpt lat="47.08816" lon="-1.61149">
        <ele>63</ele>
        <time>2022-10-22T13:57:47Z</time>
      </trkpt>
      <trkpt lat="47.08826" lon="-1.61144">
        <ele>63</ele>
        <time>2022-10-22T13:57:49Z</time>
      </trkpt>
      <trkpt lat="47.08838" lon="-1.61139">
        <ele>63</ele>
        <time>2022-10-22T13:57:51Z</time>
      </trkpt>
      <trkpt lat="47.08849" lon="-1.61135">
        <ele>63</ele>
        <time>2022-10-22T13:57:53Z</time>
      </trkpt>
      <trkpt lat="47.0886" lon="-1.6113">
        <ele>63</ele>
        <time>2022-10-22T13:57:55Z</time>
      </trkpt>
      <trkpt lat="47.08871" lon="-1.61125">
        <ele>63</ele>
        <time>2022-10-22T13:57:57Z</time>
      </trkpt>
      <trkpt lat="47.08882" lon="-1.6112">
        <ele>63</ele>
        <time>2022-10-22T13:57:59Z</time>
      </trkpt>
      <trkpt lat="47.08893" lon="-1.61115">
        <ele>63</ele>
        <time>2022-10-22T13:58:01Z</time>
      </trkpt>
      <trkpt lat="47.08904" lon="-1.61111">
        <ele>63</ele>
        <time>2022-10-22T13:58:03Z</time>
      </trkpt>
      <trkpt lat="47.08915" lon="-1.61106">
        <ele>64</ele>
        <time>2022-10-22T13:58:05Z</time>
      </trkpt>
      <trkpt lat="47.08925" lon="-1.61102">
        <ele>64</ele>
        <time>2022-10-22T13:58:07Z</time>
      </trkpt>
      <trkpt lat="47.08935" lon="-1.61098">
        <ele>64</ele>
        <time>2022-10-22T13:58:09Z</time>
      </trkpt>
      <trkpt lat="47.08945" lon="-1.61093">
        <ele>64</ele>
        <time>2022-10-22T13:58:11Z</time>
      </trkpt>
      <trkpt lat="47.08954" lon="-1.61088">
        <ele>64</ele>
        <time>2022-10-22T13:58:13Z</time>
      </trkpt>
      <trkpt lat="47.08964" lon="-1.61085">
        <ele>64</ele>
        <time>2022-10-22T13:58:15Z</time>
      </trkpt>
      <trkpt lat="47.08974" lon="-1.61083">
        <ele>64</ele>
        <time>2022-10-22T13:58:17Z</time>
      </trkpt>
      <trkpt lat="47.08984" lon="-1.61083">
        <ele>64</ele>
        <time>2022-10-22T13:58:19Z</time>
      </trkpt>
      <trkpt lat="47.08995" lon="-1.61084">
        <ele>65</ele>
        <time>2022-10-22T13:58:21Z</time>
      </trkpt>
      <trkpt lat="47.09006" lon="-1.61086">
        <ele>65</ele>
        <time>2022-10-22T13:58:23Z</time>
      </trkpt>
      <trkpt lat="47.09017" lon="-1.61089">
        <ele>65</ele>
        <time>2022-10-22T13:58:25Z</time>
      </trkpt>
      <trkpt lat="47.09029" lon="-1.61092">
        <ele>65</ele>
        <time>2022-10-22T13:58:27Z</time>
      </trkpt>
      <trkpt lat="47.0904" lon="-1.61096">
        <ele>65</ele>
        <time>2022-10-22T13:58:29Z</time>
      </trkpt>
      <trkpt lat="47.09052" lon="-1.611">
        <ele>65</ele>
        <time>2022-10-22T13:58:31Z</time>
      </trkpt>
      <trkpt lat="47.09064" lon="-1.61104">
        <ele>65</ele>
        <time>2022-10-22T13:58:33Z</time>
      </trkpt>
      <trkpt lat="47.09076" lon="-1.61107">
        <ele>65</ele>
        <time>2022-10-22T13:58:35Z</time>
      </trkpt>
      <trkpt lat="47.09087" lon="-1.61111">
        <ele>65</ele>
        <time>2022-10-22T13:58:37Z</time>
      </trkpt>
      <trkpt lat="47.09099" lon="-1.61114">
        <ele>65</ele>
        <time>2022-10-22T13:58:39Z</time>
      </trkpt>
      <trkpt lat="47.09111" lon="-1.61118">
        <ele>65</ele>
        <time>2022-10-22T13:58:41Z</time>
      </trkpt>
      <trkpt lat="47.09123" lon="-1.61122">
        <ele>65</ele>
        <time>2022-10-22T13:58:43Z</time>
      </trkpt>
      <trkpt lat="47.09135" lon="-1.61125">
        <ele>65</ele>
        <time>2022-10-22T13:58:45Z</time>
      </trkpt>
      <trkpt lat="47.09145" lon="-1.61128">
        <ele>65</ele>
        <time>2022-10-22T13:58:47Z</time>
      </trkpt>
      <trkpt lat="47.09156" lon="-1.61132">
        <ele>64</ele>
        <time>2022-10-22T13:58:49Z</time>
      </trkpt>
      <trkpt lat="47.09166" lon="-1.61135">
        <ele>64</ele>
        <time>2022-10-22T13:58:51Z</time>
      </trkpt>
      <trkpt lat="47.09175" lon="-1.61138">
        <ele>65</ele>
        <time>2022-10-22T13:58:54Z</time>
      </trkpt>
      <trkpt lat="47.09185" lon="-1.61141">
        <ele>66</ele>
        <time>2022-10-22T13:59:04Z</time>
      </trkpt>
      <trkpt lat="47.09194" lon="-1.61145">
        <ele>66</ele>
        <time>2022-10-22T13:59:07Z</time>
      </trkpt>
      <trkpt lat="47.09208" lon="-1.61149">
        <ele>66</ele>
        <time>2022-10-22T13:59:10Z</time>
      </trkpt>
      <trkpt lat="47.0922" lon="-1.61158">
        <ele>66</ele>
        <time>2022-10-22T13:59:12Z</time>
      </trkpt>
      <trkpt lat="47.09231" lon="-1.61169">
        <ele>66</ele>
        <time>2022-10-22T13:59:14Z</time>
      </trkpt>
      <trkpt lat="47.09244" lon="-1.61177">
        <ele>66</ele>
        <time>2022-10-22T13:59:16Z</time>
      </trkpt>
      <trkpt lat="47.09258" lon="-1.61181">
        <ele>66</ele>
        <time>2022-10-22T13:59:18Z</time>
      </trkpt>
      <trkpt lat="47.09272" lon="-1.61185">
        <ele>66</ele>
        <time>2022-10-22T13:59:20Z</time>
      </trkpt>
      <trkpt lat="47.09286" lon="-1.6119">
        <ele>66</ele>
        <time>2022-10-22T13:59:22Z</time>
      </trkpt>
      <trkpt lat="47.09299" lon="-1.61195">
        <ele>66</ele>
        <time>2022-10-22T13:59:24Z</time>
      </trkpt>
      <trkpt lat="47.09313" lon="-1.61199">
        <ele>66</ele>
        <time>2022-10-22T13:59:26Z</time>
      </trkpt>
      <trkpt lat="47.09326" lon="-1.61203">
        <ele>67</ele>
        <time>2022-10-22T13:59:28Z</time>
      </trkpt>
      <trkpt lat="47.0934" lon="-1.61207">
        <ele>67</ele>
        <time>2022-10-22T13:59:30Z</time>
      </trkpt>
      <trkpt lat="47.09354" lon="-1.6121">
        <ele>67</ele>
        <time>2022-10-22T13:59:32Z</time>
      </trkpt>
      <trkpt lat="47.09367" lon="-1.61216">
        <ele>67</ele>
        <time>2022-10-22T13:59:34Z</time>
      </trkpt>
      <trkpt lat="47.0938" lon="-1.61221">
        <ele>66</ele>
        <time>2022-10-22T13:59:36Z</time>
      </trkpt>
      <trkpt lat="47.09393" lon="-1.61226">
        <ele>65</ele>
        <time>2022-10-22T13:59:38Z</time>
      </trkpt>
      <trkpt lat="47.09406" lon="-1.61232">
        <ele>64</ele>
        <time>2022-10-22T13:59:40Z</time>
      </trkpt>
      <trkpt lat="47.09419" lon="-1.61231">
        <ele>64</ele>
        <time>2022-10-22T13:59:42Z</time>
      </trkpt>
      <trkpt lat="47.09432" lon="-1.61218">
        <ele>63</ele>
        <time>2022-10-22T13:59:44Z</time>
      </trkpt>
      <trkpt lat="47.09443" lon="-1.61204">
        <ele>63</ele>
        <time>2022-10-22T13:59:46Z</time>
      </trkpt>
      <trkpt lat="47.09455" lon="-1.61192">
        <ele>63</ele>
        <time>2022-10-22T13:59:48Z</time>
      </trkpt>
      <trkpt lat="47.09466" lon="-1.61179">
        <ele>62</ele>
        <time>2022-10-22T13:59:50Z</time>
      </trkpt>
      <trkpt lat="47.09477" lon="-1.61167">
        <ele>62</ele>
        <time>2022-10-22T13:59:52Z</time>
      </trkpt>
      <trkpt lat="47.09489" lon="-1.61157">
        <ele>63</ele>
        <time>2022-10-22T13:59:54Z</time>
      </trkpt>
      <trkpt lat="47.09501" lon="-1.61148">
        <ele>62</ele>
        <time>2022-10-22T13:59:56Z</time>
      </trkpt>
      <trkpt lat="47.09514" lon="-1.61141">
        <ele>61</ele>
        <time>2022-10-22T13:59:58Z</time>
      </trkpt>
      <trkpt lat="47.09527" lon="-1.61137">
        <ele>61</ele>
        <time>2022-10-22T14:00:00Z</time>
      </trkpt>
      <trkpt lat="47.0954" lon="-1.61135">
        <ele>61</ele>
        <time>2022-10-22T14:00:02Z</time>
      </trkpt>
      <trkpt lat="47.09553" lon="-1.61135">
        <ele>61</ele>
        <time>2022-10-22T14:00:04Z</time>
      </trkpt>
      <trkpt lat="47.09566" lon="-1.61133">
        <ele>61</ele>
        <time>2022-10-22T14:00:06Z</time>
      </trkpt>
      <trkpt lat="47.0958" lon="-1.61132">
        <ele>60</ele>
        <time>2022-10-22T14:00:08Z</time>
      </trkpt>
      <trkpt lat="47.09594" lon="-1.61129">
        <ele>60</ele>
        <time>2022-10-22T14:00:10Z</time>
      </trkpt>
      <trkpt lat="47.09608" lon="-1.61128">
        <ele>60</ele>
        <time>2022-10-22T14:00:12Z</time>
      </trkpt>
      <trkpt lat="47.09622" lon="-1.61126">
        <ele>60</ele>
        <time>2022-10-22T14:00:14Z</time>
      </trkpt>
      <trkpt lat="47.09635" lon="-1.61125">
        <ele>60</ele>
        <time>2022-10-22T14:00:16Z</time>
      </trkpt>
      <trkpt lat="47.09649" lon="-1.61123">
        <ele>60</ele>
        <time>2022-10-22T14:00:18Z</time>
      </trkpt>
      <trkpt lat="47.09663" lon="-1.61121">
        <ele>59</ele>
        <time>2022-10-22T14:00:20Z</time>
      </trkpt>
      <trkpt lat="47.09677" lon="-1.6112">
        <ele>60</ele>
        <time>2022-10-22T14:00:22Z</time>
      </trkpt>
      <trkpt lat="47.09691" lon="-1.61118">
        <ele>59</ele>
        <time>2022-10-22T14:00:24Z</time>
      </trkpt>
      <trkpt lat="47.09705" lon="-1.61117">
        <ele>59</ele>
        <time>2022-10-22T14:00:26Z</time>
      </trkpt>
      <trkpt lat="47.09718" lon="-1.61114">
        <ele>59</ele>
        <time>2022-10-22T14:00:28Z</time>
      </trkpt>
      <trkpt lat="47.09732" lon="-1.61112">
        <ele>59</ele>
        <time>2022-10-22T14:00:30Z</time>
      </trkpt>
      <trkpt lat="47.09745" lon="-1.61111">
        <ele>59</ele>
        <time>2022-10-22T14:00:32Z</time>
      </trkpt>
      <trkpt lat="47.09758" lon="-1.6111">
        <ele>60</ele>
        <time>2022-10-22T14:00:34Z</time>
      </trkpt>
      <trkpt lat="47.0977" lon="-1.61109">
        <ele>61</ele>
        <time>2022-10-22T14:00:36Z</time>
      </trkpt>
      <trkpt lat="47.09783" lon="-1.61107">
        <ele>61</ele>
        <time>2022-10-22T14:00:38Z</time>
      </trkpt>
      <trkpt lat="47.09795" lon="-1.61103">
        <ele>61</ele>
        <time>2022-10-22T14:00:40Z</time>
      </trkpt>
      <trkpt lat="47.09807" lon="-1.61097">
        <ele>62</ele>
        <time>2022-10-22T14:00:42Z</time>
      </trkpt>
      <trkpt lat="47.09818" lon="-1.61089">
        <ele>62</ele>
        <time>2022-10-22T14:00:44Z</time>
      </trkpt>
      <trkpt lat="47.0983" lon="-1.61079">
        <ele>61</ele>
        <time>2022-10-22T14:00:46Z</time>
      </trkpt>
      <trkpt lat="47.09839" lon="-1.61069">
        <ele>60</ele>
        <time>2022-10-22T14:00:48Z</time>
      </trkpt>
      <trkpt lat="47.09848" lon="-1.61057">
        <ele>60</ele>
        <time>2022-10-22T14:00:50Z</time>
      </trkpt>
      <trkpt lat="47.09855" lon="-1.61045">
        <ele>61</ele>
        <time>2022-10-22T14:00:52Z</time>
      </trkpt>
      <trkpt lat="47.09862" lon="-1.61032">
        <ele>61</ele>
        <time>2022-10-22T14:00:54Z</time>
      </trkpt>
      <trkpt lat="47.09869" lon="-1.6102">
        <ele>61</ele>
        <time>2022-10-22T14:00:56Z</time>
      </trkpt>
      <trkpt lat="47.09876" lon="-1.61006">
        <ele>61</ele>
        <time>2022-10-22T14:00:58Z</time>
      </trkpt>
      <trkpt lat="47.09881" lon="-1.60992">
        <ele>62</ele>
        <time>2022-10-22T14:01:00Z</time>
      </trkpt>
      <trkpt lat="47.09887" lon="-1.60978">
        <ele>62</ele>
        <time>2022-10-22T14:01:02Z</time>
      </trkpt>
      <trkpt lat="47.09892" lon="-1.60965">
        <ele>63</ele>
        <time>2022-10-22T14:01:04Z</time>
      </trkpt>
      <trkpt lat="47.09898" lon="-1.60952">
        <ele>63</ele>
        <time>2022-10-22T14:01:06Z</time>
      </trkpt>
      <trkpt lat="47.09903" lon="-1.60939">
        <ele>63</ele>
        <time>2022-10-22T14:01:08Z</time>
      </trkpt>
      <trkpt lat="47.09908" lon="-1.60925">
        <ele>63</ele>
        <time>2022-10-22T14:01:10Z</time>
      </trkpt>
      <trkpt lat="47.09913" lon="-1.60912">
        <ele>63</ele>
        <time>2022-10-22T14:01:12Z</time>
      </trkpt>
      <trkpt lat="47.09918" lon="-1.60899">
        <ele>63</ele>
        <time>2022-10-22T14:01:14Z</time>
      </trkpt>
      <trkpt lat="47.09924" lon="-1.60886">
        <ele>63</ele>
        <time>2022-10-22T14:01:16Z</time>
      </trkpt>
      <trkpt lat="47.09929" lon="-1.60872">
        <ele>64</ele>
        <time>2022-10-22T14:01:18Z</time>
      </trkpt>
      <trkpt lat="47.09935" lon="-1.60859">
        <ele>64</ele>
        <time>2022-10-22T14:01:20Z</time>
      </trkpt>
      <trkpt lat="47.0994" lon="-1.60844">
        <ele>64</ele>
        <time>2022-10-22T14:01:22Z</time>
      </trkpt>
      <trkpt lat="47.09945" lon="-1.6083">
        <ele>64</ele>
        <time>2022-10-22T14:01:24Z</time>
      </trkpt>
      <trkpt lat="47.0995" lon="-1.60816">
        <ele>64</ele>
        <time>2022-10-22T14:01:26Z</time>
      </trkpt>
      <trkpt lat="47.09954" lon="-1.60802">
        <ele>64</ele>
        <time>2022-10-22T14:01:28Z</time>
      </trkpt>
      <trkpt lat="47.09959" lon="-1.60788">
        <ele>64</ele>
        <time>2022-10-22T14:01:30Z</time>
      </trkpt>
      <trkpt lat="47.09963" lon="-1.60773">
        <ele>64</ele>
        <time>2022-10-22T14:01:32Z</time>
      </trkpt>
      <trkpt lat="47.09967" lon="-1.60759">
        <ele>64</ele>
        <time>2022-10-22T14:01:34Z</time>
      </trkpt>
      <trkpt lat="47.09971" lon="-1.60745">
        <ele>64</ele>
        <time>2022-10-22T14:01:36Z</time>
      </trkpt>
      <trkpt lat="47.09976" lon="-1.6073">
        <ele>65</ele>
        <time>2022-10-22T14:01:38Z</time>
      </trkpt>
      <trkpt lat="47.0998" lon="-1.60715">
        <ele>65</ele>
        <time>2022-10-22T14:01:40Z</time>
      </trkpt>
      <trkpt lat="47.09985" lon="-1.60701">
        <ele>65</ele>
        <time>2022-10-22T14:01:42Z</time>
      </trkpt>
      <trkpt lat="47.09989" lon="-1.60686">
        <ele>65</ele>
        <time>2022-10-22T14:01:44Z</time>
      </trkpt>
      <trkpt lat="47.09993" lon="-1.60672">
        <ele>65</ele>
        <time>2022-10-22T14:01:46Z</time>
      </trkpt>
      <trkpt lat="47.09998" lon="-1.60658">
        <ele>65</ele>
        <time>2022-10-22T14:01:48Z</time>
      </trkpt>
      <trkpt lat="47.10002" lon="-1.60644">
        <ele>65</ele>
        <time>2022-10-22T14:01:50Z</time>
      </trkpt>
      <trkpt lat="47.10006" lon="-1.6063">
        <ele>65</ele>
        <time>2022-10-22T14:01:52Z</time>
      </trkpt>
      <trkpt lat="47.10011" lon="-1.60615">
        <ele>65</ele>
        <time>2022-10-22T14:01:54Z</time>
      </trkpt>
      <trkpt lat="47.10015" lon="-1.60601">
        <ele>66</ele>
        <time>2022-10-22T14:01:56Z</time>
      </trkpt>
      <trkpt lat="47.10019" lon="-1.60586">
        <ele>66</ele>
        <time>2022-10-22T14:01:58Z</time>
      </trkpt>
      <trkpt lat="47.10023" lon="-1.60572">
        <ele>66</ele>
        <time>2022-10-22T14:02:00Z</time>
      </trkpt>
      <trkpt lat="47.10028" lon="-1.60558">
        <ele>65</ele>
        <time>2022-10-22T14:02:02Z</time>
      </trkpt>
      <trkpt lat="47.10032" lon="-1.60543">
        <ele>65</ele>
        <time>2022-10-22T14:02:04Z</time>
      </trkpt>
      <trkpt lat="47.10036" lon="-1.60528">
        <ele>65</ele>
        <time>2022-10-22T14:02:06Z</time>
      </trkpt>
      <trkpt lat="47.1004" lon="-1.60513">
        <ele>65</ele>
        <time>2022-10-22T14:02:08Z</time>
      </trkpt>
      <trkpt lat="47.10044" lon="-1.60498">
        <ele>65</ele>
        <time>2022-10-22T14:02:10Z</time>
      </trkpt>
      <trkpt lat="47.10048" lon="-1.60482">
        <ele>65</ele>
        <time>2022-10-22T14:02:12Z</time>
      </trkpt>
      <trkpt lat="47.10051" lon="-1.60466">
        <ele>65</ele>
        <time>2022-10-22T14:02:14Z</time>
      </trkpt>
      <trkpt lat="47.10054" lon="-1.60451">
        <ele>65</ele>
        <time>2022-10-22T14:02:16Z</time>
      </trkpt>
      <trkpt lat="47.10057" lon="-1.60435">
        <ele>65</ele>
        <time>2022-10-22T14:02:18Z</time>
      </trkpt>
      <trkpt lat="47.10059" lon="-1.60418">
        <ele>65</ele>
        <time>2022-10-22T14:02:20Z</time>
      </trkpt>
      <trkpt lat="47.10061" lon="-1.60402">
        <ele>65</ele>
        <time>2022-10-22T14:02:22Z</time>
      </trkpt>
      <trkpt lat="47.10063" lon="-1.60386">
        <ele>64</ele>
        <time>2022-10-22T14:02:24Z</time>
      </trkpt>
      <trkpt lat="47.10065" lon="-1.60369">
        <ele>64</ele>
        <time>2022-10-22T14:02:26Z</time>
      </trkpt>
      <trkpt lat="47.10067" lon="-1.60353">
        <ele>64</ele>
        <time>2022-10-22T14:02:28Z</time>
      </trkpt>
      <trkpt lat="47.10068" lon="-1.60337">
        <ele>65</ele>
        <time>2022-10-22T14:02:30Z</time>
      </trkpt>
      <trkpt lat="47.1007" lon="-1.6032">
        <ele>65</ele>
        <time>2022-10-22T14:02:32Z</time>
      </trkpt>
      <trkpt lat="47.1007" lon="-1.60304">
        <ele>65</ele>
        <time>2022-10-22T14:02:34Z</time>
      </trkpt>
      <trkpt lat="47.10072" lon="-1.60288">
        <ele>65</ele>
        <time>2022-10-22T14:02:36Z</time>
      </trkpt>
      <trkpt lat="47.10074" lon="-1.60271">
        <ele>65</ele>
        <time>2022-10-22T14:02:38Z</time>
      </trkpt>
      <trkpt lat="47.10075" lon="-1.60255">
        <ele>65</ele>
        <time>2022-10-22T14:02:40Z</time>
      </trkpt>
      <trkpt lat="47.10076" lon="-1.60239">
        <ele>65</ele>
        <time>2022-10-22T14:02:42Z</time>
      </trkpt>
      <trkpt lat="47.10077" lon="-1.60222">
        <ele>65</ele>
        <time>2022-10-22T14:02:44Z</time>
      </trkpt>
      <trkpt lat="47.10079" lon="-1.60205">
        <ele>65</ele>
        <time>2022-10-22T14:02:46Z</time>
      </trkpt>
      <trkpt lat="47.1008" lon="-1.60188">
        <ele>65</ele>
        <time>2022-10-22T14:02:48Z</time>
      </trkpt>
      <trkpt lat="47.10079" lon="-1.60172">
        <ele>65</ele>
        <time>2022-10-22T14:02:50Z</time>
      </trkpt>
      <trkpt lat="47.10076" lon="-1.60156">
        <ele>65</ele>
        <time>2022-10-22T14:02:52Z</time>
      </trkpt>
      <trkpt lat="47.10069" lon="-1.60142">
        <ele>65</ele>
        <time>2022-10-22T14:02:54Z</time>
      </trkpt>
      <trkpt lat="47.10067" lon="-1.60126">
        <ele>65</ele>
        <time>2022-10-22T14:02:56Z</time>
      </trkpt>
      <trkpt lat="47.10074" lon="-1.60111">
        <ele>64</ele>
        <time>2022-10-22T14:02:58Z</time>
      </trkpt>
      <trkpt lat="47.10085" lon="-1.60102">
        <ele>64</ele>
        <time>2022-10-22T14:03:00Z</time>
      </trkpt>
      <trkpt lat="47.10096" lon="-1.60097">
        <ele>64</ele>
        <time>2022-10-22T14:03:02Z</time>
      </trkpt>
      <trkpt lat="47.10106" lon="-1.60088">
        <ele>64</ele>
        <time>2022-10-22T14:03:04Z</time>
      </trkpt>
      <trkpt lat="47.10112" lon="-1.60074">
        <ele>64</ele>
        <time>2022-10-22T14:03:06Z</time>
      </trkpt>
      <trkpt lat="47.10119" lon="-1.60061">
        <ele>64</ele>
        <time>2022-10-22T14:03:08Z</time>
      </trkpt>
      <trkpt lat="47.10127" lon="-1.60048">
        <ele>64</ele>
        <time>2022-10-22T14:03:10Z</time>
      </trkpt>
      <trkpt lat="47.10135" lon="-1.60035">
        <ele>64</ele>
        <time>2022-10-22T14:03:12Z</time>
      </trkpt>
      <trkpt lat="47.10143" lon="-1.60022">
        <ele>64</ele>
        <time>2022-10-22T14:03:14Z</time>
      </trkpt>
      <trkpt lat="47.10151" lon="-1.60009">
        <ele>64</ele>
        <time>2022-10-22T14:03:16Z</time>
      </trkpt>
      <trkpt lat="47.10159" lon="-1.59994">
        <ele>64</ele>
        <time>2022-10-22T14:03:18Z</time>
      </trkpt>
      <trkpt lat="47.10166" lon="-1.59981">
        <ele>64</ele>
        <time>2022-10-22T14:03:20Z</time>
      </trkpt>
      <trkpt lat="47.10174" lon="-1.59968">
        <ele>64</ele>
        <time>2022-10-22T14:03:22Z</time>
      </trkpt>
      <trkpt lat="47.10181" lon="-1.59956">
        <ele>64</ele>
        <time>2022-10-22T14:03:24Z</time>
      </trkpt>
      <trkpt lat="47.10189" lon="-1.59944">
        <ele>64</ele>
        <time>2022-10-22T14:03:26Z</time>
      </trkpt>
      <trkpt lat="47.10196" lon="-1.59932">
        <ele>64</ele>
        <time>2022-10-22T14:03:28Z</time>
      </trkpt>
      <trkpt lat="47.10204" lon="-1.59919">
        <ele>64</ele>
        <time>2022-10-22T14:03:30Z</time>
      </trkpt>
      <trkpt lat="47.10212" lon="-1.59907">
        <ele>64</ele>
        <time>2022-10-22T14:03:32Z</time>
      </trkpt>
      <trkpt lat="47.10219" lon="-1.59894">
        <ele>63</ele>
        <time>2022-10-22T14:03:34Z</time>
      </trkpt>
      <trkpt lat="47.10227" lon="-1.59881">
        <ele>64</ele>
        <time>2022-10-22T14:03:36Z</time>
      </trkpt>
      <trkpt lat="47.10234" lon="-1.59869">
        <ele>64</ele>
        <time>2022-10-22T14:03:38Z</time>
      </trkpt>
      <trkpt lat="47.10242" lon="-1.59856">
        <ele>63</ele>
        <time>2022-10-22T14:03:40Z</time>
      </trkpt>
      <trkpt lat="47.1025" lon="-1.59844">
        <ele>63</ele>
        <time>2022-10-22T14:03:42Z</time>
      </trkpt>
      <trkpt lat="47.10258" lon="-1.59832">
        <ele>63</ele>
        <time>2022-10-22T14:03:44Z</time>
      </trkpt>
      <trkpt lat="47.10265" lon="-1.59819">
        <ele>63</ele>
        <time>2022-10-22T14:03:46Z</time>
      </trkpt>
      <trkpt lat="47.10273" lon="-1.59806">
        <ele>63</ele>
        <time>2022-10-22T14:03:48Z</time>
      </trkpt>
      <trkpt lat="47.1028" lon="-1.59794">
        <ele>64</ele>
        <time>2022-10-22T14:03:50Z</time>
      </trkpt>
      <trkpt lat="47.10288" lon="-1.59782">
        <ele>64</ele>
        <time>2022-10-22T14:03:52Z</time>
      </trkpt>
      <trkpt lat="47.10295" lon="-1.5977">
        <ele>64</ele>
        <time>2022-10-22T14:03:54Z</time>
      </trkpt>
      <trkpt lat="47.10303" lon="-1.59758">
        <ele>64</ele>
        <time>2022-10-22T14:03:56Z</time>
      </trkpt>
      <trkpt lat="47.1031" lon="-1.59745">
        <ele>65</ele>
        <time>2022-10-22T14:03:58Z</time>
      </trkpt>
      <trkpt lat="47.10317" lon="-1.59733">
        <ele>65</ele>
        <time>2022-10-22T14:04:00Z</time>
      </trkpt>
      <trkpt lat="47.10325" lon="-1.5972">
        <ele>65</ele>
        <time>2022-10-22T14:04:02Z</time>
      </trkpt>
      <trkpt lat="47.10333" lon="-1.59707">
        <ele>65</ele>
        <time>2022-10-22T14:04:04Z</time>
      </trkpt>
      <trkpt lat="47.10341" lon="-1.59694">
        <ele>65</ele>
        <time>2022-10-22T14:04:06Z</time>
      </trkpt>
      <trkpt lat="47.10349" lon="-1.59681">
        <ele>65</ele>
        <time>2022-10-22T14:04:08Z</time>
      </trkpt>
      <trkpt lat="47.10356" lon="-1.59669">
        <ele>65</ele>
        <time>2022-10-22T14:04:10Z</time>
      </trkpt>
      <trkpt lat="47.10363" lon="-1.59657">
        <ele>64</ele>
        <time>2022-10-22T14:04:12Z</time>
      </trkpt>
      <trkpt lat="47.1037" lon="-1.59645">
        <ele>65</ele>
        <time>2022-10-22T14:04:14Z</time>
      </trkpt>
      <trkpt lat="47.10377" lon="-1.59632">
        <ele>65</ele>
        <time>2022-10-22T14:04:16Z</time>
      </trkpt>
      <trkpt lat="47.10385" lon="-1.59619">
        <ele>65</ele>
        <time>2022-10-22T14:04:18Z</time>
      </trkpt>
      <trkpt lat="47.10392" lon="-1.59607">
        <ele>64</ele>
        <time>2022-10-22T14:04:20Z</time>
      </trkpt>
      <trkpt lat="47.10399" lon="-1.59596">
        <ele>64</ele>
        <time>2022-10-22T14:04:22Z</time>
      </trkpt>
      <trkpt lat="47.10406" lon="-1.59583">
        <ele>64</ele>
        <time>2022-10-22T14:04:24Z</time>
      </trkpt>
      <trkpt lat="47.10414" lon="-1.59572">
        <ele>64</ele>
        <time>2022-10-22T14:04:26Z</time>
      </trkpt>
      <trkpt lat="47.10421" lon="-1.5956">
        <ele>64</ele>
        <time>2022-10-22T14:04:28Z</time>
      </trkpt>
      <trkpt lat="47.10428" lon="-1.59548">
        <ele>64</ele>
        <time>2022-10-22T14:04:30Z</time>
      </trkpt>
      <trkpt lat="47.10436" lon="-1.59537">
        <ele>63</ele>
        <time>2022-10-22T14:04:32Z</time>
      </trkpt>
      <trkpt lat="47.10443" lon="-1.59525">
        <ele>63</ele>
        <time>2022-10-22T14:04:34Z</time>
      </trkpt>
      <trkpt lat="47.10451" lon="-1.59513">
        <ele>64</ele>
        <time>2022-10-22T14:04:36Z</time>
      </trkpt>
      <trkpt lat="47.10458" lon="-1.59499">
        <ele>64</ele>
        <time>2022-10-22T14:04:38Z</time>
      </trkpt>
      <trkpt lat="47.10465" lon="-1.59485">
        <ele>64</ele>
        <time>2022-10-22T14:04:40Z</time>
      </trkpt>
      <trkpt lat="47.10473" lon="-1.59471">
        <ele>64</ele>
        <time>2022-10-22T14:04:42Z</time>
      </trkpt>
      <trkpt lat="47.10481" lon="-1.59458">
        <ele>64</ele>
        <time>2022-10-22T14:04:44Z</time>
      </trkpt>
      <trkpt lat="47.10489" lon="-1.59445">
        <ele>64</ele>
        <time>2022-10-22T14:04:46Z</time>
      </trkpt>
      <trkpt lat="47.10497" lon="-1.59432">
        <ele>64</ele>
        <time>2022-10-22T14:04:48Z</time>
      </trkpt>
      <trkpt lat="47.10504" lon="-1.59419">
        <ele>64</ele>
        <time>2022-10-22T14:04:50Z</time>
      </trkpt>
      <trkpt lat="47.10512" lon="-1.59405">
        <ele>65</ele>
        <time>2022-10-22T14:04:52Z</time>
      </trkpt>
      <trkpt lat="47.1052" lon="-1.59392">
        <ele>64</ele>
        <time>2022-10-22T14:04:54Z</time>
      </trkpt>
      <trkpt lat="47.10527" lon="-1.59379">
        <ele>64</ele>
        <time>2022-10-22T14:04:56Z</time>
      </trkpt>
      <trkpt lat="47.10535" lon="-1.59367">
        <ele>65</ele>
        <time>2022-10-22T14:04:58Z</time>
      </trkpt>
      <trkpt lat="47.10542" lon="-1.59354">
        <ele>65</ele>
        <time>2022-10-22T14:05:00Z</time>
      </trkpt>
      <trkpt lat="47.1055" lon="-1.59341">
        <ele>65</ele>
        <time>2022-10-22T14:05:02Z</time>
      </trkpt>
      <trkpt lat="47.10557" lon="-1.59328">
        <ele>65</ele>
        <time>2022-10-22T14:05:04Z</time>
      </trkpt>
      <trkpt lat="47.10564" lon="-1.59315">
        <ele>65</ele>
        <time>2022-10-22T14:05:06Z</time>
      </trkpt>
      <trkpt lat="47.1057" lon="-1.59303">
        <ele>66</ele>
        <time>2022-10-22T14:05:08Z</time>
      </trkpt>
      <trkpt lat="47.10577" lon="-1.59292">
        <ele>66</ele>
        <time>2022-10-22T14:05:10Z</time>
      </trkpt>
      <trkpt lat="47.10584" lon="-1.59281">
        <ele>67</ele>
        <time>2022-10-22T14:05:12Z</time>
      </trkpt>
      <trkpt lat="47.1059" lon="-1.5927">
        <ele>67</ele>
        <time>2022-10-22T14:05:14Z</time>
      </trkpt>
      <trkpt lat="47.10596" lon="-1.59258">
        <ele>67</ele>
        <time>2022-10-22T14:05:16Z</time>
      </trkpt>
      <trkpt lat="47.10603" lon="-1.59246">
        <ele>67</ele>
        <time>2022-10-22T14:05:18Z</time>
      </trkpt>
      <trkpt lat="47.1061" lon="-1.59235">
        <ele>67</ele>
        <time>2022-10-22T14:05:20Z</time>
      </trkpt>
      <trkpt lat="47.10618" lon="-1.59225">
        <ele>68</ele>
        <time>2022-10-22T14:05:22Z</time>
      </trkpt>
      <trkpt lat="47.10624" lon="-1.59214">
        <ele>68</ele>
        <time>2022-10-22T14:05:24Z</time>
      </trkpt>
      <trkpt lat="47.1063" lon="-1.59203">
        <ele>69</ele>
        <time>2022-10-22T14:05:26Z</time>
      </trkpt>
      <trkpt lat="47.10636" lon="-1.59191">
        <ele>69</ele>
        <time>2022-10-22T14:05:28Z</time>
      </trkpt>
      <trkpt lat="47.10642" lon="-1.5918">
        <ele>69</ele>
        <time>2022-10-22T14:05:30Z</time>
      </trkpt>
      <trkpt lat="47.10649" lon="-1.59168">
        <ele>69</ele>
        <time>2022-10-22T14:05:32Z</time>
      </trkpt>
      <trkpt lat="47.10654" lon="-1.59157">
        <ele>69</ele>
        <time>2022-10-22T14:05:34Z</time>
      </trkpt>
      <trkpt lat="47.10658" lon="-1.59144">
        <ele>70</ele>
        <time>2022-10-22T14:05:36Z</time>
      </trkpt>
      <trkpt lat="47.10663" lon="-1.59131">
        <ele>70</ele>
        <time>2022-10-22T14:05:38Z</time>
      </trkpt>
      <trkpt lat="47.10667" lon="-1.59118">
        <ele>70</ele>
        <time>2022-10-22T14:05:40Z</time>
      </trkpt>
      <trkpt lat="47.10672" lon="-1.59105">
        <ele>70</ele>
        <time>2022-10-22T14:05:42Z</time>
      </trkpt>
      <trkpt lat="47.10676" lon="-1.59092">
        <ele>71</ele>
        <time>2022-10-22T14:05:44Z</time>
      </trkpt>
      <trkpt lat="47.1068" lon="-1.59079">
        <ele>71</ele>
        <time>2022-10-22T14:05:46Z</time>
      </trkpt>
      <trkpt lat="47.10684" lon="-1.59066">
        <ele>71</ele>
        <time>2022-10-22T14:05:48Z</time>
      </trkpt>
      <trkpt lat="47.10687" lon="-1.59053">
        <ele>71</ele>
        <time>2022-10-22T14:05:50Z</time>
      </trkpt>
      <trkpt lat="47.10691" lon="-1.59036">
        <ele>71</ele>
        <time>2022-10-22T14:05:53Z</time>
      </trkpt>
      <trkpt lat="47.10697" lon="-1.59026">
        <ele>71</ele>
        <time>2022-10-22T14:05:55Z</time>
      </trkpt>
      <trkpt lat="47.10705" lon="-1.59011">
        <ele>72</ele>
        <time>2022-10-22T14:05:58Z</time>
      </trkpt>
      <trkpt lat="47.10714" lon="-1.58996">
        <ele>73</ele>
        <time>2022-10-22T14:06:01Z</time>
      </trkpt>
      <trkpt lat="47.10719" lon="-1.58981">
        <ele>73</ele>
        <time>2022-10-22T14:06:03Z</time>
      </trkpt>
      <trkpt lat="47.10724" lon="-1.58967">
        <ele>73</ele>
        <time>2022-10-22T14:06:05Z</time>
      </trkpt>
      <trkpt lat="47.10729" lon="-1.58952">
        <ele>73</ele>
        <time>2022-10-22T14:06:07Z</time>
      </trkpt>
      <trkpt lat="47.10734" lon="-1.58938">
        <ele>73</ele>
        <time>2022-10-22T14:06:09Z</time>
      </trkpt>
      <trkpt lat="47.1074" lon="-1.58924">
        <ele>72</ele>
        <time>2022-10-22T14:06:11Z</time>
      </trkpt>
      <trkpt lat="47.10746" lon="-1.5891">
        <ele>72</ele>
        <time>2022-10-22T14:06:13Z</time>
      </trkpt>
      <trkpt lat="47.10752" lon="-1.58896">
        <ele>71</ele>
        <time>2022-10-22T14:06:15Z</time>
      </trkpt>
      <trkpt lat="47.10759" lon="-1.58883">
        <ele>71</ele>
        <time>2022-10-22T14:06:17Z</time>
      </trkpt>
      <trkpt lat="47.10768" lon="-1.58872">
        <ele>71</ele>
        <time>2022-10-22T14:06:19Z</time>
      </trkpt>
      <trkpt lat="47.10777" lon="-1.58859">
        <ele>70</ele>
        <time>2022-10-22T14:06:21Z</time>
      </trkpt>
      <trkpt lat="47.10784" lon="-1.58845">
        <ele>70</ele>
        <time>2022-10-22T14:06:23Z</time>
      </trkpt>
      <trkpt lat="47.10792" lon="-1.58832">
        <ele>70</ele>
        <time>2022-10-22T14:06:25Z</time>
      </trkpt>
      <trkpt lat="47.10801" lon="-1.58819">
        <ele>69</ele>
        <time>2022-10-22T14:06:27Z</time>
      </trkpt>
      <trkpt lat="47.10809" lon="-1.58805">
        <ele>69</ele>
        <time>2022-10-22T14:06:29Z</time>
      </trkpt>
      <trkpt lat="47.10818" lon="-1.58791">
        <ele>69</ele>
        <time>2022-10-22T14:06:31Z</time>
      </trkpt>
      <trkpt lat="47.10826" lon="-1.58779">
        <ele>69</ele>
        <time>2022-10-22T14:06:33Z</time>
      </trkpt>
      <trkpt lat="47.10835" lon="-1.58765">
        <ele>68</ele>
        <time>2022-10-22T14:06:35Z</time>
      </trkpt>
      <trkpt lat="47.10844" lon="-1.58752">
        <ele>68</ele>
        <time>2022-10-22T14:06:37Z</time>
      </trkpt>
      <trkpt lat="47.10852" lon="-1.58738">
        <ele>69</ele>
        <time>2022-10-22T14:06:39Z</time>
      </trkpt>
      <trkpt lat="47.10858" lon="-1.58724">
        <ele>69</ele>
        <time>2022-10-22T14:06:41Z</time>
      </trkpt>
      <trkpt lat="47.10867" lon="-1.58714">
        <ele>69</ele>
        <time>2022-10-22T14:06:43Z</time>
      </trkpt>
      <trkpt lat="47.10876" lon="-1.58704">
        <ele>68</ele>
        <time>2022-10-22T14:06:45Z</time>
      </trkpt>
      <trkpt lat="47.10885" lon="-1.5869">
        <ele>68</ele>
        <time>2022-10-22T14:06:47Z</time>
      </trkpt>
      <trkpt lat="47.10894" lon="-1.58677">
        <ele>68</ele>
        <time>2022-10-22T14:06:49Z</time>
      </trkpt>
      <trkpt lat="47.10903" lon="-1.58663">
        <ele>68</ele>
        <time>2022-10-22T14:06:51Z</time>
      </trkpt>
      <trkpt lat="47.10913" lon="-1.58649">
        <ele>67</ele>
        <time>2022-10-22T14:06:53Z</time>
      </trkpt>
      <trkpt lat="47.10922" lon="-1.58635">
        <ele>67</ele>
        <time>2022-10-22T14:06:55Z</time>
      </trkpt>
      <trkpt lat="47.10932" lon="-1.58623">
        <ele>67</ele>
        <time>2022-10-22T14:06:57Z</time>
      </trkpt>
      <trkpt lat="47.10942" lon="-1.58611">
        <ele>67</ele>
        <time>2022-10-22T14:06:59Z</time>
      </trkpt>
      <trkpt lat="47.10951" lon="-1.58598">
        <ele>67</ele>
        <time>2022-10-22T14:07:01Z</time>
      </trkpt>
      <trkpt lat="47.1096" lon="-1.58583">
        <ele>66</ele>
        <time>2022-10-22T14:07:03Z</time>
      </trkpt>
      <trkpt lat="47.10968" lon="-1.5857">
        <ele>67</ele>
        <time>2022-10-22T14:07:05Z</time>
      </trkpt>
      <trkpt lat="47.10978" lon="-1.58556">
        <ele>67</ele>
        <time>2022-10-22T14:07:07Z</time>
      </trkpt>
      <trkpt lat="47.10987" lon="-1.58541">
        <ele>66</ele>
        <time>2022-10-22T14:07:09Z</time>
      </trkpt>
      <trkpt lat="47.10995" lon="-1.58526">
        <ele>67</ele>
        <time>2022-10-22T14:07:11Z</time>
      </trkpt>
      <trkpt lat="47.11004" lon="-1.58512">
        <ele>67</ele>
        <time>2022-10-22T14:07:13Z</time>
      </trkpt>
      <trkpt lat="47.11014" lon="-1.58497">
        <ele>66</ele>
        <time>2022-10-22T14:07:15Z</time>
      </trkpt>
      <trkpt lat="47.11023" lon="-1.58483">
        <ele>65</ele>
        <time>2022-10-22T14:07:17Z</time>
      </trkpt>
      <trkpt lat="47.11032" lon="-1.58468">
        <ele>64</ele>
        <time>2022-10-22T14:07:19Z</time>
      </trkpt>
      <trkpt lat="47.11041" lon="-1.58454">
        <ele>64</ele>
        <time>2022-10-22T14:07:21Z</time>
      </trkpt>
      <trkpt lat="47.11048" lon="-1.58438">
        <ele>64</ele>
        <time>2022-10-22T14:07:23Z</time>
      </trkpt>
      <trkpt lat="47.11057" lon="-1.58423">
        <ele>63</ele>
        <time>2022-10-22T14:07:25Z</time>
      </trkpt>
      <trkpt lat="47.11065" lon="-1.58407">
        <ele>63</ele>
        <time>2022-10-22T14:07:27Z</time>
      </trkpt>
      <trkpt lat="47.11072" lon="-1.58392">
        <ele>63</ele>
        <time>2022-10-22T14:07:29Z</time>
      </trkpt>
      <trkpt lat="47.11079" lon="-1.58376">
        <ele>63</ele>
        <time>2022-10-22T14:07:31Z</time>
      </trkpt>
      <trkpt lat="47.11086" lon="-1.5836">
        <ele>62</ele>
        <time>2022-10-22T14:07:33Z</time>
      </trkpt>
      <trkpt lat="47.11093" lon="-1.58345">
        <ele>62</ele>
        <time>2022-10-22T14:07:35Z</time>
      </trkpt>
      <trkpt lat="47.11101" lon="-1.58331">
        <ele>62</ele>
        <time>2022-10-22T14:07:37Z</time>
      </trkpt>
      <trkpt lat="47.11111" lon="-1.58317">
        <ele>62</ele>
        <time>2022-10-22T14:07:39Z</time>
      </trkpt>
      <trkpt lat="47.11121" lon="-1.58305">
        <ele>62</ele>
        <time>2022-10-22T14:07:41Z</time>
      </trkpt>
      <trkpt lat="47.11131" lon="-1.58293">
        <ele>62</ele>
        <time>2022-10-22T14:07:43Z</time>
      </trkpt>
      <trkpt lat="47.11141" lon="-1.58283">
        <ele>62</ele>
        <time>2022-10-22T14:07:45Z</time>
      </trkpt>
      <trkpt lat="47.11151" lon="-1.58273">
        <ele>62</ele>
        <time>2022-10-22T14:07:47Z</time>
      </trkpt>
      <trkpt lat="47.1116" lon="-1.58261">
        <ele>62</ele>
        <time>2022-10-22T14:07:49Z</time>
      </trkpt>
      <trkpt lat="47.1117" lon="-1.58251">
        <ele>61</ele>
        <time>2022-10-22T14:07:51Z</time>
      </trkpt>
      <trkpt lat="47.11181" lon="-1.58239">
        <ele>61</ele>
        <time>2022-10-22T14:07:53Z</time>
      </trkpt>
      <trkpt lat="47.11191" lon="-1.58227">
        <ele>62</ele>
        <time>2022-10-22T14:07:55Z</time>
      </trkpt>
      <trkpt lat="47.112" lon="-1.58214">
        <ele>62</ele>
        <time>2022-10-22T14:07:57Z</time>
      </trkpt>
      <trkpt lat="47.11209" lon="-1.58202">
        <ele>61</ele>
        <time>2022-10-22T14:07:59Z</time>
      </trkpt>
      <trkpt lat="47.11218" lon="-1.5819">
        <ele>61</ele>
        <time>2022-10-22T14:08:01Z</time>
      </trkpt>
      <trkpt lat="47.11228" lon="-1.58178">
        <ele>61</ele>
        <time>2022-10-22T14:08:03Z</time>
      </trkpt>
      <trkpt lat="47.11238" lon="-1.58166">
        <ele>61</ele>
        <time>2022-10-22T14:08:05Z</time>
      </trkpt>
      <trkpt lat="47.11248" lon="-1.58157">
        <ele>61</ele>
        <time>2022-10-22T14:08:07Z</time>
      </trkpt>
      <trkpt lat="47.11259" lon="-1.58146">
        <ele>61</ele>
        <time>2022-10-22T14:08:09Z</time>
      </trkpt>
      <trkpt lat="47.1127" lon="-1.58136">
        <ele>60</ele>
        <time>2022-10-22T14:08:11Z</time>
      </trkpt>
      <trkpt lat="47.11281" lon="-1.58126">
        <ele>60</ele>
        <time>2022-10-22T14:08:13Z</time>
      </trkpt>
      <trkpt lat="47.11292" lon="-1.58118">
        <ele>60</ele>
        <time>2022-10-22T14:08:15Z</time>
      </trkpt>
      <trkpt lat="47.11304" lon="-1.5811">
        <ele>60</ele>
        <time>2022-10-22T14:08:17Z</time>
      </trkpt>
      <trkpt lat="47.11315" lon="-1.58103">
        <ele>61</ele>
        <time>2022-10-22T14:08:19Z</time>
      </trkpt>
      <trkpt lat="47.11326" lon="-1.58096">
        <ele>60</ele>
        <time>2022-10-22T14:08:21Z</time>
      </trkpt>
      <trkpt lat="47.11338" lon="-1.58089">
        <ele>61</ele>
        <time>2022-10-22T14:08:23Z</time>
      </trkpt>
      <trkpt lat="47.11349" lon="-1.58083">
        <ele>61</ele>
        <time>2022-10-22T14:08:25Z</time>
      </trkpt>
      <trkpt lat="47.11361" lon="-1.58076">
        <ele>61</ele>
        <time>2022-10-22T14:08:27Z</time>
      </trkpt>
      <trkpt lat="47.11372" lon="-1.58068">
        <ele>61</ele>
        <time>2022-10-22T14:08:29Z</time>
      </trkpt>
      <trkpt lat="47.11384" lon="-1.58062">
        <ele>61</ele>
        <time>2022-10-22T14:08:31Z</time>
      </trkpt>
      <trkpt lat="47.11394" lon="-1.58055">
        <ele>62</ele>
        <time>2022-10-22T14:08:33Z</time>
      </trkpt>
      <trkpt lat="47.11405" lon="-1.58048">
        <ele>62</ele>
        <time>2022-10-22T14:08:35Z</time>
      </trkpt>
      <trkpt lat="47.11416" lon="-1.5804">
        <ele>61</ele>
        <time>2022-10-22T14:08:37Z</time>
      </trkpt>
      <trkpt lat="47.11428" lon="-1.58034">
        <ele>61</ele>
        <time>2022-10-22T14:08:39Z</time>
      </trkpt>
      <trkpt lat="47.1144" lon="-1.58029">
        <ele>62</ele>
        <time>2022-10-22T14:08:41Z</time>
      </trkpt>
      <trkpt lat="47.11452" lon="-1.58024">
        <ele>62</ele>
        <time>2022-10-22T14:08:43Z</time>
      </trkpt>
      <trkpt lat="47.11463" lon="-1.5802">
        <ele>62</ele>
        <time>2022-10-22T14:08:45Z</time>
      </trkpt>
      <trkpt lat="47.11476" lon="-1.58017">
        <ele>61</ele>
        <time>2022-10-22T14:08:47Z</time>
      </trkpt>
      <trkpt lat="47.11488" lon="-1.58015">
        <ele>62</ele>
        <time>2022-10-22T14:08:49Z</time>
      </trkpt>
      <trkpt lat="47.11499" lon="-1.58014">
        <ele>62</ele>
        <time>2022-10-22T14:08:51Z</time>
      </trkpt>
      <trkpt lat="47.11511" lon="-1.58013">
        <ele>63</ele>
        <time>2022-10-22T14:08:53Z</time>
      </trkpt>
      <trkpt lat="47.11523" lon="-1.58013">
        <ele>63</ele>
        <time>2022-10-22T14:08:55Z</time>
      </trkpt>
      <trkpt lat="47.11534" lon="-1.58013">
        <ele>64</ele>
        <time>2022-10-22T14:08:57Z</time>
      </trkpt>
      <trkpt lat="47.11546" lon="-1.58013">
        <ele>64</ele>
        <time>2022-10-22T14:08:59Z</time>
      </trkpt>
      <trkpt lat="47.11558" lon="-1.58012">
        <ele>63</ele>
        <time>2022-10-22T14:09:01Z</time>
      </trkpt>
      <trkpt lat="47.1157" lon="-1.58012">
        <ele>63</ele>
        <time>2022-10-22T14:09:03Z</time>
      </trkpt>
      <trkpt lat="47.11581" lon="-1.58014">
        <ele>63</ele>
        <time>2022-10-22T14:09:05Z</time>
      </trkpt>
      <trkpt lat="47.11592" lon="-1.58016">
        <ele>63</ele>
        <time>2022-10-22T14:09:07Z</time>
      </trkpt>
      <trkpt lat="47.11603" lon="-1.58015">
        <ele>64</ele>
        <time>2022-10-22T14:09:09Z</time>
      </trkpt>
      <trkpt lat="47.11614" lon="-1.58012">
        <ele>63</ele>
        <time>2022-10-22T14:09:11Z</time>
      </trkpt>
      <trkpt lat="47.11625" lon="-1.58008">
        <ele>64</ele>
        <time>2022-10-22T14:09:13Z</time>
      </trkpt>
      <trkpt lat="47.11636" lon="-1.58007">
        <ele>63</ele>
        <time>2022-10-22T14:09:15Z</time>
      </trkpt>
      <trkpt lat="47.11644" lon="-1.58013">
        <ele>63</ele>
        <time>2022-10-22T14:09:17Z</time>
      </trkpt>
      <trkpt lat="47.11652" lon="-1.58023">
        <ele>63</ele>
        <time>2022-10-22T14:09:19Z</time>
      </trkpt>
      <trkpt lat="47.11664" lon="-1.58027">
        <ele>62</ele>
        <time>2022-10-22T14:09:21Z</time>
      </trkpt>
      <trkpt lat="47.11676" lon="-1.58027">
        <ele>62</ele>
        <time>2022-10-22T14:09:23Z</time>
      </trkpt>
      <trkpt lat="47.11689" lon="-1.58028">
        <ele>62</ele>
        <time>2022-10-22T14:09:25Z</time>
      </trkpt>
      <trkpt lat="47.11701" lon="-1.58028">
        <ele>62</ele>
        <time>2022-10-22T14:09:27Z</time>
      </trkpt>
      <trkpt lat="47.11713" lon="-1.5803">
        <ele>62</ele>
        <time>2022-10-22T14:09:29Z</time>
      </trkpt>
      <trkpt lat="47.11725" lon="-1.58031">
        <ele>62</ele>
        <time>2022-10-22T14:09:31Z</time>
      </trkpt>
      <trkpt lat="47.11737" lon="-1.58033">
        <ele>61</ele>
        <time>2022-10-22T14:09:33Z</time>
      </trkpt>
      <trkpt lat="47.11749" lon="-1.58034">
        <ele>61</ele>
        <time>2022-10-22T14:09:35Z</time>
      </trkpt>
      <trkpt lat="47.11762" lon="-1.58037">
        <ele>61</ele>
        <time>2022-10-22T14:09:37Z</time>
      </trkpt>
      <trkpt lat="47.11774" lon="-1.5804">
        <ele>62</ele>
        <time>2022-10-22T14:09:39Z</time>
      </trkpt>
      <trkpt lat="47.11786" lon="-1.58043">
        <ele>62</ele>
        <time>2022-10-22T14:09:41Z</time>
      </trkpt>
      <trkpt lat="47.11799" lon="-1.58046">
        <ele>62</ele>
        <time>2022-10-22T14:09:43Z</time>
      </trkpt>
      <trkpt lat="47.11811" lon="-1.58049">
        <ele>62</ele>
        <time>2022-10-22T14:09:45Z</time>
      </trkpt>
      <trkpt lat="47.11823" lon="-1.58052">
        <ele>62</ele>
        <time>2022-10-22T14:09:47Z</time>
      </trkpt>
      <trkpt lat="47.11836" lon="-1.58054">
        <ele>62</ele>
        <time>2022-10-22T14:09:49Z</time>
      </trkpt>
      <trkpt lat="47.11847" lon="-1.58057">
        <ele>62</ele>
        <time>2022-10-22T14:09:51Z</time>
      </trkpt>
      <trkpt lat="47.1186" lon="-1.5806">
        <ele>63</ele>
        <time>2022-10-22T14:09:53Z</time>
      </trkpt>
      <trkpt lat="47.11872" lon="-1.58064">
        <ele>63</ele>
        <time>2022-10-22T14:09:55Z</time>
      </trkpt>
      <trkpt lat="47.11884" lon="-1.58067">
        <ele>63</ele>
        <time>2022-10-22T14:09:57Z</time>
      </trkpt>
      <trkpt lat="47.11896" lon="-1.58069">
        <ele>64</ele>
        <time>2022-10-22T14:09:59Z</time>
      </trkpt>
      <trkpt lat="47.11908" lon="-1.58072">
        <ele>64</ele>
        <time>2022-10-22T14:10:01Z</time>
      </trkpt>
      <trkpt lat="47.1192" lon="-1.58075">
        <ele>65</ele>
        <time>2022-10-22T14:10:03Z</time>
      </trkpt>
      <trkpt lat="47.11932" lon="-1.58078">
        <ele>65</ele>
        <time>2022-10-22T14:10:05Z</time>
      </trkpt>
      <trkpt lat="47.11944" lon="-1.58081">
        <ele>66</ele>
        <time>2022-10-22T14:10:07Z</time>
      </trkpt>
      <trkpt lat="47.11956" lon="-1.58084">
        <ele>66</ele>
        <time>2022-10-22T14:10:09Z</time>
      </trkpt>
      <trkpt lat="47.11968" lon="-1.58087">
        <ele>66</ele>
        <time>2022-10-22T14:10:11Z</time>
      </trkpt>
      <trkpt lat="47.11979" lon="-1.5809">
        <ele>66</ele>
        <time>2022-10-22T14:10:13Z</time>
      </trkpt>
      <trkpt lat="47.1199" lon="-1.58095">
        <ele>67</ele>
        <time>2022-10-22T14:10:15Z</time>
      </trkpt>
      <trkpt lat="47.12" lon="-1.58098">
        <ele>67</ele>
        <time>2022-10-22T14:10:17Z</time>
      </trkpt>
      <trkpt lat="47.12011" lon="-1.58097">
        <ele>67</ele>
        <time>2022-10-22T14:10:19Z</time>
      </trkpt>
      <trkpt lat="47.12021" lon="-1.58097">
        <ele>67</ele>
        <time>2022-10-22T14:10:21Z</time>
      </trkpt>
      <trkpt lat="47.12031" lon="-1.58108">
        <ele>66</ele>
        <time>2022-10-22T14:10:23Z</time>
      </trkpt>
      <trkpt lat="47.12042" lon="-1.58117">
        <ele>65</ele>
        <time>2022-10-22T14:10:25Z</time>
      </trkpt>
      <trkpt lat="47.12059" lon="-1.58128">
        <ele>65</ele>
        <time>2022-10-22T14:10:28Z</time>
      </trkpt>
      <trkpt lat="47.1207" lon="-1.58135">
        <ele>64</ele>
        <time>2022-10-22T14:10:30Z</time>
      </trkpt>
      <trkpt lat="47.12082" lon="-1.58142">
        <ele>64</ele>
        <time>2022-10-22T14:10:32Z</time>
      </trkpt>
      <trkpt lat="47.12095" lon="-1.5815">
        <ele>64</ele>
        <time>2022-10-22T14:10:34Z</time>
      </trkpt>
      <trkpt lat="47.12107" lon="-1.58159">
        <ele>63</ele>
        <time>2022-10-22T14:10:36Z</time>
      </trkpt>
      <trkpt lat="47.1212" lon="-1.58168">
        <ele>63</ele>
        <time>2022-10-22T14:10:38Z</time>
      </trkpt>
      <trkpt lat="47.12132" lon="-1.58178">
        <ele>63</ele>
        <time>2022-10-22T14:10:40Z</time>
      </trkpt>
      <trkpt lat="47.12145" lon="-1.58192">
        <ele>62</ele>
        <time>2022-10-22T14:10:42Z</time>
      </trkpt>
      <trkpt lat="47.12157" lon="-1.58205">
        <ele>61</ele>
        <time>2022-10-22T14:10:44Z</time>
      </trkpt>
      <trkpt lat="47.1217" lon="-1.58218">
        <ele>61</ele>
        <time>2022-10-22T14:10:46Z</time>
      </trkpt>
      <trkpt lat="47.12183" lon="-1.58229">
        <ele>61</ele>
        <time>2022-10-22T14:10:48Z</time>
      </trkpt>
      <trkpt lat="47.12196" lon="-1.5824">
        <ele>60</ele>
        <time>2022-10-22T14:10:50Z</time>
      </trkpt>
      <trkpt lat="47.12208" lon="-1.58251">
        <ele>61</ele>
        <time>2022-10-22T14:10:52Z</time>
      </trkpt>
      <trkpt lat="47.12219" lon="-1.58263">
        <ele>61</ele>
        <time>2022-10-22T14:10:54Z</time>
      </trkpt>
      <trkpt lat="47.12231" lon="-1.58274">
        <ele>60</ele>
        <time>2022-10-22T14:10:56Z</time>
      </trkpt>
      <trkpt lat="47.12247" lon="-1.5829">
        <ele>59</ele>
        <time>2022-10-22T14:10:59Z</time>
      </trkpt>
      <trkpt lat="47.12258" lon="-1.58301">
        <ele>59</ele>
        <time>2022-10-22T14:11:01Z</time>
      </trkpt>
      <trkpt lat="47.12269" lon="-1.58312">
        <ele>59</ele>
        <time>2022-10-22T14:11:03Z</time>
      </trkpt>
      <trkpt lat="47.12279" lon="-1.58321">
        <ele>58</ele>
        <time>2022-10-22T14:11:05Z</time>
      </trkpt>
      <trkpt lat="47.12289" lon="-1.58331">
        <ele>59</ele>
        <time>2022-10-22T14:11:07Z</time>
      </trkpt>
      <trkpt lat="47.123" lon="-1.58347">
        <ele>59</ele>
        <time>2022-10-22T14:11:10Z</time>
      </trkpt>
      <trkpt lat="47.12301" lon="-1.5837">
        <ele>59</ele>
        <time>2022-10-22T14:11:13Z</time>
      </trkpt>
      <trkpt lat="47.12303" lon="-1.58392">
        <ele>60</ele>
        <time>2022-10-22T14:11:16Z</time>
      </trkpt>
      <trkpt lat="47.12308" lon="-1.58404">
        <ele>60</ele>
        <time>2022-10-22T14:11:18Z</time>
      </trkpt>
      <trkpt lat="47.12315" lon="-1.58415">
        <ele>60</ele>
        <time>2022-10-22T14:11:20Z</time>
      </trkpt>
      <trkpt lat="47.12321" lon="-1.58427">
        <ele>60</ele>
        <time>2022-10-22T14:11:22Z</time>
      </trkpt>
      <trkpt lat="47.12328" lon="-1.58435">
        <ele>61</ele>
        <time>2022-10-22T14:11:24Z</time>
      </trkpt>
      <trkpt lat="47.12332" lon="-1.58449">
        <ele>61</ele>
        <time>2022-10-22T14:11:26Z</time>
      </trkpt>
      <trkpt lat="47.12335" lon="-1.58467">
        <ele>60</ele>
        <time>2022-10-22T14:11:28Z</time>
      </trkpt>
      <trkpt lat="47.1234" lon="-1.58484">
        <ele>60</ele>
        <time>2022-10-22T14:11:30Z</time>
      </trkpt>
      <trkpt lat="47.12344" lon="-1.58502">
        <ele>60</ele>
        <time>2022-10-22T14:11:32Z</time>
      </trkpt>
      <trkpt lat="47.12348" lon="-1.58518">
        <ele>59</ele>
        <time>2022-10-22T14:11:34Z</time>
      </trkpt>
      <trkpt lat="47.12351" lon="-1.58534">
        <ele>59</ele>
        <time>2022-10-22T14:11:36Z</time>
      </trkpt>
      <trkpt lat="47.12355" lon="-1.5855">
        <ele>59</ele>
        <time>2022-10-22T14:11:38Z</time>
      </trkpt>
      <trkpt lat="47.12358" lon="-1.58563">
        <ele>60</ele>
        <time>2022-10-22T14:11:40Z</time>
      </trkpt>
      <trkpt lat="47.12363" lon="-1.58578">
        <ele>60</ele>
        <time>2022-10-22T14:11:42Z</time>
      </trkpt>
      <trkpt lat="47.12367" lon="-1.58595">
        <ele>60</ele>
        <time>2022-10-22T14:11:44Z</time>
      </trkpt>
      <trkpt lat="47.12372" lon="-1.58612">
        <ele>61</ele>
        <time>2022-10-22T14:11:46Z</time>
      </trkpt>
      <trkpt lat="47.12376" lon="-1.58629">
        <ele>61</ele>
        <time>2022-10-22T14:11:48Z</time>
      </trkpt>
      <trkpt lat="47.12379" lon="-1.58646">
        <ele>61</ele>
        <time>2022-10-22T14:11:50Z</time>
      </trkpt>
      <trkpt lat="47.12382" lon="-1.58663">
        <ele>61</ele>
        <time>2022-10-22T14:11:52Z</time>
      </trkpt>
      <trkpt lat="47.12385" lon="-1.58678">
        <ele>61</ele>
        <time>2022-10-22T14:11:54Z</time>
      </trkpt>
      <trkpt lat="47.12389" lon="-1.58694">
        <ele>61</ele>
        <time>2022-10-22T14:11:56Z</time>
      </trkpt>
      <trkpt lat="47.12392" lon="-1.5871">
        <ele>61</ele>
        <time>2022-10-22T14:11:58Z</time>
      </trkpt>
      <trkpt lat="47.12396" lon="-1.58725">
        <ele>61</ele>
        <time>2022-10-22T14:12:00Z</time>
      </trkpt>
      <trkpt lat="47.12399" lon="-1.5874">
        <ele>61</ele>
        <time>2022-10-22T14:12:02Z</time>
      </trkpt>
      <trkpt lat="47.12402" lon="-1.58756">
        <ele>61</ele>
        <time>2022-10-22T14:12:04Z</time>
      </trkpt>
      <trkpt lat="47.12406" lon="-1.58773">
        <ele>61</ele>
        <time>2022-10-22T14:12:06Z</time>
      </trkpt>
      <trkpt lat="47.12408" lon="-1.58789">
        <ele>61</ele>
        <time>2022-10-22T14:12:08Z</time>
      </trkpt>
      <trkpt lat="47.12411" lon="-1.58804">
        <ele>61</ele>
        <time>2022-10-22T14:12:10Z</time>
      </trkpt>
      <trkpt lat="47.12413" lon="-1.58819">
        <ele>61</ele>
        <time>2022-10-22T14:12:12Z</time>
      </trkpt>
      <trkpt lat="47.12415" lon="-1.58834">
        <ele>61</ele>
        <time>2022-10-22T14:12:14Z</time>
      </trkpt>
      <trkpt lat="47.12417" lon="-1.5885">
        <ele>60</ele>
        <time>2022-10-22T14:12:16Z</time>
      </trkpt>
      <trkpt lat="47.12418" lon="-1.58866">
        <ele>61</ele>
        <time>2022-10-22T14:12:18Z</time>
      </trkpt>
      <trkpt lat="47.1242" lon="-1.58882">
        <ele>61</ele>
        <time>2022-10-22T14:12:20Z</time>
      </trkpt>
      <trkpt lat="47.12421" lon="-1.58898">
        <ele>61</ele>
        <time>2022-10-22T14:12:22Z</time>
      </trkpt>
      <trkpt lat="47.12423" lon="-1.58915">
        <ele>61</ele>
        <time>2022-10-22T14:12:24Z</time>
      </trkpt>
      <trkpt lat="47.12424" lon="-1.58933">
        <ele>61</ele>
        <time>2022-10-22T14:12:26Z</time>
      </trkpt>
      <trkpt lat="47.12426" lon="-1.58952">
        <ele>61</ele>
        <time>2022-10-22T14:12:28Z</time>
      </trkpt>
      <trkpt lat="47.12427" lon="-1.58973">
        <ele>60</ele>
        <time>2022-10-22T14:12:30Z</time>
      </trkpt>
      <trkpt lat="47.12428" lon="-1.58994">
        <ele>60</ele>
        <time>2022-10-22T14:12:32Z</time>
      </trkpt>
      <trkpt lat="47.12429" lon="-1.59015">
        <ele>59</ele>
        <time>2022-10-22T14:12:34Z</time>
      </trkpt>
      <trkpt lat="47.1243" lon="-1.59038">
        <ele>59</ele>
        <time>2022-10-22T14:12:36Z</time>
      </trkpt>
      <trkpt lat="47.12431" lon="-1.5906">
        <ele>58</ele>
        <time>2022-10-22T14:12:38Z</time>
      </trkpt>
      <trkpt lat="47.12433" lon="-1.59083">
        <ele>58</ele>
        <time>2022-10-22T14:12:40Z</time>
      </trkpt>
      <trkpt lat="47.12434" lon="-1.59104">
        <ele>57</ele>
        <time>2022-10-22T14:12:42Z</time>
      </trkpt>
      <trkpt lat="47.12434" lon="-1.59124">
        <ele>57</ele>
        <time>2022-10-22T14:12:44Z</time>
      </trkpt>
      <trkpt lat="47.12435" lon="-1.59143">
        <ele>57</ele>
        <time>2022-10-22T14:12:46Z</time>
      </trkpt>
      <trkpt lat="47.12437" lon="-1.59162">
        <ele>57</ele>
        <time>2022-10-22T14:12:48Z</time>
      </trkpt>
      <trkpt lat="47.12441" lon="-1.5918">
        <ele>57</ele>
        <time>2022-10-22T14:12:50Z</time>
      </trkpt>
      <trkpt lat="47.12443" lon="-1.59198">
        <ele>57</ele>
        <time>2022-10-22T14:12:52Z</time>
      </trkpt>
      <trkpt lat="47.1244" lon="-1.59216">
        <ele>57</ele>
        <time>2022-10-22T14:12:54Z</time>
      </trkpt>
      <trkpt lat="47.1244" lon="-1.59234">
        <ele>57</ele>
        <time>2022-10-22T14:12:56Z</time>
      </trkpt>
      <trkpt lat="47.12441" lon="-1.59252">
        <ele>57</ele>
        <time>2022-10-22T14:12:58Z</time>
      </trkpt>
      <trkpt lat="47.12441" lon="-1.59269">
        <ele>58</ele>
        <time>2022-10-22T14:13:00Z</time>
      </trkpt>
      <trkpt lat="47.12441" lon="-1.59287">
        <ele>58</ele>
        <time>2022-10-22T14:13:02Z</time>
      </trkpt>
      <trkpt lat="47.12442" lon="-1.59305">
        <ele>58</ele>
        <time>2022-10-22T14:13:04Z</time>
      </trkpt>
      <trkpt lat="47.12443" lon="-1.59323">
        <ele>58</ele>
        <time>2022-10-22T14:13:06Z</time>
      </trkpt>
      <trkpt lat="47.12444" lon="-1.5934">
        <ele>58</ele>
        <time>2022-10-22T14:13:08Z</time>
      </trkpt>
      <trkpt lat="47.12445" lon="-1.59357">
        <ele>58</ele>
        <time>2022-10-22T14:13:10Z</time>
      </trkpt>
      <trkpt lat="47.12446" lon="-1.59375">
        <ele>58</ele>
        <time>2022-10-22T14:13:12Z</time>
      </trkpt>
      <trkpt lat="47.12447" lon="-1.59393">
        <ele>59</ele>
        <time>2022-10-22T14:13:14Z</time>
      </trkpt>
      <trkpt lat="47.12447" lon="-1.59411">
        <ele>59</ele>
        <time>2022-10-22T14:13:16Z</time>
      </trkpt>
      <trkpt lat="47.12448" lon="-1.59428">
        <ele>59</ele>
        <time>2022-10-22T14:13:18Z</time>
      </trkpt>
      <trkpt lat="47.12449" lon="-1.59445">
        <ele>60</ele>
        <time>2022-10-22T14:13:20Z</time>
      </trkpt>
      <trkpt lat="47.12449" lon="-1.59462">
        <ele>60</ele>
        <time>2022-10-22T14:13:22Z</time>
      </trkpt>
      <trkpt lat="47.1245" lon="-1.5948">
        <ele>60</ele>
        <time>2022-10-22T14:13:24Z</time>
      </trkpt>
      <trkpt lat="47.12452" lon="-1.59497">
        <ele>60</ele>
        <time>2022-10-22T14:13:26Z</time>
      </trkpt>
      <trkpt lat="47.12452" lon="-1.59515">
        <ele>60</ele>
        <time>2022-10-22T14:13:28Z</time>
      </trkpt>
      <trkpt lat="47.12453" lon="-1.59532">
        <ele>60</ele>
        <time>2022-10-22T14:13:30Z</time>
      </trkpt>
      <trkpt lat="47.12454" lon="-1.59549">
        <ele>60</ele>
        <time>2022-10-22T14:13:32Z</time>
      </trkpt>
      <trkpt lat="47.12455" lon="-1.59566">
        <ele>61</ele>
        <time>2022-10-22T14:13:34Z</time>
      </trkpt>
      <trkpt lat="47.12456" lon="-1.59584">
        <ele>60</ele>
        <time>2022-10-22T14:13:36Z</time>
      </trkpt>
      <trkpt lat="47.12457" lon="-1.596">
        <ele>60</ele>
        <time>2022-10-22T14:13:38Z</time>
      </trkpt>
      <trkpt lat="47.12458" lon="-1.59618">
        <ele>60</ele>
        <time>2022-10-22T14:13:40Z</time>
      </trkpt>
      <trkpt lat="47.12459" lon="-1.59635">
        <ele>61</ele>
        <time>2022-10-22T14:13:42Z</time>
      </trkpt>
      <trkpt lat="47.1246" lon="-1.59651">
        <ele>61</ele>
        <time>2022-10-22T14:13:44Z</time>
      </trkpt>
      <trkpt lat="47.12461" lon="-1.59668">
        <ele>61</ele>
        <time>2022-10-22T14:13:46Z</time>
      </trkpt>
      <trkpt lat="47.12462" lon="-1.59685">
        <ele>61</ele>
        <time>2022-10-22T14:13:48Z</time>
      </trkpt>
      <trkpt lat="47.12462" lon="-1.59701">
        <ele>61</ele>
        <time>2022-10-22T14:13:50Z</time>
      </trkpt>
      <trkpt lat="47.12463" lon="-1.59717">
        <ele>61</ele>
        <time>2022-10-22T14:13:52Z</time>
      </trkpt>
      <trkpt lat="47.12464" lon="-1.59734">
        <ele>61</ele>
        <time>2022-10-22T14:13:54Z</time>
      </trkpt>
      <trkpt lat="47.12465" lon="-1.59751">
        <ele>61</ele>
        <time>2022-10-22T14:13:56Z</time>
      </trkpt>
      <trkpt lat="47.12466" lon="-1.59768">
        <ele>61</ele>
        <time>2022-10-22T14:13:58Z</time>
      </trkpt>
      <trkpt lat="47.12467" lon="-1.59786">
        <ele>61</ele>
        <time>2022-10-22T14:14:00Z</time>
      </trkpt>
      <trkpt lat="47.12468" lon="-1.59804">
        <ele>61</ele>
        <time>2022-10-22T14:14:02Z</time>
      </trkpt>
      <trkpt lat="47.12469" lon="-1.59822">
        <ele>61</ele>
        <time>2022-10-22T14:14:04Z</time>
      </trkpt>
      <trkpt lat="47.1247" lon="-1.59839">
        <ele>61</ele>
        <time>2022-10-22T14:14:06Z</time>
      </trkpt>
      <trkpt lat="47.12469" lon="-1.59857">
        <ele>61</ele>
        <time>2022-10-22T14:14:08Z</time>
      </trkpt>
      <trkpt lat="47.1247" lon="-1.59874">
        <ele>61</ele>
        <time>2022-10-22T14:14:10Z</time>
      </trkpt>
      <trkpt lat="47.1247" lon="-1.59891">
        <ele>61</ele>
        <time>2022-10-22T14:14:12Z</time>
      </trkpt>
      <trkpt lat="47.12471" lon="-1.5991">
        <ele>62</ele>
        <time>2022-10-22T14:14:14Z</time>
      </trkpt>
      <trkpt lat="47.12472" lon="-1.59929">
        <ele>62</ele>
        <time>2022-10-22T14:14:16Z</time>
      </trkpt>
      <trkpt lat="47.12472" lon="-1.59948">
        <ele>63</ele>
        <time>2022-10-22T14:14:18Z</time>
      </trkpt>
      <trkpt lat="47.12473" lon="-1.59967">
        <ele>62</ele>
        <time>2022-10-22T14:14:20Z</time>
      </trkpt>
      <trkpt lat="47.12474" lon="-1.59986">
        <ele>62</ele>
        <time>2022-10-22T14:14:22Z</time>
      </trkpt>
      <trkpt lat="47.12476" lon="-1.60006">
        <ele>62</ele>
        <time>2022-10-22T14:14:24Z</time>
      </trkpt>
      <trkpt lat="47.12477" lon="-1.60026">
        <ele>62</ele>
        <time>2022-10-22T14:14:26Z</time>
      </trkpt>
      <trkpt lat="47.12477" lon="-1.60046">
        <ele>61</ele>
        <time>2022-10-22T14:14:28Z</time>
      </trkpt>
      <trkpt lat="47.12478" lon="-1.60065">
        <ele>61</ele>
        <time>2022-10-22T14:14:30Z</time>
      </trkpt>
      <trkpt lat="47.12479" lon="-1.60086">
        <ele>61</ele>
        <time>2022-10-22T14:14:32Z</time>
      </trkpt>
      <trkpt lat="47.1248" lon="-1.60105">
        <ele>60</ele>
        <time>2022-10-22T14:14:34Z</time>
      </trkpt>
      <trkpt lat="47.12481" lon="-1.60126">
        <ele>60</ele>
        <time>2022-10-22T14:14:36Z</time>
      </trkpt>
      <trkpt lat="47.12482" lon="-1.60147">
        <ele>60</ele>
        <time>2022-10-22T14:14:38Z</time>
      </trkpt>
      <trkpt lat="47.12483" lon="-1.60168">
        <ele>60</ele>
        <time>2022-10-22T14:14:40Z</time>
      </trkpt>
      <trkpt lat="47.12485" lon="-1.60189">
        <ele>60</ele>
        <time>2022-10-22T14:14:42Z</time>
      </trkpt>
      <trkpt lat="47.12488" lon="-1.6021">
        <ele>59</ele>
        <time>2022-10-22T14:14:44Z</time>
      </trkpt>
      <trkpt lat="47.12492" lon="-1.60231">
        <ele>58</ele>
        <time>2022-10-22T14:14:46Z</time>
      </trkpt>
      <trkpt lat="47.12496" lon="-1.60252">
        <ele>58</ele>
        <time>2022-10-22T14:14:48Z</time>
      </trkpt>
      <trkpt lat="47.125" lon="-1.60272">
        <ele>58</ele>
        <time>2022-10-22T14:14:50Z</time>
      </trkpt>
      <trkpt lat="47.12504" lon="-1.60291">
        <ele>58</ele>
        <time>2022-10-22T14:14:52Z</time>
      </trkpt>
      <trkpt lat="47.12508" lon="-1.60309">
        <ele>58</ele>
        <time>2022-10-22T14:14:54Z</time>
      </trkpt>
      <trkpt lat="47.12511" lon="-1.60328">
        <ele>58</ele>
        <time>2022-10-22T14:14:56Z</time>
      </trkpt>
      <trkpt lat="47.12515" lon="-1.60344">
        <ele>58</ele>
        <time>2022-10-22T14:14:58Z</time>
      </trkpt>
      <trkpt lat="47.12518" lon="-1.60361">
        <ele>59</ele>
        <time>2022-10-22T14:15:00Z</time>
      </trkpt>
      <trkpt lat="47.12521" lon="-1.60377">
        <ele>59</ele>
        <time>2022-10-22T14:15:02Z</time>
      </trkpt>
      <trkpt lat="47.12524" lon="-1.60393">
        <ele>59</ele>
        <time>2022-10-22T14:15:04Z</time>
      </trkpt>
      <trkpt lat="47.12527" lon="-1.60409">
        <ele>60</ele>
        <time>2022-10-22T14:15:06Z</time>
      </trkpt>
      <trkpt lat="47.1253" lon="-1.60425">
        <ele>60</ele>
        <time>2022-10-22T14:15:08Z</time>
      </trkpt>
      <trkpt lat="47.12533" lon="-1.60442">
        <ele>60</ele>
        <time>2022-10-22T14:15:10Z</time>
      </trkpt>
      <trkpt lat="47.12536" lon="-1.60459">
        <ele>60</ele>
        <time>2022-10-22T14:15:12Z</time>
      </trkpt>
      <trkpt lat="47.12539" lon="-1.60476">
        <ele>60</ele>
        <time>2022-10-22T14:15:14Z</time>
      </trkpt>
      <trkpt lat="47.12541" lon="-1.60493">
        <ele>60</ele>
        <time>2022-10-22T14:15:16Z</time>
      </trkpt>
      <trkpt lat="47.12543" lon="-1.6051">
        <ele>60</ele>
        <time>2022-10-22T14:15:18Z</time>
      </trkpt>
      <trkpt lat="47.12544" lon="-1.60527">
        <ele>61</ele>
        <time>2022-10-22T14:15:20Z</time>
      </trkpt>
      <trkpt lat="47.12545" lon="-1.60544">
        <ele>61</ele>
        <time>2022-10-22T14:15:22Z</time>
      </trkpt>
      <trkpt lat="47.12545" lon="-1.60561">
        <ele>60</ele>
        <time>2022-10-22T14:15:24Z</time>
      </trkpt>
      <trkpt lat="47.12546" lon="-1.60578">
        <ele>61</ele>
        <time>2022-10-22T14:15:26Z</time>
      </trkpt>
      <trkpt lat="47.12546" lon="-1.60595">
        <ele>61</ele>
        <time>2022-10-22T14:15:28Z</time>
      </trkpt>
      <trkpt lat="47.12546" lon="-1.60611">
        <ele>61</ele>
        <time>2022-10-22T14:15:30Z</time>
      </trkpt>
      <trkpt lat="47.12547" lon="-1.60628">
        <ele>61</ele>
        <time>2022-10-22T14:15:32Z</time>
      </trkpt>
      <trkpt lat="47.12547" lon="-1.60646">
        <ele>60</ele>
        <time>2022-10-22T14:15:34Z</time>
      </trkpt>
      <trkpt lat="47.12547" lon="-1.60663">
        <ele>61</ele>
        <time>2022-10-22T14:15:36Z</time>
      </trkpt>
      <trkpt lat="47.12548" lon="-1.6068">
        <ele>61</ele>
        <time>2022-10-22T14:15:38Z</time>
      </trkpt>
      <trkpt lat="47.12548" lon="-1.60699">
        <ele>60</ele>
        <time>2022-10-22T14:15:40Z</time>
      </trkpt>
      <trkpt lat="47.12548" lon="-1.60716">
        <ele>60</ele>
        <time>2022-10-22T14:15:42Z</time>
      </trkpt>
      <trkpt lat="47.12548" lon="-1.60734">
        <ele>61</ele>
        <time>2022-10-22T14:15:44Z</time>
      </trkpt>
      <trkpt lat="47.12547" lon="-1.60752">
        <ele>61</ele>
        <time>2022-10-22T14:15:46Z</time>
      </trkpt>
      <trkpt lat="47.12546" lon="-1.60769">
        <ele>61</ele>
        <time>2022-10-22T14:15:48Z</time>
      </trkpt>
      <trkpt lat="47.12544" lon="-1.60786">
        <ele>61</ele>
        <time>2022-10-22T14:15:50Z</time>
      </trkpt>
      <trkpt lat="47.12543" lon="-1.60803">
        <ele>62</ele>
        <time>2022-10-22T14:15:52Z</time>
      </trkpt>
      <trkpt lat="47.12542" lon="-1.60819">
        <ele>62</ele>
        <time>2022-10-22T14:15:54Z</time>
      </trkpt>
      <trkpt lat="47.1254" lon="-1.60834">
        <ele>62</ele>
        <time>2022-10-22T14:15:56Z</time>
      </trkpt>
      <trkpt lat="47.12545" lon="-1.60846">
        <ele>63</ele>
        <time>2022-10-22T14:15:58Z</time>
      </trkpt>
      <trkpt lat="47.12555" lon="-1.60844">
        <ele>64</ele>
        <time>2022-10-22T14:16:00Z</time>
      </trkpt>
      <trkpt lat="47.12565" lon="-1.60839">
        <ele>64</ele>
        <time>2022-10-22T14:16:02Z</time>
      </trkpt>
      <trkpt lat="47.12576" lon="-1.60835">
        <ele>64</ele>
        <time>2022-10-22T14:16:04Z</time>
      </trkpt>
      <trkpt lat="47.12586" lon="-1.60831">
        <ele>65</ele>
        <time>2022-10-22T14:16:06Z</time>
      </trkpt>
      <trkpt lat="47.12597" lon="-1.60827">
        <ele>65</ele>
        <time>2022-10-22T14:16:08Z</time>
      </trkpt>
      <trkpt lat="47.12609" lon="-1.60824">
        <ele>65</ele>
        <time>2022-10-22T14:16:10Z</time>
      </trkpt>
      <trkpt lat="47.12621" lon="-1.60821">
        <ele>65</ele>
        <time>2022-10-22T14:16:12Z</time>
      </trkpt>
      <trkpt lat="47.12632" lon="-1.60817">
        <ele>65</ele>
        <time>2022-10-22T14:16:14Z</time>
      </trkpt>
      <trkpt lat="47.12643" lon="-1.60813">
        <ele>66</ele>
        <time>2022-10-22T14:16:16Z</time>
      </trkpt>
      <trkpt lat="47.12654" lon="-1.6081">
        <ele>66</ele>
        <time>2022-10-22T14:16:18Z</time>
      </trkpt>
      <trkpt lat="47.12665" lon="-1.60806">
        <ele>66</ele>
        <time>2022-10-22T14:16:20Z</time>
      </trkpt>
      <trkpt lat="47.12677" lon="-1.60803">
        <ele>66</ele>
        <time>2022-10-22T14:16:22Z</time>
      </trkpt>
      <trkpt lat="47.12688" lon="-1.60799">
        <ele>66</ele>
        <time>2022-10-22T14:16:24Z</time>
      </trkpt>
      <trkpt lat="47.12698" lon="-1.60795">
        <ele>66</ele>
        <time>2022-10-22T14:16:26Z</time>
      </trkpt>
      <trkpt lat="47.12708" lon="-1.6079">
        <ele>66</ele>
        <time>2022-10-22T14:16:28Z</time>
      </trkpt>
      <trkpt lat="47.12719" lon="-1.60787">
        <ele>66</ele>
        <time>2022-10-22T14:16:30Z</time>
      </trkpt>
      <trkpt lat="47.12726" lon="-1.60798">
        <ele>66</ele>
        <time>2022-10-22T14:16:32Z</time>
      </trkpt>
      <trkpt lat="47.12724" lon="-1.60813">
        <ele>66</ele>
        <time>2022-10-22T14:16:34Z</time>
      </trkpt>
      <trkpt lat="47.1272" lon="-1.60829">
        <ele>66</ele>
        <time>2022-10-22T14:16:36Z</time>
      </trkpt>
      <trkpt lat="47.12715" lon="-1.60845">
        <ele>66</ele>
        <time>2022-10-22T14:16:38Z</time>
      </trkpt>
      <trkpt lat="47.12709" lon="-1.60861">
        <ele>65</ele>
        <time>2022-10-22T14:16:40Z</time>
      </trkpt>
      <trkpt lat="47.12705" lon="-1.60877">
        <ele>66</ele>
        <time>2022-10-22T14:16:42Z</time>
      </trkpt>
      <trkpt lat="47.12701" lon="-1.60894">
        <ele>67</ele>
        <time>2022-10-22T14:16:44Z</time>
      </trkpt>
      <trkpt lat="47.12698" lon="-1.6091">
        <ele>66</ele>
        <time>2022-10-22T14:16:46Z</time>
      </trkpt>
      <trkpt lat="47.12697" lon="-1.60927">
        <ele>67</ele>
        <time>2022-10-22T14:16:48Z</time>
      </trkpt>
      <trkpt lat="47.12696" lon="-1.60943">
        <ele>67</ele>
        <time>2022-10-22T14:16:50Z</time>
      </trkpt>
      <trkpt lat="47.12695" lon="-1.6096">
        <ele>67</ele>
        <time>2022-10-22T14:16:52Z</time>
      </trkpt>
      <trkpt lat="47.12694" lon="-1.60978">
        <ele>67</ele>
        <time>2022-10-22T14:16:54Z</time>
      </trkpt>
      <trkpt lat="47.12693" lon="-1.60995">
        <ele>67</ele>
        <time>2022-10-22T14:16:56Z</time>
      </trkpt>
      <trkpt lat="47.12693" lon="-1.61012">
        <ele>67</ele>
        <time>2022-10-22T14:16:58Z</time>
      </trkpt>
      <trkpt lat="47.12692" lon="-1.61029">
        <ele>67</ele>
        <time>2022-10-22T14:17:00Z</time>
      </trkpt>
      <trkpt lat="47.12691" lon="-1.61046">
        <ele>66</ele>
        <time>2022-10-22T14:17:02Z</time>
      </trkpt>
      <trkpt lat="47.12691" lon="-1.61063">
        <ele>66</ele>
        <time>2022-10-22T14:17:04Z</time>
      </trkpt>
      <trkpt lat="47.1269" lon="-1.61081">
        <ele>66</ele>
        <time>2022-10-22T14:17:06Z</time>
      </trkpt>
      <trkpt lat="47.12689" lon="-1.61098">
        <ele>65</ele>
        <time>2022-10-22T14:17:08Z</time>
      </trkpt>
      <trkpt lat="47.12687" lon="-1.61115">
        <ele>65</ele>
        <time>2022-10-22T14:17:10Z</time>
      </trkpt>
      <trkpt lat="47.12685" lon="-1.61132">
        <ele>65</ele>
        <time>2022-10-22T14:17:12Z</time>
      </trkpt>
      <trkpt lat="47.12683" lon="-1.6115">
        <ele>65</ele>
        <time>2022-10-22T14:17:14Z</time>
      </trkpt>
      <trkpt lat="47.1268" lon="-1.61167">
        <ele>65</ele>
        <time>2022-10-22T14:17:16Z</time>
      </trkpt>
      <trkpt lat="47.12677" lon="-1.61183">
        <ele>65</ele>
        <time>2022-10-22T14:17:18Z</time>
      </trkpt>
      <trkpt lat="47.12674" lon="-1.612">
        <ele>64</ele>
        <time>2022-10-22T14:17:20Z</time>
      </trkpt>
      <trkpt lat="47.12673" lon="-1.61217">
        <ele>64</ele>
        <time>2022-10-22T14:17:22Z</time>
      </trkpt>
      <trkpt lat="47.12671" lon="-1.61234">
        <ele>64</ele>
        <time>2022-10-22T14:17:24Z</time>
      </trkpt>
      <trkpt lat="47.12671" lon="-1.61252">
        <ele>63</ele>
        <time>2022-10-22T14:17:26Z</time>
      </trkpt>
      <trkpt lat="47.12675" lon="-1.61269">
        <ele>64</ele>
        <time>2022-10-22T14:17:28Z</time>
      </trkpt>
      <trkpt lat="47.12679" lon="-1.61285">
        <ele>64</ele>
        <time>2022-10-22T14:17:30Z</time>
      </trkpt>
      <trkpt lat="47.12684" lon="-1.61302">
        <ele>64</ele>
        <time>2022-10-22T14:17:32Z</time>
      </trkpt>
      <trkpt lat="47.12689" lon="-1.6132">
        <ele>64</ele>
        <time>2022-10-22T14:17:34Z</time>
      </trkpt>
      <trkpt lat="47.12694" lon="-1.61338">
        <ele>64</ele>
        <time>2022-10-22T14:17:36Z</time>
      </trkpt>
      <trkpt lat="47.12699" lon="-1.61354">
        <ele>64</ele>
        <time>2022-10-22T14:17:38Z</time>
      </trkpt>
      <trkpt lat="47.12705" lon="-1.6137">
        <ele>65</ele>
        <time>2022-10-22T14:17:40Z</time>
      </trkpt>
      <trkpt lat="47.12711" lon="-1.61387">
        <ele>65</ele>
        <time>2022-10-22T14:17:42Z</time>
      </trkpt>
      <trkpt lat="47.12718" lon="-1.61404">
        <ele>65</ele>
        <time>2022-10-22T14:17:44Z</time>
      </trkpt>
      <trkpt lat="47.12726" lon="-1.6142">
        <ele>65</ele>
        <time>2022-10-22T14:17:46Z</time>
      </trkpt>
      <trkpt lat="47.12732" lon="-1.61435">
        <ele>66</ele>
        <time>2022-10-22T14:17:48Z</time>
      </trkpt>
      <trkpt lat="47.12739" lon="-1.61451">
        <ele>66</ele>
        <time>2022-10-22T14:17:50Z</time>
      </trkpt>
      <trkpt lat="47.12746" lon="-1.61466">
        <ele>66</ele>
        <time>2022-10-22T14:17:52Z</time>
      </trkpt>
      <trkpt lat="47.12753" lon="-1.61481">
        <ele>66</ele>
        <time>2022-10-22T14:17:54Z</time>
      </trkpt>
      <trkpt lat="47.1276" lon="-1.61498">
        <ele>65</ele>
        <time>2022-10-22T14:17:56Z</time>
      </trkpt>
      <trkpt lat="47.12767" lon="-1.61513">
        <ele>65</ele>
        <time>2022-10-22T14:17:58Z</time>
      </trkpt>
      <trkpt lat="47.12773" lon="-1.61531">
        <ele>64</ele>
        <time>2022-10-22T14:18:00Z</time>
      </trkpt>
      <trkpt lat="47.1278" lon="-1.61546">
        <ele>64</ele>
        <time>2022-10-22T14:18:02Z</time>
      </trkpt>
      <trkpt lat="47.12786" lon="-1.61562">
        <ele>64</ele>
        <time>2022-10-22T14:18:04Z</time>
      </trkpt>
      <trkpt lat="47.12792" lon="-1.61578">
        <ele>63</ele>
        <time>2022-10-22T14:18:06Z</time>
      </trkpt>
      <trkpt lat="47.12798" lon="-1.61594">
        <ele>63</ele>
        <time>2022-10-22T14:18:08Z</time>
      </trkpt>
      <trkpt lat="47.12804" lon="-1.61609">
        <ele>63</ele>
        <time>2022-10-22T14:18:10Z</time>
      </trkpt>
      <trkpt lat="47.12809" lon="-1.61624">
        <ele>62</ele>
        <time>2022-10-22T14:18:12Z</time>
      </trkpt>
      <trkpt lat="47.12814" lon="-1.61636">
        <ele>62</ele>
        <time>2022-10-22T14:18:14Z</time>
      </trkpt>
      <trkpt lat="47.1282" lon="-1.61648">
        <ele>62</ele>
        <time>2022-10-22T14:18:18Z</time>
      </trkpt>
      <trkpt lat="47.12826" lon="-1.61662">
        <ele>63</ele>
        <time>2022-10-22T14:18:21Z</time>
      </trkpt>
      <trkpt lat="47.12831" lon="-1.61676">
        <ele>63</ele>
        <time>2022-10-22T14:18:23Z</time>
      </trkpt>
      <trkpt lat="47.12837" lon="-1.61689">
        <ele>63</ele>
        <time>2022-10-22T14:18:25Z</time>
      </trkpt>
      <trkpt lat="47.12843" lon="-1.61703">
        <ele>63</ele>
        <time>2022-10-22T14:18:27Z</time>
      </trkpt>
      <trkpt lat="47.12848" lon="-1.61717">
        <ele>63</ele>
        <time>2022-10-22T14:18:29Z</time>
      </trkpt>
      <trkpt lat="47.12854" lon="-1.61733">
        <ele>63</ele>
        <time>2022-10-22T14:18:31Z</time>
      </trkpt>
      <trkpt lat="47.12862" lon="-1.61749">
        <ele>63</ele>
        <time>2022-10-22T14:18:33Z</time>
      </trkpt>
      <trkpt lat="47.12869" lon="-1.61764">
        <ele>63</ele>
        <time>2022-10-22T14:18:35Z</time>
      </trkpt>
      <trkpt lat="47.12876" lon="-1.61779">
        <ele>62</ele>
        <time>2022-10-22T14:18:37Z</time>
      </trkpt>
      <trkpt lat="47.12883" lon="-1.61796">
        <ele>61</ele>
        <time>2022-10-22T14:18:39Z</time>
      </trkpt>
      <trkpt lat="47.12889" lon="-1.61814">
        <ele>61</ele>
        <time>2022-10-22T14:18:41Z</time>
      </trkpt>
      <trkpt lat="47.12896" lon="-1.61832">
        <ele>60</ele>
        <time>2022-10-22T14:18:43Z</time>
      </trkpt>
      <trkpt lat="47.12901" lon="-1.6185">
        <ele>60</ele>
        <time>2022-10-22T14:18:45Z</time>
      </trkpt>
      <trkpt lat="47.12906" lon="-1.61867">
        <ele>60</ele>
        <time>2022-10-22T14:18:47Z</time>
      </trkpt>
      <trkpt lat="47.12909" lon="-1.61885">
        <ele>60</ele>
        <time>2022-10-22T14:18:49Z</time>
      </trkpt>
      <trkpt lat="47.12911" lon="-1.61903">
        <ele>60</ele>
        <time>2022-10-22T14:18:51Z</time>
      </trkpt>
      <trkpt lat="47.12914" lon="-1.61921">
        <ele>61</ele>
        <time>2022-10-22T14:18:53Z</time>
      </trkpt>
      <trkpt lat="47.12917" lon="-1.61939">
        <ele>60</ele>
        <time>2022-10-22T14:18:55Z</time>
      </trkpt>
      <trkpt lat="47.1292" lon="-1.61955">
        <ele>61</ele>
        <time>2022-10-22T14:18:57Z</time>
      </trkpt>
      <trkpt lat="47.12925" lon="-1.61973">
        <ele>61</ele>
        <time>2022-10-22T14:18:59Z</time>
      </trkpt>
      <trkpt lat="47.12928" lon="-1.6199">
        <ele>61</ele>
        <time>2022-10-22T14:19:01Z</time>
      </trkpt>
      <trkpt lat="47.1293" lon="-1.62007">
        <ele>61</ele>
        <time>2022-10-22T14:19:03Z</time>
      </trkpt>
      <trkpt lat="47.12933" lon="-1.62025">
        <ele>62</ele>
        <time>2022-10-22T14:19:05Z</time>
      </trkpt>
      <trkpt lat="47.12939" lon="-1.6204">
        <ele>62</ele>
        <time>2022-10-22T14:19:07Z</time>
      </trkpt>
      <trkpt lat="47.12946" lon="-1.62054">
        <ele>62</ele>
        <time>2022-10-22T14:19:09Z</time>
      </trkpt>
      <trkpt lat="47.12953" lon="-1.62068">
        <ele>61</ele>
        <time>2022-10-22T14:19:11Z</time>
      </trkpt>
      <trkpt lat="47.12961" lon="-1.62082">
        <ele>62</ele>
        <time>2022-10-22T14:19:13Z</time>
      </trkpt>
      <trkpt lat="47.12968" lon="-1.62096">
        <ele>62</ele>
        <time>2022-10-22T14:19:15Z</time>
      </trkpt>
      <trkpt lat="47.12976" lon="-1.62108">
        <ele>62</ele>
        <time>2022-10-22T14:19:17Z</time>
      </trkpt>
      <trkpt lat="47.12984" lon="-1.62121">
        <ele>62</ele>
        <time>2022-10-22T14:19:19Z</time>
      </trkpt>
      <trkpt lat="47.12992" lon="-1.62134">
        <ele>61</ele>
        <time>2022-10-22T14:19:21Z</time>
      </trkpt>
      <trkpt lat="47.12999" lon="-1.62147">
        <ele>61</ele>
        <time>2022-10-22T14:19:23Z</time>
      </trkpt>
      <trkpt lat="47.13008" lon="-1.6216">
        <ele>61</ele>
        <time>2022-10-22T14:19:25Z</time>
      </trkpt>
      <trkpt lat="47.13015" lon="-1.62173">
        <ele>61</ele>
        <time>2022-10-22T14:19:27Z</time>
      </trkpt>
      <trkpt lat="47.13023" lon="-1.62185">
        <ele>62</ele>
        <time>2022-10-22T14:19:29Z</time>
      </trkpt>
      <trkpt lat="47.13031" lon="-1.62198">
        <ele>62</ele>
        <time>2022-10-22T14:19:31Z</time>
      </trkpt>
      <trkpt lat="47.13039" lon="-1.62209">
        <ele>62</ele>
        <time>2022-10-22T14:19:33Z</time>
      </trkpt>
      <trkpt lat="47.13046" lon="-1.62221">
        <ele>62</ele>
        <time>2022-10-22T14:19:35Z</time>
      </trkpt>
      <trkpt lat="47.13054" lon="-1.62232">
        <ele>63</ele>
        <time>2022-10-22T14:19:37Z</time>
      </trkpt>
      <trkpt lat="47.13062" lon="-1.62244">
        <ele>63</ele>
        <time>2022-10-22T14:19:39Z</time>
      </trkpt>
      <trkpt lat="47.1307" lon="-1.62256">
        <ele>63</ele>
        <time>2022-10-22T14:19:41Z</time>
      </trkpt>
      <trkpt lat="47.13078" lon="-1.62269">
        <ele>63</ele>
        <time>2022-10-22T14:19:43Z</time>
      </trkpt>
      <trkpt lat="47.13085" lon="-1.6228">
        <ele>63</ele>
        <time>2022-10-22T14:19:45Z</time>
      </trkpt>
      <trkpt lat="47.13091" lon="-1.62289">
        <ele>63</ele>
        <time>2022-10-22T14:19:47Z</time>
      </trkpt>
      <trkpt lat="47.131" lon="-1.62302">
        <ele>64</ele>
        <time>2022-10-22T14:19:50Z</time>
      </trkpt>
      <trkpt lat="47.13111" lon="-1.623">
        <ele>65</ele>
        <time>2022-10-22T14:19:53Z</time>
      </trkpt>
      <trkpt lat="47.13117" lon="-1.62287">
        <ele>66</ele>
        <time>2022-10-22T14:19:55Z</time>
      </trkpt>
      <trkpt lat="47.13123" lon="-1.62272">
        <ele>66</ele>
        <time>2022-10-22T14:19:57Z</time>
      </trkpt>
      <trkpt lat="47.13129" lon="-1.62259">
        <ele>66</ele>
        <time>2022-10-22T14:19:59Z</time>
      </trkpt>
      <trkpt lat="47.13136" lon="-1.62245">
        <ele>66</ele>
        <time>2022-10-22T14:20:01Z</time>
      </trkpt>
      <trkpt lat="47.13142" lon="-1.62231">
        <ele>66</ele>
        <time>2022-10-22T14:20:03Z</time>
      </trkpt>
      <trkpt lat="47.13148" lon="-1.62218">
        <ele>66</ele>
        <time>2022-10-22T14:20:05Z</time>
      </trkpt>
      <trkpt lat="47.13155" lon="-1.62205">
        <ele>66</ele>
        <time>2022-10-22T14:20:07Z</time>
      </trkpt>
      <trkpt lat="47.1316" lon="-1.62192">
        <ele>66</ele>
        <time>2022-10-22T14:20:09Z</time>
      </trkpt>
      <trkpt lat="47.13167" lon="-1.6218">
        <ele>66</ele>
        <time>2022-10-22T14:20:11Z</time>
      </trkpt>
      <trkpt lat="47.13173" lon="-1.62167">
        <ele>66</ele>
        <time>2022-10-22T14:20:13Z</time>
      </trkpt>
      <trkpt lat="47.1318" lon="-1.62154">
        <ele>67</ele>
        <time>2022-10-22T14:20:15Z</time>
      </trkpt>
      <trkpt lat="47.13187" lon="-1.62141">
        <ele>67</ele>
        <time>2022-10-22T14:20:17Z</time>
      </trkpt>
      <trkpt lat="47.13194" lon="-1.62129">
        <ele>67</ele>
        <time>2022-10-22T14:20:19Z</time>
      </trkpt>
      <trkpt lat="47.13201" lon="-1.62117">
        <ele>67</ele>
        <time>2022-10-22T14:20:21Z</time>
      </trkpt>
      <trkpt lat="47.13207" lon="-1.62105">
        <ele>68</ele>
        <time>2022-10-22T14:20:23Z</time>
      </trkpt>
      <trkpt lat="47.13214" lon="-1.62093">
        <ele>68</ele>
        <time>2022-10-22T14:20:25Z</time>
      </trkpt>
      <trkpt lat="47.13221" lon="-1.62081">
        <ele>68</ele>
        <time>2022-10-22T14:20:27Z</time>
      </trkpt>
      <trkpt lat="47.13229" lon="-1.62069">
        <ele>68</ele>
        <time>2022-10-22T14:20:29Z</time>
      </trkpt>
      <trkpt lat="47.13237" lon="-1.62057">
        <ele>68</ele>
        <time>2022-10-22T14:20:31Z</time>
      </trkpt>
      <trkpt lat="47.13245" lon="-1.62046">
        <ele>68</ele>
        <time>2022-10-22T14:20:33Z</time>
      </trkpt>
      <trkpt lat="47.13253" lon="-1.62035">
        <ele>68</ele>
        <time>2022-10-22T14:20:35Z</time>
      </trkpt>
      <trkpt lat="47.13261" lon="-1.62025">
        <ele>68</ele>
        <time>2022-10-22T14:20:37Z</time>
      </trkpt>
      <trkpt lat="47.1327" lon="-1.62016">
        <ele>69</ele>
        <time>2022-10-22T14:20:39Z</time>
      </trkpt>
      <trkpt lat="47.13279" lon="-1.62008">
        <ele>69</ele>
        <time>2022-10-22T14:20:41Z</time>
      </trkpt>
      <trkpt lat="47.13289" lon="-1.62">
        <ele>69</ele>
        <time>2022-10-22T14:20:43Z</time>
      </trkpt>
      <trkpt lat="47.13298" lon="-1.61993">
        <ele>69</ele>
        <time>2022-10-22T14:20:45Z</time>
      </trkpt>
      <trkpt lat="47.13307" lon="-1.61986">
        <ele>69</ele>
        <time>2022-10-22T14:20:47Z</time>
      </trkpt>
      <trkpt lat="47.13316" lon="-1.61979">
        <ele>70</ele>
        <time>2022-10-22T14:20:49Z</time>
      </trkpt>
      <trkpt lat="47.13326" lon="-1.61972">
        <ele>70</ele>
        <time>2022-10-22T14:20:51Z</time>
      </trkpt>
      <trkpt lat="47.13335" lon="-1.61965">
        <ele>70</ele>
        <time>2022-10-22T14:20:53Z</time>
      </trkpt>
      <trkpt lat="47.13344" lon="-1.61958">
        <ele>70</ele>
        <time>2022-10-22T14:20:55Z</time>
      </trkpt>
      <trkpt lat="47.13353" lon="-1.61951">
        <ele>70</ele>
        <time>2022-10-22T14:20:57Z</time>
      </trkpt>
      <trkpt lat="47.13363" lon="-1.61943">
        <ele>70</ele>
        <time>2022-10-22T14:20:59Z</time>
      </trkpt>
      <trkpt lat="47.13372" lon="-1.61936">
        <ele>70</ele>
        <time>2022-10-22T14:21:01Z</time>
      </trkpt>
      <trkpt lat="47.13382" lon="-1.61928">
        <ele>70</ele>
        <time>2022-10-22T14:21:03Z</time>
      </trkpt>
      <trkpt lat="47.13391" lon="-1.61921">
        <ele>71</ele>
        <time>2022-10-22T14:21:05Z</time>
      </trkpt>
      <trkpt lat="47.13401" lon="-1.61913">
        <ele>71</ele>
        <time>2022-10-22T14:21:07Z</time>
      </trkpt>
      <trkpt lat="47.13412" lon="-1.61905">
        <ele>71</ele>
        <time>2022-10-22T14:21:09Z</time>
      </trkpt>
      <trkpt lat="47.13422" lon="-1.61898">
        <ele>70</ele>
        <time>2022-10-22T14:21:11Z</time>
      </trkpt>
      <trkpt lat="47.13432" lon="-1.6189">
        <ele>71</ele>
        <time>2022-10-22T14:21:13Z</time>
      </trkpt>
      <trkpt lat="47.13443" lon="-1.61882">
        <ele>70</ele>
        <time>2022-10-22T14:21:15Z</time>
      </trkpt>
      <trkpt lat="47.13453" lon="-1.61874">
        <ele>71</ele>
        <time>2022-10-22T14:21:17Z</time>
      </trkpt>
      <trkpt lat="47.13463" lon="-1.61867">
        <ele>71</ele>
        <time>2022-10-22T14:21:19Z</time>
      </trkpt>
      <trkpt lat="47.13474" lon="-1.6186">
        <ele>70</ele>
        <time>2022-10-22T14:21:21Z</time>
      </trkpt>
      <trkpt lat="47.13485" lon="-1.61853">
        <ele>70</ele>
        <time>2022-10-22T14:21:23Z</time>
      </trkpt>
      <trkpt lat="47.13495" lon="-1.61847">
        <ele>69</ele>
        <time>2022-10-22T14:21:25Z</time>
      </trkpt>
      <trkpt lat="47.13506" lon="-1.61841">
        <ele>69</ele>
        <time>2022-10-22T14:21:27Z</time>
      </trkpt>
      <trkpt lat="47.13517" lon="-1.61836">
        <ele>68</ele>
        <time>2022-10-22T14:21:29Z</time>
      </trkpt>
      <trkpt lat="47.13528" lon="-1.61831">
        <ele>68</ele>
        <time>2022-10-22T14:21:31Z</time>
      </trkpt>
      <trkpt lat="47.1354" lon="-1.61826">
        <ele>69</ele>
        <time>2022-10-22T14:21:33Z</time>
      </trkpt>
      <trkpt lat="47.13551" lon="-1.61821">
        <ele>69</ele>
        <time>2022-10-22T14:21:35Z</time>
      </trkpt>
      <trkpt lat="47.13562" lon="-1.61816">
        <ele>69</ele>
        <time>2022-10-22T14:21:37Z</time>
      </trkpt>
      <trkpt lat="47.13572" lon="-1.61809">
        <ele>70</ele>
        <time>2022-10-22T14:21:39Z</time>
      </trkpt>
      <trkpt lat="47.13584" lon="-1.61807">
        <ele>70</ele>
        <time>2022-10-22T14:21:41Z</time>
      </trkpt>
      <trkpt lat="47.13597" lon="-1.61804">
        <ele>70</ele>
        <time>2022-10-22T14:21:43Z</time>
      </trkpt>
      <trkpt lat="47.13609" lon="-1.61799">
        <ele>71</ele>
        <time>2022-10-22T14:21:45Z</time>
      </trkpt>
      <trkpt lat="47.13619" lon="-1.61794">
        <ele>70</ele>
        <time>2022-10-22T14:21:47Z</time>
      </trkpt>
      <trkpt lat="47.13631" lon="-1.61788">
        <ele>70</ele>
        <time>2022-10-22T14:21:49Z</time>
      </trkpt>
      <trkpt lat="47.13643" lon="-1.61784">
        <ele>70</ele>
        <time>2022-10-22T14:21:51Z</time>
      </trkpt>
      <trkpt lat="47.13654" lon="-1.61777">
        <ele>70</ele>
        <time>2022-10-22T14:21:53Z</time>
      </trkpt>
      <trkpt lat="47.13665" lon="-1.61771">
        <ele>70</ele>
        <time>2022-10-22T14:21:55Z</time>
      </trkpt>
      <trkpt lat="47.13676" lon="-1.61765">
        <ele>70</ele>
        <time>2022-10-22T14:21:57Z</time>
      </trkpt>
      <trkpt lat="47.13685" lon="-1.61759">
        <ele>70</ele>
        <time>2022-10-22T14:21:59Z</time>
      </trkpt>
      <trkpt lat="47.13696" lon="-1.61752">
        <ele>71</ele>
        <time>2022-10-22T14:22:01Z</time>
      </trkpt>
      <trkpt lat="47.13705" lon="-1.61744">
        <ele>70</ele>
        <time>2022-10-22T14:22:03Z</time>
      </trkpt>
      <trkpt lat="47.13715" lon="-1.61737">
        <ele>70</ele>
        <time>2022-10-22T14:22:05Z</time>
      </trkpt>
      <trkpt lat="47.13723" lon="-1.6173">
        <ele>71</ele>
        <time>2022-10-22T14:22:07Z</time>
      </trkpt>
      <trkpt lat="47.13731" lon="-1.61723">
        <ele>70</ele>
        <time>2022-10-22T14:22:09Z</time>
      </trkpt>
      <trkpt lat="47.13743" lon="-1.61723">
        <ele>70</ele>
        <time>2022-10-22T14:22:12Z</time>
      </trkpt>
      <trkpt lat="47.13744" lon="-1.61736">
        <ele>70</ele>
        <time>2022-10-22T14:22:14Z</time>
      </trkpt>
      <trkpt lat="47.13742" lon="-1.61751">
        <ele>70</ele>
        <time>2022-10-22T14:22:16Z</time>
      </trkpt>
      <trkpt lat="47.13739" lon="-1.61766">
        <ele>70</ele>
        <time>2022-10-22T14:22:18Z</time>
      </trkpt>
      <trkpt lat="47.13736" lon="-1.61782">
        <ele>70</ele>
        <time>2022-10-22T14:22:20Z</time>
      </trkpt>
      <trkpt lat="47.13732" lon="-1.61798">
        <ele>70</ele>
        <time>2022-10-22T14:22:22Z</time>
      </trkpt>
      <trkpt lat="47.1373" lon="-1.61814">
        <ele>69</ele>
        <time>2022-10-22T14:22:24Z</time>
      </trkpt>
      <trkpt lat="47.13728" lon="-1.61831">
        <ele>69</ele>
        <time>2022-10-22T14:22:26Z</time>
      </trkpt>
      <trkpt lat="47.13727" lon="-1.61848">
        <ele>69</ele>
        <time>2022-10-22T14:22:28Z</time>
      </trkpt>
      <trkpt lat="47.13726" lon="-1.61865">
        <ele>69</ele>
        <time>2022-10-22T14:22:30Z</time>
      </trkpt>
      <trkpt lat="47.13725" lon="-1.61881">
        <ele>69</ele>
        <time>2022-10-22T14:22:32Z</time>
      </trkpt>
      <trkpt lat="47.13724" lon="-1.61896">
        <ele>69</ele>
        <time>2022-10-22T14:22:34Z</time>
      </trkpt>
      <trkpt lat="47.13723" lon="-1.61913">
        <ele>69</ele>
        <time>2022-10-22T14:22:36Z</time>
      </trkpt>
      <trkpt lat="47.13723" lon="-1.6193">
        <ele>69</ele>
        <time>2022-10-22T14:22:38Z</time>
      </trkpt>
      <trkpt lat="47.13724" lon="-1.61947">
        <ele>69</ele>
        <time>2022-10-22T14:22:40Z</time>
      </trkpt>
      <trkpt lat="47.13726" lon="-1.61964">
        <ele>69</ele>
        <time>2022-10-22T14:22:42Z</time>
      </trkpt>
      <trkpt lat="47.13728" lon="-1.61981">
        <ele>69</ele>
        <time>2022-10-22T14:22:44Z</time>
      </trkpt>
      <trkpt lat="47.13731" lon="-1.61997">
        <ele>69</ele>
        <time>2022-10-22T14:22:46Z</time>
      </trkpt>
      <trkpt lat="47.13733" lon="-1.62013">
        <ele>69</ele>
        <time>2022-10-22T14:22:48Z</time>
      </trkpt>
      <trkpt lat="47.13735" lon="-1.6203">
        <ele>69</ele>
        <time>2022-10-22T14:22:50Z</time>
      </trkpt>
      <trkpt lat="47.13736" lon="-1.62046">
        <ele>69</ele>
        <time>2022-10-22T14:22:52Z</time>
      </trkpt>
      <trkpt lat="47.13739" lon="-1.62063">
        <ele>69</ele>
        <time>2022-10-22T14:22:54Z</time>
      </trkpt>
      <trkpt lat="47.13741" lon="-1.62079">
        <ele>69</ele>
        <time>2022-10-22T14:22:56Z</time>
      </trkpt>
      <trkpt lat="47.13743" lon="-1.62096">
        <ele>69</ele>
        <time>2022-10-22T14:22:58Z</time>
      </trkpt>
      <trkpt lat="47.13746" lon="-1.62112">
        <ele>69</ele>
        <time>2022-10-22T14:23:00Z</time>
      </trkpt>
      <trkpt lat="47.13748" lon="-1.62128">
        <ele>69</ele>
        <time>2022-10-22T14:23:02Z</time>
      </trkpt>
      <trkpt lat="47.13751" lon="-1.62144">
        <ele>69</ele>
        <time>2022-10-22T14:23:04Z</time>
      </trkpt>
      <trkpt lat="47.13753" lon="-1.62161">
        <ele>69</ele>
        <time>2022-10-22T14:23:06Z</time>
      </trkpt>
      <trkpt lat="47.13755" lon="-1.62177">
        <ele>69</ele>
        <time>2022-10-22T14:23:08Z</time>
      </trkpt>
      <trkpt lat="47.13757" lon="-1.62193">
        <ele>69</ele>
        <time>2022-10-22T14:23:10Z</time>
      </trkpt>
      <trkpt lat="47.13759" lon="-1.6221">
        <ele>69</ele>
        <time>2022-10-22T14:23:12Z</time>
      </trkpt>
      <trkpt lat="47.1376" lon="-1.62227">
        <ele>69</ele>
        <time>2022-10-22T14:23:14Z</time>
      </trkpt>
      <trkpt lat="47.13762" lon="-1.62244">
        <ele>69</ele>
        <time>2022-10-22T14:23:16Z</time>
      </trkpt>
      <trkpt lat="47.13764" lon="-1.6226">
        <ele>69</ele>
        <time>2022-10-22T14:23:18Z</time>
      </trkpt>
      <trkpt lat="47.13766" lon="-1.62277">
        <ele>69</ele>
        <time>2022-10-22T14:23:20Z</time>
      </trkpt>
      <trkpt lat="47.13767" lon="-1.62294">
        <ele>69</ele>
        <time>2022-10-22T14:23:22Z</time>
      </trkpt>
      <trkpt lat="47.13767" lon="-1.62311">
        <ele>69</ele>
        <time>2022-10-22T14:23:24Z</time>
      </trkpt>
      <trkpt lat="47.13767" lon="-1.62329">
        <ele>68</ele>
        <time>2022-10-22T14:23:26Z</time>
      </trkpt>
      <trkpt lat="47.13766" lon="-1.62346">
        <ele>68</ele>
        <time>2022-10-22T14:23:28Z</time>
      </trkpt>
      <trkpt lat="47.13765" lon="-1.62365">
        <ele>67</ele>
        <time>2022-10-22T14:23:30Z</time>
      </trkpt>
      <trkpt lat="47.13764" lon="-1.62385">
        <ele>66</ele>
        <time>2022-10-22T14:23:32Z</time>
      </trkpt>
      <trkpt lat="47.13764" lon="-1.62406">
        <ele>67</ele>
        <time>2022-10-22T14:23:34Z</time>
      </trkpt>
      <trkpt lat="47.13764" lon="-1.62427">
        <ele>66</ele>
        <time>2022-10-22T14:23:36Z</time>
      </trkpt>
      <trkpt lat="47.13766" lon="-1.62449">
        <ele>66</ele>
        <time>2022-10-22T14:23:38Z</time>
      </trkpt>
      <trkpt lat="47.13768" lon="-1.62469">
        <ele>66</ele>
        <time>2022-10-22T14:23:40Z</time>
      </trkpt>
      <trkpt lat="47.1377" lon="-1.6249">
        <ele>66</ele>
        <time>2022-10-22T14:23:42Z</time>
      </trkpt>
      <trkpt lat="47.13772" lon="-1.62509">
        <ele>67</ele>
        <time>2022-10-22T14:23:44Z</time>
      </trkpt>
      <trkpt lat="47.13773" lon="-1.62527">
        <ele>67</ele>
        <time>2022-10-22T14:23:46Z</time>
      </trkpt>
      <trkpt lat="47.13775" lon="-1.62545">
        <ele>68</ele>
        <time>2022-10-22T14:23:48Z</time>
      </trkpt>
      <trkpt lat="47.13777" lon="-1.62564">
        <ele>67</ele>
        <time>2022-10-22T14:23:50Z</time>
      </trkpt>
      <trkpt lat="47.13779" lon="-1.62581">
        <ele>68</ele>
        <time>2022-10-22T14:23:52Z</time>
      </trkpt>
      <trkpt lat="47.1378" lon="-1.62599">
        <ele>68</ele>
        <time>2022-10-22T14:23:54Z</time>
      </trkpt>
      <trkpt lat="47.13781" lon="-1.62615">
        <ele>68</ele>
        <time>2022-10-22T14:23:56Z</time>
      </trkpt>
      <trkpt lat="47.13783" lon="-1.62631">
        <ele>68</ele>
        <time>2022-10-22T14:23:58Z</time>
      </trkpt>
      <trkpt lat="47.13784" lon="-1.62648">
        <ele>68</ele>
        <time>2022-10-22T14:24:00Z</time>
      </trkpt>
      <trkpt lat="47.13784" lon="-1.62665">
        <ele>68</ele>
        <time>2022-10-22T14:24:02Z</time>
      </trkpt>
      <trkpt lat="47.13785" lon="-1.62681">
        <ele>68</ele>
        <time>2022-10-22T14:24:04Z</time>
      </trkpt>
      <trkpt lat="47.13784" lon="-1.62697">
        <ele>68</ele>
        <time>2022-10-22T14:24:06Z</time>
      </trkpt>
      <trkpt lat="47.13783" lon="-1.62712">
        <ele>69</ele>
        <time>2022-10-22T14:24:08Z</time>
      </trkpt>
      <trkpt lat="47.13783" lon="-1.62729">
        <ele>70</ele>
        <time>2022-10-22T14:24:10Z</time>
      </trkpt>
      <trkpt lat="47.13784" lon="-1.62744">
        <ele>70</ele>
        <time>2022-10-22T14:24:12Z</time>
      </trkpt>
      <trkpt lat="47.13786" lon="-1.62761">
        <ele>71</ele>
        <time>2022-10-22T14:24:14Z</time>
      </trkpt>
      <trkpt lat="47.13789" lon="-1.62777">
        <ele>71</ele>
        <time>2022-10-22T14:24:16Z</time>
      </trkpt>
      <trkpt lat="47.13793" lon="-1.62794">
        <ele>71</ele>
        <time>2022-10-22T14:24:18Z</time>
      </trkpt>
      <trkpt lat="47.13798" lon="-1.62811">
        <ele>72</ele>
        <time>2022-10-22T14:24:20Z</time>
      </trkpt>
      <trkpt lat="47.13804" lon="-1.62826">
        <ele>72</ele>
        <time>2022-10-22T14:24:22Z</time>
      </trkpt>
      <trkpt lat="47.1381" lon="-1.6284">
        <ele>71</ele>
        <time>2022-10-22T14:24:24Z</time>
      </trkpt>
      <trkpt lat="47.13816" lon="-1.62855">
        <ele>71</ele>
        <time>2022-10-22T14:24:26Z</time>
      </trkpt>
      <trkpt lat="47.1382" lon="-1.62868">
        <ele>71</ele>
        <time>2022-10-22T14:24:28Z</time>
      </trkpt>
      <trkpt lat="47.13825" lon="-1.62881">
        <ele>71</ele>
        <time>2022-10-22T14:24:30Z</time>
      </trkpt>
      <trkpt lat="47.13827" lon="-1.62896">
        <ele>71</ele>
        <time>2022-10-22T14:24:32Z</time>
      </trkpt>
      <trkpt lat="47.13827" lon="-1.62911">
        <ele>70</ele>
        <time>2022-10-22T14:24:34Z</time>
      </trkpt>
      <trkpt lat="47.13825" lon="-1.62927">
        <ele>70</ele>
        <time>2022-10-22T14:24:36Z</time>
      </trkpt>
      <trkpt lat="47.13823" lon="-1.62943">
        <ele>70</ele>
        <time>2022-10-22T14:24:38Z</time>
      </trkpt>
      <trkpt lat="47.13822" lon="-1.62958">
        <ele>70</ele>
        <time>2022-10-22T14:24:40Z</time>
      </trkpt>
      <trkpt lat="47.1382" lon="-1.62975">
        <ele>69</ele>
        <time>2022-10-22T14:24:42Z</time>
      </trkpt>
      <trkpt lat="47.13819" lon="-1.62992">
        <ele>69</ele>
        <time>2022-10-22T14:24:44Z</time>
      </trkpt>
      <trkpt lat="47.13818" lon="-1.6301">
        <ele>69</ele>
        <time>2022-10-22T14:24:46Z</time>
      </trkpt>
      <trkpt lat="47.13819" lon="-1.63029">
        <ele>68</ele>
        <time>2022-10-22T14:24:48Z</time>
      </trkpt>
      <trkpt lat="47.13821" lon="-1.63046">
        <ele>68</ele>
        <time>2022-10-22T14:24:50Z</time>
      </trkpt>
      <trkpt lat="47.13828" lon="-1.63056">
        <ele>67</ele>
        <time>2022-10-22T14:24:52Z</time>
      </trkpt>
      <trkpt lat="47.13839" lon="-1.63057">
        <ele>67</ele>
        <time>2022-10-22T14:24:54Z</time>
      </trkpt>
      <trkpt lat="47.13849" lon="-1.63056">
        <ele>68</ele>
        <time>2022-10-22T14:24:56Z</time>
      </trkpt>
      <trkpt lat="47.1386" lon="-1.63054">
        <ele>68</ele>
        <time>2022-10-22T14:24:58Z</time>
      </trkpt>
      <trkpt lat="47.13871" lon="-1.63053">
        <ele>69</ele>
        <time>2022-10-22T14:25:00Z</time>
      </trkpt>
      <trkpt lat="47.13882" lon="-1.6305">
        <ele>69</ele>
        <time>2022-10-22T14:25:02Z</time>
      </trkpt>
      <trkpt lat="47.13893" lon="-1.63048">
        <ele>70</ele>
        <time>2022-10-22T14:25:04Z</time>
      </trkpt>
      <trkpt lat="47.13904" lon="-1.63044">
        <ele>70</ele>
        <time>2022-10-22T14:25:06Z</time>
      </trkpt>
      <trkpt lat="47.13915" lon="-1.6304">
        <ele>71</ele>
        <time>2022-10-22T14:25:08Z</time>
      </trkpt>
      <trkpt lat="47.13925" lon="-1.63036">
        <ele>71</ele>
        <time>2022-10-22T14:25:10Z</time>
      </trkpt>
      <trkpt lat="47.13936" lon="-1.6303">
        <ele>71</ele>
        <time>2022-10-22T14:25:12Z</time>
      </trkpt>
      <trkpt lat="47.13946" lon="-1.63025">
        <ele>71</ele>
        <time>2022-10-22T14:25:14Z</time>
      </trkpt>
      <trkpt lat="47.13957" lon="-1.63018">
        <ele>71</ele>
        <time>2022-10-22T14:25:16Z</time>
      </trkpt>
      <trkpt lat="47.13967" lon="-1.63013">
        <ele>72</ele>
        <time>2022-10-22T14:25:18Z</time>
      </trkpt>
      <trkpt lat="47.13977" lon="-1.63008">
        <ele>72</ele>
        <time>2022-10-22T14:25:20Z</time>
      </trkpt>
      <trkpt lat="47.13986" lon="-1.63002">
        <ele>72</ele>
        <time>2022-10-22T14:25:22Z</time>
      </trkpt>
      <trkpt lat="47.13995" lon="-1.62997">
        <ele>73</ele>
        <time>2022-10-22T14:25:24Z</time>
      </trkpt>
      <trkpt lat="47.14006" lon="-1.62992">
        <ele>73</ele>
        <time>2022-10-22T14:25:26Z</time>
      </trkpt>
      <trkpt lat="47.14017" lon="-1.62986">
        <ele>74</ele>
        <time>2022-10-22T14:25:28Z</time>
      </trkpt>
      <trkpt lat="47.14027" lon="-1.62982">
        <ele>75</ele>
        <time>2022-10-22T14:25:30Z</time>
      </trkpt>
      <trkpt lat="47.14038" lon="-1.6298">
        <ele>74</ele>
        <time>2022-10-22T14:25:32Z</time>
      </trkpt>
      <trkpt lat="47.14049" lon="-1.62978">
        <ele>74</ele>
        <time>2022-10-22T14:25:34Z</time>
      </trkpt>
      <trkpt lat="47.14059" lon="-1.62977">
        <ele>74</ele>
        <time>2022-10-22T14:25:36Z</time>
      </trkpt>
      <trkpt lat="47.14069" lon="-1.62976">
        <ele>74</ele>
        <time>2022-10-22T14:25:38Z</time>
      </trkpt>
      <trkpt lat="47.1408" lon="-1.62975">
        <ele>74</ele>
        <time>2022-10-22T14:25:40Z</time>
      </trkpt>
      <trkpt lat="47.1409" lon="-1.62975">
        <ele>73</ele>
        <time>2022-10-22T14:25:42Z</time>
      </trkpt>
      <trkpt lat="47.14099" lon="-1.62976">
        <ele>73</ele>
        <time>2022-10-22T14:25:44Z</time>
      </trkpt>
      <trkpt lat="47.14109" lon="-1.62979">
        <ele>73</ele>
        <time>2022-10-22T14:25:46Z</time>
      </trkpt>
      <trkpt lat="47.14119" lon="-1.62982">
        <ele>74</ele>
        <time>2022-10-22T14:25:48Z</time>
      </trkpt>
      <trkpt lat="47.14129" lon="-1.62986">
        <ele>74</ele>
        <time>2022-10-22T14:25:50Z</time>
      </trkpt>
      <trkpt lat="47.1414" lon="-1.62991">
        <ele>74</ele>
        <time>2022-10-22T14:25:52Z</time>
      </trkpt>
      <trkpt lat="47.14151" lon="-1.62995">
        <ele>74</ele>
        <time>2022-10-22T14:25:54Z</time>
      </trkpt>
      <trkpt lat="47.14162" lon="-1.63">
        <ele>74</ele>
        <time>2022-10-22T14:25:56Z</time>
      </trkpt>
      <trkpt lat="47.14172" lon="-1.63005">
        <ele>73</ele>
        <time>2022-10-22T14:25:58Z</time>
      </trkpt>
      <trkpt lat="47.14183" lon="-1.6301">
        <ele>73</ele>
        <time>2022-10-22T14:26:00Z</time>
      </trkpt>
      <trkpt lat="47.14193" lon="-1.63015">
        <ele>73</ele>
        <time>2022-10-22T14:26:02Z</time>
      </trkpt>
      <trkpt lat="47.14204" lon="-1.63021">
        <ele>73</ele>
        <time>2022-10-22T14:26:04Z</time>
      </trkpt>
      <trkpt lat="47.14214" lon="-1.63026">
        <ele>73</ele>
        <time>2022-10-22T14:26:06Z</time>
      </trkpt>
      <trkpt lat="47.14225" lon="-1.63031">
        <ele>73</ele>
        <time>2022-10-22T14:26:08Z</time>
      </trkpt>
      <trkpt lat="47.14236" lon="-1.63038">
        <ele>73</ele>
        <time>2022-10-22T14:26:10Z</time>
      </trkpt>
      <trkpt lat="47.14247" lon="-1.63043">
        <ele>73</ele>
        <time>2022-10-22T14:26:12Z</time>
      </trkpt>
      <trkpt lat="47.14258" lon="-1.63049">
        <ele>73</ele>
        <time>2022-10-22T14:26:14Z</time>
      </trkpt>
      <trkpt lat="47.14268" lon="-1.63055">
        <ele>73</ele>
        <time>2022-10-22T14:26:16Z</time>
      </trkpt>
      <trkpt lat="47.14279" lon="-1.63061">
        <ele>74</ele>
        <time>2022-10-22T14:26:18Z</time>
      </trkpt>
      <trkpt lat="47.1429" lon="-1.63067">
        <ele>74</ele>
        <time>2022-10-22T14:26:20Z</time>
      </trkpt>
      <trkpt lat="47.14301" lon="-1.63073">
        <ele>74</ele>
        <time>2022-10-22T14:26:22Z</time>
      </trkpt>
      <trkpt lat="47.14312" lon="-1.63079">
        <ele>74</ele>
        <time>2022-10-22T14:26:24Z</time>
      </trkpt>
      <trkpt lat="47.14322" lon="-1.63086">
        <ele>74</ele>
        <time>2022-10-22T14:26:26Z</time>
      </trkpt>
      <trkpt lat="47.14333" lon="-1.63093">
        <ele>76</ele>
        <time>2022-10-22T14:26:28Z</time>
      </trkpt>
      <trkpt lat="47.14343" lon="-1.63099">
        <ele>76</ele>
        <time>2022-10-22T14:26:30Z</time>
      </trkpt>
      <trkpt lat="47.14354" lon="-1.63105">
        <ele>76</ele>
        <time>2022-10-22T14:26:32Z</time>
      </trkpt>
      <trkpt lat="47.14365" lon="-1.6311">
        <ele>77</ele>
        <time>2022-10-22T14:26:34Z</time>
      </trkpt>
      <trkpt lat="47.14383" lon="-1.63118">
        <ele>77</ele>
        <time>2022-10-22T14:26:37Z</time>
      </trkpt>
      <trkpt lat="47.14395" lon="-1.63121">
        <ele>76</ele>
        <time>2022-10-22T14:26:39Z</time>
      </trkpt>
      <trkpt lat="47.14406" lon="-1.63125">
        <ele>74</ele>
        <time>2022-10-22T14:26:41Z</time>
      </trkpt>
      <trkpt lat="47.14417" lon="-1.6313">
        <ele>74</ele>
        <time>2022-10-22T14:26:43Z</time>
      </trkpt>
      <trkpt lat="47.14433" lon="-1.63139">
        <ele>74</ele>
        <time>2022-10-22T14:26:46Z</time>
      </trkpt>
      <trkpt lat="47.14444" lon="-1.63144">
        <ele>74</ele>
        <time>2022-10-22T14:26:48Z</time>
      </trkpt>
      <trkpt lat="47.14455" lon="-1.63145">
        <ele>74</ele>
        <time>2022-10-22T14:26:50Z</time>
      </trkpt>
      <trkpt lat="47.14473" lon="-1.63146">
        <ele>75</ele>
        <time>2022-10-22T14:26:53Z</time>
      </trkpt>
      <trkpt lat="47.14484" lon="-1.63146">
        <ele>75</ele>
        <time>2022-10-22T14:26:55Z</time>
      </trkpt>
      <trkpt lat="47.14495" lon="-1.63146">
        <ele>75</ele>
        <time>2022-10-22T14:26:57Z</time>
      </trkpt>
      <trkpt lat="47.14507" lon="-1.63146">
        <ele>75</ele>
        <time>2022-10-22T14:26:59Z</time>
      </trkpt>
      <trkpt lat="47.14518" lon="-1.63146">
        <ele>75</ele>
        <time>2022-10-22T14:27:01Z</time>
      </trkpt>
      <trkpt lat="47.1453" lon="-1.63146">
        <ele>75</ele>
        <time>2022-10-22T14:27:03Z</time>
      </trkpt>
      <trkpt lat="47.14546" lon="-1.63145">
        <ele>75</ele>
        <time>2022-10-22T14:27:06Z</time>
      </trkpt>
      <trkpt lat="47.14557" lon="-1.63143">
        <ele>75</ele>
        <time>2022-10-22T14:27:08Z</time>
      </trkpt>
      <trkpt lat="47.14569" lon="-1.63139">
        <ele>76</ele>
        <time>2022-10-22T14:27:10Z</time>
      </trkpt>
      <trkpt lat="47.14585" lon="-1.6313">
        <ele>76</ele>
        <time>2022-10-22T14:27:13Z</time>
      </trkpt>
      <trkpt lat="47.14596" lon="-1.63123">
        <ele>76</ele>
        <time>2022-10-22T14:27:15Z</time>
      </trkpt>
      <trkpt lat="47.14606" lon="-1.63117">
        <ele>76</ele>
        <time>2022-10-22T14:27:17Z</time>
      </trkpt>
      <trkpt lat="47.14617" lon="-1.6311">
        <ele>76</ele>
        <time>2022-10-22T14:27:19Z</time>
      </trkpt>
      <trkpt lat="47.14627" lon="-1.63103">
        <ele>76</ele>
        <time>2022-10-22T14:27:21Z</time>
      </trkpt>
      <trkpt lat="47.14638" lon="-1.63096">
        <ele>76</ele>
        <time>2022-10-22T14:27:23Z</time>
      </trkpt>
      <trkpt lat="47.14648" lon="-1.6309">
        <ele>76</ele>
        <time>2022-10-22T14:27:25Z</time>
      </trkpt>
      <trkpt lat="47.14658" lon="-1.63084">
        <ele>76</ele>
        <time>2022-10-22T14:27:27Z</time>
      </trkpt>
      <trkpt lat="47.14669" lon="-1.6308">
        <ele>77</ele>
        <time>2022-10-22T14:27:29Z</time>
      </trkpt>
      <trkpt lat="47.1468" lon="-1.63076">
        <ele>76</ele>
        <time>2022-10-22T14:27:31Z</time>
      </trkpt>
      <trkpt lat="47.14692" lon="-1.63073">
        <ele>76</ele>
        <time>2022-10-22T14:27:33Z</time>
      </trkpt>
      <trkpt lat="47.14703" lon="-1.63071">
        <ele>76</ele>
        <time>2022-10-22T14:27:35Z</time>
      </trkpt>
      <trkpt lat="47.14714" lon="-1.6307">
        <ele>76</ele>
        <time>2022-10-22T14:27:37Z</time>
      </trkpt>
      <trkpt lat="47.14725" lon="-1.63069">
        <ele>77</ele>
        <time>2022-10-22T14:27:39Z</time>
      </trkpt>
      <trkpt lat="47.14735" lon="-1.63068">
        <ele>77</ele>
        <time>2022-10-22T14:27:41Z</time>
      </trkpt>
      <trkpt lat="47.14746" lon="-1.63068">
        <ele>77</ele>
        <time>2022-10-22T14:27:43Z</time>
      </trkpt>
      <trkpt lat="47.14758" lon="-1.63067">
        <ele>77</ele>
        <time>2022-10-22T14:27:45Z</time>
      </trkpt>
      <trkpt lat="47.14769" lon="-1.63066">
        <ele>77</ele>
        <time>2022-10-22T14:27:47Z</time>
      </trkpt>
      <trkpt lat="47.14781" lon="-1.63064">
        <ele>77</ele>
        <time>2022-10-22T14:27:49Z</time>
      </trkpt>
      <trkpt lat="47.14793" lon="-1.63064">
        <ele>77</ele>
        <time>2022-10-22T14:27:51Z</time>
      </trkpt>
      <trkpt lat="47.14805" lon="-1.63063">
        <ele>77</ele>
        <time>2022-10-22T14:27:53Z</time>
      </trkpt>
      <trkpt lat="47.14816" lon="-1.63063">
        <ele>77</ele>
        <time>2022-10-22T14:27:55Z</time>
      </trkpt>
      <trkpt lat="47.14828" lon="-1.63062">
        <ele>78</ele>
        <time>2022-10-22T14:27:57Z</time>
      </trkpt>
      <trkpt lat="47.14839" lon="-1.63062">
        <ele>79</ele>
        <time>2022-10-22T14:27:59Z</time>
      </trkpt>
      <trkpt lat="47.1485" lon="-1.63062">
        <ele>79</ele>
        <time>2022-10-22T14:28:01Z</time>
      </trkpt>
      <trkpt lat="47.14861" lon="-1.63062">
        <ele>79</ele>
        <time>2022-10-22T14:28:03Z</time>
      </trkpt>
      <trkpt lat="47.14871" lon="-1.63062">
        <ele>79</ele>
        <time>2022-10-22T14:28:05Z</time>
      </trkpt>
      <trkpt lat="47.1488" lon="-1.6306">
        <ele>79</ele>
        <time>2022-10-22T14:28:07Z</time>
      </trkpt>
      <trkpt lat="47.14885" lon="-1.63078">
        <ele>79</ele>
        <time>2022-10-22T14:28:10Z</time>
      </trkpt>
      <trkpt lat="47.14884" lon="-1.63094">
        <ele>80</ele>
        <time>2022-10-22T14:28:12Z</time>
      </trkpt>
      <trkpt lat="47.14882" lon="-1.63111">
        <ele>80</ele>
        <time>2022-10-22T14:28:14Z</time>
      </trkpt>
      <trkpt lat="47.14879" lon="-1.63129">
        <ele>80</ele>
        <time>2022-10-22T14:28:16Z</time>
      </trkpt>
      <trkpt lat="47.14877" lon="-1.63146">
        <ele>80</ele>
        <time>2022-10-22T14:28:18Z</time>
      </trkpt>
      <trkpt lat="47.14876" lon="-1.63164">
        <ele>80</ele>
        <time>2022-10-22T14:28:20Z</time>
      </trkpt>
      <trkpt lat="47.14876" lon="-1.63182">
        <ele>79</ele>
        <time>2022-10-22T14:28:22Z</time>
      </trkpt>
      <trkpt lat="47.14875" lon="-1.63201">
        <ele>79</ele>
        <time>2022-10-22T14:28:24Z</time>
      </trkpt>
      <trkpt lat="47.14875" lon="-1.63219">
        <ele>78</ele>
        <time>2022-10-22T14:28:26Z</time>
      </trkpt>
      <trkpt lat="47.14875" lon="-1.63237">
        <ele>78</ele>
        <time>2022-10-22T14:28:28Z</time>
      </trkpt>
      <trkpt lat="47.14875" lon="-1.63254">
        <ele>78</ele>
        <time>2022-10-22T14:28:30Z</time>
      </trkpt>
      <trkpt lat="47.14875" lon="-1.63271">
        <ele>78</ele>
        <time>2022-10-22T14:28:32Z</time>
      </trkpt>
      <trkpt lat="47.14876" lon="-1.63288">
        <ele>78</ele>
        <time>2022-10-22T14:28:34Z</time>
      </trkpt>
      <trkpt lat="47.14876" lon="-1.63306">
        <ele>78</ele>
        <time>2022-10-22T14:28:36Z</time>
      </trkpt>
      <trkpt lat="47.14876" lon="-1.63323">
        <ele>78</ele>
        <time>2022-10-22T14:28:38Z</time>
      </trkpt>
      <trkpt lat="47.14876" lon="-1.63341">
        <ele>78</ele>
        <time>2022-10-22T14:28:40Z</time>
      </trkpt>
      <trkpt lat="47.14876" lon="-1.63358">
        <ele>78</ele>
        <time>2022-10-22T14:28:42Z</time>
      </trkpt>
      <trkpt lat="47.14876" lon="-1.63376">
        <ele>77</ele>
        <time>2022-10-22T14:28:44Z</time>
      </trkpt>
      <trkpt lat="47.14875" lon="-1.63394">
        <ele>77</ele>
        <time>2022-10-22T14:28:46Z</time>
      </trkpt>
      <trkpt lat="47.14875" lon="-1.63412">
        <ele>77</ele>
        <time>2022-10-22T14:28:48Z</time>
      </trkpt>
      <trkpt lat="47.14875" lon="-1.6343">
        <ele>77</ele>
        <time>2022-10-22T14:28:50Z</time>
      </trkpt>
      <trkpt lat="47.14875" lon="-1.63448">
        <ele>76</ele>
        <time>2022-10-22T14:28:52Z</time>
      </trkpt>
      <trkpt lat="47.14875" lon="-1.63465">
        <ele>76</ele>
        <time>2022-10-22T14:28:54Z</time>
      </trkpt>
      <trkpt lat="47.14874" lon="-1.63483">
        <ele>76</ele>
        <time>2022-10-22T14:28:56Z</time>
      </trkpt>
      <trkpt lat="47.14874" lon="-1.63501">
        <ele>76</ele>
        <time>2022-10-22T14:28:58Z</time>
      </trkpt>
      <trkpt lat="47.14874" lon="-1.63518">
        <ele>76</ele>
        <time>2022-10-22T14:29:00Z</time>
      </trkpt>
      <trkpt lat="47.14874" lon="-1.63536">
        <ele>77</ele>
        <time>2022-10-22T14:29:02Z</time>
      </trkpt>
      <trkpt lat="47.14874" lon="-1.63554">
        <ele>77</ele>
        <time>2022-10-22T14:29:04Z</time>
      </trkpt>
      <trkpt lat="47.14874" lon="-1.63571">
        <ele>76</ele>
        <time>2022-10-22T14:29:06Z</time>
      </trkpt>
      <trkpt lat="47.14874" lon="-1.63589">
        <ele>77</ele>
        <time>2022-10-22T14:29:08Z</time>
      </trkpt>
      <trkpt lat="47.14874" lon="-1.63608">
        <ele>76</ele>
        <time>2022-10-22T14:29:10Z</time>
      </trkpt>
      <trkpt lat="47.14873" lon="-1.63626">
        <ele>76</ele>
        <time>2022-10-22T14:29:12Z</time>
      </trkpt>
      <trkpt lat="47.14873" lon="-1.63644">
        <ele>76</ele>
        <time>2022-10-22T14:29:14Z</time>
      </trkpt>
      <trkpt lat="47.14873" lon="-1.63662">
        <ele>76</ele>
        <time>2022-10-22T14:29:16Z</time>
      </trkpt>
      <trkpt lat="47.14874" lon="-1.6368">
        <ele>76</ele>
        <time>2022-10-22T14:29:18Z</time>
      </trkpt>
      <trkpt lat="47.14874" lon="-1.63697">
        <ele>76</ele>
        <time>2022-10-22T14:29:20Z</time>
      </trkpt>
      <trkpt lat="47.14874" lon="-1.63716">
        <ele>76</ele>
        <time>2022-10-22T14:29:22Z</time>
      </trkpt>
      <trkpt lat="47.14874" lon="-1.63733">
        <ele>76</ele>
        <time>2022-10-22T14:29:24Z</time>
      </trkpt>
      <trkpt lat="47.14874" lon="-1.63751">
        <ele>76</ele>
        <time>2022-10-22T14:29:26Z</time>
      </trkpt>
      <trkpt lat="47.14874" lon="-1.63769">
        <ele>76</ele>
        <time>2022-10-22T14:29:28Z</time>
      </trkpt>
      <trkpt lat="47.14874" lon="-1.63786">
        <ele>76</ele>
        <time>2022-10-22T14:29:30Z</time>
      </trkpt>
      <trkpt lat="47.14873" lon="-1.63804">
        <ele>76</ele>
        <time>2022-10-22T14:29:32Z</time>
      </trkpt>
      <trkpt lat="47.14873" lon="-1.63821">
        <ele>76</ele>
        <time>2022-10-22T14:29:34Z</time>
      </trkpt>
      <trkpt lat="47.14873" lon="-1.63839">
        <ele>75</ele>
        <time>2022-10-22T14:29:36Z</time>
      </trkpt>
      <trkpt lat="47.14872" lon="-1.63857">
        <ele>75</ele>
        <time>2022-10-22T14:29:38Z</time>
      </trkpt>
      <trkpt lat="47.1487" lon="-1.63875">
        <ele>75</ele>
        <time>2022-10-22T14:29:40Z</time>
      </trkpt>
      <trkpt lat="47.14867" lon="-1.63892">
        <ele>75</ele>
        <time>2022-10-22T14:29:42Z</time>
      </trkpt>
      <trkpt lat="47.14865" lon="-1.63908">
        <ele>76</ele>
        <time>2022-10-22T14:29:44Z</time>
      </trkpt>
      <trkpt lat="47.14862" lon="-1.63924">
        <ele>76</ele>
        <time>2022-10-22T14:29:46Z</time>
      </trkpt>
      <trkpt lat="47.1486" lon="-1.63939">
        <ele>76</ele>
        <time>2022-10-22T14:29:48Z</time>
      </trkpt>
      <trkpt lat="47.14859" lon="-1.63955">
        <ele>76</ele>
        <time>2022-10-22T14:29:50Z</time>
      </trkpt>
      <trkpt lat="47.14861" lon="-1.63971">
        <ele>77</ele>
        <time>2022-10-22T14:29:52Z</time>
      </trkpt>
      <trkpt lat="47.14867" lon="-1.63985">
        <ele>77</ele>
        <time>2022-10-22T14:29:54Z</time>
      </trkpt>
      <trkpt lat="47.14874" lon="-1.63997">
        <ele>77</ele>
        <time>2022-10-22T14:29:56Z</time>
      </trkpt>
      <trkpt lat="47.14882" lon="-1.64009">
        <ele>77</ele>
        <time>2022-10-22T14:29:58Z</time>
      </trkpt>
      <trkpt lat="47.14892" lon="-1.64017">
        <ele>77</ele>
        <time>2022-10-22T14:30:00Z</time>
      </trkpt>
      <trkpt lat="47.14902" lon="-1.6402">
        <ele>77</ele>
        <time>2022-10-22T14:30:02Z</time>
      </trkpt>
      <trkpt lat="47.14911" lon="-1.64011">
        <ele>78</ele>
        <time>2022-10-22T14:30:04Z</time>
      </trkpt>
      <trkpt lat="47.14917" lon="-1.63997">
        <ele>79</ele>
        <time>2022-10-22T14:30:06Z</time>
      </trkpt>
      <trkpt lat="47.14923" lon="-1.63982">
        <ele>79</ele>
        <time>2022-10-22T14:30:08Z</time>
      </trkpt>
      <trkpt lat="47.1493" lon="-1.63969">
        <ele>79</ele>
        <time>2022-10-22T14:30:10Z</time>
      </trkpt>
      <trkpt lat="47.14937" lon="-1.63955">
        <ele>79</ele>
        <time>2022-10-22T14:30:12Z</time>
      </trkpt>
      <trkpt lat="47.14945" lon="-1.63944">
        <ele>79</ele>
        <time>2022-10-22T14:30:14Z</time>
      </trkpt>
      <trkpt lat="47.14954" lon="-1.63933">
        <ele>79</ele>
        <time>2022-10-22T14:30:16Z</time>
      </trkpt>
      <trkpt lat="47.14962" lon="-1.63922">
        <ele>80</ele>
        <time>2022-10-22T14:30:18Z</time>
      </trkpt>
      <trkpt lat="47.1497" lon="-1.6391">
        <ele>79</ele>
        <time>2022-10-22T14:30:20Z</time>
      </trkpt>
      <trkpt lat="47.14978" lon="-1.63897">
        <ele>79</ele>
        <time>2022-10-22T14:30:22Z</time>
      </trkpt>
      <trkpt lat="47.14987" lon="-1.63885">
        <ele>79</ele>
        <time>2022-10-22T14:30:24Z</time>
      </trkpt>
      <trkpt lat="47.14995" lon="-1.63874">
        <ele>80</ele>
        <time>2022-10-22T14:30:26Z</time>
      </trkpt>
      <trkpt lat="47.15004" lon="-1.63862">
        <ele>80</ele>
        <time>2022-10-22T14:30:28Z</time>
      </trkpt>
      <trkpt lat="47.15012" lon="-1.63851">
        <ele>80</ele>
        <time>2022-10-22T14:30:30Z</time>
      </trkpt>
      <trkpt lat="47.1502" lon="-1.63839">
        <ele>80</ele>
        <time>2022-10-22T14:30:32Z</time>
      </trkpt>
      <trkpt lat="47.15029" lon="-1.63828">
        <ele>80</ele>
        <time>2022-10-22T14:30:34Z</time>
      </trkpt>
      <trkpt lat="47.15037" lon="-1.63817">
        <ele>80</ele>
        <time>2022-10-22T14:30:36Z</time>
      </trkpt>
      <trkpt lat="47.15046" lon="-1.63805">
        <ele>80</ele>
        <time>2022-10-22T14:30:38Z</time>
      </trkpt>
      <trkpt lat="47.15055" lon="-1.63793">
        <ele>80</ele>
        <time>2022-10-22T14:30:40Z</time>
      </trkpt>
      <trkpt lat="47.15064" lon="-1.63782">
        <ele>80</ele>
        <time>2022-10-22T14:30:42Z</time>
      </trkpt>
      <trkpt lat="47.15073" lon="-1.6377">
        <ele>80</ele>
        <time>2022-10-22T14:30:44Z</time>
      </trkpt>
      <trkpt lat="47.15082" lon="-1.63759">
        <ele>79</ele>
        <time>2022-10-22T14:30:46Z</time>
      </trkpt>
      <trkpt lat="47.15091" lon="-1.63749">
        <ele>80</ele>
        <time>2022-10-22T14:30:48Z</time>
      </trkpt>
      <trkpt lat="47.15101" lon="-1.63739">
        <ele>80</ele>
        <time>2022-10-22T14:30:50Z</time>
      </trkpt>
      <trkpt lat="47.15111" lon="-1.63728">
        <ele>80</ele>
        <time>2022-10-22T14:30:52Z</time>
      </trkpt>
      <trkpt lat="47.1512" lon="-1.63719">
        <ele>80</ele>
        <time>2022-10-22T14:30:54Z</time>
      </trkpt>
      <trkpt lat="47.1513" lon="-1.63709">
        <ele>80</ele>
        <time>2022-10-22T14:30:56Z</time>
      </trkpt>
      <trkpt lat="47.1514" lon="-1.63698">
        <ele>80</ele>
        <time>2022-10-22T14:30:58Z</time>
      </trkpt>
      <trkpt lat="47.1515" lon="-1.63689">
        <ele>80</ele>
        <time>2022-10-22T14:31:00Z</time>
      </trkpt>
      <trkpt lat="47.1516" lon="-1.6368">
        <ele>80</ele>
        <time>2022-10-22T14:31:02Z</time>
      </trkpt>
      <trkpt lat="47.1517" lon="-1.63671">
        <ele>80</ele>
        <time>2022-10-22T14:31:04Z</time>
      </trkpt>
      <trkpt lat="47.1518" lon="-1.63661">
        <ele>80</ele>
        <time>2022-10-22T14:31:06Z</time>
      </trkpt>
      <trkpt lat="47.15189" lon="-1.63652">
        <ele>80</ele>
        <time>2022-10-22T14:31:08Z</time>
      </trkpt>
      <trkpt lat="47.15199" lon="-1.63644">
        <ele>80</ele>
        <time>2022-10-22T14:31:10Z</time>
      </trkpt>
      <trkpt lat="47.15209" lon="-1.63635">
        <ele>80</ele>
        <time>2022-10-22T14:31:12Z</time>
      </trkpt>
      <trkpt lat="47.15219" lon="-1.63626">
        <ele>80</ele>
        <time>2022-10-22T14:31:14Z</time>
      </trkpt>
      <trkpt lat="47.15228" lon="-1.63617">
        <ele>80</ele>
        <time>2022-10-22T14:31:16Z</time>
      </trkpt>
      <trkpt lat="47.15237" lon="-1.63608">
        <ele>80</ele>
        <time>2022-10-22T14:31:18Z</time>
      </trkpt>
      <trkpt lat="47.15247" lon="-1.63599">
        <ele>80</ele>
        <time>2022-10-22T14:31:20Z</time>
      </trkpt>
      <trkpt lat="47.15257" lon="-1.63589">
        <ele>81</ele>
        <time>2022-10-22T14:31:22Z</time>
      </trkpt>
      <trkpt lat="47.15268" lon="-1.6358">
        <ele>81</ele>
        <time>2022-10-22T14:31:24Z</time>
      </trkpt>
      <trkpt lat="47.15278" lon="-1.6357">
        <ele>80</ele>
        <time>2022-10-22T14:31:26Z</time>
      </trkpt>
      <trkpt lat="47.15288" lon="-1.63561">
        <ele>80</ele>
        <time>2022-10-22T14:31:28Z</time>
      </trkpt>
      <trkpt lat="47.15298" lon="-1.63552">
        <ele>81</ele>
        <time>2022-10-22T14:31:30Z</time>
      </trkpt>
      <trkpt lat="47.15308" lon="-1.63543">
        <ele>80</ele>
        <time>2022-10-22T14:31:32Z</time>
      </trkpt>
      <trkpt lat="47.15318" lon="-1.63535">
        <ele>80</ele>
        <time>2022-10-22T14:31:34Z</time>
      </trkpt>
      <trkpt lat="47.15328" lon="-1.63525">
        <ele>80</ele>
        <time>2022-10-22T14:31:36Z</time>
      </trkpt>
      <trkpt lat="47.15338" lon="-1.63517">
        <ele>80</ele>
        <time>2022-10-22T14:31:38Z</time>
      </trkpt>
      <trkpt lat="47.15348" lon="-1.63507">
        <ele>80</ele>
        <time>2022-10-22T14:31:40Z</time>
      </trkpt>
      <trkpt lat="47.15358" lon="-1.63498">
        <ele>80</ele>
        <time>2022-10-22T14:31:42Z</time>
      </trkpt>
      <trkpt lat="47.15369" lon="-1.63489">
        <ele>80</ele>
        <time>2022-10-22T14:31:44Z</time>
      </trkpt>
      <trkpt lat="47.15379" lon="-1.6348">
        <ele>80</ele>
        <time>2022-10-22T14:31:46Z</time>
      </trkpt>
      <trkpt lat="47.15388" lon="-1.63471">
        <ele>80</ele>
        <time>2022-10-22T14:31:48Z</time>
      </trkpt>
      <trkpt lat="47.15398" lon="-1.63462">
        <ele>80</ele>
        <time>2022-10-22T14:31:50Z</time>
      </trkpt>
      <trkpt lat="47.15408" lon="-1.63453">
        <ele>79</ele>
        <time>2022-10-22T14:31:52Z</time>
      </trkpt>
      <trkpt lat="47.15418" lon="-1.63445">
        <ele>79</ele>
        <time>2022-10-22T14:31:54Z</time>
      </trkpt>
      <trkpt lat="47.15429" lon="-1.63435">
        <ele>78</ele>
        <time>2022-10-22T14:31:56Z</time>
      </trkpt>
      <trkpt lat="47.15439" lon="-1.63426">
        <ele>78</ele>
        <time>2022-10-22T14:31:58Z</time>
      </trkpt>
      <trkpt lat="47.15449" lon="-1.63414">
        <ele>78</ele>
        <time>2022-10-22T14:32:00Z</time>
      </trkpt>
      <trkpt lat="47.15459" lon="-1.63405">
        <ele>78</ele>
        <time>2022-10-22T14:32:02Z</time>
      </trkpt>
      <trkpt lat="47.1547" lon="-1.63396">
        <ele>78</ele>
        <time>2022-10-22T14:32:04Z</time>
      </trkpt>
      <trkpt lat="47.15481" lon="-1.63389">
        <ele>77</ele>
        <time>2022-10-22T14:32:06Z</time>
      </trkpt>
      <trkpt lat="47.15492" lon="-1.63381">
        <ele>77</ele>
        <time>2022-10-22T14:32:08Z</time>
      </trkpt>
      <trkpt lat="47.15504" lon="-1.63372">
        <ele>77</ele>
        <time>2022-10-22T14:32:10Z</time>
      </trkpt>
      <trkpt lat="47.15515" lon="-1.63363">
        <ele>76</ele>
        <time>2022-10-22T14:32:12Z</time>
      </trkpt>
      <trkpt lat="47.15527" lon="-1.63353">
        <ele>76</ele>
        <time>2022-10-22T14:32:14Z</time>
      </trkpt>
      <trkpt lat="47.15538" lon="-1.63343">
        <ele>76</ele>
        <time>2022-10-22T14:32:16Z</time>
      </trkpt>
      <trkpt lat="47.1555" lon="-1.63332">
        <ele>75</ele>
        <time>2022-10-22T14:32:18Z</time>
      </trkpt>
      <trkpt lat="47.15562" lon="-1.63322">
        <ele>74</ele>
        <time>2022-10-22T14:32:20Z</time>
      </trkpt>
      <trkpt lat="47.15574" lon="-1.63311">
        <ele>74</ele>
        <time>2022-10-22T14:32:22Z</time>
      </trkpt>
      <trkpt lat="47.15587" lon="-1.633">
        <ele>74</ele>
        <time>2022-10-22T14:32:24Z</time>
      </trkpt>
      <trkpt lat="47.15599" lon="-1.63289">
        <ele>74</ele>
        <time>2022-10-22T14:32:26Z</time>
      </trkpt>
      <trkpt lat="47.15612" lon="-1.63279">
        <ele>74</ele>
        <time>2022-10-22T14:32:28Z</time>
      </trkpt>
      <trkpt lat="47.15623" lon="-1.63268">
        <ele>74</ele>
        <time>2022-10-22T14:32:30Z</time>
      </trkpt>
      <trkpt lat="47.15635" lon="-1.63258">
        <ele>74</ele>
        <time>2022-10-22T14:32:32Z</time>
      </trkpt>
      <trkpt lat="47.15646" lon="-1.63247">
        <ele>74</ele>
        <time>2022-10-22T14:32:34Z</time>
      </trkpt>
      <trkpt lat="47.15658" lon="-1.63238">
        <ele>74</ele>
        <time>2022-10-22T14:32:36Z</time>
      </trkpt>
      <trkpt lat="47.15669" lon="-1.63228">
        <ele>74</ele>
        <time>2022-10-22T14:32:38Z</time>
      </trkpt>
      <trkpt lat="47.15679" lon="-1.63218">
        <ele>74</ele>
        <time>2022-10-22T14:32:40Z</time>
      </trkpt>
      <trkpt lat="47.1569" lon="-1.63209">
        <ele>74</ele>
        <time>2022-10-22T14:32:42Z</time>
      </trkpt>
      <trkpt lat="47.15701" lon="-1.63199">
        <ele>74</ele>
        <time>2022-10-22T14:32:44Z</time>
      </trkpt>
      <trkpt lat="47.15711" lon="-1.6319">
        <ele>74</ele>
        <time>2022-10-22T14:32:46Z</time>
      </trkpt>
      <trkpt lat="47.15722" lon="-1.6318">
        <ele>74</ele>
        <time>2022-10-22T14:32:48Z</time>
      </trkpt>
      <trkpt lat="47.15732" lon="-1.63171">
        <ele>74</ele>
        <time>2022-10-22T14:32:50Z</time>
      </trkpt>
      <trkpt lat="47.15742" lon="-1.63161">
        <ele>74</ele>
        <time>2022-10-22T14:32:52Z</time>
      </trkpt>
      <trkpt lat="47.1575" lon="-1.63149">
        <ele>74</ele>
        <time>2022-10-22T14:32:54Z</time>
      </trkpt>
      <trkpt lat="47.1576" lon="-1.63144">
        <ele>73</ele>
        <time>2022-10-22T14:32:56Z</time>
      </trkpt>
      <trkpt lat="47.15771" lon="-1.63136">
        <ele>73</ele>
        <time>2022-10-22T14:32:58Z</time>
      </trkpt>
      <trkpt lat="47.15782" lon="-1.63127">
        <ele>72</ele>
        <time>2022-10-22T14:33:00Z</time>
      </trkpt>
      <trkpt lat="47.15792" lon="-1.63117">
        <ele>72</ele>
        <time>2022-10-22T14:33:02Z</time>
      </trkpt>
      <trkpt lat="47.15803" lon="-1.63108">
        <ele>71</ele>
        <time>2022-10-22T14:33:04Z</time>
      </trkpt>
      <trkpt lat="47.15814" lon="-1.63098">
        <ele>71</ele>
        <time>2022-10-22T14:33:06Z</time>
      </trkpt>
      <trkpt lat="47.15826" lon="-1.63087">
        <ele>70</ele>
        <time>2022-10-22T14:33:08Z</time>
      </trkpt>
      <trkpt lat="47.15838" lon="-1.63077">
        <ele>70</ele>
        <time>2022-10-22T14:33:10Z</time>
      </trkpt>
      <trkpt lat="47.15851" lon="-1.63066">
        <ele>69</ele>
        <time>2022-10-22T14:33:12Z</time>
      </trkpt>
      <trkpt lat="47.15863" lon="-1.63054">
        <ele>68</ele>
        <time>2022-10-22T14:33:14Z</time>
      </trkpt>
      <trkpt lat="47.15876" lon="-1.63044">
        <ele>68</ele>
        <time>2022-10-22T14:33:16Z</time>
      </trkpt>
      <trkpt lat="47.15887" lon="-1.63033">
        <ele>68</ele>
        <time>2022-10-22T14:33:18Z</time>
      </trkpt>
      <trkpt lat="47.15899" lon="-1.63023">
        <ele>68</ele>
        <time>2022-10-22T14:33:20Z</time>
      </trkpt>
      <trkpt lat="47.15911" lon="-1.63013">
        <ele>68</ele>
        <time>2022-10-22T14:33:22Z</time>
      </trkpt>
      <trkpt lat="47.15922" lon="-1.63003">
        <ele>68</ele>
        <time>2022-10-22T14:33:24Z</time>
      </trkpt>
      <trkpt lat="47.15932" lon="-1.62993">
        <ele>69</ele>
        <time>2022-10-22T14:33:26Z</time>
      </trkpt>
      <trkpt lat="47.15942" lon="-1.62985">
        <ele>69</ele>
        <time>2022-10-22T14:33:28Z</time>
      </trkpt>
      <trkpt lat="47.15951" lon="-1.62977">
        <ele>69</ele>
        <time>2022-10-22T14:33:30Z</time>
      </trkpt>
      <trkpt lat="47.1596" lon="-1.62969">
        <ele>70</ele>
        <time>2022-10-22T14:33:32Z</time>
      </trkpt>
      <trkpt lat="47.1597" lon="-1.62962">
        <ele>71</ele>
        <time>2022-10-22T14:33:34Z</time>
      </trkpt>
      <trkpt lat="47.15979" lon="-1.62953">
        <ele>71</ele>
        <time>2022-10-22T14:33:36Z</time>
      </trkpt>
      <trkpt lat="47.15987" lon="-1.62946">
        <ele>71</ele>
        <time>2022-10-22T14:33:38Z</time>
      </trkpt>
      <trkpt lat="47.15996" lon="-1.62938">
        <ele>72</ele>
        <time>2022-10-22T14:33:40Z</time>
      </trkpt>
      <trkpt lat="47.16005" lon="-1.6293">
        <ele>72</ele>
        <time>2022-10-22T14:33:42Z</time>
      </trkpt>
      <trkpt lat="47.16013" lon="-1.62922">
        <ele>73</ele>
        <time>2022-10-22T14:33:44Z</time>
      </trkpt>
      <trkpt lat="47.16021" lon="-1.62914">
        <ele>73</ele>
        <time>2022-10-22T14:33:46Z</time>
      </trkpt>
      <trkpt lat="47.1603" lon="-1.62907">
        <ele>73</ele>
        <time>2022-10-22T14:33:48Z</time>
      </trkpt>
      <trkpt lat="47.16038" lon="-1.62899">
        <ele>74</ele>
        <time>2022-10-22T14:33:50Z</time>
      </trkpt>
      <trkpt lat="47.16047" lon="-1.62892">
        <ele>74</ele>
        <time>2022-10-22T14:33:52Z</time>
      </trkpt>
      <trkpt lat="47.16055" lon="-1.62885">
        <ele>74</ele>
        <time>2022-10-22T14:33:54Z</time>
      </trkpt>
      <trkpt lat="47.16064" lon="-1.62877">
        <ele>74</ele>
        <time>2022-10-22T14:33:56Z</time>
      </trkpt>
      <trkpt lat="47.16072" lon="-1.6287">
        <ele>75</ele>
        <time>2022-10-22T14:33:58Z</time>
      </trkpt>
      <trkpt lat="47.1608" lon="-1.62863">
        <ele>76</ele>
        <time>2022-10-22T14:34:00Z</time>
      </trkpt>
      <trkpt lat="47.16088" lon="-1.62857">
        <ele>77</ele>
        <time>2022-10-22T14:34:02Z</time>
      </trkpt>
      <trkpt lat="47.16097" lon="-1.6285">
        <ele>77</ele>
        <time>2022-10-22T14:34:04Z</time>
      </trkpt>
      <trkpt lat="47.16105" lon="-1.62842">
        <ele>78</ele>
        <time>2022-10-22T14:34:06Z</time>
      </trkpt>
      <trkpt lat="47.16113" lon="-1.62835">
        <ele>78</ele>
        <time>2022-10-22T14:34:08Z</time>
      </trkpt>
      <trkpt lat="47.16125" lon="-1.62825">
        <ele>78</ele>
        <time>2022-10-22T14:34:11Z</time>
      </trkpt>
      <trkpt lat="47.16132" lon="-1.62818">
        <ele>78</ele>
        <time>2022-10-22T14:34:13Z</time>
      </trkpt>
      <trkpt lat="47.16141" lon="-1.62811">
        <ele>79</ele>
        <time>2022-10-22T14:34:15Z</time>
      </trkpt>
      <trkpt lat="47.16148" lon="-1.62804">
        <ele>79</ele>
        <time>2022-10-22T14:34:17Z</time>
      </trkpt>
      <trkpt lat="47.16156" lon="-1.62797">
        <ele>80</ele>
        <time>2022-10-22T14:34:19Z</time>
      </trkpt>
      <trkpt lat="47.16164" lon="-1.62789">
        <ele>80</ele>
        <time>2022-10-22T14:34:21Z</time>
      </trkpt>
      <trkpt lat="47.16174" lon="-1.62779">
        <ele>79</ele>
        <time>2022-10-22T14:34:24Z</time>
      </trkpt>
      <trkpt lat="47.16185" lon="-1.62768">
        <ele>79</ele>
        <time>2022-10-22T14:34:27Z</time>
      </trkpt>
      <trkpt lat="47.16195" lon="-1.62758">
        <ele>79</ele>
        <time>2022-10-22T14:34:30Z</time>
      </trkpt>
      <trkpt lat="47.16206" lon="-1.62749">
        <ele>80</ele>
        <time>2022-10-22T14:34:33Z</time>
      </trkpt>
      <trkpt lat="47.16217" lon="-1.62739">
        <ele>80</ele>
        <time>2022-10-22T14:34:36Z</time>
      </trkpt>
      <trkpt lat="47.16227" lon="-1.62731">
        <ele>80</ele>
        <time>2022-10-22T14:34:39Z</time>
      </trkpt>
      <trkpt lat="47.16237" lon="-1.62723">
        <ele>81</ele>
        <time>2022-10-22T14:34:42Z</time>
      </trkpt>
      <trkpt lat="47.16247" lon="-1.62715">
        <ele>81</ele>
        <time>2022-10-22T14:34:45Z</time>
      </trkpt>
      <trkpt lat="47.16258" lon="-1.62706">
        <ele>81</ele>
        <time>2022-10-22T14:34:48Z</time>
      </trkpt>
      <trkpt lat="47.16269" lon="-1.62697">
        <ele>81</ele>
        <time>2022-10-22T14:34:51Z</time>
      </trkpt>
      <trkpt lat="47.16277" lon="-1.62687">
        <ele>81</ele>
        <time>2022-10-22T14:34:54Z</time>
      </trkpt>
      <trkpt lat="47.16278" lon="-1.62673">
        <ele>80</ele>
        <time>2022-10-22T14:34:56Z</time>
      </trkpt>
      <trkpt lat="47.16279" lon="-1.62659">
        <ele>80</ele>
        <time>2022-10-22T14:34:58Z</time>
      </trkpt>
      <trkpt lat="47.1628" lon="-1.62645">
        <ele>80</ele>
        <time>2022-10-22T14:35:00Z</time>
      </trkpt>
      <trkpt lat="47.16282" lon="-1.62632">
        <ele>80</ele>
        <time>2022-10-22T14:35:02Z</time>
      </trkpt>
      <trkpt lat="47.16284" lon="-1.62619">
        <ele>80</ele>
        <time>2022-10-22T14:35:04Z</time>
      </trkpt>
      <trkpt lat="47.16288" lon="-1.62606">
        <ele>80</ele>
        <time>2022-10-22T14:35:06Z</time>
      </trkpt>
      <trkpt lat="47.16293" lon="-1.62589">
        <ele>80</ele>
        <time>2022-10-22T14:35:09Z</time>
      </trkpt>
      <trkpt lat="47.16302" lon="-1.62575">
        <ele>81</ele>
        <time>2022-10-22T14:35:12Z</time>
      </trkpt>
      <trkpt lat="47.16315" lon="-1.62568">
        <ele>81</ele>
        <time>2022-10-22T14:35:15Z</time>
      </trkpt>
      <trkpt lat="47.16328" lon="-1.62568">
        <ele>81</ele>
        <time>2022-10-22T14:35:18Z</time>
      </trkpt>
      <trkpt lat="47.16336" lon="-1.62572">
        <ele>81</ele>
        <time>2022-10-22T14:35:20Z</time>
      </trkpt>
      <trkpt lat="47.16346" lon="-1.62576">
        <ele>82</ele>
        <time>2022-10-22T14:35:22Z</time>
      </trkpt>
      <trkpt lat="47.16356" lon="-1.6258">
        <ele>82</ele>
        <time>2022-10-22T14:35:24Z</time>
      </trkpt>
      <trkpt lat="47.16366" lon="-1.62581">
        <ele>82</ele>
        <time>2022-10-22T14:35:26Z</time>
      </trkpt>
      <trkpt lat="47.16376" lon="-1.62582">
        <ele>83</ele>
        <time>2022-10-22T14:35:28Z</time>
      </trkpt>
      <trkpt lat="47.16387" lon="-1.62579">
        <ele>83</ele>
        <time>2022-10-22T14:35:30Z</time>
      </trkpt>
      <trkpt lat="47.16396" lon="-1.62574">
        <ele>84</ele>
        <time>2022-10-22T14:35:32Z</time>
      </trkpt>
      <trkpt lat="47.16406" lon="-1.62567">
        <ele>84</ele>
        <time>2022-10-22T14:35:34Z</time>
      </trkpt>
      <trkpt lat="47.16415" lon="-1.62558">
        <ele>84</ele>
        <time>2022-10-22T14:35:36Z</time>
      </trkpt>
      <trkpt lat="47.16423" lon="-1.62549">
        <ele>84</ele>
        <time>2022-10-22T14:35:38Z</time>
      </trkpt>
      <trkpt lat="47.16431" lon="-1.62542">
        <ele>84</ele>
        <time>2022-10-22T14:35:40Z</time>
      </trkpt>
      <trkpt lat="47.16441" lon="-1.62539">
        <ele>84</ele>
        <time>2022-10-22T14:35:42Z</time>
      </trkpt>
      <trkpt lat="47.16452" lon="-1.62541">
        <ele>83</ele>
        <time>2022-10-22T14:35:44Z</time>
      </trkpt>
      <trkpt lat="47.16462" lon="-1.62544">
        <ele>83</ele>
        <time>2022-10-22T14:35:46Z</time>
      </trkpt>
      <trkpt lat="47.16472" lon="-1.62547">
        <ele>83</ele>
        <time>2022-10-22T14:35:48Z</time>
      </trkpt>
      <trkpt lat="47.16483" lon="-1.6255">
        <ele>82</ele>
        <time>2022-10-22T14:35:50Z</time>
      </trkpt>
      <trkpt lat="47.16493" lon="-1.62553">
        <ele>82</ele>
        <time>2022-10-22T14:35:52Z</time>
      </trkpt>
      <trkpt lat="47.16504" lon="-1.62556">
        <ele>82</ele>
        <time>2022-10-22T14:35:54Z</time>
      </trkpt>
      <trkpt lat="47.16515" lon="-1.62559">
        <ele>82</ele>
        <time>2022-10-22T14:35:56Z</time>
      </trkpt>
      <trkpt lat="47.16526" lon="-1.62563">
        <ele>82</ele>
        <time>2022-10-22T14:35:58Z</time>
      </trkpt>
      <trkpt lat="47.16537" lon="-1.62561">
        <ele>82</ele>
        <time>2022-10-22T14:36:00Z</time>
      </trkpt>
      <trkpt lat="47.16547" lon="-1.62552">
        <ele>83</ele>
        <time>2022-10-22T14:36:02Z</time>
      </trkpt>
      <trkpt lat="47.16556" lon="-1.62541">
        <ele>83</ele>
        <time>2022-10-22T14:36:04Z</time>
      </trkpt>
      <trkpt lat="47.16564" lon="-1.62529">
        <ele>83</ele>
        <time>2022-10-22T14:36:06Z</time>
      </trkpt>
      <trkpt lat="47.16572" lon="-1.62514">
        <ele>83</ele>
        <time>2022-10-22T14:36:08Z</time>
      </trkpt>
      <trkpt lat="47.16579" lon="-1.62499">
        <ele>83</ele>
        <time>2022-10-22T14:36:10Z</time>
      </trkpt>
      <trkpt lat="47.16585" lon="-1.62482">
        <ele>83</ele>
        <time>2022-10-22T14:36:12Z</time>
      </trkpt>
      <trkpt lat="47.16591" lon="-1.62465">
        <ele>83</ele>
        <time>2022-10-22T14:36:14Z</time>
      </trkpt>
      <trkpt lat="47.16599" lon="-1.62446">
        <ele>82</ele>
        <time>2022-10-22T14:36:16Z</time>
      </trkpt>
      <trkpt lat="47.16606" lon="-1.6243">
        <ele>81</ele>
        <time>2022-10-22T14:36:18Z</time>
      </trkpt>
      <trkpt lat="47.16614" lon="-1.62414">
        <ele>80</ele>
        <time>2022-10-22T14:36:20Z</time>
      </trkpt>
      <trkpt lat="47.16622" lon="-1.624">
        <ele>79</ele>
        <time>2022-10-22T14:36:22Z</time>
      </trkpt>
      <trkpt lat="47.16632" lon="-1.62386">
        <ele>79</ele>
        <time>2022-10-22T14:36:24Z</time>
      </trkpt>
      <trkpt lat="47.16643" lon="-1.62375">
        <ele>78</ele>
        <time>2022-10-22T14:36:26Z</time>
      </trkpt>
      <trkpt lat="47.16655" lon="-1.62366">
        <ele>79</ele>
        <time>2022-10-22T14:36:28Z</time>
      </trkpt>
      <trkpt lat="47.16669" lon="-1.6236">
        <ele>79</ele>
        <time>2022-10-22T14:36:30Z</time>
      </trkpt>
      <trkpt lat="47.16683" lon="-1.62361">
        <ele>79</ele>
        <time>2022-10-22T14:36:32Z</time>
      </trkpt>
      <trkpt lat="47.16696" lon="-1.62367">
        <ele>79</ele>
        <time>2022-10-22T14:36:34Z</time>
      </trkpt>
      <trkpt lat="47.16707" lon="-1.62378">
        <ele>78</ele>
        <time>2022-10-22T14:36:36Z</time>
      </trkpt>
      <trkpt lat="47.16715" lon="-1.6239">
        <ele>78</ele>
        <time>2022-10-22T14:36:38Z</time>
      </trkpt>
      <trkpt lat="47.16721" lon="-1.62403">
        <ele>77</ele>
        <time>2022-10-22T14:36:41Z</time>
      </trkpt>
      <trkpt lat="47.1673" lon="-1.62411">
        <ele>77</ele>
        <time>2022-10-22T14:36:45Z</time>
      </trkpt>
      <trkpt lat="47.16729" lon="-1.6243">
        <ele>77</ele>
        <time>2022-10-22T14:36:48Z</time>
      </trkpt>
      <trkpt lat="47.16725" lon="-1.62446">
        <ele>76</ele>
        <time>2022-10-22T14:36:50Z</time>
      </trkpt>
      <trkpt lat="47.16722" lon="-1.6246">
        <ele>75</ele>
        <time>2022-10-22T14:36:52Z</time>
      </trkpt>
      <trkpt lat="47.16718" lon="-1.62476">
        <ele>75</ele>
        <time>2022-10-22T14:36:54Z</time>
      </trkpt>
      <trkpt lat="47.16718" lon="-1.6249">
        <ele>74</ele>
        <time>2022-10-22T14:36:56Z</time>
      </trkpt>
      <trkpt lat="47.16726" lon="-1.62497">
        <ele>74</ele>
        <time>2022-10-22T14:36:58Z</time>
      </trkpt>
      <trkpt lat="47.16735" lon="-1.625">
        <ele>75</ele>
        <time>2022-10-22T14:37:00Z</time>
      </trkpt>
      <trkpt lat="47.16746" lon="-1.62505">
        <ele>75</ele>
        <time>2022-10-22T14:37:02Z</time>
      </trkpt>
      <trkpt lat="47.16755" lon="-1.62512">
        <ele>74</ele>
        <time>2022-10-22T14:37:04Z</time>
      </trkpt>
      <trkpt lat="47.16765" lon="-1.62517">
        <ele>75</ele>
        <time>2022-10-22T14:37:06Z</time>
      </trkpt>
      <trkpt lat="47.16774" lon="-1.62522">
        <ele>75</ele>
        <time>2022-10-22T14:37:08Z</time>
      </trkpt>
      <trkpt lat="47.16783" lon="-1.62528">
        <ele>76</ele>
        <time>2022-10-22T14:37:10Z</time>
      </trkpt>
      <trkpt lat="47.16792" lon="-1.62534">
        <ele>76</ele>
        <time>2022-10-22T14:37:12Z</time>
      </trkpt>
      <trkpt lat="47.16801" lon="-1.6254">
        <ele>76</ele>
        <time>2022-10-22T14:37:14Z</time>
      </trkpt>
      <trkpt lat="47.16809" lon="-1.62546">
        <ele>76</ele>
        <time>2022-10-22T14:37:16Z</time>
      </trkpt>
      <trkpt lat="47.16818" lon="-1.62552">
        <ele>76</ele>
        <time>2022-10-22T14:37:18Z</time>
      </trkpt>
      <trkpt lat="47.16826" lon="-1.62562">
        <ele>76</ele>
        <time>2022-10-22T14:37:20Z</time>
      </trkpt>
      <trkpt lat="47.16833" lon="-1.62573">
        <ele>75</ele>
        <time>2022-10-22T14:37:22Z</time>
      </trkpt>
      <trkpt lat="47.16831" lon="-1.62586">
        <ele>75</ele>
        <time>2022-10-22T14:37:24Z</time>
      </trkpt>
      <trkpt lat="47.16825" lon="-1.62598">
        <ele>75</ele>
        <time>2022-10-22T14:37:26Z</time>
      </trkpt>
      <trkpt lat="47.16816" lon="-1.62613">
        <ele>75</ele>
        <time>2022-10-22T14:37:29Z</time>
      </trkpt>
      <trkpt lat="47.16808" lon="-1.62627">
        <ele>74</ele>
        <time>2022-10-22T14:37:32Z</time>
      </trkpt>
      <trkpt lat="47.16801" lon="-1.62638">
        <ele>75</ele>
        <time>2022-10-22T14:37:35Z</time>
      </trkpt>
      <trkpt lat="47.16793" lon="-1.62649">
        <ele>75</ele>
        <time>2022-10-22T14:37:38Z</time>
      </trkpt>
      <trkpt lat="47.16787" lon="-1.62659">
        <ele>76</ele>
        <time>2022-10-22T14:37:41Z</time>
      </trkpt>
      <trkpt lat="47.1678" lon="-1.6265">
        <ele>75</ele>
        <time>2022-10-22T14:38:24Z</time>
      </trkpt>
    </trkseg>
  </trk>
</gpx>